<?xml version="1.0" encoding="UTF-8" standalone="no" ?>
<gpx xmlns="http://www.topografix.com/GPX/1/1" xmlns:xsi="http://www.w3.org/2001/XMLSchema-instance" xsi:schemaLocation="http://www.topografix.com/GPX/1/1 http://www.topografix.com/GPX/1/1/gpx.xsd" version="1.1" creator="VisuGPX - https://www.visugpx.com">
  <metadata>
    <name>Beaumont la Ferrière </name>
    <desc><![CDATA[Parcours 52,5kms Beaumont la ferriere]]></desc>
  </metadata>
  <trk>
    <name><![CDATA[Sequence 1]]></name>
    <trkseg>
      <trkpt lat="47.0789" lon="3.19745">
        <ele>217</ele>
        <time>2016-08-18T16:08:55Z</time>
      </trkpt>
      <trkpt lat="47.07902" lon="3.19775">
        <ele>217</ele>
        <time>2016-08-18T16:09:03Z</time>
      </trkpt>
      <trkpt lat="47.07906" lon="3.19783">
        <ele>219</ele>
        <time>2016-08-18T16:09:05Z</time>
      </trkpt>
      <trkpt lat="47.07916" lon="3.19805">
        <ele>218</ele>
        <time>2016-08-18T16:09:10Z</time>
      </trkpt>
      <trkpt lat="47.07934" lon="3.19853">
        <ele>219</ele>
        <time>2016-08-18T16:09:19Z</time>
      </trkpt>
      <trkpt lat="47.07936" lon="3.19858">
        <ele>219</ele>
        <time>2016-08-18T16:09:20Z</time>
      </trkpt>
      <trkpt lat="47.07948" lon="3.19883">
        <ele>220</ele>
        <time>2016-08-18T16:09:25Z</time>
      </trkpt>
      <trkpt lat="47.07959" lon="3.19906">
        <ele>218</ele>
        <time>2016-08-18T16:09:30Z</time>
      </trkpt>
      <trkpt lat="47.0797" lon="3.19932">
        <ele>219</ele>
        <time>2016-08-18T16:09:35Z</time>
      </trkpt>
      <trkpt lat="47.07983" lon="3.19964">
        <ele>218</ele>
        <time>2016-08-18T16:09:42Z</time>
      </trkpt>
      <trkpt lat="47.0799" lon="3.1998">
        <ele>220</ele>
        <time>2016-08-18T16:09:45Z</time>
      </trkpt>
      <trkpt lat="47.08015" lon="3.20015">
        <ele>221</ele>
        <time>2016-08-18T16:09:54Z</time>
      </trkpt>
      <trkpt lat="47.08019" lon="3.20013">
        <ele>222</ele>
        <time>2016-08-18T16:09:55Z</time>
      </trkpt>
      <trkpt lat="47.08039" lon="3.19995">
        <ele>223</ele>
        <time>2016-08-18T16:10:00Z</time>
      </trkpt>
      <trkpt lat="47.08059" lon="3.19975">
        <ele>226</ele>
        <time>2016-08-18T16:10:05Z</time>
      </trkpt>
      <trkpt lat="47.08076" lon="3.19954">
        <ele>226</ele>
        <time>2016-08-18T16:10:10Z</time>
      </trkpt>
      <trkpt lat="47.08107" lon="3.19926">
        <ele>225</ele>
        <time>2016-08-18T16:10:18Z</time>
      </trkpt>
      <trkpt lat="47.08116" lon="3.19918">
        <ele>227</ele>
        <time>2016-08-18T16:10:20Z</time>
      </trkpt>
      <trkpt lat="47.08145" lon="3.19937">
        <ele>228</ele>
        <time>2016-08-18T16:10:27Z</time>
      </trkpt>
      <trkpt lat="47.08156" lon="3.19952">
        <ele>228</ele>
        <time>2016-08-18T16:10:30Z</time>
      </trkpt>
      <trkpt lat="47.08175" lon="3.1998">
        <ele>226</ele>
        <time>2016-08-18T16:10:35Z</time>
      </trkpt>
      <trkpt lat="47.08204" lon="3.20024">
        <ele>226</ele>
        <time>2016-08-18T16:10:43Z</time>
      </trkpt>
      <trkpt lat="47.08214" lon="3.20042">
        <ele>226</ele>
        <time>2016-08-18T16:10:46Z</time>
      </trkpt>
      <trkpt lat="47.08231" lon="3.20069">
        <ele>227</ele>
        <time>2016-08-18T16:10:51Z</time>
      </trkpt>
      <trkpt lat="47.08265" lon="3.20115">
        <ele>225</ele>
        <time>2016-08-18T16:10:59Z</time>
      </trkpt>
      <trkpt lat="47.08276" lon="3.20119">
        <ele>223</ele>
        <time>2016-08-18T16:11:01Z</time>
      </trkpt>
      <trkpt lat="47.08308" lon="3.20132">
        <ele>223</ele>
        <time>2016-08-18T16:11:06Z</time>
      </trkpt>
      <trkpt lat="47.08336" lon="3.2016">
        <ele>221</ele>
        <time>2016-08-18T16:11:11Z</time>
      </trkpt>
      <trkpt lat="47.08364" lon="3.20186">
        <ele>224</ele>
        <time>2016-08-18T16:11:16Z</time>
      </trkpt>
      <trkpt lat="47.08389" lon="3.20211">
        <ele>225</ele>
        <time>2016-08-18T16:11:21Z</time>
      </trkpt>
      <trkpt lat="47.08409" lon="3.20232">
        <ele>226</ele>
        <time>2016-08-18T16:11:26Z</time>
      </trkpt>
      <trkpt lat="47.08431" lon="3.20253">
        <ele>227</ele>
        <time>2016-08-18T16:11:31Z</time>
      </trkpt>
      <trkpt lat="47.0845" lon="3.20272">
        <ele>227</ele>
        <time>2016-08-18T16:11:36Z</time>
      </trkpt>
      <trkpt lat="47.08468" lon="3.20292">
        <ele>228</ele>
        <time>2016-08-18T16:11:41Z</time>
      </trkpt>
      <trkpt lat="47.08488" lon="3.2031">
        <ele>230</ele>
        <time>2016-08-18T16:11:46Z</time>
      </trkpt>
      <trkpt lat="47.08509" lon="3.20329">
        <ele>230</ele>
        <time>2016-08-18T16:11:51Z</time>
      </trkpt>
      <trkpt lat="47.08529" lon="3.20347">
        <ele>232</ele>
        <time>2016-08-18T16:11:56Z</time>
      </trkpt>
      <trkpt lat="47.08561" lon="3.20381">
        <ele>237</ele>
        <time>2016-08-18T16:12:04Z</time>
      </trkpt>
      <trkpt lat="47.0857" lon="3.2039">
        <ele>236</ele>
        <time>2016-08-18T16:12:06Z</time>
      </trkpt>
      <trkpt lat="47.08592" lon="3.2041">
        <ele>238</ele>
        <time>2016-08-18T16:12:11Z</time>
      </trkpt>
      <trkpt lat="47.08612" lon="3.20432">
        <ele>237</ele>
        <time>2016-08-18T16:12:16Z</time>
      </trkpt>
      <trkpt lat="47.08629" lon="3.20469">
        <ele>235</ele>
        <time>2016-08-18T16:12:24Z</time>
      </trkpt>
      <trkpt lat="47.08625" lon="3.20482">
        <ele>236</ele>
        <time>2016-08-18T16:12:26Z</time>
      </trkpt>
      <trkpt lat="47.08611" lon="3.20516">
        <ele>233</ele>
        <time>2016-08-18T16:12:31Z</time>
      </trkpt>
      <trkpt lat="47.08602" lon="3.20549">
        <ele>234</ele>
        <time>2016-08-18T16:12:36Z</time>
      </trkpt>
      <trkpt lat="47.08592" lon="3.20584">
        <ele>235</ele>
        <time>2016-08-18T16:12:41Z</time>
      </trkpt>
      <trkpt lat="47.08578" lon="3.20625">
        <ele>236</ele>
        <time>2016-08-18T16:12:47Z</time>
      </trkpt>
      <trkpt lat="47.08569" lon="3.20656">
        <ele>236</ele>
        <time>2016-08-18T16:12:51Z</time>
      </trkpt>
      <trkpt lat="47.08557" lon="3.20695">
        <ele>235</ele>
        <time>2016-08-18T16:12:56Z</time>
      </trkpt>
      <trkpt lat="47.08544" lon="3.20735">
        <ele>234</ele>
        <time>2016-08-18T16:13:01Z</time>
      </trkpt>
      <trkpt lat="47.08531" lon="3.20775">
        <ele>235</ele>
        <time>2016-08-18T16:13:06Z</time>
      </trkpt>
      <trkpt lat="47.08519" lon="3.20813">
        <ele>234</ele>
        <time>2016-08-18T16:13:11Z</time>
      </trkpt>
      <trkpt lat="47.08507" lon="3.20854">
        <ele>235</ele>
        <time>2016-08-18T16:13:16Z</time>
      </trkpt>
      <trkpt lat="47.08496" lon="3.20891">
        <ele>233</ele>
        <time>2016-08-18T16:13:21Z</time>
      </trkpt>
      <trkpt lat="47.08478" lon="3.20948">
        <ele>235</ele>
        <time>2016-08-18T16:13:28Z</time>
      </trkpt>
      <trkpt lat="47.08469" lon="3.2097">
        <ele>237</ele>
        <time>2016-08-18T16:13:31Z</time>
      </trkpt>
      <trkpt lat="47.08459" lon="3.21011">
        <ele>237</ele>
        <time>2016-08-18T16:13:36Z</time>
      </trkpt>
      <trkpt lat="47.08436" lon="3.21083">
        <ele>229</ele>
        <time>2016-08-18T16:13:45Z</time>
      </trkpt>
      <trkpt lat="47.08434" lon="3.21092">
        <ele>230</ele>
        <time>2016-08-18T16:13:46Z</time>
      </trkpt>
      <trkpt lat="47.08408" lon="3.21174">
        <ele>228</ele>
        <time>2016-08-18T16:13:55Z</time>
      </trkpt>
      <trkpt lat="47.08405" lon="3.21184">
        <ele>228</ele>
        <time>2016-08-18T16:13:56Z</time>
      </trkpt>
      <trkpt lat="47.0839" lon="3.21233">
        <ele>228</ele>
        <time>2016-08-18T16:14:01Z</time>
      </trkpt>
      <trkpt lat="47.08377" lon="3.21284">
        <ele>228</ele>
        <time>2016-08-18T16:14:06Z</time>
      </trkpt>
      <trkpt lat="47.08352" lon="3.2137">
        <ele>233</ele>
        <time>2016-08-18T16:14:14Z</time>
      </trkpt>
      <trkpt lat="47.08346" lon="3.21392">
        <ele>233</ele>
        <time>2016-08-18T16:14:16Z</time>
      </trkpt>
      <trkpt lat="47.08331" lon="3.21443">
        <ele>232</ele>
        <time>2016-08-18T16:14:21Z</time>
      </trkpt>
      <trkpt lat="47.08306" lon="3.21529">
        <ele>228</ele>
        <time>2016-08-18T16:14:29Z</time>
      </trkpt>
      <trkpt lat="47.08294" lon="3.21573">
        <ele>230</ele>
        <time>2016-08-18T16:14:33Z</time>
      </trkpt>
      <trkpt lat="47.08285" lon="3.21606">
        <ele>229</ele>
        <time>2016-08-18T16:14:36Z</time>
      </trkpt>
      <trkpt lat="47.08269" lon="3.21657">
        <ele>230</ele>
        <time>2016-08-18T16:14:41Z</time>
      </trkpt>
      <trkpt lat="47.08249" lon="3.21724">
        <ele>229</ele>
        <time>2016-08-18T16:14:48Z</time>
      </trkpt>
      <trkpt lat="47.08231" lon="3.21783">
        <ele>232</ele>
        <time>2016-08-18T16:14:54Z</time>
      </trkpt>
      <trkpt lat="47.08225" lon="3.21804">
        <ele>233</ele>
        <time>2016-08-18T16:14:56Z</time>
      </trkpt>
      <trkpt lat="47.08202" lon="3.21884">
        <ele>228</ele>
        <time>2016-08-18T16:15:05Z</time>
      </trkpt>
      <trkpt lat="47.08191" lon="3.21919">
        <ele>227</ele>
        <time>2016-08-18T16:15:09Z</time>
      </trkpt>
      <trkpt lat="47.08185" lon="3.21937">
        <ele>228</ele>
        <time>2016-08-18T16:15:11Z</time>
      </trkpt>
      <trkpt lat="47.08171" lon="3.21984">
        <ele>228</ele>
        <time>2016-08-18T16:15:16Z</time>
      </trkpt>
      <trkpt lat="47.08151" lon="3.22056">
        <ele>225</ele>
        <time>2016-08-18T16:15:23Z</time>
      </trkpt>
      <trkpt lat="47.08122" lon="3.22138">
        <ele>222</ele>
        <time>2016-08-18T16:15:30Z</time>
      </trkpt>
      <trkpt lat="47.08101" lon="3.22191">
        <ele>224</ele>
        <time>2016-08-18T16:15:34Z</time>
      </trkpt>
      <trkpt lat="47.08084" lon="3.22247">
        <ele>221</ele>
        <time>2016-08-18T16:15:38Z</time>
      </trkpt>
      <trkpt lat="47.08056" lon="3.22349">
        <ele>221</ele>
        <time>2016-08-18T16:15:45Z</time>
      </trkpt>
      <trkpt lat="47.08045" lon="3.22391">
        <ele>219</ele>
        <time>2016-08-18T16:15:48Z</time>
      </trkpt>
      <trkpt lat="47.08033" lon="3.22429">
        <ele>221</ele>
        <time>2016-08-18T16:15:51Z</time>
      </trkpt>
      <trkpt lat="47.08017" lon="3.22487">
        <ele>223</ele>
        <time>2016-08-18T16:15:56Z</time>
      </trkpt>
      <trkpt lat="47.07998" lon="3.22543">
        <ele>229</ele>
        <time>2016-08-18T16:16:02Z</time>
      </trkpt>
      <trkpt lat="47.0799" lon="3.22589">
        <ele>224</ele>
        <time>2016-08-18T16:16:08Z</time>
      </trkpt>
      <trkpt lat="47.07981" lon="3.2263">
        <ele>228</ele>
        <time>2016-08-18T16:16:14Z</time>
      </trkpt>
      <trkpt lat="47.07976" lon="3.22641">
        <ele>228</ele>
        <time>2016-08-18T16:16:16Z</time>
      </trkpt>
      <trkpt lat="47.0797" lon="3.22669">
        <ele>228</ele>
        <time>2016-08-18T16:16:21Z</time>
      </trkpt>
      <trkpt lat="47.07958" lon="3.22703">
        <ele>230</ele>
        <time>2016-08-18T16:16:27Z</time>
      </trkpt>
      <trkpt lat="47.07944" lon="3.22733">
        <ele>228</ele>
        <time>2016-08-18T16:16:32Z</time>
      </trkpt>
      <trkpt lat="47.07939" lon="3.22764">
        <ele>225</ele>
        <time>2016-08-18T16:16:36Z</time>
      </trkpt>
      <trkpt lat="47.07928" lon="3.22805">
        <ele>226</ele>
        <time>2016-08-18T16:16:41Z</time>
      </trkpt>
      <trkpt lat="47.0792" lon="3.22844">
        <ele>226</ele>
        <time>2016-08-18T16:16:46Z</time>
      </trkpt>
      <trkpt lat="47.07899" lon="3.22912">
        <ele>225</ele>
        <time>2016-08-18T16:16:55Z</time>
      </trkpt>
      <trkpt lat="47.07887" lon="3.22948">
        <ele>224</ele>
        <time>2016-08-18T16:17:00Z</time>
      </trkpt>
      <trkpt lat="47.07884" lon="3.22956">
        <ele>225</ele>
        <time>2016-08-18T16:17:01Z</time>
      </trkpt>
      <trkpt lat="47.07874" lon="3.22988">
        <ele>229</ele>
        <time>2016-08-18T16:17:06Z</time>
      </trkpt>
      <trkpt lat="47.07866" lon="3.23017">
        <ele>235</ele>
        <time>2016-08-18T16:17:11Z</time>
      </trkpt>
      <trkpt lat="47.07856" lon="3.23043">
        <ele>240</ele>
        <time>2016-08-18T16:17:16Z</time>
      </trkpt>
      <trkpt lat="47.07845" lon="3.23081">
        <ele>240</ele>
        <time>2016-08-18T16:17:24Z</time>
      </trkpt>
      <trkpt lat="47.07841" lon="3.23091">
        <ele>242</ele>
        <time>2016-08-18T16:17:26Z</time>
      </trkpt>
      <trkpt lat="47.07832" lon="3.23107">
        <ele>246</ele>
        <time>2016-08-18T16:17:31Z</time>
      </trkpt>
      <trkpt lat="47.07825" lon="3.23127">
        <ele>249</ele>
        <time>2016-08-18T16:17:36Z</time>
      </trkpt>
      <trkpt lat="47.07817" lon="3.23153">
        <ele>253</ele>
        <time>2016-08-18T16:17:41Z</time>
      </trkpt>
      <trkpt lat="47.07811" lon="3.23178">
        <ele>252</ele>
        <time>2016-08-18T16:17:46Z</time>
      </trkpt>
      <trkpt lat="47.07803" lon="3.23201">
        <ele>255</ele>
        <time>2016-08-18T16:17:51Z</time>
      </trkpt>
      <trkpt lat="47.07789" lon="3.23238">
        <ele>257</ele>
        <time>2016-08-18T16:17:59Z</time>
      </trkpt>
      <trkpt lat="47.07786" lon="3.23252">
        <ele>250</ele>
        <time>2016-08-18T16:18:02Z</time>
      </trkpt>
      <trkpt lat="47.07779" lon="3.23287">
        <ele>246</ele>
        <time>2016-08-18T16:18:08Z</time>
      </trkpt>
      <trkpt lat="47.07773" lon="3.23308">
        <ele>243</ele>
        <time>2016-08-18T16:18:12Z</time>
      </trkpt>
      <trkpt lat="47.07769" lon="3.23332">
        <ele>245</ele>
        <time>2016-08-18T16:18:16Z</time>
      </trkpt>
      <trkpt lat="47.07756" lon="3.23373">
        <ele>243</ele>
        <time>2016-08-18T16:18:23Z</time>
      </trkpt>
      <trkpt lat="47.0775" lon="3.23392">
        <ele>243</ele>
        <time>2016-08-18T16:18:26Z</time>
      </trkpt>
      <trkpt lat="47.07739" lon="3.2342">
        <ele>243</ele>
        <time>2016-08-18T16:18:31Z</time>
      </trkpt>
      <trkpt lat="47.07738" lon="3.23426">
        <ele>243</ele>
        <time>2016-08-18T16:18:32Z</time>
      </trkpt>
      <trkpt lat="47.07735" lon="3.23433">
        <ele>243</ele>
        <time>2016-08-18T16:18:33Z</time>
      </trkpt>
      <trkpt lat="47.07733" lon="3.2344">
        <ele>243</ele>
        <time>2016-08-18T16:18:34Z</time>
      </trkpt>
      <trkpt lat="47.0773" lon="3.23447">
        <ele>243</ele>
        <time>2016-08-18T16:18:35Z</time>
      </trkpt>
      <trkpt lat="47.07727" lon="3.23453">
        <ele>242</ele>
        <time>2016-08-18T16:18:36Z</time>
      </trkpt>
      <trkpt lat="47.07725" lon="3.23459">
        <ele>241</ele>
        <time>2016-08-18T16:18:37Z</time>
      </trkpt>
      <trkpt lat="47.07723" lon="3.23466">
        <ele>240</ele>
        <time>2016-08-18T16:18:38Z</time>
      </trkpt>
      <trkpt lat="47.0772" lon="3.23473">
        <ele>240</ele>
        <time>2016-08-18T16:18:39Z</time>
      </trkpt>
      <trkpt lat="47.07719" lon="3.23479">
        <ele>240</ele>
        <time>2016-08-18T16:18:40Z</time>
      </trkpt>
      <trkpt lat="47.07717" lon="3.23487">
        <ele>240</ele>
        <time>2016-08-18T16:18:41Z</time>
      </trkpt>
      <trkpt lat="47.07715" lon="3.23494">
        <ele>239</ele>
        <time>2016-08-18T16:18:43Z</time>
      </trkpt>
      <trkpt lat="47.07712" lon="3.23501">
        <ele>239</ele>
        <time>2016-08-18T16:18:44Z</time>
      </trkpt>
      <trkpt lat="47.0771" lon="3.23508">
        <ele>239</ele>
        <time>2016-08-18T16:18:45Z</time>
      </trkpt>
      <trkpt lat="47.07707" lon="3.23516">
        <ele>239</ele>
        <time>2016-08-18T16:18:46Z</time>
      </trkpt>
      <trkpt lat="47.07705" lon="3.23523">
        <ele>239</ele>
        <time>2016-08-18T16:18:47Z</time>
      </trkpt>
      <trkpt lat="47.07702" lon="3.2353">
        <ele>239</ele>
        <time>2016-08-18T16:18:48Z</time>
      </trkpt>
      <trkpt lat="47.07699" lon="3.23538">
        <ele>239</ele>
        <time>2016-08-18T16:18:49Z</time>
      </trkpt>
      <trkpt lat="47.07697" lon="3.23545">
        <ele>239</ele>
        <time>2016-08-18T16:18:50Z</time>
      </trkpt>
      <trkpt lat="47.07695" lon="3.23552">
        <ele>239</ele>
        <time>2016-08-18T16:18:51Z</time>
      </trkpt>
      <trkpt lat="47.07693" lon="3.23559">
        <ele>240</ele>
        <time>2016-08-18T16:18:52Z</time>
      </trkpt>
      <trkpt lat="47.0769" lon="3.23566">
        <ele>240</ele>
        <time>2016-08-18T16:18:53Z</time>
      </trkpt>
      <trkpt lat="47.07686" lon="3.23573">
        <ele>240</ele>
        <time>2016-08-18T16:18:54Z</time>
      </trkpt>
      <trkpt lat="47.07683" lon="3.23585">
        <ele>241</ele>
        <time>2016-08-18T16:18:55Z</time>
      </trkpt>
      <trkpt lat="47.07681" lon="3.23593">
        <ele>241</ele>
        <time>2016-08-18T16:18:56Z</time>
      </trkpt>
      <trkpt lat="47.07681" lon="3.23596">
        <ele>241</ele>
        <time>2016-08-18T16:18:57Z</time>
      </trkpt>
      <trkpt lat="47.07678" lon="3.23604">
        <ele>242</ele>
        <time>2016-08-18T16:18:58Z</time>
      </trkpt>
      <trkpt lat="47.07677" lon="3.23612">
        <ele>242</ele>
        <time>2016-08-18T16:18:59Z</time>
      </trkpt>
      <trkpt lat="47.07675" lon="3.23621">
        <ele>242</ele>
        <time>2016-08-18T16:19:00Z</time>
      </trkpt>
      <trkpt lat="47.07674" lon="3.23628">
        <ele>243</ele>
        <time>2016-08-18T16:19:01Z</time>
      </trkpt>
      <trkpt lat="47.07672" lon="3.23638">
        <ele>244</ele>
        <time>2016-08-18T16:19:02Z</time>
      </trkpt>
      <trkpt lat="47.0767" lon="3.23645">
        <ele>244</ele>
        <time>2016-08-18T16:19:03Z</time>
      </trkpt>
      <trkpt lat="47.07669" lon="3.23653">
        <ele>244</ele>
        <time>2016-08-18T16:19:04Z</time>
      </trkpt>
      <trkpt lat="47.07666" lon="3.23661">
        <ele>245</ele>
        <time>2016-08-18T16:19:05Z</time>
      </trkpt>
      <trkpt lat="47.07664" lon="3.23669">
        <ele>245</ele>
        <time>2016-08-18T16:19:06Z</time>
      </trkpt>
      <trkpt lat="47.07661" lon="3.2368">
        <ele>248</ele>
        <time>2016-08-18T16:19:07Z</time>
      </trkpt>
      <trkpt lat="47.0766" lon="3.23687">
        <ele>249</ele>
        <time>2016-08-18T16:19:08Z</time>
      </trkpt>
      <trkpt lat="47.07658" lon="3.23692">
        <ele>249</ele>
        <time>2016-08-18T16:19:09Z</time>
      </trkpt>
      <trkpt lat="47.07657" lon="3.237">
        <ele>250</ele>
        <time>2016-08-18T16:19:10Z</time>
      </trkpt>
      <trkpt lat="47.07655" lon="3.23707">
        <ele>250</ele>
        <time>2016-08-18T16:19:11Z</time>
      </trkpt>
      <trkpt lat="47.07654" lon="3.23715">
        <ele>250</ele>
        <time>2016-08-18T16:19:12Z</time>
      </trkpt>
      <trkpt lat="47.07652" lon="3.23721">
        <ele>250</ele>
        <time>2016-08-18T16:19:13Z</time>
      </trkpt>
      <trkpt lat="47.0765" lon="3.23727">
        <ele>250</ele>
        <time>2016-08-18T16:19:14Z</time>
      </trkpt>
      <trkpt lat="47.07648" lon="3.23733">
        <ele>249</ele>
        <time>2016-08-18T16:19:15Z</time>
      </trkpt>
      <trkpt lat="47.07647" lon="3.23739">
        <ele>249</ele>
        <time>2016-08-18T16:19:16Z</time>
      </trkpt>
      <trkpt lat="47.07645" lon="3.23745">
        <ele>249</ele>
        <time>2016-08-18T16:19:17Z</time>
      </trkpt>
      <trkpt lat="47.07644" lon="3.23751">
        <ele>247</ele>
        <time>2016-08-18T16:19:18Z</time>
      </trkpt>
      <trkpt lat="47.07643" lon="3.23758">
        <ele>246</ele>
        <time>2016-08-18T16:19:19Z</time>
      </trkpt>
      <trkpt lat="47.07642" lon="3.23765">
        <ele>246</ele>
        <time>2016-08-18T16:19:21Z</time>
      </trkpt>
      <trkpt lat="47.0764" lon="3.23772">
        <ele>246</ele>
        <time>2016-08-18T16:19:22Z</time>
      </trkpt>
      <trkpt lat="47.07638" lon="3.23779">
        <ele>246</ele>
        <time>2016-08-18T16:19:23Z</time>
      </trkpt>
      <trkpt lat="47.07636" lon="3.23786">
        <ele>246</ele>
        <time>2016-08-18T16:19:24Z</time>
      </trkpt>
      <trkpt lat="47.07634" lon="3.23793">
        <ele>246</ele>
        <time>2016-08-18T16:19:25Z</time>
      </trkpt>
      <trkpt lat="47.07633" lon="3.23799">
        <ele>247</ele>
        <time>2016-08-18T16:19:26Z</time>
      </trkpt>
      <trkpt lat="47.07632" lon="3.23805">
        <ele>247</ele>
        <time>2016-08-18T16:19:27Z</time>
      </trkpt>
      <trkpt lat="47.0763" lon="3.23811">
        <ele>247</ele>
        <time>2016-08-18T16:19:28Z</time>
      </trkpt>
      <trkpt lat="47.07629" lon="3.23816">
        <ele>247</ele>
        <time>2016-08-18T16:19:29Z</time>
      </trkpt>
      <trkpt lat="47.07627" lon="3.23823">
        <ele>248</ele>
        <time>2016-08-18T16:19:30Z</time>
      </trkpt>
      <trkpt lat="47.07622" lon="3.23839">
        <ele>251</ele>
        <time>2016-08-18T16:19:32Z</time>
      </trkpt>
      <trkpt lat="47.07621" lon="3.2384">
        <ele>251</ele>
        <time>2016-08-18T16:19:32Z</time>
      </trkpt>
      <trkpt lat="47.07619" lon="3.23847">
        <ele>252</ele>
        <time>2016-08-18T16:19:33Z</time>
      </trkpt>
      <trkpt lat="47.07616" lon="3.23854">
        <ele>252</ele>
        <time>2016-08-18T16:19:34Z</time>
      </trkpt>
      <trkpt lat="47.07614" lon="3.2386">
        <ele>252</ele>
        <time>2016-08-18T16:19:35Z</time>
      </trkpt>
      <trkpt lat="47.07612" lon="3.23867">
        <ele>253</ele>
        <time>2016-08-18T16:19:36Z</time>
      </trkpt>
      <trkpt lat="47.07609" lon="3.23874">
        <ele>253</ele>
        <time>2016-08-18T16:19:37Z</time>
      </trkpt>
      <trkpt lat="47.07607" lon="3.2388">
        <ele>253</ele>
        <time>2016-08-18T16:19:38Z</time>
      </trkpt>
      <trkpt lat="47.07605" lon="3.23887">
        <ele>254</ele>
        <time>2016-08-18T16:19:39Z</time>
      </trkpt>
      <trkpt lat="47.07601" lon="3.23903">
        <ele>255</ele>
        <time>2016-08-18T16:19:41Z</time>
      </trkpt>
      <trkpt lat="47.076" lon="3.23906">
        <ele>255</ele>
        <time>2016-08-18T16:19:41Z</time>
      </trkpt>
      <trkpt lat="47.07598" lon="3.23912">
        <ele>255</ele>
        <time>2016-08-18T16:19:42Z</time>
      </trkpt>
      <trkpt lat="47.07598" lon="3.23923">
        <ele>254</ele>
        <time>2016-08-18T16:19:43Z</time>
      </trkpt>
      <trkpt lat="47.07597" lon="3.23926">
        <ele>254</ele>
        <time>2016-08-18T16:19:44Z</time>
      </trkpt>
      <trkpt lat="47.07595" lon="3.23934">
        <ele>253</ele>
        <time>2016-08-18T16:19:45Z</time>
      </trkpt>
      <trkpt lat="47.07592" lon="3.23941">
        <ele>253</ele>
        <time>2016-08-18T16:19:46Z</time>
      </trkpt>
      <trkpt lat="47.07591" lon="3.2395">
        <ele>253</ele>
        <time>2016-08-18T16:19:47Z</time>
      </trkpt>
      <trkpt lat="47.07588" lon="3.23958">
        <ele>253</ele>
        <time>2016-08-18T16:19:48Z</time>
      </trkpt>
      <trkpt lat="47.07586" lon="3.23967">
        <ele>254</ele>
        <time>2016-08-18T16:19:49Z</time>
      </trkpt>
      <trkpt lat="47.07584" lon="3.23975">
        <ele>254</ele>
        <time>2016-08-18T16:19:50Z</time>
      </trkpt>
      <trkpt lat="47.07582" lon="3.23985">
        <ele>254</ele>
        <time>2016-08-18T16:19:51Z</time>
      </trkpt>
      <trkpt lat="47.07579" lon="3.23994">
        <ele>254</ele>
        <time>2016-08-18T16:19:52Z</time>
      </trkpt>
      <trkpt lat="47.07575" lon="3.24003">
        <ele>254</ele>
        <time>2016-08-18T16:19:53Z</time>
      </trkpt>
      <trkpt lat="47.07572" lon="3.24012">
        <ele>254</ele>
        <time>2016-08-18T16:19:54Z</time>
      </trkpt>
      <trkpt lat="47.0757" lon="3.24022">
        <ele>254</ele>
        <time>2016-08-18T16:19:55Z</time>
      </trkpt>
      <trkpt lat="47.07567" lon="3.24032">
        <ele>253</ele>
        <time>2016-08-18T16:19:56Z</time>
      </trkpt>
      <trkpt lat="47.07563" lon="3.24043">
        <ele>252</ele>
        <time>2016-08-18T16:19:57Z</time>
      </trkpt>
      <trkpt lat="47.07559" lon="3.24053">
        <ele>252</ele>
        <time>2016-08-18T16:19:58Z</time>
      </trkpt>
      <trkpt lat="47.07556" lon="3.24064">
        <ele>251</ele>
        <time>2016-08-18T16:19:59Z</time>
      </trkpt>
      <trkpt lat="47.07552" lon="3.24074">
        <ele>251</ele>
        <time>2016-08-18T16:20:00Z</time>
      </trkpt>
      <trkpt lat="47.07548" lon="3.24086">
        <ele>250</ele>
        <time>2016-08-18T16:20:01Z</time>
      </trkpt>
      <trkpt lat="47.07544" lon="3.24097">
        <ele>250</ele>
        <time>2016-08-18T16:20:02Z</time>
      </trkpt>
      <trkpt lat="47.0754" lon="3.2411">
        <ele>249</ele>
        <time>2016-08-18T16:20:03Z</time>
      </trkpt>
      <trkpt lat="47.07536" lon="3.24124">
        <ele>247</ele>
        <time>2016-08-18T16:20:04Z</time>
      </trkpt>
      <trkpt lat="47.0753" lon="3.24139">
        <ele>244</ele>
        <time>2016-08-18T16:20:05Z</time>
      </trkpt>
      <trkpt lat="47.07526" lon="3.24154">
        <ele>244</ele>
        <time>2016-08-18T16:20:07Z</time>
      </trkpt>
      <trkpt lat="47.07522" lon="3.24168">
        <ele>244</ele>
        <time>2016-08-18T16:20:07Z</time>
      </trkpt>
      <trkpt lat="47.07517" lon="3.24182">
        <ele>243</ele>
        <time>2016-08-18T16:20:09Z</time>
      </trkpt>
      <trkpt lat="47.07513" lon="3.24198">
        <ele>243</ele>
        <time>2016-08-18T16:20:10Z</time>
      </trkpt>
      <trkpt lat="47.07507" lon="3.24214">
        <ele>242</ele>
        <time>2016-08-18T16:20:11Z</time>
      </trkpt>
      <trkpt lat="47.07502" lon="3.24229">
        <ele>241</ele>
        <time>2016-08-18T16:20:12Z</time>
      </trkpt>
      <trkpt lat="47.07497" lon="3.24244">
        <ele>241</ele>
        <time>2016-08-18T16:20:13Z</time>
      </trkpt>
      <trkpt lat="47.07489" lon="3.24273">
        <ele>241</ele>
        <time>2016-08-18T16:20:14Z</time>
      </trkpt>
      <trkpt lat="47.07489" lon="3.24276">
        <ele>241</ele>
        <time>2016-08-18T16:20:15Z</time>
      </trkpt>
      <trkpt lat="47.07483" lon="3.24308">
        <ele>241</ele>
        <time>2016-08-18T16:20:16Z</time>
      </trkpt>
      <trkpt lat="47.07483" lon="3.24311">
        <ele>241</ele>
        <time>2016-08-18T16:20:17Z</time>
      </trkpt>
      <trkpt lat="47.0748" lon="3.2433">
        <ele>241</ele>
        <time>2016-08-18T16:20:18Z</time>
      </trkpt>
      <trkpt lat="47.07478" lon="3.24348">
        <ele>240</ele>
        <time>2016-08-18T16:20:19Z</time>
      </trkpt>
      <trkpt lat="47.07477" lon="3.24381">
        <ele>238</ele>
        <time>2016-08-18T16:20:21Z</time>
      </trkpt>
      <trkpt lat="47.07477" lon="3.24385">
        <ele>238</ele>
        <time>2016-08-18T16:20:21Z</time>
      </trkpt>
      <trkpt lat="47.07477" lon="3.24403">
        <ele>237</ele>
        <time>2016-08-18T16:20:22Z</time>
      </trkpt>
      <trkpt lat="47.07478" lon="3.24422">
        <ele>235</ele>
        <time>2016-08-18T16:20:23Z</time>
      </trkpt>
      <trkpt lat="47.07478" lon="3.24442">
        <ele>234</ele>
        <time>2016-08-18T16:20:24Z</time>
      </trkpt>
      <trkpt lat="47.0748" lon="3.24463">
        <ele>232</ele>
        <time>2016-08-18T16:20:25Z</time>
      </trkpt>
      <trkpt lat="47.07481" lon="3.24483">
        <ele>231</ele>
        <time>2016-08-18T16:20:26Z</time>
      </trkpt>
      <trkpt lat="47.07483" lon="3.24503">
        <ele>230</ele>
        <time>2016-08-18T16:20:27Z</time>
      </trkpt>
      <trkpt lat="47.07489" lon="3.24535">
        <ele>228</ele>
        <time>2016-08-18T16:20:29Z</time>
      </trkpt>
      <trkpt lat="47.07493" lon="3.24551">
        <ele>226</ele>
        <time>2016-08-18T16:20:29Z</time>
      </trkpt>
      <trkpt lat="47.07495" lon="3.24561">
        <ele>226</ele>
        <time>2016-08-18T16:20:30Z</time>
      </trkpt>
      <trkpt lat="47.075" lon="3.2458">
        <ele>224</ele>
        <time>2016-08-18T16:20:31Z</time>
      </trkpt>
      <trkpt lat="47.07505" lon="3.24598">
        <ele>224</ele>
        <time>2016-08-18T16:20:32Z</time>
      </trkpt>
      <trkpt lat="47.0751" lon="3.24616">
        <ele>222</ele>
        <time>2016-08-18T16:20:33Z</time>
      </trkpt>
      <trkpt lat="47.07515" lon="3.24633">
        <ele>222</ele>
        <time>2016-08-18T16:20:34Z</time>
      </trkpt>
      <trkpt lat="47.07522" lon="3.24657">
        <ele>220</ele>
        <time>2016-08-18T16:20:35Z</time>
      </trkpt>
      <trkpt lat="47.07527" lon="3.24675">
        <ele>218</ele>
        <time>2016-08-18T16:20:37Z</time>
      </trkpt>
      <trkpt lat="47.07532" lon="3.24692">
        <ele>217</ele>
        <time>2016-08-18T16:20:38Z</time>
      </trkpt>
      <trkpt lat="47.07535" lon="3.24704">
        <ele>217</ele>
        <time>2016-08-18T16:20:38Z</time>
      </trkpt>
      <trkpt lat="47.07541" lon="3.24724">
        <ele>216</ele>
        <time>2016-08-18T16:20:39Z</time>
      </trkpt>
      <trkpt lat="47.07547" lon="3.24744">
        <ele>215</ele>
        <time>2016-08-18T16:20:41Z</time>
      </trkpt>
      <trkpt lat="47.0755" lon="3.24754">
        <ele>215</ele>
        <time>2016-08-18T16:20:41Z</time>
      </trkpt>
      <trkpt lat="47.07555" lon="3.24771">
        <ele>214</ele>
        <time>2016-08-18T16:20:42Z</time>
      </trkpt>
      <trkpt lat="47.07561" lon="3.2479">
        <ele>214</ele>
        <time>2016-08-18T16:20:43Z</time>
      </trkpt>
      <trkpt lat="47.07567" lon="3.24806">
        <ele>213</ele>
        <time>2016-08-18T16:20:44Z</time>
      </trkpt>
      <trkpt lat="47.07571" lon="3.2482">
        <ele>213</ele>
        <time>2016-08-18T16:20:45Z</time>
      </trkpt>
      <trkpt lat="47.07576" lon="3.24835">
        <ele>212</ele>
        <time>2016-08-18T16:20:46Z</time>
      </trkpt>
      <trkpt lat="47.07582" lon="3.24854">
        <ele>212</ele>
        <time>2016-08-18T16:20:48Z</time>
      </trkpt>
      <trkpt lat="47.07586" lon="3.24869">
        <ele>212</ele>
        <time>2016-08-18T16:20:49Z</time>
      </trkpt>
      <trkpt lat="47.07591" lon="3.24884">
        <ele>212</ele>
        <time>2016-08-18T16:20:50Z</time>
      </trkpt>
      <trkpt lat="47.07594" lon="3.24897">
        <ele>212</ele>
        <time>2016-08-18T16:20:50Z</time>
      </trkpt>
      <trkpt lat="47.07599" lon="3.24912">
        <ele>211</ele>
        <time>2016-08-18T16:20:51Z</time>
      </trkpt>
      <trkpt lat="47.07603" lon="3.24928">
        <ele>211</ele>
        <time>2016-08-18T16:20:52Z</time>
      </trkpt>
      <trkpt lat="47.07607" lon="3.24942">
        <ele>210</ele>
        <time>2016-08-18T16:20:53Z</time>
      </trkpt>
      <trkpt lat="47.07612" lon="3.24957">
        <ele>210</ele>
        <time>2016-08-18T16:20:55Z</time>
      </trkpt>
      <trkpt lat="47.07616" lon="3.24971">
        <ele>210</ele>
        <time>2016-08-18T16:20:55Z</time>
      </trkpt>
      <trkpt lat="47.07621" lon="3.24986">
        <ele>209</ele>
        <time>2016-08-18T16:20:56Z</time>
      </trkpt>
      <trkpt lat="47.07625" lon="3.25001">
        <ele>210</ele>
        <time>2016-08-18T16:20:58Z</time>
      </trkpt>
      <trkpt lat="47.0763" lon="3.25015">
        <ele>209</ele>
        <time>2016-08-18T16:20:59Z</time>
      </trkpt>
      <trkpt lat="47.07634" lon="3.25028">
        <ele>208</ele>
        <time>2016-08-18T16:21:00Z</time>
      </trkpt>
      <trkpt lat="47.07638" lon="3.25043">
        <ele>208</ele>
        <time>2016-08-18T16:21:01Z</time>
      </trkpt>
      <trkpt lat="47.07642" lon="3.25056">
        <ele>208</ele>
        <time>2016-08-18T16:21:02Z</time>
      </trkpt>
      <trkpt lat="47.07646" lon="3.2507">
        <ele>209</ele>
        <time>2016-08-18T16:21:03Z</time>
      </trkpt>
      <trkpt lat="47.07649" lon="3.25083">
        <ele>209</ele>
        <time>2016-08-18T16:21:04Z</time>
      </trkpt>
      <trkpt lat="47.07653" lon="3.25096">
        <ele>209</ele>
        <time>2016-08-18T16:21:05Z</time>
      </trkpt>
      <trkpt lat="47.07656" lon="3.2511">
        <ele>209</ele>
        <time>2016-08-18T16:21:06Z</time>
      </trkpt>
      <trkpt lat="47.0766" lon="3.25123">
        <ele>209</ele>
        <time>2016-08-18T16:21:07Z</time>
      </trkpt>
      <trkpt lat="47.07664" lon="3.25135">
        <ele>209</ele>
        <time>2016-08-18T16:21:08Z</time>
      </trkpt>
      <trkpt lat="47.07671" lon="3.25158">
        <ele>210</ele>
        <time>2016-08-18T16:21:10Z</time>
      </trkpt>
      <trkpt lat="47.07671" lon="3.2516">
        <ele>210</ele>
        <time>2016-08-18T16:21:10Z</time>
      </trkpt>
      <trkpt lat="47.07677" lon="3.2518">
        <ele>210</ele>
        <time>2016-08-18T16:21:11Z</time>
      </trkpt>
      <trkpt lat="47.07681" lon="3.25192">
        <ele>210</ele>
        <time>2016-08-18T16:21:12Z</time>
      </trkpt>
      <trkpt lat="47.07683" lon="3.25197">
        <ele>210</ele>
        <time>2016-08-18T16:21:13Z</time>
      </trkpt>
      <trkpt lat="47.07686" lon="3.25208">
        <ele>211</ele>
        <time>2016-08-18T16:21:14Z</time>
      </trkpt>
      <trkpt lat="47.0769" lon="3.25219">
        <ele>211</ele>
        <time>2016-08-18T16:21:15Z</time>
      </trkpt>
      <trkpt lat="47.07693" lon="3.25231">
        <ele>211</ele>
        <time>2016-08-18T16:21:16Z</time>
      </trkpt>
      <trkpt lat="47.07697" lon="3.25242">
        <ele>211</ele>
        <time>2016-08-18T16:21:17Z</time>
      </trkpt>
      <trkpt lat="47.07703" lon="3.25259">
        <ele>209</ele>
        <time>2016-08-18T16:21:19Z</time>
      </trkpt>
      <trkpt lat="47.07706" lon="3.25268">
        <ele>209</ele>
        <time>2016-08-18T16:21:19Z</time>
      </trkpt>
      <trkpt lat="47.07708" lon="3.25274">
        <ele>208</ele>
        <time>2016-08-18T16:21:20Z</time>
      </trkpt>
      <trkpt lat="47.07712" lon="3.25285">
        <ele>208</ele>
        <time>2016-08-18T16:21:21Z</time>
      </trkpt>
      <trkpt lat="47.07716" lon="3.25294">
        <ele>208</ele>
        <time>2016-08-18T16:21:22Z</time>
      </trkpt>
      <trkpt lat="47.0772" lon="3.25304">
        <ele>208</ele>
        <time>2016-08-18T16:21:23Z</time>
      </trkpt>
      <trkpt lat="47.07725" lon="3.25316">
        <ele>209</ele>
        <time>2016-08-18T16:21:25Z</time>
      </trkpt>
      <trkpt lat="47.07728" lon="3.25325">
        <ele>208</ele>
        <time>2016-08-18T16:21:26Z</time>
      </trkpt>
      <trkpt lat="47.0773" lon="3.2533">
        <ele>208</ele>
        <time>2016-08-18T16:21:26Z</time>
      </trkpt>
      <trkpt lat="47.07733" lon="3.25341">
        <ele>208</ele>
        <time>2016-08-18T16:21:27Z</time>
      </trkpt>
      <trkpt lat="47.07736" lon="3.25352">
        <ele>208</ele>
        <time>2016-08-18T16:21:28Z</time>
      </trkpt>
      <trkpt lat="47.07738" lon="3.25362">
        <ele>208</ele>
        <time>2016-08-18T16:21:29Z</time>
      </trkpt>
      <trkpt lat="47.0774" lon="3.25371">
        <ele>208</ele>
        <time>2016-08-18T16:21:30Z</time>
      </trkpt>
      <trkpt lat="47.07742" lon="3.25378">
        <ele>208</ele>
        <time>2016-08-18T16:21:31Z</time>
      </trkpt>
      <trkpt lat="47.07743" lon="3.25388">
        <ele>208</ele>
        <time>2016-08-18T16:21:32Z</time>
      </trkpt>
      <trkpt lat="47.07745" lon="3.25397">
        <ele>208</ele>
        <time>2016-08-18T16:21:33Z</time>
      </trkpt>
      <trkpt lat="47.07748" lon="3.25408">
        <ele>209</ele>
        <time>2016-08-18T16:21:35Z</time>
      </trkpt>
      <trkpt lat="47.0775" lon="3.25417">
        <ele>209</ele>
        <time>2016-08-18T16:21:36Z</time>
      </trkpt>
      <trkpt lat="47.07751" lon="3.25426">
        <ele>209</ele>
        <time>2016-08-18T16:21:37Z</time>
      </trkpt>
      <trkpt lat="47.07752" lon="3.25434">
        <ele>210</ele>
        <time>2016-08-18T16:21:37Z</time>
      </trkpt>
      <trkpt lat="47.07754" lon="3.25443">
        <ele>210</ele>
        <time>2016-08-18T16:21:38Z</time>
      </trkpt>
      <trkpt lat="47.07756" lon="3.25452">
        <ele>210</ele>
        <time>2016-08-18T16:21:39Z</time>
      </trkpt>
      <trkpt lat="47.07757" lon="3.25463">
        <ele>211</ele>
        <time>2016-08-18T16:21:41Z</time>
      </trkpt>
      <trkpt lat="47.07759" lon="3.25472">
        <ele>212</ele>
        <time>2016-08-18T16:21:41Z</time>
      </trkpt>
      <trkpt lat="47.07761" lon="3.25481">
        <ele>212</ele>
        <time>2016-08-18T16:21:42Z</time>
      </trkpt>
      <trkpt lat="47.07762" lon="3.2549">
        <ele>212</ele>
        <time>2016-08-18T16:21:44Z</time>
      </trkpt>
      <trkpt lat="47.07764" lon="3.25498">
        <ele>212</ele>
        <time>2016-08-18T16:21:45Z</time>
      </trkpt>
      <trkpt lat="47.07766" lon="3.25507">
        <ele>212</ele>
        <time>2016-08-18T16:21:46Z</time>
      </trkpt>
      <trkpt lat="47.07767" lon="3.25516">
        <ele>212</ele>
        <time>2016-08-18T16:21:47Z</time>
      </trkpt>
      <trkpt lat="47.07769" lon="3.25525">
        <ele>212</ele>
        <time>2016-08-18T16:21:48Z</time>
      </trkpt>
      <trkpt lat="47.0777" lon="3.25533">
        <ele>213</ele>
        <time>2016-08-18T16:21:49Z</time>
      </trkpt>
      <trkpt lat="47.07773" lon="3.2555">
        <ele>214</ele>
        <time>2016-08-18T16:21:50Z</time>
      </trkpt>
      <trkpt lat="47.07773" lon="3.25552">
        <ele>214</ele>
        <time>2016-08-18T16:21:51Z</time>
      </trkpt>
      <trkpt lat="47.07775" lon="3.25559">
        <ele>215</ele>
        <time>2016-08-18T16:21:52Z</time>
      </trkpt>
      <trkpt lat="47.07776" lon="3.25568">
        <ele>215</ele>
        <time>2016-08-18T16:21:53Z</time>
      </trkpt>
      <trkpt lat="47.07778" lon="3.25576">
        <ele>215</ele>
        <time>2016-08-18T16:21:54Z</time>
      </trkpt>
      <trkpt lat="47.0778" lon="3.25584">
        <ele>216</ele>
        <time>2016-08-18T16:21:55Z</time>
      </trkpt>
      <trkpt lat="47.07781" lon="3.25592">
        <ele>216</ele>
        <time>2016-08-18T16:21:56Z</time>
      </trkpt>
      <trkpt lat="47.07783" lon="3.256">
        <ele>216</ele>
        <time>2016-08-18T16:21:57Z</time>
      </trkpt>
      <trkpt lat="47.07784" lon="3.25609">
        <ele>216</ele>
        <time>2016-08-18T16:21:58Z</time>
      </trkpt>
      <trkpt lat="47.07786" lon="3.25616">
        <ele>216</ele>
        <time>2016-08-18T16:21:59Z</time>
      </trkpt>
      <trkpt lat="47.07789" lon="3.25629">
        <ele>217</ele>
        <time>2016-08-18T16:22:00Z</time>
      </trkpt>
      <trkpt lat="47.07789" lon="3.25632">
        <ele>218</ele>
        <time>2016-08-18T16:22:01Z</time>
      </trkpt>
      <trkpt lat="47.07791" lon="3.2564">
        <ele>218</ele>
        <time>2016-08-18T16:22:02Z</time>
      </trkpt>
      <trkpt lat="47.07794" lon="3.25653">
        <ele>217</ele>
        <time>2016-08-18T16:22:03Z</time>
      </trkpt>
      <trkpt lat="47.07794" lon="3.25657">
        <ele>217</ele>
        <time>2016-08-18T16:22:04Z</time>
      </trkpt>
      <trkpt lat="47.07795" lon="3.25665">
        <ele>216</ele>
        <time>2016-08-18T16:22:05Z</time>
      </trkpt>
      <trkpt lat="47.07797" lon="3.25673">
        <ele>216</ele>
        <time>2016-08-18T16:22:06Z</time>
      </trkpt>
      <trkpt lat="47.07799" lon="3.25682">
        <ele>216</ele>
        <time>2016-08-18T16:22:07Z</time>
      </trkpt>
      <trkpt lat="47.078" lon="3.25691">
        <ele>216</ele>
        <time>2016-08-18T16:22:08Z</time>
      </trkpt>
      <trkpt lat="47.07802" lon="3.25699">
        <ele>216</ele>
        <time>2016-08-18T16:22:09Z</time>
      </trkpt>
      <trkpt lat="47.07804" lon="3.25708">
        <ele>216</ele>
        <time>2016-08-18T16:22:10Z</time>
      </trkpt>
      <trkpt lat="47.07805" lon="3.25717">
        <ele>216</ele>
        <time>2016-08-18T16:22:11Z</time>
      </trkpt>
      <trkpt lat="47.07808" lon="3.25731">
        <ele>216</ele>
        <time>2016-08-18T16:22:12Z</time>
      </trkpt>
      <trkpt lat="47.07809" lon="3.2574">
        <ele>217</ele>
        <time>2016-08-18T16:22:13Z</time>
      </trkpt>
      <trkpt lat="47.07811" lon="3.2575">
        <ele>217</ele>
        <time>2016-08-18T16:22:15Z</time>
      </trkpt>
      <trkpt lat="47.07812" lon="3.25756">
        <ele>217</ele>
        <time>2016-08-18T16:22:15Z</time>
      </trkpt>
      <trkpt lat="47.07813" lon="3.25766">
        <ele>217</ele>
        <time>2016-08-18T16:22:16Z</time>
      </trkpt>
      <trkpt lat="47.07814" lon="3.25776">
        <ele>218</ele>
        <time>2016-08-18T16:22:17Z</time>
      </trkpt>
      <trkpt lat="47.07815" lon="3.25787">
        <ele>218</ele>
        <time>2016-08-18T16:22:18Z</time>
      </trkpt>
      <trkpt lat="47.07817" lon="3.25797">
        <ele>218</ele>
        <time>2016-08-18T16:22:19Z</time>
      </trkpt>
      <trkpt lat="47.07817" lon="3.25807">
        <ele>218</ele>
        <time>2016-08-18T16:22:20Z</time>
      </trkpt>
      <trkpt lat="47.07818" lon="3.25817">
        <ele>218</ele>
        <time>2016-08-18T16:22:21Z</time>
      </trkpt>
      <trkpt lat="47.07819" lon="3.25827">
        <ele>218</ele>
        <time>2016-08-18T16:22:22Z</time>
      </trkpt>
      <trkpt lat="47.07819" lon="3.25838">
        <ele>218</ele>
        <time>2016-08-18T16:22:23Z</time>
      </trkpt>
      <trkpt lat="47.07819" lon="3.25848">
        <ele>218</ele>
        <time>2016-08-18T16:22:24Z</time>
      </trkpt>
      <trkpt lat="47.07819" lon="3.25859">
        <ele>218</ele>
        <time>2016-08-18T16:22:25Z</time>
      </trkpt>
      <trkpt lat="47.07819" lon="3.25869">
        <ele>218</ele>
        <time>2016-08-18T16:22:26Z</time>
      </trkpt>
      <trkpt lat="47.07819" lon="3.2588">
        <ele>218</ele>
        <time>2016-08-18T16:22:27Z</time>
      </trkpt>
      <trkpt lat="47.07818" lon="3.2589">
        <ele>218</ele>
        <time>2016-08-18T16:22:28Z</time>
      </trkpt>
      <trkpt lat="47.07817" lon="3.259">
        <ele>218</ele>
        <time>2016-08-18T16:22:29Z</time>
      </trkpt>
      <trkpt lat="47.07816" lon="3.25911">
        <ele>218</ele>
        <time>2016-08-18T16:22:31Z</time>
      </trkpt>
      <trkpt lat="47.07815" lon="3.2592">
        <ele>218</ele>
        <time>2016-08-18T16:22:32Z</time>
      </trkpt>
      <trkpt lat="47.07814" lon="3.25931">
        <ele>218</ele>
        <time>2016-08-18T16:22:33Z</time>
      </trkpt>
      <trkpt lat="47.07813" lon="3.25941">
        <ele>218</ele>
        <time>2016-08-18T16:22:34Z</time>
      </trkpt>
      <trkpt lat="47.07811" lon="3.25951">
        <ele>218</ele>
        <time>2016-08-18T16:22:35Z</time>
      </trkpt>
      <trkpt lat="47.0781" lon="3.2596">
        <ele>218</ele>
        <time>2016-08-18T16:22:36Z</time>
      </trkpt>
      <trkpt lat="47.07808" lon="3.2597">
        <ele>218</ele>
        <time>2016-08-18T16:22:37Z</time>
      </trkpt>
      <trkpt lat="47.07805" lon="3.25987">
        <ele>217</ele>
        <time>2016-08-18T16:22:38Z</time>
      </trkpt>
      <trkpt lat="47.07805" lon="3.25989">
        <ele>217</ele>
        <time>2016-08-18T16:22:39Z</time>
      </trkpt>
      <trkpt lat="47.07803" lon="3.25997">
        <ele>217</ele>
        <time>2016-08-18T16:22:40Z</time>
      </trkpt>
      <trkpt lat="47.078" lon="3.26012">
        <ele>217</ele>
        <time>2016-08-18T16:22:41Z</time>
      </trkpt>
      <trkpt lat="47.07799" lon="3.26015">
        <ele>216</ele>
        <time>2016-08-18T16:22:42Z</time>
      </trkpt>
      <trkpt lat="47.07797" lon="3.26023">
        <ele>217</ele>
        <time>2016-08-18T16:22:43Z</time>
      </trkpt>
      <trkpt lat="47.07796" lon="3.26032">
        <ele>216</ele>
        <time>2016-08-18T16:22:44Z</time>
      </trkpt>
      <trkpt lat="47.07794" lon="3.2604">
        <ele>216</ele>
        <time>2016-08-18T16:22:45Z</time>
      </trkpt>
      <trkpt lat="47.07792" lon="3.26049">
        <ele>216</ele>
        <time>2016-08-18T16:22:46Z</time>
      </trkpt>
      <trkpt lat="47.0779" lon="3.26063">
        <ele>216</ele>
        <time>2016-08-18T16:22:47Z</time>
      </trkpt>
      <trkpt lat="47.07789" lon="3.26066">
        <ele>216</ele>
        <time>2016-08-18T16:22:48Z</time>
      </trkpt>
      <trkpt lat="47.07788" lon="3.26075">
        <ele>216</ele>
        <time>2016-08-18T16:22:49Z</time>
      </trkpt>
      <trkpt lat="47.07786" lon="3.26083">
        <ele>216</ele>
        <time>2016-08-18T16:22:50Z</time>
      </trkpt>
      <trkpt lat="47.07785" lon="3.26093">
        <ele>216</ele>
        <time>2016-08-18T16:22:51Z</time>
      </trkpt>
      <trkpt lat="47.07785" lon="3.26101">
        <ele>215</ele>
        <time>2016-08-18T16:22:52Z</time>
      </trkpt>
      <trkpt lat="47.07784" lon="3.2611">
        <ele>215</ele>
        <time>2016-08-18T16:22:53Z</time>
      </trkpt>
      <trkpt lat="47.07784" lon="3.26119">
        <ele>215</ele>
        <time>2016-08-18T16:22:54Z</time>
      </trkpt>
      <trkpt lat="47.07784" lon="3.26127">
        <ele>215</ele>
        <time>2016-08-18T16:22:55Z</time>
      </trkpt>
      <trkpt lat="47.07784" lon="3.26137">
        <ele>215</ele>
        <time>2016-08-18T16:22:56Z</time>
      </trkpt>
      <trkpt lat="47.07784" lon="3.26146">
        <ele>214</ele>
        <time>2016-08-18T16:22:57Z</time>
      </trkpt>
      <trkpt lat="47.07784" lon="3.26155">
        <ele>215</ele>
        <time>2016-08-18T16:22:58Z</time>
      </trkpt>
      <trkpt lat="47.07784" lon="3.26164">
        <ele>215</ele>
        <time>2016-08-18T16:22:59Z</time>
      </trkpt>
      <trkpt lat="47.07784" lon="3.26174">
        <ele>215</ele>
        <time>2016-08-18T16:23:00Z</time>
      </trkpt>
      <trkpt lat="47.07784" lon="3.26182">
        <ele>215</ele>
        <time>2016-08-18T16:23:01Z</time>
      </trkpt>
      <trkpt lat="47.07783" lon="3.26192">
        <ele>215</ele>
        <time>2016-08-18T16:23:02Z</time>
      </trkpt>
      <trkpt lat="47.07783" lon="3.26203">
        <ele>213</ele>
        <time>2016-08-18T16:23:03Z</time>
      </trkpt>
      <trkpt lat="47.07782" lon="3.26213">
        <ele>212</ele>
        <time>2016-08-18T16:23:05Z</time>
      </trkpt>
      <trkpt lat="47.07781" lon="3.2622">
        <ele>212</ele>
        <time>2016-08-18T16:23:05Z</time>
      </trkpt>
      <trkpt lat="47.0778" lon="3.26228">
        <ele>212</ele>
        <time>2016-08-18T16:23:06Z</time>
      </trkpt>
      <trkpt lat="47.07778" lon="3.26237">
        <ele>212</ele>
        <time>2016-08-18T16:23:07Z</time>
      </trkpt>
      <trkpt lat="47.07777" lon="3.26246">
        <ele>211</ele>
        <time>2016-08-18T16:23:08Z</time>
      </trkpt>
      <trkpt lat="47.07775" lon="3.26255">
        <ele>211</ele>
        <time>2016-08-18T16:23:09Z</time>
      </trkpt>
      <trkpt lat="47.07774" lon="3.26264">
        <ele>211</ele>
        <time>2016-08-18T16:23:10Z</time>
      </trkpt>
      <trkpt lat="47.07772" lon="3.26273">
        <ele>211</ele>
        <time>2016-08-18T16:23:12Z</time>
      </trkpt>
      <trkpt lat="47.0777" lon="3.26281">
        <ele>211</ele>
        <time>2016-08-18T16:23:12Z</time>
      </trkpt>
      <trkpt lat="47.07769" lon="3.26289">
        <ele>211</ele>
        <time>2016-08-18T16:23:14Z</time>
      </trkpt>
      <trkpt lat="47.07765" lon="3.26306">
        <ele>209</ele>
        <time>2016-08-18T16:23:15Z</time>
      </trkpt>
      <trkpt lat="47.07765" lon="3.26307">
        <ele>209</ele>
        <time>2016-08-18T16:23:16Z</time>
      </trkpt>
      <trkpt lat="47.07763" lon="3.26316">
        <ele>209</ele>
        <time>2016-08-18T16:23:17Z</time>
      </trkpt>
      <trkpt lat="47.07761" lon="3.26324">
        <ele>208</ele>
        <time>2016-08-18T16:23:18Z</time>
      </trkpt>
      <trkpt lat="47.0776" lon="3.26333">
        <ele>208</ele>
        <time>2016-08-18T16:23:19Z</time>
      </trkpt>
      <trkpt lat="47.07758" lon="3.26342">
        <ele>208</ele>
        <time>2016-08-18T16:23:20Z</time>
      </trkpt>
      <trkpt lat="47.07756" lon="3.2635">
        <ele>208</ele>
        <time>2016-08-18T16:23:21Z</time>
      </trkpt>
      <trkpt lat="47.07755" lon="3.26359">
        <ele>207</ele>
        <time>2016-08-18T16:23:22Z</time>
      </trkpt>
      <trkpt lat="47.07753" lon="3.26368">
        <ele>207</ele>
        <time>2016-08-18T16:23:23Z</time>
      </trkpt>
      <trkpt lat="47.07752" lon="3.26376">
        <ele>207</ele>
        <time>2016-08-18T16:23:24Z</time>
      </trkpt>
      <trkpt lat="47.0775" lon="3.2639">
        <ele>205</ele>
        <time>2016-08-18T16:23:26Z</time>
      </trkpt>
      <trkpt lat="47.07749" lon="3.26392">
        <ele>205</ele>
        <time>2016-08-18T16:23:26Z</time>
      </trkpt>
      <trkpt lat="47.07747" lon="3.26405">
        <ele>204</ele>
        <time>2016-08-18T16:23:27Z</time>
      </trkpt>
      <trkpt lat="47.07747" lon="3.26409">
        <ele>204</ele>
        <time>2016-08-18T16:23:28Z</time>
      </trkpt>
      <trkpt lat="47.07745" lon="3.26417">
        <ele>204</ele>
        <time>2016-08-18T16:23:29Z</time>
      </trkpt>
      <trkpt lat="47.07744" lon="3.26425">
        <ele>203</ele>
        <time>2016-08-18T16:23:30Z</time>
      </trkpt>
      <trkpt lat="47.07742" lon="3.26434">
        <ele>203</ele>
        <time>2016-08-18T16:23:31Z</time>
      </trkpt>
      <trkpt lat="47.07741" lon="3.26442">
        <ele>203</ele>
        <time>2016-08-18T16:23:32Z</time>
      </trkpt>
      <trkpt lat="47.07739" lon="3.2645">
        <ele>203</ele>
        <time>2016-08-18T16:23:33Z</time>
      </trkpt>
      <trkpt lat="47.07738" lon="3.26458">
        <ele>203</ele>
        <time>2016-08-18T16:23:34Z</time>
      </trkpt>
      <trkpt lat="47.07736" lon="3.26466">
        <ele>203</ele>
        <time>2016-08-18T16:23:35Z</time>
      </trkpt>
      <trkpt lat="47.07734" lon="3.26474">
        <ele>203</ele>
        <time>2016-08-18T16:23:36Z</time>
      </trkpt>
      <trkpt lat="47.07732" lon="3.26483">
        <ele>203</ele>
        <time>2016-08-18T16:23:37Z</time>
      </trkpt>
      <trkpt lat="47.07731" lon="3.26491">
        <ele>203</ele>
        <time>2016-08-18T16:23:38Z</time>
      </trkpt>
      <trkpt lat="47.07729" lon="3.26499">
        <ele>204</ele>
        <time>2016-08-18T16:23:39Z</time>
      </trkpt>
      <trkpt lat="47.07727" lon="3.26508">
        <ele>204</ele>
        <time>2016-08-18T16:23:40Z</time>
      </trkpt>
      <trkpt lat="47.07726" lon="3.26517">
        <ele>204</ele>
        <time>2016-08-18T16:23:41Z</time>
      </trkpt>
      <trkpt lat="47.07724" lon="3.26525">
        <ele>203</ele>
        <time>2016-08-18T16:23:42Z</time>
      </trkpt>
      <trkpt lat="47.07723" lon="3.26534">
        <ele>203</ele>
        <time>2016-08-18T16:23:43Z</time>
      </trkpt>
      <trkpt lat="47.07721" lon="3.26542">
        <ele>204</ele>
        <time>2016-08-18T16:23:44Z</time>
      </trkpt>
      <trkpt lat="47.07719" lon="3.26554">
        <ele>204</ele>
        <time>2016-08-18T16:23:46Z</time>
      </trkpt>
      <trkpt lat="47.07718" lon="3.26558">
        <ele>204</ele>
        <time>2016-08-18T16:23:46Z</time>
      </trkpt>
      <trkpt lat="47.07716" lon="3.26566">
        <ele>204</ele>
        <time>2016-08-18T16:23:47Z</time>
      </trkpt>
      <trkpt lat="47.07713" lon="3.26574">
        <ele>204</ele>
        <time>2016-08-18T16:23:48Z</time>
      </trkpt>
      <trkpt lat="47.07711" lon="3.26582">
        <ele>204</ele>
        <time>2016-08-18T16:23:49Z</time>
      </trkpt>
      <trkpt lat="47.07708" lon="3.26589">
        <ele>204</ele>
        <time>2016-08-18T16:23:50Z</time>
      </trkpt>
      <trkpt lat="47.07705" lon="3.26597">
        <ele>203</ele>
        <time>2016-08-18T16:23:51Z</time>
      </trkpt>
      <trkpt lat="47.07702" lon="3.26604">
        <ele>204</ele>
        <time>2016-08-18T16:23:52Z</time>
      </trkpt>
      <trkpt lat="47.07699" lon="3.26611">
        <ele>204</ele>
        <time>2016-08-18T16:23:53Z</time>
      </trkpt>
      <trkpt lat="47.07695" lon="3.26618">
        <ele>204</ele>
        <time>2016-08-18T16:23:54Z</time>
      </trkpt>
      <trkpt lat="47.07692" lon="3.26626">
        <ele>204</ele>
        <time>2016-08-18T16:23:55Z</time>
      </trkpt>
      <trkpt lat="47.07688" lon="3.26633">
        <ele>204</ele>
        <time>2016-08-18T16:23:56Z</time>
      </trkpt>
      <trkpt lat="47.07685" lon="3.26639">
        <ele>204</ele>
        <time>2016-08-18T16:23:57Z</time>
      </trkpt>
      <trkpt lat="47.07682" lon="3.26647">
        <ele>204</ele>
        <time>2016-08-18T16:23:58Z</time>
      </trkpt>
      <trkpt lat="47.07678" lon="3.26654">
        <ele>204</ele>
        <time>2016-08-18T16:23:59Z</time>
      </trkpt>
      <trkpt lat="47.07675" lon="3.26661">
        <ele>204</ele>
        <time>2016-08-18T16:24:00Z</time>
      </trkpt>
      <trkpt lat="47.07671" lon="3.26667">
        <ele>204</ele>
        <time>2016-08-18T16:24:01Z</time>
      </trkpt>
      <trkpt lat="47.07667" lon="3.26674">
        <ele>204</ele>
        <time>2016-08-18T16:24:02Z</time>
      </trkpt>
      <trkpt lat="47.07663" lon="3.26681">
        <ele>204</ele>
        <time>2016-08-18T16:24:03Z</time>
      </trkpt>
      <trkpt lat="47.07659" lon="3.26688">
        <ele>204</ele>
        <time>2016-08-18T16:24:05Z</time>
      </trkpt>
      <trkpt lat="47.07656" lon="3.26695">
        <ele>204</ele>
        <time>2016-08-18T16:24:06Z</time>
      </trkpt>
      <trkpt lat="47.07652" lon="3.26701">
        <ele>204</ele>
        <time>2016-08-18T16:24:07Z</time>
      </trkpt>
      <trkpt lat="47.07649" lon="3.26708">
        <ele>204</ele>
        <time>2016-08-18T16:24:08Z</time>
      </trkpt>
      <trkpt lat="47.07645" lon="3.26714">
        <ele>204</ele>
        <time>2016-08-18T16:24:09Z</time>
      </trkpt>
      <trkpt lat="47.0764" lon="3.26721">
        <ele>204</ele>
        <time>2016-08-18T16:24:10Z</time>
      </trkpt>
      <trkpt lat="47.07637" lon="3.26727">
        <ele>204</ele>
        <time>2016-08-18T16:24:11Z</time>
      </trkpt>
      <trkpt lat="47.07633" lon="3.26733">
        <ele>204</ele>
        <time>2016-08-18T16:24:12Z</time>
      </trkpt>
      <trkpt lat="47.07629" lon="3.26739">
        <ele>204</ele>
        <time>2016-08-18T16:24:13Z</time>
      </trkpt>
      <trkpt lat="47.07624" lon="3.26745">
        <ele>204</ele>
        <time>2016-08-18T16:24:14Z</time>
      </trkpt>
      <trkpt lat="47.0762" lon="3.26751">
        <ele>204</ele>
        <time>2016-08-18T16:24:15Z</time>
      </trkpt>
      <trkpt lat="47.07616" lon="3.26757">
        <ele>204</ele>
        <time>2016-08-18T16:24:16Z</time>
      </trkpt>
      <trkpt lat="47.07611" lon="3.26762">
        <ele>204</ele>
        <time>2016-08-18T16:24:17Z</time>
      </trkpt>
      <trkpt lat="47.07607" lon="3.26768">
        <ele>204</ele>
        <time>2016-08-18T16:24:18Z</time>
      </trkpt>
      <trkpt lat="47.07602" lon="3.26774">
        <ele>204</ele>
        <time>2016-08-18T16:24:19Z</time>
      </trkpt>
      <trkpt lat="47.07598" lon="3.2678">
        <ele>204</ele>
        <time>2016-08-18T16:24:20Z</time>
      </trkpt>
      <trkpt lat="47.07594" lon="3.26786">
        <ele>204</ele>
        <time>2016-08-18T16:24:21Z</time>
      </trkpt>
      <trkpt lat="47.07585" lon="3.26796">
        <ele>207</ele>
        <time>2016-08-18T16:24:23Z</time>
      </trkpt>
      <trkpt lat="47.07584" lon="3.26798">
        <ele>207</ele>
        <time>2016-08-18T16:24:23Z</time>
      </trkpt>
      <trkpt lat="47.0758" lon="3.26804">
        <ele>207</ele>
        <time>2016-08-18T16:24:24Z</time>
      </trkpt>
      <trkpt lat="47.07575" lon="3.26809">
        <ele>207</ele>
        <time>2016-08-18T16:24:25Z</time>
      </trkpt>
      <trkpt lat="47.07571" lon="3.26815">
        <ele>208</ele>
        <time>2016-08-18T16:24:26Z</time>
      </trkpt>
      <trkpt lat="47.07568" lon="3.26821">
        <ele>208</ele>
        <time>2016-08-18T16:24:27Z</time>
      </trkpt>
      <trkpt lat="47.07562" lon="3.26828">
        <ele>209</ele>
        <time>2016-08-18T16:24:28Z</time>
      </trkpt>
      <trkpt lat="47.07558" lon="3.26834">
        <ele>210</ele>
        <time>2016-08-18T16:24:30Z</time>
      </trkpt>
      <trkpt lat="47.07556" lon="3.26838">
        <ele>210</ele>
        <time>2016-08-18T16:24:30Z</time>
      </trkpt>
      <trkpt lat="47.07552" lon="3.26847">
        <ele>210</ele>
        <time>2016-08-18T16:24:32Z</time>
      </trkpt>
      <trkpt lat="47.07549" lon="3.26853">
        <ele>210</ele>
        <time>2016-08-18T16:24:32Z</time>
      </trkpt>
      <trkpt lat="47.07548" lon="3.26858">
        <ele>210</ele>
        <time>2016-08-18T16:24:33Z</time>
      </trkpt>
      <trkpt lat="47.07545" lon="3.26866">
        <ele>210</ele>
        <time>2016-08-18T16:24:34Z</time>
      </trkpt>
      <trkpt lat="47.07543" lon="3.26873">
        <ele>211</ele>
        <time>2016-08-18T16:24:35Z</time>
      </trkpt>
      <trkpt lat="47.0754" lon="3.2688">
        <ele>211</ele>
        <time>2016-08-18T16:24:36Z</time>
      </trkpt>
      <trkpt lat="47.07537" lon="3.26887">
        <ele>211</ele>
        <time>2016-08-18T16:24:37Z</time>
      </trkpt>
      <trkpt lat="47.07535" lon="3.26894">
        <ele>211</ele>
        <time>2016-08-18T16:24:38Z</time>
      </trkpt>
      <trkpt lat="47.07532" lon="3.26901">
        <ele>211</ele>
        <time>2016-08-18T16:24:39Z</time>
      </trkpt>
      <trkpt lat="47.0753" lon="3.26908">
        <ele>211</ele>
        <time>2016-08-18T16:24:40Z</time>
      </trkpt>
      <trkpt lat="47.07527" lon="3.26916">
        <ele>211</ele>
        <time>2016-08-18T16:24:41Z</time>
      </trkpt>
      <trkpt lat="47.07525" lon="3.26922">
        <ele>211</ele>
        <time>2016-08-18T16:24:42Z</time>
      </trkpt>
      <trkpt lat="47.07522" lon="3.26929">
        <ele>211</ele>
        <time>2016-08-18T16:24:44Z</time>
      </trkpt>
      <trkpt lat="47.0752" lon="3.26935">
        <ele>210</ele>
        <time>2016-08-18T16:24:44Z</time>
      </trkpt>
      <trkpt lat="47.07518" lon="3.26941">
        <ele>210</ele>
        <time>2016-08-18T16:24:45Z</time>
      </trkpt>
      <trkpt lat="47.07516" lon="3.26947">
        <ele>210</ele>
        <time>2016-08-18T16:24:46Z</time>
      </trkpt>
      <trkpt lat="47.07514" lon="3.26953">
        <ele>210</ele>
        <time>2016-08-18T16:24:47Z</time>
      </trkpt>
      <trkpt lat="47.07512" lon="3.26959">
        <ele>210</ele>
        <time>2016-08-18T16:24:48Z</time>
      </trkpt>
      <trkpt lat="47.0751" lon="3.26965">
        <ele>210</ele>
        <time>2016-08-18T16:24:49Z</time>
      </trkpt>
      <trkpt lat="47.07508" lon="3.26971">
        <ele>211</ele>
        <time>2016-08-18T16:24:50Z</time>
      </trkpt>
      <trkpt lat="47.07505" lon="3.26978">
        <ele>210</ele>
        <time>2016-08-18T16:24:52Z</time>
      </trkpt>
      <trkpt lat="47.07503" lon="3.26984">
        <ele>210</ele>
        <time>2016-08-18T16:24:53Z</time>
      </trkpt>
      <trkpt lat="47.07501" lon="3.2699">
        <ele>210</ele>
        <time>2016-08-18T16:24:54Z</time>
      </trkpt>
      <trkpt lat="47.07499" lon="3.26996">
        <ele>210</ele>
        <time>2016-08-18T16:24:55Z</time>
      </trkpt>
      <trkpt lat="47.07496" lon="3.27002">
        <ele>210</ele>
        <time>2016-08-18T16:24:56Z</time>
      </trkpt>
      <trkpt lat="47.07494" lon="3.27008">
        <ele>210</ele>
        <time>2016-08-18T16:24:57Z</time>
      </trkpt>
      <trkpt lat="47.07492" lon="3.27014">
        <ele>210</ele>
        <time>2016-08-18T16:24:58Z</time>
      </trkpt>
      <trkpt lat="47.0749" lon="3.27021">
        <ele>211</ele>
        <time>2016-08-18T16:24:59Z</time>
      </trkpt>
      <trkpt lat="47.07488" lon="3.27026">
        <ele>211</ele>
        <time>2016-08-18T16:25:00Z</time>
      </trkpt>
      <trkpt lat="47.07486" lon="3.27032">
        <ele>211</ele>
        <time>2016-08-18T16:25:01Z</time>
      </trkpt>
      <trkpt lat="47.07484" lon="3.27038">
        <ele>212</ele>
        <time>2016-08-18T16:25:02Z</time>
      </trkpt>
      <trkpt lat="47.07481" lon="3.27044">
        <ele>212</ele>
        <time>2016-08-18T16:25:03Z</time>
      </trkpt>
      <trkpt lat="47.07479" lon="3.27049">
        <ele>213</ele>
        <time>2016-08-18T16:25:04Z</time>
      </trkpt>
      <trkpt lat="47.07477" lon="3.27055">
        <ele>213</ele>
        <time>2016-08-18T16:25:05Z</time>
      </trkpt>
      <trkpt lat="47.07475" lon="3.27061">
        <ele>214</ele>
        <time>2016-08-18T16:25:06Z</time>
      </trkpt>
      <trkpt lat="47.07472" lon="3.27066">
        <ele>214</ele>
        <time>2016-08-18T16:25:07Z</time>
      </trkpt>
      <trkpt lat="47.0747" lon="3.27071">
        <ele>214</ele>
        <time>2016-08-18T16:25:08Z</time>
      </trkpt>
      <trkpt lat="47.07468" lon="3.27078">
        <ele>214</ele>
        <time>2016-08-18T16:25:09Z</time>
      </trkpt>
      <trkpt lat="47.07466" lon="3.27084">
        <ele>214</ele>
        <time>2016-08-18T16:25:10Z</time>
      </trkpt>
      <trkpt lat="47.07464" lon="3.2709">
        <ele>214</ele>
        <time>2016-08-18T16:25:11Z</time>
      </trkpt>
      <trkpt lat="47.07461" lon="3.27096">
        <ele>214</ele>
        <time>2016-08-18T16:25:12Z</time>
      </trkpt>
      <trkpt lat="47.07458" lon="3.27106">
        <ele>214</ele>
        <time>2016-08-18T16:25:13Z</time>
      </trkpt>
      <trkpt lat="47.07456" lon="3.2711">
        <ele>214</ele>
        <time>2016-08-18T16:25:14Z</time>
      </trkpt>
      <trkpt lat="47.07453" lon="3.27118">
        <ele>215</ele>
        <time>2016-08-18T16:25:15Z</time>
      </trkpt>
      <trkpt lat="47.0745" lon="3.27128">
        <ele>215</ele>
        <time>2016-08-18T16:25:17Z</time>
      </trkpt>
      <trkpt lat="47.07449" lon="3.27132">
        <ele>215</ele>
        <time>2016-08-18T16:25:17Z</time>
      </trkpt>
      <trkpt lat="47.07447" lon="3.27139">
        <ele>215</ele>
        <time>2016-08-18T16:25:18Z</time>
      </trkpt>
      <trkpt lat="47.07444" lon="3.2715">
        <ele>215</ele>
        <time>2016-08-18T16:25:20Z</time>
      </trkpt>
      <trkpt lat="47.07443" lon="3.27154">
        <ele>215</ele>
        <time>2016-08-18T16:25:20Z</time>
      </trkpt>
      <trkpt lat="47.0744" lon="3.27161">
        <ele>215</ele>
        <time>2016-08-18T16:25:21Z</time>
      </trkpt>
      <trkpt lat="47.07437" lon="3.27169">
        <ele>215</ele>
        <time>2016-08-18T16:25:22Z</time>
      </trkpt>
      <trkpt lat="47.07435" lon="3.27177">
        <ele>215</ele>
        <time>2016-08-18T16:25:23Z</time>
      </trkpt>
      <trkpt lat="47.07431" lon="3.27186">
        <ele>214</ele>
        <time>2016-08-18T16:25:24Z</time>
      </trkpt>
      <trkpt lat="47.07428" lon="3.27194">
        <ele>214</ele>
        <time>2016-08-18T16:25:25Z</time>
      </trkpt>
      <trkpt lat="47.07426" lon="3.27203">
        <ele>214</ele>
        <time>2016-08-18T16:25:27Z</time>
      </trkpt>
      <trkpt lat="47.07422" lon="3.27211">
        <ele>214</ele>
        <time>2016-08-18T16:25:28Z</time>
      </trkpt>
      <trkpt lat="47.0742" lon="3.2722">
        <ele>214</ele>
        <time>2016-08-18T16:25:29Z</time>
      </trkpt>
      <trkpt lat="47.07417" lon="3.27229">
        <ele>214</ele>
        <time>2016-08-18T16:25:30Z</time>
      </trkpt>
      <trkpt lat="47.07415" lon="3.27236">
        <ele>214</ele>
        <time>2016-08-18T16:25:30Z</time>
      </trkpt>
      <trkpt lat="47.07413" lon="3.27245">
        <ele>214</ele>
        <time>2016-08-18T16:25:31Z</time>
      </trkpt>
      <trkpt lat="47.07411" lon="3.27254">
        <ele>214</ele>
        <time>2016-08-18T16:25:32Z</time>
      </trkpt>
      <trkpt lat="47.07409" lon="3.27263">
        <ele>214</ele>
        <time>2016-08-18T16:25:33Z</time>
      </trkpt>
      <trkpt lat="47.07407" lon="3.27272">
        <ele>214</ele>
        <time>2016-08-18T16:25:34Z</time>
      </trkpt>
      <trkpt lat="47.07405" lon="3.27282">
        <ele>214</ele>
        <time>2016-08-18T16:25:35Z</time>
      </trkpt>
      <trkpt lat="47.07403" lon="3.27291">
        <ele>214</ele>
        <time>2016-08-18T16:25:36Z</time>
      </trkpt>
      <trkpt lat="47.07401" lon="3.27301">
        <ele>214</ele>
        <time>2016-08-18T16:25:37Z</time>
      </trkpt>
      <trkpt lat="47.074" lon="3.27311">
        <ele>214</ele>
        <time>2016-08-18T16:25:39Z</time>
      </trkpt>
      <trkpt lat="47.07398" lon="3.27321">
        <ele>214</ele>
        <time>2016-08-18T16:25:39Z</time>
      </trkpt>
      <trkpt lat="47.07397" lon="3.27332">
        <ele>214</ele>
        <time>2016-08-18T16:25:41Z</time>
      </trkpt>
      <trkpt lat="47.07395" lon="3.27342">
        <ele>214</ele>
        <time>2016-08-18T16:25:42Z</time>
      </trkpt>
      <trkpt lat="47.07393" lon="3.27353">
        <ele>214</ele>
        <time>2016-08-18T16:25:43Z</time>
      </trkpt>
      <trkpt lat="47.07392" lon="3.27362">
        <ele>215</ele>
        <time>2016-08-18T16:25:44Z</time>
      </trkpt>
      <trkpt lat="47.07391" lon="3.27372">
        <ele>215</ele>
        <time>2016-08-18T16:25:45Z</time>
      </trkpt>
      <trkpt lat="47.07389" lon="3.27382">
        <ele>214</ele>
        <time>2016-08-18T16:25:46Z</time>
      </trkpt>
      <trkpt lat="47.07387" lon="3.27392">
        <ele>214</ele>
        <time>2016-08-18T16:25:47Z</time>
      </trkpt>
      <trkpt lat="47.07386" lon="3.27402">
        <ele>214</ele>
        <time>2016-08-18T16:25:48Z</time>
      </trkpt>
      <trkpt lat="47.07384" lon="3.27411">
        <ele>214</ele>
        <time>2016-08-18T16:25:49Z</time>
      </trkpt>
      <trkpt lat="47.07382" lon="3.2742">
        <ele>214</ele>
        <time>2016-08-18T16:25:50Z</time>
      </trkpt>
      <trkpt lat="47.0738" lon="3.27429">
        <ele>214</ele>
        <time>2016-08-18T16:25:51Z</time>
      </trkpt>
      <trkpt lat="47.07378" lon="3.27438">
        <ele>214</ele>
        <time>2016-08-18T16:25:52Z</time>
      </trkpt>
      <trkpt lat="47.07376" lon="3.27448">
        <ele>213</ele>
        <time>2016-08-18T16:25:53Z</time>
      </trkpt>
      <trkpt lat="47.07374" lon="3.27457">
        <ele>213</ele>
        <time>2016-08-18T16:25:54Z</time>
      </trkpt>
      <trkpt lat="47.07372" lon="3.27466">
        <ele>213</ele>
        <time>2016-08-18T16:25:55Z</time>
      </trkpt>
      <trkpt lat="47.07369" lon="3.27476">
        <ele>212</ele>
        <time>2016-08-18T16:25:56Z</time>
      </trkpt>
      <trkpt lat="47.07365" lon="3.27492">
        <ele>212</ele>
        <time>2016-08-18T16:25:58Z</time>
      </trkpt>
      <trkpt lat="47.07364" lon="3.27495">
        <ele>212</ele>
        <time>2016-08-18T16:25:58Z</time>
      </trkpt>
      <trkpt lat="47.07361" lon="3.27505">
        <ele>212</ele>
        <time>2016-08-18T16:25:59Z</time>
      </trkpt>
      <trkpt lat="47.07359" lon="3.27515">
        <ele>213</ele>
        <time>2016-08-18T16:26:00Z</time>
      </trkpt>
      <trkpt lat="47.07354" lon="3.2753">
        <ele>213</ele>
        <time>2016-08-18T16:26:02Z</time>
      </trkpt>
      <trkpt lat="47.07353" lon="3.27534">
        <ele>213</ele>
        <time>2016-08-18T16:26:02Z</time>
      </trkpt>
      <trkpt lat="47.07351" lon="3.27543">
        <ele>213</ele>
        <time>2016-08-18T16:26:03Z</time>
      </trkpt>
      <trkpt lat="47.07349" lon="3.27553">
        <ele>213</ele>
        <time>2016-08-18T16:26:04Z</time>
      </trkpt>
      <trkpt lat="47.07346" lon="3.27568">
        <ele>214</ele>
        <time>2016-08-18T16:26:05Z</time>
      </trkpt>
      <trkpt lat="47.07344" lon="3.27579">
        <ele>214</ele>
        <time>2016-08-18T16:26:06Z</time>
      </trkpt>
      <trkpt lat="47.07342" lon="3.2759">
        <ele>215</ele>
        <time>2016-08-18T16:26:08Z</time>
      </trkpt>
      <trkpt lat="47.07341" lon="3.27597">
        <ele>215</ele>
        <time>2016-08-18T16:26:08Z</time>
      </trkpt>
      <trkpt lat="47.07341" lon="3.27613">
        <ele>215</ele>
        <time>2016-08-18T16:26:10Z</time>
      </trkpt>
      <trkpt lat="47.07341" lon="3.27624">
        <ele>215</ele>
        <time>2016-08-18T16:26:11Z</time>
      </trkpt>
      <trkpt lat="47.07343" lon="3.27635">
        <ele>215</ele>
        <time>2016-08-18T16:26:12Z</time>
      </trkpt>
      <trkpt lat="47.07344" lon="3.27642">
        <ele>215</ele>
        <time>2016-08-18T16:26:12Z</time>
      </trkpt>
      <trkpt lat="47.07346" lon="3.27655">
        <ele>216</ele>
        <time>2016-08-18T16:26:13Z</time>
      </trkpt>
      <trkpt lat="47.07348" lon="3.27663">
        <ele>216</ele>
        <time>2016-08-18T16:26:14Z</time>
      </trkpt>
      <trkpt lat="47.07351" lon="3.27673">
        <ele>215</ele>
        <time>2016-08-18T16:26:15Z</time>
      </trkpt>
      <trkpt lat="47.07355" lon="3.27685">
        <ele>216</ele>
        <time>2016-08-18T16:26:16Z</time>
      </trkpt>
      <trkpt lat="47.07358" lon="3.27695">
        <ele>216</ele>
        <time>2016-08-18T16:26:17Z</time>
      </trkpt>
      <trkpt lat="47.07361" lon="3.27703">
        <ele>216</ele>
        <time>2016-08-18T16:26:18Z</time>
      </trkpt>
      <trkpt lat="47.07364" lon="3.27715">
        <ele>215</ele>
        <time>2016-08-18T16:26:19Z</time>
      </trkpt>
      <trkpt lat="47.07367" lon="3.27725">
        <ele>215</ele>
        <time>2016-08-18T16:26:21Z</time>
      </trkpt>
      <trkpt lat="47.0737" lon="3.27735">
        <ele>215</ele>
        <time>2016-08-18T16:26:22Z</time>
      </trkpt>
      <trkpt lat="47.07373" lon="3.27745">
        <ele>214</ele>
        <time>2016-08-18T16:26:23Z</time>
      </trkpt>
      <trkpt lat="47.07377" lon="3.27754">
        <ele>214</ele>
        <time>2016-08-18T16:26:24Z</time>
      </trkpt>
      <trkpt lat="47.0738" lon="3.27763">
        <ele>214</ele>
        <time>2016-08-18T16:26:25Z</time>
      </trkpt>
      <trkpt lat="47.07383" lon="3.27771">
        <ele>214</ele>
        <time>2016-08-18T16:26:25Z</time>
      </trkpt>
      <trkpt lat="47.07386" lon="3.2778">
        <ele>214</ele>
        <time>2016-08-18T16:26:26Z</time>
      </trkpt>
      <trkpt lat="47.0739" lon="3.27789">
        <ele>215</ele>
        <time>2016-08-18T16:26:27Z</time>
      </trkpt>
      <trkpt lat="47.07394" lon="3.27797">
        <ele>215</ele>
        <time>2016-08-18T16:26:28Z</time>
      </trkpt>
      <trkpt lat="47.07398" lon="3.27806">
        <ele>215</ele>
        <time>2016-08-18T16:26:29Z</time>
      </trkpt>
      <trkpt lat="47.07402" lon="3.27814">
        <ele>216</ele>
        <time>2016-08-18T16:26:30Z</time>
      </trkpt>
      <trkpt lat="47.07406" lon="3.27823">
        <ele>217</ele>
        <time>2016-08-18T16:26:32Z</time>
      </trkpt>
      <trkpt lat="47.0741" lon="3.27831">
        <ele>218</ele>
        <time>2016-08-18T16:26:33Z</time>
      </trkpt>
      <trkpt lat="47.07413" lon="3.27838">
        <ele>217</ele>
        <time>2016-08-18T16:26:34Z</time>
      </trkpt>
      <trkpt lat="47.07418" lon="3.27846">
        <ele>217</ele>
        <time>2016-08-18T16:26:35Z</time>
      </trkpt>
      <trkpt lat="47.07423" lon="3.27853">
        <ele>218</ele>
        <time>2016-08-18T16:26:36Z</time>
      </trkpt>
      <trkpt lat="47.07428" lon="3.27859">
        <ele>218</ele>
        <time>2016-08-18T16:26:37Z</time>
      </trkpt>
      <trkpt lat="47.07433" lon="3.27866">
        <ele>218</ele>
        <time>2016-08-18T16:26:38Z</time>
      </trkpt>
      <trkpt lat="47.07438" lon="3.27872">
        <ele>218</ele>
        <time>2016-08-18T16:26:39Z</time>
      </trkpt>
      <trkpt lat="47.07443" lon="3.27877">
        <ele>219</ele>
        <time>2016-08-18T16:26:40Z</time>
      </trkpt>
      <trkpt lat="47.07448" lon="3.27883">
        <ele>219</ele>
        <time>2016-08-18T16:26:41Z</time>
      </trkpt>
      <trkpt lat="47.07457" lon="3.27892">
        <ele>220</ele>
        <time>2016-08-18T16:26:43Z</time>
      </trkpt>
      <trkpt lat="47.07458" lon="3.27893">
        <ele>220</ele>
        <time>2016-08-18T16:26:43Z</time>
      </trkpt>
      <trkpt lat="47.07467" lon="3.27902">
        <ele>220</ele>
        <time>2016-08-18T16:26:44Z</time>
      </trkpt>
      <trkpt lat="47.07469" lon="3.27904">
        <ele>220</ele>
        <time>2016-08-18T16:26:45Z</time>
      </trkpt>
      <trkpt lat="47.07473" lon="3.27909">
        <ele>220</ele>
        <time>2016-08-18T16:26:46Z</time>
      </trkpt>
      <trkpt lat="47.07479" lon="3.27913">
        <ele>220</ele>
        <time>2016-08-18T16:26:47Z</time>
      </trkpt>
      <trkpt lat="47.07484" lon="3.27918">
        <ele>220</ele>
        <time>2016-08-18T16:26:48Z</time>
      </trkpt>
      <trkpt lat="47.07489" lon="3.27922">
        <ele>219</ele>
        <time>2016-08-18T16:26:49Z</time>
      </trkpt>
      <trkpt lat="47.07494" lon="3.27926">
        <ele>219</ele>
        <time>2016-08-18T16:26:50Z</time>
      </trkpt>
      <trkpt lat="47.07502" lon="3.27933">
        <ele>220</ele>
        <time>2016-08-18T16:26:52Z</time>
      </trkpt>
      <trkpt lat="47.07504" lon="3.27935">
        <ele>220</ele>
        <time>2016-08-18T16:26:52Z</time>
      </trkpt>
      <trkpt lat="47.07511" lon="3.27941">
        <ele>221</ele>
        <time>2016-08-18T16:26:53Z</time>
      </trkpt>
      <trkpt lat="47.07514" lon="3.27944">
        <ele>220</ele>
        <time>2016-08-18T16:26:54Z</time>
      </trkpt>
      <trkpt lat="47.07518" lon="3.27949">
        <ele>220</ele>
        <time>2016-08-18T16:26:55Z</time>
      </trkpt>
      <trkpt lat="47.07523" lon="3.27954">
        <ele>220</ele>
        <time>2016-08-18T16:26:56Z</time>
      </trkpt>
      <trkpt lat="47.07528" lon="3.27959">
        <ele>220</ele>
        <time>2016-08-18T16:26:57Z</time>
      </trkpt>
      <trkpt lat="47.07536" lon="3.27967">
        <ele>220</ele>
        <time>2016-08-18T16:26:59Z</time>
      </trkpt>
      <trkpt lat="47.07538" lon="3.2797">
        <ele>220</ele>
        <time>2016-08-18T16:26:59Z</time>
      </trkpt>
      <trkpt lat="47.07543" lon="3.27976">
        <ele>220</ele>
        <time>2016-08-18T16:27:00Z</time>
      </trkpt>
      <trkpt lat="47.07548" lon="3.27982">
        <ele>220</ele>
        <time>2016-08-18T16:27:01Z</time>
      </trkpt>
      <trkpt lat="47.07554" lon="3.27991">
        <ele>221</ele>
        <time>2016-08-18T16:27:03Z</time>
      </trkpt>
      <trkpt lat="47.07557" lon="3.27997">
        <ele>220</ele>
        <time>2016-08-18T16:27:03Z</time>
      </trkpt>
      <trkpt lat="47.07561" lon="3.28003">
        <ele>220</ele>
        <time>2016-08-18T16:27:04Z</time>
      </trkpt>
      <trkpt lat="47.07565" lon="3.28012">
        <ele>221</ele>
        <time>2016-08-18T16:27:05Z</time>
      </trkpt>
      <trkpt lat="47.07569" lon="3.2802">
        <ele>221</ele>
        <time>2016-08-18T16:27:06Z</time>
      </trkpt>
      <trkpt lat="47.07572" lon="3.28028">
        <ele>221</ele>
        <time>2016-08-18T16:27:08Z</time>
      </trkpt>
      <trkpt lat="47.07576" lon="3.28034">
        <ele>221</ele>
        <time>2016-08-18T16:27:08Z</time>
      </trkpt>
      <trkpt lat="47.0758" lon="3.28043">
        <ele>221</ele>
        <time>2016-08-18T16:27:10Z</time>
      </trkpt>
      <trkpt lat="47.07583" lon="3.28049">
        <ele>221</ele>
        <time>2016-08-18T16:27:10Z</time>
      </trkpt>
      <trkpt lat="47.07586" lon="3.28057">
        <ele>221</ele>
        <time>2016-08-18T16:27:11Z</time>
      </trkpt>
      <trkpt lat="47.0759" lon="3.28065">
        <ele>221</ele>
        <time>2016-08-18T16:27:12Z</time>
      </trkpt>
      <trkpt lat="47.07593" lon="3.28073">
        <ele>220</ele>
        <time>2016-08-18T16:27:13Z</time>
      </trkpt>
      <trkpt lat="47.07596" lon="3.28082">
        <ele>220</ele>
        <time>2016-08-18T16:27:14Z</time>
      </trkpt>
      <trkpt lat="47.07598" lon="3.2809">
        <ele>220</ele>
        <time>2016-08-18T16:27:15Z</time>
      </trkpt>
      <trkpt lat="47.076" lon="3.281">
        <ele>220</ele>
        <time>2016-08-18T16:27:16Z</time>
      </trkpt>
      <trkpt lat="47.07601" lon="3.28109">
        <ele>221</ele>
        <time>2016-08-18T16:27:18Z</time>
      </trkpt>
      <trkpt lat="47.07602" lon="3.28119">
        <ele>221</ele>
        <time>2016-08-18T16:27:18Z</time>
      </trkpt>
      <trkpt lat="47.07603" lon="3.28128">
        <ele>221</ele>
        <time>2016-08-18T16:27:20Z</time>
      </trkpt>
      <trkpt lat="47.07603" lon="3.28137">
        <ele>221</ele>
        <time>2016-08-18T16:27:21Z</time>
      </trkpt>
      <trkpt lat="47.07603" lon="3.28155">
        <ele>222</ele>
        <time>2016-08-18T16:27:22Z</time>
      </trkpt>
      <trkpt lat="47.07603" lon="3.28157">
        <ele>222</ele>
        <time>2016-08-18T16:27:23Z</time>
      </trkpt>
      <trkpt lat="47.07603" lon="3.28166">
        <ele>222</ele>
        <time>2016-08-18T16:27:24Z</time>
      </trkpt>
      <trkpt lat="47.07603" lon="3.28184">
        <ele>222</ele>
        <time>2016-08-18T16:27:25Z</time>
      </trkpt>
      <trkpt lat="47.07603" lon="3.28185">
        <ele>222</ele>
        <time>2016-08-18T16:27:26Z</time>
      </trkpt>
      <trkpt lat="47.07603" lon="3.28195">
        <ele>222</ele>
        <time>2016-08-18T16:27:27Z</time>
      </trkpt>
      <trkpt lat="47.07603" lon="3.28203">
        <ele>222</ele>
        <time>2016-08-18T16:27:28Z</time>
      </trkpt>
      <trkpt lat="47.07603" lon="3.28212">
        <ele>222</ele>
        <time>2016-08-18T16:27:29Z</time>
      </trkpt>
      <trkpt lat="47.07603" lon="3.28221">
        <ele>221</ele>
        <time>2016-08-18T16:27:30Z</time>
      </trkpt>
      <trkpt lat="47.07603" lon="3.28231">
        <ele>221</ele>
        <time>2016-08-18T16:27:31Z</time>
      </trkpt>
      <trkpt lat="47.07603" lon="3.28239">
        <ele>221</ele>
        <time>2016-08-18T16:27:32Z</time>
      </trkpt>
      <trkpt lat="47.07603" lon="3.28255">
        <ele>221</ele>
        <time>2016-08-18T16:27:33Z</time>
      </trkpt>
      <trkpt lat="47.07603" lon="3.28259">
        <ele>221</ele>
        <time>2016-08-18T16:27:34Z</time>
      </trkpt>
      <trkpt lat="47.07603" lon="3.28267">
        <ele>221</ele>
        <time>2016-08-18T16:27:35Z</time>
      </trkpt>
      <trkpt lat="47.07603" lon="3.28276">
        <ele>221</ele>
        <time>2016-08-18T16:27:36Z</time>
      </trkpt>
      <trkpt lat="47.07603" lon="3.28284">
        <ele>221</ele>
        <time>2016-08-18T16:27:37Z</time>
      </trkpt>
      <trkpt lat="47.07603" lon="3.28292">
        <ele>221</ele>
        <time>2016-08-18T16:27:38Z</time>
      </trkpt>
      <trkpt lat="47.07603" lon="3.283">
        <ele>222</ele>
        <time>2016-08-18T16:27:39Z</time>
      </trkpt>
      <trkpt lat="47.07603" lon="3.28308">
        <ele>222</ele>
        <time>2016-08-18T16:27:40Z</time>
      </trkpt>
      <trkpt lat="47.07603" lon="3.28321">
        <ele>222</ele>
        <time>2016-08-18T16:27:42Z</time>
      </trkpt>
      <trkpt lat="47.07603" lon="3.28329">
        <ele>222</ele>
        <time>2016-08-18T16:27:43Z</time>
      </trkpt>
      <trkpt lat="47.07603" lon="3.28336">
        <ele>222</ele>
        <time>2016-08-18T16:27:43Z</time>
      </trkpt>
      <trkpt lat="47.07603" lon="3.28341">
        <ele>222</ele>
        <time>2016-08-18T16:27:44Z</time>
      </trkpt>
      <trkpt lat="47.07603" lon="3.28349">
        <ele>222</ele>
        <time>2016-08-18T16:27:45Z</time>
      </trkpt>
      <trkpt lat="47.07603" lon="3.28357">
        <ele>222</ele>
        <time>2016-08-18T16:27:46Z</time>
      </trkpt>
      <trkpt lat="47.07603" lon="3.28365">
        <ele>222</ele>
        <time>2016-08-18T16:27:47Z</time>
      </trkpt>
      <trkpt lat="47.07603" lon="3.28373">
        <ele>222</ele>
        <time>2016-08-18T16:27:48Z</time>
      </trkpt>
      <trkpt lat="47.07604" lon="3.28384">
        <ele>223</ele>
        <time>2016-08-18T16:27:49Z</time>
      </trkpt>
      <trkpt lat="47.07604" lon="3.28388">
        <ele>224</ele>
        <time>2016-08-18T16:27:50Z</time>
      </trkpt>
      <trkpt lat="47.07604" lon="3.28398">
        <ele>224</ele>
        <time>2016-08-18T16:27:51Z</time>
      </trkpt>
      <trkpt lat="47.07604" lon="3.28406">
        <ele>224</ele>
        <time>2016-08-18T16:27:52Z</time>
      </trkpt>
      <trkpt lat="47.07605" lon="3.28412">
        <ele>224</ele>
        <time>2016-08-18T16:27:53Z</time>
      </trkpt>
      <trkpt lat="47.07605" lon="3.28419">
        <ele>225</ele>
        <time>2016-08-18T16:27:54Z</time>
      </trkpt>
      <trkpt lat="47.07605" lon="3.28427">
        <ele>225</ele>
        <time>2016-08-18T16:27:55Z</time>
      </trkpt>
      <trkpt lat="47.07606" lon="3.28433">
        <ele>225</ele>
        <time>2016-08-18T16:27:56Z</time>
      </trkpt>
      <trkpt lat="47.07607" lon="3.2844">
        <ele>226</ele>
        <time>2016-08-18T16:27:57Z</time>
      </trkpt>
      <trkpt lat="47.07607" lon="3.28447">
        <ele>226</ele>
        <time>2016-08-18T16:27:58Z</time>
      </trkpt>
      <trkpt lat="47.07606" lon="3.28456">
        <ele>226</ele>
        <time>2016-08-18T16:28:00Z</time>
      </trkpt>
      <trkpt lat="47.07606" lon="3.28462">
        <ele>226</ele>
        <time>2016-08-18T16:28:00Z</time>
      </trkpt>
      <trkpt lat="47.07607" lon="3.2847">
        <ele>227</ele>
        <time>2016-08-18T16:28:01Z</time>
      </trkpt>
      <trkpt lat="47.07608" lon="3.28477">
        <ele>227</ele>
        <time>2016-08-18T16:28:02Z</time>
      </trkpt>
      <trkpt lat="47.07609" lon="3.28484">
        <ele>227</ele>
        <time>2016-08-18T16:28:03Z</time>
      </trkpt>
      <trkpt lat="47.07609" lon="3.28492">
        <ele>227</ele>
        <time>2016-08-18T16:28:04Z</time>
      </trkpt>
      <trkpt lat="47.0761" lon="3.28498">
        <ele>228</ele>
        <time>2016-08-18T16:28:05Z</time>
      </trkpt>
      <trkpt lat="47.07611" lon="3.28506">
        <ele>228</ele>
        <time>2016-08-18T16:28:06Z</time>
      </trkpt>
      <trkpt lat="47.07612" lon="3.28513">
        <ele>228</ele>
        <time>2016-08-18T16:28:08Z</time>
      </trkpt>
      <trkpt lat="47.07613" lon="3.28519">
        <ele>228</ele>
        <time>2016-08-18T16:28:09Z</time>
      </trkpt>
      <trkpt lat="47.07615" lon="3.28526">
        <ele>228</ele>
        <time>2016-08-18T16:28:10Z</time>
      </trkpt>
      <trkpt lat="47.07616" lon="3.28533">
        <ele>229</ele>
        <time>2016-08-18T16:28:11Z</time>
      </trkpt>
      <trkpt lat="47.07617" lon="3.2854">
        <ele>229</ele>
        <time>2016-08-18T16:28:12Z</time>
      </trkpt>
      <trkpt lat="47.07618" lon="3.28547">
        <ele>229</ele>
        <time>2016-08-18T16:28:13Z</time>
      </trkpt>
      <trkpt lat="47.07619" lon="3.28553">
        <ele>229</ele>
        <time>2016-08-18T16:28:14Z</time>
      </trkpt>
      <trkpt lat="47.07619" lon="3.28561">
        <ele>230</ele>
        <time>2016-08-18T16:28:15Z</time>
      </trkpt>
      <trkpt lat="47.0762" lon="3.28567">
        <ele>230</ele>
        <time>2016-08-18T16:28:16Z</time>
      </trkpt>
      <trkpt lat="47.07621" lon="3.28574">
        <ele>230</ele>
        <time>2016-08-18T16:28:17Z</time>
      </trkpt>
      <trkpt lat="47.07623" lon="3.2858">
        <ele>231</ele>
        <time>2016-08-18T16:28:18Z</time>
      </trkpt>
      <trkpt lat="47.07623" lon="3.28587">
        <ele>231</ele>
        <time>2016-08-18T16:28:19Z</time>
      </trkpt>
      <trkpt lat="47.07624" lon="3.28594">
        <ele>231</ele>
        <time>2016-08-18T16:28:20Z</time>
      </trkpt>
      <trkpt lat="47.07625" lon="3.28601">
        <ele>232</ele>
        <time>2016-08-18T16:28:21Z</time>
      </trkpt>
      <trkpt lat="47.07626" lon="3.28608">
        <ele>232</ele>
        <time>2016-08-18T16:28:22Z</time>
      </trkpt>
      <trkpt lat="47.07626" lon="3.28614">
        <ele>231</ele>
        <time>2016-08-18T16:28:23Z</time>
      </trkpt>
      <trkpt lat="47.07627" lon="3.2862">
        <ele>231</ele>
        <time>2016-08-18T16:28:24Z</time>
      </trkpt>
      <trkpt lat="47.07627" lon="3.28626">
        <ele>231</ele>
        <time>2016-08-18T16:28:25Z</time>
      </trkpt>
      <trkpt lat="47.07628" lon="3.28633">
        <ele>231</ele>
        <time>2016-08-18T16:28:26Z</time>
      </trkpt>
      <trkpt lat="47.07629" lon="3.28639">
        <ele>231</ele>
        <time>2016-08-18T16:28:27Z</time>
      </trkpt>
      <trkpt lat="47.0763" lon="3.28645">
        <ele>231</ele>
        <time>2016-08-18T16:28:28Z</time>
      </trkpt>
      <trkpt lat="47.07631" lon="3.28652">
        <ele>231</ele>
        <time>2016-08-18T16:28:29Z</time>
      </trkpt>
      <trkpt lat="47.07632" lon="3.28658">
        <ele>231</ele>
        <time>2016-08-18T16:28:30Z</time>
      </trkpt>
      <trkpt lat="47.07633" lon="3.28664">
        <ele>231</ele>
        <time>2016-08-18T16:28:31Z</time>
      </trkpt>
      <trkpt lat="47.07634" lon="3.28671">
        <ele>232</ele>
        <time>2016-08-18T16:28:32Z</time>
      </trkpt>
      <trkpt lat="47.07635" lon="3.28677">
        <ele>232</ele>
        <time>2016-08-18T16:28:33Z</time>
      </trkpt>
      <trkpt lat="47.07636" lon="3.28685">
        <ele>232</ele>
        <time>2016-08-18T16:28:34Z</time>
      </trkpt>
      <trkpt lat="47.07637" lon="3.28691">
        <ele>232</ele>
        <time>2016-08-18T16:28:35Z</time>
      </trkpt>
      <trkpt lat="47.07638" lon="3.28697">
        <ele>232</ele>
        <time>2016-08-18T16:28:36Z</time>
      </trkpt>
      <trkpt lat="47.0764" lon="3.28707">
        <ele>232</ele>
        <time>2016-08-18T16:28:38Z</time>
      </trkpt>
      <trkpt lat="47.07641" lon="3.2871">
        <ele>233</ele>
        <time>2016-08-18T16:28:38Z</time>
      </trkpt>
      <trkpt lat="47.07642" lon="3.28717">
        <ele>233</ele>
        <time>2016-08-18T16:28:39Z</time>
      </trkpt>
      <trkpt lat="47.07643" lon="3.28724">
        <ele>232</ele>
        <time>2016-08-18T16:28:40Z</time>
      </trkpt>
      <trkpt lat="47.07643" lon="3.28732">
        <ele>233</ele>
        <time>2016-08-18T16:28:41Z</time>
      </trkpt>
      <trkpt lat="47.07643" lon="3.28737">
        <ele>232</ele>
        <time>2016-08-18T16:28:42Z</time>
      </trkpt>
      <trkpt lat="47.07644" lon="3.28744">
        <ele>232</ele>
        <time>2016-08-18T16:28:43Z</time>
      </trkpt>
      <trkpt lat="47.07645" lon="3.2875">
        <ele>232</ele>
        <time>2016-08-18T16:28:44Z</time>
      </trkpt>
      <trkpt lat="47.07646" lon="3.28757">
        <ele>232</ele>
        <time>2016-08-18T16:28:45Z</time>
      </trkpt>
      <trkpt lat="47.07647" lon="3.28764">
        <ele>232</ele>
        <time>2016-08-18T16:28:46Z</time>
      </trkpt>
      <trkpt lat="47.07648" lon="3.2877">
        <ele>232</ele>
        <time>2016-08-18T16:28:47Z</time>
      </trkpt>
      <trkpt lat="47.07649" lon="3.28778">
        <ele>232</ele>
        <time>2016-08-18T16:28:49Z</time>
      </trkpt>
      <trkpt lat="47.0765" lon="3.28785">
        <ele>233</ele>
        <time>2016-08-18T16:28:50Z</time>
      </trkpt>
      <trkpt lat="47.07651" lon="3.28791">
        <ele>233</ele>
        <time>2016-08-18T16:28:50Z</time>
      </trkpt>
      <trkpt lat="47.07651" lon="3.28799">
        <ele>233</ele>
        <time>2016-08-18T16:28:51Z</time>
      </trkpt>
      <trkpt lat="47.07652" lon="3.28806">
        <ele>233</ele>
        <time>2016-08-18T16:28:52Z</time>
      </trkpt>
      <trkpt lat="47.07652" lon="3.28814">
        <ele>233</ele>
        <time>2016-08-18T16:28:53Z</time>
      </trkpt>
      <trkpt lat="47.07654" lon="3.28821">
        <ele>233</ele>
        <time>2016-08-18T16:28:54Z</time>
      </trkpt>
      <trkpt lat="47.07655" lon="3.28827">
        <ele>233</ele>
        <time>2016-08-18T16:28:55Z</time>
      </trkpt>
      <trkpt lat="47.07656" lon="3.28834">
        <ele>233</ele>
        <time>2016-08-18T16:28:57Z</time>
      </trkpt>
      <trkpt lat="47.07657" lon="3.28841">
        <ele>233</ele>
        <time>2016-08-18T16:28:58Z</time>
      </trkpt>
      <trkpt lat="47.07658" lon="3.28849">
        <ele>233</ele>
        <time>2016-08-18T16:28:59Z</time>
      </trkpt>
      <trkpt lat="47.07659" lon="3.28856">
        <ele>233</ele>
        <time>2016-08-18T16:29:00Z</time>
      </trkpt>
      <trkpt lat="47.0766" lon="3.28863">
        <ele>233</ele>
        <time>2016-08-18T16:29:01Z</time>
      </trkpt>
      <trkpt lat="47.07661" lon="3.2887">
        <ele>233</ele>
        <time>2016-08-18T16:29:02Z</time>
      </trkpt>
      <trkpt lat="47.07662" lon="3.28877">
        <ele>233</ele>
        <time>2016-08-18T16:29:03Z</time>
      </trkpt>
      <trkpt lat="47.07663" lon="3.28884">
        <ele>233</ele>
        <time>2016-08-18T16:29:04Z</time>
      </trkpt>
      <trkpt lat="47.07664" lon="3.28891">
        <ele>233</ele>
        <time>2016-08-18T16:29:05Z</time>
      </trkpt>
      <trkpt lat="47.07665" lon="3.28897">
        <ele>233</ele>
        <time>2016-08-18T16:29:06Z</time>
      </trkpt>
      <trkpt lat="47.07666" lon="3.28905">
        <ele>233</ele>
        <time>2016-08-18T16:29:07Z</time>
      </trkpt>
      <trkpt lat="47.07667" lon="3.28911">
        <ele>233</ele>
        <time>2016-08-18T16:29:08Z</time>
      </trkpt>
      <trkpt lat="47.07668" lon="3.28918">
        <ele>233</ele>
        <time>2016-08-18T16:29:09Z</time>
      </trkpt>
      <trkpt lat="47.07671" lon="3.28928">
        <ele>233</ele>
        <time>2016-08-18T16:29:10Z</time>
      </trkpt>
      <trkpt lat="47.07671" lon="3.28931">
        <ele>233</ele>
        <time>2016-08-18T16:29:11Z</time>
      </trkpt>
      <trkpt lat="47.07672" lon="3.28937">
        <ele>234</ele>
        <time>2016-08-18T16:29:12Z</time>
      </trkpt>
      <trkpt lat="47.07673" lon="3.28944">
        <ele>234</ele>
        <time>2016-08-18T16:29:13Z</time>
      </trkpt>
      <trkpt lat="47.07674" lon="3.28951">
        <ele>234</ele>
        <time>2016-08-18T16:29:14Z</time>
      </trkpt>
      <trkpt lat="47.07676" lon="3.2896">
        <ele>235</ele>
        <time>2016-08-18T16:29:15Z</time>
      </trkpt>
      <trkpt lat="47.07676" lon="3.28962">
        <ele>235</ele>
        <time>2016-08-18T16:29:16Z</time>
      </trkpt>
      <trkpt lat="47.07677" lon="3.28967">
        <ele>235</ele>
        <time>2016-08-18T16:29:17Z</time>
      </trkpt>
      <trkpt lat="47.07678" lon="3.28973">
        <ele>236</ele>
        <time>2016-08-18T16:29:18Z</time>
      </trkpt>
      <trkpt lat="47.07678" lon="3.28978">
        <ele>236</ele>
        <time>2016-08-18T16:29:19Z</time>
      </trkpt>
      <trkpt lat="47.07679" lon="3.28986">
        <ele>236</ele>
        <time>2016-08-18T16:29:20Z</time>
      </trkpt>
      <trkpt lat="47.07679" lon="3.28989">
        <ele>236</ele>
        <time>2016-08-18T16:29:21Z</time>
      </trkpt>
      <trkpt lat="47.07681" lon="3.28994">
        <ele>236</ele>
        <time>2016-08-18T16:29:22Z</time>
      </trkpt>
      <trkpt lat="47.07681" lon="3.28999">
        <ele>236</ele>
        <time>2016-08-18T16:29:23Z</time>
      </trkpt>
      <trkpt lat="47.07683" lon="3.29008">
        <ele>237</ele>
        <time>2016-08-18T16:29:25Z</time>
      </trkpt>
      <trkpt lat="47.07683" lon="3.29011">
        <ele>237</ele>
        <time>2016-08-18T16:29:25Z</time>
      </trkpt>
      <trkpt lat="47.07685" lon="3.29019">
        <ele>237</ele>
        <time>2016-08-18T16:29:26Z</time>
      </trkpt>
      <trkpt lat="47.07685" lon="3.29023">
        <ele>237</ele>
        <time>2016-08-18T16:29:27Z</time>
      </trkpt>
      <trkpt lat="47.07687" lon="3.29029">
        <ele>236</ele>
        <time>2016-08-18T16:29:28Z</time>
      </trkpt>
      <trkpt lat="47.07687" lon="3.29034">
        <ele>237</ele>
        <time>2016-08-18T16:29:29Z</time>
      </trkpt>
      <trkpt lat="47.07688" lon="3.29041">
        <ele>237</ele>
        <time>2016-08-18T16:29:30Z</time>
      </trkpt>
      <trkpt lat="47.07688" lon="3.29046">
        <ele>237</ele>
        <time>2016-08-18T16:29:31Z</time>
      </trkpt>
      <trkpt lat="47.07689" lon="3.29052">
        <ele>237</ele>
        <time>2016-08-18T16:29:32Z</time>
      </trkpt>
      <trkpt lat="47.0769" lon="3.2906">
        <ele>236</ele>
        <time>2016-08-18T16:29:34Z</time>
      </trkpt>
      <trkpt lat="47.0769" lon="3.29066">
        <ele>237</ele>
        <time>2016-08-18T16:29:35Z</time>
      </trkpt>
      <trkpt lat="47.07691" lon="3.2907">
        <ele>237</ele>
        <time>2016-08-18T16:29:35Z</time>
      </trkpt>
      <trkpt lat="47.07691" lon="3.29076">
        <ele>237</ele>
        <time>2016-08-18T16:29:36Z</time>
      </trkpt>
      <trkpt lat="47.07693" lon="3.29082">
        <ele>237</ele>
        <time>2016-08-18T16:29:37Z</time>
      </trkpt>
      <trkpt lat="47.07694" lon="3.29089">
        <ele>237</ele>
        <time>2016-08-18T16:29:38Z</time>
      </trkpt>
      <trkpt lat="47.07695" lon="3.29095">
        <ele>237</ele>
        <time>2016-08-18T16:29:39Z</time>
      </trkpt>
      <trkpt lat="47.07695" lon="3.29101">
        <ele>237</ele>
        <time>2016-08-18T16:29:40Z</time>
      </trkpt>
      <trkpt lat="47.07697" lon="3.29107">
        <ele>237</ele>
        <time>2016-08-18T16:29:41Z</time>
      </trkpt>
      <trkpt lat="47.07697" lon="3.29114">
        <ele>237</ele>
        <time>2016-08-18T16:29:42Z</time>
      </trkpt>
      <trkpt lat="47.07698" lon="3.2912">
        <ele>237</ele>
        <time>2016-08-18T16:29:44Z</time>
      </trkpt>
      <trkpt lat="47.07699" lon="3.29127">
        <ele>237</ele>
        <time>2016-08-18T16:29:45Z</time>
      </trkpt>
      <trkpt lat="47.077" lon="3.29134">
        <ele>237</ele>
        <time>2016-08-18T16:29:46Z</time>
      </trkpt>
      <trkpt lat="47.07701" lon="3.2914">
        <ele>237</ele>
        <time>2016-08-18T16:29:47Z</time>
      </trkpt>
      <trkpt lat="47.07702" lon="3.29147">
        <ele>237</ele>
        <time>2016-08-18T16:29:48Z</time>
      </trkpt>
      <trkpt lat="47.07703" lon="3.29154">
        <ele>237</ele>
        <time>2016-08-18T16:29:49Z</time>
      </trkpt>
      <trkpt lat="47.07704" lon="3.29161">
        <ele>238</ele>
        <time>2016-08-18T16:29:50Z</time>
      </trkpt>
      <trkpt lat="47.07705" lon="3.29167">
        <ele>238</ele>
        <time>2016-08-18T16:29:51Z</time>
      </trkpt>
      <trkpt lat="47.07706" lon="3.29174">
        <ele>238</ele>
        <time>2016-08-18T16:29:52Z</time>
      </trkpt>
      <trkpt lat="47.07707" lon="3.29181">
        <ele>238</ele>
        <time>2016-08-18T16:29:53Z</time>
      </trkpt>
      <trkpt lat="47.07709" lon="3.29188">
        <ele>238</ele>
        <time>2016-08-18T16:29:54Z</time>
      </trkpt>
      <trkpt lat="47.0771" lon="3.29195">
        <ele>238</ele>
        <time>2016-08-18T16:29:55Z</time>
      </trkpt>
      <trkpt lat="47.07711" lon="3.29202">
        <ele>238</ele>
        <time>2016-08-18T16:29:56Z</time>
      </trkpt>
      <trkpt lat="47.07713" lon="3.29214">
        <ele>238</ele>
        <time>2016-08-18T16:29:57Z</time>
      </trkpt>
      <trkpt lat="47.07714" lon="3.29221">
        <ele>237</ele>
        <time>2016-08-18T16:29:58Z</time>
      </trkpt>
      <trkpt lat="47.07715" lon="3.29224">
        <ele>238</ele>
        <time>2016-08-18T16:29:59Z</time>
      </trkpt>
      <trkpt lat="47.07716" lon="3.29232">
        <ele>238</ele>
        <time>2016-08-18T16:30:00Z</time>
      </trkpt>
      <trkpt lat="47.07716" lon="3.2924">
        <ele>238</ele>
        <time>2016-08-18T16:30:01Z</time>
      </trkpt>
      <trkpt lat="47.07717" lon="3.29247">
        <ele>238</ele>
        <time>2016-08-18T16:30:02Z</time>
      </trkpt>
      <trkpt lat="47.07719" lon="3.29253">
        <ele>238</ele>
        <time>2016-08-18T16:30:03Z</time>
      </trkpt>
      <trkpt lat="47.07719" lon="3.2926">
        <ele>239</ele>
        <time>2016-08-18T16:30:04Z</time>
      </trkpt>
      <trkpt lat="47.0772" lon="3.29267">
        <ele>239</ele>
        <time>2016-08-18T16:30:05Z</time>
      </trkpt>
      <trkpt lat="47.07721" lon="3.29274">
        <ele>239</ele>
        <time>2016-08-18T16:30:06Z</time>
      </trkpt>
      <trkpt lat="47.07722" lon="3.2928">
        <ele>240</ele>
        <time>2016-08-18T16:30:07Z</time>
      </trkpt>
      <trkpt lat="47.07723" lon="3.29285">
        <ele>240</ele>
        <time>2016-08-18T16:30:08Z</time>
      </trkpt>
      <trkpt lat="47.07723" lon="3.29294">
        <ele>240</ele>
        <time>2016-08-18T16:30:09Z</time>
      </trkpt>
      <trkpt lat="47.07724" lon="3.29298">
        <ele>241</ele>
        <time>2016-08-18T16:30:10Z</time>
      </trkpt>
      <trkpt lat="47.07724" lon="3.29302">
        <ele>241</ele>
        <time>2016-08-18T16:30:11Z</time>
      </trkpt>
      <trkpt lat="47.07725" lon="3.29307">
        <ele>242</ele>
        <time>2016-08-18T16:30:12Z</time>
      </trkpt>
      <trkpt lat="47.07725" lon="3.29313">
        <ele>242</ele>
        <time>2016-08-18T16:30:13Z</time>
      </trkpt>
      <trkpt lat="47.07726" lon="3.29318">
        <ele>243</ele>
        <time>2016-08-18T16:30:14Z</time>
      </trkpt>
      <trkpt lat="47.07727" lon="3.29323">
        <ele>243</ele>
        <time>2016-08-18T16:30:15Z</time>
      </trkpt>
      <trkpt lat="47.07728" lon="3.29329">
        <ele>244</ele>
        <time>2016-08-18T16:30:16Z</time>
      </trkpt>
      <trkpt lat="47.07729" lon="3.29334">
        <ele>245</ele>
        <time>2016-08-18T16:30:17Z</time>
      </trkpt>
      <trkpt lat="47.0773" lon="3.29339">
        <ele>245</ele>
        <time>2016-08-18T16:30:18Z</time>
      </trkpt>
      <trkpt lat="47.07731" lon="3.29344">
        <ele>245</ele>
        <time>2016-08-18T16:30:19Z</time>
      </trkpt>
      <trkpt lat="47.07731" lon="3.29349">
        <ele>245</ele>
        <time>2016-08-18T16:30:20Z</time>
      </trkpt>
      <trkpt lat="47.07732" lon="3.29355">
        <ele>245</ele>
        <time>2016-08-18T16:30:21Z</time>
      </trkpt>
      <trkpt lat="47.07732" lon="3.2936">
        <ele>246</ele>
        <time>2016-08-18T16:30:22Z</time>
      </trkpt>
      <trkpt lat="47.07733" lon="3.29365">
        <ele>246</ele>
        <time>2016-08-18T16:30:23Z</time>
      </trkpt>
      <trkpt lat="47.07733" lon="3.2937">
        <ele>246</ele>
        <time>2016-08-18T16:30:24Z</time>
      </trkpt>
      <trkpt lat="47.07734" lon="3.29375">
        <ele>247</ele>
        <time>2016-08-18T16:30:25Z</time>
      </trkpt>
      <trkpt lat="47.07735" lon="3.2938">
        <ele>247</ele>
        <time>2016-08-18T16:30:26Z</time>
      </trkpt>
      <trkpt lat="47.07735" lon="3.29386">
        <ele>247</ele>
        <time>2016-08-18T16:30:27Z</time>
      </trkpt>
      <trkpt lat="47.07736" lon="3.29391">
        <ele>247</ele>
        <time>2016-08-18T16:30:28Z</time>
      </trkpt>
      <trkpt lat="47.07737" lon="3.29395">
        <ele>248</ele>
        <time>2016-08-18T16:30:29Z</time>
      </trkpt>
      <trkpt lat="47.07737" lon="3.294">
        <ele>249</ele>
        <time>2016-08-18T16:30:30Z</time>
      </trkpt>
      <trkpt lat="47.07738" lon="3.29405">
        <ele>249</ele>
        <time>2016-08-18T16:30:31Z</time>
      </trkpt>
      <trkpt lat="47.07739" lon="3.29409">
        <ele>249</ele>
        <time>2016-08-18T16:30:32Z</time>
      </trkpt>
      <trkpt lat="47.0774" lon="3.29414">
        <ele>250</ele>
        <time>2016-08-18T16:30:34Z</time>
      </trkpt>
      <trkpt lat="47.07741" lon="3.29419">
        <ele>250</ele>
        <time>2016-08-18T16:30:35Z</time>
      </trkpt>
      <trkpt lat="47.07742" lon="3.29424">
        <ele>250</ele>
        <time>2016-08-18T16:30:36Z</time>
      </trkpt>
      <trkpt lat="47.07742" lon="3.29429">
        <ele>250</ele>
        <time>2016-08-18T16:30:37Z</time>
      </trkpt>
      <trkpt lat="47.07743" lon="3.29434">
        <ele>251</ele>
        <time>2016-08-18T16:30:38Z</time>
      </trkpt>
      <trkpt lat="47.07744" lon="3.29439">
        <ele>251</ele>
        <time>2016-08-18T16:30:39Z</time>
      </trkpt>
      <trkpt lat="47.07745" lon="3.29444">
        <ele>251</ele>
        <time>2016-08-18T16:30:40Z</time>
      </trkpt>
      <trkpt lat="47.07746" lon="3.29449">
        <ele>252</ele>
        <time>2016-08-18T16:30:41Z</time>
      </trkpt>
      <trkpt lat="47.07747" lon="3.29454">
        <ele>252</ele>
        <time>2016-08-18T16:30:42Z</time>
      </trkpt>
      <trkpt lat="47.07747" lon="3.29459">
        <ele>252</ele>
        <time>2016-08-18T16:30:43Z</time>
      </trkpt>
      <trkpt lat="47.07748" lon="3.29464">
        <ele>252</ele>
        <time>2016-08-18T16:30:44Z</time>
      </trkpt>
      <trkpt lat="47.07749" lon="3.29469">
        <ele>252</ele>
        <time>2016-08-18T16:30:45Z</time>
      </trkpt>
      <trkpt lat="47.0775" lon="3.29474">
        <ele>252</ele>
        <time>2016-08-18T16:30:46Z</time>
      </trkpt>
      <trkpt lat="47.0775" lon="3.29479">
        <ele>253</ele>
        <time>2016-08-18T16:30:47Z</time>
      </trkpt>
      <trkpt lat="47.07751" lon="3.29484">
        <ele>253</ele>
        <time>2016-08-18T16:30:48Z</time>
      </trkpt>
      <trkpt lat="47.07752" lon="3.29488">
        <ele>253</ele>
        <time>2016-08-18T16:30:49Z</time>
      </trkpt>
      <trkpt lat="47.07753" lon="3.29492">
        <ele>253</ele>
        <time>2016-08-18T16:30:50Z</time>
      </trkpt>
      <trkpt lat="47.07753" lon="3.29497">
        <ele>253</ele>
        <time>2016-08-18T16:30:51Z</time>
      </trkpt>
      <trkpt lat="47.07754" lon="3.29502">
        <ele>253</ele>
        <time>2016-08-18T16:30:52Z</time>
      </trkpt>
      <trkpt lat="47.07755" lon="3.29507">
        <ele>253</ele>
        <time>2016-08-18T16:30:53Z</time>
      </trkpt>
      <trkpt lat="47.07756" lon="3.29511">
        <ele>253</ele>
        <time>2016-08-18T16:30:54Z</time>
      </trkpt>
      <trkpt lat="47.07757" lon="3.29516">
        <ele>253</ele>
        <time>2016-08-18T16:30:55Z</time>
      </trkpt>
      <trkpt lat="47.07757" lon="3.29522">
        <ele>253</ele>
        <time>2016-08-18T16:30:56Z</time>
      </trkpt>
      <trkpt lat="47.07758" lon="3.29526">
        <ele>253</ele>
        <time>2016-08-18T16:30:57Z</time>
      </trkpt>
      <trkpt lat="47.07759" lon="3.29531">
        <ele>253</ele>
        <time>2016-08-18T16:30:58Z</time>
      </trkpt>
      <trkpt lat="47.0776" lon="3.29535">
        <ele>253</ele>
        <time>2016-08-18T16:30:59Z</time>
      </trkpt>
      <trkpt lat="47.07761" lon="3.2954">
        <ele>253</ele>
        <time>2016-08-18T16:31:00Z</time>
      </trkpt>
      <trkpt lat="47.07762" lon="3.29545">
        <ele>253</ele>
        <time>2016-08-18T16:31:01Z</time>
      </trkpt>
      <trkpt lat="47.07763" lon="3.2955">
        <ele>253</ele>
        <time>2016-08-18T16:31:02Z</time>
      </trkpt>
      <trkpt lat="47.07765" lon="3.29556">
        <ele>253</ele>
        <time>2016-08-18T16:31:03Z</time>
      </trkpt>
      <trkpt lat="47.07767" lon="3.29561">
        <ele>253</ele>
        <time>2016-08-18T16:31:04Z</time>
      </trkpt>
      <trkpt lat="47.07768" lon="3.29566">
        <ele>253</ele>
        <time>2016-08-18T16:31:05Z</time>
      </trkpt>
      <trkpt lat="47.0777" lon="3.29571">
        <ele>253</ele>
        <time>2016-08-18T16:31:06Z</time>
      </trkpt>
      <trkpt lat="47.07772" lon="3.29579">
        <ele>253</ele>
        <time>2016-08-18T16:31:07Z</time>
      </trkpt>
      <trkpt lat="47.07774" lon="3.29584">
        <ele>253</ele>
        <time>2016-08-18T16:31:08Z</time>
      </trkpt>
      <trkpt lat="47.07776" lon="3.29589">
        <ele>253</ele>
        <time>2016-08-18T16:31:09Z</time>
      </trkpt>
      <trkpt lat="47.07778" lon="3.29595">
        <ele>253</ele>
        <time>2016-08-18T16:31:10Z</time>
      </trkpt>
      <trkpt lat="47.0778" lon="3.296">
        <ele>253</ele>
        <time>2016-08-18T16:31:12Z</time>
      </trkpt>
      <trkpt lat="47.07782" lon="3.29606">
        <ele>254</ele>
        <time>2016-08-18T16:31:12Z</time>
      </trkpt>
      <trkpt lat="47.07783" lon="3.2961">
        <ele>254</ele>
        <time>2016-08-18T16:31:13Z</time>
      </trkpt>
      <trkpt lat="47.07785" lon="3.29615">
        <ele>254</ele>
        <time>2016-08-18T16:31:14Z</time>
      </trkpt>
      <trkpt lat="47.07787" lon="3.2962">
        <ele>254</ele>
        <time>2016-08-18T16:31:15Z</time>
      </trkpt>
      <trkpt lat="47.07789" lon="3.29626">
        <ele>255</ele>
        <time>2016-08-18T16:31:16Z</time>
      </trkpt>
      <trkpt lat="47.07791" lon="3.29631">
        <ele>255</ele>
        <time>2016-08-18T16:31:17Z</time>
      </trkpt>
      <trkpt lat="47.07793" lon="3.29636">
        <ele>256</ele>
        <time>2016-08-18T16:31:18Z</time>
      </trkpt>
      <trkpt lat="47.07796" lon="3.29642">
        <ele>256</ele>
        <time>2016-08-18T16:31:19Z</time>
      </trkpt>
      <trkpt lat="47.07798" lon="3.29647">
        <ele>256</ele>
        <time>2016-08-18T16:31:20Z</time>
      </trkpt>
      <trkpt lat="47.078" lon="3.29653">
        <ele>256</ele>
        <time>2016-08-18T16:31:22Z</time>
      </trkpt>
      <trkpt lat="47.07802" lon="3.29659">
        <ele>256</ele>
        <time>2016-08-18T16:31:23Z</time>
      </trkpt>
      <trkpt lat="47.07807" lon="3.2967">
        <ele>257</ele>
        <time>2016-08-18T16:31:24Z</time>
      </trkpt>
      <trkpt lat="47.07807" lon="3.29671">
        <ele>257</ele>
        <time>2016-08-18T16:31:25Z</time>
      </trkpt>
      <trkpt lat="47.07809" lon="3.29677">
        <ele>257</ele>
        <time>2016-08-18T16:31:26Z</time>
      </trkpt>
      <trkpt lat="47.07812" lon="3.29683">
        <ele>257</ele>
        <time>2016-08-18T16:31:27Z</time>
      </trkpt>
      <trkpt lat="47.07814" lon="3.2969">
        <ele>257</ele>
        <time>2016-08-18T16:31:28Z</time>
      </trkpt>
      <trkpt lat="47.07816" lon="3.29696">
        <ele>257</ele>
        <time>2016-08-18T16:31:29Z</time>
      </trkpt>
      <trkpt lat="47.07819" lon="3.29702">
        <ele>257</ele>
        <time>2016-08-18T16:31:30Z</time>
      </trkpt>
      <trkpt lat="47.07821" lon="3.29709">
        <ele>257</ele>
        <time>2016-08-18T16:31:31Z</time>
      </trkpt>
      <trkpt lat="47.07823" lon="3.29715">
        <ele>257</ele>
        <time>2016-08-18T16:31:32Z</time>
      </trkpt>
      <trkpt lat="47.07826" lon="3.29722">
        <ele>257</ele>
        <time>2016-08-18T16:31:33Z</time>
      </trkpt>
      <trkpt lat="47.07828" lon="3.29729">
        <ele>257</ele>
        <time>2016-08-18T16:31:34Z</time>
      </trkpt>
      <trkpt lat="47.0783" lon="3.29736">
        <ele>257</ele>
        <time>2016-08-18T16:31:35Z</time>
      </trkpt>
      <trkpt lat="47.07833" lon="3.29743">
        <ele>257</ele>
        <time>2016-08-18T16:31:36Z</time>
      </trkpt>
      <trkpt lat="47.07835" lon="3.2975">
        <ele>257</ele>
        <time>2016-08-18T16:31:37Z</time>
      </trkpt>
      <trkpt lat="47.07837" lon="3.29757">
        <ele>257</ele>
        <time>2016-08-18T16:31:38Z</time>
      </trkpt>
      <trkpt lat="47.0784" lon="3.29764">
        <ele>257</ele>
        <time>2016-08-18T16:31:39Z</time>
      </trkpt>
      <trkpt lat="47.07843" lon="3.29772">
        <ele>257</ele>
        <time>2016-08-18T16:31:40Z</time>
      </trkpt>
      <trkpt lat="47.07847" lon="3.29785">
        <ele>258</ele>
        <time>2016-08-18T16:31:41Z</time>
      </trkpt>
      <trkpt lat="47.07849" lon="3.2979">
        <ele>258</ele>
        <time>2016-08-18T16:31:42Z</time>
      </trkpt>
      <trkpt lat="47.07852" lon="3.29799">
        <ele>259</ele>
        <time>2016-08-18T16:31:43Z</time>
      </trkpt>
      <trkpt lat="47.07856" lon="3.2981">
        <ele>259</ele>
        <time>2016-08-18T16:31:44Z</time>
      </trkpt>
      <trkpt lat="47.07859" lon="3.29819">
        <ele>260</ele>
        <time>2016-08-18T16:31:46Z</time>
      </trkpt>
      <trkpt lat="47.07861" lon="3.29824">
        <ele>260</ele>
        <time>2016-08-18T16:31:46Z</time>
      </trkpt>
      <trkpt lat="47.07864" lon="3.29832">
        <ele>260</ele>
        <time>2016-08-18T16:31:47Z</time>
      </trkpt>
      <trkpt lat="47.07867" lon="3.29839">
        <ele>260</ele>
        <time>2016-08-18T16:31:48Z</time>
      </trkpt>
      <trkpt lat="47.0787" lon="3.29848">
        <ele>260</ele>
        <time>2016-08-18T16:31:49Z</time>
      </trkpt>
      <trkpt lat="47.07873" lon="3.29857">
        <ele>261</ele>
        <time>2016-08-18T16:31:50Z</time>
      </trkpt>
      <trkpt lat="47.07877" lon="3.29867">
        <ele>260</ele>
        <time>2016-08-18T16:31:51Z</time>
      </trkpt>
      <trkpt lat="47.0788" lon="3.29875">
        <ele>260</ele>
        <time>2016-08-18T16:31:52Z</time>
      </trkpt>
      <trkpt lat="47.07883" lon="3.29884">
        <ele>260</ele>
        <time>2016-08-18T16:31:54Z</time>
      </trkpt>
      <trkpt lat="47.07887" lon="3.29892">
        <ele>260</ele>
        <time>2016-08-18T16:31:55Z</time>
      </trkpt>
      <trkpt lat="47.0789" lon="3.29901">
        <ele>260</ele>
        <time>2016-08-18T16:31:56Z</time>
      </trkpt>
      <trkpt lat="47.07893" lon="3.2991">
        <ele>260</ele>
        <time>2016-08-18T16:31:57Z</time>
      </trkpt>
      <trkpt lat="47.07896" lon="3.29917">
        <ele>260</ele>
        <time>2016-08-18T16:31:57Z</time>
      </trkpt>
      <trkpt lat="47.07899" lon="3.29925">
        <ele>261</ele>
        <time>2016-08-18T16:31:58Z</time>
      </trkpt>
      <trkpt lat="47.07902" lon="3.29933">
        <ele>261</ele>
        <time>2016-08-18T16:31:59Z</time>
      </trkpt>
      <trkpt lat="47.07905" lon="3.29941">
        <ele>261</ele>
        <time>2016-08-18T16:32:00Z</time>
      </trkpt>
      <trkpt lat="47.07907" lon="3.29949">
        <ele>261</ele>
        <time>2016-08-18T16:32:01Z</time>
      </trkpt>
      <trkpt lat="47.0791" lon="3.29956">
        <ele>262</ele>
        <time>2016-08-18T16:32:02Z</time>
      </trkpt>
      <trkpt lat="47.07913" lon="3.29964">
        <ele>262</ele>
        <time>2016-08-18T16:32:03Z</time>
      </trkpt>
      <trkpt lat="47.07915" lon="3.29971">
        <ele>262</ele>
        <time>2016-08-18T16:32:04Z</time>
      </trkpt>
      <trkpt lat="47.07917" lon="3.29979">
        <ele>262</ele>
        <time>2016-08-18T16:32:05Z</time>
      </trkpt>
      <trkpt lat="47.07919" lon="3.29986">
        <ele>262</ele>
        <time>2016-08-18T16:32:07Z</time>
      </trkpt>
      <trkpt lat="47.07922" lon="3.29993">
        <ele>263</ele>
        <time>2016-08-18T16:32:08Z</time>
      </trkpt>
      <trkpt lat="47.07924" lon="3.29999">
        <ele>263</ele>
        <time>2016-08-18T16:32:09Z</time>
      </trkpt>
      <trkpt lat="47.07927" lon="3.30005">
        <ele>263</ele>
        <time>2016-08-18T16:32:10Z</time>
      </trkpt>
      <trkpt lat="47.07929" lon="3.30011">
        <ele>263</ele>
        <time>2016-08-18T16:32:11Z</time>
      </trkpt>
      <trkpt lat="47.07931" lon="3.30017">
        <ele>263</ele>
        <time>2016-08-18T16:32:12Z</time>
      </trkpt>
      <trkpt lat="47.07935" lon="3.30027">
        <ele>263</ele>
        <time>2016-08-18T16:32:13Z</time>
      </trkpt>
      <trkpt lat="47.07938" lon="3.30033">
        <ele>263</ele>
        <time>2016-08-18T16:32:14Z</time>
      </trkpt>
      <trkpt lat="47.07938" lon="3.30034">
        <ele>263</ele>
        <time>2016-08-18T16:32:15Z</time>
      </trkpt>
      <trkpt lat="47.07941" lon="3.3004">
        <ele>263</ele>
        <time>2016-08-18T16:32:16Z</time>
      </trkpt>
      <trkpt lat="47.07943" lon="3.30046">
        <ele>263</ele>
        <time>2016-08-18T16:32:17Z</time>
      </trkpt>
      <trkpt lat="47.07945" lon="3.30051">
        <ele>263</ele>
        <time>2016-08-18T16:32:18Z</time>
      </trkpt>
      <trkpt lat="47.07947" lon="3.30056">
        <ele>263</ele>
        <time>2016-08-18T16:32:19Z</time>
      </trkpt>
      <trkpt lat="47.07949" lon="3.30061">
        <ele>264</ele>
        <time>2016-08-18T16:32:20Z</time>
      </trkpt>
      <trkpt lat="47.07951" lon="3.30066">
        <ele>264</ele>
        <time>2016-08-18T16:32:21Z</time>
      </trkpt>
      <trkpt lat="47.07952" lon="3.30071">
        <ele>264</ele>
        <time>2016-08-18T16:32:22Z</time>
      </trkpt>
      <trkpt lat="47.07955" lon="3.30076">
        <ele>264</ele>
        <time>2016-08-18T16:32:23Z</time>
      </trkpt>
      <trkpt lat="47.07958" lon="3.30081">
        <ele>265</ele>
        <time>2016-08-18T16:32:24Z</time>
      </trkpt>
      <trkpt lat="47.0796" lon="3.30086">
        <ele>265</ele>
        <time>2016-08-18T16:32:25Z</time>
      </trkpt>
      <trkpt lat="47.07961" lon="3.3009">
        <ele>265</ele>
        <time>2016-08-18T16:32:26Z</time>
      </trkpt>
      <trkpt lat="47.07964" lon="3.30097">
        <ele>266</ele>
        <time>2016-08-18T16:32:28Z</time>
      </trkpt>
      <trkpt lat="47.07965" lon="3.30099">
        <ele>266</ele>
        <time>2016-08-18T16:32:28Z</time>
      </trkpt>
      <trkpt lat="47.07967" lon="3.30104">
        <ele>266</ele>
        <time>2016-08-18T16:32:29Z</time>
      </trkpt>
      <trkpt lat="47.07968" lon="3.30109">
        <ele>266</ele>
        <time>2016-08-18T16:32:30Z</time>
      </trkpt>
      <trkpt lat="47.0797" lon="3.30114">
        <ele>266</ele>
        <time>2016-08-18T16:32:31Z</time>
      </trkpt>
      <trkpt lat="47.07971" lon="3.30117">
        <ele>266</ele>
        <time>2016-08-18T16:32:32Z</time>
      </trkpt>
      <trkpt lat="47.07973" lon="3.30122">
        <ele>267</ele>
        <time>2016-08-18T16:32:33Z</time>
      </trkpt>
      <trkpt lat="47.07975" lon="3.30127">
        <ele>267</ele>
        <time>2016-08-18T16:32:34Z</time>
      </trkpt>
      <trkpt lat="47.07977" lon="3.30131">
        <ele>267</ele>
        <time>2016-08-18T16:32:35Z</time>
      </trkpt>
      <trkpt lat="47.07978" lon="3.30136">
        <ele>267</ele>
        <time>2016-08-18T16:32:36Z</time>
      </trkpt>
      <trkpt lat="47.0798" lon="3.3014">
        <ele>268</ele>
        <time>2016-08-18T16:32:37Z</time>
      </trkpt>
      <trkpt lat="47.07982" lon="3.30145">
        <ele>268</ele>
        <time>2016-08-18T16:32:38Z</time>
      </trkpt>
      <trkpt lat="47.07983" lon="3.30149">
        <ele>268</ele>
        <time>2016-08-18T16:32:39Z</time>
      </trkpt>
      <trkpt lat="47.07985" lon="3.30153">
        <ele>268</ele>
        <time>2016-08-18T16:32:40Z</time>
      </trkpt>
      <trkpt lat="47.07986" lon="3.30158">
        <ele>268</ele>
        <time>2016-08-18T16:32:41Z</time>
      </trkpt>
      <trkpt lat="47.07988" lon="3.30162">
        <ele>268</ele>
        <time>2016-08-18T16:32:42Z</time>
      </trkpt>
      <trkpt lat="47.07989" lon="3.30166">
        <ele>268</ele>
        <time>2016-08-18T16:32:43Z</time>
      </trkpt>
      <trkpt lat="47.07991" lon="3.3017">
        <ele>269</ele>
        <time>2016-08-18T16:32:44Z</time>
      </trkpt>
      <trkpt lat="47.07992" lon="3.30174">
        <ele>269</ele>
        <time>2016-08-18T16:32:45Z</time>
      </trkpt>
      <trkpt lat="47.07993" lon="3.30178">
        <ele>270</ele>
        <time>2016-08-18T16:32:46Z</time>
      </trkpt>
      <trkpt lat="47.07995" lon="3.30183">
        <ele>270</ele>
        <time>2016-08-18T16:32:47Z</time>
      </trkpt>
      <trkpt lat="47.07996" lon="3.30187">
        <ele>270</ele>
        <time>2016-08-18T16:32:48Z</time>
      </trkpt>
      <trkpt lat="47.07998" lon="3.30192">
        <ele>270</ele>
        <time>2016-08-18T16:32:49Z</time>
      </trkpt>
      <trkpt lat="47.08" lon="3.30197">
        <ele>270</ele>
        <time>2016-08-18T16:32:51Z</time>
      </trkpt>
      <trkpt lat="47.08001" lon="3.30201">
        <ele>270</ele>
        <time>2016-08-18T16:32:52Z</time>
      </trkpt>
      <trkpt lat="47.08003" lon="3.30206">
        <ele>271</ele>
        <time>2016-08-18T16:32:53Z</time>
      </trkpt>
      <trkpt lat="47.08005" lon="3.3021">
        <ele>271</ele>
        <time>2016-08-18T16:32:54Z</time>
      </trkpt>
      <trkpt lat="47.08007" lon="3.30215">
        <ele>271</ele>
        <time>2016-08-18T16:32:55Z</time>
      </trkpt>
      <trkpt lat="47.0801" lon="3.3022">
        <ele>271</ele>
        <time>2016-08-18T16:32:56Z</time>
      </trkpt>
      <trkpt lat="47.08012" lon="3.30224">
        <ele>271</ele>
        <time>2016-08-18T16:32:57Z</time>
      </trkpt>
      <trkpt lat="47.08014" lon="3.30229">
        <ele>271</ele>
        <time>2016-08-18T16:32:58Z</time>
      </trkpt>
      <trkpt lat="47.08017" lon="3.30234">
        <ele>271</ele>
        <time>2016-08-18T16:32:59Z</time>
      </trkpt>
      <trkpt lat="47.08019" lon="3.30239">
        <ele>271</ele>
        <time>2016-08-18T16:33:00Z</time>
      </trkpt>
      <trkpt lat="47.08021" lon="3.30244">
        <ele>271</ele>
        <time>2016-08-18T16:33:01Z</time>
      </trkpt>
      <trkpt lat="47.08024" lon="3.30249">
        <ele>271</ele>
        <time>2016-08-18T16:33:02Z</time>
      </trkpt>
      <trkpt lat="47.08027" lon="3.30255">
        <ele>271</ele>
        <time>2016-08-18T16:33:03Z</time>
      </trkpt>
      <trkpt lat="47.0803" lon="3.30261">
        <ele>271</ele>
        <time>2016-08-18T16:33:04Z</time>
      </trkpt>
      <trkpt lat="47.08032" lon="3.30266">
        <ele>271</ele>
        <time>2016-08-18T16:33:05Z</time>
      </trkpt>
      <trkpt lat="47.08036" lon="3.30276">
        <ele>270</ele>
        <time>2016-08-18T16:33:06Z</time>
      </trkpt>
      <trkpt lat="47.0804" lon="3.30281">
        <ele>270</ele>
        <time>2016-08-18T16:33:07Z</time>
      </trkpt>
      <trkpt lat="47.08041" lon="3.30284">
        <ele>270</ele>
        <time>2016-08-18T16:33:08Z</time>
      </trkpt>
      <trkpt lat="47.08045" lon="3.3029">
        <ele>270</ele>
        <time>2016-08-18T16:33:09Z</time>
      </trkpt>
      <trkpt lat="47.08048" lon="3.30297">
        <ele>269</ele>
        <time>2016-08-18T16:33:10Z</time>
      </trkpt>
      <trkpt lat="47.08051" lon="3.30303">
        <ele>269</ele>
        <time>2016-08-18T16:33:11Z</time>
      </trkpt>
      <trkpt lat="47.08055" lon="3.3031">
        <ele>269</ele>
        <time>2016-08-18T16:33:12Z</time>
      </trkpt>
      <trkpt lat="47.08059" lon="3.30317">
        <ele>269</ele>
        <time>2016-08-18T16:33:13Z</time>
      </trkpt>
      <trkpt lat="47.08062" lon="3.30324">
        <ele>270</ele>
        <time>2016-08-18T16:33:14Z</time>
      </trkpt>
      <trkpt lat="47.08066" lon="3.30331">
        <ele>270</ele>
        <time>2016-08-18T16:33:15Z</time>
      </trkpt>
      <trkpt lat="47.08069" lon="3.30338">
        <ele>270</ele>
        <time>2016-08-18T16:33:16Z</time>
      </trkpt>
      <trkpt lat="47.08073" lon="3.30345">
        <ele>270</ele>
        <time>2016-08-18T16:33:17Z</time>
      </trkpt>
      <trkpt lat="47.08077" lon="3.30352">
        <ele>270</ele>
        <time>2016-08-18T16:33:18Z</time>
      </trkpt>
      <trkpt lat="47.08081" lon="3.30359">
        <ele>270</ele>
        <time>2016-08-18T16:33:19Z</time>
      </trkpt>
      <trkpt lat="47.08085" lon="3.30366">
        <ele>270</ele>
        <time>2016-08-18T16:33:20Z</time>
      </trkpt>
      <trkpt lat="47.0809" lon="3.30373">
        <ele>270</ele>
        <time>2016-08-18T16:33:21Z</time>
      </trkpt>
      <trkpt lat="47.08094" lon="3.30382">
        <ele>271</ele>
        <time>2016-08-18T16:33:22Z</time>
      </trkpt>
      <trkpt lat="47.081" lon="3.3039">
        <ele>271</ele>
        <time>2016-08-18T16:33:23Z</time>
      </trkpt>
      <trkpt lat="47.08103" lon="3.30396">
        <ele>271</ele>
        <time>2016-08-18T16:33:24Z</time>
      </trkpt>
      <trkpt lat="47.08108" lon="3.30405">
        <ele>271</ele>
        <time>2016-08-18T16:33:25Z</time>
      </trkpt>
      <trkpt lat="47.08113" lon="3.30415">
        <ele>271</ele>
        <time>2016-08-18T16:33:26Z</time>
      </trkpt>
      <trkpt lat="47.08118" lon="3.30423">
        <ele>271</ele>
        <time>2016-08-18T16:33:28Z</time>
      </trkpt>
      <trkpt lat="47.08122" lon="3.30432">
        <ele>270</ele>
        <time>2016-08-18T16:33:29Z</time>
      </trkpt>
      <trkpt lat="47.08127" lon="3.30442">
        <ele>270</ele>
        <time>2016-08-18T16:33:30Z</time>
      </trkpt>
      <trkpt lat="47.08131" lon="3.30449">
        <ele>269</ele>
        <time>2016-08-18T16:33:30Z</time>
      </trkpt>
      <trkpt lat="47.08136" lon="3.30458">
        <ele>269</ele>
        <time>2016-08-18T16:33:31Z</time>
      </trkpt>
      <trkpt lat="47.08142" lon="3.30469">
        <ele>269</ele>
        <time>2016-08-18T16:33:32Z</time>
      </trkpt>
      <trkpt lat="47.08148" lon="3.30479">
        <ele>268</ele>
        <time>2016-08-18T16:33:33Z</time>
      </trkpt>
      <trkpt lat="47.08154" lon="3.30489">
        <ele>268</ele>
        <time>2016-08-18T16:33:35Z</time>
      </trkpt>
      <trkpt lat="47.08161" lon="3.305">
        <ele>269</ele>
        <time>2016-08-18T16:33:36Z</time>
      </trkpt>
      <trkpt lat="47.08167" lon="3.3051">
        <ele>268</ele>
        <time>2016-08-18T16:33:37Z</time>
      </trkpt>
      <trkpt lat="47.08172" lon="3.30521">
        <ele>268</ele>
        <time>2016-08-18T16:33:38Z</time>
      </trkpt>
      <trkpt lat="47.08178" lon="3.30533">
        <ele>268</ele>
        <time>2016-08-18T16:33:39Z</time>
      </trkpt>
      <trkpt lat="47.08183" lon="3.30544">
        <ele>268</ele>
        <time>2016-08-18T16:33:40Z</time>
      </trkpt>
      <trkpt lat="47.08187" lon="3.30556">
        <ele>268</ele>
        <time>2016-08-18T16:33:41Z</time>
      </trkpt>
      <trkpt lat="47.08191" lon="3.30567">
        <ele>268</ele>
        <time>2016-08-18T16:33:42Z</time>
      </trkpt>
      <trkpt lat="47.08198" lon="3.30587">
        <ele>268</ele>
        <time>2016-08-18T16:33:44Z</time>
      </trkpt>
      <trkpt lat="47.08198" lon="3.30589">
        <ele>268</ele>
        <time>2016-08-18T16:33:44Z</time>
      </trkpt>
      <trkpt lat="47.08201" lon="3.30599">
        <ele>268</ele>
        <time>2016-08-18T16:33:45Z</time>
      </trkpt>
      <trkpt lat="47.08203" lon="3.30608">
        <ele>268</ele>
        <time>2016-08-18T16:33:46Z</time>
      </trkpt>
      <trkpt lat="47.08206" lon="3.30618">
        <ele>268</ele>
        <time>2016-08-18T16:33:47Z</time>
      </trkpt>
      <trkpt lat="47.08208" lon="3.30627">
        <ele>268</ele>
        <time>2016-08-18T16:33:48Z</time>
      </trkpt>
      <trkpt lat="47.0821" lon="3.30636">
        <ele>268</ele>
        <time>2016-08-18T16:33:49Z</time>
      </trkpt>
      <trkpt lat="47.08213" lon="3.30652">
        <ele>268</ele>
        <time>2016-08-18T16:33:50Z</time>
      </trkpt>
      <trkpt lat="47.08214" lon="3.30656">
        <ele>268</ele>
        <time>2016-08-18T16:33:51Z</time>
      </trkpt>
      <trkpt lat="47.08216" lon="3.30665">
        <ele>269</ele>
        <time>2016-08-18T16:33:52Z</time>
      </trkpt>
      <trkpt lat="47.08218" lon="3.30674">
        <ele>269</ele>
        <time>2016-08-18T16:33:53Z</time>
      </trkpt>
      <trkpt lat="47.0822" lon="3.30681">
        <ele>269</ele>
        <time>2016-08-18T16:33:54Z</time>
      </trkpt>
      <trkpt lat="47.08227" lon="3.30691">
        <ele>270</ele>
        <time>2016-08-18T16:33:56Z</time>
      </trkpt>
      <trkpt lat="47.08229" lon="3.30692">
        <ele>270</ele>
        <time>2016-08-18T16:33:56Z</time>
      </trkpt>
      <trkpt lat="47.08234" lon="3.30695">
        <ele>270</ele>
        <time>2016-08-18T16:33:57Z</time>
      </trkpt>
      <trkpt lat="47.08241" lon="3.30694">
        <ele>270</ele>
        <time>2016-08-18T16:33:58Z</time>
      </trkpt>
      <trkpt lat="47.08247" lon="3.30694">
        <ele>270</ele>
        <time>2016-08-18T16:33:59Z</time>
      </trkpt>
      <trkpt lat="47.0825" lon="3.30693">
        <ele>270</ele>
        <time>2016-08-18T16:34:00Z</time>
      </trkpt>
      <trkpt lat="47.08257" lon="3.30692">
        <ele>271</ele>
        <time>2016-08-18T16:34:01Z</time>
      </trkpt>
      <trkpt lat="47.08261" lon="3.3069">
        <ele>272</ele>
        <time>2016-08-18T16:34:02Z</time>
      </trkpt>
      <trkpt lat="47.08265" lon="3.30689">
        <ele>273</ele>
        <time>2016-08-18T16:34:03Z</time>
      </trkpt>
      <trkpt lat="47.08267" lon="3.30689">
        <ele>274</ele>
        <time>2016-08-18T16:34:04Z</time>
      </trkpt>
      <trkpt lat="47.08273" lon="3.30688">
        <ele>275</ele>
        <time>2016-08-18T16:34:06Z</time>
      </trkpt>
      <trkpt lat="47.08276" lon="3.30688">
        <ele>275</ele>
        <time>2016-08-18T16:34:06Z</time>
      </trkpt>
      <trkpt lat="47.0828" lon="3.30688">
        <ele>275</ele>
        <time>2016-08-18T16:34:07Z</time>
      </trkpt>
      <trkpt lat="47.08285" lon="3.30688">
        <ele>275</ele>
        <time>2016-08-18T16:34:08Z</time>
      </trkpt>
      <trkpt lat="47.0829" lon="3.30688">
        <ele>275</ele>
        <time>2016-08-18T16:34:10Z</time>
      </trkpt>
      <trkpt lat="47.08292" lon="3.30688">
        <ele>275</ele>
        <time>2016-08-18T16:34:10Z</time>
      </trkpt>
      <trkpt lat="47.08296" lon="3.3069">
        <ele>276</ele>
        <time>2016-08-18T16:34:11Z</time>
      </trkpt>
      <trkpt lat="47.08299" lon="3.30692">
        <ele>277</ele>
        <time>2016-08-18T16:34:12Z</time>
      </trkpt>
      <trkpt lat="47.08302" lon="3.30694">
        <ele>278</ele>
        <time>2016-08-18T16:34:14Z</time>
      </trkpt>
      <trkpt lat="47.08305" lon="3.30696">
        <ele>278</ele>
        <time>2016-08-18T16:34:14Z</time>
      </trkpt>
      <trkpt lat="47.08308" lon="3.30699">
        <ele>279</ele>
        <time>2016-08-18T16:34:16Z</time>
      </trkpt>
      <trkpt lat="47.08311" lon="3.30702">
        <ele>280</ele>
        <time>2016-08-18T16:34:17Z</time>
      </trkpt>
      <trkpt lat="47.08313" lon="3.30705">
        <ele>280</ele>
        <time>2016-08-18T16:34:17Z</time>
      </trkpt>
      <trkpt lat="47.08315" lon="3.30708">
        <ele>281</ele>
        <time>2016-08-18T16:34:18Z</time>
      </trkpt>
      <trkpt lat="47.08318" lon="3.30712">
        <ele>281</ele>
        <time>2016-08-18T16:34:19Z</time>
      </trkpt>
      <trkpt lat="47.0832" lon="3.30715">
        <ele>282</ele>
        <time>2016-08-18T16:34:20Z</time>
      </trkpt>
      <trkpt lat="47.08323" lon="3.30719">
        <ele>282</ele>
        <time>2016-08-18T16:34:22Z</time>
      </trkpt>
      <trkpt lat="47.08325" lon="3.30723">
        <ele>283</ele>
        <time>2016-08-18T16:34:23Z</time>
      </trkpt>
      <trkpt lat="47.08327" lon="3.30726">
        <ele>283</ele>
        <time>2016-08-18T16:34:24Z</time>
      </trkpt>
      <trkpt lat="47.08329" lon="3.3073">
        <ele>283</ele>
        <time>2016-08-18T16:34:25Z</time>
      </trkpt>
      <trkpt lat="47.08332" lon="3.30735">
        <ele>282</ele>
        <time>2016-08-18T16:34:26Z</time>
      </trkpt>
      <trkpt lat="47.08334" lon="3.30738">
        <ele>282</ele>
        <time>2016-08-18T16:34:27Z</time>
      </trkpt>
      <trkpt lat="47.08336" lon="3.30742">
        <ele>282</ele>
        <time>2016-08-18T16:34:28Z</time>
      </trkpt>
      <trkpt lat="47.0834" lon="3.30749">
        <ele>282</ele>
        <time>2016-08-18T16:34:29Z</time>
      </trkpt>
      <trkpt lat="47.08341" lon="3.3075">
        <ele>282</ele>
        <time>2016-08-18T16:34:30Z</time>
      </trkpt>
      <trkpt lat="47.08345" lon="3.30757">
        <ele>282</ele>
        <time>2016-08-18T16:34:32Z</time>
      </trkpt>
      <trkpt lat="47.08345" lon="3.30757">
        <ele>282</ele>
        <time>2016-08-18T16:34:32Z</time>
      </trkpt>
      <trkpt lat="47.08347" lon="3.30761">
        <ele>283</ele>
        <time>2016-08-18T16:34:33Z</time>
      </trkpt>
      <trkpt lat="47.08349" lon="3.30765">
        <ele>283</ele>
        <time>2016-08-18T16:34:34Z</time>
      </trkpt>
      <trkpt lat="47.08351" lon="3.30768">
        <ele>283</ele>
        <time>2016-08-18T16:34:35Z</time>
      </trkpt>
      <trkpt lat="47.08353" lon="3.30772">
        <ele>283</ele>
        <time>2016-08-18T16:34:36Z</time>
      </trkpt>
      <trkpt lat="47.08357" lon="3.30778">
        <ele>283</ele>
        <time>2016-08-18T16:34:37Z</time>
      </trkpt>
      <trkpt lat="47.08358" lon="3.30779">
        <ele>283</ele>
        <time>2016-08-18T16:34:38Z</time>
      </trkpt>
      <trkpt lat="47.0836" lon="3.30783">
        <ele>283</ele>
        <time>2016-08-18T16:34:39Z</time>
      </trkpt>
      <trkpt lat="47.08363" lon="3.30789">
        <ele>283</ele>
        <time>2016-08-18T16:34:41Z</time>
      </trkpt>
      <trkpt lat="47.08364" lon="3.3079">
        <ele>283</ele>
        <time>2016-08-18T16:34:41Z</time>
      </trkpt>
      <trkpt lat="47.08366" lon="3.30794">
        <ele>283</ele>
        <time>2016-08-18T16:34:42Z</time>
      </trkpt>
      <trkpt lat="47.08368" lon="3.30798">
        <ele>283</ele>
        <time>2016-08-18T16:34:43Z</time>
      </trkpt>
      <trkpt lat="47.0837" lon="3.30801">
        <ele>283</ele>
        <time>2016-08-18T16:34:44Z</time>
      </trkpt>
      <trkpt lat="47.08372" lon="3.30804">
        <ele>283</ele>
        <time>2016-08-18T16:34:45Z</time>
      </trkpt>
      <trkpt lat="47.08374" lon="3.30807">
        <ele>283</ele>
        <time>2016-08-18T16:34:46Z</time>
      </trkpt>
      <trkpt lat="47.08376" lon="3.30812">
        <ele>283</ele>
        <time>2016-08-18T16:34:47Z</time>
      </trkpt>
      <trkpt lat="47.08378" lon="3.30815">
        <ele>283</ele>
        <time>2016-08-18T16:34:48Z</time>
      </trkpt>
      <trkpt lat="47.0838" lon="3.30819">
        <ele>283</ele>
        <time>2016-08-18T16:34:49Z</time>
      </trkpt>
      <trkpt lat="47.08382" lon="3.30822">
        <ele>283</ele>
        <time>2016-08-18T16:34:50Z</time>
      </trkpt>
      <trkpt lat="47.08385" lon="3.30825">
        <ele>283</ele>
        <time>2016-08-18T16:34:51Z</time>
      </trkpt>
      <trkpt lat="47.08387" lon="3.30828">
        <ele>283</ele>
        <time>2016-08-18T16:34:52Z</time>
      </trkpt>
      <trkpt lat="47.08389" lon="3.30831">
        <ele>283</ele>
        <time>2016-08-18T16:34:53Z</time>
      </trkpt>
      <trkpt lat="47.08392" lon="3.30836">
        <ele>283</ele>
        <time>2016-08-18T16:34:54Z</time>
      </trkpt>
      <trkpt lat="47.08393" lon="3.30839">
        <ele>283</ele>
        <time>2016-08-18T16:34:55Z</time>
      </trkpt>
      <trkpt lat="47.08395" lon="3.30842">
        <ele>283</ele>
        <time>2016-08-18T16:34:56Z</time>
      </trkpt>
      <trkpt lat="47.08398" lon="3.30846">
        <ele>284</ele>
        <time>2016-08-18T16:34:58Z</time>
      </trkpt>
      <trkpt lat="47.084" lon="3.30849">
        <ele>284</ele>
        <time>2016-08-18T16:34:59Z</time>
      </trkpt>
      <trkpt lat="47.08402" lon="3.30852">
        <ele>284</ele>
        <time>2016-08-18T16:34:59Z</time>
      </trkpt>
      <trkpt lat="47.08404" lon="3.30856">
        <ele>284</ele>
        <time>2016-08-18T16:35:00Z</time>
      </trkpt>
      <trkpt lat="47.08406" lon="3.30859">
        <ele>284</ele>
        <time>2016-08-18T16:35:01Z</time>
      </trkpt>
      <trkpt lat="47.08408" lon="3.30863">
        <ele>284</ele>
        <time>2016-08-18T16:35:02Z</time>
      </trkpt>
      <trkpt lat="47.0841" lon="3.30867">
        <ele>284</ele>
        <time>2016-08-18T16:35:03Z</time>
      </trkpt>
      <trkpt lat="47.08412" lon="3.30871">
        <ele>284</ele>
        <time>2016-08-18T16:35:04Z</time>
      </trkpt>
      <trkpt lat="47.08415" lon="3.30875">
        <ele>285</ele>
        <time>2016-08-18T16:35:05Z</time>
      </trkpt>
      <trkpt lat="47.08417" lon="3.30878">
        <ele>285</ele>
        <time>2016-08-18T16:35:06Z</time>
      </trkpt>
      <trkpt lat="47.08419" lon="3.30882">
        <ele>286</ele>
        <time>2016-08-18T16:35:08Z</time>
      </trkpt>
      <trkpt lat="47.08421" lon="3.30886">
        <ele>287</ele>
        <time>2016-08-18T16:35:09Z</time>
      </trkpt>
      <trkpt lat="47.08423" lon="3.3089">
        <ele>288</ele>
        <time>2016-08-18T16:35:10Z</time>
      </trkpt>
      <trkpt lat="47.08424" lon="3.30894">
        <ele>288</ele>
        <time>2016-08-18T16:35:11Z</time>
      </trkpt>
      <trkpt lat="47.08426" lon="3.30898">
        <ele>288</ele>
        <time>2016-08-18T16:35:12Z</time>
      </trkpt>
      <trkpt lat="47.08426" lon="3.30903">
        <ele>288</ele>
        <time>2016-08-18T16:35:13Z</time>
      </trkpt>
      <trkpt lat="47.08428" lon="3.30907">
        <ele>288</ele>
        <time>2016-08-18T16:35:14Z</time>
      </trkpt>
      <trkpt lat="47.08428" lon="3.30912">
        <ele>289</ele>
        <time>2016-08-18T16:35:15Z</time>
      </trkpt>
      <trkpt lat="47.08429" lon="3.30916">
        <ele>289</ele>
        <time>2016-08-18T16:35:16Z</time>
      </trkpt>
      <trkpt lat="47.0843" lon="3.30923">
        <ele>288</ele>
        <time>2016-08-18T16:35:17Z</time>
      </trkpt>
      <trkpt lat="47.0843" lon="3.30924">
        <ele>288</ele>
        <time>2016-08-18T16:35:18Z</time>
      </trkpt>
      <trkpt lat="47.0843" lon="3.30929">
        <ele>289</ele>
        <time>2016-08-18T16:35:19Z</time>
      </trkpt>
      <trkpt lat="47.0843" lon="3.30933">
        <ele>289</ele>
        <time>2016-08-18T16:35:20Z</time>
      </trkpt>
      <trkpt lat="47.0843" lon="3.30938">
        <ele>290</ele>
        <time>2016-08-18T16:35:21Z</time>
      </trkpt>
      <trkpt lat="47.08431" lon="3.30943">
        <ele>290</ele>
        <time>2016-08-18T16:35:22Z</time>
      </trkpt>
      <trkpt lat="47.08431" lon="3.30947">
        <ele>291</ele>
        <time>2016-08-18T16:35:23Z</time>
      </trkpt>
      <trkpt lat="47.0843" lon="3.30955">
        <ele>293</ele>
        <time>2016-08-18T16:35:24Z</time>
      </trkpt>
      <trkpt lat="47.0843" lon="3.30957">
        <ele>293</ele>
        <time>2016-08-18T16:35:25Z</time>
      </trkpt>
      <trkpt lat="47.08429" lon="3.30962">
        <ele>293</ele>
        <time>2016-08-18T16:35:26Z</time>
      </trkpt>
      <trkpt lat="47.08428" lon="3.30966">
        <ele>294</ele>
        <time>2016-08-18T16:35:27Z</time>
      </trkpt>
      <trkpt lat="47.08426" lon="3.30975">
        <ele>294</ele>
        <time>2016-08-18T16:35:29Z</time>
      </trkpt>
      <trkpt lat="47.08425" lon="3.30979">
        <ele>295</ele>
        <time>2016-08-18T16:35:30Z</time>
      </trkpt>
      <trkpt lat="47.08424" lon="3.30981">
        <ele>295</ele>
        <time>2016-08-18T16:35:30Z</time>
      </trkpt>
      <trkpt lat="47.08422" lon="3.30987">
        <ele>295</ele>
        <time>2016-08-18T16:35:31Z</time>
      </trkpt>
      <trkpt lat="47.0842" lon="3.30992">
        <ele>296</ele>
        <time>2016-08-18T16:35:32Z</time>
      </trkpt>
      <trkpt lat="47.08419" lon="3.30995">
        <ele>296</ele>
        <time>2016-08-18T16:35:33Z</time>
      </trkpt>
      <trkpt lat="47.08417" lon="3.30999">
        <ele>297</ele>
        <time>2016-08-18T16:35:34Z</time>
      </trkpt>
      <trkpt lat="47.08415" lon="3.31003">
        <ele>297</ele>
        <time>2016-08-18T16:35:35Z</time>
      </trkpt>
      <trkpt lat="47.08413" lon="3.31007">
        <ele>297</ele>
        <time>2016-08-18T16:35:36Z</time>
      </trkpt>
      <trkpt lat="47.08411" lon="3.31011">
        <ele>297</ele>
        <time>2016-08-18T16:35:37Z</time>
      </trkpt>
      <trkpt lat="47.08409" lon="3.31014">
        <ele>297</ele>
        <time>2016-08-18T16:35:38Z</time>
      </trkpt>
      <trkpt lat="47.08407" lon="3.31019">
        <ele>297</ele>
        <time>2016-08-18T16:35:39Z</time>
      </trkpt>
      <trkpt lat="47.08402" lon="3.31023">
        <ele>298</ele>
        <time>2016-08-18T16:35:40Z</time>
      </trkpt>
      <trkpt lat="47.084" lon="3.31026">
        <ele>298</ele>
        <time>2016-08-18T16:35:41Z</time>
      </trkpt>
      <trkpt lat="47.08398" lon="3.31031">
        <ele>298</ele>
        <time>2016-08-18T16:35:42Z</time>
      </trkpt>
      <trkpt lat="47.08395" lon="3.31034">
        <ele>298</ele>
        <time>2016-08-18T16:35:43Z</time>
      </trkpt>
      <trkpt lat="47.08392" lon="3.31037">
        <ele>299</ele>
        <time>2016-08-18T16:35:44Z</time>
      </trkpt>
      <trkpt lat="47.08389" lon="3.3104">
        <ele>299</ele>
        <time>2016-08-18T16:35:46Z</time>
      </trkpt>
      <trkpt lat="47.08387" lon="3.31042">
        <ele>300</ele>
        <time>2016-08-18T16:35:46Z</time>
      </trkpt>
      <trkpt lat="47.08384" lon="3.31045">
        <ele>300</ele>
        <time>2016-08-18T16:35:48Z</time>
      </trkpt>
      <trkpt lat="47.08381" lon="3.31048">
        <ele>300</ele>
        <time>2016-08-18T16:35:49Z</time>
      </trkpt>
      <trkpt lat="47.08379" lon="3.31049">
        <ele>300</ele>
        <time>2016-08-18T16:35:49Z</time>
      </trkpt>
      <trkpt lat="47.08376" lon="3.31052">
        <ele>300</ele>
        <time>2016-08-18T16:35:51Z</time>
      </trkpt>
      <trkpt lat="47.08373" lon="3.31054">
        <ele>300</ele>
        <time>2016-08-18T16:35:51Z</time>
      </trkpt>
      <trkpt lat="47.0837" lon="3.31057">
        <ele>300</ele>
        <time>2016-08-18T16:35:52Z</time>
      </trkpt>
      <trkpt lat="47.08367" lon="3.3106">
        <ele>300</ele>
        <time>2016-08-18T16:35:53Z</time>
      </trkpt>
      <trkpt lat="47.08364" lon="3.31063">
        <ele>300</ele>
        <time>2016-08-18T16:35:54Z</time>
      </trkpt>
      <trkpt lat="47.08362" lon="3.31065">
        <ele>300</ele>
        <time>2016-08-18T16:35:55Z</time>
      </trkpt>
      <trkpt lat="47.08359" lon="3.31067">
        <ele>300</ele>
        <time>2016-08-18T16:35:56Z</time>
      </trkpt>
      <trkpt lat="47.08357" lon="3.31069">
        <ele>300</ele>
        <time>2016-08-18T16:35:57Z</time>
      </trkpt>
      <trkpt lat="47.08354" lon="3.31071">
        <ele>300</ele>
        <time>2016-08-18T16:35:58Z</time>
      </trkpt>
      <trkpt lat="47.08351" lon="3.31074">
        <ele>301</ele>
        <time>2016-08-18T16:36:00Z</time>
      </trkpt>
      <trkpt lat="47.08348" lon="3.31077">
        <ele>302</ele>
        <time>2016-08-18T16:36:01Z</time>
      </trkpt>
      <trkpt lat="47.08345" lon="3.31079">
        <ele>302</ele>
        <time>2016-08-18T16:36:02Z</time>
      </trkpt>
      <trkpt lat="47.08342" lon="3.31082">
        <ele>302</ele>
        <time>2016-08-18T16:36:03Z</time>
      </trkpt>
      <trkpt lat="47.08339" lon="3.31085">
        <ele>302</ele>
        <time>2016-08-18T16:36:04Z</time>
      </trkpt>
      <trkpt lat="47.08337" lon="3.31087">
        <ele>303</ele>
        <time>2016-08-18T16:36:05Z</time>
      </trkpt>
      <trkpt lat="47.08334" lon="3.3109">
        <ele>303</ele>
        <time>2016-08-18T16:36:06Z</time>
      </trkpt>
      <trkpt lat="47.08332" lon="3.31092">
        <ele>303</ele>
        <time>2016-08-18T16:36:07Z</time>
      </trkpt>
      <trkpt lat="47.08329" lon="3.31095">
        <ele>304</ele>
        <time>2016-08-18T16:36:08Z</time>
      </trkpt>
      <trkpt lat="47.08326" lon="3.31097">
        <ele>304</ele>
        <time>2016-08-18T16:36:09Z</time>
      </trkpt>
      <trkpt lat="47.08323" lon="3.311">
        <ele>304</ele>
        <time>2016-08-18T16:36:10Z</time>
      </trkpt>
      <trkpt lat="47.0832" lon="3.31103">
        <ele>304</ele>
        <time>2016-08-18T16:36:11Z</time>
      </trkpt>
      <trkpt lat="47.08317" lon="3.31105">
        <ele>304</ele>
        <time>2016-08-18T16:36:12Z</time>
      </trkpt>
      <trkpt lat="47.08315" lon="3.31108">
        <ele>304</ele>
        <time>2016-08-18T16:36:13Z</time>
      </trkpt>
      <trkpt lat="47.08312" lon="3.31111">
        <ele>305</ele>
        <time>2016-08-18T16:36:14Z</time>
      </trkpt>
      <trkpt lat="47.08309" lon="3.31114">
        <ele>305</ele>
        <time>2016-08-18T16:36:15Z</time>
      </trkpt>
      <trkpt lat="47.08307" lon="3.31117">
        <ele>306</ele>
        <time>2016-08-18T16:36:16Z</time>
      </trkpt>
      <trkpt lat="47.08304" lon="3.3112">
        <ele>306</ele>
        <time>2016-08-18T16:36:17Z</time>
      </trkpt>
      <trkpt lat="47.08301" lon="3.31122">
        <ele>306</ele>
        <time>2016-08-18T16:36:18Z</time>
      </trkpt>
      <trkpt lat="47.08298" lon="3.31125">
        <ele>306</ele>
        <time>2016-08-18T16:36:19Z</time>
      </trkpt>
      <trkpt lat="47.08294" lon="3.31128">
        <ele>307</ele>
        <time>2016-08-18T16:36:20Z</time>
      </trkpt>
      <trkpt lat="47.08292" lon="3.3113">
        <ele>307</ele>
        <time>2016-08-18T16:36:21Z</time>
      </trkpt>
      <trkpt lat="47.0829" lon="3.31132">
        <ele>307</ele>
        <time>2016-08-18T16:36:22Z</time>
      </trkpt>
      <trkpt lat="47.08286" lon="3.31135">
        <ele>308</ele>
        <time>2016-08-18T16:36:24Z</time>
      </trkpt>
      <trkpt lat="47.08285" lon="3.31137">
        <ele>308</ele>
        <time>2016-08-18T16:36:24Z</time>
      </trkpt>
      <trkpt lat="47.08282" lon="3.31139">
        <ele>309</ele>
        <time>2016-08-18T16:36:25Z</time>
      </trkpt>
      <trkpt lat="47.0828" lon="3.31142">
        <ele>309</ele>
        <time>2016-08-18T16:36:26Z</time>
      </trkpt>
      <trkpt lat="47.08277" lon="3.31145">
        <ele>309</ele>
        <time>2016-08-18T16:36:27Z</time>
      </trkpt>
      <trkpt lat="47.08274" lon="3.31149">
        <ele>310</ele>
        <time>2016-08-18T16:36:28Z</time>
      </trkpt>
      <trkpt lat="47.08271" lon="3.31152">
        <ele>310</ele>
        <time>2016-08-18T16:36:29Z</time>
      </trkpt>
      <trkpt lat="47.08268" lon="3.31154">
        <ele>310</ele>
        <time>2016-08-18T16:36:30Z</time>
      </trkpt>
      <trkpt lat="47.08265" lon="3.31157">
        <ele>309</ele>
        <time>2016-08-18T16:36:31Z</time>
      </trkpt>
      <trkpt lat="47.08263" lon="3.3116">
        <ele>310</ele>
        <time>2016-08-18T16:36:32Z</time>
      </trkpt>
      <trkpt lat="47.08261" lon="3.31163">
        <ele>307</ele>
        <time>2016-08-18T16:36:34Z</time>
      </trkpt>
      <trkpt lat="47.08259" lon="3.31167">
        <ele>306</ele>
        <time>2016-08-18T16:36:35Z</time>
      </trkpt>
      <trkpt lat="47.08257" lon="3.3117">
        <ele>306</ele>
        <time>2016-08-18T16:36:35Z</time>
      </trkpt>
      <trkpt lat="47.08254" lon="3.31175">
        <ele>306</ele>
        <time>2016-08-18T16:36:37Z</time>
      </trkpt>
      <trkpt lat="47.08253" lon="3.31179">
        <ele>306</ele>
        <time>2016-08-18T16:36:38Z</time>
      </trkpt>
      <trkpt lat="47.08251" lon="3.31182">
        <ele>307</ele>
        <time>2016-08-18T16:36:38Z</time>
      </trkpt>
      <trkpt lat="47.08249" lon="3.31186">
        <ele>307</ele>
        <time>2016-08-18T16:36:39Z</time>
      </trkpt>
      <trkpt lat="47.08247" lon="3.3119">
        <ele>307</ele>
        <time>2016-08-18T16:36:40Z</time>
      </trkpt>
      <trkpt lat="47.08246" lon="3.31194">
        <ele>307</ele>
        <time>2016-08-18T16:36:41Z</time>
      </trkpt>
      <trkpt lat="47.08245" lon="3.31199">
        <ele>307</ele>
        <time>2016-08-18T16:36:42Z</time>
      </trkpt>
      <trkpt lat="47.08244" lon="3.31204">
        <ele>308</ele>
        <time>2016-08-18T16:36:43Z</time>
      </trkpt>
      <trkpt lat="47.08243" lon="3.31209">
        <ele>308</ele>
        <time>2016-08-18T16:36:44Z</time>
      </trkpt>
      <trkpt lat="47.08242" lon="3.31214">
        <ele>309</ele>
        <time>2016-08-18T16:36:46Z</time>
      </trkpt>
      <trkpt lat="47.08241" lon="3.31219">
        <ele>309</ele>
        <time>2016-08-18T16:36:47Z</time>
      </trkpt>
      <trkpt lat="47.08241" lon="3.31223">
        <ele>309</ele>
        <time>2016-08-18T16:36:48Z</time>
      </trkpt>
      <trkpt lat="47.0824" lon="3.31228">
        <ele>309</ele>
        <time>2016-08-18T16:36:49Z</time>
      </trkpt>
      <trkpt lat="47.0824" lon="3.31232">
        <ele>309</ele>
        <time>2016-08-18T16:36:50Z</time>
      </trkpt>
      <trkpt lat="47.0824" lon="3.31237">
        <ele>309</ele>
        <time>2016-08-18T16:36:51Z</time>
      </trkpt>
      <trkpt lat="47.08239" lon="3.31242">
        <ele>310</ele>
        <time>2016-08-18T16:36:52Z</time>
      </trkpt>
      <trkpt lat="47.08239" lon="3.31247">
        <ele>310</ele>
        <time>2016-08-18T16:36:53Z</time>
      </trkpt>
      <trkpt lat="47.0824" lon="3.31252">
        <ele>310</ele>
        <time>2016-08-18T16:36:54Z</time>
      </trkpt>
      <trkpt lat="47.08241" lon="3.31261">
        <ele>310</ele>
        <time>2016-08-18T16:36:56Z</time>
      </trkpt>
      <trkpt lat="47.08241" lon="3.31262">
        <ele>310</ele>
        <time>2016-08-18T16:36:56Z</time>
      </trkpt>
      <trkpt lat="47.08241" lon="3.31266">
        <ele>310</ele>
        <time>2016-08-18T16:36:57Z</time>
      </trkpt>
      <trkpt lat="47.08242" lon="3.3127">
        <ele>310</ele>
        <time>2016-08-18T16:36:58Z</time>
      </trkpt>
      <trkpt lat="47.08243" lon="3.31274">
        <ele>310</ele>
        <time>2016-08-18T16:36:59Z</time>
      </trkpt>
      <trkpt lat="47.08244" lon="3.31279">
        <ele>311</ele>
        <time>2016-08-18T16:37:00Z</time>
      </trkpt>
      <trkpt lat="47.08246" lon="3.31283">
        <ele>311</ele>
        <time>2016-08-18T16:37:01Z</time>
      </trkpt>
      <trkpt lat="47.08247" lon="3.31287">
        <ele>311</ele>
        <time>2016-08-18T16:37:02Z</time>
      </trkpt>
      <trkpt lat="47.08248" lon="3.31292">
        <ele>311</ele>
        <time>2016-08-18T16:37:03Z</time>
      </trkpt>
      <trkpt lat="47.0825" lon="3.31297">
        <ele>312</ele>
        <time>2016-08-18T16:37:04Z</time>
      </trkpt>
      <trkpt lat="47.08252" lon="3.31304">
        <ele>312</ele>
        <time>2016-08-18T16:37:06Z</time>
      </trkpt>
      <trkpt lat="47.08253" lon="3.31309">
        <ele>312</ele>
        <time>2016-08-18T16:37:07Z</time>
      </trkpt>
      <trkpt lat="47.08254" lon="3.3131">
        <ele>312</ele>
        <time>2016-08-18T16:37:07Z</time>
      </trkpt>
      <trkpt lat="47.08255" lon="3.31315">
        <ele>313</ele>
        <time>2016-08-18T16:37:08Z</time>
      </trkpt>
      <trkpt lat="47.08257" lon="3.31319">
        <ele>313</ele>
        <time>2016-08-18T16:37:09Z</time>
      </trkpt>
      <trkpt lat="47.08259" lon="3.31324">
        <ele>312</ele>
        <time>2016-08-18T16:37:11Z</time>
      </trkpt>
      <trkpt lat="47.0826" lon="3.31328">
        <ele>312</ele>
        <time>2016-08-18T16:37:11Z</time>
      </trkpt>
      <trkpt lat="47.08261" lon="3.3133">
        <ele>312</ele>
        <time>2016-08-18T16:37:12Z</time>
      </trkpt>
      <trkpt lat="47.08263" lon="3.31336">
        <ele>313</ele>
        <time>2016-08-18T16:37:14Z</time>
      </trkpt>
      <trkpt lat="47.08265" lon="3.31341">
        <ele>314</ele>
        <time>2016-08-18T16:37:15Z</time>
      </trkpt>
      <trkpt lat="47.08266" lon="3.31343">
        <ele>314</ele>
        <time>2016-08-18T16:37:15Z</time>
      </trkpt>
      <trkpt lat="47.08268" lon="3.31348">
        <ele>313</ele>
        <time>2016-08-18T16:37:16Z</time>
      </trkpt>
      <trkpt lat="47.08269" lon="3.31351">
        <ele>313</ele>
        <time>2016-08-18T16:37:17Z</time>
      </trkpt>
      <trkpt lat="47.08271" lon="3.31356">
        <ele>313</ele>
        <time>2016-08-18T16:37:19Z</time>
      </trkpt>
      <trkpt lat="47.08272" lon="3.31361">
        <ele>313</ele>
        <time>2016-08-18T16:37:19Z</time>
      </trkpt>
      <trkpt lat="47.08273" lon="3.31365">
        <ele>312</ele>
        <time>2016-08-18T16:37:21Z</time>
      </trkpt>
      <trkpt lat="47.08274" lon="3.31369">
        <ele>312</ele>
        <time>2016-08-18T16:37:21Z</time>
      </trkpt>
      <trkpt lat="47.08275" lon="3.31374">
        <ele>312</ele>
        <time>2016-08-18T16:37:23Z</time>
      </trkpt>
      <trkpt lat="47.08276" lon="3.31377">
        <ele>312</ele>
        <time>2016-08-18T16:37:23Z</time>
      </trkpt>
      <trkpt lat="47.08278" lon="3.31382">
        <ele>312</ele>
        <time>2016-08-18T16:37:24Z</time>
      </trkpt>
      <trkpt lat="47.08279" lon="3.31388">
        <ele>313</ele>
        <time>2016-08-18T16:37:25Z</time>
      </trkpt>
      <trkpt lat="47.08281" lon="3.31392">
        <ele>313</ele>
        <time>2016-08-18T16:37:26Z</time>
      </trkpt>
      <trkpt lat="47.08282" lon="3.31397">
        <ele>313</ele>
        <time>2016-08-18T16:37:27Z</time>
      </trkpt>
      <trkpt lat="47.08284" lon="3.31402">
        <ele>313</ele>
        <time>2016-08-18T16:37:28Z</time>
      </trkpt>
      <trkpt lat="47.08285" lon="3.31406">
        <ele>313</ele>
        <time>2016-08-18T16:37:29Z</time>
      </trkpt>
      <trkpt lat="47.08287" lon="3.31411">
        <ele>314</ele>
        <time>2016-08-18T16:37:30Z</time>
      </trkpt>
      <trkpt lat="47.08288" lon="3.31415">
        <ele>314</ele>
        <time>2016-08-18T16:37:32Z</time>
      </trkpt>
      <trkpt lat="47.0829" lon="3.31419">
        <ele>314</ele>
        <time>2016-08-18T16:37:33Z</time>
      </trkpt>
      <trkpt lat="47.08295" lon="3.31436">
        <ele>315</ele>
        <time>2016-08-18T16:37:36Z</time>
      </trkpt>
      <trkpt lat="47.08302" lon="3.31453">
        <ele>315</ele>
        <time>2016-08-18T16:37:40Z</time>
      </trkpt>
      <trkpt lat="47.08313" lon="3.31473">
        <ele>318</ele>
        <time>2016-08-18T16:37:45Z</time>
      </trkpt>
      <trkpt lat="47.08325" lon="3.31491">
        <ele>317</ele>
        <time>2016-08-18T16:37:50Z</time>
      </trkpt>
      <trkpt lat="47.08338" lon="3.31509">
        <ele>317</ele>
        <time>2016-08-18T16:37:55Z</time>
      </trkpt>
      <trkpt lat="47.08351" lon="3.3153">
        <ele>319</ele>
        <time>2016-08-18T16:38:00Z</time>
      </trkpt>
      <trkpt lat="47.08369" lon="3.31552">
        <ele>319</ele>
        <time>2016-08-18T16:38:05Z</time>
      </trkpt>
      <trkpt lat="47.0839" lon="3.31576">
        <ele>322</ele>
        <time>2016-08-18T16:38:10Z</time>
      </trkpt>
      <trkpt lat="47.08411" lon="3.31604">
        <ele>320</ele>
        <time>2016-08-18T16:38:15Z</time>
      </trkpt>
      <trkpt lat="47.08438" lon="3.31634">
        <ele>319</ele>
        <time>2016-08-18T16:38:20Z</time>
      </trkpt>
      <trkpt lat="47.08465" lon="3.3166">
        <ele>318</ele>
        <time>2016-08-18T16:38:25Z</time>
      </trkpt>
      <trkpt lat="47.08492" lon="3.31676">
        <ele>319</ele>
        <time>2016-08-18T16:38:30Z</time>
      </trkpt>
      <trkpt lat="47.08521" lon="3.31686">
        <ele>320</ele>
        <time>2016-08-18T16:38:35Z</time>
      </trkpt>
      <trkpt lat="47.08547" lon="3.31699">
        <ele>321</ele>
        <time>2016-08-18T16:38:40Z</time>
      </trkpt>
      <trkpt lat="47.08571" lon="3.31711">
        <ele>321</ele>
        <time>2016-08-18T16:38:45Z</time>
      </trkpt>
      <trkpt lat="47.08595" lon="3.31722">
        <ele>322</ele>
        <time>2016-08-18T16:38:50Z</time>
      </trkpt>
      <trkpt lat="47.08624" lon="3.31735">
        <ele>321</ele>
        <time>2016-08-18T16:38:55Z</time>
      </trkpt>
      <trkpt lat="47.08656" lon="3.31748">
        <ele>321</ele>
        <time>2016-08-18T16:39:00Z</time>
      </trkpt>
      <trkpt lat="47.08689" lon="3.31763">
        <ele>321</ele>
        <time>2016-08-18T16:39:05Z</time>
      </trkpt>
      <trkpt lat="47.08723" lon="3.31778">
        <ele>319</ele>
        <time>2016-08-18T16:39:10Z</time>
      </trkpt>
      <trkpt lat="47.08758" lon="3.31794">
        <ele>315</ele>
        <time>2016-08-18T16:39:15Z</time>
      </trkpt>
      <trkpt lat="47.08795" lon="3.31808">
        <ele>314</ele>
        <time>2016-08-18T16:39:20Z</time>
      </trkpt>
      <trkpt lat="47.08845" lon="3.31827">
        <ele>315</ele>
        <time>2016-08-18T16:39:27Z</time>
      </trkpt>
      <trkpt lat="47.08877" lon="3.3184">
        <ele>315</ele>
        <time>2016-08-18T16:39:32Z</time>
      </trkpt>
      <trkpt lat="47.08897" lon="3.31847">
        <ele>316</ele>
        <time>2016-08-18T16:39:35Z</time>
      </trkpt>
      <trkpt lat="47.08928" lon="3.31862">
        <ele>317</ele>
        <time>2016-08-18T16:39:40Z</time>
      </trkpt>
      <trkpt lat="47.08961" lon="3.31877">
        <ele>317</ele>
        <time>2016-08-18T16:39:45Z</time>
      </trkpt>
      <trkpt lat="47.09001" lon="3.31892">
        <ele>317</ele>
        <time>2016-08-18T16:39:51Z</time>
      </trkpt>
      <trkpt lat="47.09058" lon="3.31917">
        <ele>316</ele>
        <time>2016-08-18T16:39:59Z</time>
      </trkpt>
      <trkpt lat="47.09065" lon="3.3192">
        <ele>316</ele>
        <time>2016-08-18T16:40:00Z</time>
      </trkpt>
      <trkpt lat="47.09125" lon="3.31946">
        <ele>313</ele>
        <time>2016-08-18T16:40:07Z</time>
      </trkpt>
      <trkpt lat="47.09129" lon="3.31947">
        <ele>313</ele>
        <time>2016-08-18T16:40:08Z</time>
      </trkpt>
      <trkpt lat="47.09137" lon="3.31951">
        <ele>313</ele>
        <time>2016-08-18T16:40:09Z</time>
      </trkpt>
      <trkpt lat="47.09152" lon="3.31957">
        <ele>312</ele>
        <time>2016-08-18T16:40:10Z</time>
      </trkpt>
      <trkpt lat="47.09161" lon="3.31961">
        <ele>311</ele>
        <time>2016-08-18T16:40:12Z</time>
      </trkpt>
      <trkpt lat="47.09164" lon="3.31962">
        <ele>311</ele>
        <time>2016-08-18T16:40:12Z</time>
      </trkpt>
      <trkpt lat="47.09173" lon="3.31967">
        <ele>310</ele>
        <time>2016-08-18T16:40:13Z</time>
      </trkpt>
      <trkpt lat="47.09182" lon="3.3197">
        <ele>310</ele>
        <time>2016-08-18T16:40:14Z</time>
      </trkpt>
      <trkpt lat="47.0919" lon="3.31974">
        <ele>310</ele>
        <time>2016-08-18T16:40:15Z</time>
      </trkpt>
      <trkpt lat="47.09201" lon="3.31979">
        <ele>310</ele>
        <time>2016-08-18T16:40:16Z</time>
      </trkpt>
      <trkpt lat="47.09206" lon="3.3198">
        <ele>310</ele>
        <time>2016-08-18T16:40:17Z</time>
      </trkpt>
      <trkpt lat="47.09217" lon="3.31984">
        <ele>309</ele>
        <time>2016-08-18T16:40:19Z</time>
      </trkpt>
      <trkpt lat="47.09225" lon="3.31984">
        <ele>309</ele>
        <time>2016-08-18T16:40:20Z</time>
      </trkpt>
      <trkpt lat="47.0923" lon="3.31983">
        <ele>308</ele>
        <time>2016-08-18T16:40:20Z</time>
      </trkpt>
      <trkpt lat="47.09239" lon="3.3198">
        <ele>308</ele>
        <time>2016-08-18T16:40:21Z</time>
      </trkpt>
      <trkpt lat="47.09248" lon="3.31978">
        <ele>308</ele>
        <time>2016-08-18T16:40:22Z</time>
      </trkpt>
      <trkpt lat="47.09255" lon="3.31975">
        <ele>308</ele>
        <time>2016-08-18T16:40:23Z</time>
      </trkpt>
      <trkpt lat="47.09263" lon="3.31972">
        <ele>307</ele>
        <time>2016-08-18T16:40:24Z</time>
      </trkpt>
      <trkpt lat="47.09272" lon="3.31969">
        <ele>307</ele>
        <time>2016-08-18T16:40:25Z</time>
      </trkpt>
      <trkpt lat="47.09281" lon="3.31966">
        <ele>307</ele>
        <time>2016-08-18T16:40:26Z</time>
      </trkpt>
      <trkpt lat="47.0929" lon="3.31962">
        <ele>305</ele>
        <time>2016-08-18T16:40:27Z</time>
      </trkpt>
      <trkpt lat="47.09298" lon="3.31958">
        <ele>305</ele>
        <time>2016-08-18T16:40:28Z</time>
      </trkpt>
      <trkpt lat="47.09308" lon="3.31954">
        <ele>304</ele>
        <time>2016-08-18T16:40:29Z</time>
      </trkpt>
      <trkpt lat="47.09316" lon="3.31951">
        <ele>304</ele>
        <time>2016-08-18T16:40:30Z</time>
      </trkpt>
      <trkpt lat="47.09325" lon="3.31946">
        <ele>303</ele>
        <time>2016-08-18T16:40:31Z</time>
      </trkpt>
      <trkpt lat="47.09334" lon="3.31943">
        <ele>303</ele>
        <time>2016-08-18T16:40:32Z</time>
      </trkpt>
      <trkpt lat="47.09343" lon="3.31939">
        <ele>303</ele>
        <time>2016-08-18T16:40:33Z</time>
      </trkpt>
      <trkpt lat="47.09352" lon="3.31934">
        <ele>304</ele>
        <time>2016-08-18T16:40:34Z</time>
      </trkpt>
      <trkpt lat="47.09361" lon="3.31929">
        <ele>304</ele>
        <time>2016-08-18T16:40:35Z</time>
      </trkpt>
      <trkpt lat="47.0937" lon="3.31925">
        <ele>303</ele>
        <time>2016-08-18T16:40:36Z</time>
      </trkpt>
      <trkpt lat="47.0938" lon="3.31922">
        <ele>302</ele>
        <time>2016-08-18T16:40:37Z</time>
      </trkpt>
      <trkpt lat="47.09389" lon="3.31918">
        <ele>301</ele>
        <time>2016-08-18T16:40:39Z</time>
      </trkpt>
      <trkpt lat="47.09398" lon="3.31913">
        <ele>300</ele>
        <time>2016-08-18T16:40:40Z</time>
      </trkpt>
      <trkpt lat="47.09407" lon="3.31909">
        <ele>299</ele>
        <time>2016-08-18T16:40:41Z</time>
      </trkpt>
      <trkpt lat="47.09415" lon="3.31905">
        <ele>300</ele>
        <time>2016-08-18T16:40:42Z</time>
      </trkpt>
      <trkpt lat="47.09424" lon="3.31901">
        <ele>299</ele>
        <time>2016-08-18T16:40:43Z</time>
      </trkpt>
      <trkpt lat="47.09434" lon="3.31896">
        <ele>299</ele>
        <time>2016-08-18T16:40:44Z</time>
      </trkpt>
      <trkpt lat="47.09442" lon="3.31893">
        <ele>298</ele>
        <time>2016-08-18T16:40:45Z</time>
      </trkpt>
      <trkpt lat="47.09459" lon="3.31886">
        <ele>298</ele>
        <time>2016-08-18T16:40:47Z</time>
      </trkpt>
      <trkpt lat="47.0946" lon="3.31885">
        <ele>298</ele>
        <time>2016-08-18T16:40:47Z</time>
      </trkpt>
      <trkpt lat="47.09469" lon="3.31881">
        <ele>298</ele>
        <time>2016-08-18T16:40:48Z</time>
      </trkpt>
      <trkpt lat="47.09477" lon="3.31877">
        <ele>298</ele>
        <time>2016-08-18T16:40:49Z</time>
      </trkpt>
      <trkpt lat="47.09486" lon="3.31874">
        <ele>298</ele>
        <time>2016-08-18T16:40:50Z</time>
      </trkpt>
      <trkpt lat="47.09495" lon="3.3187">
        <ele>298</ele>
        <time>2016-08-18T16:40:51Z</time>
      </trkpt>
      <trkpt lat="47.09509" lon="3.31864">
        <ele>297</ele>
        <time>2016-08-18T16:40:52Z</time>
      </trkpt>
      <trkpt lat="47.09512" lon="3.31863">
        <ele>297</ele>
        <time>2016-08-18T16:40:53Z</time>
      </trkpt>
      <trkpt lat="47.0952" lon="3.31859">
        <ele>297</ele>
        <time>2016-08-18T16:40:54Z</time>
      </trkpt>
      <trkpt lat="47.09529" lon="3.31855">
        <ele>297</ele>
        <time>2016-08-18T16:40:55Z</time>
      </trkpt>
      <trkpt lat="47.09542" lon="3.31849">
        <ele>296</ele>
        <time>2016-08-18T16:40:56Z</time>
      </trkpt>
      <trkpt lat="47.09546" lon="3.31847">
        <ele>296</ele>
        <time>2016-08-18T16:40:57Z</time>
      </trkpt>
      <trkpt lat="47.09554" lon="3.31842">
        <ele>295</ele>
        <time>2016-08-18T16:40:58Z</time>
      </trkpt>
      <trkpt lat="47.09562" lon="3.31837">
        <ele>296</ele>
        <time>2016-08-18T16:40:59Z</time>
      </trkpt>
      <trkpt lat="47.09573" lon="3.31829">
        <ele>296</ele>
        <time>2016-08-18T16:41:00Z</time>
      </trkpt>
      <trkpt lat="47.09578" lon="3.31825">
        <ele>295</ele>
        <time>2016-08-18T16:41:01Z</time>
      </trkpt>
      <trkpt lat="47.09585" lon="3.31819">
        <ele>295</ele>
        <time>2016-08-18T16:41:02Z</time>
      </trkpt>
      <trkpt lat="47.09593" lon="3.31813">
        <ele>295</ele>
        <time>2016-08-18T16:41:03Z</time>
      </trkpt>
      <trkpt lat="47.09603" lon="3.31803">
        <ele>296</ele>
        <time>2016-08-18T16:41:04Z</time>
      </trkpt>
      <trkpt lat="47.09607" lon="3.31799">
        <ele>296</ele>
        <time>2016-08-18T16:41:05Z</time>
      </trkpt>
      <trkpt lat="47.09617" lon="3.3179">
        <ele>296</ele>
        <time>2016-08-18T16:41:06Z</time>
      </trkpt>
      <trkpt lat="47.09622" lon="3.31785">
        <ele>295</ele>
        <time>2016-08-18T16:41:07Z</time>
      </trkpt>
      <trkpt lat="47.09629" lon="3.31777">
        <ele>295</ele>
        <time>2016-08-18T16:41:08Z</time>
      </trkpt>
      <trkpt lat="47.0964" lon="3.31767">
        <ele>296</ele>
        <time>2016-08-18T16:41:10Z</time>
      </trkpt>
      <trkpt lat="47.09646" lon="3.31761">
        <ele>296</ele>
        <time>2016-08-18T16:41:10Z</time>
      </trkpt>
      <trkpt lat="47.09651" lon="3.31755">
        <ele>296</ele>
        <time>2016-08-18T16:41:11Z</time>
      </trkpt>
      <trkpt lat="47.09659" lon="3.31745">
        <ele>296</ele>
        <time>2016-08-18T16:41:12Z</time>
      </trkpt>
      <trkpt lat="47.09667" lon="3.31738">
        <ele>296</ele>
        <time>2016-08-18T16:41:13Z</time>
      </trkpt>
      <trkpt lat="47.09674" lon="3.31731">
        <ele>296</ele>
        <time>2016-08-18T16:41:15Z</time>
      </trkpt>
      <trkpt lat="47.09679" lon="3.31726">
        <ele>295</ele>
        <time>2016-08-18T16:41:15Z</time>
      </trkpt>
      <trkpt lat="47.09687" lon="3.31719">
        <ele>295</ele>
        <time>2016-08-18T16:41:16Z</time>
      </trkpt>
      <trkpt lat="47.09695" lon="3.31711">
        <ele>295</ele>
        <time>2016-08-18T16:41:18Z</time>
      </trkpt>
      <trkpt lat="47.09702" lon="3.31704">
        <ele>295</ele>
        <time>2016-08-18T16:41:19Z</time>
      </trkpt>
      <trkpt lat="47.09708" lon="3.31698">
        <ele>294</ele>
        <time>2016-08-18T16:41:19Z</time>
      </trkpt>
      <trkpt lat="47.09715" lon="3.31691">
        <ele>293</ele>
        <time>2016-08-18T16:41:20Z</time>
      </trkpt>
      <trkpt lat="47.09721" lon="3.31684">
        <ele>293</ele>
        <time>2016-08-18T16:41:21Z</time>
      </trkpt>
      <trkpt lat="47.09728" lon="3.31677">
        <ele>293</ele>
        <time>2016-08-18T16:41:22Z</time>
      </trkpt>
      <trkpt lat="47.09735" lon="3.31669">
        <ele>293</ele>
        <time>2016-08-18T16:41:24Z</time>
      </trkpt>
      <trkpt lat="47.09742" lon="3.31662">
        <ele>293</ele>
        <time>2016-08-18T16:41:25Z</time>
      </trkpt>
      <trkpt lat="47.09749" lon="3.31655">
        <ele>292</ele>
        <time>2016-08-18T16:41:26Z</time>
      </trkpt>
      <trkpt lat="47.09756" lon="3.3165">
        <ele>292</ele>
        <time>2016-08-18T16:41:27Z</time>
      </trkpt>
      <trkpt lat="47.09764" lon="3.31643">
        <ele>291</ele>
        <time>2016-08-18T16:41:28Z</time>
      </trkpt>
      <trkpt lat="47.09772" lon="3.31638">
        <ele>291</ele>
        <time>2016-08-18T16:41:29Z</time>
      </trkpt>
      <trkpt lat="47.09779" lon="3.31634">
        <ele>291</ele>
        <time>2016-08-18T16:41:30Z</time>
      </trkpt>
      <trkpt lat="47.09788" lon="3.31631">
        <ele>291</ele>
        <time>2016-08-18T16:41:31Z</time>
      </trkpt>
      <trkpt lat="47.09796" lon="3.31627">
        <ele>291</ele>
        <time>2016-08-18T16:41:32Z</time>
      </trkpt>
      <trkpt lat="47.09804" lon="3.31625">
        <ele>291</ele>
        <time>2016-08-18T16:41:33Z</time>
      </trkpt>
      <trkpt lat="47.09813" lon="3.31623">
        <ele>290</ele>
        <time>2016-08-18T16:41:34Z</time>
      </trkpt>
      <trkpt lat="47.09821" lon="3.31622">
        <ele>290</ele>
        <time>2016-08-18T16:41:35Z</time>
      </trkpt>
      <trkpt lat="47.09829" lon="3.31621">
        <ele>290</ele>
        <time>2016-08-18T16:41:36Z</time>
      </trkpt>
      <trkpt lat="47.09838" lon="3.3162">
        <ele>289</ele>
        <time>2016-08-18T16:41:37Z</time>
      </trkpt>
      <trkpt lat="47.09846" lon="3.3162">
        <ele>289</ele>
        <time>2016-08-18T16:41:38Z</time>
      </trkpt>
      <trkpt lat="47.0986" lon="3.31621">
        <ele>289</ele>
        <time>2016-08-18T16:41:39Z</time>
      </trkpt>
      <trkpt lat="47.09864" lon="3.31621">
        <ele>289</ele>
        <time>2016-08-18T16:41:40Z</time>
      </trkpt>
      <trkpt lat="47.09872" lon="3.31621">
        <ele>289</ele>
        <time>2016-08-18T16:41:41Z</time>
      </trkpt>
      <trkpt lat="47.09879" lon="3.31621">
        <ele>289</ele>
        <time>2016-08-18T16:41:42Z</time>
      </trkpt>
      <trkpt lat="47.09887" lon="3.3162">
        <ele>288</ele>
        <time>2016-08-18T16:41:43Z</time>
      </trkpt>
      <trkpt lat="47.099" lon="3.31619">
        <ele>288</ele>
        <time>2016-08-18T16:41:44Z</time>
      </trkpt>
      <trkpt lat="47.09903" lon="3.31619">
        <ele>289</ele>
        <time>2016-08-18T16:41:45Z</time>
      </trkpt>
      <trkpt lat="47.09911" lon="3.31619">
        <ele>289</ele>
        <time>2016-08-18T16:41:46Z</time>
      </trkpt>
      <trkpt lat="47.09919" lon="3.31618">
        <ele>288</ele>
        <time>2016-08-18T16:41:47Z</time>
      </trkpt>
      <trkpt lat="47.09932" lon="3.31618">
        <ele>289</ele>
        <time>2016-08-18T16:41:49Z</time>
      </trkpt>
      <trkpt lat="47.09935" lon="3.31618">
        <ele>289</ele>
        <time>2016-08-18T16:41:49Z</time>
      </trkpt>
      <trkpt lat="47.09947" lon="3.31619">
        <ele>289</ele>
        <time>2016-08-18T16:41:51Z</time>
      </trkpt>
      <trkpt lat="47.09954" lon="3.31619">
        <ele>289</ele>
        <time>2016-08-18T16:41:51Z</time>
      </trkpt>
      <trkpt lat="47.09959" lon="3.31619">
        <ele>288</ele>
        <time>2016-08-18T16:41:52Z</time>
      </trkpt>
      <trkpt lat="47.09965" lon="3.3162">
        <ele>288</ele>
        <time>2016-08-18T16:41:53Z</time>
      </trkpt>
      <trkpt lat="47.09976" lon="3.31621">
        <ele>288</ele>
        <time>2016-08-18T16:41:55Z</time>
      </trkpt>
      <trkpt lat="47.0998" lon="3.31621">
        <ele>287</ele>
        <time>2016-08-18T16:41:55Z</time>
      </trkpt>
      <trkpt lat="47.09987" lon="3.31621">
        <ele>287</ele>
        <time>2016-08-18T16:41:56Z</time>
      </trkpt>
      <trkpt lat="47.09995" lon="3.31621">
        <ele>286</ele>
        <time>2016-08-18T16:41:57Z</time>
      </trkpt>
      <trkpt lat="47.10002" lon="3.31621">
        <ele>287</ele>
        <time>2016-08-18T16:41:58Z</time>
      </trkpt>
      <trkpt lat="47.10012" lon="3.31622">
        <ele>287</ele>
        <time>2016-08-18T16:41:59Z</time>
      </trkpt>
      <trkpt lat="47.10018" lon="3.31622">
        <ele>288</ele>
        <time>2016-08-18T16:42:00Z</time>
      </trkpt>
      <trkpt lat="47.10024" lon="3.31623">
        <ele>288</ele>
        <time>2016-08-18T16:42:01Z</time>
      </trkpt>
      <trkpt lat="47.10034" lon="3.31623">
        <ele>288</ele>
        <time>2016-08-18T16:42:02Z</time>
      </trkpt>
      <trkpt lat="47.10041" lon="3.31622">
        <ele>288</ele>
        <time>2016-08-18T16:42:03Z</time>
      </trkpt>
      <trkpt lat="47.1005" lon="3.31621">
        <ele>288</ele>
        <time>2016-08-18T16:42:04Z</time>
      </trkpt>
      <trkpt lat="47.10057" lon="3.3162">
        <ele>288</ele>
        <time>2016-08-18T16:42:06Z</time>
      </trkpt>
      <trkpt lat="47.10063" lon="3.31619">
        <ele>288</ele>
        <time>2016-08-18T16:42:06Z</time>
      </trkpt>
      <trkpt lat="47.1007" lon="3.31618">
        <ele>288</ele>
        <time>2016-08-18T16:42:07Z</time>
      </trkpt>
      <trkpt lat="47.10078" lon="3.31616">
        <ele>288</ele>
        <time>2016-08-18T16:42:08Z</time>
      </trkpt>
      <trkpt lat="47.10085" lon="3.31614">
        <ele>288</ele>
        <time>2016-08-18T16:42:09Z</time>
      </trkpt>
      <trkpt lat="47.10093" lon="3.31611">
        <ele>288</ele>
        <time>2016-08-18T16:42:10Z</time>
      </trkpt>
      <trkpt lat="47.10101" lon="3.31609">
        <ele>289</ele>
        <time>2016-08-18T16:42:11Z</time>
      </trkpt>
      <trkpt lat="47.10109" lon="3.31607">
        <ele>288</ele>
        <time>2016-08-18T16:42:12Z</time>
      </trkpt>
      <trkpt lat="47.10116" lon="3.31604">
        <ele>288</ele>
        <time>2016-08-18T16:42:14Z</time>
      </trkpt>
      <trkpt lat="47.10124" lon="3.31602">
        <ele>287</ele>
        <time>2016-08-18T16:42:15Z</time>
      </trkpt>
      <trkpt lat="47.10131" lon="3.316">
        <ele>286</ele>
        <time>2016-08-18T16:42:16Z</time>
      </trkpt>
      <trkpt lat="47.10138" lon="3.31597">
        <ele>286</ele>
        <time>2016-08-18T16:42:17Z</time>
      </trkpt>
      <trkpt lat="47.10145" lon="3.31595">
        <ele>285</ele>
        <time>2016-08-18T16:42:18Z</time>
      </trkpt>
      <trkpt lat="47.10152" lon="3.31593">
        <ele>285</ele>
        <time>2016-08-18T16:42:19Z</time>
      </trkpt>
      <trkpt lat="47.10159" lon="3.31592">
        <ele>285</ele>
        <time>2016-08-18T16:42:20Z</time>
      </trkpt>
      <trkpt lat="47.10166" lon="3.3159">
        <ele>285</ele>
        <time>2016-08-18T16:42:21Z</time>
      </trkpt>
      <trkpt lat="47.10173" lon="3.31589">
        <ele>284</ele>
        <time>2016-08-18T16:42:22Z</time>
      </trkpt>
      <trkpt lat="47.1018" lon="3.31588">
        <ele>284</ele>
        <time>2016-08-18T16:42:23Z</time>
      </trkpt>
      <trkpt lat="47.10187" lon="3.31588">
        <ele>283</ele>
        <time>2016-08-18T16:42:24Z</time>
      </trkpt>
      <trkpt lat="47.10194" lon="3.31588">
        <ele>282</ele>
        <time>2016-08-18T16:42:25Z</time>
      </trkpt>
      <trkpt lat="47.10207" lon="3.31588">
        <ele>282</ele>
        <time>2016-08-18T16:42:27Z</time>
      </trkpt>
      <trkpt lat="47.10209" lon="3.31588">
        <ele>282</ele>
        <time>2016-08-18T16:42:27Z</time>
      </trkpt>
      <trkpt lat="47.10217" lon="3.31588">
        <ele>281</ele>
        <time>2016-08-18T16:42:28Z</time>
      </trkpt>
      <trkpt lat="47.10225" lon="3.31587">
        <ele>282</ele>
        <time>2016-08-18T16:42:29Z</time>
      </trkpt>
      <trkpt lat="47.10233" lon="3.31588">
        <ele>283</ele>
        <time>2016-08-18T16:42:30Z</time>
      </trkpt>
      <trkpt lat="47.10241" lon="3.31588">
        <ele>283</ele>
        <time>2016-08-18T16:42:31Z</time>
      </trkpt>
      <trkpt lat="47.10251" lon="3.31587">
        <ele>282</ele>
        <time>2016-08-18T16:42:32Z</time>
      </trkpt>
      <trkpt lat="47.1026" lon="3.31587">
        <ele>282</ele>
        <time>2016-08-18T16:42:33Z</time>
      </trkpt>
      <trkpt lat="47.10273" lon="3.31585">
        <ele>281</ele>
        <time>2016-08-18T16:42:34Z</time>
      </trkpt>
      <trkpt lat="47.10278" lon="3.31584">
        <ele>282</ele>
        <time>2016-08-18T16:42:35Z</time>
      </trkpt>
      <trkpt lat="47.10292" lon="3.3158">
        <ele>281</ele>
        <time>2016-08-18T16:42:36Z</time>
      </trkpt>
      <trkpt lat="47.10297" lon="3.31578">
        <ele>281</ele>
        <time>2016-08-18T16:42:37Z</time>
      </trkpt>
      <trkpt lat="47.10311" lon="3.3157">
        <ele>280</ele>
        <time>2016-08-18T16:42:38Z</time>
      </trkpt>
      <trkpt lat="47.10316" lon="3.31567">
        <ele>280</ele>
        <time>2016-08-18T16:42:39Z</time>
      </trkpt>
      <trkpt lat="47.10329" lon="3.3156">
        <ele>279</ele>
        <time>2016-08-18T16:42:41Z</time>
      </trkpt>
      <trkpt lat="47.10339" lon="3.31555">
        <ele>278</ele>
        <time>2016-08-18T16:42:41Z</time>
      </trkpt>
      <trkpt lat="47.10349" lon="3.31552">
        <ele>278</ele>
        <time>2016-08-18T16:42:42Z</time>
      </trkpt>
      <trkpt lat="47.10355" lon="3.3155">
        <ele>278</ele>
        <time>2016-08-18T16:42:43Z</time>
      </trkpt>
      <trkpt lat="47.10365" lon="3.31549">
        <ele>279</ele>
        <time>2016-08-18T16:42:44Z</time>
      </trkpt>
      <trkpt lat="47.10375" lon="3.31548">
        <ele>279</ele>
        <time>2016-08-18T16:42:45Z</time>
      </trkpt>
      <trkpt lat="47.10385" lon="3.31548">
        <ele>278</ele>
        <time>2016-08-18T16:42:46Z</time>
      </trkpt>
      <trkpt lat="47.10395" lon="3.31549">
        <ele>278</ele>
        <time>2016-08-18T16:42:47Z</time>
      </trkpt>
      <trkpt lat="47.10405" lon="3.31549">
        <ele>277</ele>
        <time>2016-08-18T16:42:48Z</time>
      </trkpt>
      <trkpt lat="47.10414" lon="3.31551">
        <ele>278</ele>
        <time>2016-08-18T16:42:49Z</time>
      </trkpt>
      <trkpt lat="47.10424" lon="3.31553">
        <ele>278</ele>
        <time>2016-08-18T16:42:50Z</time>
      </trkpt>
      <trkpt lat="47.10435" lon="3.31555">
        <ele>277</ele>
        <time>2016-08-18T16:42:52Z</time>
      </trkpt>
      <trkpt lat="47.10442" lon="3.31556">
        <ele>278</ele>
        <time>2016-08-18T16:42:52Z</time>
      </trkpt>
      <trkpt lat="47.10454" lon="3.31561">
        <ele>278</ele>
        <time>2016-08-18T16:42:54Z</time>
      </trkpt>
      <trkpt lat="47.10463" lon="3.31563">
        <ele>278</ele>
        <time>2016-08-18T16:42:55Z</time>
      </trkpt>
      <trkpt lat="47.10472" lon="3.31565">
        <ele>278</ele>
        <time>2016-08-18T16:42:56Z</time>
      </trkpt>
      <trkpt lat="47.10479" lon="3.31567">
        <ele>279</ele>
        <time>2016-08-18T16:42:56Z</time>
      </trkpt>
      <trkpt lat="47.10488" lon="3.31569">
        <ele>278</ele>
        <time>2016-08-18T16:42:57Z</time>
      </trkpt>
      <trkpt lat="47.10496" lon="3.31571">
        <ele>277</ele>
        <time>2016-08-18T16:42:58Z</time>
      </trkpt>
      <trkpt lat="47.10504" lon="3.31574">
        <ele>277</ele>
        <time>2016-08-18T16:42:59Z</time>
      </trkpt>
      <trkpt lat="47.10513" lon="3.31576">
        <ele>277</ele>
        <time>2016-08-18T16:43:00Z</time>
      </trkpt>
      <trkpt lat="47.10521" lon="3.31579">
        <ele>277</ele>
        <time>2016-08-18T16:43:01Z</time>
      </trkpt>
      <trkpt lat="47.10529" lon="3.31582">
        <ele>277</ele>
        <time>2016-08-18T16:43:02Z</time>
      </trkpt>
      <trkpt lat="47.10537" lon="3.31587">
        <ele>277</ele>
        <time>2016-08-18T16:43:03Z</time>
      </trkpt>
      <trkpt lat="47.10545" lon="3.31592">
        <ele>277</ele>
        <time>2016-08-18T16:43:04Z</time>
      </trkpt>
      <trkpt lat="47.10553" lon="3.31599">
        <ele>277</ele>
        <time>2016-08-18T16:43:06Z</time>
      </trkpt>
      <trkpt lat="47.1056" lon="3.31606">
        <ele>277</ele>
        <time>2016-08-18T16:43:07Z</time>
      </trkpt>
      <trkpt lat="47.10572" lon="3.31619">
        <ele>277</ele>
        <time>2016-08-18T16:43:08Z</time>
      </trkpt>
      <trkpt lat="47.10574" lon="3.31621">
        <ele>277</ele>
        <time>2016-08-18T16:43:09Z</time>
      </trkpt>
      <trkpt lat="47.10581" lon="3.31629">
        <ele>276</ele>
        <time>2016-08-18T16:43:10Z</time>
      </trkpt>
      <trkpt lat="47.10594" lon="3.31643">
        <ele>276</ele>
        <time>2016-08-18T16:43:12Z</time>
      </trkpt>
      <trkpt lat="47.10595" lon="3.31645">
        <ele>276</ele>
        <time>2016-08-18T16:43:12Z</time>
      </trkpt>
      <trkpt lat="47.10602" lon="3.31653">
        <ele>276</ele>
        <time>2016-08-18T16:43:13Z</time>
      </trkpt>
      <trkpt lat="47.1061" lon="3.31661">
        <ele>276</ele>
        <time>2016-08-18T16:43:14Z</time>
      </trkpt>
      <trkpt lat="47.10617" lon="3.31668">
        <ele>276</ele>
        <time>2016-08-18T16:43:15Z</time>
      </trkpt>
      <trkpt lat="47.10624" lon="3.31676">
        <ele>276</ele>
        <time>2016-08-18T16:43:16Z</time>
      </trkpt>
      <trkpt lat="47.10631" lon="3.31685">
        <ele>276</ele>
        <time>2016-08-18T16:43:17Z</time>
      </trkpt>
      <trkpt lat="47.10638" lon="3.31693">
        <ele>276</ele>
        <time>2016-08-18T16:43:18Z</time>
      </trkpt>
      <trkpt lat="47.10651" lon="3.31708">
        <ele>275</ele>
        <time>2016-08-18T16:43:19Z</time>
      </trkpt>
      <trkpt lat="47.10654" lon="3.31712">
        <ele>275</ele>
        <time>2016-08-18T16:43:20Z</time>
      </trkpt>
      <trkpt lat="47.10661" lon="3.31721">
        <ele>275</ele>
        <time>2016-08-18T16:43:21Z</time>
      </trkpt>
      <trkpt lat="47.10669" lon="3.31729">
        <ele>275</ele>
        <time>2016-08-18T16:43:22Z</time>
      </trkpt>
      <trkpt lat="47.10677" lon="3.31738">
        <ele>275</ele>
        <time>2016-08-18T16:43:23Z</time>
      </trkpt>
      <trkpt lat="47.10688" lon="3.31752">
        <ele>274</ele>
        <time>2016-08-18T16:43:25Z</time>
      </trkpt>
      <trkpt lat="47.10695" lon="3.31759">
        <ele>274</ele>
        <time>2016-08-18T16:43:25Z</time>
      </trkpt>
      <trkpt lat="47.10699" lon="3.31764">
        <ele>275</ele>
        <time>2016-08-18T16:43:26Z</time>
      </trkpt>
      <trkpt lat="47.1071" lon="3.31777">
        <ele>274</ele>
        <time>2016-08-18T16:43:27Z</time>
      </trkpt>
      <trkpt lat="47.10715" lon="3.31782">
        <ele>275</ele>
        <time>2016-08-18T16:43:28Z</time>
      </trkpt>
      <trkpt lat="47.10723" lon="3.3179">
        <ele>274</ele>
        <time>2016-08-18T16:43:29Z</time>
      </trkpt>
      <trkpt lat="47.1073" lon="3.31797">
        <ele>274</ele>
        <time>2016-08-18T16:43:30Z</time>
      </trkpt>
      <trkpt lat="47.10738" lon="3.31803">
        <ele>274</ele>
        <time>2016-08-18T16:43:31Z</time>
      </trkpt>
      <trkpt lat="47.10746" lon="3.31807">
        <ele>274</ele>
        <time>2016-08-18T16:43:32Z</time>
      </trkpt>
      <trkpt lat="47.10757" lon="3.31814">
        <ele>274</ele>
        <time>2016-08-18T16:43:33Z</time>
      </trkpt>
      <trkpt lat="47.10763" lon="3.31817">
        <ele>275</ele>
        <time>2016-08-18T16:43:34Z</time>
      </trkpt>
      <trkpt lat="47.10772" lon="3.31821">
        <ele>275</ele>
        <time>2016-08-18T16:43:35Z</time>
      </trkpt>
      <trkpt lat="47.1078" lon="3.31824">
        <ele>274</ele>
        <time>2016-08-18T16:43:36Z</time>
      </trkpt>
      <trkpt lat="47.1079" lon="3.31828">
        <ele>274</ele>
        <time>2016-08-18T16:43:37Z</time>
      </trkpt>
      <trkpt lat="47.10801" lon="3.31832">
        <ele>273</ele>
        <time>2016-08-18T16:43:38Z</time>
      </trkpt>
      <trkpt lat="47.10807" lon="3.31835">
        <ele>273</ele>
        <time>2016-08-18T16:43:39Z</time>
      </trkpt>
      <trkpt lat="47.10819" lon="3.3184">
        <ele>271</ele>
        <time>2016-08-18T16:43:41Z</time>
      </trkpt>
      <trkpt lat="47.10827" lon="3.31843">
        <ele>271</ele>
        <time>2016-08-18T16:43:42Z</time>
      </trkpt>
      <trkpt lat="47.10834" lon="3.31847">
        <ele>271</ele>
        <time>2016-08-18T16:43:42Z</time>
      </trkpt>
      <trkpt lat="47.10842" lon="3.3185">
        <ele>271</ele>
        <time>2016-08-18T16:43:43Z</time>
      </trkpt>
      <trkpt lat="47.10851" lon="3.31853">
        <ele>271</ele>
        <time>2016-08-18T16:43:44Z</time>
      </trkpt>
      <trkpt lat="47.10859" lon="3.31857">
        <ele>271</ele>
        <time>2016-08-18T16:43:45Z</time>
      </trkpt>
      <trkpt lat="47.10867" lon="3.31861">
        <ele>270</ele>
        <time>2016-08-18T16:43:46Z</time>
      </trkpt>
      <trkpt lat="47.10875" lon="3.31865">
        <ele>270</ele>
        <time>2016-08-18T16:43:47Z</time>
      </trkpt>
      <trkpt lat="47.10884" lon="3.31869">
        <ele>269</ele>
        <time>2016-08-18T16:43:48Z</time>
      </trkpt>
      <trkpt lat="47.10892" lon="3.31872">
        <ele>269</ele>
        <time>2016-08-18T16:43:49Z</time>
      </trkpt>
      <trkpt lat="47.10901" lon="3.31875">
        <ele>269</ele>
        <time>2016-08-18T16:43:50Z</time>
      </trkpt>
      <trkpt lat="47.1091" lon="3.31877">
        <ele>269</ele>
        <time>2016-08-18T16:43:52Z</time>
      </trkpt>
      <trkpt lat="47.10918" lon="3.31879">
        <ele>269</ele>
        <time>2016-08-18T16:43:53Z</time>
      </trkpt>
      <trkpt lat="47.10927" lon="3.31878">
        <ele>269</ele>
        <time>2016-08-18T16:43:54Z</time>
      </trkpt>
      <trkpt lat="47.10935" lon="3.31877">
        <ele>269</ele>
        <time>2016-08-18T16:43:55Z</time>
      </trkpt>
      <trkpt lat="47.1095" lon="3.31874">
        <ele>269</ele>
        <time>2016-08-18T16:43:56Z</time>
      </trkpt>
      <trkpt lat="47.10952" lon="3.31873">
        <ele>269</ele>
        <time>2016-08-18T16:43:57Z</time>
      </trkpt>
      <trkpt lat="47.1096" lon="3.31871">
        <ele>269</ele>
        <time>2016-08-18T16:43:58Z</time>
      </trkpt>
      <trkpt lat="47.10968" lon="3.31868">
        <ele>269</ele>
        <time>2016-08-18T16:43:59Z</time>
      </trkpt>
      <trkpt lat="47.10977" lon="3.31865">
        <ele>269</ele>
        <time>2016-08-18T16:44:00Z</time>
      </trkpt>
      <trkpt lat="47.10985" lon="3.31862">
        <ele>270</ele>
        <time>2016-08-18T16:44:01Z</time>
      </trkpt>
      <trkpt lat="47.10993" lon="3.3186">
        <ele>270</ele>
        <time>2016-08-18T16:44:02Z</time>
      </trkpt>
      <trkpt lat="47.11" lon="3.31859">
        <ele>270</ele>
        <time>2016-08-18T16:44:03Z</time>
      </trkpt>
      <trkpt lat="47.11008" lon="3.31858">
        <ele>271</ele>
        <time>2016-08-18T16:44:04Z</time>
      </trkpt>
      <trkpt lat="47.11017" lon="3.31858">
        <ele>271</ele>
        <time>2016-08-18T16:44:05Z</time>
      </trkpt>
      <trkpt lat="47.11025" lon="3.31857">
        <ele>271</ele>
        <time>2016-08-18T16:44:06Z</time>
      </trkpt>
      <trkpt lat="47.11032" lon="3.31858">
        <ele>271</ele>
        <time>2016-08-18T16:44:07Z</time>
      </trkpt>
      <trkpt lat="47.1104" lon="3.31859">
        <ele>271</ele>
        <time>2016-08-18T16:44:08Z</time>
      </trkpt>
      <trkpt lat="47.11048" lon="3.31861">
        <ele>271</ele>
        <time>2016-08-18T16:44:09Z</time>
      </trkpt>
      <trkpt lat="47.11062" lon="3.31866">
        <ele>270</ele>
        <time>2016-08-18T16:44:10Z</time>
      </trkpt>
      <trkpt lat="47.11065" lon="3.31867">
        <ele>270</ele>
        <time>2016-08-18T16:44:11Z</time>
      </trkpt>
      <trkpt lat="47.11079" lon="3.31872">
        <ele>269</ele>
        <time>2016-08-18T16:44:13Z</time>
      </trkpt>
      <trkpt lat="47.11082" lon="3.31873">
        <ele>269</ele>
        <time>2016-08-18T16:44:13Z</time>
      </trkpt>
      <trkpt lat="47.1109" lon="3.31877">
        <ele>268</ele>
        <time>2016-08-18T16:44:14Z</time>
      </trkpt>
      <trkpt lat="47.11098" lon="3.3188">
        <ele>268</ele>
        <time>2016-08-18T16:44:15Z</time>
      </trkpt>
      <trkpt lat="47.11106" lon="3.31885">
        <ele>268</ele>
        <time>2016-08-18T16:44:16Z</time>
      </trkpt>
      <trkpt lat="47.11112" lon="3.31889">
        <ele>268</ele>
        <time>2016-08-18T16:44:17Z</time>
      </trkpt>
      <trkpt lat="47.1112" lon="3.31894">
        <ele>268</ele>
        <time>2016-08-18T16:44:18Z</time>
      </trkpt>
      <trkpt lat="47.11131" lon="3.31901">
        <ele>266</ele>
        <time>2016-08-18T16:44:19Z</time>
      </trkpt>
      <trkpt lat="47.11135" lon="3.31904">
        <ele>266</ele>
        <time>2016-08-18T16:44:20Z</time>
      </trkpt>
      <trkpt lat="47.11143" lon="3.31909">
        <ele>266</ele>
        <time>2016-08-18T16:44:21Z</time>
      </trkpt>
      <trkpt lat="47.1115" lon="3.31914">
        <ele>266</ele>
        <time>2016-08-18T16:44:22Z</time>
      </trkpt>
      <trkpt lat="47.11156" lon="3.3192">
        <ele>266</ele>
        <time>2016-08-18T16:44:23Z</time>
      </trkpt>
      <trkpt lat="47.11164" lon="3.31926">
        <ele>266</ele>
        <time>2016-08-18T16:44:24Z</time>
      </trkpt>
      <trkpt lat="47.1117" lon="3.3193">
        <ele>266</ele>
        <time>2016-08-18T16:44:25Z</time>
      </trkpt>
      <trkpt lat="47.11176" lon="3.31936">
        <ele>266</ele>
        <time>2016-08-18T16:44:26Z</time>
      </trkpt>
      <trkpt lat="47.11183" lon="3.31942">
        <ele>266</ele>
        <time>2016-08-18T16:44:27Z</time>
      </trkpt>
      <trkpt lat="47.1119" lon="3.31947">
        <ele>266</ele>
        <time>2016-08-18T16:44:28Z</time>
      </trkpt>
      <trkpt lat="47.11196" lon="3.31953">
        <ele>266</ele>
        <time>2016-08-18T16:44:29Z</time>
      </trkpt>
      <trkpt lat="47.11203" lon="3.31958">
        <ele>266</ele>
        <time>2016-08-18T16:44:30Z</time>
      </trkpt>
      <trkpt lat="47.11211" lon="3.31965">
        <ele>266</ele>
        <time>2016-08-18T16:44:32Z</time>
      </trkpt>
      <trkpt lat="47.11217" lon="3.31971">
        <ele>266</ele>
        <time>2016-08-18T16:44:33Z</time>
      </trkpt>
      <trkpt lat="47.11222" lon="3.31976">
        <ele>265</ele>
        <time>2016-08-18T16:44:33Z</time>
      </trkpt>
      <trkpt lat="47.11229" lon="3.31981">
        <ele>265</ele>
        <time>2016-08-18T16:44:34Z</time>
      </trkpt>
      <trkpt lat="47.11236" lon="3.31987">
        <ele>265</ele>
        <time>2016-08-18T16:44:35Z</time>
      </trkpt>
      <trkpt lat="47.11243" lon="3.31993">
        <ele>265</ele>
        <time>2016-08-18T16:44:37Z</time>
      </trkpt>
      <trkpt lat="47.1125" lon="3.31998">
        <ele>264</ele>
        <time>2016-08-18T16:44:37Z</time>
      </trkpt>
      <trkpt lat="47.11258" lon="3.32003">
        <ele>264</ele>
        <time>2016-08-18T16:44:38Z</time>
      </trkpt>
      <trkpt lat="47.11265" lon="3.3201">
        <ele>264</ele>
        <time>2016-08-18T16:44:40Z</time>
      </trkpt>
      <trkpt lat="47.11273" lon="3.32016">
        <ele>264</ele>
        <time>2016-08-18T16:44:41Z</time>
      </trkpt>
      <trkpt lat="47.1128" lon="3.32022">
        <ele>264</ele>
        <time>2016-08-18T16:44:42Z</time>
      </trkpt>
      <trkpt lat="47.11295" lon="3.32034">
        <ele>263</ele>
        <time>2016-08-18T16:44:43Z</time>
      </trkpt>
      <trkpt lat="47.11296" lon="3.32035">
        <ele>263</ele>
        <time>2016-08-18T16:44:44Z</time>
      </trkpt>
      <trkpt lat="47.11304" lon="3.32041">
        <ele>263</ele>
        <time>2016-08-18T16:44:45Z</time>
      </trkpt>
      <trkpt lat="47.11319" lon="3.32054">
        <ele>262</ele>
        <time>2016-08-18T16:44:46Z</time>
      </trkpt>
      <trkpt lat="47.11321" lon="3.32055">
        <ele>262</ele>
        <time>2016-08-18T16:44:47Z</time>
      </trkpt>
      <trkpt lat="47.1133" lon="3.32063">
        <ele>261</ele>
        <time>2016-08-18T16:44:48Z</time>
      </trkpt>
      <trkpt lat="47.11338" lon="3.32069">
        <ele>261</ele>
        <time>2016-08-18T16:44:49Z</time>
      </trkpt>
      <trkpt lat="47.11347" lon="3.32074">
        <ele>260</ele>
        <time>2016-08-18T16:44:50Z</time>
      </trkpt>
      <trkpt lat="47.11356" lon="3.32079">
        <ele>260</ele>
        <time>2016-08-18T16:44:51Z</time>
      </trkpt>
      <trkpt lat="47.11365" lon="3.32084">
        <ele>260</ele>
        <time>2016-08-18T16:44:52Z</time>
      </trkpt>
      <trkpt lat="47.11374" lon="3.32088">
        <ele>260</ele>
        <time>2016-08-18T16:44:53Z</time>
      </trkpt>
      <trkpt lat="47.11384" lon="3.32089">
        <ele>260</ele>
        <time>2016-08-18T16:44:54Z</time>
      </trkpt>
      <trkpt lat="47.11393" lon="3.3209">
        <ele>260</ele>
        <time>2016-08-18T16:44:55Z</time>
      </trkpt>
      <trkpt lat="47.11408" lon="3.32091">
        <ele>259</ele>
        <time>2016-08-18T16:44:57Z</time>
      </trkpt>
      <trkpt lat="47.11412" lon="3.3209">
        <ele>259</ele>
        <time>2016-08-18T16:44:57Z</time>
      </trkpt>
      <trkpt lat="47.11422" lon="3.32089">
        <ele>259</ele>
        <time>2016-08-18T16:44:58Z</time>
      </trkpt>
      <trkpt lat="47.11436" lon="3.32085">
        <ele>258</ele>
        <time>2016-08-18T16:44:59Z</time>
      </trkpt>
      <trkpt lat="47.11441" lon="3.32083">
        <ele>258</ele>
        <time>2016-08-18T16:45:00Z</time>
      </trkpt>
      <trkpt lat="47.11451" lon="3.3208">
        <ele>257</ele>
        <time>2016-08-18T16:45:01Z</time>
      </trkpt>
      <trkpt lat="47.11465" lon="3.32077">
        <ele>257</ele>
        <time>2016-08-18T16:45:03Z</time>
      </trkpt>
      <trkpt lat="47.11471" lon="3.32075">
        <ele>256</ele>
        <time>2016-08-18T16:45:03Z</time>
      </trkpt>
      <trkpt lat="47.11485" lon="3.32071">
        <ele>256</ele>
        <time>2016-08-18T16:45:05Z</time>
      </trkpt>
      <trkpt lat="47.11495" lon="3.32069">
        <ele>255</ele>
        <time>2016-08-18T16:45:06Z</time>
      </trkpt>
      <trkpt lat="47.11502" lon="3.32069">
        <ele>255</ele>
        <time>2016-08-18T16:45:06Z</time>
      </trkpt>
      <trkpt lat="47.11513" lon="3.32068">
        <ele>255</ele>
        <time>2016-08-18T16:45:07Z</time>
      </trkpt>
      <trkpt lat="47.11524" lon="3.32068">
        <ele>254</ele>
        <time>2016-08-18T16:45:08Z</time>
      </trkpt>
      <trkpt lat="47.11534" lon="3.32069">
        <ele>253</ele>
        <time>2016-08-18T16:45:09Z</time>
      </trkpt>
      <trkpt lat="47.11545" lon="3.32071">
        <ele>252</ele>
        <time>2016-08-18T16:45:10Z</time>
      </trkpt>
      <trkpt lat="47.11555" lon="3.32073">
        <ele>252</ele>
        <time>2016-08-18T16:45:11Z</time>
      </trkpt>
      <trkpt lat="47.11565" lon="3.32076">
        <ele>252</ele>
        <time>2016-08-18T16:45:12Z</time>
      </trkpt>
      <trkpt lat="47.11576" lon="3.32079">
        <ele>251</ele>
        <time>2016-08-18T16:45:13Z</time>
      </trkpt>
      <trkpt lat="47.11589" lon="3.32081">
        <ele>252</ele>
        <time>2016-08-18T16:45:15Z</time>
      </trkpt>
      <trkpt lat="47.11597" lon="3.32083">
        <ele>251</ele>
        <time>2016-08-18T16:45:15Z</time>
      </trkpt>
      <trkpt lat="47.11608" lon="3.32085">
        <ele>251</ele>
        <time>2016-08-18T16:45:16Z</time>
      </trkpt>
      <trkpt lat="47.11619" lon="3.32087">
        <ele>250</ele>
        <time>2016-08-18T16:45:17Z</time>
      </trkpt>
      <trkpt lat="47.11628" lon="3.3209">
        <ele>251</ele>
        <time>2016-08-18T16:45:18Z</time>
      </trkpt>
      <trkpt lat="47.11638" lon="3.32093">
        <ele>250</ele>
        <time>2016-08-18T16:45:19Z</time>
      </trkpt>
      <trkpt lat="47.11649" lon="3.32095">
        <ele>250</ele>
        <time>2016-08-18T16:45:20Z</time>
      </trkpt>
      <trkpt lat="47.11659" lon="3.32097">
        <ele>250</ele>
        <time>2016-08-18T16:45:21Z</time>
      </trkpt>
      <trkpt lat="47.1167" lon="3.321">
        <ele>250</ele>
        <time>2016-08-18T16:45:23Z</time>
      </trkpt>
      <trkpt lat="47.11689" lon="3.32104">
        <ele>250</ele>
        <time>2016-08-18T16:45:24Z</time>
      </trkpt>
      <trkpt lat="47.11691" lon="3.32105">
        <ele>250</ele>
        <time>2016-08-18T16:45:25Z</time>
      </trkpt>
      <trkpt lat="47.11709" lon="3.32108">
        <ele>250</ele>
        <time>2016-08-18T16:45:26Z</time>
      </trkpt>
      <trkpt lat="47.1171" lon="3.32109">
        <ele>250</ele>
        <time>2016-08-18T16:45:27Z</time>
      </trkpt>
      <trkpt lat="47.1172" lon="3.32111">
        <ele>250</ele>
        <time>2016-08-18T16:45:28Z</time>
      </trkpt>
      <trkpt lat="47.11729" lon="3.32113">
        <ele>250</ele>
        <time>2016-08-18T16:45:29Z</time>
      </trkpt>
      <trkpt lat="47.11739" lon="3.32115">
        <ele>250</ele>
        <time>2016-08-18T16:45:30Z</time>
      </trkpt>
      <trkpt lat="47.11749" lon="3.32116">
        <ele>250</ele>
        <time>2016-08-18T16:45:31Z</time>
      </trkpt>
      <trkpt lat="47.11757" lon="3.32118">
        <ele>250</ele>
        <time>2016-08-18T16:45:32Z</time>
      </trkpt>
      <trkpt lat="47.11766" lon="3.32121">
        <ele>250</ele>
        <time>2016-08-18T16:45:33Z</time>
      </trkpt>
      <trkpt lat="47.11774" lon="3.32122">
        <ele>250</ele>
        <time>2016-08-18T16:45:34Z</time>
      </trkpt>
      <trkpt lat="47.11783" lon="3.32124">
        <ele>250</ele>
        <time>2016-08-18T16:45:35Z</time>
      </trkpt>
      <trkpt lat="47.11791" lon="3.32126">
        <ele>250</ele>
        <time>2016-08-18T16:45:36Z</time>
      </trkpt>
      <trkpt lat="47.11799" lon="3.32128">
        <ele>250</ele>
        <time>2016-08-18T16:45:37Z</time>
      </trkpt>
      <trkpt lat="47.11808" lon="3.32129">
        <ele>250</ele>
        <time>2016-08-18T16:45:38Z</time>
      </trkpt>
      <trkpt lat="47.11817" lon="3.3213">
        <ele>250</ele>
        <time>2016-08-18T16:45:39Z</time>
      </trkpt>
      <trkpt lat="47.11825" lon="3.32132">
        <ele>250</ele>
        <time>2016-08-18T16:45:40Z</time>
      </trkpt>
      <trkpt lat="47.11834" lon="3.32134">
        <ele>250</ele>
        <time>2016-08-18T16:45:41Z</time>
      </trkpt>
      <trkpt lat="47.11843" lon="3.32135">
        <ele>250</ele>
        <time>2016-08-18T16:45:42Z</time>
      </trkpt>
      <trkpt lat="47.11851" lon="3.32136">
        <ele>250</ele>
        <time>2016-08-18T16:45:43Z</time>
      </trkpt>
      <trkpt lat="47.1186" lon="3.32138">
        <ele>249</ele>
        <time>2016-08-18T16:45:44Z</time>
      </trkpt>
      <trkpt lat="47.11869" lon="3.32139">
        <ele>249</ele>
        <time>2016-08-18T16:45:45Z</time>
      </trkpt>
      <trkpt lat="47.11877" lon="3.32141">
        <ele>249</ele>
        <time>2016-08-18T16:45:46Z</time>
      </trkpt>
      <trkpt lat="47.11885" lon="3.32143">
        <ele>248</ele>
        <time>2016-08-18T16:45:47Z</time>
      </trkpt>
      <trkpt lat="47.11893" lon="3.32145">
        <ele>248</ele>
        <time>2016-08-18T16:45:48Z</time>
      </trkpt>
      <trkpt lat="47.11901" lon="3.32147">
        <ele>248</ele>
        <time>2016-08-18T16:45:49Z</time>
      </trkpt>
      <trkpt lat="47.11909" lon="3.3215">
        <ele>248</ele>
        <time>2016-08-18T16:45:50Z</time>
      </trkpt>
      <trkpt lat="47.11918" lon="3.32152">
        <ele>248</ele>
        <time>2016-08-18T16:45:51Z</time>
      </trkpt>
      <trkpt lat="47.11927" lon="3.32154">
        <ele>248</ele>
        <time>2016-08-18T16:45:52Z</time>
      </trkpt>
      <trkpt lat="47.11936" lon="3.32156">
        <ele>247</ele>
        <time>2016-08-18T16:45:53Z</time>
      </trkpt>
      <trkpt lat="47.11945" lon="3.32159">
        <ele>247</ele>
        <time>2016-08-18T16:45:54Z</time>
      </trkpt>
      <trkpt lat="47.11956" lon="3.32162">
        <ele>246</ele>
        <time>2016-08-18T16:45:55Z</time>
      </trkpt>
      <trkpt lat="47.11962" lon="3.32163">
        <ele>246</ele>
        <time>2016-08-18T16:45:56Z</time>
      </trkpt>
      <trkpt lat="47.11971" lon="3.32164">
        <ele>246</ele>
        <time>2016-08-18T16:45:57Z</time>
      </trkpt>
      <trkpt lat="47.11982" lon="3.32169">
        <ele>246</ele>
        <time>2016-08-18T16:45:59Z</time>
      </trkpt>
      <trkpt lat="47.11991" lon="3.32171">
        <ele>245</ele>
        <time>2016-08-18T16:46:00Z</time>
      </trkpt>
      <trkpt lat="47.11998" lon="3.32172">
        <ele>245</ele>
        <time>2016-08-18T16:46:00Z</time>
      </trkpt>
      <trkpt lat="47.12008" lon="3.32174">
        <ele>245</ele>
        <time>2016-08-18T16:46:01Z</time>
      </trkpt>
      <trkpt lat="47.12017" lon="3.32175">
        <ele>245</ele>
        <time>2016-08-18T16:46:02Z</time>
      </trkpt>
      <trkpt lat="47.12026" lon="3.32179">
        <ele>244</ele>
        <time>2016-08-18T16:46:03Z</time>
      </trkpt>
      <trkpt lat="47.12035" lon="3.32181">
        <ele>244</ele>
        <time>2016-08-18T16:46:04Z</time>
      </trkpt>
      <trkpt lat="47.12045" lon="3.32183">
        <ele>244</ele>
        <time>2016-08-18T16:46:05Z</time>
      </trkpt>
      <trkpt lat="47.12054" lon="3.32185">
        <ele>244</ele>
        <time>2016-08-18T16:46:06Z</time>
      </trkpt>
      <trkpt lat="47.12063" lon="3.32187">
        <ele>244</ele>
        <time>2016-08-18T16:46:07Z</time>
      </trkpt>
      <trkpt lat="47.12072" lon="3.32189">
        <ele>244</ele>
        <time>2016-08-18T16:46:08Z</time>
      </trkpt>
      <trkpt lat="47.12082" lon="3.32191">
        <ele>243</ele>
        <time>2016-08-18T16:46:10Z</time>
      </trkpt>
      <trkpt lat="47.12091" lon="3.32194">
        <ele>243</ele>
        <time>2016-08-18T16:46:11Z</time>
      </trkpt>
      <trkpt lat="47.121" lon="3.32198">
        <ele>243</ele>
        <time>2016-08-18T16:46:12Z</time>
      </trkpt>
      <trkpt lat="47.12108" lon="3.322">
        <ele>242</ele>
        <time>2016-08-18T16:46:13Z</time>
      </trkpt>
      <trkpt lat="47.12119" lon="3.32212">
        <ele>241</ele>
        <time>2016-08-18T16:46:14Z</time>
      </trkpt>
      <trkpt lat="47.1212" lon="3.32214">
        <ele>240</ele>
        <time>2016-08-18T16:46:15Z</time>
      </trkpt>
      <trkpt lat="47.12123" lon="3.32232">
        <ele>241</ele>
        <time>2016-08-18T16:46:16Z</time>
      </trkpt>
      <trkpt lat="47.12123" lon="3.32235">
        <ele>241</ele>
        <time>2016-08-18T16:46:17Z</time>
      </trkpt>
      <trkpt lat="47.12119" lon="3.32254">
        <ele>242</ele>
        <time>2016-08-18T16:46:19Z</time>
      </trkpt>
      <trkpt lat="47.12118" lon="3.32257">
        <ele>242</ele>
        <time>2016-08-18T16:46:19Z</time>
      </trkpt>
      <trkpt lat="47.12116" lon="3.32267">
        <ele>242</ele>
        <time>2016-08-18T16:46:20Z</time>
      </trkpt>
      <trkpt lat="47.12114" lon="3.32277">
        <ele>242</ele>
        <time>2016-08-18T16:46:21Z</time>
      </trkpt>
      <trkpt lat="47.12112" lon="3.32289">
        <ele>242</ele>
        <time>2016-08-18T16:46:22Z</time>
      </trkpt>
      <trkpt lat="47.12112" lon="3.32299">
        <ele>242</ele>
        <time>2016-08-18T16:46:23Z</time>
      </trkpt>
      <trkpt lat="47.12111" lon="3.32309">
        <ele>242</ele>
        <time>2016-08-18T16:46:24Z</time>
      </trkpt>
      <trkpt lat="47.12109" lon="3.32321">
        <ele>242</ele>
        <time>2016-08-18T16:46:25Z</time>
      </trkpt>
      <trkpt lat="47.12108" lon="3.32324">
        <ele>243</ele>
        <time>2016-08-18T16:46:26Z</time>
      </trkpt>
      <trkpt lat="47.12106" lon="3.32331">
        <ele>243</ele>
        <time>2016-08-18T16:46:27Z</time>
      </trkpt>
      <trkpt lat="47.12103" lon="3.32342">
        <ele>243</ele>
        <time>2016-08-18T16:46:29Z</time>
      </trkpt>
      <trkpt lat="47.12102" lon="3.32344">
        <ele>243</ele>
        <time>2016-08-18T16:46:29Z</time>
      </trkpt>
      <trkpt lat="47.12101" lon="3.32351">
        <ele>244</ele>
        <time>2016-08-18T16:46:30Z</time>
      </trkpt>
      <trkpt lat="47.12098" lon="3.3236">
        <ele>244</ele>
        <time>2016-08-18T16:46:31Z</time>
      </trkpt>
      <trkpt lat="47.12098" lon="3.32363">
        <ele>244</ele>
        <time>2016-08-18T16:46:32Z</time>
      </trkpt>
      <trkpt lat="47.12097" lon="3.32372">
        <ele>245</ele>
        <time>2016-08-18T16:46:33Z</time>
      </trkpt>
      <trkpt lat="47.12096" lon="3.32376">
        <ele>245</ele>
        <time>2016-08-18T16:46:34Z</time>
      </trkpt>
      <trkpt lat="47.12095" lon="3.32382">
        <ele>245</ele>
        <time>2016-08-18T16:46:35Z</time>
      </trkpt>
      <trkpt lat="47.12094" lon="3.32386">
        <ele>245</ele>
        <time>2016-08-18T16:46:36Z</time>
      </trkpt>
      <trkpt lat="47.12093" lon="3.32392">
        <ele>245</ele>
        <time>2016-08-18T16:46:37Z</time>
      </trkpt>
      <trkpt lat="47.12092" lon="3.32397">
        <ele>245</ele>
        <time>2016-08-18T16:46:38Z</time>
      </trkpt>
      <trkpt lat="47.12092" lon="3.32403">
        <ele>246</ele>
        <time>2016-08-18T16:46:39Z</time>
      </trkpt>
      <trkpt lat="47.12091" lon="3.32411">
        <ele>247</ele>
        <time>2016-08-18T16:46:41Z</time>
      </trkpt>
      <trkpt lat="47.1209" lon="3.32414">
        <ele>247</ele>
        <time>2016-08-18T16:46:41Z</time>
      </trkpt>
      <trkpt lat="47.12089" lon="3.32419">
        <ele>248</ele>
        <time>2016-08-18T16:46:42Z</time>
      </trkpt>
      <trkpt lat="47.12089" lon="3.32424">
        <ele>248</ele>
        <time>2016-08-18T16:46:43Z</time>
      </trkpt>
      <trkpt lat="47.12088" lon="3.3243">
        <ele>248</ele>
        <time>2016-08-18T16:46:44Z</time>
      </trkpt>
      <trkpt lat="47.12087" lon="3.32436">
        <ele>249</ele>
        <time>2016-08-18T16:46:45Z</time>
      </trkpt>
      <trkpt lat="47.12086" lon="3.32441">
        <ele>250</ele>
        <time>2016-08-18T16:46:47Z</time>
      </trkpt>
      <trkpt lat="47.12086" lon="3.32447">
        <ele>251</ele>
        <time>2016-08-18T16:46:48Z</time>
      </trkpt>
      <trkpt lat="47.12085" lon="3.32451">
        <ele>251</ele>
        <time>2016-08-18T16:46:48Z</time>
      </trkpt>
      <trkpt lat="47.12085" lon="3.32457">
        <ele>251</ele>
        <time>2016-08-18T16:46:50Z</time>
      </trkpt>
      <trkpt lat="47.12085" lon="3.32461">
        <ele>251</ele>
        <time>2016-08-18T16:46:50Z</time>
      </trkpt>
      <trkpt lat="47.12084" lon="3.32465">
        <ele>252</ele>
        <time>2016-08-18T16:46:51Z</time>
      </trkpt>
      <trkpt lat="47.12084" lon="3.32471">
        <ele>251</ele>
        <time>2016-08-18T16:46:52Z</time>
      </trkpt>
      <trkpt lat="47.12084" lon="3.32476">
        <ele>251</ele>
        <time>2016-08-18T16:46:53Z</time>
      </trkpt>
      <trkpt lat="47.12085" lon="3.32482">
        <ele>252</ele>
        <time>2016-08-18T16:46:54Z</time>
      </trkpt>
      <trkpt lat="47.12085" lon="3.32488">
        <ele>252</ele>
        <time>2016-08-18T16:46:55Z</time>
      </trkpt>
      <trkpt lat="47.12085" lon="3.32494">
        <ele>252</ele>
        <time>2016-08-18T16:46:57Z</time>
      </trkpt>
      <trkpt lat="47.12085" lon="3.32501">
        <ele>252</ele>
        <time>2016-08-18T16:46:58Z</time>
      </trkpt>
      <trkpt lat="47.12085" lon="3.32509">
        <ele>251</ele>
        <time>2016-08-18T16:46:59Z</time>
      </trkpt>
      <trkpt lat="47.12085" lon="3.32516">
        <ele>251</ele>
        <time>2016-08-18T16:47:00Z</time>
      </trkpt>
      <trkpt lat="47.12085" lon="3.32532">
        <ele>252</ele>
        <time>2016-08-18T16:47:01Z</time>
      </trkpt>
      <trkpt lat="47.12084" lon="3.32542">
        <ele>252</ele>
        <time>2016-08-18T16:47:02Z</time>
      </trkpt>
      <trkpt lat="47.12084" lon="3.32544">
        <ele>252</ele>
        <time>2016-08-18T16:47:03Z</time>
      </trkpt>
      <trkpt lat="47.12082" lon="3.32562">
        <ele>252</ele>
        <time>2016-08-18T16:47:04Z</time>
      </trkpt>
      <trkpt lat="47.12082" lon="3.32564">
        <ele>252</ele>
        <time>2016-08-18T16:47:05Z</time>
      </trkpt>
      <trkpt lat="47.12082" lon="3.32576">
        <ele>251</ele>
        <time>2016-08-18T16:47:06Z</time>
      </trkpt>
      <trkpt lat="47.12081" lon="3.32588">
        <ele>251</ele>
        <time>2016-08-18T16:47:07Z</time>
      </trkpt>
      <trkpt lat="47.1208" lon="3.32599">
        <ele>251</ele>
        <time>2016-08-18T16:47:08Z</time>
      </trkpt>
      <trkpt lat="47.12078" lon="3.32611">
        <ele>251</ele>
        <time>2016-08-18T16:47:09Z</time>
      </trkpt>
      <trkpt lat="47.12077" lon="3.32633">
        <ele>251</ele>
        <time>2016-08-18T16:47:11Z</time>
      </trkpt>
      <trkpt lat="47.12077" lon="3.32635">
        <ele>251</ele>
        <time>2016-08-18T16:47:11Z</time>
      </trkpt>
      <trkpt lat="47.12077" lon="3.32648">
        <ele>251</ele>
        <time>2016-08-18T16:47:12Z</time>
      </trkpt>
      <trkpt lat="47.12075" lon="3.3266">
        <ele>250</ele>
        <time>2016-08-18T16:47:13Z</time>
      </trkpt>
      <trkpt lat="47.12074" lon="3.32673">
        <ele>249</ele>
        <time>2016-08-18T16:47:14Z</time>
      </trkpt>
      <trkpt lat="47.12073" lon="3.32687">
        <ele>247</ele>
        <time>2016-08-18T16:47:15Z</time>
      </trkpt>
      <trkpt lat="47.12073" lon="3.327">
        <ele>248</ele>
        <time>2016-08-18T16:47:16Z</time>
      </trkpt>
      <trkpt lat="47.12072" lon="3.32713">
        <ele>247</ele>
        <time>2016-08-18T16:47:17Z</time>
      </trkpt>
      <trkpt lat="47.12071" lon="3.32726">
        <ele>248</ele>
        <time>2016-08-18T16:47:18Z</time>
      </trkpt>
      <trkpt lat="47.1207" lon="3.32747">
        <ele>247</ele>
        <time>2016-08-18T16:47:20Z</time>
      </trkpt>
      <trkpt lat="47.12069" lon="3.32752">
        <ele>247</ele>
        <time>2016-08-18T16:47:20Z</time>
      </trkpt>
      <trkpt lat="47.12068" lon="3.32766">
        <ele>246</ele>
        <time>2016-08-18T16:47:21Z</time>
      </trkpt>
      <trkpt lat="47.12066" lon="3.32783">
        <ele>246</ele>
        <time>2016-08-18T16:47:22Z</time>
      </trkpt>
      <trkpt lat="47.12065" lon="3.32795">
        <ele>245</ele>
        <time>2016-08-18T16:47:23Z</time>
      </trkpt>
      <trkpt lat="47.12065" lon="3.32802">
        <ele>245</ele>
        <time>2016-08-18T16:47:24Z</time>
      </trkpt>
      <trkpt lat="47.12062" lon="3.32822">
        <ele>245</ele>
        <time>2016-08-18T16:47:25Z</time>
      </trkpt>
      <trkpt lat="47.12062" lon="3.3283">
        <ele>244</ele>
        <time>2016-08-18T16:47:26Z</time>
      </trkpt>
      <trkpt lat="47.1206" lon="3.32849">
        <ele>244</ele>
        <time>2016-08-18T16:47:28Z</time>
      </trkpt>
      <trkpt lat="47.1206" lon="3.32857">
        <ele>243</ele>
        <time>2016-08-18T16:47:28Z</time>
      </trkpt>
      <trkpt lat="47.12059" lon="3.3287">
        <ele>243</ele>
        <time>2016-08-18T16:47:29Z</time>
      </trkpt>
      <trkpt lat="47.12059" lon="3.32883">
        <ele>243</ele>
        <time>2016-08-18T16:47:30Z</time>
      </trkpt>
      <trkpt lat="47.1206" lon="3.32896">
        <ele>242</ele>
        <time>2016-08-18T16:47:31Z</time>
      </trkpt>
      <trkpt lat="47.12062" lon="3.32909">
        <ele>242</ele>
        <time>2016-08-18T16:47:32Z</time>
      </trkpt>
      <trkpt lat="47.12064" lon="3.32925">
        <ele>243</ele>
        <time>2016-08-18T16:47:33Z</time>
      </trkpt>
      <trkpt lat="47.12067" lon="3.32937">
        <ele>243</ele>
        <time>2016-08-18T16:47:34Z</time>
      </trkpt>
      <trkpt lat="47.1207" lon="3.32949">
        <ele>243</ele>
        <time>2016-08-18T16:47:36Z</time>
      </trkpt>
      <trkpt lat="47.12072" lon="3.32961">
        <ele>242</ele>
        <time>2016-08-18T16:47:37Z</time>
      </trkpt>
      <trkpt lat="47.12074" lon="3.3297">
        <ele>242</ele>
        <time>2016-08-18T16:47:37Z</time>
      </trkpt>
      <trkpt lat="47.12077" lon="3.32984">
        <ele>242</ele>
        <time>2016-08-18T16:47:38Z</time>
      </trkpt>
      <trkpt lat="47.12079" lon="3.32997">
        <ele>242</ele>
        <time>2016-08-18T16:47:40Z</time>
      </trkpt>
      <trkpt lat="47.12082" lon="3.33007">
        <ele>242</ele>
        <time>2016-08-18T16:47:40Z</time>
      </trkpt>
      <trkpt lat="47.12084" lon="3.33019">
        <ele>242</ele>
        <time>2016-08-18T16:47:41Z</time>
      </trkpt>
      <trkpt lat="47.12087" lon="3.3303">
        <ele>242</ele>
        <time>2016-08-18T16:47:42Z</time>
      </trkpt>
      <trkpt lat="47.1209" lon="3.33041">
        <ele>242</ele>
        <time>2016-08-18T16:47:43Z</time>
      </trkpt>
      <trkpt lat="47.12092" lon="3.33052">
        <ele>242</ele>
        <time>2016-08-18T16:47:44Z</time>
      </trkpt>
      <trkpt lat="47.12095" lon="3.33063">
        <ele>243</ele>
        <time>2016-08-18T16:47:45Z</time>
      </trkpt>
      <trkpt lat="47.12098" lon="3.33073">
        <ele>243</ele>
        <time>2016-08-18T16:47:46Z</time>
      </trkpt>
      <trkpt lat="47.121" lon="3.33084">
        <ele>243</ele>
        <time>2016-08-18T16:47:48Z</time>
      </trkpt>
      <trkpt lat="47.12102" lon="3.33093">
        <ele>245</ele>
        <time>2016-08-18T16:47:49Z</time>
      </trkpt>
      <trkpt lat="47.12104" lon="3.33102">
        <ele>245</ele>
        <time>2016-08-18T16:47:50Z</time>
      </trkpt>
      <trkpt lat="47.12106" lon="3.3311">
        <ele>245</ele>
        <time>2016-08-18T16:47:51Z</time>
      </trkpt>
      <trkpt lat="47.12108" lon="3.33118">
        <ele>246</ele>
        <time>2016-08-18T16:47:52Z</time>
      </trkpt>
      <trkpt lat="47.12112" lon="3.33131">
        <ele>248</ele>
        <time>2016-08-18T16:47:53Z</time>
      </trkpt>
      <trkpt lat="47.12112" lon="3.33133">
        <ele>248</ele>
        <time>2016-08-18T16:47:54Z</time>
      </trkpt>
      <trkpt lat="47.12113" lon="3.33139">
        <ele>248</ele>
        <time>2016-08-18T16:47:55Z</time>
      </trkpt>
      <trkpt lat="47.12116" lon="3.33152">
        <ele>249</ele>
        <time>2016-08-18T16:47:57Z</time>
      </trkpt>
      <trkpt lat="47.12117" lon="3.33153">
        <ele>249</ele>
        <time>2016-08-18T16:47:57Z</time>
      </trkpt>
      <trkpt lat="47.12118" lon="3.33159">
        <ele>249</ele>
        <time>2016-08-18T16:47:58Z</time>
      </trkpt>
      <trkpt lat="47.12119" lon="3.3317">
        <ele>249</ele>
        <time>2016-08-18T16:47:59Z</time>
      </trkpt>
      <trkpt lat="47.1212" lon="3.33172">
        <ele>250</ele>
        <time>2016-08-18T16:48:00Z</time>
      </trkpt>
      <trkpt lat="47.12121" lon="3.33178">
        <ele>250</ele>
        <time>2016-08-18T16:48:01Z</time>
      </trkpt>
      <trkpt lat="47.12122" lon="3.33184">
        <ele>250</ele>
        <time>2016-08-18T16:48:02Z</time>
      </trkpt>
      <trkpt lat="47.12123" lon="3.3319">
        <ele>251</ele>
        <time>2016-08-18T16:48:03Z</time>
      </trkpt>
      <trkpt lat="47.12125" lon="3.33198">
        <ele>252</ele>
        <time>2016-08-18T16:48:05Z</time>
      </trkpt>
      <trkpt lat="47.12126" lon="3.33201">
        <ele>252</ele>
        <time>2016-08-18T16:48:05Z</time>
      </trkpt>
      <trkpt lat="47.12127" lon="3.33206">
        <ele>252</ele>
        <time>2016-08-18T16:48:06Z</time>
      </trkpt>
      <trkpt lat="47.12128" lon="3.33212">
        <ele>252</ele>
        <time>2016-08-18T16:48:07Z</time>
      </trkpt>
      <trkpt lat="47.12129" lon="3.33217">
        <ele>253</ele>
        <time>2016-08-18T16:48:08Z</time>
      </trkpt>
      <trkpt lat="47.12131" lon="3.33224">
        <ele>253</ele>
        <time>2016-08-18T16:48:09Z</time>
      </trkpt>
      <trkpt lat="47.12132" lon="3.33229">
        <ele>254</ele>
        <time>2016-08-18T16:48:10Z</time>
      </trkpt>
      <trkpt lat="47.12133" lon="3.33232">
        <ele>254</ele>
        <time>2016-08-18T16:48:11Z</time>
      </trkpt>
      <trkpt lat="47.12134" lon="3.33236">
        <ele>255</ele>
        <time>2016-08-18T16:48:12Z</time>
      </trkpt>
      <trkpt lat="47.12135" lon="3.33242">
        <ele>255</ele>
        <time>2016-08-18T16:48:13Z</time>
      </trkpt>
      <trkpt lat="47.12137" lon="3.33247">
        <ele>256</ele>
        <time>2016-08-18T16:48:14Z</time>
      </trkpt>
      <trkpt lat="47.12138" lon="3.33252">
        <ele>256</ele>
        <time>2016-08-18T16:48:15Z</time>
      </trkpt>
      <trkpt lat="47.12139" lon="3.33259">
        <ele>256</ele>
        <time>2016-08-18T16:48:16Z</time>
      </trkpt>
      <trkpt lat="47.12141" lon="3.33264">
        <ele>257</ele>
        <time>2016-08-18T16:48:17Z</time>
      </trkpt>
      <trkpt lat="47.12142" lon="3.33271">
        <ele>257</ele>
        <time>2016-08-18T16:48:18Z</time>
      </trkpt>
      <trkpt lat="47.12144" lon="3.33276">
        <ele>257</ele>
        <time>2016-08-18T16:48:19Z</time>
      </trkpt>
      <trkpt lat="47.12145" lon="3.33282">
        <ele>258</ele>
        <time>2016-08-18T16:48:20Z</time>
      </trkpt>
      <trkpt lat="47.12147" lon="3.33288">
        <ele>257</ele>
        <time>2016-08-18T16:48:21Z</time>
      </trkpt>
      <trkpt lat="47.12148" lon="3.33294">
        <ele>257</ele>
        <time>2016-08-18T16:48:22Z</time>
      </trkpt>
      <trkpt lat="47.12149" lon="3.33299">
        <ele>258</ele>
        <time>2016-08-18T16:48:23Z</time>
      </trkpt>
      <trkpt lat="47.1215" lon="3.33303">
        <ele>258</ele>
        <time>2016-08-18T16:48:24Z</time>
      </trkpt>
      <trkpt lat="47.12151" lon="3.33308">
        <ele>258</ele>
        <time>2016-08-18T16:48:25Z</time>
      </trkpt>
      <trkpt lat="47.12153" lon="3.33314">
        <ele>258</ele>
        <time>2016-08-18T16:48:27Z</time>
      </trkpt>
      <trkpt lat="47.12153" lon="3.33318">
        <ele>259</ele>
        <time>2016-08-18T16:48:27Z</time>
      </trkpt>
      <trkpt lat="47.12155" lon="3.33323">
        <ele>259</ele>
        <time>2016-08-18T16:48:28Z</time>
      </trkpt>
      <trkpt lat="47.12157" lon="3.33328">
        <ele>259</ele>
        <time>2016-08-18T16:48:29Z</time>
      </trkpt>
      <trkpt lat="47.12158" lon="3.33332">
        <ele>259</ele>
        <time>2016-08-18T16:48:30Z</time>
      </trkpt>
      <trkpt lat="47.1216" lon="3.33336">
        <ele>259</ele>
        <time>2016-08-18T16:48:31Z</time>
      </trkpt>
      <trkpt lat="47.12162" lon="3.3334">
        <ele>259</ele>
        <time>2016-08-18T16:48:32Z</time>
      </trkpt>
      <trkpt lat="47.12164" lon="3.33345">
        <ele>259</ele>
        <time>2016-08-18T16:48:34Z</time>
      </trkpt>
      <trkpt lat="47.12167" lon="3.33349">
        <ele>259</ele>
        <time>2016-08-18T16:48:35Z</time>
      </trkpt>
      <trkpt lat="47.12169" lon="3.33353">
        <ele>259</ele>
        <time>2016-08-18T16:48:36Z</time>
      </trkpt>
      <trkpt lat="47.12171" lon="3.33357">
        <ele>259</ele>
        <time>2016-08-18T16:48:37Z</time>
      </trkpt>
      <trkpt lat="47.12176" lon="3.3337">
        <ele>258</ele>
        <time>2016-08-18T16:48:39Z</time>
      </trkpt>
      <trkpt lat="47.12186" lon="3.33388">
        <ele>261</ele>
        <time>2016-08-18T16:48:44Z</time>
      </trkpt>
      <trkpt lat="47.12195" lon="3.33406">
        <ele>262</ele>
        <time>2016-08-18T16:48:49Z</time>
      </trkpt>
      <trkpt lat="47.12205" lon="3.33422">
        <ele>264</ele>
        <time>2016-08-18T16:48:54Z</time>
      </trkpt>
      <trkpt lat="47.12213" lon="3.33446">
        <ele>263</ele>
        <time>2016-08-18T16:48:59Z</time>
      </trkpt>
      <trkpt lat="47.12227" lon="3.33466">
        <ele>263</ele>
        <time>2016-08-18T16:49:05Z</time>
      </trkpt>
      <trkpt lat="47.12239" lon="3.33491">
        <ele>264</ele>
        <time>2016-08-18T16:49:11Z</time>
      </trkpt>
      <trkpt lat="47.12245" lon="3.33504">
        <ele>265</ele>
        <time>2016-08-18T16:49:14Z</time>
      </trkpt>
      <trkpt lat="47.12256" lon="3.33526">
        <ele>265</ele>
        <time>2016-08-18T16:49:19Z</time>
      </trkpt>
      <trkpt lat="47.1227" lon="3.33555">
        <ele>265</ele>
        <time>2016-08-18T16:49:25Z</time>
      </trkpt>
      <trkpt lat="47.12281" lon="3.33577">
        <ele>265</ele>
        <time>2016-08-18T16:49:29Z</time>
      </trkpt>
      <trkpt lat="47.12309" lon="3.33642">
        <ele>263</ele>
        <time>2016-08-18T16:49:38Z</time>
      </trkpt>
      <trkpt lat="47.12312" lon="3.33651">
        <ele>263</ele>
        <time>2016-08-18T16:49:39Z</time>
      </trkpt>
      <trkpt lat="47.12325" lon="3.33696">
        <ele>262</ele>
        <time>2016-08-18T16:49:44Z</time>
      </trkpt>
      <trkpt lat="47.12356" lon="3.33737">
        <ele>260</ele>
        <time>2016-08-18T16:49:49Z</time>
      </trkpt>
      <trkpt lat="47.12401" lon="3.33797">
        <ele>257</ele>
        <time>2016-08-18T16:49:55Z</time>
      </trkpt>
      <trkpt lat="47.1246" lon="3.33875">
        <ele>255</ele>
        <time>2016-08-18T16:50:03Z</time>
      </trkpt>
      <trkpt lat="47.12466" lon="3.33883">
        <ele>256</ele>
        <time>2016-08-18T16:50:04Z</time>
      </trkpt>
      <trkpt lat="47.12484" lon="3.33919">
        <ele>257</ele>
        <time>2016-08-18T16:50:09Z</time>
      </trkpt>
      <trkpt lat="47.12498" lon="3.33952">
        <ele>260</ele>
        <time>2016-08-18T16:50:14Z</time>
      </trkpt>
      <trkpt lat="47.12508" lon="3.33982">
        <ele>262</ele>
        <time>2016-08-18T16:50:19Z</time>
      </trkpt>
      <trkpt lat="47.12521" lon="3.34014">
        <ele>263</ele>
        <time>2016-08-18T16:50:25Z</time>
      </trkpt>
      <trkpt lat="47.12528" lon="3.34034">
        <ele>262</ele>
        <time>2016-08-18T16:50:29Z</time>
      </trkpt>
      <trkpt lat="47.1254" lon="3.34059">
        <ele>264</ele>
        <time>2016-08-18T16:50:34Z</time>
      </trkpt>
      <trkpt lat="47.12547" lon="3.34085">
        <ele>263</ele>
        <time>2016-08-18T16:50:39Z</time>
      </trkpt>
      <trkpt lat="47.12557" lon="3.34106">
        <ele>264</ele>
        <time>2016-08-18T16:50:44Z</time>
      </trkpt>
      <trkpt lat="47.12567" lon="3.34131">
        <ele>264</ele>
        <time>2016-08-18T16:50:49Z</time>
      </trkpt>
      <trkpt lat="47.12576" lon="3.34156">
        <ele>264</ele>
        <time>2016-08-18T16:50:54Z</time>
      </trkpt>
      <trkpt lat="47.12587" lon="3.34185">
        <ele>264</ele>
        <time>2016-08-18T16:50:59Z</time>
      </trkpt>
      <trkpt lat="47.12599" lon="3.34213">
        <ele>262</ele>
        <time>2016-08-18T16:51:04Z</time>
      </trkpt>
      <trkpt lat="47.12611" lon="3.34248">
        <ele>263</ele>
        <time>2016-08-18T16:51:09Z</time>
      </trkpt>
      <trkpt lat="47.12623" lon="3.34282">
        <ele>264</ele>
        <time>2016-08-18T16:51:14Z</time>
      </trkpt>
      <trkpt lat="47.12625" lon="3.34287">
        <ele>264</ele>
        <time>2016-08-18T16:51:15Z</time>
      </trkpt>
      <trkpt lat="47.12628" lon="3.34294">
        <ele>264</ele>
        <time>2016-08-18T16:51:16Z</time>
      </trkpt>
      <trkpt lat="47.12631" lon="3.34301">
        <ele>264</ele>
        <time>2016-08-18T16:51:17Z</time>
      </trkpt>
      <trkpt lat="47.12634" lon="3.34309">
        <ele>264</ele>
        <time>2016-08-18T16:51:18Z</time>
      </trkpt>
      <trkpt lat="47.12636" lon="3.34315">
        <ele>264</ele>
        <time>2016-08-18T16:51:19Z</time>
      </trkpt>
      <trkpt lat="47.12639" lon="3.34322">
        <ele>264</ele>
        <time>2016-08-18T16:51:20Z</time>
      </trkpt>
      <trkpt lat="47.12642" lon="3.3433">
        <ele>264</ele>
        <time>2016-08-18T16:51:21Z</time>
      </trkpt>
      <trkpt lat="47.12645" lon="3.34337">
        <ele>264</ele>
        <time>2016-08-18T16:51:22Z</time>
      </trkpt>
      <trkpt lat="47.12648" lon="3.34343">
        <ele>264</ele>
        <time>2016-08-18T16:51:23Z</time>
      </trkpt>
      <trkpt lat="47.12652" lon="3.3435">
        <ele>264</ele>
        <time>2016-08-18T16:51:24Z</time>
      </trkpt>
      <trkpt lat="47.12655" lon="3.34357">
        <ele>264</ele>
        <time>2016-08-18T16:51:25Z</time>
      </trkpt>
      <trkpt lat="47.12659" lon="3.34364">
        <ele>264</ele>
        <time>2016-08-18T16:51:27Z</time>
      </trkpt>
      <trkpt lat="47.12663" lon="3.3437">
        <ele>264</ele>
        <time>2016-08-18T16:51:28Z</time>
      </trkpt>
      <trkpt lat="47.12666" lon="3.34376">
        <ele>264</ele>
        <time>2016-08-18T16:51:29Z</time>
      </trkpt>
      <trkpt lat="47.12669" lon="3.34383">
        <ele>264</ele>
        <time>2016-08-18T16:51:30Z</time>
      </trkpt>
      <trkpt lat="47.12673" lon="3.34389">
        <ele>264</ele>
        <time>2016-08-18T16:51:31Z</time>
      </trkpt>
      <trkpt lat="47.12679" lon="3.34399">
        <ele>263</ele>
        <time>2016-08-18T16:51:32Z</time>
      </trkpt>
      <trkpt lat="47.1268" lon="3.344">
        <ele>263</ele>
        <time>2016-08-18T16:51:33Z</time>
      </trkpt>
      <trkpt lat="47.12687" lon="3.34411">
        <ele>263</ele>
        <time>2016-08-18T16:51:35Z</time>
      </trkpt>
      <trkpt lat="47.12687" lon="3.34412">
        <ele>263</ele>
        <time>2016-08-18T16:51:35Z</time>
      </trkpt>
      <trkpt lat="47.12691" lon="3.34418">
        <ele>263</ele>
        <time>2016-08-18T16:51:36Z</time>
      </trkpt>
      <trkpt lat="47.12695" lon="3.34424">
        <ele>263</ele>
        <time>2016-08-18T16:51:37Z</time>
      </trkpt>
      <trkpt lat="47.12699" lon="3.34431">
        <ele>263</ele>
        <time>2016-08-18T16:51:38Z</time>
      </trkpt>
      <trkpt lat="47.12703" lon="3.34437">
        <ele>263</ele>
        <time>2016-08-18T16:51:39Z</time>
      </trkpt>
      <trkpt lat="47.1271" lon="3.34448">
        <ele>262</ele>
        <time>2016-08-18T16:51:40Z</time>
      </trkpt>
      <trkpt lat="47.12711" lon="3.3445">
        <ele>262</ele>
        <time>2016-08-18T16:51:41Z</time>
      </trkpt>
      <trkpt lat="47.12715" lon="3.34457">
        <ele>262</ele>
        <time>2016-08-18T16:51:42Z</time>
      </trkpt>
      <trkpt lat="47.12719" lon="3.34464">
        <ele>262</ele>
        <time>2016-08-18T16:51:43Z</time>
      </trkpt>
      <trkpt lat="47.12724" lon="3.34471">
        <ele>262</ele>
        <time>2016-08-18T16:51:44Z</time>
      </trkpt>
      <trkpt lat="47.12728" lon="3.34477">
        <ele>263</ele>
        <time>2016-08-18T16:51:45Z</time>
      </trkpt>
      <trkpt lat="47.12732" lon="3.34483">
        <ele>263</ele>
        <time>2016-08-18T16:51:46Z</time>
      </trkpt>
      <trkpt lat="47.12736" lon="3.3449">
        <ele>262</ele>
        <time>2016-08-18T16:51:47Z</time>
      </trkpt>
      <trkpt lat="47.12741" lon="3.34496">
        <ele>263</ele>
        <time>2016-08-18T16:51:48Z</time>
      </trkpt>
      <trkpt lat="47.12745" lon="3.34503">
        <ele>263</ele>
        <time>2016-08-18T16:51:49Z</time>
      </trkpt>
      <trkpt lat="47.1275" lon="3.3451">
        <ele>263</ele>
        <time>2016-08-18T16:51:50Z</time>
      </trkpt>
      <trkpt lat="47.12755" lon="3.34517">
        <ele>263</ele>
        <time>2016-08-18T16:51:51Z</time>
      </trkpt>
      <trkpt lat="47.12761" lon="3.34523">
        <ele>263</ele>
        <time>2016-08-18T16:51:52Z</time>
      </trkpt>
      <trkpt lat="47.12767" lon="3.34529">
        <ele>263</ele>
        <time>2016-08-18T16:51:53Z</time>
      </trkpt>
      <trkpt lat="47.12773" lon="3.34535">
        <ele>263</ele>
        <time>2016-08-18T16:51:54Z</time>
      </trkpt>
      <trkpt lat="47.1278" lon="3.34543">
        <ele>264</ele>
        <time>2016-08-18T16:51:56Z</time>
      </trkpt>
      <trkpt lat="47.12786" lon="3.34547">
        <ele>265</ele>
        <time>2016-08-18T16:51:56Z</time>
      </trkpt>
      <trkpt lat="47.1279" lon="3.34551">
        <ele>265</ele>
        <time>2016-08-18T16:51:57Z</time>
      </trkpt>
      <trkpt lat="47.12796" lon="3.34556">
        <ele>265</ele>
        <time>2016-08-18T16:51:58Z</time>
      </trkpt>
      <trkpt lat="47.12802" lon="3.34562">
        <ele>265</ele>
        <time>2016-08-18T16:51:59Z</time>
      </trkpt>
      <trkpt lat="47.12808" lon="3.34567">
        <ele>265</ele>
        <time>2016-08-18T16:52:00Z</time>
      </trkpt>
      <trkpt lat="47.12814" lon="3.34572">
        <ele>266</ele>
        <time>2016-08-18T16:52:01Z</time>
      </trkpt>
      <trkpt lat="47.12821" lon="3.34576">
        <ele>266</ele>
        <time>2016-08-18T16:52:03Z</time>
      </trkpt>
      <trkpt lat="47.12825" lon="3.3458">
        <ele>266</ele>
        <time>2016-08-18T16:52:03Z</time>
      </trkpt>
      <trkpt lat="47.12831" lon="3.34585">
        <ele>266</ele>
        <time>2016-08-18T16:52:04Z</time>
      </trkpt>
      <trkpt lat="47.12837" lon="3.34589">
        <ele>266</ele>
        <time>2016-08-18T16:52:05Z</time>
      </trkpt>
      <trkpt lat="47.12842" lon="3.34592">
        <ele>266</ele>
        <time>2016-08-18T16:52:06Z</time>
      </trkpt>
      <trkpt lat="47.12848" lon="3.34596">
        <ele>266</ele>
        <time>2016-08-18T16:52:07Z</time>
      </trkpt>
      <trkpt lat="47.12854" lon="3.34601">
        <ele>267</ele>
        <time>2016-08-18T16:52:08Z</time>
      </trkpt>
      <trkpt lat="47.1286" lon="3.34605">
        <ele>268</ele>
        <time>2016-08-18T16:52:10Z</time>
      </trkpt>
      <trkpt lat="47.12865" lon="3.34609">
        <ele>268</ele>
        <time>2016-08-18T16:52:10Z</time>
      </trkpt>
      <trkpt lat="47.1287" lon="3.34614">
        <ele>268</ele>
        <time>2016-08-18T16:52:12Z</time>
      </trkpt>
      <trkpt lat="47.12876" lon="3.3462">
        <ele>268</ele>
        <time>2016-08-18T16:52:13Z</time>
      </trkpt>
      <trkpt lat="47.12882" lon="3.34626">
        <ele>268</ele>
        <time>2016-08-18T16:52:14Z</time>
      </trkpt>
      <trkpt lat="47.12892" lon="3.34636">
        <ele>268</ele>
        <time>2016-08-18T16:52:15Z</time>
      </trkpt>
      <trkpt lat="47.12893" lon="3.34637">
        <ele>268</ele>
        <time>2016-08-18T16:52:16Z</time>
      </trkpt>
      <trkpt lat="47.12897" lon="3.34643">
        <ele>268</ele>
        <time>2016-08-18T16:52:17Z</time>
      </trkpt>
      <trkpt lat="47.12903" lon="3.34649">
        <ele>269</ele>
        <time>2016-08-18T16:52:18Z</time>
      </trkpt>
      <trkpt lat="47.12912" lon="3.34661">
        <ele>268</ele>
        <time>2016-08-18T16:52:20Z</time>
      </trkpt>
      <trkpt lat="47.12913" lon="3.34662">
        <ele>268</ele>
        <time>2016-08-18T16:52:20Z</time>
      </trkpt>
      <trkpt lat="47.12919" lon="3.34669">
        <ele>268</ele>
        <time>2016-08-18T16:52:21Z</time>
      </trkpt>
      <trkpt lat="47.12925" lon="3.34676">
        <ele>269</ele>
        <time>2016-08-18T16:52:22Z</time>
      </trkpt>
      <trkpt lat="47.1293" lon="3.34682">
        <ele>269</ele>
        <time>2016-08-18T16:52:23Z</time>
      </trkpt>
      <trkpt lat="47.1294" lon="3.34692">
        <ele>269</ele>
        <time>2016-08-18T16:52:24Z</time>
      </trkpt>
      <trkpt lat="47.12946" lon="3.34698">
        <ele>269</ele>
        <time>2016-08-18T16:52:25Z</time>
      </trkpt>
      <trkpt lat="47.12951" lon="3.34704">
        <ele>269</ele>
        <time>2016-08-18T16:52:27Z</time>
      </trkpt>
      <trkpt lat="47.12953" lon="3.34707">
        <ele>269</ele>
        <time>2016-08-18T16:52:27Z</time>
      </trkpt>
      <trkpt lat="47.12959" lon="3.34713">
        <ele>270</ele>
        <time>2016-08-18T16:52:28Z</time>
      </trkpt>
      <trkpt lat="47.12967" lon="3.34722">
        <ele>270</ele>
        <time>2016-08-18T16:52:30Z</time>
      </trkpt>
      <trkpt lat="47.12969" lon="3.34724">
        <ele>270</ele>
        <time>2016-08-18T16:52:30Z</time>
      </trkpt>
      <trkpt lat="47.12975" lon="3.3473">
        <ele>270</ele>
        <time>2016-08-18T16:52:31Z</time>
      </trkpt>
      <trkpt lat="47.12982" lon="3.34738">
        <ele>271</ele>
        <time>2016-08-18T16:52:32Z</time>
      </trkpt>
      <trkpt lat="47.12987" lon="3.34744">
        <ele>271</ele>
        <time>2016-08-18T16:52:33Z</time>
      </trkpt>
      <trkpt lat="47.12991" lon="3.34747">
        <ele>271</ele>
        <time>2016-08-18T16:52:34Z</time>
      </trkpt>
      <trkpt lat="47.12999" lon="3.34754">
        <ele>272</ele>
        <time>2016-08-18T16:52:36Z</time>
      </trkpt>
      <trkpt lat="47.13002" lon="3.34757">
        <ele>272</ele>
        <time>2016-08-18T16:52:36Z</time>
      </trkpt>
      <trkpt lat="47.13008" lon="3.34762">
        <ele>272</ele>
        <time>2016-08-18T16:52:37Z</time>
      </trkpt>
      <trkpt lat="47.13013" lon="3.34767">
        <ele>272</ele>
        <time>2016-08-18T16:52:38Z</time>
      </trkpt>
      <trkpt lat="47.13019" lon="3.34773">
        <ele>271</ele>
        <time>2016-08-18T16:52:39Z</time>
      </trkpt>
      <trkpt lat="47.13024" lon="3.34776">
        <ele>271</ele>
        <time>2016-08-18T16:52:40Z</time>
      </trkpt>
      <trkpt lat="47.13029" lon="3.3478">
        <ele>271</ele>
        <time>2016-08-18T16:52:41Z</time>
      </trkpt>
      <trkpt lat="47.13035" lon="3.34784">
        <ele>271</ele>
        <time>2016-08-18T16:52:43Z</time>
      </trkpt>
      <trkpt lat="47.1304" lon="3.34788">
        <ele>271</ele>
        <time>2016-08-18T16:52:44Z</time>
      </trkpt>
      <trkpt lat="47.13046" lon="3.34791">
        <ele>271</ele>
        <time>2016-08-18T16:52:45Z</time>
      </trkpt>
      <trkpt lat="47.1305" lon="3.34793">
        <ele>272</ele>
        <time>2016-08-18T16:52:45Z</time>
      </trkpt>
      <trkpt lat="47.13057" lon="3.34797">
        <ele>272</ele>
        <time>2016-08-18T16:52:46Z</time>
      </trkpt>
      <trkpt lat="47.13062" lon="3.348">
        <ele>272</ele>
        <time>2016-08-18T16:52:47Z</time>
      </trkpt>
      <trkpt lat="47.13068" lon="3.34802">
        <ele>272</ele>
        <time>2016-08-18T16:52:48Z</time>
      </trkpt>
      <trkpt lat="47.13074" lon="3.34804">
        <ele>273</ele>
        <time>2016-08-18T16:52:49Z</time>
      </trkpt>
      <trkpt lat="47.13079" lon="3.34807">
        <ele>273</ele>
        <time>2016-08-18T16:52:50Z</time>
      </trkpt>
      <trkpt lat="47.13085" lon="3.34809">
        <ele>274</ele>
        <time>2016-08-18T16:52:52Z</time>
      </trkpt>
      <trkpt lat="47.1309" lon="3.34811">
        <ele>274</ele>
        <time>2016-08-18T16:52:53Z</time>
      </trkpt>
      <trkpt lat="47.13096" lon="3.34812">
        <ele>274</ele>
        <time>2016-08-18T16:52:54Z</time>
      </trkpt>
      <trkpt lat="47.13105" lon="3.34815">
        <ele>275</ele>
        <time>2016-08-18T16:52:55Z</time>
      </trkpt>
      <trkpt lat="47.13106" lon="3.34816">
        <ele>275</ele>
        <time>2016-08-18T16:52:56Z</time>
      </trkpt>
      <trkpt lat="47.13116" lon="3.34818">
        <ele>275</ele>
        <time>2016-08-18T16:52:57Z</time>
      </trkpt>
      <trkpt lat="47.13117" lon="3.34818">
        <ele>275</ele>
        <time>2016-08-18T16:52:58Z</time>
      </trkpt>
      <trkpt lat="47.13122" lon="3.3482">
        <ele>275</ele>
        <time>2016-08-18T16:52:59Z</time>
      </trkpt>
      <trkpt lat="47.13127" lon="3.34822">
        <ele>275</ele>
        <time>2016-08-18T16:53:00Z</time>
      </trkpt>
      <trkpt lat="47.13132" lon="3.34823">
        <ele>275</ele>
        <time>2016-08-18T16:53:01Z</time>
      </trkpt>
      <trkpt lat="47.13137" lon="3.34823">
        <ele>275</ele>
        <time>2016-08-18T16:53:02Z</time>
      </trkpt>
      <trkpt lat="47.13142" lon="3.34824">
        <ele>275</ele>
        <time>2016-08-18T16:53:03Z</time>
      </trkpt>
      <trkpt lat="47.13147" lon="3.34825">
        <ele>276</ele>
        <time>2016-08-18T16:53:04Z</time>
      </trkpt>
      <trkpt lat="47.13154" lon="3.34827">
        <ele>275</ele>
        <time>2016-08-18T16:53:05Z</time>
      </trkpt>
      <trkpt lat="47.13156" lon="3.34827">
        <ele>275</ele>
        <time>2016-08-18T16:53:06Z</time>
      </trkpt>
      <trkpt lat="47.13161" lon="3.34827">
        <ele>275</ele>
        <time>2016-08-18T16:53:07Z</time>
      </trkpt>
      <trkpt lat="47.13168" lon="3.34826">
        <ele>274</ele>
        <time>2016-08-18T16:53:09Z</time>
      </trkpt>
      <trkpt lat="47.13169" lon="3.34826">
        <ele>274</ele>
        <time>2016-08-18T16:53:09Z</time>
      </trkpt>
      <trkpt lat="47.13175" lon="3.34824">
        <ele>274</ele>
        <time>2016-08-18T16:53:10Z</time>
      </trkpt>
      <trkpt lat="47.13178" lon="3.34823">
        <ele>274</ele>
        <time>2016-08-18T16:53:11Z</time>
      </trkpt>
      <trkpt lat="47.13182" lon="3.3482">
        <ele>274</ele>
        <time>2016-08-18T16:53:12Z</time>
      </trkpt>
      <trkpt lat="47.13188" lon="3.34817">
        <ele>274</ele>
        <time>2016-08-18T16:53:14Z</time>
      </trkpt>
      <trkpt lat="47.13191" lon="3.34814">
        <ele>274</ele>
        <time>2016-08-18T16:53:15Z</time>
      </trkpt>
      <trkpt lat="47.13195" lon="3.34811">
        <ele>274</ele>
        <time>2016-08-18T16:53:16Z</time>
      </trkpt>
      <trkpt lat="47.13197" lon="3.34809">
        <ele>274</ele>
        <time>2016-08-18T16:53:16Z</time>
      </trkpt>
      <trkpt lat="47.132" lon="3.34807">
        <ele>274</ele>
        <time>2016-08-18T16:53:17Z</time>
      </trkpt>
      <trkpt lat="47.13204" lon="3.34804">
        <ele>274</ele>
        <time>2016-08-18T16:53:18Z</time>
      </trkpt>
      <trkpt lat="47.13207" lon="3.34801">
        <ele>274</ele>
        <time>2016-08-18T16:53:19Z</time>
      </trkpt>
      <trkpt lat="47.13209" lon="3.34799">
        <ele>274</ele>
        <time>2016-08-18T16:53:20Z</time>
      </trkpt>
      <trkpt lat="47.13212" lon="3.34796">
        <ele>275</ele>
        <time>2016-08-18T16:53:21Z</time>
      </trkpt>
      <trkpt lat="47.13215" lon="3.34793">
        <ele>275</ele>
        <time>2016-08-18T16:53:22Z</time>
      </trkpt>
      <trkpt lat="47.13218" lon="3.34791">
        <ele>275</ele>
        <time>2016-08-18T16:53:23Z</time>
      </trkpt>
      <trkpt lat="47.13221" lon="3.34789">
        <ele>274</ele>
        <time>2016-08-18T16:53:24Z</time>
      </trkpt>
      <trkpt lat="47.13224" lon="3.34787">
        <ele>274</ele>
        <time>2016-08-18T16:53:26Z</time>
      </trkpt>
      <trkpt lat="47.13226" lon="3.34786">
        <ele>274</ele>
        <time>2016-08-18T16:53:26Z</time>
      </trkpt>
      <trkpt lat="47.13229" lon="3.34784">
        <ele>274</ele>
        <time>2016-08-18T16:53:27Z</time>
      </trkpt>
      <trkpt lat="47.13232" lon="3.34781">
        <ele>274</ele>
        <time>2016-08-18T16:53:28Z</time>
      </trkpt>
      <trkpt lat="47.13235" lon="3.34779">
        <ele>274</ele>
        <time>2016-08-18T16:53:29Z</time>
      </trkpt>
      <trkpt lat="47.13237" lon="3.34778">
        <ele>275</ele>
        <time>2016-08-18T16:53:30Z</time>
      </trkpt>
      <trkpt lat="47.13239" lon="3.34777">
        <ele>276</ele>
        <time>2016-08-18T16:53:32Z</time>
      </trkpt>
      <trkpt lat="47.13242" lon="3.34775">
        <ele>276</ele>
        <time>2016-08-18T16:53:33Z</time>
      </trkpt>
      <trkpt lat="47.13245" lon="3.34774">
        <ele>277</ele>
        <time>2016-08-18T16:53:34Z</time>
      </trkpt>
      <trkpt lat="47.13248" lon="3.34772">
        <ele>277</ele>
        <time>2016-08-18T16:53:35Z</time>
      </trkpt>
      <trkpt lat="47.13251" lon="3.34772">
        <ele>278</ele>
        <time>2016-08-18T16:53:36Z</time>
      </trkpt>
      <trkpt lat="47.13255" lon="3.3477">
        <ele>278</ele>
        <time>2016-08-18T16:53:37Z</time>
      </trkpt>
      <trkpt lat="47.13258" lon="3.34769">
        <ele>277</ele>
        <time>2016-08-18T16:53:38Z</time>
      </trkpt>
      <trkpt lat="47.13261" lon="3.34767">
        <ele>278</ele>
        <time>2016-08-18T16:53:39Z</time>
      </trkpt>
      <trkpt lat="47.13264" lon="3.34767">
        <ele>278</ele>
        <time>2016-08-18T16:53:40Z</time>
      </trkpt>
      <trkpt lat="47.13267" lon="3.34766">
        <ele>279</ele>
        <time>2016-08-18T16:53:41Z</time>
      </trkpt>
      <trkpt lat="47.1327" lon="3.34765">
        <ele>278</ele>
        <time>2016-08-18T16:53:42Z</time>
      </trkpt>
      <trkpt lat="47.13274" lon="3.34763">
        <ele>278</ele>
        <time>2016-08-18T16:53:43Z</time>
      </trkpt>
      <trkpt lat="47.13279" lon="3.3476">
        <ele>279</ele>
        <time>2016-08-18T16:53:44Z</time>
      </trkpt>
      <trkpt lat="47.13281" lon="3.3476">
        <ele>279</ele>
        <time>2016-08-18T16:53:45Z</time>
      </trkpt>
      <trkpt lat="47.13283" lon="3.34759">
        <ele>280</ele>
        <time>2016-08-18T16:53:46Z</time>
      </trkpt>
      <trkpt lat="47.13286" lon="3.34758">
        <ele>281</ele>
        <time>2016-08-18T16:53:47Z</time>
      </trkpt>
      <trkpt lat="47.13291" lon="3.34754">
        <ele>285</ele>
        <time>2016-08-18T16:53:49Z</time>
      </trkpt>
      <trkpt lat="47.13292" lon="3.34754">
        <ele>285</ele>
        <time>2016-08-18T16:53:49Z</time>
      </trkpt>
      <trkpt lat="47.13291" lon="3.34754">
        <ele>285</ele>
        <time>2016-08-18T16:53:50Z</time>
      </trkpt>
      <trkpt lat="47.13293" lon="3.34754">
        <ele>286</ele>
        <time>2016-08-18T16:53:51Z</time>
      </trkpt>
      <trkpt lat="47.13294" lon="3.34754">
        <ele>286</ele>
        <time>2016-08-18T16:53:52Z</time>
      </trkpt>
      <trkpt lat="47.13294" lon="3.34754">
        <ele>286</ele>
        <time>2016-08-18T16:53:53Z</time>
      </trkpt>
      <trkpt lat="47.13294" lon="3.34754">
        <ele>286</ele>
        <time>2016-08-18T16:53:53Z</time>
      </trkpt>
      <trkpt lat="47.13294" lon="3.34754">
        <ele>286</ele>
        <time>2016-08-18T16:53:54Z</time>
      </trkpt>
      <trkpt lat="47.13307" lon="3.3475">
        <ele>288</ele>
        <time>2016-08-18T16:53:55Z</time>
      </trkpt>
      <trkpt lat="47.13313" lon="3.34748">
        <ele>288</ele>
        <time>2016-08-18T16:53:55Z</time>
      </trkpt>
      <trkpt lat="47.13319" lon="3.34746">
        <ele>287</ele>
        <time>2016-08-18T16:53:57Z</time>
      </trkpt>
      <trkpt lat="47.13323" lon="3.34746">
        <ele>287</ele>
        <time>2016-08-18T16:53:58Z</time>
      </trkpt>
      <trkpt lat="47.13326" lon="3.34746">
        <ele>286</ele>
        <time>2016-08-18T16:53:59Z</time>
      </trkpt>
      <trkpt lat="47.13326" lon="3.34747">
        <ele>285</ele>
        <time>2016-08-18T16:54:00Z</time>
      </trkpt>
      <trkpt lat="47.13326" lon="3.34747">
        <ele>285</ele>
        <time>2016-08-18T16:54:01Z</time>
      </trkpt>
      <trkpt lat="47.13326" lon="3.34747">
        <ele>285</ele>
        <time>2016-08-18T16:54:01Z</time>
      </trkpt>
      <trkpt lat="47.13326" lon="3.34747">
        <ele>285</ele>
        <time>2016-08-18T16:54:02Z</time>
      </trkpt>
      <trkpt lat="47.13329" lon="3.34747">
        <ele>284</ele>
        <time>2016-08-18T16:54:02Z</time>
      </trkpt>
      <trkpt lat="47.13334" lon="3.34749">
        <ele>284</ele>
        <time>2016-08-18T16:54:04Z</time>
      </trkpt>
      <trkpt lat="47.13339" lon="3.3475">
        <ele>284</ele>
        <time>2016-08-18T16:54:05Z</time>
      </trkpt>
      <trkpt lat="47.13345" lon="3.34751">
        <ele>284</ele>
        <time>2016-08-18T16:54:06Z</time>
      </trkpt>
      <trkpt lat="47.13347" lon="3.34751">
        <ele>284</ele>
        <time>2016-08-18T16:54:07Z</time>
      </trkpt>
      <trkpt lat="47.13348" lon="3.34751">
        <ele>284</ele>
        <time>2016-08-18T16:54:08Z</time>
      </trkpt>
      <trkpt lat="47.13356" lon="3.34756">
        <ele>285</ele>
        <time>2016-08-18T16:54:09Z</time>
      </trkpt>
      <trkpt lat="47.13359" lon="3.34757">
        <ele>285</ele>
        <time>2016-08-18T16:54:10Z</time>
      </trkpt>
      <trkpt lat="47.13358" lon="3.34757">
        <ele>285</ele>
        <time>2016-08-18T16:54:11Z</time>
      </trkpt>
      <trkpt lat="47.13358" lon="3.34757">
        <ele>285</ele>
        <time>2016-08-18T16:54:11Z</time>
      </trkpt>
      <trkpt lat="47.13358" lon="3.34757">
        <ele>285</ele>
        <time>2016-08-18T16:54:12Z</time>
      </trkpt>
      <trkpt lat="47.13358" lon="3.34757">
        <ele>285</ele>
        <time>2016-08-18T16:54:12Z</time>
      </trkpt>
      <trkpt lat="47.13358" lon="3.34757">
        <ele>285</ele>
        <time>2016-08-18T16:54:13Z</time>
      </trkpt>
      <trkpt lat="47.13358" lon="3.34757">
        <ele>285</ele>
        <time>2016-08-18T16:54:14Z</time>
      </trkpt>
      <trkpt lat="47.13358" lon="3.34757">
        <ele>285</ele>
        <time>2016-08-18T16:54:14Z</time>
      </trkpt>
      <trkpt lat="47.13378" lon="3.34763">
        <ele>286</ele>
        <time>2016-08-18T16:54:16Z</time>
      </trkpt>
      <trkpt lat="47.13391" lon="3.34776">
        <ele>284</ele>
        <time>2016-08-18T16:54:18Z</time>
      </trkpt>
      <trkpt lat="47.13395" lon="3.34778">
        <ele>284</ele>
        <time>2016-08-18T16:54:19Z</time>
      </trkpt>
      <trkpt lat="47.13397" lon="3.3478">
        <ele>283</ele>
        <time>2016-08-18T16:54:20Z</time>
      </trkpt>
      <trkpt lat="47.13399" lon="3.34783">
        <ele>284</ele>
        <time>2016-08-18T16:54:21Z</time>
      </trkpt>
      <trkpt lat="47.13403" lon="3.34787">
        <ele>284</ele>
        <time>2016-08-18T16:54:22Z</time>
      </trkpt>
      <trkpt lat="47.13405" lon="3.3479">
        <ele>284</ele>
        <time>2016-08-18T16:54:24Z</time>
      </trkpt>
      <trkpt lat="47.13408" lon="3.34793">
        <ele>283</ele>
        <time>2016-08-18T16:54:25Z</time>
      </trkpt>
      <trkpt lat="47.1341" lon="3.34796">
        <ele>283</ele>
        <time>2016-08-18T16:54:25Z</time>
      </trkpt>
      <trkpt lat="47.13413" lon="3.348">
        <ele>284</ele>
        <time>2016-08-18T16:54:26Z</time>
      </trkpt>
      <trkpt lat="47.13416" lon="3.34804">
        <ele>284</ele>
        <time>2016-08-18T16:54:27Z</time>
      </trkpt>
      <trkpt lat="47.13418" lon="3.34808">
        <ele>284</ele>
        <time>2016-08-18T16:54:28Z</time>
      </trkpt>
      <trkpt lat="47.1342" lon="3.34812">
        <ele>284</ele>
        <time>2016-08-18T16:54:29Z</time>
      </trkpt>
      <trkpt lat="47.13423" lon="3.34816">
        <ele>283</ele>
        <time>2016-08-18T16:54:30Z</time>
      </trkpt>
      <trkpt lat="47.13426" lon="3.3482">
        <ele>284</ele>
        <time>2016-08-18T16:54:32Z</time>
      </trkpt>
      <trkpt lat="47.13428" lon="3.34823">
        <ele>284</ele>
        <time>2016-08-18T16:54:32Z</time>
      </trkpt>
      <trkpt lat="47.13431" lon="3.34827">
        <ele>285</ele>
        <time>2016-08-18T16:54:34Z</time>
      </trkpt>
      <trkpt lat="47.13433" lon="3.34831">
        <ele>285</ele>
        <time>2016-08-18T16:54:35Z</time>
      </trkpt>
      <trkpt lat="47.13435" lon="3.34835">
        <ele>285</ele>
        <time>2016-08-18T16:54:36Z</time>
      </trkpt>
      <trkpt lat="47.13437" lon="3.34839">
        <ele>285</ele>
        <time>2016-08-18T16:54:37Z</time>
      </trkpt>
      <trkpt lat="47.1344" lon="3.34843">
        <ele>285</ele>
        <time>2016-08-18T16:54:38Z</time>
      </trkpt>
      <trkpt lat="47.13442" lon="3.34846">
        <ele>285</ele>
        <time>2016-08-18T16:54:39Z</time>
      </trkpt>
      <trkpt lat="47.13444" lon="3.3485">
        <ele>285</ele>
        <time>2016-08-18T16:54:40Z</time>
      </trkpt>
      <trkpt lat="47.13446" lon="3.34853">
        <ele>285</ele>
        <time>2016-08-18T16:54:41Z</time>
      </trkpt>
      <trkpt lat="47.13449" lon="3.34857">
        <ele>285</ele>
        <time>2016-08-18T16:54:42Z</time>
      </trkpt>
      <trkpt lat="47.13451" lon="3.34861">
        <ele>286</ele>
        <time>2016-08-18T16:54:43Z</time>
      </trkpt>
      <trkpt lat="47.13453" lon="3.34865">
        <ele>286</ele>
        <time>2016-08-18T16:54:44Z</time>
      </trkpt>
      <trkpt lat="47.13455" lon="3.34869">
        <ele>286</ele>
        <time>2016-08-18T16:54:45Z</time>
      </trkpt>
      <trkpt lat="47.13457" lon="3.34873">
        <ele>286</ele>
        <time>2016-08-18T16:54:46Z</time>
      </trkpt>
      <trkpt lat="47.13459" lon="3.34877">
        <ele>286</ele>
        <time>2016-08-18T16:54:47Z</time>
      </trkpt>
      <trkpt lat="47.13461" lon="3.3488">
        <ele>286</ele>
        <time>2016-08-18T16:54:48Z</time>
      </trkpt>
      <trkpt lat="47.13463" lon="3.34884">
        <ele>286</ele>
        <time>2016-08-18T16:54:49Z</time>
      </trkpt>
      <trkpt lat="47.13466" lon="3.34888">
        <ele>286</ele>
        <time>2016-08-18T16:54:50Z</time>
      </trkpt>
      <trkpt lat="47.13468" lon="3.34892">
        <ele>286</ele>
        <time>2016-08-18T16:54:51Z</time>
      </trkpt>
      <trkpt lat="47.1347" lon="3.34895">
        <ele>286</ele>
        <time>2016-08-18T16:54:52Z</time>
      </trkpt>
      <trkpt lat="47.13475" lon="3.34901">
        <ele>287</ele>
        <time>2016-08-18T16:54:53Z</time>
      </trkpt>
      <trkpt lat="47.13477" lon="3.34905">
        <ele>287</ele>
        <time>2016-08-18T16:54:54Z</time>
      </trkpt>
      <trkpt lat="47.1348" lon="3.34909">
        <ele>287</ele>
        <time>2016-08-18T16:54:55Z</time>
      </trkpt>
      <trkpt lat="47.13482" lon="3.34913">
        <ele>288</ele>
        <time>2016-08-18T16:54:56Z</time>
      </trkpt>
      <trkpt lat="47.13484" lon="3.34917">
        <ele>288</ele>
        <time>2016-08-18T16:54:58Z</time>
      </trkpt>
      <trkpt lat="47.13485" lon="3.3492">
        <ele>288</ele>
        <time>2016-08-18T16:54:58Z</time>
      </trkpt>
      <trkpt lat="47.13489" lon="3.34925">
        <ele>288</ele>
        <time>2016-08-18T16:55:00Z</time>
      </trkpt>
      <trkpt lat="47.13491" lon="3.34929">
        <ele>288</ele>
        <time>2016-08-18T16:55:01Z</time>
      </trkpt>
      <trkpt lat="47.13492" lon="3.34931">
        <ele>288</ele>
        <time>2016-08-18T16:55:01Z</time>
      </trkpt>
      <trkpt lat="47.13494" lon="3.34933">
        <ele>287</ele>
        <time>2016-08-18T16:55:02Z</time>
      </trkpt>
      <trkpt lat="47.13495" lon="3.34936">
        <ele>287</ele>
        <time>2016-08-18T16:55:04Z</time>
      </trkpt>
      <trkpt lat="47.13495" lon="3.34936">
        <ele>287</ele>
        <time>2016-08-18T16:55:04Z</time>
      </trkpt>
      <trkpt lat="47.13498" lon="3.34945">
        <ele>289</ele>
        <time>2016-08-18T16:55:05Z</time>
      </trkpt>
      <trkpt lat="47.13499" lon="3.34947">
        <ele>288</ele>
        <time>2016-08-18T16:55:06Z</time>
      </trkpt>
      <trkpt lat="47.13499" lon="3.34948">
        <ele>288</ele>
        <time>2016-08-18T16:55:07Z</time>
      </trkpt>
      <trkpt lat="47.13499" lon="3.34948">
        <ele>288</ele>
        <time>2016-08-18T16:55:08Z</time>
      </trkpt>
      <trkpt lat="47.13503" lon="3.34961">
        <ele>289</ele>
        <time>2016-08-18T16:55:10Z</time>
      </trkpt>
      <trkpt lat="47.13504" lon="3.34966">
        <ele>289</ele>
        <time>2016-08-18T16:55:10Z</time>
      </trkpt>
      <trkpt lat="47.13536" lon="3.3503">
        <ele>288</ele>
        <time>2016-08-18T16:55:26Z</time>
      </trkpt>
      <trkpt lat="47.13538" lon="3.35034">
        <ele>288</ele>
        <time>2016-08-18T16:55:27Z</time>
      </trkpt>
      <trkpt lat="47.1354" lon="3.35038">
        <ele>288</ele>
        <time>2016-08-18T16:55:28Z</time>
      </trkpt>
      <trkpt lat="47.13541" lon="3.35043">
        <ele>288</ele>
        <time>2016-08-18T16:55:29Z</time>
      </trkpt>
      <trkpt lat="47.13543" lon="3.35047">
        <ele>288</ele>
        <time>2016-08-18T16:55:30Z</time>
      </trkpt>
      <trkpt lat="47.13549" lon="3.35051">
        <ele>290</ele>
        <time>2016-08-18T16:55:32Z</time>
      </trkpt>
      <trkpt lat="47.1355" lon="3.35055">
        <ele>290</ele>
        <time>2016-08-18T16:55:33Z</time>
      </trkpt>
      <trkpt lat="47.1355" lon="3.35057">
        <ele>290</ele>
        <time>2016-08-18T16:55:33Z</time>
      </trkpt>
      <trkpt lat="47.13552" lon="3.35062">
        <ele>290</ele>
        <time>2016-08-18T16:55:34Z</time>
      </trkpt>
      <trkpt lat="47.13556" lon="3.35067">
        <ele>291</ele>
        <time>2016-08-18T16:55:35Z</time>
      </trkpt>
      <trkpt lat="47.13557" lon="3.35069">
        <ele>291</ele>
        <time>2016-08-18T16:55:36Z</time>
      </trkpt>
      <trkpt lat="47.13559" lon="3.35073">
        <ele>291</ele>
        <time>2016-08-18T16:55:37Z</time>
      </trkpt>
      <trkpt lat="47.13562" lon="3.35078">
        <ele>292</ele>
        <time>2016-08-18T16:55:38Z</time>
      </trkpt>
      <trkpt lat="47.13563" lon="3.3508">
        <ele>292</ele>
        <time>2016-08-18T16:55:39Z</time>
      </trkpt>
      <trkpt lat="47.13565" lon="3.35084">
        <ele>293</ele>
        <time>2016-08-18T16:55:40Z</time>
      </trkpt>
      <trkpt lat="47.13567" lon="3.35087">
        <ele>293</ele>
        <time>2016-08-18T16:55:41Z</time>
      </trkpt>
      <trkpt lat="47.13569" lon="3.3509">
        <ele>293</ele>
        <time>2016-08-18T16:55:42Z</time>
      </trkpt>
      <trkpt lat="47.13572" lon="3.35095">
        <ele>294</ele>
        <time>2016-08-18T16:55:44Z</time>
      </trkpt>
      <trkpt lat="47.13574" lon="3.35098">
        <ele>294</ele>
        <time>2016-08-18T16:55:44Z</time>
      </trkpt>
      <trkpt lat="47.13577" lon="3.35103">
        <ele>295</ele>
        <time>2016-08-18T16:55:45Z</time>
      </trkpt>
      <trkpt lat="47.13579" lon="3.35105">
        <ele>295</ele>
        <time>2016-08-18T16:55:46Z</time>
      </trkpt>
      <trkpt lat="47.13581" lon="3.35109">
        <ele>296</ele>
        <time>2016-08-18T16:55:47Z</time>
      </trkpt>
      <trkpt lat="47.13584" lon="3.35113">
        <ele>296</ele>
        <time>2016-08-18T16:55:48Z</time>
      </trkpt>
      <trkpt lat="47.13586" lon="3.35116">
        <ele>296</ele>
        <time>2016-08-18T16:55:49Z</time>
      </trkpt>
      <trkpt lat="47.1359" lon="3.35119">
        <ele>295</ele>
        <time>2016-08-18T16:55:50Z</time>
      </trkpt>
      <trkpt lat="47.13593" lon="3.35122">
        <ele>295</ele>
        <time>2016-08-18T16:55:52Z</time>
      </trkpt>
      <trkpt lat="47.13595" lon="3.35125">
        <ele>295</ele>
        <time>2016-08-18T16:55:52Z</time>
      </trkpt>
      <trkpt lat="47.13598" lon="3.35128">
        <ele>295</ele>
        <time>2016-08-18T16:55:53Z</time>
      </trkpt>
      <trkpt lat="47.136" lon="3.35132">
        <ele>296</ele>
        <time>2016-08-18T16:55:54Z</time>
      </trkpt>
      <trkpt lat="47.13602" lon="3.35136">
        <ele>296</ele>
        <time>2016-08-18T16:55:55Z</time>
      </trkpt>
      <trkpt lat="47.13604" lon="3.3514">
        <ele>296</ele>
        <time>2016-08-18T16:55:56Z</time>
      </trkpt>
      <trkpt lat="47.13607" lon="3.35144">
        <ele>296</ele>
        <time>2016-08-18T16:55:57Z</time>
      </trkpt>
      <trkpt lat="47.13609" lon="3.35148">
        <ele>297</ele>
        <time>2016-08-18T16:55:58Z</time>
      </trkpt>
      <trkpt lat="47.13611" lon="3.35152">
        <ele>297</ele>
        <time>2016-08-18T16:55:59Z</time>
      </trkpt>
      <trkpt lat="47.13613" lon="3.35155">
        <ele>297</ele>
        <time>2016-08-18T16:56:00Z</time>
      </trkpt>
      <trkpt lat="47.13616" lon="3.35159">
        <ele>298</ele>
        <time>2016-08-18T16:56:01Z</time>
      </trkpt>
      <trkpt lat="47.13619" lon="3.35163">
        <ele>298</ele>
        <time>2016-08-18T16:56:03Z</time>
      </trkpt>
      <trkpt lat="47.13621" lon="3.35167">
        <ele>298</ele>
        <time>2016-08-18T16:56:04Z</time>
      </trkpt>
      <trkpt lat="47.13623" lon="3.35171">
        <ele>298</ele>
        <time>2016-08-18T16:56:05Z</time>
      </trkpt>
      <trkpt lat="47.13626" lon="3.35175">
        <ele>298</ele>
        <time>2016-08-18T16:56:06Z</time>
      </trkpt>
      <trkpt lat="47.13628" lon="3.35178">
        <ele>298</ele>
        <time>2016-08-18T16:56:07Z</time>
      </trkpt>
      <trkpt lat="47.1363" lon="3.35182">
        <ele>298</ele>
        <time>2016-08-18T16:56:08Z</time>
      </trkpt>
      <trkpt lat="47.13632" lon="3.35186">
        <ele>298</ele>
        <time>2016-08-18T16:56:09Z</time>
      </trkpt>
      <trkpt lat="47.13635" lon="3.3519">
        <ele>298</ele>
        <time>2016-08-18T16:56:10Z</time>
      </trkpt>
      <trkpt lat="47.13637" lon="3.35193">
        <ele>299</ele>
        <time>2016-08-18T16:56:11Z</time>
      </trkpt>
      <trkpt lat="47.13639" lon="3.35196">
        <ele>298</ele>
        <time>2016-08-18T16:56:12Z</time>
      </trkpt>
      <trkpt lat="47.13641" lon="3.352">
        <ele>298</ele>
        <time>2016-08-18T16:56:13Z</time>
      </trkpt>
      <trkpt lat="47.13644" lon="3.35203">
        <ele>298</ele>
        <time>2016-08-18T16:56:14Z</time>
      </trkpt>
      <trkpt lat="47.13647" lon="3.35206">
        <ele>299</ele>
        <time>2016-08-18T16:56:15Z</time>
      </trkpt>
      <trkpt lat="47.1365" lon="3.35209">
        <ele>299</ele>
        <time>2016-08-18T16:56:16Z</time>
      </trkpt>
      <trkpt lat="47.13652" lon="3.35213">
        <ele>299</ele>
        <time>2016-08-18T16:56:17Z</time>
      </trkpt>
      <trkpt lat="47.13656" lon="3.35218">
        <ele>299</ele>
        <time>2016-08-18T16:56:18Z</time>
      </trkpt>
      <trkpt lat="47.13657" lon="3.3522">
        <ele>299</ele>
        <time>2016-08-18T16:56:19Z</time>
      </trkpt>
      <trkpt lat="47.13659" lon="3.35224">
        <ele>299</ele>
        <time>2016-08-18T16:56:20Z</time>
      </trkpt>
      <trkpt lat="47.13661" lon="3.35228">
        <ele>299</ele>
        <time>2016-08-18T16:56:21Z</time>
      </trkpt>
      <trkpt lat="47.13663" lon="3.35231">
        <ele>299</ele>
        <time>2016-08-18T16:56:22Z</time>
      </trkpt>
      <trkpt lat="47.13665" lon="3.35235">
        <ele>299</ele>
        <time>2016-08-18T16:56:23Z</time>
      </trkpt>
      <trkpt lat="47.13668" lon="3.35239">
        <ele>300</ele>
        <time>2016-08-18T16:56:24Z</time>
      </trkpt>
      <trkpt lat="47.1367" lon="3.35243">
        <ele>300</ele>
        <time>2016-08-18T16:56:25Z</time>
      </trkpt>
      <trkpt lat="47.13674" lon="3.35247">
        <ele>299</ele>
        <time>2016-08-18T16:56:26Z</time>
      </trkpt>
      <trkpt lat="47.13675" lon="3.35249">
        <ele>298</ele>
        <time>2016-08-18T16:56:27Z</time>
      </trkpt>
      <trkpt lat="47.13678" lon="3.35255">
        <ele>299</ele>
        <time>2016-08-18T16:56:29Z</time>
      </trkpt>
      <trkpt lat="47.13681" lon="3.35258">
        <ele>300</ele>
        <time>2016-08-18T16:56:29Z</time>
      </trkpt>
      <trkpt lat="47.13683" lon="3.35261">
        <ele>300</ele>
        <time>2016-08-18T16:56:30Z</time>
      </trkpt>
      <trkpt lat="47.13685" lon="3.35265">
        <ele>300</ele>
        <time>2016-08-18T16:56:31Z</time>
      </trkpt>
      <trkpt lat="47.13687" lon="3.35268">
        <ele>300</ele>
        <time>2016-08-18T16:56:32Z</time>
      </trkpt>
      <trkpt lat="47.1369" lon="3.35273">
        <ele>301</ele>
        <time>2016-08-18T16:56:33Z</time>
      </trkpt>
      <trkpt lat="47.13693" lon="3.35276">
        <ele>302</ele>
        <time>2016-08-18T16:56:34Z</time>
      </trkpt>
      <trkpt lat="47.13694" lon="3.35279">
        <ele>302</ele>
        <time>2016-08-18T16:56:35Z</time>
      </trkpt>
      <trkpt lat="47.13697" lon="3.35282">
        <ele>302</ele>
        <time>2016-08-18T16:56:36Z</time>
      </trkpt>
      <trkpt lat="47.13699" lon="3.35286">
        <ele>302</ele>
        <time>2016-08-18T16:56:37Z</time>
      </trkpt>
      <trkpt lat="47.13701" lon="3.35289">
        <ele>302</ele>
        <time>2016-08-18T16:56:38Z</time>
      </trkpt>
      <trkpt lat="47.13703" lon="3.35294">
        <ele>302</ele>
        <time>2016-08-18T16:56:39Z</time>
      </trkpt>
      <trkpt lat="47.13706" lon="3.35299">
        <ele>303</ele>
        <time>2016-08-18T16:56:40Z</time>
      </trkpt>
      <trkpt lat="47.13709" lon="3.35303">
        <ele>304</ele>
        <time>2016-08-18T16:56:42Z</time>
      </trkpt>
      <trkpt lat="47.13712" lon="3.35306">
        <ele>304</ele>
        <time>2016-08-18T16:56:42Z</time>
      </trkpt>
      <trkpt lat="47.13714" lon="3.3531">
        <ele>304</ele>
        <time>2016-08-18T16:56:43Z</time>
      </trkpt>
      <trkpt lat="47.13717" lon="3.35314">
        <ele>304</ele>
        <time>2016-08-18T16:56:44Z</time>
      </trkpt>
      <trkpt lat="47.1372" lon="3.35318">
        <ele>304</ele>
        <time>2016-08-18T16:56:45Z</time>
      </trkpt>
      <trkpt lat="47.13722" lon="3.35322">
        <ele>305</ele>
        <time>2016-08-18T16:56:46Z</time>
      </trkpt>
      <trkpt lat="47.13724" lon="3.35326">
        <ele>305</ele>
        <time>2016-08-18T16:56:47Z</time>
      </trkpt>
      <trkpt lat="47.13726" lon="3.3533">
        <ele>305</ele>
        <time>2016-08-18T16:56:49Z</time>
      </trkpt>
      <trkpt lat="47.13728" lon="3.35335">
        <ele>306</ele>
        <time>2016-08-18T16:56:50Z</time>
      </trkpt>
      <trkpt lat="47.1373" lon="3.35339">
        <ele>306</ele>
        <time>2016-08-18T16:56:51Z</time>
      </trkpt>
      <trkpt lat="47.13732" lon="3.35343">
        <ele>307</ele>
        <time>2016-08-18T16:56:52Z</time>
      </trkpt>
      <trkpt lat="47.13734" lon="3.35347">
        <ele>308</ele>
        <time>2016-08-18T16:56:53Z</time>
      </trkpt>
      <trkpt lat="47.13736" lon="3.35351">
        <ele>308</ele>
        <time>2016-08-18T16:56:54Z</time>
      </trkpt>
      <trkpt lat="47.13738" lon="3.35355">
        <ele>308</ele>
        <time>2016-08-18T16:56:55Z</time>
      </trkpt>
      <trkpt lat="47.1374" lon="3.35359">
        <ele>308</ele>
        <time>2016-08-18T16:56:56Z</time>
      </trkpt>
      <trkpt lat="47.13742" lon="3.35363">
        <ele>309</ele>
        <time>2016-08-18T16:56:57Z</time>
      </trkpt>
      <trkpt lat="47.13744" lon="3.35368">
        <ele>309</ele>
        <time>2016-08-18T16:56:58Z</time>
      </trkpt>
      <trkpt lat="47.13746" lon="3.35372">
        <ele>309</ele>
        <time>2016-08-18T16:56:59Z</time>
      </trkpt>
      <trkpt lat="47.13748" lon="3.35375">
        <ele>309</ele>
        <time>2016-08-18T16:57:00Z</time>
      </trkpt>
      <trkpt lat="47.13752" lon="3.35381">
        <ele>309</ele>
        <time>2016-08-18T16:57:01Z</time>
      </trkpt>
      <trkpt lat="47.13753" lon="3.35383">
        <ele>309</ele>
        <time>2016-08-18T16:57:02Z</time>
      </trkpt>
      <trkpt lat="47.13755" lon="3.35387">
        <ele>309</ele>
        <time>2016-08-18T16:57:03Z</time>
      </trkpt>
      <trkpt lat="47.13758" lon="3.35393">
        <ele>310</ele>
        <time>2016-08-18T16:57:05Z</time>
      </trkpt>
      <trkpt lat="47.13759" lon="3.35398">
        <ele>310</ele>
        <time>2016-08-18T16:57:06Z</time>
      </trkpt>
      <trkpt lat="47.1376" lon="3.354">
        <ele>310</ele>
        <time>2016-08-18T16:57:06Z</time>
      </trkpt>
      <trkpt lat="47.13761" lon="3.35404">
        <ele>310</ele>
        <time>2016-08-18T16:57:07Z</time>
      </trkpt>
      <trkpt lat="47.13763" lon="3.35411">
        <ele>311</ele>
        <time>2016-08-18T16:57:08Z</time>
      </trkpt>
      <trkpt lat="47.13764" lon="3.35414">
        <ele>311</ele>
        <time>2016-08-18T16:57:09Z</time>
      </trkpt>
      <trkpt lat="47.13765" lon="3.35419">
        <ele>311</ele>
        <time>2016-08-18T16:57:10Z</time>
      </trkpt>
      <trkpt lat="47.13767" lon="3.35423">
        <ele>311</ele>
        <time>2016-08-18T16:57:11Z</time>
      </trkpt>
      <trkpt lat="47.13768" lon="3.35428">
        <ele>311</ele>
        <time>2016-08-18T16:57:12Z</time>
      </trkpt>
      <trkpt lat="47.13769" lon="3.35435">
        <ele>311</ele>
        <time>2016-08-18T16:57:14Z</time>
      </trkpt>
      <trkpt lat="47.13769" lon="3.3544">
        <ele>311</ele>
        <time>2016-08-18T16:57:15Z</time>
      </trkpt>
      <trkpt lat="47.1377" lon="3.35443">
        <ele>311</ele>
        <time>2016-08-18T16:57:15Z</time>
      </trkpt>
      <trkpt lat="47.13771" lon="3.35448">
        <ele>311</ele>
        <time>2016-08-18T16:57:16Z</time>
      </trkpt>
      <trkpt lat="47.13772" lon="3.35454">
        <ele>311</ele>
        <time>2016-08-18T16:57:17Z</time>
      </trkpt>
      <trkpt lat="47.13773" lon="3.35458">
        <ele>311</ele>
        <time>2016-08-18T16:57:18Z</time>
      </trkpt>
      <trkpt lat="47.13772" lon="3.35464">
        <ele>311</ele>
        <time>2016-08-18T16:57:20Z</time>
      </trkpt>
      <trkpt lat="47.13772" lon="3.35468">
        <ele>311</ele>
        <time>2016-08-18T16:57:20Z</time>
      </trkpt>
      <trkpt lat="47.13773" lon="3.35473">
        <ele>311</ele>
        <time>2016-08-18T16:57:22Z</time>
      </trkpt>
      <trkpt lat="47.13773" lon="3.35478">
        <ele>311</ele>
        <time>2016-08-18T16:57:23Z</time>
      </trkpt>
      <trkpt lat="47.13772" lon="3.35481">
        <ele>310</ele>
        <time>2016-08-18T16:57:23Z</time>
      </trkpt>
      <trkpt lat="47.13772" lon="3.35485">
        <ele>310</ele>
        <time>2016-08-18T16:57:24Z</time>
      </trkpt>
      <trkpt lat="47.13772" lon="3.3549">
        <ele>310</ele>
        <time>2016-08-18T16:57:25Z</time>
      </trkpt>
      <trkpt lat="47.1377" lon="3.35496">
        <ele>309</ele>
        <time>2016-08-18T16:57:26Z</time>
      </trkpt>
      <trkpt lat="47.13769" lon="3.35501">
        <ele>309</ele>
        <time>2016-08-18T16:57:28Z</time>
      </trkpt>
      <trkpt lat="47.13768" lon="3.35506">
        <ele>309</ele>
        <time>2016-08-18T16:57:29Z</time>
      </trkpt>
      <trkpt lat="47.13768" lon="3.35512">
        <ele>309</ele>
        <time>2016-08-18T16:57:30Z</time>
      </trkpt>
      <trkpt lat="47.13767" lon="3.35517">
        <ele>309</ele>
        <time>2016-08-18T16:57:31Z</time>
      </trkpt>
      <trkpt lat="47.13767" lon="3.35522">
        <ele>309</ele>
        <time>2016-08-18T16:57:32Z</time>
      </trkpt>
      <trkpt lat="47.13766" lon="3.35526">
        <ele>309</ele>
        <time>2016-08-18T16:57:33Z</time>
      </trkpt>
      <trkpt lat="47.13766" lon="3.3553">
        <ele>309</ele>
        <time>2016-08-18T16:57:34Z</time>
      </trkpt>
      <trkpt lat="47.13765" lon="3.35534">
        <ele>309</ele>
        <time>2016-08-18T16:57:35Z</time>
      </trkpt>
      <trkpt lat="47.13764" lon="3.35538">
        <ele>309</ele>
        <time>2016-08-18T16:57:36Z</time>
      </trkpt>
      <trkpt lat="47.13762" lon="3.35547">
        <ele>310</ele>
        <time>2016-08-18T16:57:37Z</time>
      </trkpt>
      <trkpt lat="47.13762" lon="3.35551">
        <ele>310</ele>
        <time>2016-08-18T16:57:38Z</time>
      </trkpt>
      <trkpt lat="47.13761" lon="3.35555">
        <ele>310</ele>
        <time>2016-08-18T16:57:40Z</time>
      </trkpt>
      <trkpt lat="47.13761" lon="3.35556">
        <ele>310</ele>
        <time>2016-08-18T16:57:40Z</time>
      </trkpt>
      <trkpt lat="47.1376" lon="3.3556">
        <ele>310</ele>
        <time>2016-08-18T16:57:41Z</time>
      </trkpt>
      <trkpt lat="47.13758" lon="3.35564">
        <ele>311</ele>
        <time>2016-08-18T16:57:42Z</time>
      </trkpt>
      <trkpt lat="47.13757" lon="3.35568">
        <ele>312</ele>
        <time>2016-08-18T16:57:43Z</time>
      </trkpt>
      <trkpt lat="47.13756" lon="3.35571">
        <ele>313</ele>
        <time>2016-08-18T16:57:44Z</time>
      </trkpt>
      <trkpt lat="47.13755" lon="3.35575">
        <ele>313</ele>
        <time>2016-08-18T16:57:45Z</time>
      </trkpt>
      <trkpt lat="47.13753" lon="3.35579">
        <ele>313</ele>
        <time>2016-08-18T16:57:46Z</time>
      </trkpt>
      <trkpt lat="47.13752" lon="3.35583">
        <ele>314</ele>
        <time>2016-08-18T16:57:47Z</time>
      </trkpt>
      <trkpt lat="47.13748" lon="3.3559">
        <ele>315</ele>
        <time>2016-08-18T16:57:48Z</time>
      </trkpt>
      <trkpt lat="47.13746" lon="3.35594">
        <ele>316</ele>
        <time>2016-08-18T16:57:49Z</time>
      </trkpt>
      <trkpt lat="47.13745" lon="3.35596">
        <ele>316</ele>
        <time>2016-08-18T16:57:50Z</time>
      </trkpt>
      <trkpt lat="47.13743" lon="3.35598">
        <ele>316</ele>
        <time>2016-08-18T16:57:51Z</time>
      </trkpt>
      <trkpt lat="47.13741" lon="3.35602">
        <ele>316</ele>
        <time>2016-08-18T16:57:52Z</time>
      </trkpt>
      <trkpt lat="47.13739" lon="3.35607">
        <ele>316</ele>
        <time>2016-08-18T16:57:53Z</time>
      </trkpt>
      <trkpt lat="47.13737" lon="3.35611">
        <ele>316</ele>
        <time>2016-08-18T16:57:54Z</time>
      </trkpt>
      <trkpt lat="47.13735" lon="3.35616">
        <ele>317</ele>
        <time>2016-08-18T16:57:55Z</time>
      </trkpt>
      <trkpt lat="47.13733" lon="3.3562">
        <ele>317</ele>
        <time>2016-08-18T16:57:56Z</time>
      </trkpt>
      <trkpt lat="47.13731" lon="3.35626">
        <ele>317</ele>
        <time>2016-08-18T16:57:57Z</time>
      </trkpt>
      <trkpt lat="47.13729" lon="3.35631">
        <ele>318</ele>
        <time>2016-08-18T16:57:58Z</time>
      </trkpt>
      <trkpt lat="47.13727" lon="3.35633">
        <ele>318</ele>
        <time>2016-08-18T16:57:59Z</time>
      </trkpt>
      <trkpt lat="47.13726" lon="3.35638">
        <ele>318</ele>
        <time>2016-08-18T16:58:00Z</time>
      </trkpt>
      <trkpt lat="47.13724" lon="3.35642">
        <ele>318</ele>
        <time>2016-08-18T16:58:01Z</time>
      </trkpt>
      <trkpt lat="47.13723" lon="3.35647">
        <ele>319</ele>
        <time>2016-08-18T16:58:02Z</time>
      </trkpt>
      <trkpt lat="47.13721" lon="3.35651">
        <ele>319</ele>
        <time>2016-08-18T16:58:03Z</time>
      </trkpt>
      <trkpt lat="47.13718" lon="3.35659">
        <ele>321</ele>
        <time>2016-08-18T16:58:05Z</time>
      </trkpt>
      <trkpt lat="47.13717" lon="3.35661">
        <ele>321</ele>
        <time>2016-08-18T16:58:05Z</time>
      </trkpt>
      <trkpt lat="47.13716" lon="3.35665">
        <ele>322</ele>
        <time>2016-08-18T16:58:06Z</time>
      </trkpt>
      <trkpt lat="47.13715" lon="3.35669">
        <ele>323</ele>
        <time>2016-08-18T16:58:07Z</time>
      </trkpt>
      <trkpt lat="47.13713" lon="3.35678">
        <ele>322</ele>
        <time>2016-08-18T16:58:09Z</time>
      </trkpt>
      <trkpt lat="47.13712" lon="3.35681">
        <ele>322</ele>
        <time>2016-08-18T16:58:09Z</time>
      </trkpt>
      <trkpt lat="47.1371" lon="3.35687">
        <ele>322</ele>
        <time>2016-08-18T16:58:10Z</time>
      </trkpt>
      <trkpt lat="47.13709" lon="3.35691">
        <ele>322</ele>
        <time>2016-08-18T16:58:12Z</time>
      </trkpt>
      <trkpt lat="47.13707" lon="3.35693">
        <ele>323</ele>
        <time>2016-08-18T16:58:13Z</time>
      </trkpt>
      <trkpt lat="47.13706" lon="3.35696">
        <ele>323</ele>
        <time>2016-08-18T16:58:13Z</time>
      </trkpt>
      <trkpt lat="47.13704" lon="3.357">
        <ele>322</ele>
        <time>2016-08-18T16:58:14Z</time>
      </trkpt>
      <trkpt lat="47.13703" lon="3.35706">
        <ele>324</ele>
        <time>2016-08-18T16:58:15Z</time>
      </trkpt>
      <trkpt lat="47.13702" lon="3.3571">
        <ele>325</ele>
        <time>2016-08-18T16:58:16Z</time>
      </trkpt>
      <trkpt lat="47.137" lon="3.35714">
        <ele>325</ele>
        <time>2016-08-18T16:58:17Z</time>
      </trkpt>
      <trkpt lat="47.13699" lon="3.35717">
        <ele>325</ele>
        <time>2016-08-18T16:58:18Z</time>
      </trkpt>
      <trkpt lat="47.13698" lon="3.35721">
        <ele>325</ele>
        <time>2016-08-18T16:58:20Z</time>
      </trkpt>
      <trkpt lat="47.13696" lon="3.35727">
        <ele>326</ele>
        <time>2016-08-18T16:58:21Z</time>
      </trkpt>
      <trkpt lat="47.13695" lon="3.35732">
        <ele>327</ele>
        <time>2016-08-18T16:58:22Z</time>
      </trkpt>
      <trkpt lat="47.13693" lon="3.35736">
        <ele>327</ele>
        <time>2016-08-18T16:58:23Z</time>
      </trkpt>
      <trkpt lat="47.13692" lon="3.3574">
        <ele>327</ele>
        <time>2016-08-18T16:58:24Z</time>
      </trkpt>
      <trkpt lat="47.13692" lon="3.3577">
        <ele>321</ele>
        <time>2016-08-18T16:58:29Z</time>
      </trkpt>
      <trkpt lat="47.13688" lon="3.358">
        <ele>317</ele>
        <time>2016-08-18T16:58:35Z</time>
      </trkpt>
      <trkpt lat="47.13687" lon="3.35822">
        <ele>318</ele>
        <time>2016-08-18T16:58:39Z</time>
      </trkpt>
      <trkpt lat="47.13686" lon="3.35833">
        <ele>320</ele>
        <time>2016-08-18T16:58:41Z</time>
      </trkpt>
      <trkpt lat="47.13682" lon="3.35857">
        <ele>322</ele>
        <time>2016-08-18T16:58:46Z</time>
      </trkpt>
      <trkpt lat="47.13678" lon="3.35882">
        <ele>321</ele>
        <time>2016-08-18T16:58:51Z</time>
      </trkpt>
      <trkpt lat="47.13673" lon="3.35927">
        <ele>328</ele>
        <time>2016-08-18T16:59:00Z</time>
      </trkpt>
      <trkpt lat="47.13672" lon="3.35944">
        <ele>325</ele>
        <time>2016-08-18T16:59:03Z</time>
      </trkpt>
      <trkpt lat="47.13673" lon="3.35965">
        <ele>324</ele>
        <time>2016-08-18T16:59:06Z</time>
      </trkpt>
      <trkpt lat="47.13671" lon="3.36004">
        <ele>323</ele>
        <time>2016-08-18T16:59:11Z</time>
      </trkpt>
      <trkpt lat="47.13668" lon="3.36049">
        <ele>320</ele>
        <time>2016-08-18T16:59:16Z</time>
      </trkpt>
      <trkpt lat="47.13669" lon="3.36102">
        <ele>318</ele>
        <time>2016-08-18T16:59:21Z</time>
      </trkpt>
      <trkpt lat="47.13667" lon="3.36159">
        <ele>318</ele>
        <time>2016-08-18T16:59:26Z</time>
      </trkpt>
      <trkpt lat="47.13658" lon="3.3622">
        <ele>316</ele>
        <time>2016-08-18T16:59:31Z</time>
      </trkpt>
      <trkpt lat="47.13641" lon="3.36277">
        <ele>314</ele>
        <time>2016-08-18T16:59:36Z</time>
      </trkpt>
      <trkpt lat="47.1363" lon="3.36391">
        <ele>318</ele>
        <time>2016-08-18T16:59:45Z</time>
      </trkpt>
      <trkpt lat="47.13613" lon="3.36429">
        <ele>319</ele>
        <time>2016-08-18T16:59:48Z</time>
      </trkpt>
      <trkpt lat="47.13582" lon="3.36491">
        <ele>313</ele>
        <time>2016-08-18T16:59:54Z</time>
      </trkpt>
      <trkpt lat="47.13589" lon="3.36538">
        <ele>312</ele>
        <time>2016-08-18T16:59:58Z</time>
      </trkpt>
      <trkpt lat="47.13605" lon="3.36564">
        <ele>307</ele>
        <time>2016-08-18T17:00:01Z</time>
      </trkpt>
      <trkpt lat="47.13642" lon="3.36588">
        <ele>307</ele>
        <time>2016-08-18T17:00:06Z</time>
      </trkpt>
      <trkpt lat="47.1368" lon="3.36588">
        <ele>308</ele>
        <time>2016-08-18T17:00:11Z</time>
      </trkpt>
      <trkpt lat="47.13712" lon="3.36586">
        <ele>309</ele>
        <time>2016-08-18T17:00:16Z</time>
      </trkpt>
      <trkpt lat="47.1374" lon="3.36582">
        <ele>310</ele>
        <time>2016-08-18T17:00:21Z</time>
      </trkpt>
      <trkpt lat="47.13762" lon="3.36568">
        <ele>310</ele>
        <time>2016-08-18T17:00:26Z</time>
      </trkpt>
      <trkpt lat="47.13781" lon="3.36557">
        <ele>311</ele>
        <time>2016-08-18T17:00:31Z</time>
      </trkpt>
      <trkpt lat="47.13799" lon="3.3656">
        <ele>312</ele>
        <time>2016-08-18T17:00:36Z</time>
      </trkpt>
      <trkpt lat="47.13815" lon="3.36564">
        <ele>314</ele>
        <time>2016-08-18T17:00:41Z</time>
      </trkpt>
      <trkpt lat="47.13831" lon="3.3657">
        <ele>316</ele>
        <time>2016-08-18T17:00:46Z</time>
      </trkpt>
      <trkpt lat="47.13847" lon="3.36577">
        <ele>317</ele>
        <time>2016-08-18T17:00:51Z</time>
      </trkpt>
      <trkpt lat="47.13863" lon="3.36587">
        <ele>317</ele>
        <time>2016-08-18T17:00:56Z</time>
      </trkpt>
      <trkpt lat="47.13878" lon="3.366">
        <ele>318</ele>
        <time>2016-08-18T17:01:01Z</time>
      </trkpt>
      <trkpt lat="47.13894" lon="3.36614">
        <ele>320</ele>
        <time>2016-08-18T17:01:06Z</time>
      </trkpt>
      <trkpt lat="47.13907" lon="3.36629">
        <ele>321</ele>
        <time>2016-08-18T17:01:11Z</time>
      </trkpt>
      <trkpt lat="47.13917" lon="3.36646">
        <ele>322</ele>
        <time>2016-08-18T17:01:16Z</time>
      </trkpt>
      <trkpt lat="47.13929" lon="3.36663">
        <ele>322</ele>
        <time>2016-08-18T17:01:21Z</time>
      </trkpt>
      <trkpt lat="47.1394" lon="3.36679">
        <ele>323</ele>
        <time>2016-08-18T17:01:26Z</time>
      </trkpt>
      <trkpt lat="47.13951" lon="3.36696">
        <ele>324</ele>
        <time>2016-08-18T17:01:31Z</time>
      </trkpt>
      <trkpt lat="47.13963" lon="3.36714">
        <ele>324</ele>
        <time>2016-08-18T17:01:36Z</time>
      </trkpt>
      <trkpt lat="47.13975" lon="3.36731">
        <ele>324</ele>
        <time>2016-08-18T17:01:41Z</time>
      </trkpt>
      <trkpt lat="47.13986" lon="3.3675">
        <ele>326</ele>
        <time>2016-08-18T17:01:46Z</time>
      </trkpt>
      <trkpt lat="47.13999" lon="3.3677">
        <ele>327</ele>
        <time>2016-08-18T17:01:51Z</time>
      </trkpt>
      <trkpt lat="47.14014" lon="3.36791">
        <ele>327</ele>
        <time>2016-08-18T17:01:56Z</time>
      </trkpt>
      <trkpt lat="47.14039" lon="3.36833">
        <ele>326</ele>
        <time>2016-08-18T17:02:04Z</time>
      </trkpt>
      <trkpt lat="47.14043" lon="3.36839">
        <ele>325</ele>
        <time>2016-08-18T17:02:05Z</time>
      </trkpt>
      <trkpt lat="47.14044" lon="3.3684">
        <ele>325</ele>
        <time>2016-08-18T17:02:06Z</time>
      </trkpt>
      <trkpt lat="47.14048" lon="3.36846">
        <ele>325</ele>
        <time>2016-08-18T17:02:07Z</time>
      </trkpt>
      <trkpt lat="47.14052" lon="3.36852">
        <ele>325</ele>
        <time>2016-08-18T17:02:08Z</time>
      </trkpt>
      <trkpt lat="47.14056" lon="3.36857">
        <ele>325</ele>
        <time>2016-08-18T17:02:09Z</time>
      </trkpt>
      <trkpt lat="47.14063" lon="3.36865">
        <ele>325</ele>
        <time>2016-08-18T17:02:10Z</time>
      </trkpt>
      <trkpt lat="47.14068" lon="3.36869">
        <ele>325</ele>
        <time>2016-08-18T17:02:11Z</time>
      </trkpt>
      <trkpt lat="47.1407" lon="3.36871">
        <ele>325</ele>
        <time>2016-08-18T17:02:12Z</time>
      </trkpt>
      <trkpt lat="47.14078" lon="3.36877">
        <ele>325</ele>
        <time>2016-08-18T17:02:13Z</time>
      </trkpt>
      <trkpt lat="47.1408" lon="3.36878">
        <ele>325</ele>
        <time>2016-08-18T17:02:14Z</time>
      </trkpt>
      <trkpt lat="47.14086" lon="3.36882">
        <ele>325</ele>
        <time>2016-08-18T17:02:15Z</time>
      </trkpt>
      <trkpt lat="47.14093" lon="3.36887">
        <ele>325</ele>
        <time>2016-08-18T17:02:16Z</time>
      </trkpt>
      <trkpt lat="47.14095" lon="3.36888">
        <ele>325</ele>
        <time>2016-08-18T17:02:17Z</time>
      </trkpt>
      <trkpt lat="47.14104" lon="3.36892">
        <ele>325</ele>
        <time>2016-08-18T17:02:19Z</time>
      </trkpt>
      <trkpt lat="47.14109" lon="3.36895">
        <ele>325</ele>
        <time>2016-08-18T17:02:20Z</time>
      </trkpt>
      <trkpt lat="47.14114" lon="3.36896">
        <ele>326</ele>
        <time>2016-08-18T17:02:20Z</time>
      </trkpt>
      <trkpt lat="47.14117" lon="3.36898">
        <ele>326</ele>
        <time>2016-08-18T17:02:21Z</time>
      </trkpt>
      <trkpt lat="47.14122" lon="3.369">
        <ele>326</ele>
        <time>2016-08-18T17:02:22Z</time>
      </trkpt>
      <trkpt lat="47.14127" lon="3.36903">
        <ele>326</ele>
        <time>2016-08-18T17:02:23Z</time>
      </trkpt>
      <trkpt lat="47.14134" lon="3.36907">
        <ele>326</ele>
        <time>2016-08-18T17:02:24Z</time>
      </trkpt>
      <trkpt lat="47.14136" lon="3.36908">
        <ele>326</ele>
        <time>2016-08-18T17:02:25Z</time>
      </trkpt>
      <trkpt lat="47.14141" lon="3.36911">
        <ele>326</ele>
        <time>2016-08-18T17:02:26Z</time>
      </trkpt>
      <trkpt lat="47.14145" lon="3.36913">
        <ele>326</ele>
        <time>2016-08-18T17:02:27Z</time>
      </trkpt>
      <trkpt lat="47.1415" lon="3.36915">
        <ele>326</ele>
        <time>2016-08-18T17:02:28Z</time>
      </trkpt>
      <trkpt lat="47.14154" lon="3.36918">
        <ele>326</ele>
        <time>2016-08-18T17:02:29Z</time>
      </trkpt>
      <trkpt lat="47.14159" lon="3.36921">
        <ele>326</ele>
        <time>2016-08-18T17:02:30Z</time>
      </trkpt>
      <trkpt lat="47.14164" lon="3.36924">
        <ele>327</ele>
        <time>2016-08-18T17:02:31Z</time>
      </trkpt>
      <trkpt lat="47.14167" lon="3.36926">
        <ele>327</ele>
        <time>2016-08-18T17:02:32Z</time>
      </trkpt>
      <trkpt lat="47.14172" lon="3.36929">
        <ele>327</ele>
        <time>2016-08-18T17:02:33Z</time>
      </trkpt>
      <trkpt lat="47.14176" lon="3.36932">
        <ele>327</ele>
        <time>2016-08-18T17:02:34Z</time>
      </trkpt>
      <trkpt lat="47.1418" lon="3.36934">
        <ele>328</ele>
        <time>2016-08-18T17:02:36Z</time>
      </trkpt>
      <trkpt lat="47.14183" lon="3.36936">
        <ele>328</ele>
        <time>2016-08-18T17:02:36Z</time>
      </trkpt>
      <trkpt lat="47.14187" lon="3.36938">
        <ele>328</ele>
        <time>2016-08-18T17:02:37Z</time>
      </trkpt>
      <trkpt lat="47.14192" lon="3.36941">
        <ele>329</ele>
        <time>2016-08-18T17:02:39Z</time>
      </trkpt>
      <trkpt lat="47.14196" lon="3.36943">
        <ele>329</ele>
        <time>2016-08-18T17:02:40Z</time>
      </trkpt>
      <trkpt lat="47.14199" lon="3.36945">
        <ele>329</ele>
        <time>2016-08-18T17:02:40Z</time>
      </trkpt>
      <trkpt lat="47.14203" lon="3.36947">
        <ele>329</ele>
        <time>2016-08-18T17:02:41Z</time>
      </trkpt>
      <trkpt lat="47.14207" lon="3.3695">
        <ele>330</ele>
        <time>2016-08-18T17:02:42Z</time>
      </trkpt>
      <trkpt lat="47.1421" lon="3.36953">
        <ele>330</ele>
        <time>2016-08-18T17:02:43Z</time>
      </trkpt>
      <trkpt lat="47.14214" lon="3.36955">
        <ele>330</ele>
        <time>2016-08-18T17:02:44Z</time>
      </trkpt>
      <trkpt lat="47.14218" lon="3.36957">
        <ele>330</ele>
        <time>2016-08-18T17:02:45Z</time>
      </trkpt>
      <trkpt lat="47.14221" lon="3.3696">
        <ele>331</ele>
        <time>2016-08-18T17:02:47Z</time>
      </trkpt>
      <trkpt lat="47.14225" lon="3.36962">
        <ele>330</ele>
        <time>2016-08-18T17:02:47Z</time>
      </trkpt>
      <trkpt lat="47.14228" lon="3.36964">
        <ele>331</ele>
        <time>2016-08-18T17:02:49Z</time>
      </trkpt>
      <trkpt lat="47.14232" lon="3.36967">
        <ele>331</ele>
        <time>2016-08-18T17:02:50Z</time>
      </trkpt>
      <trkpt lat="47.14235" lon="3.36969">
        <ele>331</ele>
        <time>2016-08-18T17:02:51Z</time>
      </trkpt>
      <trkpt lat="47.14238" lon="3.36972">
        <ele>331</ele>
        <time>2016-08-18T17:02:52Z</time>
      </trkpt>
      <trkpt lat="47.14241" lon="3.36974">
        <ele>330</ele>
        <time>2016-08-18T17:02:53Z</time>
      </trkpt>
      <trkpt lat="47.14245" lon="3.36977">
        <ele>330</ele>
        <time>2016-08-18T17:02:54Z</time>
      </trkpt>
      <trkpt lat="47.14248" lon="3.3698">
        <ele>330</ele>
        <time>2016-08-18T17:02:55Z</time>
      </trkpt>
      <trkpt lat="47.14251" lon="3.36983">
        <ele>330</ele>
        <time>2016-08-18T17:02:56Z</time>
      </trkpt>
      <trkpt lat="47.14256" lon="3.36987">
        <ele>330</ele>
        <time>2016-08-18T17:02:57Z</time>
      </trkpt>
      <trkpt lat="47.14259" lon="3.36989">
        <ele>330</ele>
        <time>2016-08-18T17:02:58Z</time>
      </trkpt>
      <trkpt lat="47.14261" lon="3.3699">
        <ele>330</ele>
        <time>2016-08-18T17:02:59Z</time>
      </trkpt>
      <trkpt lat="47.14265" lon="3.36994">
        <ele>330</ele>
        <time>2016-08-18T17:03:00Z</time>
      </trkpt>
      <trkpt lat="47.14266" lon="3.36995">
        <ele>330</ele>
        <time>2016-08-18T17:03:01Z</time>
      </trkpt>
      <trkpt lat="47.1427" lon="3.36997">
        <ele>330</ele>
        <time>2016-08-18T17:03:02Z</time>
      </trkpt>
      <trkpt lat="47.14273" lon="3.37">
        <ele>330</ele>
        <time>2016-08-18T17:03:03Z</time>
      </trkpt>
      <trkpt lat="47.14278" lon="3.37004">
        <ele>330</ele>
        <time>2016-08-18T17:03:05Z</time>
      </trkpt>
      <trkpt lat="47.14281" lon="3.37007">
        <ele>331</ele>
        <time>2016-08-18T17:03:06Z</time>
      </trkpt>
      <trkpt lat="47.14283" lon="3.37008">
        <ele>331</ele>
        <time>2016-08-18T17:03:06Z</time>
      </trkpt>
      <trkpt lat="47.14287" lon="3.37013">
        <ele>331</ele>
        <time>2016-08-18T17:03:07Z</time>
      </trkpt>
      <trkpt lat="47.14288" lon="3.37014">
        <ele>331</ele>
        <time>2016-08-18T17:03:08Z</time>
      </trkpt>
      <trkpt lat="47.14292" lon="3.37018">
        <ele>331</ele>
        <time>2016-08-18T17:03:09Z</time>
      </trkpt>
      <trkpt lat="47.14296" lon="3.37021">
        <ele>331</ele>
        <time>2016-08-18T17:03:10Z</time>
      </trkpt>
      <trkpt lat="47.14298" lon="3.37023">
        <ele>331</ele>
        <time>2016-08-18T17:03:11Z</time>
      </trkpt>
      <trkpt lat="47.14301" lon="3.37026">
        <ele>331</ele>
        <time>2016-08-18T17:03:12Z</time>
      </trkpt>
      <trkpt lat="47.14306" lon="3.37031">
        <ele>332</ele>
        <time>2016-08-18T17:03:14Z</time>
      </trkpt>
      <trkpt lat="47.1431" lon="3.37035">
        <ele>332</ele>
        <time>2016-08-18T17:03:15Z</time>
      </trkpt>
      <trkpt lat="47.14314" lon="3.37038">
        <ele>332</ele>
        <time>2016-08-18T17:03:16Z</time>
      </trkpt>
      <trkpt lat="47.14318" lon="3.37041">
        <ele>332</ele>
        <time>2016-08-18T17:03:17Z</time>
      </trkpt>
      <trkpt lat="47.1432" lon="3.37043">
        <ele>332</ele>
        <time>2016-08-18T17:03:17Z</time>
      </trkpt>
      <trkpt lat="47.14324" lon="3.37047">
        <ele>332</ele>
        <time>2016-08-18T17:03:18Z</time>
      </trkpt>
      <trkpt lat="47.14327" lon="3.3705">
        <ele>333</ele>
        <time>2016-08-18T17:03:19Z</time>
      </trkpt>
      <trkpt lat="47.1433" lon="3.37053">
        <ele>333</ele>
        <time>2016-08-18T17:03:20Z</time>
      </trkpt>
      <trkpt lat="47.14333" lon="3.37056">
        <ele>333</ele>
        <time>2016-08-18T17:03:21Z</time>
      </trkpt>
      <trkpt lat="47.14337" lon="3.37061">
        <ele>333</ele>
        <time>2016-08-18T17:03:22Z</time>
      </trkpt>
      <trkpt lat="47.1434" lon="3.37064">
        <ele>333</ele>
        <time>2016-08-18T17:03:23Z</time>
      </trkpt>
      <trkpt lat="47.14343" lon="3.37068">
        <ele>332</ele>
        <time>2016-08-18T17:03:25Z</time>
      </trkpt>
      <trkpt lat="47.14346" lon="3.37071">
        <ele>332</ele>
        <time>2016-08-18T17:03:25Z</time>
      </trkpt>
      <trkpt lat="47.14349" lon="3.37075">
        <ele>332</ele>
        <time>2016-08-18T17:03:26Z</time>
      </trkpt>
      <trkpt lat="47.14352" lon="3.3708">
        <ele>332</ele>
        <time>2016-08-18T17:03:27Z</time>
      </trkpt>
      <trkpt lat="47.14356" lon="3.37084">
        <ele>332</ele>
        <time>2016-08-18T17:03:29Z</time>
      </trkpt>
      <trkpt lat="47.14359" lon="3.37088">
        <ele>332</ele>
        <time>2016-08-18T17:03:30Z</time>
      </trkpt>
      <trkpt lat="47.14362" lon="3.37091">
        <ele>332</ele>
        <time>2016-08-18T17:03:30Z</time>
      </trkpt>
      <trkpt lat="47.14365" lon="3.37095">
        <ele>332</ele>
        <time>2016-08-18T17:03:31Z</time>
      </trkpt>
      <trkpt lat="47.14368" lon="3.37099">
        <ele>332</ele>
        <time>2016-08-18T17:03:32Z</time>
      </trkpt>
      <trkpt lat="47.14371" lon="3.37103">
        <ele>332</ele>
        <time>2016-08-18T17:03:33Z</time>
      </trkpt>
      <trkpt lat="47.14374" lon="3.37108">
        <ele>332</ele>
        <time>2016-08-18T17:03:35Z</time>
      </trkpt>
      <trkpt lat="47.14378" lon="3.37112">
        <ele>332</ele>
        <time>2016-08-18T17:03:36Z</time>
      </trkpt>
      <trkpt lat="47.14381" lon="3.37117">
        <ele>332</ele>
        <time>2016-08-18T17:03:37Z</time>
      </trkpt>
      <trkpt lat="47.14384" lon="3.37122">
        <ele>333</ele>
        <time>2016-08-18T17:03:38Z</time>
      </trkpt>
      <trkpt lat="47.14388" lon="3.37126">
        <ele>333</ele>
        <time>2016-08-18T17:03:39Z</time>
      </trkpt>
      <trkpt lat="47.14392" lon="3.3713">
        <ele>333</ele>
        <time>2016-08-18T17:03:40Z</time>
      </trkpt>
      <trkpt lat="47.14396" lon="3.37135">
        <ele>333</ele>
        <time>2016-08-18T17:03:41Z</time>
      </trkpt>
      <trkpt lat="47.14399" lon="3.3714">
        <ele>333</ele>
        <time>2016-08-18T17:03:42Z</time>
      </trkpt>
      <trkpt lat="47.14402" lon="3.37144">
        <ele>333</ele>
        <time>2016-08-18T17:03:43Z</time>
      </trkpt>
      <trkpt lat="47.14406" lon="3.37149">
        <ele>333</ele>
        <time>2016-08-18T17:03:44Z</time>
      </trkpt>
      <trkpt lat="47.1441" lon="3.37154">
        <ele>333</ele>
        <time>2016-08-18T17:03:45Z</time>
      </trkpt>
      <trkpt lat="47.14413" lon="3.37159">
        <ele>334</ele>
        <time>2016-08-18T17:03:46Z</time>
      </trkpt>
      <trkpt lat="47.14417" lon="3.37163">
        <ele>334</ele>
        <time>2016-08-18T17:03:47Z</time>
      </trkpt>
      <trkpt lat="47.1442" lon="3.37168">
        <ele>334</ele>
        <time>2016-08-18T17:03:48Z</time>
      </trkpt>
      <trkpt lat="47.14424" lon="3.37172">
        <ele>334</ele>
        <time>2016-08-18T17:03:49Z</time>
      </trkpt>
      <trkpt lat="47.14428" lon="3.37176">
        <ele>334</ele>
        <time>2016-08-18T17:03:50Z</time>
      </trkpt>
      <trkpt lat="47.14432" lon="3.37181">
        <ele>334</ele>
        <time>2016-08-18T17:03:51Z</time>
      </trkpt>
      <trkpt lat="47.14435" lon="3.37186">
        <ele>334</ele>
        <time>2016-08-18T17:03:52Z</time>
      </trkpt>
      <trkpt lat="47.14439" lon="3.37192">
        <ele>333</ele>
        <time>2016-08-18T17:03:53Z</time>
      </trkpt>
      <trkpt lat="47.14445" lon="3.372">
        <ele>332</ele>
        <time>2016-08-18T17:03:54Z</time>
      </trkpt>
      <trkpt lat="47.14447" lon="3.37203">
        <ele>332</ele>
        <time>2016-08-18T17:03:55Z</time>
      </trkpt>
      <trkpt lat="47.14451" lon="3.37209">
        <ele>332</ele>
        <time>2016-08-18T17:03:56Z</time>
      </trkpt>
      <trkpt lat="47.14455" lon="3.37214">
        <ele>332</ele>
        <time>2016-08-18T17:03:57Z</time>
      </trkpt>
      <trkpt lat="47.14459" lon="3.37221">
        <ele>331</ele>
        <time>2016-08-18T17:03:58Z</time>
      </trkpt>
      <trkpt lat="47.14466" lon="3.3723">
        <ele>331</ele>
        <time>2016-08-18T17:04:00Z</time>
      </trkpt>
      <trkpt lat="47.14468" lon="3.37233">
        <ele>331</ele>
        <time>2016-08-18T17:04:00Z</time>
      </trkpt>
      <trkpt lat="47.14472" lon="3.37239">
        <ele>332</ele>
        <time>2016-08-18T17:04:01Z</time>
      </trkpt>
      <trkpt lat="47.14477" lon="3.37244">
        <ele>332</ele>
        <time>2016-08-18T17:04:02Z</time>
      </trkpt>
      <trkpt lat="47.14481" lon="3.37251">
        <ele>331</ele>
        <time>2016-08-18T17:04:03Z</time>
      </trkpt>
      <trkpt lat="47.14485" lon="3.37257">
        <ele>331</ele>
        <time>2016-08-18T17:04:04Z</time>
      </trkpt>
      <trkpt lat="47.14489" lon="3.37263">
        <ele>331</ele>
        <time>2016-08-18T17:04:05Z</time>
      </trkpt>
      <trkpt lat="47.14494" lon="3.3727">
        <ele>332</ele>
        <time>2016-08-18T17:04:06Z</time>
      </trkpt>
      <trkpt lat="47.14498" lon="3.37276">
        <ele>332</ele>
        <time>2016-08-18T17:04:07Z</time>
      </trkpt>
      <trkpt lat="47.14503" lon="3.37283">
        <ele>332</ele>
        <time>2016-08-18T17:04:08Z</time>
      </trkpt>
      <trkpt lat="47.14507" lon="3.37289">
        <ele>332</ele>
        <time>2016-08-18T17:04:09Z</time>
      </trkpt>
      <trkpt lat="47.14511" lon="3.37295">
        <ele>332</ele>
        <time>2016-08-18T17:04:10Z</time>
      </trkpt>
      <trkpt lat="47.14517" lon="3.37303">
        <ele>333</ele>
        <time>2016-08-18T17:04:11Z</time>
      </trkpt>
      <trkpt lat="47.14522" lon="3.37309">
        <ele>334</ele>
        <time>2016-08-18T17:04:12Z</time>
      </trkpt>
      <trkpt lat="47.14525" lon="3.37313">
        <ele>334</ele>
        <time>2016-08-18T17:04:13Z</time>
      </trkpt>
      <trkpt lat="47.14531" lon="3.3732">
        <ele>334</ele>
        <time>2016-08-18T17:04:15Z</time>
      </trkpt>
      <trkpt lat="47.14534" lon="3.37325">
        <ele>335</ele>
        <time>2016-08-18T17:04:16Z</time>
      </trkpt>
      <trkpt lat="47.14538" lon="3.37331">
        <ele>335</ele>
        <time>2016-08-18T17:04:17Z</time>
      </trkpt>
      <trkpt lat="47.14541" lon="3.37335">
        <ele>335</ele>
        <time>2016-08-18T17:04:17Z</time>
      </trkpt>
      <trkpt lat="47.14545" lon="3.37341">
        <ele>336</ele>
        <time>2016-08-18T17:04:18Z</time>
      </trkpt>
      <trkpt lat="47.14548" lon="3.37345">
        <ele>336</ele>
        <time>2016-08-18T17:04:19Z</time>
      </trkpt>
      <trkpt lat="47.14552" lon="3.37349">
        <ele>337</ele>
        <time>2016-08-18T17:04:20Z</time>
      </trkpt>
      <trkpt lat="47.14556" lon="3.37354">
        <ele>337</ele>
        <time>2016-08-18T17:04:21Z</time>
      </trkpt>
      <trkpt lat="47.1456" lon="3.37358">
        <ele>337</ele>
        <time>2016-08-18T17:04:22Z</time>
      </trkpt>
      <trkpt lat="47.14563" lon="3.37363">
        <ele>337</ele>
        <time>2016-08-18T17:04:23Z</time>
      </trkpt>
      <trkpt lat="47.14572" lon="3.37372">
        <ele>336</ele>
        <time>2016-08-18T17:04:25Z</time>
      </trkpt>
      <trkpt lat="47.14572" lon="3.37373">
        <ele>336</ele>
        <time>2016-08-18T17:04:26Z</time>
      </trkpt>
      <trkpt lat="47.14577" lon="3.37379">
        <ele>336</ele>
        <time>2016-08-18T17:04:27Z</time>
      </trkpt>
      <trkpt lat="47.14582" lon="3.37384">
        <ele>336</ele>
        <time>2016-08-18T17:04:28Z</time>
      </trkpt>
      <trkpt lat="47.14586" lon="3.3739">
        <ele>336</ele>
        <time>2016-08-18T17:04:29Z</time>
      </trkpt>
      <trkpt lat="47.14592" lon="3.37397">
        <ele>335</ele>
        <time>2016-08-18T17:04:30Z</time>
      </trkpt>
      <trkpt lat="47.14598" lon="3.37405">
        <ele>335</ele>
        <time>2016-08-18T17:04:31Z</time>
      </trkpt>
      <trkpt lat="47.1461" lon="3.3742">
        <ele>334</ele>
        <time>2016-08-18T17:04:33Z</time>
      </trkpt>
      <trkpt lat="47.14611" lon="3.37421">
        <ele>334</ele>
        <time>2016-08-18T17:04:33Z</time>
      </trkpt>
      <trkpt lat="47.14618" lon="3.37431">
        <ele>333</ele>
        <time>2016-08-18T17:04:34Z</time>
      </trkpt>
      <trkpt lat="47.14626" lon="3.3744">
        <ele>332</ele>
        <time>2016-08-18T17:04:35Z</time>
      </trkpt>
      <trkpt lat="47.14633" lon="3.3745">
        <ele>331</ele>
        <time>2016-08-18T17:04:36Z</time>
      </trkpt>
      <trkpt lat="47.14641" lon="3.3746">
        <ele>330</ele>
        <time>2016-08-18T17:04:37Z</time>
      </trkpt>
      <trkpt lat="47.1465" lon="3.37472">
        <ele>328</ele>
        <time>2016-08-18T17:04:38Z</time>
      </trkpt>
      <trkpt lat="47.14658" lon="3.37485">
        <ele>326</ele>
        <time>2016-08-18T17:04:39Z</time>
      </trkpt>
      <trkpt lat="47.14666" lon="3.37497">
        <ele>327</ele>
        <time>2016-08-18T17:04:40Z</time>
      </trkpt>
      <trkpt lat="47.14675" lon="3.37511">
        <ele>324</ele>
        <time>2016-08-18T17:04:41Z</time>
      </trkpt>
      <trkpt lat="47.14683" lon="3.37522">
        <ele>326</ele>
        <time>2016-08-18T17:04:42Z</time>
      </trkpt>
      <trkpt lat="47.14689" lon="3.37536">
        <ele>326</ele>
        <time>2016-08-18T17:04:43Z</time>
      </trkpt>
      <trkpt lat="47.147" lon="3.37556">
        <ele>325</ele>
        <time>2016-08-18T17:04:44Z</time>
      </trkpt>
      <trkpt lat="47.14704" lon="3.37564">
        <ele>323</ele>
        <time>2016-08-18T17:04:45Z</time>
      </trkpt>
      <trkpt lat="47.14713" lon="3.37581">
        <ele>322</ele>
        <time>2016-08-18T17:04:46Z</time>
      </trkpt>
      <trkpt lat="47.14721" lon="3.37598">
        <ele>320</ele>
        <time>2016-08-18T17:04:47Z</time>
      </trkpt>
      <trkpt lat="47.14729" lon="3.37614">
        <ele>318</ele>
        <time>2016-08-18T17:04:48Z</time>
      </trkpt>
      <trkpt lat="47.14737" lon="3.37632">
        <ele>317</ele>
        <time>2016-08-18T17:04:49Z</time>
      </trkpt>
      <trkpt lat="47.14745" lon="3.3765">
        <ele>316</ele>
        <time>2016-08-18T17:04:50Z</time>
      </trkpt>
      <trkpt lat="47.14758" lon="3.37676">
        <ele>314</ele>
        <time>2016-08-18T17:04:52Z</time>
      </trkpt>
      <trkpt lat="47.14766" lon="3.37694">
        <ele>314</ele>
        <time>2016-08-18T17:04:53Z</time>
      </trkpt>
      <trkpt lat="47.14771" lon="3.37706">
        <ele>312</ele>
        <time>2016-08-18T17:04:53Z</time>
      </trkpt>
      <trkpt lat="47.14779" lon="3.37727">
        <ele>311</ele>
        <time>2016-08-18T17:04:54Z</time>
      </trkpt>
      <trkpt lat="47.14785" lon="3.37747">
        <ele>310</ele>
        <time>2016-08-18T17:04:55Z</time>
      </trkpt>
      <trkpt lat="47.14791" lon="3.37769">
        <ele>309</ele>
        <time>2016-08-18T17:04:56Z</time>
      </trkpt>
      <trkpt lat="47.14796" lon="3.37789">
        <ele>307</ele>
        <time>2016-08-18T17:04:57Z</time>
      </trkpt>
      <trkpt lat="47.14802" lon="3.37811">
        <ele>307</ele>
        <time>2016-08-18T17:04:58Z</time>
      </trkpt>
      <trkpt lat="47.14807" lon="3.37829">
        <ele>306</ele>
        <time>2016-08-18T17:04:59Z</time>
      </trkpt>
      <trkpt lat="47.14813" lon="3.37849">
        <ele>306</ele>
        <time>2016-08-18T17:05:01Z</time>
      </trkpt>
      <trkpt lat="47.14817" lon="3.37861">
        <ele>305</ele>
        <time>2016-08-18T17:05:02Z</time>
      </trkpt>
      <trkpt lat="47.1482" lon="3.37868">
        <ele>304</ele>
        <time>2016-08-18T17:05:02Z</time>
      </trkpt>
      <trkpt lat="47.14822" lon="3.37872">
        <ele>304</ele>
        <time>2016-08-18T17:05:03Z</time>
      </trkpt>
      <trkpt lat="47.14823" lon="3.37874">
        <ele>304</ele>
        <time>2016-08-18T17:05:04Z</time>
      </trkpt>
      <trkpt lat="47.14823" lon="3.37875">
        <ele>304</ele>
        <time>2016-08-18T17:05:05Z</time>
      </trkpt>
      <trkpt lat="47.14823" lon="3.37875">
        <ele>304</ele>
        <time>2016-08-18T17:05:06Z</time>
      </trkpt>
      <trkpt lat="47.14823" lon="3.37875">
        <ele>304</ele>
        <time>2016-08-18T17:05:08Z</time>
      </trkpt>
      <trkpt lat="47.14823" lon="3.37875">
        <ele>304</ele>
        <time>2016-08-18T17:05:08Z</time>
      </trkpt>
      <trkpt lat="47.14823" lon="3.37875">
        <ele>304</ele>
        <time>2016-08-18T17:05:09Z</time>
      </trkpt>
      <trkpt lat="47.14823" lon="3.37875">
        <ele>304</ele>
        <time>2016-08-18T17:05:09Z</time>
      </trkpt>
      <trkpt lat="47.14823" lon="3.37875">
        <ele>304</ele>
        <time>2016-08-18T17:05:10Z</time>
      </trkpt>
      <trkpt lat="47.14825" lon="3.37876">
        <ele>304</ele>
        <time>2016-08-18T17:05:11Z</time>
      </trkpt>
      <trkpt lat="47.14823" lon="3.37874">
        <ele>304</ele>
        <time>2016-08-18T17:05:12Z</time>
      </trkpt>
      <trkpt lat="47.14824" lon="3.37874">
        <ele>304</ele>
        <time>2016-08-18T17:05:13Z</time>
      </trkpt>
      <trkpt lat="47.14824" lon="3.37874">
        <ele>304</ele>
        <time>2016-08-18T17:05:14Z</time>
      </trkpt>
      <trkpt lat="47.14824" lon="3.37874">
        <ele>304</ele>
        <time>2016-08-18T17:05:15Z</time>
      </trkpt>
      <trkpt lat="47.14835" lon="3.37875">
        <ele>304</ele>
        <time>2016-08-18T17:05:16Z</time>
      </trkpt>
      <trkpt lat="47.14835" lon="3.37876">
        <ele>304</ele>
        <time>2016-08-18T17:05:16Z</time>
      </trkpt>
      <trkpt lat="47.1485" lon="3.37868">
        <ele>303</ele>
        <time>2016-08-18T17:05:21Z</time>
      </trkpt>
      <trkpt lat="47.14871" lon="3.3786">
        <ele>302</ele>
        <time>2016-08-18T17:05:26Z</time>
      </trkpt>
      <trkpt lat="47.14893" lon="3.37851">
        <ele>303</ele>
        <time>2016-08-18T17:05:31Z</time>
      </trkpt>
      <trkpt lat="47.14917" lon="3.37838">
        <ele>301</ele>
        <time>2016-08-18T17:05:36Z</time>
      </trkpt>
      <trkpt lat="47.14945" lon="3.37825">
        <ele>300</ele>
        <time>2016-08-18T17:05:41Z</time>
      </trkpt>
      <trkpt lat="47.14977" lon="3.37812">
        <ele>299</ele>
        <time>2016-08-18T17:05:46Z</time>
      </trkpt>
      <trkpt lat="47.15012" lon="3.37793">
        <ele>298</ele>
        <time>2016-08-18T17:05:51Z</time>
      </trkpt>
      <trkpt lat="47.15043" lon="3.37761">
        <ele>297</ele>
        <time>2016-08-18T17:05:56Z</time>
      </trkpt>
      <trkpt lat="47.15072" lon="3.3772">
        <ele>296</ele>
        <time>2016-08-18T17:06:01Z</time>
      </trkpt>
      <trkpt lat="47.15111" lon="3.37688">
        <ele>293</ele>
        <time>2016-08-18T17:06:06Z</time>
      </trkpt>
      <trkpt lat="47.15161" lon="3.37668">
        <ele>293</ele>
        <time>2016-08-18T17:06:11Z</time>
      </trkpt>
      <trkpt lat="47.15203" lon="3.37657">
        <ele>296</ele>
        <time>2016-08-18T17:06:16Z</time>
      </trkpt>
      <trkpt lat="47.15235" lon="3.37642">
        <ele>298</ele>
        <time>2016-08-18T17:06:21Z</time>
      </trkpt>
      <trkpt lat="47.15266" lon="3.37629">
        <ele>298</ele>
        <time>2016-08-18T17:06:26Z</time>
      </trkpt>
      <trkpt lat="47.15297" lon="3.37612">
        <ele>297</ele>
        <time>2016-08-18T17:06:31Z</time>
      </trkpt>
      <trkpt lat="47.15331" lon="3.37588">
        <ele>294</ele>
        <time>2016-08-18T17:06:36Z</time>
      </trkpt>
      <trkpt lat="47.15369" lon="3.37568">
        <ele>293</ele>
        <time>2016-08-18T17:06:41Z</time>
      </trkpt>
      <trkpt lat="47.1541" lon="3.37549">
        <ele>292</ele>
        <time>2016-08-18T17:06:46Z</time>
      </trkpt>
      <trkpt lat="47.15461" lon="3.37523">
        <ele>291</ele>
        <time>2016-08-18T17:06:52Z</time>
      </trkpt>
      <trkpt lat="47.15492" lon="3.37515">
        <ele>290</ele>
        <time>2016-08-18T17:06:56Z</time>
      </trkpt>
      <trkpt lat="47.15529" lon="3.37521">
        <ele>290</ele>
        <time>2016-08-18T17:07:01Z</time>
      </trkpt>
      <trkpt lat="47.15562" lon="3.37526">
        <ele>291</ele>
        <time>2016-08-18T17:07:06Z</time>
      </trkpt>
      <trkpt lat="47.15592" lon="3.37528">
        <ele>292</ele>
        <time>2016-08-18T17:07:11Z</time>
      </trkpt>
      <trkpt lat="47.15622" lon="3.37525">
        <ele>293</ele>
        <time>2016-08-18T17:07:16Z</time>
      </trkpt>
      <trkpt lat="47.15654" lon="3.37523">
        <ele>293</ele>
        <time>2016-08-18T17:07:21Z</time>
      </trkpt>
      <trkpt lat="47.15686" lon="3.3752">
        <ele>292</ele>
        <time>2016-08-18T17:07:26Z</time>
      </trkpt>
      <trkpt lat="47.15716" lon="3.37514">
        <ele>291</ele>
        <time>2016-08-18T17:07:31Z</time>
      </trkpt>
      <trkpt lat="47.15746" lon="3.37505">
        <ele>290</ele>
        <time>2016-08-18T17:07:36Z</time>
      </trkpt>
      <trkpt lat="47.15772" lon="3.37485">
        <ele>290</ele>
        <time>2016-08-18T17:07:41Z</time>
      </trkpt>
      <trkpt lat="47.15796" lon="3.37464">
        <ele>290</ele>
        <time>2016-08-18T17:07:46Z</time>
      </trkpt>
      <trkpt lat="47.1582" lon="3.37443">
        <ele>289</ele>
        <time>2016-08-18T17:07:51Z</time>
      </trkpt>
      <trkpt lat="47.15845" lon="3.37417">
        <ele>289</ele>
        <time>2016-08-18T17:07:56Z</time>
      </trkpt>
      <trkpt lat="47.15862" lon="3.37386">
        <ele>288</ele>
        <time>2016-08-18T17:08:01Z</time>
      </trkpt>
      <trkpt lat="47.15893" lon="3.37334">
        <ele>288</ele>
        <time>2016-08-18T17:08:09Z</time>
      </trkpt>
      <trkpt lat="47.15894" lon="3.37333">
        <ele>288</ele>
        <time>2016-08-18T17:08:10Z</time>
      </trkpt>
      <trkpt lat="47.159" lon="3.37327">
        <ele>287</ele>
        <time>2016-08-18T17:08:11Z</time>
      </trkpt>
      <trkpt lat="47.15906" lon="3.37322">
        <ele>287</ele>
        <time>2016-08-18T17:08:12Z</time>
      </trkpt>
      <trkpt lat="47.15912" lon="3.37317">
        <ele>287</ele>
        <time>2016-08-18T17:08:13Z</time>
      </trkpt>
      <trkpt lat="47.15919" lon="3.37312">
        <ele>287</ele>
        <time>2016-08-18T17:08:14Z</time>
      </trkpt>
      <trkpt lat="47.15926" lon="3.37307">
        <ele>286</ele>
        <time>2016-08-18T17:08:15Z</time>
      </trkpt>
      <trkpt lat="47.15934" lon="3.37303">
        <ele>286</ele>
        <time>2016-08-18T17:08:16Z</time>
      </trkpt>
      <trkpt lat="47.15946" lon="3.37299">
        <ele>285</ele>
        <time>2016-08-18T17:08:17Z</time>
      </trkpt>
      <trkpt lat="47.15949" lon="3.37299">
        <ele>285</ele>
        <time>2016-08-18T17:08:18Z</time>
      </trkpt>
      <trkpt lat="47.15958" lon="3.37297">
        <ele>285</ele>
        <time>2016-08-18T17:08:19Z</time>
      </trkpt>
      <trkpt lat="47.15967" lon="3.37295">
        <ele>284</ele>
        <time>2016-08-18T17:08:20Z</time>
      </trkpt>
      <trkpt lat="47.15977" lon="3.37294">
        <ele>284</ele>
        <time>2016-08-18T17:08:21Z</time>
      </trkpt>
      <trkpt lat="47.15987" lon="3.37292">
        <ele>283</ele>
        <time>2016-08-18T17:08:22Z</time>
      </trkpt>
      <trkpt lat="47.15997" lon="3.3729">
        <ele>283</ele>
        <time>2016-08-18T17:08:23Z</time>
      </trkpt>
      <trkpt lat="47.16007" lon="3.37289">
        <ele>282</ele>
        <time>2016-08-18T17:08:24Z</time>
      </trkpt>
      <trkpt lat="47.16017" lon="3.37287">
        <ele>282</ele>
        <time>2016-08-18T17:08:25Z</time>
      </trkpt>
      <trkpt lat="47.16028" lon="3.37286">
        <ele>281</ele>
        <time>2016-08-18T17:08:26Z</time>
      </trkpt>
      <trkpt lat="47.16038" lon="3.37284">
        <ele>281</ele>
        <time>2016-08-18T17:08:27Z</time>
      </trkpt>
      <trkpt lat="47.16049" lon="3.37281">
        <ele>281</ele>
        <time>2016-08-18T17:08:28Z</time>
      </trkpt>
      <trkpt lat="47.16059" lon="3.37279">
        <ele>280</ele>
        <time>2016-08-18T17:08:29Z</time>
      </trkpt>
      <trkpt lat="47.16074" lon="3.37277">
        <ele>279</ele>
        <time>2016-08-18T17:08:31Z</time>
      </trkpt>
      <trkpt lat="47.16085" lon="3.37276">
        <ele>279</ele>
        <time>2016-08-18T17:08:31Z</time>
      </trkpt>
      <trkpt lat="47.16097" lon="3.37274">
        <ele>279</ele>
        <time>2016-08-18T17:08:33Z</time>
      </trkpt>
      <trkpt lat="47.16108" lon="3.37272">
        <ele>278</ele>
        <time>2016-08-18T17:08:34Z</time>
      </trkpt>
      <trkpt lat="47.16117" lon="3.3727">
        <ele>278</ele>
        <time>2016-08-18T17:08:34Z</time>
      </trkpt>
      <trkpt lat="47.16125" lon="3.37269">
        <ele>278</ele>
        <time>2016-08-18T17:08:35Z</time>
      </trkpt>
      <trkpt lat="47.16139" lon="3.37266">
        <ele>277</ele>
        <time>2016-08-18T17:08:36Z</time>
      </trkpt>
      <trkpt lat="47.16149" lon="3.37265">
        <ele>277</ele>
        <time>2016-08-18T17:08:37Z</time>
      </trkpt>
      <trkpt lat="47.1616" lon="3.37263">
        <ele>276</ele>
        <time>2016-08-18T17:08:38Z</time>
      </trkpt>
      <trkpt lat="47.16172" lon="3.37261">
        <ele>275</ele>
        <time>2016-08-18T17:08:39Z</time>
      </trkpt>
      <trkpt lat="47.16183" lon="3.37259">
        <ele>274</ele>
        <time>2016-08-18T17:08:40Z</time>
      </trkpt>
      <trkpt lat="47.16197" lon="3.37257">
        <ele>274</ele>
        <time>2016-08-18T17:08:42Z</time>
      </trkpt>
      <trkpt lat="47.16206" lon="3.37256">
        <ele>273</ele>
        <time>2016-08-18T17:08:42Z</time>
      </trkpt>
      <trkpt lat="47.16217" lon="3.37254">
        <ele>272</ele>
        <time>2016-08-18T17:08:43Z</time>
      </trkpt>
      <trkpt lat="47.16228" lon="3.37253">
        <ele>272</ele>
        <time>2016-08-18T17:08:44Z</time>
      </trkpt>
      <trkpt lat="47.16239" lon="3.3725">
        <ele>271</ele>
        <time>2016-08-18T17:08:45Z</time>
      </trkpt>
      <trkpt lat="47.1625" lon="3.37247">
        <ele>271</ele>
        <time>2016-08-18T17:08:46Z</time>
      </trkpt>
      <trkpt lat="47.16261" lon="3.37246">
        <ele>270</ele>
        <time>2016-08-18T17:08:47Z</time>
      </trkpt>
      <trkpt lat="47.16272" lon="3.37244">
        <ele>270</ele>
        <time>2016-08-18T17:08:48Z</time>
      </trkpt>
      <trkpt lat="47.16283" lon="3.37243">
        <ele>269</ele>
        <time>2016-08-18T17:08:49Z</time>
      </trkpt>
      <trkpt lat="47.16294" lon="3.37242">
        <ele>269</ele>
        <time>2016-08-18T17:08:51Z</time>
      </trkpt>
      <trkpt lat="47.16304" lon="3.37239">
        <ele>269</ele>
        <time>2016-08-18T17:08:51Z</time>
      </trkpt>
      <trkpt lat="47.16314" lon="3.37232">
        <ele>268</ele>
        <time>2016-08-18T17:08:53Z</time>
      </trkpt>
      <trkpt lat="47.16322" lon="3.37223">
        <ele>268</ele>
        <time>2016-08-18T17:08:54Z</time>
      </trkpt>
      <trkpt lat="47.1633" lon="3.37213">
        <ele>267</ele>
        <time>2016-08-18T17:08:55Z</time>
      </trkpt>
      <trkpt lat="47.16337" lon="3.37202">
        <ele>268</ele>
        <time>2016-08-18T17:08:56Z</time>
      </trkpt>
      <trkpt lat="47.16344" lon="3.37192">
        <ele>267</ele>
        <time>2016-08-18T17:08:57Z</time>
      </trkpt>
      <trkpt lat="47.16351" lon="3.3718">
        <ele>267</ele>
        <time>2016-08-18T17:08:58Z</time>
      </trkpt>
      <trkpt lat="47.16359" lon="3.37169">
        <ele>267</ele>
        <time>2016-08-18T17:08:59Z</time>
      </trkpt>
      <trkpt lat="47.16366" lon="3.37158">
        <ele>267</ele>
        <time>2016-08-18T17:09:00Z</time>
      </trkpt>
      <trkpt lat="47.16372" lon="3.37147">
        <ele>268</ele>
        <time>2016-08-18T17:09:01Z</time>
      </trkpt>
      <trkpt lat="47.16384" lon="3.37128">
        <ele>268</ele>
        <time>2016-08-18T17:09:03Z</time>
      </trkpt>
      <trkpt lat="47.16385" lon="3.37126">
        <ele>268</ele>
        <time>2016-08-18T17:09:03Z</time>
      </trkpt>
      <trkpt lat="47.16391" lon="3.37117">
        <ele>268</ele>
        <time>2016-08-18T17:09:04Z</time>
      </trkpt>
      <trkpt lat="47.16397" lon="3.37107">
        <ele>268</ele>
        <time>2016-08-18T17:09:05Z</time>
      </trkpt>
      <trkpt lat="47.16403" lon="3.37098">
        <ele>268</ele>
        <time>2016-08-18T17:09:06Z</time>
      </trkpt>
      <trkpt lat="47.16408" lon="3.37089">
        <ele>268</ele>
        <time>2016-08-18T17:09:07Z</time>
      </trkpt>
      <trkpt lat="47.16413" lon="3.37081">
        <ele>269</ele>
        <time>2016-08-18T17:09:08Z</time>
      </trkpt>
      <trkpt lat="47.16418" lon="3.37074">
        <ele>269</ele>
        <time>2016-08-18T17:09:09Z</time>
      </trkpt>
      <trkpt lat="47.16424" lon="3.37066">
        <ele>269</ele>
        <time>2016-08-18T17:09:10Z</time>
      </trkpt>
      <trkpt lat="47.16429" lon="3.37059">
        <ele>269</ele>
        <time>2016-08-18T17:09:11Z</time>
      </trkpt>
      <trkpt lat="47.16433" lon="3.37052">
        <ele>270</ele>
        <time>2016-08-18T17:09:12Z</time>
      </trkpt>
      <trkpt lat="47.16441" lon="3.37042">
        <ele>271</ele>
        <time>2016-08-18T17:09:14Z</time>
      </trkpt>
      <trkpt lat="47.16442" lon="3.37039">
        <ele>271</ele>
        <time>2016-08-18T17:09:14Z</time>
      </trkpt>
      <trkpt lat="47.16447" lon="3.37033">
        <ele>271</ele>
        <time>2016-08-18T17:09:15Z</time>
      </trkpt>
      <trkpt lat="47.16451" lon="3.37027">
        <ele>272</ele>
        <time>2016-08-18T17:09:16Z</time>
      </trkpt>
      <trkpt lat="47.16455" lon="3.37021">
        <ele>272</ele>
        <time>2016-08-18T17:09:17Z</time>
      </trkpt>
      <trkpt lat="47.16458" lon="3.37015">
        <ele>272</ele>
        <time>2016-08-18T17:09:18Z</time>
      </trkpt>
      <trkpt lat="47.16464" lon="3.37006">
        <ele>273</ele>
        <time>2016-08-18T17:09:19Z</time>
      </trkpt>
      <trkpt lat="47.16466" lon="3.37003">
        <ele>273</ele>
        <time>2016-08-18T17:09:20Z</time>
      </trkpt>
      <trkpt lat="47.16471" lon="3.36994">
        <ele>274</ele>
        <time>2016-08-18T17:09:22Z</time>
      </trkpt>
      <trkpt lat="47.16473" lon="3.36991">
        <ele>274</ele>
        <time>2016-08-18T17:09:22Z</time>
      </trkpt>
      <trkpt lat="47.16476" lon="3.36986">
        <ele>275</ele>
        <time>2016-08-18T17:09:23Z</time>
      </trkpt>
      <trkpt lat="47.1648" lon="3.3698">
        <ele>274</ele>
        <time>2016-08-18T17:09:24Z</time>
      </trkpt>
      <trkpt lat="47.16484" lon="3.36973">
        <ele>275</ele>
        <time>2016-08-18T17:09:26Z</time>
      </trkpt>
      <trkpt lat="47.16486" lon="3.3697">
        <ele>275</ele>
        <time>2016-08-18T17:09:26Z</time>
      </trkpt>
      <trkpt lat="47.16491" lon="3.36963">
        <ele>274</ele>
        <time>2016-08-18T17:09:27Z</time>
      </trkpt>
      <trkpt lat="47.16493" lon="3.36959">
        <ele>274</ele>
        <time>2016-08-18T17:09:28Z</time>
      </trkpt>
      <trkpt lat="47.16496" lon="3.36954">
        <ele>274</ele>
        <time>2016-08-18T17:09:29Z</time>
      </trkpt>
      <trkpt lat="47.16501" lon="3.36948">
        <ele>274</ele>
        <time>2016-08-18T17:09:31Z</time>
      </trkpt>
      <trkpt lat="47.16504" lon="3.36942">
        <ele>274</ele>
        <time>2016-08-18T17:09:32Z</time>
      </trkpt>
      <trkpt lat="47.16506" lon="3.36939">
        <ele>274</ele>
        <time>2016-08-18T17:09:32Z</time>
      </trkpt>
      <trkpt lat="47.1651" lon="3.36934">
        <ele>274</ele>
        <time>2016-08-18T17:09:33Z</time>
      </trkpt>
      <trkpt lat="47.16513" lon="3.36926">
        <ele>274</ele>
        <time>2016-08-18T17:09:35Z</time>
      </trkpt>
      <trkpt lat="47.16516" lon="3.36922">
        <ele>274</ele>
        <time>2016-08-18T17:09:35Z</time>
      </trkpt>
      <trkpt lat="47.16519" lon="3.36917">
        <ele>274</ele>
        <time>2016-08-18T17:09:36Z</time>
      </trkpt>
      <trkpt lat="47.16522" lon="3.36911">
        <ele>274</ele>
        <time>2016-08-18T17:09:37Z</time>
      </trkpt>
      <trkpt lat="47.16526" lon="3.36907">
        <ele>274</ele>
        <time>2016-08-18T17:09:38Z</time>
      </trkpt>
      <trkpt lat="47.16529" lon="3.36901">
        <ele>274</ele>
        <time>2016-08-18T17:09:39Z</time>
      </trkpt>
      <trkpt lat="47.16533" lon="3.36895">
        <ele>274</ele>
        <time>2016-08-18T17:09:40Z</time>
      </trkpt>
      <trkpt lat="47.16536" lon="3.3689">
        <ele>274</ele>
        <time>2016-08-18T17:09:42Z</time>
      </trkpt>
      <trkpt lat="47.1654" lon="3.36884">
        <ele>274</ele>
        <time>2016-08-18T17:09:43Z</time>
      </trkpt>
      <trkpt lat="47.16544" lon="3.36878">
        <ele>273</ele>
        <time>2016-08-18T17:09:44Z</time>
      </trkpt>
      <trkpt lat="47.16548" lon="3.36872">
        <ele>272</ele>
        <time>2016-08-18T17:09:45Z</time>
      </trkpt>
      <trkpt lat="47.16552" lon="3.36867">
        <ele>272</ele>
        <time>2016-08-18T17:09:46Z</time>
      </trkpt>
      <trkpt lat="47.16556" lon="3.36861">
        <ele>271</ele>
        <time>2016-08-18T17:09:47Z</time>
      </trkpt>
      <trkpt lat="47.1656" lon="3.36855">
        <ele>271</ele>
        <time>2016-08-18T17:09:48Z</time>
      </trkpt>
      <trkpt lat="47.16564" lon="3.36849">
        <ele>271</ele>
        <time>2016-08-18T17:09:49Z</time>
      </trkpt>
      <trkpt lat="47.16569" lon="3.36843">
        <ele>270</ele>
        <time>2016-08-18T17:09:50Z</time>
      </trkpt>
      <trkpt lat="47.16573" lon="3.36837">
        <ele>270</ele>
        <time>2016-08-18T17:09:51Z</time>
      </trkpt>
      <trkpt lat="47.1658" lon="3.36825">
        <ele>270</ele>
        <time>2016-08-18T17:09:53Z</time>
      </trkpt>
      <trkpt lat="47.1658" lon="3.36823">
        <ele>270</ele>
        <time>2016-08-18T17:09:53Z</time>
      </trkpt>
      <trkpt lat="47.16584" lon="3.36818">
        <ele>270</ele>
        <time>2016-08-18T17:09:54Z</time>
      </trkpt>
      <trkpt lat="47.1659" lon="3.36808">
        <ele>270</ele>
        <time>2016-08-18T17:09:55Z</time>
      </trkpt>
      <trkpt lat="47.16591" lon="3.36806">
        <ele>270</ele>
        <time>2016-08-18T17:09:56Z</time>
      </trkpt>
      <trkpt lat="47.16595" lon="3.36799">
        <ele>270</ele>
        <time>2016-08-18T17:09:57Z</time>
      </trkpt>
      <trkpt lat="47.16599" lon="3.36794">
        <ele>270</ele>
        <time>2016-08-18T17:09:58Z</time>
      </trkpt>
      <trkpt lat="47.16603" lon="3.36788">
        <ele>270</ele>
        <time>2016-08-18T17:09:59Z</time>
      </trkpt>
      <trkpt lat="47.16606" lon="3.36782">
        <ele>270</ele>
        <time>2016-08-18T17:10:00Z</time>
      </trkpt>
      <trkpt lat="47.1661" lon="3.36777">
        <ele>270</ele>
        <time>2016-08-18T17:10:01Z</time>
      </trkpt>
      <trkpt lat="47.16614" lon="3.36771">
        <ele>270</ele>
        <time>2016-08-18T17:10:02Z</time>
      </trkpt>
      <trkpt lat="47.16618" lon="3.36765">
        <ele>271</ele>
        <time>2016-08-18T17:10:03Z</time>
      </trkpt>
      <trkpt lat="47.16621" lon="3.36759">
        <ele>271</ele>
        <time>2016-08-18T17:10:04Z</time>
      </trkpt>
      <trkpt lat="47.16625" lon="3.36754">
        <ele>271</ele>
        <time>2016-08-18T17:10:05Z</time>
      </trkpt>
      <trkpt lat="47.16629" lon="3.36748">
        <ele>271</ele>
        <time>2016-08-18T17:10:06Z</time>
      </trkpt>
      <trkpt lat="47.16633" lon="3.36742">
        <ele>271</ele>
        <time>2016-08-18T17:10:07Z</time>
      </trkpt>
      <trkpt lat="47.16637" lon="3.36736">
        <ele>271</ele>
        <time>2016-08-18T17:10:08Z</time>
      </trkpt>
      <trkpt lat="47.16641" lon="3.3673">
        <ele>271</ele>
        <time>2016-08-18T17:10:09Z</time>
      </trkpt>
      <trkpt lat="47.16645" lon="3.36724">
        <ele>271</ele>
        <time>2016-08-18T17:10:10Z</time>
      </trkpt>
      <trkpt lat="47.16651" lon="3.36715">
        <ele>271</ele>
        <time>2016-08-18T17:10:12Z</time>
      </trkpt>
      <trkpt lat="47.16653" lon="3.36712">
        <ele>271</ele>
        <time>2016-08-18T17:10:12Z</time>
      </trkpt>
      <trkpt lat="47.16658" lon="3.36703">
        <ele>271</ele>
        <time>2016-08-18T17:10:14Z</time>
      </trkpt>
      <trkpt lat="47.16661" lon="3.367">
        <ele>272</ele>
        <time>2016-08-18T17:10:14Z</time>
      </trkpt>
      <trkpt lat="47.16664" lon="3.36694">
        <ele>272</ele>
        <time>2016-08-18T17:10:15Z</time>
      </trkpt>
      <trkpt lat="47.16669" lon="3.36687">
        <ele>272</ele>
        <time>2016-08-18T17:10:16Z</time>
      </trkpt>
      <trkpt lat="47.16672" lon="3.36682">
        <ele>272</ele>
        <time>2016-08-18T17:10:17Z</time>
      </trkpt>
      <trkpt lat="47.16676" lon="3.36676">
        <ele>272</ele>
        <time>2016-08-18T17:10:18Z</time>
      </trkpt>
      <trkpt lat="47.1668" lon="3.3667">
        <ele>272</ele>
        <time>2016-08-18T17:10:19Z</time>
      </trkpt>
      <trkpt lat="47.16684" lon="3.36664">
        <ele>272</ele>
        <time>2016-08-18T17:10:20Z</time>
      </trkpt>
      <trkpt lat="47.16688" lon="3.36657">
        <ele>272</ele>
        <time>2016-08-18T17:10:21Z</time>
      </trkpt>
      <trkpt lat="47.16692" lon="3.36652">
        <ele>272</ele>
        <time>2016-08-18T17:10:22Z</time>
      </trkpt>
      <trkpt lat="47.16696" lon="3.36645">
        <ele>271</ele>
        <time>2016-08-18T17:10:23Z</time>
      </trkpt>
      <trkpt lat="47.167" lon="3.3664">
        <ele>271</ele>
        <time>2016-08-18T17:10:24Z</time>
      </trkpt>
      <trkpt lat="47.16703" lon="3.36634">
        <ele>270</ele>
        <time>2016-08-18T17:10:25Z</time>
      </trkpt>
      <trkpt lat="47.16707" lon="3.36629">
        <ele>270</ele>
        <time>2016-08-18T17:10:26Z</time>
      </trkpt>
      <trkpt lat="47.1671" lon="3.36623">
        <ele>271</ele>
        <time>2016-08-18T17:10:27Z</time>
      </trkpt>
      <trkpt lat="47.16714" lon="3.36617">
        <ele>271</ele>
        <time>2016-08-18T17:10:28Z</time>
      </trkpt>
      <trkpt lat="47.16718" lon="3.36611">
        <ele>271</ele>
        <time>2016-08-18T17:10:29Z</time>
      </trkpt>
      <trkpt lat="47.16721" lon="3.36605">
        <ele>271</ele>
        <time>2016-08-18T17:10:30Z</time>
      </trkpt>
      <trkpt lat="47.16725" lon="3.36598">
        <ele>271</ele>
        <time>2016-08-18T17:10:31Z</time>
      </trkpt>
      <trkpt lat="47.16729" lon="3.36592">
        <ele>271</ele>
        <time>2016-08-18T17:10:33Z</time>
      </trkpt>
      <trkpt lat="47.16733" lon="3.36585">
        <ele>271</ele>
        <time>2016-08-18T17:10:34Z</time>
      </trkpt>
      <trkpt lat="47.16736" lon="3.36579">
        <ele>272</ele>
        <time>2016-08-18T17:10:35Z</time>
      </trkpt>
      <trkpt lat="47.1674" lon="3.36572">
        <ele>272</ele>
        <time>2016-08-18T17:10:36Z</time>
      </trkpt>
      <trkpt lat="47.16744" lon="3.36566">
        <ele>272</ele>
        <time>2016-08-18T17:10:37Z</time>
      </trkpt>
      <trkpt lat="47.16748" lon="3.3656">
        <ele>272</ele>
        <time>2016-08-18T17:10:38Z</time>
      </trkpt>
      <trkpt lat="47.16752" lon="3.36553">
        <ele>272</ele>
        <time>2016-08-18T17:10:39Z</time>
      </trkpt>
      <trkpt lat="47.16756" lon="3.36547">
        <ele>272</ele>
        <time>2016-08-18T17:10:40Z</time>
      </trkpt>
      <trkpt lat="47.1676" lon="3.36541">
        <ele>273</ele>
        <time>2016-08-18T17:10:41Z</time>
      </trkpt>
      <trkpt lat="47.16764" lon="3.36534">
        <ele>273</ele>
        <time>2016-08-18T17:10:42Z</time>
      </trkpt>
      <trkpt lat="47.16767" lon="3.36528">
        <ele>274</ele>
        <time>2016-08-18T17:10:43Z</time>
      </trkpt>
      <trkpt lat="47.16771" lon="3.36521">
        <ele>274</ele>
        <time>2016-08-18T17:10:44Z</time>
      </trkpt>
      <trkpt lat="47.16775" lon="3.36515">
        <ele>274</ele>
        <time>2016-08-18T17:10:45Z</time>
      </trkpt>
      <trkpt lat="47.16778" lon="3.3651">
        <ele>274</ele>
        <time>2016-08-18T17:10:46Z</time>
      </trkpt>
      <trkpt lat="47.16782" lon="3.36503">
        <ele>274</ele>
        <time>2016-08-18T17:10:47Z</time>
      </trkpt>
      <trkpt lat="47.16786" lon="3.36497">
        <ele>275</ele>
        <time>2016-08-18T17:10:48Z</time>
      </trkpt>
      <trkpt lat="47.1679" lon="3.36491">
        <ele>274</ele>
        <time>2016-08-18T17:10:49Z</time>
      </trkpt>
      <trkpt lat="47.16793" lon="3.36484">
        <ele>275</ele>
        <time>2016-08-18T17:10:50Z</time>
      </trkpt>
      <trkpt lat="47.16797" lon="3.36478">
        <ele>275</ele>
        <time>2016-08-18T17:10:51Z</time>
      </trkpt>
      <trkpt lat="47.168" lon="3.36472">
        <ele>275</ele>
        <time>2016-08-18T17:10:52Z</time>
      </trkpt>
      <trkpt lat="47.16804" lon="3.36466">
        <ele>275</ele>
        <time>2016-08-18T17:10:53Z</time>
      </trkpt>
      <trkpt lat="47.16807" lon="3.36459">
        <ele>275</ele>
        <time>2016-08-18T17:10:54Z</time>
      </trkpt>
      <trkpt lat="47.16811" lon="3.36453">
        <ele>275</ele>
        <time>2016-08-18T17:10:55Z</time>
      </trkpt>
      <trkpt lat="47.16814" lon="3.36447">
        <ele>275</ele>
        <time>2016-08-18T17:10:56Z</time>
      </trkpt>
      <trkpt lat="47.16818" lon="3.36441">
        <ele>275</ele>
        <time>2016-08-18T17:10:57Z</time>
      </trkpt>
      <trkpt lat="47.16821" lon="3.36434">
        <ele>275</ele>
        <time>2016-08-18T17:10:58Z</time>
      </trkpt>
      <trkpt lat="47.16823" lon="3.36427">
        <ele>275</ele>
        <time>2016-08-18T17:10:59Z</time>
      </trkpt>
      <trkpt lat="47.16826" lon="3.36421">
        <ele>276</ele>
        <time>2016-08-18T17:11:00Z</time>
      </trkpt>
      <trkpt lat="47.16829" lon="3.36415">
        <ele>276</ele>
        <time>2016-08-18T17:11:01Z</time>
      </trkpt>
      <trkpt lat="47.16832" lon="3.36408">
        <ele>276</ele>
        <time>2016-08-18T17:11:02Z</time>
      </trkpt>
      <trkpt lat="47.16834" lon="3.36401">
        <ele>277</ele>
        <time>2016-08-18T17:11:03Z</time>
      </trkpt>
      <trkpt lat="47.16837" lon="3.36394">
        <ele>277</ele>
        <time>2016-08-18T17:11:04Z</time>
      </trkpt>
      <trkpt lat="47.1684" lon="3.36387">
        <ele>277</ele>
        <time>2016-08-18T17:11:05Z</time>
      </trkpt>
      <trkpt lat="47.16842" lon="3.3638">
        <ele>277</ele>
        <time>2016-08-18T17:11:06Z</time>
      </trkpt>
      <trkpt lat="47.16844" lon="3.36373">
        <ele>277</ele>
        <time>2016-08-18T17:11:07Z</time>
      </trkpt>
      <trkpt lat="47.16847" lon="3.36366">
        <ele>277</ele>
        <time>2016-08-18T17:11:08Z</time>
      </trkpt>
      <trkpt lat="47.16849" lon="3.36358">
        <ele>277</ele>
        <time>2016-08-18T17:11:09Z</time>
      </trkpt>
      <trkpt lat="47.16852" lon="3.36349">
        <ele>277</ele>
        <time>2016-08-18T17:11:10Z</time>
      </trkpt>
      <trkpt lat="47.16854" lon="3.36341">
        <ele>277</ele>
        <time>2016-08-18T17:11:11Z</time>
      </trkpt>
      <trkpt lat="47.16856" lon="3.36333">
        <ele>277</ele>
        <time>2016-08-18T17:11:12Z</time>
      </trkpt>
      <trkpt lat="47.16858" lon="3.36325">
        <ele>277</ele>
        <time>2016-08-18T17:11:13Z</time>
      </trkpt>
      <trkpt lat="47.16861" lon="3.36316">
        <ele>276</ele>
        <time>2016-08-18T17:11:14Z</time>
      </trkpt>
      <trkpt lat="47.16863" lon="3.36306">
        <ele>276</ele>
        <time>2016-08-18T17:11:15Z</time>
      </trkpt>
      <trkpt lat="47.16865" lon="3.36297">
        <ele>276</ele>
        <time>2016-08-18T17:11:16Z</time>
      </trkpt>
      <trkpt lat="47.16867" lon="3.36288">
        <ele>276</ele>
        <time>2016-08-18T17:11:17Z</time>
      </trkpt>
      <trkpt lat="47.16869" lon="3.36278">
        <ele>276</ele>
        <time>2016-08-18T17:11:18Z</time>
      </trkpt>
      <trkpt lat="47.1687" lon="3.36268">
        <ele>276</ele>
        <time>2016-08-18T17:11:19Z</time>
      </trkpt>
      <trkpt lat="47.16872" lon="3.36258">
        <ele>276</ele>
        <time>2016-08-18T17:11:20Z</time>
      </trkpt>
      <trkpt lat="47.16873" lon="3.36247">
        <ele>276</ele>
        <time>2016-08-18T17:11:22Z</time>
      </trkpt>
      <trkpt lat="47.16874" lon="3.36236">
        <ele>276</ele>
        <time>2016-08-18T17:11:22Z</time>
      </trkpt>
      <trkpt lat="47.16875" lon="3.36226">
        <ele>275</ele>
        <time>2016-08-18T17:11:24Z</time>
      </trkpt>
      <trkpt lat="47.16876" lon="3.36213">
        <ele>275</ele>
        <time>2016-08-18T17:11:25Z</time>
      </trkpt>
      <trkpt lat="47.16877" lon="3.36202">
        <ele>275</ele>
        <time>2016-08-18T17:11:26Z</time>
      </trkpt>
      <trkpt lat="47.16879" lon="3.36191">
        <ele>274</ele>
        <time>2016-08-18T17:11:27Z</time>
      </trkpt>
      <trkpt lat="47.1688" lon="3.3618">
        <ele>274</ele>
        <time>2016-08-18T17:11:28Z</time>
      </trkpt>
      <trkpt lat="47.16881" lon="3.36169">
        <ele>274</ele>
        <time>2016-08-18T17:11:29Z</time>
      </trkpt>
      <trkpt lat="47.16883" lon="3.36157">
        <ele>274</ele>
        <time>2016-08-18T17:11:30Z</time>
      </trkpt>
      <trkpt lat="47.16884" lon="3.36145">
        <ele>274</ele>
        <time>2016-08-18T17:11:31Z</time>
      </trkpt>
      <trkpt lat="47.16885" lon="3.36133">
        <ele>273</ele>
        <time>2016-08-18T17:11:32Z</time>
      </trkpt>
      <trkpt lat="47.16886" lon="3.36122">
        <ele>273</ele>
        <time>2016-08-18T17:11:33Z</time>
      </trkpt>
      <trkpt lat="47.16888" lon="3.36111">
        <ele>273</ele>
        <time>2016-08-18T17:11:34Z</time>
      </trkpt>
      <trkpt lat="47.16889" lon="3.36099">
        <ele>273</ele>
        <time>2016-08-18T17:11:35Z</time>
      </trkpt>
      <trkpt lat="47.1689" lon="3.36087">
        <ele>273</ele>
        <time>2016-08-18T17:11:36Z</time>
      </trkpt>
      <trkpt lat="47.16891" lon="3.36076">
        <ele>273</ele>
        <time>2016-08-18T17:11:37Z</time>
      </trkpt>
      <trkpt lat="47.16893" lon="3.36058">
        <ele>273</ele>
        <time>2016-08-18T17:11:38Z</time>
      </trkpt>
      <trkpt lat="47.16894" lon="3.3605">
        <ele>273</ele>
        <time>2016-08-18T17:11:39Z</time>
      </trkpt>
      <trkpt lat="47.16895" lon="3.36039">
        <ele>273</ele>
        <time>2016-08-18T17:11:40Z</time>
      </trkpt>
      <trkpt lat="47.16897" lon="3.36029">
        <ele>274</ele>
        <time>2016-08-18T17:11:41Z</time>
      </trkpt>
      <trkpt lat="47.16898" lon="3.36019">
        <ele>274</ele>
        <time>2016-08-18T17:11:42Z</time>
      </trkpt>
      <trkpt lat="47.16899" lon="3.36007">
        <ele>274</ele>
        <time>2016-08-18T17:11:44Z</time>
      </trkpt>
      <trkpt lat="47.169" lon="3.35999">
        <ele>274</ele>
        <time>2016-08-18T17:11:45Z</time>
      </trkpt>
      <trkpt lat="47.16901" lon="3.35992">
        <ele>274</ele>
        <time>2016-08-18T17:11:45Z</time>
      </trkpt>
      <trkpt lat="47.16901" lon="3.35985">
        <ele>274</ele>
        <time>2016-08-18T17:11:46Z</time>
      </trkpt>
      <trkpt lat="47.16902" lon="3.35977">
        <ele>274</ele>
        <time>2016-08-18T17:11:47Z</time>
      </trkpt>
      <trkpt lat="47.16903" lon="3.3597">
        <ele>274</ele>
        <time>2016-08-18T17:11:48Z</time>
      </trkpt>
      <trkpt lat="47.16904" lon="3.35964">
        <ele>274</ele>
        <time>2016-08-18T17:11:49Z</time>
      </trkpt>
      <trkpt lat="47.16904" lon="3.35958">
        <ele>275</ele>
        <time>2016-08-18T17:11:50Z</time>
      </trkpt>
      <trkpt lat="47.16905" lon="3.35952">
        <ele>275</ele>
        <time>2016-08-18T17:11:51Z</time>
      </trkpt>
      <trkpt lat="47.16906" lon="3.35946">
        <ele>275</ele>
        <time>2016-08-18T17:11:52Z</time>
      </trkpt>
      <trkpt lat="47.16906" lon="3.35939">
        <ele>275</ele>
        <time>2016-08-18T17:11:54Z</time>
      </trkpt>
      <trkpt lat="47.16907" lon="3.35933">
        <ele>275</ele>
        <time>2016-08-18T17:11:55Z</time>
      </trkpt>
      <trkpt lat="47.16908" lon="3.35927">
        <ele>275</ele>
        <time>2016-08-18T17:11:56Z</time>
      </trkpt>
      <trkpt lat="47.16909" lon="3.35922">
        <ele>275</ele>
        <time>2016-08-18T17:11:57Z</time>
      </trkpt>
      <trkpt lat="47.1691" lon="3.35916">
        <ele>275</ele>
        <time>2016-08-18T17:11:58Z</time>
      </trkpt>
      <trkpt lat="47.1691" lon="3.35911">
        <ele>275</ele>
        <time>2016-08-18T17:11:59Z</time>
      </trkpt>
      <trkpt lat="47.16911" lon="3.35904">
        <ele>275</ele>
        <time>2016-08-18T17:12:00Z</time>
      </trkpt>
      <trkpt lat="47.16912" lon="3.35899">
        <ele>275</ele>
        <time>2016-08-18T17:12:01Z</time>
      </trkpt>
      <trkpt lat="47.16912" lon="3.35891">
        <ele>275</ele>
        <time>2016-08-18T17:12:02Z</time>
      </trkpt>
      <trkpt lat="47.16913" lon="3.3589">
        <ele>275</ele>
        <time>2016-08-18T17:12:03Z</time>
      </trkpt>
      <trkpt lat="47.16913" lon="3.35884">
        <ele>275</ele>
        <time>2016-08-18T17:12:04Z</time>
      </trkpt>
      <trkpt lat="47.16914" lon="3.35874">
        <ele>276</ele>
        <time>2016-08-18T17:12:06Z</time>
      </trkpt>
      <trkpt lat="47.16914" lon="3.35873">
        <ele>276</ele>
        <time>2016-08-18T17:12:06Z</time>
      </trkpt>
      <trkpt lat="47.16915" lon="3.35868">
        <ele>276</ele>
        <time>2016-08-18T17:12:07Z</time>
      </trkpt>
      <trkpt lat="47.16916" lon="3.35863">
        <ele>276</ele>
        <time>2016-08-18T17:12:08Z</time>
      </trkpt>
      <trkpt lat="47.16916" lon="3.35854">
        <ele>276</ele>
        <time>2016-08-18T17:12:09Z</time>
      </trkpt>
      <trkpt lat="47.16916" lon="3.35852">
        <ele>276</ele>
        <time>2016-08-18T17:12:10Z</time>
      </trkpt>
      <trkpt lat="47.16916" lon="3.35847">
        <ele>276</ele>
        <time>2016-08-18T17:12:11Z</time>
      </trkpt>
      <trkpt lat="47.16917" lon="3.35842">
        <ele>276</ele>
        <time>2016-08-18T17:12:12Z</time>
      </trkpt>
      <trkpt lat="47.16918" lon="3.35837">
        <ele>276</ele>
        <time>2016-08-18T17:12:13Z</time>
      </trkpt>
      <trkpt lat="47.16918" lon="3.3583">
        <ele>276</ele>
        <time>2016-08-18T17:12:14Z</time>
      </trkpt>
      <trkpt lat="47.16919" lon="3.35825">
        <ele>276</ele>
        <time>2016-08-18T17:12:15Z</time>
      </trkpt>
      <trkpt lat="47.16919" lon="3.35819">
        <ele>276</ele>
        <time>2016-08-18T17:12:16Z</time>
      </trkpt>
      <trkpt lat="47.16919" lon="3.35814">
        <ele>276</ele>
        <time>2016-08-18T17:12:17Z</time>
      </trkpt>
      <trkpt lat="47.1692" lon="3.35809">
        <ele>276</ele>
        <time>2016-08-18T17:12:18Z</time>
      </trkpt>
      <trkpt lat="47.16921" lon="3.35804">
        <ele>276</ele>
        <time>2016-08-18T17:12:19Z</time>
      </trkpt>
      <trkpt lat="47.16922" lon="3.35798">
        <ele>277</ele>
        <time>2016-08-18T17:12:20Z</time>
      </trkpt>
      <trkpt lat="47.16922" lon="3.35793">
        <ele>277</ele>
        <time>2016-08-18T17:12:21Z</time>
      </trkpt>
      <trkpt lat="47.16922" lon="3.35787">
        <ele>277</ele>
        <time>2016-08-18T17:12:22Z</time>
      </trkpt>
      <trkpt lat="47.16923" lon="3.35779">
        <ele>277</ele>
        <time>2016-08-18T17:12:24Z</time>
      </trkpt>
      <trkpt lat="47.16924" lon="3.35774">
        <ele>276</ele>
        <time>2016-08-18T17:12:25Z</time>
      </trkpt>
      <trkpt lat="47.16924" lon="3.35771">
        <ele>276</ele>
        <time>2016-08-18T17:12:25Z</time>
      </trkpt>
      <trkpt lat="47.16924" lon="3.35766">
        <ele>276</ele>
        <time>2016-08-18T17:12:26Z</time>
      </trkpt>
      <trkpt lat="47.16925" lon="3.35759">
        <ele>275</ele>
        <time>2016-08-18T17:12:28Z</time>
      </trkpt>
      <trkpt lat="47.16926" lon="3.35756">
        <ele>275</ele>
        <time>2016-08-18T17:12:28Z</time>
      </trkpt>
      <trkpt lat="47.16926" lon="3.35749">
        <ele>275</ele>
        <time>2016-08-18T17:12:29Z</time>
      </trkpt>
      <trkpt lat="47.16927" lon="3.35744">
        <ele>275</ele>
        <time>2016-08-18T17:12:30Z</time>
      </trkpt>
      <trkpt lat="47.16928" lon="3.35739">
        <ele>275</ele>
        <time>2016-08-18T17:12:31Z</time>
      </trkpt>
      <trkpt lat="47.16928" lon="3.35731">
        <ele>275</ele>
        <time>2016-08-18T17:12:33Z</time>
      </trkpt>
      <trkpt lat="47.16929" lon="3.35726">
        <ele>274</ele>
        <time>2016-08-18T17:12:33Z</time>
      </trkpt>
      <trkpt lat="47.16929" lon="3.3572">
        <ele>274</ele>
        <time>2016-08-18T17:12:34Z</time>
      </trkpt>
      <trkpt lat="47.1693" lon="3.35713">
        <ele>275</ele>
        <time>2016-08-18T17:12:35Z</time>
      </trkpt>
      <trkpt lat="47.1693" lon="3.35706">
        <ele>275</ele>
        <time>2016-08-18T17:12:36Z</time>
      </trkpt>
      <trkpt lat="47.16931" lon="3.35701">
        <ele>275</ele>
        <time>2016-08-18T17:12:37Z</time>
      </trkpt>
      <trkpt lat="47.16932" lon="3.35693">
        <ele>275</ele>
        <time>2016-08-18T17:12:38Z</time>
      </trkpt>
      <trkpt lat="47.16933" lon="3.35686">
        <ele>275</ele>
        <time>2016-08-18T17:12:39Z</time>
      </trkpt>
      <trkpt lat="47.16933" lon="3.35678">
        <ele>275</ele>
        <time>2016-08-18T17:12:40Z</time>
      </trkpt>
      <trkpt lat="47.16934" lon="3.3567">
        <ele>275</ele>
        <time>2016-08-18T17:12:41Z</time>
      </trkpt>
      <trkpt lat="47.16935" lon="3.35662">
        <ele>275</ele>
        <time>2016-08-18T17:12:42Z</time>
      </trkpt>
      <trkpt lat="47.16936" lon="3.35653">
        <ele>275</ele>
        <time>2016-08-18T17:12:44Z</time>
      </trkpt>
      <trkpt lat="47.16937" lon="3.35645">
        <ele>275</ele>
        <time>2016-08-18T17:12:44Z</time>
      </trkpt>
      <trkpt lat="47.16938" lon="3.35636">
        <ele>275</ele>
        <time>2016-08-18T17:12:45Z</time>
      </trkpt>
      <trkpt lat="47.16939" lon="3.35627">
        <ele>274</ele>
        <time>2016-08-18T17:12:47Z</time>
      </trkpt>
      <trkpt lat="47.1694" lon="3.35617">
        <ele>274</ele>
        <time>2016-08-18T17:12:48Z</time>
      </trkpt>
      <trkpt lat="47.16941" lon="3.35608">
        <ele>274</ele>
        <time>2016-08-18T17:12:49Z</time>
      </trkpt>
      <trkpt lat="47.16942" lon="3.35598">
        <ele>274</ele>
        <time>2016-08-18T17:12:50Z</time>
      </trkpt>
      <trkpt lat="47.16943" lon="3.35588">
        <ele>274</ele>
        <time>2016-08-18T17:12:51Z</time>
      </trkpt>
      <trkpt lat="47.16944" lon="3.35578">
        <ele>273</ele>
        <time>2016-08-18T17:12:52Z</time>
      </trkpt>
      <trkpt lat="47.16946" lon="3.35559">
        <ele>273</ele>
        <time>2016-08-18T17:12:54Z</time>
      </trkpt>
      <trkpt lat="47.16947" lon="3.35557">
        <ele>273</ele>
        <time>2016-08-18T17:12:54Z</time>
      </trkpt>
      <trkpt lat="47.16948" lon="3.35547">
        <ele>273</ele>
        <time>2016-08-18T17:12:55Z</time>
      </trkpt>
      <trkpt lat="47.16949" lon="3.35537">
        <ele>272</ele>
        <time>2016-08-18T17:12:56Z</time>
      </trkpt>
      <trkpt lat="47.1695" lon="3.35526">
        <ele>272</ele>
        <time>2016-08-18T17:12:57Z</time>
      </trkpt>
      <trkpt lat="47.16952" lon="3.35508">
        <ele>271</ele>
        <time>2016-08-18T17:12:58Z</time>
      </trkpt>
      <trkpt lat="47.16952" lon="3.35504">
        <ele>271</ele>
        <time>2016-08-18T17:12:59Z</time>
      </trkpt>
      <trkpt lat="47.16953" lon="3.35493">
        <ele>271</ele>
        <time>2016-08-18T17:13:00Z</time>
      </trkpt>
      <trkpt lat="47.16954" lon="3.35483">
        <ele>271</ele>
        <time>2016-08-18T17:13:01Z</time>
      </trkpt>
      <trkpt lat="47.16956" lon="3.35473">
        <ele>271</ele>
        <time>2016-08-18T17:13:02Z</time>
      </trkpt>
      <trkpt lat="47.16957" lon="3.35458">
        <ele>272</ele>
        <time>2016-08-18T17:13:04Z</time>
      </trkpt>
      <trkpt lat="47.16958" lon="3.3545">
        <ele>273</ele>
        <time>2016-08-18T17:13:04Z</time>
      </trkpt>
      <trkpt lat="47.16959" lon="3.35444">
        <ele>273</ele>
        <time>2016-08-18T17:13:05Z</time>
      </trkpt>
      <trkpt lat="47.1696" lon="3.35435">
        <ele>273</ele>
        <time>2016-08-18T17:13:06Z</time>
      </trkpt>
      <trkpt lat="47.16961" lon="3.35426">
        <ele>273</ele>
        <time>2016-08-18T17:13:07Z</time>
      </trkpt>
      <trkpt lat="47.16962" lon="3.35417">
        <ele>273</ele>
        <time>2016-08-18T17:13:08Z</time>
      </trkpt>
      <trkpt lat="47.16963" lon="3.35408">
        <ele>272</ele>
        <time>2016-08-18T17:13:09Z</time>
      </trkpt>
      <trkpt lat="47.16964" lon="3.35398">
        <ele>272</ele>
        <time>2016-08-18T17:13:10Z</time>
      </trkpt>
      <trkpt lat="47.16965" lon="3.35389">
        <ele>272</ele>
        <time>2016-08-18T17:13:11Z</time>
      </trkpt>
      <trkpt lat="47.16966" lon="3.35377">
        <ele>272</ele>
        <time>2016-08-18T17:13:12Z</time>
      </trkpt>
      <trkpt lat="47.16967" lon="3.35368">
        <ele>272</ele>
        <time>2016-08-18T17:13:13Z</time>
      </trkpt>
      <trkpt lat="47.16969" lon="3.35358">
        <ele>273</ele>
        <time>2016-08-18T17:13:14Z</time>
      </trkpt>
      <trkpt lat="47.16969" lon="3.35351">
        <ele>273</ele>
        <time>2016-08-18T17:13:15Z</time>
      </trkpt>
      <trkpt lat="47.1697" lon="3.35342">
        <ele>273</ele>
        <time>2016-08-18T17:13:16Z</time>
      </trkpt>
      <trkpt lat="47.16971" lon="3.35332">
        <ele>272</ele>
        <time>2016-08-18T17:13:17Z</time>
      </trkpt>
      <trkpt lat="47.16972" lon="3.35319">
        <ele>272</ele>
        <time>2016-08-18T17:13:19Z</time>
      </trkpt>
      <trkpt lat="47.16973" lon="3.3531">
        <ele>271</ele>
        <time>2016-08-18T17:13:19Z</time>
      </trkpt>
      <trkpt lat="47.16974" lon="3.35299">
        <ele>271</ele>
        <time>2016-08-18T17:13:20Z</time>
      </trkpt>
      <trkpt lat="47.16975" lon="3.35288">
        <ele>271</ele>
        <time>2016-08-18T17:13:21Z</time>
      </trkpt>
      <trkpt lat="47.16977" lon="3.35276">
        <ele>270</ele>
        <time>2016-08-18T17:13:22Z</time>
      </trkpt>
      <trkpt lat="47.16978" lon="3.35264">
        <ele>269</ele>
        <time>2016-08-18T17:13:24Z</time>
      </trkpt>
      <trkpt lat="47.16979" lon="3.35251">
        <ele>268</ele>
        <time>2016-08-18T17:13:24Z</time>
      </trkpt>
      <trkpt lat="47.1698" lon="3.35238">
        <ele>268</ele>
        <time>2016-08-18T17:13:26Z</time>
      </trkpt>
      <trkpt lat="47.16981" lon="3.35224">
        <ele>267</ele>
        <time>2016-08-18T17:13:27Z</time>
      </trkpt>
      <trkpt lat="47.16983" lon="3.35211">
        <ele>266</ele>
        <time>2016-08-18T17:13:28Z</time>
      </trkpt>
      <trkpt lat="47.16984" lon="3.35196">
        <ele>265</ele>
        <time>2016-08-18T17:13:29Z</time>
      </trkpt>
      <trkpt lat="47.16986" lon="3.35182">
        <ele>264</ele>
        <time>2016-08-18T17:13:30Z</time>
      </trkpt>
      <trkpt lat="47.16987" lon="3.35167">
        <ele>263</ele>
        <time>2016-08-18T17:13:31Z</time>
      </trkpt>
      <trkpt lat="47.16989" lon="3.35151">
        <ele>263</ele>
        <time>2016-08-18T17:13:32Z</time>
      </trkpt>
      <trkpt lat="47.16991" lon="3.35134">
        <ele>262</ele>
        <time>2016-08-18T17:13:33Z</time>
      </trkpt>
      <trkpt lat="47.16994" lon="3.35106">
        <ele>261</ele>
        <time>2016-08-18T17:13:35Z</time>
      </trkpt>
      <trkpt lat="47.16995" lon="3.35102">
        <ele>260</ele>
        <time>2016-08-18T17:13:35Z</time>
      </trkpt>
      <trkpt lat="47.16996" lon="3.35085">
        <ele>260</ele>
        <time>2016-08-18T17:13:36Z</time>
      </trkpt>
      <trkpt lat="47.17" lon="3.35054">
        <ele>258</ele>
        <time>2016-08-18T17:13:38Z</time>
      </trkpt>
      <trkpt lat="47.17" lon="3.3505">
        <ele>258</ele>
        <time>2016-08-18T17:13:38Z</time>
      </trkpt>
      <trkpt lat="47.17002" lon="3.35033">
        <ele>257</ele>
        <time>2016-08-18T17:13:39Z</time>
      </trkpt>
      <trkpt lat="47.17004" lon="3.35016">
        <ele>256</ele>
        <time>2016-08-18T17:13:40Z</time>
      </trkpt>
      <trkpt lat="47.17006" lon="3.34997">
        <ele>256</ele>
        <time>2016-08-18T17:13:41Z</time>
      </trkpt>
      <trkpt lat="47.17008" lon="3.34979">
        <ele>255</ele>
        <time>2016-08-18T17:13:42Z</time>
      </trkpt>
      <trkpt lat="47.1701" lon="3.34962">
        <ele>253</ele>
        <time>2016-08-18T17:13:43Z</time>
      </trkpt>
      <trkpt lat="47.17012" lon="3.34943">
        <ele>253</ele>
        <time>2016-08-18T17:13:44Z</time>
      </trkpt>
      <trkpt lat="47.17014" lon="3.34924">
        <ele>252</ele>
        <time>2016-08-18T17:13:45Z</time>
      </trkpt>
      <trkpt lat="47.17016" lon="3.34906">
        <ele>253</ele>
        <time>2016-08-18T17:13:46Z</time>
      </trkpt>
      <trkpt lat="47.17018" lon="3.34888">
        <ele>253</ele>
        <time>2016-08-18T17:13:47Z</time>
      </trkpt>
      <trkpt lat="47.1702" lon="3.34869">
        <ele>252</ele>
        <time>2016-08-18T17:13:48Z</time>
      </trkpt>
      <trkpt lat="47.17022" lon="3.3485">
        <ele>252</ele>
        <time>2016-08-18T17:13:49Z</time>
      </trkpt>
      <trkpt lat="47.17024" lon="3.34831">
        <ele>251</ele>
        <time>2016-08-18T17:13:50Z</time>
      </trkpt>
      <trkpt lat="47.17025" lon="3.34805">
        <ele>249</ele>
        <time>2016-08-18T17:13:52Z</time>
      </trkpt>
      <trkpt lat="47.17027" lon="3.34786">
        <ele>248</ele>
        <time>2016-08-18T17:13:53Z</time>
      </trkpt>
      <trkpt lat="47.17028" lon="3.34775">
        <ele>248</ele>
        <time>2016-08-18T17:13:53Z</time>
      </trkpt>
      <trkpt lat="47.17029" lon="3.34756">
        <ele>247</ele>
        <time>2016-08-18T17:13:54Z</time>
      </trkpt>
      <trkpt lat="47.17032" lon="3.34735">
        <ele>247</ele>
        <time>2016-08-18T17:13:55Z</time>
      </trkpt>
      <trkpt lat="47.17033" lon="3.34718">
        <ele>247</ele>
        <time>2016-08-18T17:13:56Z</time>
      </trkpt>
      <trkpt lat="47.17035" lon="3.34705">
        <ele>247</ele>
        <time>2016-08-18T17:13:57Z</time>
      </trkpt>
      <trkpt lat="47.17039" lon="3.34686">
        <ele>246</ele>
        <time>2016-08-18T17:13:58Z</time>
      </trkpt>
      <trkpt lat="47.17042" lon="3.34672">
        <ele>246</ele>
        <time>2016-08-18T17:13:59Z</time>
      </trkpt>
      <trkpt lat="47.17046" lon="3.34658">
        <ele>247</ele>
        <time>2016-08-18T17:14:00Z</time>
      </trkpt>
      <trkpt lat="47.17049" lon="3.34648">
        <ele>247</ele>
        <time>2016-08-18T17:14:01Z</time>
      </trkpt>
      <trkpt lat="47.17056" lon="3.34634">
        <ele>247</ele>
        <time>2016-08-18T17:14:03Z</time>
      </trkpt>
      <trkpt lat="47.1706" lon="3.34625">
        <ele>247</ele>
        <time>2016-08-18T17:14:03Z</time>
      </trkpt>
      <trkpt lat="47.17065" lon="3.34614">
        <ele>247</ele>
        <time>2016-08-18T17:14:04Z</time>
      </trkpt>
      <trkpt lat="47.17071" lon="3.34604">
        <ele>247</ele>
        <time>2016-08-18T17:14:05Z</time>
      </trkpt>
      <trkpt lat="47.17077" lon="3.34593">
        <ele>247</ele>
        <time>2016-08-18T17:14:07Z</time>
      </trkpt>
      <trkpt lat="47.17082" lon="3.34584">
        <ele>246</ele>
        <time>2016-08-18T17:14:08Z</time>
      </trkpt>
      <trkpt lat="47.17087" lon="3.34577">
        <ele>246</ele>
        <time>2016-08-18T17:14:08Z</time>
      </trkpt>
      <trkpt lat="47.17092" lon="3.34569">
        <ele>246</ele>
        <time>2016-08-18T17:14:09Z</time>
      </trkpt>
      <trkpt lat="47.17097" lon="3.34561">
        <ele>246</ele>
        <time>2016-08-18T17:14:10Z</time>
      </trkpt>
      <trkpt lat="47.17102" lon="3.34552">
        <ele>246</ele>
        <time>2016-08-18T17:14:11Z</time>
      </trkpt>
      <trkpt lat="47.17107" lon="3.34545">
        <ele>246</ele>
        <time>2016-08-18T17:14:13Z</time>
      </trkpt>
      <trkpt lat="47.17112" lon="3.34538">
        <ele>246</ele>
        <time>2016-08-18T17:14:14Z</time>
      </trkpt>
      <trkpt lat="47.17117" lon="3.34531">
        <ele>246</ele>
        <time>2016-08-18T17:14:15Z</time>
      </trkpt>
      <trkpt lat="47.17122" lon="3.34523">
        <ele>246</ele>
        <time>2016-08-18T17:14:16Z</time>
      </trkpt>
      <trkpt lat="47.17126" lon="3.34516">
        <ele>246</ele>
        <time>2016-08-18T17:14:17Z</time>
      </trkpt>
      <trkpt lat="47.17134" lon="3.34504">
        <ele>246</ele>
        <time>2016-08-18T17:14:18Z</time>
      </trkpt>
      <trkpt lat="47.17139" lon="3.34498">
        <ele>246</ele>
        <time>2016-08-18T17:14:19Z</time>
      </trkpt>
      <trkpt lat="47.17144" lon="3.3449">
        <ele>245</ele>
        <time>2016-08-18T17:14:21Z</time>
      </trkpt>
      <trkpt lat="47.17145" lon="3.34489">
        <ele>245</ele>
        <time>2016-08-18T17:14:21Z</time>
      </trkpt>
      <trkpt lat="47.17153" lon="3.34476">
        <ele>245</ele>
        <time>2016-08-18T17:14:23Z</time>
      </trkpt>
      <trkpt lat="47.17157" lon="3.34469">
        <ele>245</ele>
        <time>2016-08-18T17:14:24Z</time>
      </trkpt>
      <trkpt lat="47.17158" lon="3.34467">
        <ele>245</ele>
        <time>2016-08-18T17:14:24Z</time>
      </trkpt>
      <trkpt lat="47.17163" lon="3.3446">
        <ele>245</ele>
        <time>2016-08-18T17:14:25Z</time>
      </trkpt>
      <trkpt lat="47.17168" lon="3.34452">
        <ele>245</ele>
        <time>2016-08-18T17:14:26Z</time>
      </trkpt>
      <trkpt lat="47.17174" lon="3.3444">
        <ele>244</ele>
        <time>2016-08-18T17:14:27Z</time>
      </trkpt>
      <trkpt lat="47.17176" lon="3.34437">
        <ele>244</ele>
        <time>2016-08-18T17:14:28Z</time>
      </trkpt>
      <trkpt lat="47.1718" lon="3.34429">
        <ele>244</ele>
        <time>2016-08-18T17:14:29Z</time>
      </trkpt>
      <trkpt lat="47.17184" lon="3.34421">
        <ele>244</ele>
        <time>2016-08-18T17:14:30Z</time>
      </trkpt>
      <trkpt lat="47.17187" lon="3.34412">
        <ele>244</ele>
        <time>2016-08-18T17:14:31Z</time>
      </trkpt>
      <trkpt lat="47.17191" lon="3.34404">
        <ele>244</ele>
        <time>2016-08-18T17:14:32Z</time>
      </trkpt>
      <trkpt lat="47.17195" lon="3.34395">
        <ele>243</ele>
        <time>2016-08-18T17:14:33Z</time>
      </trkpt>
      <trkpt lat="47.17199" lon="3.34386">
        <ele>244</ele>
        <time>2016-08-18T17:14:34Z</time>
      </trkpt>
      <trkpt lat="47.17203" lon="3.34377">
        <ele>244</ele>
        <time>2016-08-18T17:14:35Z</time>
      </trkpt>
      <trkpt lat="47.17209" lon="3.34361">
        <ele>244</ele>
        <time>2016-08-18T17:14:37Z</time>
      </trkpt>
      <trkpt lat="47.17211" lon="3.34353">
        <ele>243</ele>
        <time>2016-08-18T17:14:37Z</time>
      </trkpt>
      <trkpt lat="47.17215" lon="3.34344">
        <ele>244</ele>
        <time>2016-08-18T17:14:38Z</time>
      </trkpt>
      <trkpt lat="47.17216" lon="3.34338">
        <ele>244</ele>
        <time>2016-08-18T17:14:39Z</time>
      </trkpt>
      <trkpt lat="47.1722" lon="3.34329">
        <ele>243</ele>
        <time>2016-08-18T17:14:40Z</time>
      </trkpt>
      <trkpt lat="47.17223" lon="3.34319">
        <ele>243</ele>
        <time>2016-08-18T17:14:41Z</time>
      </trkpt>
      <trkpt lat="47.17227" lon="3.34306">
        <ele>243</ele>
        <time>2016-08-18T17:14:43Z</time>
      </trkpt>
      <trkpt lat="47.17229" lon="3.343">
        <ele>243</ele>
        <time>2016-08-18T17:14:43Z</time>
      </trkpt>
      <trkpt lat="47.17232" lon="3.3429">
        <ele>242</ele>
        <time>2016-08-18T17:14:44Z</time>
      </trkpt>
      <trkpt lat="47.17235" lon="3.3428">
        <ele>242</ele>
        <time>2016-08-18T17:14:45Z</time>
      </trkpt>
      <trkpt lat="47.17239" lon="3.34265">
        <ele>241</ele>
        <time>2016-08-18T17:14:47Z</time>
      </trkpt>
      <trkpt lat="47.17241" lon="3.34259">
        <ele>241</ele>
        <time>2016-08-18T17:14:47Z</time>
      </trkpt>
      <trkpt lat="47.17245" lon="3.34246">
        <ele>240</ele>
        <time>2016-08-18T17:14:48Z</time>
      </trkpt>
      <trkpt lat="47.17248" lon="3.34235">
        <ele>241</ele>
        <time>2016-08-18T17:14:49Z</time>
      </trkpt>
      <trkpt lat="47.17251" lon="3.34223">
        <ele>241</ele>
        <time>2016-08-18T17:14:50Z</time>
      </trkpt>
      <trkpt lat="47.17253" lon="3.34213">
        <ele>240</ele>
        <time>2016-08-18T17:14:51Z</time>
      </trkpt>
      <trkpt lat="47.17256" lon="3.34202">
        <ele>240</ele>
        <time>2016-08-18T17:14:52Z</time>
      </trkpt>
      <trkpt lat="47.1726" lon="3.34191">
        <ele>240</ele>
        <time>2016-08-18T17:14:53Z</time>
      </trkpt>
      <trkpt lat="47.17262" lon="3.34182">
        <ele>240</ele>
        <time>2016-08-18T17:14:54Z</time>
      </trkpt>
      <trkpt lat="47.17267" lon="3.3417">
        <ele>239</ele>
        <time>2016-08-18T17:14:56Z</time>
      </trkpt>
      <trkpt lat="47.17269" lon="3.3416">
        <ele>239</ele>
        <time>2016-08-18T17:14:57Z</time>
      </trkpt>
      <trkpt lat="47.17272" lon="3.34149">
        <ele>239</ele>
        <time>2016-08-18T17:14:58Z</time>
      </trkpt>
      <trkpt lat="47.17274" lon="3.34141">
        <ele>239</ele>
        <time>2016-08-18T17:14:58Z</time>
      </trkpt>
      <trkpt lat="47.17278" lon="3.34131">
        <ele>239</ele>
        <time>2016-08-18T17:14:59Z</time>
      </trkpt>
      <trkpt lat="47.17281" lon="3.3412">
        <ele>238</ele>
        <time>2016-08-18T17:15:00Z</time>
      </trkpt>
      <trkpt lat="47.17284" lon="3.34109">
        <ele>239</ele>
        <time>2016-08-18T17:15:01Z</time>
      </trkpt>
      <trkpt lat="47.17288" lon="3.34099">
        <ele>239</ele>
        <time>2016-08-18T17:15:02Z</time>
      </trkpt>
      <trkpt lat="47.17291" lon="3.34087">
        <ele>238</ele>
        <time>2016-08-18T17:15:04Z</time>
      </trkpt>
      <trkpt lat="47.17293" lon="3.34076">
        <ele>238</ele>
        <time>2016-08-18T17:15:04Z</time>
      </trkpt>
      <trkpt lat="47.17296" lon="3.34065">
        <ele>238</ele>
        <time>2016-08-18T17:15:05Z</time>
      </trkpt>
      <trkpt lat="47.17299" lon="3.34054">
        <ele>238</ele>
        <time>2016-08-18T17:15:07Z</time>
      </trkpt>
      <trkpt lat="47.17304" lon="3.34035">
        <ele>238</ele>
        <time>2016-08-18T17:15:08Z</time>
      </trkpt>
      <trkpt lat="47.17305" lon="3.34032">
        <ele>238</ele>
        <time>2016-08-18T17:15:09Z</time>
      </trkpt>
      <trkpt lat="47.17307" lon="3.34022">
        <ele>238</ele>
        <time>2016-08-18T17:15:10Z</time>
      </trkpt>
      <trkpt lat="47.17309" lon="3.3401">
        <ele>238</ele>
        <time>2016-08-18T17:15:11Z</time>
      </trkpt>
      <trkpt lat="47.17311" lon="3.33999">
        <ele>238</ele>
        <time>2016-08-18T17:15:12Z</time>
      </trkpt>
      <trkpt lat="47.17313" lon="3.33988">
        <ele>238</ele>
        <time>2016-08-18T17:15:13Z</time>
      </trkpt>
      <trkpt lat="47.17314" lon="3.33965">
        <ele>240</ele>
        <time>2016-08-18T17:15:15Z</time>
      </trkpt>
      <trkpt lat="47.17314" lon="3.33963">
        <ele>240</ele>
        <time>2016-08-18T17:15:15Z</time>
      </trkpt>
      <trkpt lat="47.17314" lon="3.33951">
        <ele>240</ele>
        <time>2016-08-18T17:15:16Z</time>
      </trkpt>
      <trkpt lat="47.17314" lon="3.33939">
        <ele>239</ele>
        <time>2016-08-18T17:15:17Z</time>
      </trkpt>
      <trkpt lat="47.17314" lon="3.33927">
        <ele>239</ele>
        <time>2016-08-18T17:15:18Z</time>
      </trkpt>
      <trkpt lat="47.17314" lon="3.33907">
        <ele>238</ele>
        <time>2016-08-18T17:15:19Z</time>
      </trkpt>
      <trkpt lat="47.17314" lon="3.33902">
        <ele>238</ele>
        <time>2016-08-18T17:15:20Z</time>
      </trkpt>
      <trkpt lat="47.17314" lon="3.3389">
        <ele>238</ele>
        <time>2016-08-18T17:15:21Z</time>
      </trkpt>
      <trkpt lat="47.17313" lon="3.3387">
        <ele>237</ele>
        <time>2016-08-18T17:15:22Z</time>
      </trkpt>
      <trkpt lat="47.17313" lon="3.33865">
        <ele>237</ele>
        <time>2016-08-18T17:15:23Z</time>
      </trkpt>
      <trkpt lat="47.17313" lon="3.33853">
        <ele>236</ele>
        <time>2016-08-18T17:15:24Z</time>
      </trkpt>
      <trkpt lat="47.17312" lon="3.33841">
        <ele>236</ele>
        <time>2016-08-18T17:15:25Z</time>
      </trkpt>
      <trkpt lat="47.17312" lon="3.33829">
        <ele>236</ele>
        <time>2016-08-18T17:15:26Z</time>
      </trkpt>
      <trkpt lat="47.17312" lon="3.33816">
        <ele>236</ele>
        <time>2016-08-18T17:15:27Z</time>
      </trkpt>
      <trkpt lat="47.17312" lon="3.33805">
        <ele>236</ele>
        <time>2016-08-18T17:15:28Z</time>
      </trkpt>
      <trkpt lat="47.17312" lon="3.33793">
        <ele>237</ele>
        <time>2016-08-18T17:15:29Z</time>
      </trkpt>
      <trkpt lat="47.17312" lon="3.33782">
        <ele>236</ele>
        <time>2016-08-18T17:15:30Z</time>
      </trkpt>
      <trkpt lat="47.17311" lon="3.33766">
        <ele>236</ele>
        <time>2016-08-18T17:15:31Z</time>
      </trkpt>
      <trkpt lat="47.17311" lon="3.33753">
        <ele>235</ele>
        <time>2016-08-18T17:15:32Z</time>
      </trkpt>
      <trkpt lat="47.17311" lon="3.33746">
        <ele>235</ele>
        <time>2016-08-18T17:15:33Z</time>
      </trkpt>
      <trkpt lat="47.17311" lon="3.33735">
        <ele>235</ele>
        <time>2016-08-18T17:15:34Z</time>
      </trkpt>
      <trkpt lat="47.1731" lon="3.33718">
        <ele>235</ele>
        <time>2016-08-18T17:15:35Z</time>
      </trkpt>
      <trkpt lat="47.1731" lon="3.33711">
        <ele>235</ele>
        <time>2016-08-18T17:15:36Z</time>
      </trkpt>
      <trkpt lat="47.1731" lon="3.33695">
        <ele>235</ele>
        <time>2016-08-18T17:15:37Z</time>
      </trkpt>
      <trkpt lat="47.1731" lon="3.33682">
        <ele>235</ele>
        <time>2016-08-18T17:15:39Z</time>
      </trkpt>
      <trkpt lat="47.1731" lon="3.33676">
        <ele>235</ele>
        <time>2016-08-18T17:15:39Z</time>
      </trkpt>
      <trkpt lat="47.17309" lon="3.3366">
        <ele>234</ele>
        <time>2016-08-18T17:15:41Z</time>
      </trkpt>
      <trkpt lat="47.17309" lon="3.3365">
        <ele>235</ele>
        <time>2016-08-18T17:15:41Z</time>
      </trkpt>
      <trkpt lat="47.17308" lon="3.33638">
        <ele>235</ele>
        <time>2016-08-18T17:15:42Z</time>
      </trkpt>
      <trkpt lat="47.17308" lon="3.33627">
        <ele>235</ele>
        <time>2016-08-18T17:15:43Z</time>
      </trkpt>
      <trkpt lat="47.17308" lon="3.33617">
        <ele>235</ele>
        <time>2016-08-18T17:15:44Z</time>
      </trkpt>
      <trkpt lat="47.17308" lon="3.33606">
        <ele>235</ele>
        <time>2016-08-18T17:15:45Z</time>
      </trkpt>
      <trkpt lat="47.17307" lon="3.33595">
        <ele>235</ele>
        <time>2016-08-18T17:15:46Z</time>
      </trkpt>
      <trkpt lat="47.17307" lon="3.33582">
        <ele>235</ele>
        <time>2016-08-18T17:15:48Z</time>
      </trkpt>
      <trkpt lat="47.17306" lon="3.33572">
        <ele>235</ele>
        <time>2016-08-18T17:15:48Z</time>
      </trkpt>
      <trkpt lat="47.17306" lon="3.33559">
        <ele>234</ele>
        <time>2016-08-18T17:15:50Z</time>
      </trkpt>
      <trkpt lat="47.17306" lon="3.33551">
        <ele>234</ele>
        <time>2016-08-18T17:15:50Z</time>
      </trkpt>
      <trkpt lat="47.17306" lon="3.3354">
        <ele>234</ele>
        <time>2016-08-18T17:15:51Z</time>
      </trkpt>
      <trkpt lat="47.17306" lon="3.3353">
        <ele>234</ele>
        <time>2016-08-18T17:15:52Z</time>
      </trkpt>
      <trkpt lat="47.17306" lon="3.33521">
        <ele>234</ele>
        <time>2016-08-18T17:15:53Z</time>
      </trkpt>
      <trkpt lat="47.17306" lon="3.3351">
        <ele>233</ele>
        <time>2016-08-18T17:15:54Z</time>
      </trkpt>
      <trkpt lat="47.17305" lon="3.335">
        <ele>233</ele>
        <time>2016-08-18T17:15:55Z</time>
      </trkpt>
      <trkpt lat="47.17305" lon="3.33489">
        <ele>234</ele>
        <time>2016-08-18T17:15:56Z</time>
      </trkpt>
      <trkpt lat="47.17305" lon="3.33479">
        <ele>234</ele>
        <time>2016-08-18T17:15:58Z</time>
      </trkpt>
      <trkpt lat="47.17305" lon="3.33468">
        <ele>234</ele>
        <time>2016-08-18T17:15:59Z</time>
      </trkpt>
      <trkpt lat="47.17305" lon="3.33458">
        <ele>234</ele>
        <time>2016-08-18T17:16:00Z</time>
      </trkpt>
      <trkpt lat="47.17304" lon="3.33449">
        <ele>233</ele>
        <time>2016-08-18T17:16:01Z</time>
      </trkpt>
      <trkpt lat="47.17304" lon="3.33439">
        <ele>233</ele>
        <time>2016-08-18T17:16:02Z</time>
      </trkpt>
      <trkpt lat="47.17304" lon="3.3343">
        <ele>233</ele>
        <time>2016-08-18T17:16:03Z</time>
      </trkpt>
      <trkpt lat="47.17304" lon="3.3342">
        <ele>233</ele>
        <time>2016-08-18T17:16:04Z</time>
      </trkpt>
      <trkpt lat="47.17304" lon="3.33411">
        <ele>233</ele>
        <time>2016-08-18T17:16:05Z</time>
      </trkpt>
      <trkpt lat="47.17304" lon="3.33401">
        <ele>233</ele>
        <time>2016-08-18T17:16:06Z</time>
      </trkpt>
      <trkpt lat="47.17304" lon="3.33391">
        <ele>233</ele>
        <time>2016-08-18T17:16:07Z</time>
      </trkpt>
      <trkpt lat="47.17304" lon="3.33382">
        <ele>233</ele>
        <time>2016-08-18T17:16:08Z</time>
      </trkpt>
      <trkpt lat="47.17303" lon="3.33373">
        <ele>233</ele>
        <time>2016-08-18T17:16:09Z</time>
      </trkpt>
      <trkpt lat="47.17303" lon="3.33364">
        <ele>233</ele>
        <time>2016-08-18T17:16:10Z</time>
      </trkpt>
      <trkpt lat="47.17303" lon="3.33355">
        <ele>232</ele>
        <time>2016-08-18T17:16:11Z</time>
      </trkpt>
      <trkpt lat="47.17302" lon="3.33346">
        <ele>232</ele>
        <time>2016-08-18T17:16:12Z</time>
      </trkpt>
      <trkpt lat="47.17302" lon="3.33337">
        <ele>232</ele>
        <time>2016-08-18T17:16:13Z</time>
      </trkpt>
      <trkpt lat="47.17303" lon="3.3332">
        <ele>231</ele>
        <time>2016-08-18T17:16:14Z</time>
      </trkpt>
      <trkpt lat="47.17303" lon="3.33311">
        <ele>231</ele>
        <time>2016-08-18T17:16:15Z</time>
      </trkpt>
      <trkpt lat="47.17302" lon="3.33307">
        <ele>231</ele>
        <time>2016-08-18T17:16:16Z</time>
      </trkpt>
      <trkpt lat="47.17302" lon="3.33297">
        <ele>231</ele>
        <time>2016-08-18T17:16:17Z</time>
      </trkpt>
      <trkpt lat="47.17301" lon="3.33288">
        <ele>230</ele>
        <time>2016-08-18T17:16:18Z</time>
      </trkpt>
      <trkpt lat="47.17301" lon="3.33278">
        <ele>230</ele>
        <time>2016-08-18T17:16:19Z</time>
      </trkpt>
      <trkpt lat="47.17301" lon="3.33268">
        <ele>231</ele>
        <time>2016-08-18T17:16:20Z</time>
      </trkpt>
      <trkpt lat="47.17301" lon="3.33254">
        <ele>230</ele>
        <time>2016-08-18T17:16:21Z</time>
      </trkpt>
      <trkpt lat="47.17301" lon="3.33249">
        <ele>230</ele>
        <time>2016-08-18T17:16:22Z</time>
      </trkpt>
      <trkpt lat="47.17301" lon="3.33239">
        <ele>230</ele>
        <time>2016-08-18T17:16:23Z</time>
      </trkpt>
      <trkpt lat="47.17301" lon="3.3323">
        <ele>230</ele>
        <time>2016-08-18T17:16:24Z</time>
      </trkpt>
      <trkpt lat="47.17301" lon="3.33221">
        <ele>230</ele>
        <time>2016-08-18T17:16:25Z</time>
      </trkpt>
      <trkpt lat="47.17302" lon="3.33211">
        <ele>230</ele>
        <time>2016-08-18T17:16:26Z</time>
      </trkpt>
      <trkpt lat="47.17303" lon="3.33197">
        <ele>228</ele>
        <time>2016-08-18T17:16:27Z</time>
      </trkpt>
      <trkpt lat="47.17303" lon="3.33188">
        <ele>228</ele>
        <time>2016-08-18T17:16:29Z</time>
      </trkpt>
      <trkpt lat="47.17304" lon="3.33179">
        <ele>228</ele>
        <time>2016-08-18T17:16:30Z</time>
      </trkpt>
      <trkpt lat="47.17304" lon="3.33169">
        <ele>227</ele>
        <time>2016-08-18T17:16:31Z</time>
      </trkpt>
      <trkpt lat="47.17304" lon="3.33161">
        <ele>227</ele>
        <time>2016-08-18T17:16:31Z</time>
      </trkpt>
      <trkpt lat="47.17305" lon="3.33151">
        <ele>227</ele>
        <time>2016-08-18T17:16:32Z</time>
      </trkpt>
      <trkpt lat="47.17305" lon="3.33144">
        <ele>226</ele>
        <time>2016-08-18T17:16:33Z</time>
      </trkpt>
      <trkpt lat="47.17306" lon="3.33133">
        <ele>226</ele>
        <time>2016-08-18T17:16:34Z</time>
      </trkpt>
      <trkpt lat="47.17306" lon="3.33124">
        <ele>226</ele>
        <time>2016-08-18T17:16:35Z</time>
      </trkpt>
      <trkpt lat="47.17306" lon="3.33114">
        <ele>226</ele>
        <time>2016-08-18T17:16:37Z</time>
      </trkpt>
      <trkpt lat="47.17306" lon="3.33105">
        <ele>226</ele>
        <time>2016-08-18T17:16:38Z</time>
      </trkpt>
      <trkpt lat="47.17307" lon="3.33095">
        <ele>227</ele>
        <time>2016-08-18T17:16:39Z</time>
      </trkpt>
      <trkpt lat="47.17307" lon="3.33087">
        <ele>227</ele>
        <time>2016-08-18T17:16:39Z</time>
      </trkpt>
      <trkpt lat="47.17307" lon="3.33075">
        <ele>227</ele>
        <time>2016-08-18T17:16:41Z</time>
      </trkpt>
      <trkpt lat="47.17308" lon="3.33067">
        <ele>227</ele>
        <time>2016-08-18T17:16:41Z</time>
      </trkpt>
      <trkpt lat="47.17309" lon="3.33058">
        <ele>227</ele>
        <time>2016-08-18T17:16:42Z</time>
      </trkpt>
      <trkpt lat="47.1731" lon="3.33049">
        <ele>226</ele>
        <time>2016-08-18T17:16:43Z</time>
      </trkpt>
      <trkpt lat="47.17311" lon="3.3304">
        <ele>226</ele>
        <time>2016-08-18T17:16:44Z</time>
      </trkpt>
      <trkpt lat="47.17313" lon="3.33032">
        <ele>226</ele>
        <time>2016-08-18T17:16:45Z</time>
      </trkpt>
      <trkpt lat="47.17315" lon="3.33025">
        <ele>226</ele>
        <time>2016-08-18T17:16:46Z</time>
      </trkpt>
      <trkpt lat="47.17315" lon="3.33019">
        <ele>226</ele>
        <time>2016-08-18T17:16:47Z</time>
      </trkpt>
      <trkpt lat="47.17312" lon="3.33016">
        <ele>227</ele>
        <time>2016-08-18T17:16:49Z</time>
      </trkpt>
      <trkpt lat="47.17308" lon="3.33012">
        <ele>227</ele>
        <time>2016-08-18T17:16:50Z</time>
      </trkpt>
      <trkpt lat="47.17299" lon="3.33009">
        <ele>229</ele>
        <time>2016-08-18T17:16:51Z</time>
      </trkpt>
      <trkpt lat="47.17293" lon="3.33008">
        <ele>229</ele>
        <time>2016-08-18T17:16:52Z</time>
      </trkpt>
      <trkpt lat="47.17287" lon="3.33006">
        <ele>229</ele>
        <time>2016-08-18T17:16:53Z</time>
      </trkpt>
      <trkpt lat="47.17286" lon="3.33006">
        <ele>229</ele>
        <time>2016-08-18T17:16:54Z</time>
      </trkpt>
      <trkpt lat="47.1728" lon="3.33004">
        <ele>229</ele>
        <time>2016-08-18T17:16:55Z</time>
      </trkpt>
      <trkpt lat="47.17275" lon="3.33002">
        <ele>229</ele>
        <time>2016-08-18T17:16:56Z</time>
      </trkpt>
      <trkpt lat="47.17269" lon="3.32999">
        <ele>229</ele>
        <time>2016-08-18T17:16:57Z</time>
      </trkpt>
      <trkpt lat="47.17264" lon="3.32994">
        <ele>229</ele>
        <time>2016-08-18T17:16:58Z</time>
      </trkpt>
      <trkpt lat="47.1726" lon="3.32988">
        <ele>228</ele>
        <time>2016-08-18T17:16:59Z</time>
      </trkpt>
      <trkpt lat="47.17254" lon="3.32976">
        <ele>228</ele>
        <time>2016-08-18T17:17:00Z</time>
      </trkpt>
      <trkpt lat="47.17253" lon="3.32972">
        <ele>228</ele>
        <time>2016-08-18T17:17:01Z</time>
      </trkpt>
      <trkpt lat="47.17252" lon="3.32963">
        <ele>228</ele>
        <time>2016-08-18T17:17:02Z</time>
      </trkpt>
      <trkpt lat="47.17252" lon="3.32953">
        <ele>228</ele>
        <time>2016-08-18T17:17:03Z</time>
      </trkpt>
      <trkpt lat="47.17253" lon="3.3294">
        <ele>227</ele>
        <time>2016-08-18T17:17:04Z</time>
      </trkpt>
      <trkpt lat="47.17253" lon="3.32936">
        <ele>227</ele>
        <time>2016-08-18T17:17:05Z</time>
      </trkpt>
      <trkpt lat="47.17254" lon="3.32922">
        <ele>227</ele>
        <time>2016-08-18T17:17:06Z</time>
      </trkpt>
      <trkpt lat="47.17255" lon="3.32918">
        <ele>227</ele>
        <time>2016-08-18T17:17:07Z</time>
      </trkpt>
      <trkpt lat="47.17257" lon="3.32909">
        <ele>227</ele>
        <time>2016-08-18T17:17:08Z</time>
      </trkpt>
      <trkpt lat="47.17259" lon="3.32901">
        <ele>226</ele>
        <time>2016-08-18T17:17:09Z</time>
      </trkpt>
      <trkpt lat="47.17263" lon="3.32888">
        <ele>226</ele>
        <time>2016-08-18T17:17:10Z</time>
      </trkpt>
      <trkpt lat="47.17265" lon="3.32882">
        <ele>226</ele>
        <time>2016-08-18T17:17:11Z</time>
      </trkpt>
      <trkpt lat="47.17269" lon="3.3287">
        <ele>228</ele>
        <time>2016-08-18T17:17:12Z</time>
      </trkpt>
      <trkpt lat="47.17271" lon="3.32864">
        <ele>228</ele>
        <time>2016-08-18T17:17:13Z</time>
      </trkpt>
      <trkpt lat="47.17276" lon="3.32851">
        <ele>229</ele>
        <time>2016-08-18T17:17:15Z</time>
      </trkpt>
      <trkpt lat="47.17279" lon="3.32842">
        <ele>229</ele>
        <time>2016-08-18T17:17:16Z</time>
      </trkpt>
      <trkpt lat="47.17281" lon="3.32837">
        <ele>229</ele>
        <time>2016-08-18T17:17:16Z</time>
      </trkpt>
      <trkpt lat="47.17284" lon="3.32827">
        <ele>229</ele>
        <time>2016-08-18T17:17:17Z</time>
      </trkpt>
      <trkpt lat="47.17287" lon="3.32818">
        <ele>229</ele>
        <time>2016-08-18T17:17:18Z</time>
      </trkpt>
      <trkpt lat="47.1729" lon="3.32809">
        <ele>229</ele>
        <time>2016-08-18T17:17:19Z</time>
      </trkpt>
      <trkpt lat="47.17294" lon="3.32798">
        <ele>230</ele>
        <time>2016-08-18T17:17:21Z</time>
      </trkpt>
      <trkpt lat="47.17297" lon="3.32792">
        <ele>230</ele>
        <time>2016-08-18T17:17:21Z</time>
      </trkpt>
      <trkpt lat="47.17299" lon="3.32785">
        <ele>230</ele>
        <time>2016-08-18T17:17:22Z</time>
      </trkpt>
      <trkpt lat="47.17301" lon="3.32777">
        <ele>230</ele>
        <time>2016-08-18T17:17:23Z</time>
      </trkpt>
      <trkpt lat="47.17304" lon="3.3277">
        <ele>230</ele>
        <time>2016-08-18T17:17:24Z</time>
      </trkpt>
      <trkpt lat="47.17307" lon="3.32762">
        <ele>230</ele>
        <time>2016-08-18T17:17:25Z</time>
      </trkpt>
      <trkpt lat="47.1731" lon="3.32752">
        <ele>231</ele>
        <time>2016-08-18T17:17:27Z</time>
      </trkpt>
      <trkpt lat="47.17313" lon="3.32745">
        <ele>231</ele>
        <time>2016-08-18T17:17:28Z</time>
      </trkpt>
      <trkpt lat="47.17316" lon="3.32739">
        <ele>230</ele>
        <time>2016-08-18T17:17:28Z</time>
      </trkpt>
      <trkpt lat="47.1732" lon="3.3273">
        <ele>230</ele>
        <time>2016-08-18T17:17:30Z</time>
      </trkpt>
      <trkpt lat="47.17323" lon="3.32724">
        <ele>229</ele>
        <time>2016-08-18T17:17:30Z</time>
      </trkpt>
      <trkpt lat="47.17327" lon="3.32717">
        <ele>229</ele>
        <time>2016-08-18T17:17:31Z</time>
      </trkpt>
      <trkpt lat="47.17332" lon="3.3271">
        <ele>229</ele>
        <time>2016-08-18T17:17:32Z</time>
      </trkpt>
      <trkpt lat="47.17337" lon="3.32703">
        <ele>229</ele>
        <time>2016-08-18T17:17:33Z</time>
      </trkpt>
      <trkpt lat="47.17343" lon="3.32698">
        <ele>229</ele>
        <time>2016-08-18T17:17:35Z</time>
      </trkpt>
      <trkpt lat="47.1735" lon="3.32695">
        <ele>229</ele>
        <time>2016-08-18T17:17:36Z</time>
      </trkpt>
      <trkpt lat="47.17356" lon="3.32696">
        <ele>229</ele>
        <time>2016-08-18T17:17:37Z</time>
      </trkpt>
      <trkpt lat="47.17363" lon="3.327">
        <ele>230</ele>
        <time>2016-08-18T17:17:38Z</time>
      </trkpt>
      <trkpt lat="47.17369" lon="3.32706">
        <ele>230</ele>
        <time>2016-08-18T17:17:39Z</time>
      </trkpt>
      <trkpt lat="47.17375" lon="3.32711">
        <ele>230</ele>
        <time>2016-08-18T17:17:40Z</time>
      </trkpt>
      <trkpt lat="47.17381" lon="3.32715">
        <ele>230</ele>
        <time>2016-08-18T17:17:41Z</time>
      </trkpt>
      <trkpt lat="47.17388" lon="3.32718">
        <ele>230</ele>
        <time>2016-08-18T17:17:42Z</time>
      </trkpt>
      <trkpt lat="47.17394" lon="3.32718">
        <ele>230</ele>
        <time>2016-08-18T17:17:43Z</time>
      </trkpt>
      <trkpt lat="47.17404" lon="3.32712">
        <ele>230</ele>
        <time>2016-08-18T17:17:45Z</time>
      </trkpt>
      <trkpt lat="47.17406" lon="3.32711">
        <ele>230</ele>
        <time>2016-08-18T17:17:45Z</time>
      </trkpt>
      <trkpt lat="47.1741" lon="3.32705">
        <ele>230</ele>
        <time>2016-08-18T17:17:46Z</time>
      </trkpt>
      <trkpt lat="47.17413" lon="3.32697">
        <ele>230</ele>
        <time>2016-08-18T17:17:47Z</time>
      </trkpt>
      <trkpt lat="47.17416" lon="3.32687">
        <ele>229</ele>
        <time>2016-08-18T17:17:48Z</time>
      </trkpt>
      <trkpt lat="47.17416" lon="3.32677">
        <ele>229</ele>
        <time>2016-08-18T17:17:49Z</time>
      </trkpt>
      <trkpt lat="47.17415" lon="3.32667">
        <ele>229</ele>
        <time>2016-08-18T17:17:50Z</time>
      </trkpt>
      <trkpt lat="47.17413" lon="3.32658">
        <ele>229</ele>
        <time>2016-08-18T17:17:51Z</time>
      </trkpt>
      <trkpt lat="47.1741" lon="3.32649">
        <ele>228</ele>
        <time>2016-08-18T17:17:52Z</time>
      </trkpt>
      <trkpt lat="47.17405" lon="3.32642">
        <ele>228</ele>
        <time>2016-08-18T17:17:53Z</time>
      </trkpt>
      <trkpt lat="47.17396" lon="3.32634">
        <ele>228</ele>
        <time>2016-08-18T17:17:54Z</time>
      </trkpt>
      <trkpt lat="47.1739" lon="3.32629">
        <ele>228</ele>
        <time>2016-08-18T17:17:55Z</time>
      </trkpt>
      <trkpt lat="47.17386" lon="3.32627">
        <ele>228</ele>
        <time>2016-08-18T17:17:56Z</time>
      </trkpt>
      <trkpt lat="47.17378" lon="3.32619">
        <ele>228</ele>
        <time>2016-08-18T17:17:57Z</time>
      </trkpt>
      <trkpt lat="47.17374" lon="3.32614">
        <ele>227</ele>
        <time>2016-08-18T17:17:58Z</time>
      </trkpt>
      <trkpt lat="47.17371" lon="3.32605">
        <ele>228</ele>
        <time>2016-08-18T17:17:59Z</time>
      </trkpt>
      <trkpt lat="47.17369" lon="3.32592">
        <ele>227</ele>
        <time>2016-08-18T17:18:00Z</time>
      </trkpt>
      <trkpt lat="47.17368" lon="3.32585">
        <ele>227</ele>
        <time>2016-08-18T17:18:01Z</time>
      </trkpt>
      <trkpt lat="47.17368" lon="3.32571">
        <ele>227</ele>
        <time>2016-08-18T17:18:03Z</time>
      </trkpt>
      <trkpt lat="47.1737" lon="3.3256">
        <ele>227</ele>
        <time>2016-08-18T17:18:04Z</time>
      </trkpt>
      <trkpt lat="47.17372" lon="3.32554">
        <ele>227</ele>
        <time>2016-08-18T17:18:04Z</time>
      </trkpt>
      <trkpt lat="47.17374" lon="3.32544">
        <ele>227</ele>
        <time>2016-08-18T17:18:05Z</time>
      </trkpt>
      <trkpt lat="47.17376" lon="3.32534">
        <ele>227</ele>
        <time>2016-08-18T17:18:06Z</time>
      </trkpt>
      <trkpt lat="47.17378" lon="3.32524">
        <ele>228</ele>
        <time>2016-08-18T17:18:07Z</time>
      </trkpt>
      <trkpt lat="47.1738" lon="3.32513">
        <ele>228</ele>
        <time>2016-08-18T17:18:08Z</time>
      </trkpt>
      <trkpt lat="47.1738" lon="3.32504">
        <ele>228</ele>
        <time>2016-08-18T17:18:09Z</time>
      </trkpt>
      <trkpt lat="47.17381" lon="3.32495">
        <ele>229</ele>
        <time>2016-08-18T17:18:11Z</time>
      </trkpt>
      <trkpt lat="47.17381" lon="3.32488">
        <ele>229</ele>
        <time>2016-08-18T17:18:11Z</time>
      </trkpt>
      <trkpt lat="47.17382" lon="3.32478">
        <ele>229</ele>
        <time>2016-08-18T17:18:13Z</time>
      </trkpt>
      <trkpt lat="47.17381" lon="3.32472">
        <ele>230</ele>
        <time>2016-08-18T17:18:13Z</time>
      </trkpt>
      <trkpt lat="47.17381" lon="3.32464">
        <ele>230</ele>
        <time>2016-08-18T17:18:14Z</time>
      </trkpt>
      <trkpt lat="47.1738" lon="3.32456">
        <ele>230</ele>
        <time>2016-08-18T17:18:15Z</time>
      </trkpt>
      <trkpt lat="47.17379" lon="3.32448">
        <ele>230</ele>
        <time>2016-08-18T17:18:16Z</time>
      </trkpt>
      <trkpt lat="47.17378" lon="3.32441">
        <ele>230</ele>
        <time>2016-08-18T17:18:17Z</time>
      </trkpt>
      <trkpt lat="47.17376" lon="3.32434">
        <ele>230</ele>
        <time>2016-08-18T17:18:18Z</time>
      </trkpt>
      <trkpt lat="47.17373" lon="3.32427">
        <ele>230</ele>
        <time>2016-08-18T17:18:20Z</time>
      </trkpt>
      <trkpt lat="47.17371" lon="3.3242">
        <ele>230</ele>
        <time>2016-08-18T17:18:20Z</time>
      </trkpt>
      <trkpt lat="47.17369" lon="3.32413">
        <ele>230</ele>
        <time>2016-08-18T17:18:22Z</time>
      </trkpt>
      <trkpt lat="47.17367" lon="3.32406">
        <ele>230</ele>
        <time>2016-08-18T17:18:23Z</time>
      </trkpt>
      <trkpt lat="47.17365" lon="3.32399">
        <ele>230</ele>
        <time>2016-08-18T17:18:24Z</time>
      </trkpt>
      <trkpt lat="47.17363" lon="3.32391">
        <ele>230</ele>
        <time>2016-08-18T17:18:25Z</time>
      </trkpt>
      <trkpt lat="47.17361" lon="3.32384">
        <ele>230</ele>
        <time>2016-08-18T17:18:26Z</time>
      </trkpt>
      <trkpt lat="47.17359" lon="3.32379">
        <ele>231</ele>
        <time>2016-08-18T17:18:27Z</time>
      </trkpt>
      <trkpt lat="47.17356" lon="3.32372">
        <ele>231</ele>
        <time>2016-08-18T17:18:28Z</time>
      </trkpt>
      <trkpt lat="47.17354" lon="3.32364">
        <ele>231</ele>
        <time>2016-08-18T17:18:29Z</time>
      </trkpt>
      <trkpt lat="47.17351" lon="3.32356">
        <ele>231</ele>
        <time>2016-08-18T17:18:30Z</time>
      </trkpt>
      <trkpt lat="47.17349" lon="3.32348">
        <ele>231</ele>
        <time>2016-08-18T17:18:31Z</time>
      </trkpt>
      <trkpt lat="47.17347" lon="3.32341">
        <ele>231</ele>
        <time>2016-08-18T17:18:32Z</time>
      </trkpt>
      <trkpt lat="47.17345" lon="3.32333">
        <ele>231</ele>
        <time>2016-08-18T17:18:33Z</time>
      </trkpt>
      <trkpt lat="47.17343" lon="3.32326">
        <ele>231</ele>
        <time>2016-08-18T17:18:34Z</time>
      </trkpt>
      <trkpt lat="47.17339" lon="3.32311">
        <ele>231</ele>
        <time>2016-08-18T17:18:36Z</time>
      </trkpt>
      <trkpt lat="47.17339" lon="3.3231">
        <ele>231</ele>
        <time>2016-08-18T17:18:36Z</time>
      </trkpt>
      <trkpt lat="47.17337" lon="3.32302">
        <ele>231</ele>
        <time>2016-08-18T17:18:37Z</time>
      </trkpt>
      <trkpt lat="47.17335" lon="3.32294">
        <ele>231</ele>
        <time>2016-08-18T17:18:38Z</time>
      </trkpt>
      <trkpt lat="47.17334" lon="3.32286">
        <ele>231</ele>
        <time>2016-08-18T17:18:39Z</time>
      </trkpt>
      <trkpt lat="47.17332" lon="3.32279">
        <ele>231</ele>
        <time>2016-08-18T17:18:40Z</time>
      </trkpt>
      <trkpt lat="47.17329" lon="3.32265">
        <ele>231</ele>
        <time>2016-08-18T17:18:41Z</time>
      </trkpt>
      <trkpt lat="47.17329" lon="3.32262">
        <ele>231</ele>
        <time>2016-08-18T17:18:42Z</time>
      </trkpt>
      <trkpt lat="47.17328" lon="3.32254">
        <ele>231</ele>
        <time>2016-08-18T17:18:43Z</time>
      </trkpt>
      <trkpt lat="47.17327" lon="3.32247">
        <ele>231</ele>
        <time>2016-08-18T17:18:44Z</time>
      </trkpt>
      <trkpt lat="47.17327" lon="3.32236">
        <ele>230</ele>
        <time>2016-08-18T17:18:46Z</time>
      </trkpt>
      <trkpt lat="47.17328" lon="3.32234">
        <ele>230</ele>
        <time>2016-08-18T17:18:46Z</time>
      </trkpt>
      <trkpt lat="47.17328" lon="3.32227">
        <ele>231</ele>
        <time>2016-08-18T17:18:47Z</time>
      </trkpt>
      <trkpt lat="47.17329" lon="3.32219">
        <ele>230</ele>
        <time>2016-08-18T17:18:48Z</time>
      </trkpt>
      <trkpt lat="47.1733" lon="3.32216">
        <ele>230</ele>
        <time>2016-08-18T17:18:49Z</time>
      </trkpt>
      <trkpt lat="47.17332" lon="3.32209">
        <ele>229</ele>
        <time>2016-08-18T17:18:50Z</time>
      </trkpt>
      <trkpt lat="47.17333" lon="3.32206">
        <ele>229</ele>
        <time>2016-08-18T17:18:51Z</time>
      </trkpt>
      <trkpt lat="47.17334" lon="3.32201">
        <ele>229</ele>
        <time>2016-08-18T17:18:52Z</time>
      </trkpt>
      <trkpt lat="47.17335" lon="3.32198">
        <ele>229</ele>
        <time>2016-08-18T17:18:53Z</time>
      </trkpt>
      <trkpt lat="47.17338" lon="3.32193">
        <ele>230</ele>
        <time>2016-08-18T17:18:55Z</time>
      </trkpt>
      <trkpt lat="47.17339" lon="3.3219">
        <ele>230</ele>
        <time>2016-08-18T17:18:55Z</time>
      </trkpt>
      <trkpt lat="47.17341" lon="3.32186">
        <ele>230</ele>
        <time>2016-08-18T17:18:56Z</time>
      </trkpt>
      <trkpt lat="47.17344" lon="3.32182">
        <ele>231</ele>
        <time>2016-08-18T17:18:57Z</time>
      </trkpt>
      <trkpt lat="47.17347" lon="3.32178">
        <ele>232</ele>
        <time>2016-08-18T17:18:58Z</time>
      </trkpt>
      <trkpt lat="47.17348" lon="3.32175">
        <ele>232</ele>
        <time>2016-08-18T17:18:59Z</time>
      </trkpt>
      <trkpt lat="47.1735" lon="3.32172">
        <ele>233</ele>
        <time>2016-08-18T17:19:00Z</time>
      </trkpt>
      <trkpt lat="47.17352" lon="3.32168">
        <ele>233</ele>
        <time>2016-08-18T17:19:01Z</time>
      </trkpt>
      <trkpt lat="47.17354" lon="3.32164">
        <ele>233</ele>
        <time>2016-08-18T17:19:02Z</time>
      </trkpt>
      <trkpt lat="47.17356" lon="3.3216">
        <ele>233</ele>
        <time>2016-08-18T17:19:03Z</time>
      </trkpt>
      <trkpt lat="47.17358" lon="3.32155">
        <ele>235</ele>
        <time>2016-08-18T17:19:04Z</time>
      </trkpt>
      <trkpt lat="47.1736" lon="3.32152">
        <ele>235</ele>
        <time>2016-08-18T17:19:05Z</time>
      </trkpt>
      <trkpt lat="47.17362" lon="3.32148">
        <ele>235</ele>
        <time>2016-08-18T17:19:06Z</time>
      </trkpt>
      <trkpt lat="47.17364" lon="3.32143">
        <ele>236</ele>
        <time>2016-08-18T17:19:07Z</time>
      </trkpt>
      <trkpt lat="47.17366" lon="3.32139">
        <ele>236</ele>
        <time>2016-08-18T17:19:08Z</time>
      </trkpt>
      <trkpt lat="47.17367" lon="3.32135">
        <ele>236</ele>
        <time>2016-08-18T17:19:09Z</time>
      </trkpt>
      <trkpt lat="47.17369" lon="3.32131">
        <ele>236</ele>
        <time>2016-08-18T17:19:11Z</time>
      </trkpt>
      <trkpt lat="47.1737" lon="3.32126">
        <ele>236</ele>
        <time>2016-08-18T17:19:12Z</time>
      </trkpt>
      <trkpt lat="47.17372" lon="3.32123">
        <ele>236</ele>
        <time>2016-08-18T17:19:13Z</time>
      </trkpt>
      <trkpt lat="47.17374" lon="3.32119">
        <ele>236</ele>
        <time>2016-08-18T17:19:14Z</time>
      </trkpt>
      <trkpt lat="47.17376" lon="3.32115">
        <ele>236</ele>
        <time>2016-08-18T17:19:15Z</time>
      </trkpt>
      <trkpt lat="47.17377" lon="3.32111">
        <ele>236</ele>
        <time>2016-08-18T17:19:16Z</time>
      </trkpt>
      <trkpt lat="47.17379" lon="3.32107">
        <ele>237</ele>
        <time>2016-08-18T17:19:17Z</time>
      </trkpt>
      <trkpt lat="47.17381" lon="3.32102">
        <ele>237</ele>
        <time>2016-08-18T17:19:18Z</time>
      </trkpt>
      <trkpt lat="47.17382" lon="3.32098">
        <ele>237</ele>
        <time>2016-08-18T17:19:19Z</time>
      </trkpt>
      <trkpt lat="47.17385" lon="3.32091">
        <ele>237</ele>
        <time>2016-08-18T17:19:20Z</time>
      </trkpt>
      <trkpt lat="47.17385" lon="3.3209">
        <ele>237</ele>
        <time>2016-08-18T17:19:21Z</time>
      </trkpt>
      <trkpt lat="47.17388" lon="3.32083">
        <ele>238</ele>
        <time>2016-08-18T17:19:23Z</time>
      </trkpt>
      <trkpt lat="47.17388" lon="3.32082">
        <ele>238</ele>
        <time>2016-08-18T17:19:23Z</time>
      </trkpt>
      <trkpt lat="47.1739" lon="3.32078">
        <ele>238</ele>
        <time>2016-08-18T17:19:24Z</time>
      </trkpt>
      <trkpt lat="47.17391" lon="3.32072">
        <ele>238</ele>
        <time>2016-08-18T17:19:25Z</time>
      </trkpt>
      <trkpt lat="47.17392" lon="3.3207">
        <ele>238</ele>
        <time>2016-08-18T17:19:26Z</time>
      </trkpt>
      <trkpt lat="47.17395" lon="3.32063">
        <ele>239</ele>
        <time>2016-08-18T17:19:27Z</time>
      </trkpt>
      <trkpt lat="47.17395" lon="3.32062">
        <ele>239</ele>
        <time>2016-08-18T17:19:28Z</time>
      </trkpt>
      <trkpt lat="47.17397" lon="3.32058">
        <ele>238</ele>
        <time>2016-08-18T17:19:29Z</time>
      </trkpt>
      <trkpt lat="47.17399" lon="3.32051">
        <ele>238</ele>
        <time>2016-08-18T17:19:31Z</time>
      </trkpt>
      <trkpt lat="47.17401" lon="3.32048">
        <ele>239</ele>
        <time>2016-08-18T17:19:32Z</time>
      </trkpt>
      <trkpt lat="47.17402" lon="3.32044">
        <ele>239</ele>
        <time>2016-08-18T17:19:33Z</time>
      </trkpt>
      <trkpt lat="47.17404" lon="3.32041">
        <ele>239</ele>
        <time>2016-08-18T17:19:33Z</time>
      </trkpt>
      <trkpt lat="47.17405" lon="3.32039">
        <ele>239</ele>
        <time>2016-08-18T17:19:34Z</time>
      </trkpt>
      <trkpt lat="47.17407" lon="3.32036">
        <ele>239</ele>
        <time>2016-08-18T17:19:35Z</time>
      </trkpt>
      <trkpt lat="47.1741" lon="3.32031">
        <ele>239</ele>
        <time>2016-08-18T17:19:36Z</time>
      </trkpt>
      <trkpt lat="47.17411" lon="3.32029">
        <ele>239</ele>
        <time>2016-08-18T17:19:37Z</time>
      </trkpt>
      <trkpt lat="47.17413" lon="3.32026">
        <ele>239</ele>
        <time>2016-08-18T17:19:38Z</time>
      </trkpt>
      <trkpt lat="47.17415" lon="3.3202">
        <ele>239</ele>
        <time>2016-08-18T17:19:40Z</time>
      </trkpt>
      <trkpt lat="47.17416" lon="3.32017">
        <ele>239</ele>
        <time>2016-08-18T17:19:40Z</time>
      </trkpt>
      <trkpt lat="47.17418" lon="3.32012">
        <ele>239</ele>
        <time>2016-08-18T17:19:41Z</time>
      </trkpt>
      <trkpt lat="47.17419" lon="3.32009">
        <ele>239</ele>
        <time>2016-08-18T17:19:42Z</time>
      </trkpt>
      <trkpt lat="47.17421" lon="3.32005">
        <ele>240</ele>
        <time>2016-08-18T17:19:43Z</time>
      </trkpt>
      <trkpt lat="47.17422" lon="3.32002">
        <ele>240</ele>
        <time>2016-08-18T17:19:44Z</time>
      </trkpt>
      <trkpt lat="47.17424" lon="3.31997">
        <ele>240</ele>
        <time>2016-08-18T17:19:45Z</time>
      </trkpt>
      <trkpt lat="47.17425" lon="3.31994">
        <ele>241</ele>
        <time>2016-08-18T17:19:46Z</time>
      </trkpt>
      <trkpt lat="47.17427" lon="3.31989">
        <ele>241</ele>
        <time>2016-08-18T17:19:48Z</time>
      </trkpt>
      <trkpt lat="47.17428" lon="3.31984">
        <ele>241</ele>
        <time>2016-08-18T17:19:49Z</time>
      </trkpt>
      <trkpt lat="47.1743" lon="3.3198">
        <ele>242</ele>
        <time>2016-08-18T17:19:50Z</time>
      </trkpt>
      <trkpt lat="47.17431" lon="3.31977">
        <ele>242</ele>
        <time>2016-08-18T17:19:50Z</time>
      </trkpt>
      <trkpt lat="47.17432" lon="3.31973">
        <ele>242</ele>
        <time>2016-08-18T17:19:51Z</time>
      </trkpt>
      <trkpt lat="47.17434" lon="3.31969">
        <ele>242</ele>
        <time>2016-08-18T17:19:52Z</time>
      </trkpt>
      <trkpt lat="47.17435" lon="3.31965">
        <ele>242</ele>
        <time>2016-08-18T17:19:53Z</time>
      </trkpt>
      <trkpt lat="47.17437" lon="3.31961">
        <ele>242</ele>
        <time>2016-08-18T17:19:54Z</time>
      </trkpt>
      <trkpt lat="47.17438" lon="3.31957">
        <ele>242</ele>
        <time>2016-08-18T17:19:56Z</time>
      </trkpt>
      <trkpt lat="47.1744" lon="3.31953">
        <ele>242</ele>
        <time>2016-08-18T17:19:57Z</time>
      </trkpt>
      <trkpt lat="47.17442" lon="3.31949">
        <ele>242</ele>
        <time>2016-08-18T17:19:58Z</time>
      </trkpt>
      <trkpt lat="47.17444" lon="3.31946">
        <ele>243</ele>
        <time>2016-08-18T17:19:59Z</time>
      </trkpt>
      <trkpt lat="47.17446" lon="3.31942">
        <ele>243</ele>
        <time>2016-08-18T17:20:00Z</time>
      </trkpt>
      <trkpt lat="47.17447" lon="3.31939">
        <ele>243</ele>
        <time>2016-08-18T17:20:01Z</time>
      </trkpt>
      <trkpt lat="47.1745" lon="3.31935">
        <ele>243</ele>
        <time>2016-08-18T17:20:02Z</time>
      </trkpt>
      <trkpt lat="47.17455" lon="3.31929">
        <ele>244</ele>
        <time>2016-08-18T17:20:03Z</time>
      </trkpt>
      <trkpt lat="47.17455" lon="3.31928">
        <ele>244</ele>
        <time>2016-08-18T17:20:04Z</time>
      </trkpt>
      <trkpt lat="47.17457" lon="3.31925">
        <ele>244</ele>
        <time>2016-08-18T17:20:05Z</time>
      </trkpt>
      <trkpt lat="47.1746" lon="3.31922">
        <ele>245</ele>
        <time>2016-08-18T17:20:06Z</time>
      </trkpt>
      <trkpt lat="47.17462" lon="3.31918">
        <ele>245</ele>
        <time>2016-08-18T17:20:07Z</time>
      </trkpt>
      <trkpt lat="47.17464" lon="3.31915">
        <ele>245</ele>
        <time>2016-08-18T17:20:08Z</time>
      </trkpt>
      <trkpt lat="47.17466" lon="3.31913">
        <ele>245</ele>
        <time>2016-08-18T17:20:09Z</time>
      </trkpt>
      <trkpt lat="47.17469" lon="3.3191">
        <ele>246</ele>
        <time>2016-08-18T17:20:10Z</time>
      </trkpt>
      <trkpt lat="47.17471" lon="3.31907">
        <ele>246</ele>
        <time>2016-08-18T17:20:11Z</time>
      </trkpt>
      <trkpt lat="47.17476" lon="3.31902">
        <ele>246</ele>
        <time>2016-08-18T17:20:13Z</time>
      </trkpt>
      <trkpt lat="47.17476" lon="3.31901">
        <ele>246</ele>
        <time>2016-08-18T17:20:13Z</time>
      </trkpt>
      <trkpt lat="47.17479" lon="3.31898">
        <ele>246</ele>
        <time>2016-08-18T17:20:14Z</time>
      </trkpt>
      <trkpt lat="47.17481" lon="3.31895">
        <ele>247</ele>
        <time>2016-08-18T17:20:15Z</time>
      </trkpt>
      <trkpt lat="47.17483" lon="3.31893">
        <ele>247</ele>
        <time>2016-08-18T17:20:16Z</time>
      </trkpt>
      <trkpt lat="47.17488" lon="3.31888">
        <ele>247</ele>
        <time>2016-08-18T17:20:18Z</time>
      </trkpt>
      <trkpt lat="47.17488" lon="3.31887">
        <ele>247</ele>
        <time>2016-08-18T17:20:18Z</time>
      </trkpt>
      <trkpt lat="47.17492" lon="3.31883">
        <ele>247</ele>
        <time>2016-08-18T17:20:19Z</time>
      </trkpt>
      <trkpt lat="47.17492" lon="3.31883">
        <ele>247</ele>
        <time>2016-08-18T17:20:20Z</time>
      </trkpt>
      <trkpt lat="47.17492" lon="3.31883">
        <ele>247</ele>
        <time>2016-08-18T17:20:21Z</time>
      </trkpt>
      <trkpt lat="47.17492" lon="3.31883">
        <ele>247</ele>
        <time>2016-08-18T17:20:22Z</time>
      </trkpt>
      <trkpt lat="47.17499" lon="3.31874">
        <ele>248</ele>
        <time>2016-08-18T17:20:23Z</time>
      </trkpt>
      <trkpt lat="47.17499" lon="3.31874">
        <ele>248</ele>
        <time>2016-08-18T17:20:24Z</time>
      </trkpt>
      <trkpt lat="47.17499" lon="3.31874">
        <ele>248</ele>
        <time>2016-08-18T17:20:24Z</time>
      </trkpt>
      <trkpt lat="47.175" lon="3.31874">
        <ele>248</ele>
        <time>2016-08-18T17:20:25Z</time>
      </trkpt>
      <trkpt lat="47.175" lon="3.31873">
        <ele>248</ele>
        <time>2016-08-18T17:20:26Z</time>
      </trkpt>
      <trkpt lat="47.175" lon="3.31873">
        <ele>248</ele>
        <time>2016-08-18T17:20:26Z</time>
      </trkpt>
      <trkpt lat="47.175" lon="3.31873">
        <ele>248</ele>
        <time>2016-08-18T17:20:27Z</time>
      </trkpt>
      <trkpt lat="47.175" lon="3.31873">
        <ele>248</ele>
        <time>2016-08-18T17:20:28Z</time>
      </trkpt>
      <trkpt lat="47.175" lon="3.31873">
        <ele>248</ele>
        <time>2016-08-18T17:20:28Z</time>
      </trkpt>
      <trkpt lat="47.175" lon="3.31873">
        <ele>248</ele>
        <time>2016-08-18T17:20:29Z</time>
      </trkpt>
      <trkpt lat="47.175" lon="3.31873">
        <ele>248</ele>
        <time>2016-08-18T17:20:30Z</time>
      </trkpt>
      <trkpt lat="47.175" lon="3.31873">
        <ele>248</ele>
        <time>2016-08-18T17:20:30Z</time>
      </trkpt>
      <trkpt lat="47.17515" lon="3.31845">
        <ele>250</ele>
        <time>2016-08-18T17:20:31Z</time>
      </trkpt>
      <trkpt lat="47.17516" lon="3.31842">
        <ele>250</ele>
        <time>2016-08-18T17:20:32Z</time>
      </trkpt>
      <trkpt lat="47.17518" lon="3.31837">
        <ele>250</ele>
        <time>2016-08-18T17:20:33Z</time>
      </trkpt>
      <trkpt lat="47.1752" lon="3.31831">
        <ele>249</ele>
        <time>2016-08-18T17:20:34Z</time>
      </trkpt>
      <trkpt lat="47.17521" lon="3.31829">
        <ele>248</ele>
        <time>2016-08-18T17:20:35Z</time>
      </trkpt>
      <trkpt lat="47.17521" lon="3.31829">
        <ele>247</ele>
        <time>2016-08-18T17:20:36Z</time>
      </trkpt>
      <trkpt lat="47.17521" lon="3.31829">
        <ele>247</ele>
        <time>2016-08-18T17:20:37Z</time>
      </trkpt>
      <trkpt lat="47.17523" lon="3.31825">
        <ele>248</ele>
        <time>2016-08-18T17:20:38Z</time>
      </trkpt>
      <trkpt lat="47.17527" lon="3.31815">
        <ele>248</ele>
        <time>2016-08-18T17:20:39Z</time>
      </trkpt>
      <trkpt lat="47.17528" lon="3.31815">
        <ele>248</ele>
        <time>2016-08-18T17:20:40Z</time>
      </trkpt>
      <trkpt lat="47.17527" lon="3.31815">
        <ele>248</ele>
        <time>2016-08-18T17:20:40Z</time>
      </trkpt>
      <trkpt lat="47.17528" lon="3.31813">
        <ele>249</ele>
        <time>2016-08-18T17:20:41Z</time>
      </trkpt>
      <trkpt lat="47.17529" lon="3.31812">
        <ele>249</ele>
        <time>2016-08-18T17:20:42Z</time>
      </trkpt>
      <trkpt lat="47.17529" lon="3.31812">
        <ele>248</ele>
        <time>2016-08-18T17:20:43Z</time>
      </trkpt>
      <trkpt lat="47.17529" lon="3.31811">
        <ele>249</ele>
        <time>2016-08-18T17:20:44Z</time>
      </trkpt>
      <trkpt lat="47.1753" lon="3.3181">
        <ele>249</ele>
        <time>2016-08-18T17:20:45Z</time>
      </trkpt>
      <trkpt lat="47.1753" lon="3.3181">
        <ele>249</ele>
        <time>2016-08-18T17:20:46Z</time>
      </trkpt>
      <trkpt lat="47.1753" lon="3.3181">
        <ele>249</ele>
        <time>2016-08-18T17:20:46Z</time>
      </trkpt>
      <trkpt lat="47.1753" lon="3.3181">
        <ele>249</ele>
        <time>2016-08-18T17:20:47Z</time>
      </trkpt>
      <trkpt lat="47.17531" lon="3.31808">
        <ele>251</ele>
        <time>2016-08-18T17:20:48Z</time>
      </trkpt>
      <trkpt lat="47.17532" lon="3.31806">
        <ele>251</ele>
        <time>2016-08-18T17:20:49Z</time>
      </trkpt>
      <trkpt lat="47.17531" lon="3.31806">
        <ele>251</ele>
        <time>2016-08-18T17:20:50Z</time>
      </trkpt>
      <trkpt lat="47.17531" lon="3.31806">
        <ele>251</ele>
        <time>2016-08-18T17:20:50Z</time>
      </trkpt>
      <trkpt lat="47.17532" lon="3.31806">
        <ele>251</ele>
        <time>2016-08-18T17:20:51Z</time>
      </trkpt>
      <trkpt lat="47.17532" lon="3.31806">
        <ele>251</ele>
        <time>2016-08-18T17:20:51Z</time>
      </trkpt>
      <trkpt lat="47.17534" lon="3.31802">
        <ele>251</ele>
        <time>2016-08-18T17:20:52Z</time>
      </trkpt>
      <trkpt lat="47.17534" lon="3.31802">
        <ele>251</ele>
        <time>2016-08-18T17:20:53Z</time>
      </trkpt>
      <trkpt lat="47.17534" lon="3.31802">
        <ele>251</ele>
        <time>2016-08-18T17:20:54Z</time>
      </trkpt>
      <trkpt lat="47.17534" lon="3.31802">
        <ele>251</ele>
        <time>2016-08-18T17:20:55Z</time>
      </trkpt>
      <trkpt lat="47.17534" lon="3.31802">
        <ele>251</ele>
        <time>2016-08-18T17:20:55Z</time>
      </trkpt>
      <trkpt lat="47.17534" lon="3.31802">
        <ele>251</ele>
        <time>2016-08-18T17:20:56Z</time>
      </trkpt>
      <trkpt lat="47.17534" lon="3.31802">
        <ele>251</ele>
        <time>2016-08-18T17:20:56Z</time>
      </trkpt>
      <trkpt lat="47.17534" lon="3.31802">
        <ele>251</ele>
        <time>2016-08-18T17:20:57Z</time>
      </trkpt>
      <trkpt lat="47.17534" lon="3.31802">
        <ele>251</ele>
        <time>2016-08-18T17:20:58Z</time>
      </trkpt>
      <trkpt lat="47.17534" lon="3.31802">
        <ele>251</ele>
        <time>2016-08-18T17:20:58Z</time>
      </trkpt>
      <trkpt lat="47.17537" lon="3.31795">
        <ele>251</ele>
        <time>2016-08-18T17:20:59Z</time>
      </trkpt>
      <trkpt lat="47.17539" lon="3.31791">
        <ele>252</ele>
        <time>2016-08-18T17:21:00Z</time>
      </trkpt>
      <trkpt lat="47.17541" lon="3.31787">
        <ele>252</ele>
        <time>2016-08-18T17:21:01Z</time>
      </trkpt>
      <trkpt lat="47.17543" lon="3.31783">
        <ele>252</ele>
        <time>2016-08-18T17:21:02Z</time>
      </trkpt>
      <trkpt lat="47.17543" lon="3.31783">
        <ele>252</ele>
        <time>2016-08-18T17:21:03Z</time>
      </trkpt>
      <trkpt lat="47.17543" lon="3.31783">
        <ele>252</ele>
        <time>2016-08-18T17:21:04Z</time>
      </trkpt>
      <trkpt lat="47.17543" lon="3.31783">
        <ele>252</ele>
        <time>2016-08-18T17:21:04Z</time>
      </trkpt>
      <trkpt lat="47.17543" lon="3.31783">
        <ele>252</ele>
        <time>2016-08-18T17:21:05Z</time>
      </trkpt>
      <trkpt lat="47.17543" lon="3.31783">
        <ele>252</ele>
        <time>2016-08-18T17:21:05Z</time>
      </trkpt>
      <trkpt lat="47.17543" lon="3.31783">
        <ele>252</ele>
        <time>2016-08-18T17:21:06Z</time>
      </trkpt>
      <trkpt lat="47.17572" lon="3.31723">
        <ele>254</ele>
        <time>2016-08-18T17:21:09Z</time>
      </trkpt>
      <trkpt lat="47.17572" lon="3.31724">
        <ele>254</ele>
        <time>2016-08-18T17:21:10Z</time>
      </trkpt>
      <trkpt lat="47.17572" lon="3.31724">
        <ele>254</ele>
        <time>2016-08-18T17:21:11Z</time>
      </trkpt>
      <trkpt lat="47.17572" lon="3.31724">
        <ele>254</ele>
        <time>2016-08-18T17:21:11Z</time>
      </trkpt>
      <trkpt lat="47.17583" lon="3.317">
        <ele>254</ele>
        <time>2016-08-18T17:21:12Z</time>
      </trkpt>
      <trkpt lat="47.17583" lon="3.317">
        <ele>254</ele>
        <time>2016-08-18T17:21:13Z</time>
      </trkpt>
      <trkpt lat="47.17583" lon="3.317">
        <ele>254</ele>
        <time>2016-08-18T17:21:14Z</time>
      </trkpt>
      <trkpt lat="47.17583" lon="3.317">
        <ele>254</ele>
        <time>2016-08-18T17:21:15Z</time>
      </trkpt>
      <trkpt lat="47.17583" lon="3.317">
        <ele>254</ele>
        <time>2016-08-18T17:21:15Z</time>
      </trkpt>
      <trkpt lat="47.17586" lon="3.31694">
        <ele>256</ele>
        <time>2016-08-18T17:21:16Z</time>
      </trkpt>
      <trkpt lat="47.17589" lon="3.31688">
        <ele>257</ele>
        <time>2016-08-18T17:21:17Z</time>
      </trkpt>
      <trkpt lat="47.1759" lon="3.31686">
        <ele>257</ele>
        <time>2016-08-18T17:21:18Z</time>
      </trkpt>
      <trkpt lat="47.17595" lon="3.31675">
        <ele>256</ele>
        <time>2016-08-18T17:21:19Z</time>
      </trkpt>
      <trkpt lat="47.17595" lon="3.31673">
        <ele>256</ele>
        <time>2016-08-18T17:21:20Z</time>
      </trkpt>
      <trkpt lat="47.17597" lon="3.3167">
        <ele>255</ele>
        <time>2016-08-18T17:21:21Z</time>
      </trkpt>
      <trkpt lat="47.17597" lon="3.3167">
        <ele>255</ele>
        <time>2016-08-18T17:21:22Z</time>
      </trkpt>
      <trkpt lat="47.17597" lon="3.3167">
        <ele>255</ele>
        <time>2016-08-18T17:21:23Z</time>
      </trkpt>
      <trkpt lat="47.17597" lon="3.3167">
        <ele>255</ele>
        <time>2016-08-18T17:21:23Z</time>
      </trkpt>
      <trkpt lat="47.17597" lon="3.3167">
        <ele>255</ele>
        <time>2016-08-18T17:21:24Z</time>
      </trkpt>
      <trkpt lat="47.17597" lon="3.3167">
        <ele>255</ele>
        <time>2016-08-18T17:21:24Z</time>
      </trkpt>
      <trkpt lat="47.17597" lon="3.3167">
        <ele>255</ele>
        <time>2016-08-18T17:21:25Z</time>
      </trkpt>
      <trkpt lat="47.17597" lon="3.3167">
        <ele>255</ele>
        <time>2016-08-18T17:21:26Z</time>
      </trkpt>
      <trkpt lat="47.17597" lon="3.3167">
        <ele>255</ele>
        <time>2016-08-18T17:21:26Z</time>
      </trkpt>
      <trkpt lat="47.17597" lon="3.3167">
        <ele>255</ele>
        <time>2016-08-18T17:21:27Z</time>
      </trkpt>
      <trkpt lat="47.17597" lon="3.3167">
        <ele>255</ele>
        <time>2016-08-18T17:21:28Z</time>
      </trkpt>
      <trkpt lat="47.17597" lon="3.3167">
        <ele>255</ele>
        <time>2016-08-18T17:21:28Z</time>
      </trkpt>
      <trkpt lat="47.17597" lon="3.3167">
        <ele>255</ele>
        <time>2016-08-18T17:21:29Z</time>
      </trkpt>
      <trkpt lat="47.17597" lon="3.3167">
        <ele>255</ele>
        <time>2016-08-18T17:21:29Z</time>
      </trkpt>
      <trkpt lat="47.17609" lon="3.31647">
        <ele>263</ele>
        <time>2016-08-18T17:21:31Z</time>
      </trkpt>
      <trkpt lat="47.1761" lon="3.31646">
        <ele>263</ele>
        <time>2016-08-18T17:21:32Z</time>
      </trkpt>
      <trkpt lat="47.17613" lon="3.31638">
        <ele>263</ele>
        <time>2016-08-18T17:21:33Z</time>
      </trkpt>
      <trkpt lat="47.17618" lon="3.3163">
        <ele>263</ele>
        <time>2016-08-18T17:21:34Z</time>
      </trkpt>
      <trkpt lat="47.17621" lon="3.31625">
        <ele>262</ele>
        <time>2016-08-18T17:21:35Z</time>
      </trkpt>
      <trkpt lat="47.17625" lon="3.31617">
        <ele>263</ele>
        <time>2016-08-18T17:21:36Z</time>
      </trkpt>
      <trkpt lat="47.17628" lon="3.31613">
        <ele>263</ele>
        <time>2016-08-18T17:21:37Z</time>
      </trkpt>
      <trkpt lat="47.1763" lon="3.31609">
        <ele>263</ele>
        <time>2016-08-18T17:21:38Z</time>
      </trkpt>
      <trkpt lat="47.1763" lon="3.31609">
        <ele>263</ele>
        <time>2016-08-18T17:21:39Z</time>
      </trkpt>
      <trkpt lat="47.1763" lon="3.31608">
        <ele>263</ele>
        <time>2016-08-18T17:21:39Z</time>
      </trkpt>
      <trkpt lat="47.17633" lon="3.31603">
        <ele>260</ele>
        <time>2016-08-18T17:21:40Z</time>
      </trkpt>
      <trkpt lat="47.17636" lon="3.31598">
        <ele>261</ele>
        <time>2016-08-18T17:21:41Z</time>
      </trkpt>
      <trkpt lat="47.17636" lon="3.31597">
        <ele>261</ele>
        <time>2016-08-18T17:21:42Z</time>
      </trkpt>
      <trkpt lat="47.17638" lon="3.31595">
        <ele>260</ele>
        <time>2016-08-18T17:21:44Z</time>
      </trkpt>
      <trkpt lat="47.17639" lon="3.31592">
        <ele>261</ele>
        <time>2016-08-18T17:21:45Z</time>
      </trkpt>
      <trkpt lat="47.17643" lon="3.31585">
        <ele>261</ele>
        <time>2016-08-18T17:21:46Z</time>
      </trkpt>
      <trkpt lat="47.17643" lon="3.31585">
        <ele>261</ele>
        <time>2016-08-18T17:21:47Z</time>
      </trkpt>
      <trkpt lat="47.17643" lon="3.31585">
        <ele>261</ele>
        <time>2016-08-18T17:21:47Z</time>
      </trkpt>
      <trkpt lat="47.17643" lon="3.31585">
        <ele>261</ele>
        <time>2016-08-18T17:21:48Z</time>
      </trkpt>
      <trkpt lat="47.17645" lon="3.31583">
        <ele>262</ele>
        <time>2016-08-18T17:21:48Z</time>
      </trkpt>
      <trkpt lat="47.17651" lon="3.31577">
        <ele>262</ele>
        <time>2016-08-18T17:21:49Z</time>
      </trkpt>
      <trkpt lat="47.17656" lon="3.31571">
        <ele>263</ele>
        <time>2016-08-18T17:21:50Z</time>
      </trkpt>
      <trkpt lat="47.17662" lon="3.31569">
        <ele>263</ele>
        <time>2016-08-18T17:21:51Z</time>
      </trkpt>
      <trkpt lat="47.17663" lon="3.31569">
        <ele>263</ele>
        <time>2016-08-18T17:21:53Z</time>
      </trkpt>
      <trkpt lat="47.17664" lon="3.31569">
        <ele>263</ele>
        <time>2016-08-18T17:21:54Z</time>
      </trkpt>
      <trkpt lat="47.17667" lon="3.31568">
        <ele>264</ele>
        <time>2016-08-18T17:21:55Z</time>
      </trkpt>
      <trkpt lat="47.1767" lon="3.31569">
        <ele>264</ele>
        <time>2016-08-18T17:21:56Z</time>
      </trkpt>
      <trkpt lat="47.17674" lon="3.31569">
        <ele>264</ele>
        <time>2016-08-18T17:21:57Z</time>
      </trkpt>
      <trkpt lat="47.17677" lon="3.31571">
        <ele>265</ele>
        <time>2016-08-18T17:21:58Z</time>
      </trkpt>
      <trkpt lat="47.17678" lon="3.31571">
        <ele>265</ele>
        <time>2016-08-18T17:21:59Z</time>
      </trkpt>
      <trkpt lat="47.17682" lon="3.31573">
        <ele>266</ele>
        <time>2016-08-18T17:22:00Z</time>
      </trkpt>
      <trkpt lat="47.17686" lon="3.31575">
        <ele>267</ele>
        <time>2016-08-18T17:22:01Z</time>
      </trkpt>
      <trkpt lat="47.17688" lon="3.31577">
        <ele>267</ele>
        <time>2016-08-18T17:22:02Z</time>
      </trkpt>
      <trkpt lat="47.1769" lon="3.3158">
        <ele>268</ele>
        <time>2016-08-18T17:22:03Z</time>
      </trkpt>
      <trkpt lat="47.17693" lon="3.31583">
        <ele>268</ele>
        <time>2016-08-18T17:22:04Z</time>
      </trkpt>
      <trkpt lat="47.17695" lon="3.31588">
        <ele>268</ele>
        <time>2016-08-18T17:22:05Z</time>
      </trkpt>
      <trkpt lat="47.17695" lon="3.3159">
        <ele>268</ele>
        <time>2016-08-18T17:22:06Z</time>
      </trkpt>
      <trkpt lat="47.17694" lon="3.3159">
        <ele>269</ele>
        <time>2016-08-18T17:22:07Z</time>
      </trkpt>
      <trkpt lat="47.17695" lon="3.31591">
        <ele>269</ele>
        <time>2016-08-18T17:22:08Z</time>
      </trkpt>
      <trkpt lat="47.17695" lon="3.31591">
        <ele>269</ele>
        <time>2016-08-18T17:22:09Z</time>
      </trkpt>
      <trkpt lat="47.17696" lon="3.31591">
        <ele>269</ele>
        <time>2016-08-18T17:22:10Z</time>
      </trkpt>
      <trkpt lat="47.17696" lon="3.31592">
        <ele>269</ele>
        <time>2016-08-18T17:22:11Z</time>
      </trkpt>
      <trkpt lat="47.17696" lon="3.31592">
        <ele>269</ele>
        <time>2016-08-18T17:22:12Z</time>
      </trkpt>
      <trkpt lat="47.17696" lon="3.31592">
        <ele>269</ele>
        <time>2016-08-18T17:22:12Z</time>
      </trkpt>
      <trkpt lat="47.17709" lon="3.31622">
        <ele>268</ele>
        <time>2016-08-18T17:22:13Z</time>
      </trkpt>
      <trkpt lat="47.17709" lon="3.31622">
        <ele>268</ele>
        <time>2016-08-18T17:22:14Z</time>
      </trkpt>
      <trkpt lat="47.17709" lon="3.31622">
        <ele>268</ele>
        <time>2016-08-18T17:22:15Z</time>
      </trkpt>
      <trkpt lat="47.17709" lon="3.31622">
        <ele>268</ele>
        <time>2016-08-18T17:22:16Z</time>
      </trkpt>
      <trkpt lat="47.17709" lon="3.31622">
        <ele>268</ele>
        <time>2016-08-18T17:22:16Z</time>
      </trkpt>
      <trkpt lat="47.17709" lon="3.31622">
        <ele>268</ele>
        <time>2016-08-18T17:22:17Z</time>
      </trkpt>
      <trkpt lat="47.17709" lon="3.31622">
        <ele>268</ele>
        <time>2016-08-18T17:22:18Z</time>
      </trkpt>
      <trkpt lat="47.17709" lon="3.31622">
        <ele>268</ele>
        <time>2016-08-18T17:22:18Z</time>
      </trkpt>
      <trkpt lat="47.17709" lon="3.31622">
        <ele>268</ele>
        <time>2016-08-18T17:22:19Z</time>
      </trkpt>
      <trkpt lat="47.17709" lon="3.31622">
        <ele>268</ele>
        <time>2016-08-18T17:22:19Z</time>
      </trkpt>
      <trkpt lat="47.17709" lon="3.31622">
        <ele>268</ele>
        <time>2016-08-18T17:22:20Z</time>
      </trkpt>
      <trkpt lat="47.17711" lon="3.31628">
        <ele>273</ele>
        <time>2016-08-18T17:22:21Z</time>
      </trkpt>
      <trkpt lat="47.17712" lon="3.31632">
        <ele>274</ele>
        <time>2016-08-18T17:22:22Z</time>
      </trkpt>
      <trkpt lat="47.17716" lon="3.31648">
        <ele>274</ele>
        <time>2016-08-18T17:22:23Z</time>
      </trkpt>
      <trkpt lat="47.17722" lon="3.31666">
        <ele>275</ele>
        <time>2016-08-18T17:22:24Z</time>
      </trkpt>
      <trkpt lat="47.17725" lon="3.31674">
        <ele>275</ele>
        <time>2016-08-18T17:22:25Z</time>
      </trkpt>
      <trkpt lat="47.17726" lon="3.31677">
        <ele>275</ele>
        <time>2016-08-18T17:22:26Z</time>
      </trkpt>
      <trkpt lat="47.17727" lon="3.31678">
        <ele>275</ele>
        <time>2016-08-18T17:22:27Z</time>
      </trkpt>
      <trkpt lat="47.17727" lon="3.31678">
        <ele>275</ele>
        <time>2016-08-18T17:22:28Z</time>
      </trkpt>
      <trkpt lat="47.17727" lon="3.31678">
        <ele>275</ele>
        <time>2016-08-18T17:22:28Z</time>
      </trkpt>
      <trkpt lat="47.17727" lon="3.31678">
        <ele>275</ele>
        <time>2016-08-18T17:22:29Z</time>
      </trkpt>
      <trkpt lat="47.17727" lon="3.31678">
        <ele>275</ele>
        <time>2016-08-18T17:22:30Z</time>
      </trkpt>
      <trkpt lat="47.17727" lon="3.31678">
        <ele>275</ele>
        <time>2016-08-18T17:22:30Z</time>
      </trkpt>
      <trkpt lat="47.17733" lon="3.31682">
        <ele>276</ele>
        <time>2016-08-18T17:22:31Z</time>
      </trkpt>
      <trkpt lat="47.17736" lon="3.31684">
        <ele>276</ele>
        <time>2016-08-18T17:22:32Z</time>
      </trkpt>
      <trkpt lat="47.17735" lon="3.31684">
        <ele>276</ele>
        <time>2016-08-18T17:22:33Z</time>
      </trkpt>
      <trkpt lat="47.17735" lon="3.31684">
        <ele>276</ele>
        <time>2016-08-18T17:22:33Z</time>
      </trkpt>
      <trkpt lat="47.17735" lon="3.31684">
        <ele>276</ele>
        <time>2016-08-18T17:22:34Z</time>
      </trkpt>
      <trkpt lat="47.17738" lon="3.31684">
        <ele>276</ele>
        <time>2016-08-18T17:22:35Z</time>
      </trkpt>
      <trkpt lat="47.1774" lon="3.31685">
        <ele>276</ele>
        <time>2016-08-18T17:22:36Z</time>
      </trkpt>
      <trkpt lat="47.17739" lon="3.31685">
        <ele>276</ele>
        <time>2016-08-18T17:22:37Z</time>
      </trkpt>
      <trkpt lat="47.17739" lon="3.31685">
        <ele>276</ele>
        <time>2016-08-18T17:22:37Z</time>
      </trkpt>
      <trkpt lat="47.17745" lon="3.31686">
        <ele>276</ele>
        <time>2016-08-18T17:22:38Z</time>
      </trkpt>
      <trkpt lat="47.17754" lon="3.31688">
        <ele>276</ele>
        <time>2016-08-18T17:22:39Z</time>
      </trkpt>
      <trkpt lat="47.17756" lon="3.31688">
        <ele>277</ele>
        <time>2016-08-18T17:22:40Z</time>
      </trkpt>
      <trkpt lat="47.17756" lon="3.31688">
        <ele>277</ele>
        <time>2016-08-18T17:22:41Z</time>
      </trkpt>
      <trkpt lat="47.17758" lon="3.31688">
        <ele>277</ele>
        <time>2016-08-18T17:22:42Z</time>
      </trkpt>
      <trkpt lat="47.17759" lon="3.31688">
        <ele>277</ele>
        <time>2016-08-18T17:22:43Z</time>
      </trkpt>
      <trkpt lat="47.17759" lon="3.31688">
        <ele>277</ele>
        <time>2016-08-18T17:22:44Z</time>
      </trkpt>
      <trkpt lat="47.17759" lon="3.31688">
        <ele>277</ele>
        <time>2016-08-18T17:22:44Z</time>
      </trkpt>
      <trkpt lat="47.17759" lon="3.31688">
        <ele>277</ele>
        <time>2016-08-18T17:22:45Z</time>
      </trkpt>
      <trkpt lat="47.17767" lon="3.31689">
        <ele>280</ele>
        <time>2016-08-18T17:22:46Z</time>
      </trkpt>
      <trkpt lat="47.17782" lon="3.31689">
        <ele>281</ele>
        <time>2016-08-18T17:22:47Z</time>
      </trkpt>
      <trkpt lat="47.17782" lon="3.31689">
        <ele>282</ele>
        <time>2016-08-18T17:22:48Z</time>
      </trkpt>
      <trkpt lat="47.17782" lon="3.31689">
        <ele>282</ele>
        <time>2016-08-18T17:22:48Z</time>
      </trkpt>
      <trkpt lat="47.17782" lon="3.31689">
        <ele>282</ele>
        <time>2016-08-18T17:22:49Z</time>
      </trkpt>
      <trkpt lat="47.17782" lon="3.31689">
        <ele>282</ele>
        <time>2016-08-18T17:22:50Z</time>
      </trkpt>
      <trkpt lat="47.17782" lon="3.31689">
        <ele>282</ele>
        <time>2016-08-18T17:22:50Z</time>
      </trkpt>
      <trkpt lat="47.17782" lon="3.31689">
        <ele>282</ele>
        <time>2016-08-18T17:22:51Z</time>
      </trkpt>
      <trkpt lat="47.17782" lon="3.31689">
        <ele>282</ele>
        <time>2016-08-18T17:22:52Z</time>
      </trkpt>
      <trkpt lat="47.17782" lon="3.31689">
        <ele>282</ele>
        <time>2016-08-18T17:22:52Z</time>
      </trkpt>
      <trkpt lat="47.17794" lon="3.31688">
        <ele>278</ele>
        <time>2016-08-18T17:22:53Z</time>
      </trkpt>
      <trkpt lat="47.17821" lon="3.31681">
        <ele>278</ele>
        <time>2016-08-18T17:22:56Z</time>
      </trkpt>
      <trkpt lat="47.17835" lon="3.31674">
        <ele>279</ele>
        <time>2016-08-18T17:23:01Z</time>
      </trkpt>
      <trkpt lat="47.17856" lon="3.31663">
        <ele>276</ele>
        <time>2016-08-18T17:23:08Z</time>
      </trkpt>
      <trkpt lat="47.17865" lon="3.31659">
        <ele>277</ele>
        <time>2016-08-18T17:23:11Z</time>
      </trkpt>
      <trkpt lat="47.17876" lon="3.31651">
        <ele>280</ele>
        <time>2016-08-18T17:23:16Z</time>
      </trkpt>
      <trkpt lat="47.1789" lon="3.31648">
        <ele>284</ele>
        <time>2016-08-18T17:23:21Z</time>
      </trkpt>
      <trkpt lat="47.17914" lon="3.31648">
        <ele>286</ele>
        <time>2016-08-18T17:23:28Z</time>
      </trkpt>
      <trkpt lat="47.17923" lon="3.31647">
        <ele>287</ele>
        <time>2016-08-18T17:23:31Z</time>
      </trkpt>
      <trkpt lat="47.17935" lon="3.31649">
        <ele>292</ele>
        <time>2016-08-18T17:23:36Z</time>
      </trkpt>
      <trkpt lat="47.1795" lon="3.31647">
        <ele>291</ele>
        <time>2016-08-18T17:23:41Z</time>
      </trkpt>
      <trkpt lat="47.1797" lon="3.31641">
        <ele>292</ele>
        <time>2016-08-18T17:23:48Z</time>
      </trkpt>
      <trkpt lat="47.17984" lon="3.31643">
        <ele>293</ele>
        <time>2016-08-18T17:23:53Z</time>
      </trkpt>
      <trkpt lat="47.17995" lon="3.31637">
        <ele>291</ele>
        <time>2016-08-18T17:23:56Z</time>
      </trkpt>
      <trkpt lat="47.18018" lon="3.31635">
        <ele>285</ele>
        <time>2016-08-18T17:24:04Z</time>
      </trkpt>
      <trkpt lat="47.18029" lon="3.31636">
        <ele>288</ele>
        <time>2016-08-18T17:24:07Z</time>
      </trkpt>
      <trkpt lat="47.1804" lon="3.31635">
        <ele>292</ele>
        <time>2016-08-18T17:24:12Z</time>
      </trkpt>
      <trkpt lat="47.18065" lon="3.31622">
        <ele>296</ele>
        <time>2016-08-18T17:24:20Z</time>
      </trkpt>
      <trkpt lat="47.18078" lon="3.31613">
        <ele>296</ele>
        <time>2016-08-18T17:24:24Z</time>
      </trkpt>
      <trkpt lat="47.18085" lon="3.31604">
        <ele>298</ele>
        <time>2016-08-18T17:24:27Z</time>
      </trkpt>
      <trkpt lat="47.18096" lon="3.31586">
        <ele>299</ele>
        <time>2016-08-18T17:24:32Z</time>
      </trkpt>
      <trkpt lat="47.18101" lon="3.31558">
        <ele>299</ele>
        <time>2016-08-18T17:24:39Z</time>
      </trkpt>
      <trkpt lat="47.181" lon="3.31544">
        <ele>299</ele>
        <time>2016-08-18T17:24:42Z</time>
      </trkpt>
      <trkpt lat="47.18094" lon="3.3153">
        <ele>300</ele>
        <time>2016-08-18T17:24:46Z</time>
      </trkpt>
      <trkpt lat="47.1808" lon="3.3152">
        <ele>300</ele>
        <time>2016-08-18T17:24:51Z</time>
      </trkpt>
      <trkpt lat="47.18067" lon="3.31517">
        <ele>299</ele>
        <time>2016-08-18T17:24:56Z</time>
      </trkpt>
      <trkpt lat="47.18052" lon="3.31513">
        <ele>298</ele>
        <time>2016-08-18T17:25:01Z</time>
      </trkpt>
      <trkpt lat="47.18036" lon="3.31511">
        <ele>301</ele>
        <time>2016-08-18T17:25:06Z</time>
      </trkpt>
      <trkpt lat="47.18021" lon="3.31507">
        <ele>302</ele>
        <time>2016-08-18T17:25:11Z</time>
      </trkpt>
      <trkpt lat="47.17997" lon="3.31497">
        <ele>303</ele>
        <time>2016-08-18T17:25:19Z</time>
      </trkpt>
      <trkpt lat="47.17991" lon="3.31492">
        <ele>302</ele>
        <time>2016-08-18T17:25:21Z</time>
      </trkpt>
      <trkpt lat="47.17979" lon="3.31478">
        <ele>303</ele>
        <time>2016-08-18T17:25:26Z</time>
      </trkpt>
      <trkpt lat="47.17972" lon="3.31459">
        <ele>305</ele>
        <time>2016-08-18T17:25:31Z</time>
      </trkpt>
      <trkpt lat="47.17966" lon="3.3144">
        <ele>306</ele>
        <time>2016-08-18T17:25:36Z</time>
      </trkpt>
      <trkpt lat="47.17961" lon="3.31421">
        <ele>308</ele>
        <time>2016-08-18T17:25:41Z</time>
      </trkpt>
      <trkpt lat="47.17956" lon="3.31401">
        <ele>308</ele>
        <time>2016-08-18T17:25:46Z</time>
      </trkpt>
      <trkpt lat="47.17949" lon="3.31367">
        <ele>309</ele>
        <time>2016-08-18T17:25:55Z</time>
      </trkpt>
      <trkpt lat="47.17948" lon="3.31362">
        <ele>309</ele>
        <time>2016-08-18T17:25:56Z</time>
      </trkpt>
      <trkpt lat="47.17942" lon="3.31342">
        <ele>311</ele>
        <time>2016-08-18T17:26:01Z</time>
      </trkpt>
      <trkpt lat="47.17935" lon="3.31317">
        <ele>306</ele>
        <time>2016-08-18T17:26:07Z</time>
      </trkpt>
      <trkpt lat="47.17932" lon="3.31303">
        <ele>308</ele>
        <time>2016-08-18T17:26:11Z</time>
      </trkpt>
      <trkpt lat="47.17926" lon="3.31285">
        <ele>314</ele>
        <time>2016-08-18T17:26:16Z</time>
      </trkpt>
      <trkpt lat="47.17917" lon="3.31257">
        <ele>318</ele>
        <time>2016-08-18T17:26:23Z</time>
      </trkpt>
      <trkpt lat="47.17914" lon="3.31244">
        <ele>313</ele>
        <time>2016-08-18T17:26:26Z</time>
      </trkpt>
      <trkpt lat="47.17902" lon="3.31206">
        <ele>314</ele>
        <time>2016-08-18T17:26:34Z</time>
      </trkpt>
      <trkpt lat="47.17897" lon="3.31195">
        <ele>316</ele>
        <time>2016-08-18T17:26:36Z</time>
      </trkpt>
      <trkpt lat="47.17888" lon="3.31167">
        <ele>324</ele>
        <time>2016-08-18T17:26:41Z</time>
      </trkpt>
      <trkpt lat="47.17882" lon="3.31133">
        <ele>320</ele>
        <time>2016-08-18T17:26:46Z</time>
      </trkpt>
      <trkpt lat="47.17871" lon="3.31099">
        <ele>323</ele>
        <time>2016-08-18T17:26:52Z</time>
      </trkpt>
      <trkpt lat="47.17865" lon="3.31077">
        <ele>324</ele>
        <time>2016-08-18T17:26:56Z</time>
      </trkpt>
      <trkpt lat="47.17855" lon="3.3104">
        <ele>325</ele>
        <time>2016-08-18T17:27:02Z</time>
      </trkpt>
      <trkpt lat="47.17848" lon="3.31015">
        <ele>324</ele>
        <time>2016-08-18T17:27:06Z</time>
      </trkpt>
      <trkpt lat="47.17829" lon="3.30945">
        <ele>322</ele>
        <time>2016-08-18T17:27:15Z</time>
      </trkpt>
      <trkpt lat="47.1782" lon="3.30911">
        <ele>322</ele>
        <time>2016-08-18T17:27:19Z</time>
      </trkpt>
      <trkpt lat="47.17812" lon="3.30877">
        <ele>323</ele>
        <time>2016-08-18T17:27:23Z</time>
      </trkpt>
      <trkpt lat="47.17799" lon="3.30828">
        <ele>325</ele>
        <time>2016-08-18T17:27:29Z</time>
      </trkpt>
      <trkpt lat="47.17795" lon="3.30811">
        <ele>325</ele>
        <time>2016-08-18T17:27:31Z</time>
      </trkpt>
      <trkpt lat="47.17783" lon="3.30771">
        <ele>326</ele>
        <time>2016-08-18T17:27:36Z</time>
      </trkpt>
      <trkpt lat="47.17774" lon="3.30729">
        <ele>321</ele>
        <time>2016-08-18T17:27:41Z</time>
      </trkpt>
      <trkpt lat="47.17765" lon="3.30688">
        <ele>311</ele>
        <time>2016-08-18T17:27:46Z</time>
      </trkpt>
      <trkpt lat="47.17761" lon="3.30639">
        <ele>309</ele>
        <time>2016-08-18T17:27:51Z</time>
      </trkpt>
      <trkpt lat="47.17769" lon="3.30589">
        <ele>309</ele>
        <time>2016-08-18T17:27:56Z</time>
      </trkpt>
      <trkpt lat="47.17777" lon="3.30543">
        <ele>314</ele>
        <time>2016-08-18T17:28:01Z</time>
      </trkpt>
      <trkpt lat="47.17785" lon="3.3048">
        <ele>314</ele>
        <time>2016-08-18T17:28:08Z</time>
      </trkpt>
      <trkpt lat="47.17791" lon="3.30444">
        <ele>318</ele>
        <time>2016-08-18T17:28:12Z</time>
      </trkpt>
      <trkpt lat="47.178" lon="3.30406">
        <ele>318</ele>
        <time>2016-08-18T17:28:16Z</time>
      </trkpt>
      <trkpt lat="47.17822" lon="3.30311">
        <ele>318</ele>
        <time>2016-08-18T17:28:25Z</time>
      </trkpt>
      <trkpt lat="47.17834" lon="3.30253">
        <ele>319</ele>
        <time>2016-08-18T17:28:30Z</time>
      </trkpt>
      <trkpt lat="47.17837" lon="3.30241">
        <ele>320</ele>
        <time>2016-08-18T17:28:31Z</time>
      </trkpt>
      <trkpt lat="47.17849" lon="3.30181">
        <ele>318</ele>
        <time>2016-08-18T17:28:36Z</time>
      </trkpt>
      <trkpt lat="47.17866" lon="3.3011">
        <ele>314</ele>
        <time>2016-08-18T17:28:42Z</time>
      </trkpt>
      <trkpt lat="47.17879" lon="3.3006">
        <ele>312</ele>
        <time>2016-08-18T17:28:46Z</time>
      </trkpt>
      <trkpt lat="47.17903" lon="3.29955">
        <ele>305</ele>
        <time>2016-08-18T17:28:55Z</time>
      </trkpt>
      <trkpt lat="47.17911" lon="3.2992">
        <ele>307</ele>
        <time>2016-08-18T17:28:58Z</time>
      </trkpt>
      <trkpt lat="47.17922" lon="3.29865">
        <ele>308</ele>
        <time>2016-08-18T17:29:03Z</time>
      </trkpt>
      <trkpt lat="47.17931" lon="3.29832">
        <ele>310</ele>
        <time>2016-08-18T17:29:06Z</time>
      </trkpt>
      <trkpt lat="47.17943" lon="3.29776">
        <ele>305</ele>
        <time>2016-08-18T17:29:11Z</time>
      </trkpt>
      <trkpt lat="47.17951" lon="3.29731">
        <ele>305</ele>
        <time>2016-08-18T17:29:16Z</time>
      </trkpt>
      <trkpt lat="47.17953" lon="3.2972">
        <ele>305</ele>
        <time>2016-08-18T17:29:17Z</time>
      </trkpt>
      <trkpt lat="47.17955" lon="3.2971">
        <ele>305</ele>
        <time>2016-08-18T17:29:18Z</time>
      </trkpt>
      <trkpt lat="47.17958" lon="3.29699">
        <ele>305</ele>
        <time>2016-08-18T17:29:19Z</time>
      </trkpt>
      <trkpt lat="47.17959" lon="3.29689">
        <ele>305</ele>
        <time>2016-08-18T17:29:20Z</time>
      </trkpt>
      <trkpt lat="47.17961" lon="3.29678">
        <ele>306</ele>
        <time>2016-08-18T17:29:21Z</time>
      </trkpt>
      <trkpt lat="47.17965" lon="3.29667">
        <ele>307</ele>
        <time>2016-08-18T17:29:22Z</time>
      </trkpt>
      <trkpt lat="47.17967" lon="3.29658">
        <ele>307</ele>
        <time>2016-08-18T17:29:23Z</time>
      </trkpt>
      <trkpt lat="47.17969" lon="3.29648">
        <ele>307</ele>
        <time>2016-08-18T17:29:24Z</time>
      </trkpt>
      <trkpt lat="47.17972" lon="3.29632">
        <ele>308</ele>
        <time>2016-08-18T17:29:25Z</time>
      </trkpt>
      <trkpt lat="47.17973" lon="3.29628">
        <ele>308</ele>
        <time>2016-08-18T17:29:26Z</time>
      </trkpt>
      <trkpt lat="47.17974" lon="3.29619">
        <ele>308</ele>
        <time>2016-08-18T17:29:27Z</time>
      </trkpt>
      <trkpt lat="47.17976" lon="3.29609">
        <ele>308</ele>
        <time>2016-08-18T17:29:28Z</time>
      </trkpt>
      <trkpt lat="47.17979" lon="3.29598">
        <ele>308</ele>
        <time>2016-08-18T17:29:29Z</time>
      </trkpt>
      <trkpt lat="47.17981" lon="3.29589">
        <ele>308</ele>
        <time>2016-08-18T17:29:30Z</time>
      </trkpt>
      <trkpt lat="47.17983" lon="3.29578">
        <ele>308</ele>
        <time>2016-08-18T17:29:31Z</time>
      </trkpt>
      <trkpt lat="47.17985" lon="3.29569">
        <ele>308</ele>
        <time>2016-08-18T17:29:32Z</time>
      </trkpt>
      <trkpt lat="47.17987" lon="3.2956">
        <ele>308</ele>
        <time>2016-08-18T17:29:33Z</time>
      </trkpt>
      <trkpt lat="47.17989" lon="3.29552">
        <ele>309</ele>
        <time>2016-08-18T17:29:34Z</time>
      </trkpt>
      <trkpt lat="47.1799" lon="3.29543">
        <ele>309</ele>
        <time>2016-08-18T17:29:35Z</time>
      </trkpt>
      <trkpt lat="47.17992" lon="3.29536">
        <ele>309</ele>
        <time>2016-08-18T17:29:36Z</time>
      </trkpt>
      <trkpt lat="47.17994" lon="3.29529">
        <ele>309</ele>
        <time>2016-08-18T17:29:37Z</time>
      </trkpt>
      <trkpt lat="47.17996" lon="3.29519">
        <ele>310</ele>
        <time>2016-08-18T17:29:39Z</time>
      </trkpt>
      <trkpt lat="47.17998" lon="3.29512">
        <ele>309</ele>
        <time>2016-08-18T17:29:40Z</time>
      </trkpt>
      <trkpt lat="47.17999" lon="3.29504">
        <ele>309</ele>
        <time>2016-08-18T17:29:41Z</time>
      </trkpt>
      <trkpt lat="47.18" lon="3.29499">
        <ele>309</ele>
        <time>2016-08-18T17:29:41Z</time>
      </trkpt>
      <trkpt lat="47.18001" lon="3.29493">
        <ele>309</ele>
        <time>2016-08-18T17:29:42Z</time>
      </trkpt>
      <trkpt lat="47.18002" lon="3.29487">
        <ele>309</ele>
        <time>2016-08-18T17:29:43Z</time>
      </trkpt>
      <trkpt lat="47.18003" lon="3.2948">
        <ele>309</ele>
        <time>2016-08-18T17:29:44Z</time>
      </trkpt>
      <trkpt lat="47.18005" lon="3.29472">
        <ele>306</ele>
        <time>2016-08-18T17:29:46Z</time>
      </trkpt>
      <trkpt lat="47.18006" lon="3.29468">
        <ele>306</ele>
        <time>2016-08-18T17:29:46Z</time>
      </trkpt>
      <trkpt lat="47.18007" lon="3.29462">
        <ele>306</ele>
        <time>2016-08-18T17:29:47Z</time>
      </trkpt>
      <trkpt lat="47.18009" lon="3.29456">
        <ele>307</ele>
        <time>2016-08-18T17:29:48Z</time>
      </trkpt>
      <trkpt lat="47.1801" lon="3.29449">
        <ele>306</ele>
        <time>2016-08-18T17:29:50Z</time>
      </trkpt>
      <trkpt lat="47.18011" lon="3.29445">
        <ele>306</ele>
        <time>2016-08-18T17:29:50Z</time>
      </trkpt>
      <trkpt lat="47.18012" lon="3.29439">
        <ele>305</ele>
        <time>2016-08-18T17:29:51Z</time>
      </trkpt>
      <trkpt lat="47.18013" lon="3.29433">
        <ele>305</ele>
        <time>2016-08-18T17:29:52Z</time>
      </trkpt>
      <trkpt lat="47.18015" lon="3.29428">
        <ele>305</ele>
        <time>2016-08-18T17:29:53Z</time>
      </trkpt>
      <trkpt lat="47.18017" lon="3.29422">
        <ele>305</ele>
        <time>2016-08-18T17:29:54Z</time>
      </trkpt>
      <trkpt lat="47.18019" lon="3.29416">
        <ele>305</ele>
        <time>2016-08-18T17:29:56Z</time>
      </trkpt>
      <trkpt lat="47.1802" lon="3.2941">
        <ele>305</ele>
        <time>2016-08-18T17:29:57Z</time>
      </trkpt>
      <trkpt lat="47.18021" lon="3.29405">
        <ele>305</ele>
        <time>2016-08-18T17:29:58Z</time>
      </trkpt>
      <trkpt lat="47.18023" lon="3.29399">
        <ele>305</ele>
        <time>2016-08-18T17:29:59Z</time>
      </trkpt>
      <trkpt lat="47.18025" lon="3.29394">
        <ele>305</ele>
        <time>2016-08-18T17:30:00Z</time>
      </trkpt>
      <trkpt lat="47.18026" lon="3.29388">
        <ele>306</ele>
        <time>2016-08-18T17:30:01Z</time>
      </trkpt>
      <trkpt lat="47.18027" lon="3.29383">
        <ele>305</ele>
        <time>2016-08-18T17:30:02Z</time>
      </trkpt>
      <trkpt lat="47.1803" lon="3.29371">
        <ele>306</ele>
        <time>2016-08-18T17:30:03Z</time>
      </trkpt>
      <trkpt lat="47.18031" lon="3.29369">
        <ele>306</ele>
        <time>2016-08-18T17:30:04Z</time>
      </trkpt>
      <trkpt lat="47.18032" lon="3.29363">
        <ele>305</ele>
        <time>2016-08-18T17:30:05Z</time>
      </trkpt>
      <trkpt lat="47.18033" lon="3.29357">
        <ele>305</ele>
        <time>2016-08-18T17:30:06Z</time>
      </trkpt>
      <trkpt lat="47.18035" lon="3.29351">
        <ele>305</ele>
        <time>2016-08-18T17:30:07Z</time>
      </trkpt>
      <trkpt lat="47.18036" lon="3.29345">
        <ele>305</ele>
        <time>2016-08-18T17:30:08Z</time>
      </trkpt>
      <trkpt lat="47.18038" lon="3.29341">
        <ele>305</ele>
        <time>2016-08-18T17:30:09Z</time>
      </trkpt>
      <trkpt lat="47.18039" lon="3.29335">
        <ele>304</ele>
        <time>2016-08-18T17:30:10Z</time>
      </trkpt>
      <trkpt lat="47.1804" lon="3.2933">
        <ele>304</ele>
        <time>2016-08-18T17:30:11Z</time>
      </trkpt>
      <trkpt lat="47.18043" lon="3.29321">
        <ele>304</ele>
        <time>2016-08-18T17:30:12Z</time>
      </trkpt>
      <trkpt lat="47.18043" lon="3.29319">
        <ele>304</ele>
        <time>2016-08-18T17:30:13Z</time>
      </trkpt>
      <trkpt lat="47.18045" lon="3.29314">
        <ele>304</ele>
        <time>2016-08-18T17:30:14Z</time>
      </trkpt>
      <trkpt lat="47.18046" lon="3.29309">
        <ele>304</ele>
        <time>2016-08-18T17:30:15Z</time>
      </trkpt>
      <trkpt lat="47.18047" lon="3.29305">
        <ele>304</ele>
        <time>2016-08-18T17:30:16Z</time>
      </trkpt>
      <trkpt lat="47.18049" lon="3.29296">
        <ele>305</ele>
        <time>2016-08-18T17:30:18Z</time>
      </trkpt>
      <trkpt lat="47.18049" lon="3.29293">
        <ele>305</ele>
        <time>2016-08-18T17:30:18Z</time>
      </trkpt>
      <trkpt lat="47.1805" lon="3.29288">
        <ele>305</ele>
        <time>2016-08-18T17:30:19Z</time>
      </trkpt>
      <trkpt lat="47.18051" lon="3.29283">
        <ele>305</ele>
        <time>2016-08-18T17:30:20Z</time>
      </trkpt>
      <trkpt lat="47.18052" lon="3.29278">
        <ele>306</ele>
        <time>2016-08-18T17:30:21Z</time>
      </trkpt>
      <trkpt lat="47.18053" lon="3.29272">
        <ele>307</ele>
        <time>2016-08-18T17:30:22Z</time>
      </trkpt>
      <trkpt lat="47.18054" lon="3.29268">
        <ele>307</ele>
        <time>2016-08-18T17:30:23Z</time>
      </trkpt>
      <trkpt lat="47.18055" lon="3.29263">
        <ele>307</ele>
        <time>2016-08-18T17:30:24Z</time>
      </trkpt>
      <trkpt lat="47.18057" lon="3.29257">
        <ele>307</ele>
        <time>2016-08-18T17:30:25Z</time>
      </trkpt>
      <trkpt lat="47.18058" lon="3.2925">
        <ele>308</ele>
        <time>2016-08-18T17:30:27Z</time>
      </trkpt>
      <trkpt lat="47.1806" lon="3.29244">
        <ele>307</ele>
        <time>2016-08-18T17:30:28Z</time>
      </trkpt>
      <trkpt lat="47.18061" lon="3.29239">
        <ele>308</ele>
        <time>2016-08-18T17:30:29Z</time>
      </trkpt>
      <trkpt lat="47.18062" lon="3.29235">
        <ele>308</ele>
        <time>2016-08-18T17:30:29Z</time>
      </trkpt>
      <trkpt lat="47.18063" lon="3.2923">
        <ele>308</ele>
        <time>2016-08-18T17:30:30Z</time>
      </trkpt>
      <trkpt lat="47.18065" lon="3.29225">
        <ele>308</ele>
        <time>2016-08-18T17:30:31Z</time>
      </trkpt>
      <trkpt lat="47.18065" lon="3.2922">
        <ele>309</ele>
        <time>2016-08-18T17:30:32Z</time>
      </trkpt>
      <trkpt lat="47.18066" lon="3.29215">
        <ele>309</ele>
        <time>2016-08-18T17:30:33Z</time>
      </trkpt>
      <trkpt lat="47.18067" lon="3.29209">
        <ele>310</ele>
        <time>2016-08-18T17:30:34Z</time>
      </trkpt>
      <trkpt lat="47.18068" lon="3.29205">
        <ele>311</ele>
        <time>2016-08-18T17:30:36Z</time>
      </trkpt>
      <trkpt lat="47.18069" lon="3.292">
        <ele>311</ele>
        <time>2016-08-18T17:30:37Z</time>
      </trkpt>
      <trkpt lat="47.18069" lon="3.29194">
        <ele>313</ele>
        <time>2016-08-18T17:30:38Z</time>
      </trkpt>
      <trkpt lat="47.1807" lon="3.29189">
        <ele>314</ele>
        <time>2016-08-18T17:30:39Z</time>
      </trkpt>
      <trkpt lat="47.18071" lon="3.29184">
        <ele>314</ele>
        <time>2016-08-18T17:30:40Z</time>
      </trkpt>
      <trkpt lat="47.18073" lon="3.29179">
        <ele>314</ele>
        <time>2016-08-18T17:30:41Z</time>
      </trkpt>
      <trkpt lat="47.18074" lon="3.29174">
        <ele>314</ele>
        <time>2016-08-18T17:30:42Z</time>
      </trkpt>
      <trkpt lat="47.18075" lon="3.29169">
        <ele>314</ele>
        <time>2016-08-18T17:30:43Z</time>
      </trkpt>
      <trkpt lat="47.18075" lon="3.29163">
        <ele>315</ele>
        <time>2016-08-18T17:30:44Z</time>
      </trkpt>
      <trkpt lat="47.18076" lon="3.29159">
        <ele>315</ele>
        <time>2016-08-18T17:30:45Z</time>
      </trkpt>
      <trkpt lat="47.18078" lon="3.29149">
        <ele>316</ele>
        <time>2016-08-18T17:30:46Z</time>
      </trkpt>
      <trkpt lat="47.18079" lon="3.29148">
        <ele>316</ele>
        <time>2016-08-18T17:30:47Z</time>
      </trkpt>
      <trkpt lat="47.1808" lon="3.29143">
        <ele>316</ele>
        <time>2016-08-18T17:30:48Z</time>
      </trkpt>
      <trkpt lat="47.1808" lon="3.29138">
        <ele>317</ele>
        <time>2016-08-18T17:30:49Z</time>
      </trkpt>
      <trkpt lat="47.18082" lon="3.29134">
        <ele>317</ele>
        <time>2016-08-18T17:30:50Z</time>
      </trkpt>
      <trkpt lat="47.18083" lon="3.29129">
        <ele>318</ele>
        <time>2016-08-18T17:30:51Z</time>
      </trkpt>
      <trkpt lat="47.18085" lon="3.29121">
        <ele>318</ele>
        <time>2016-08-18T17:30:52Z</time>
      </trkpt>
      <trkpt lat="47.18086" lon="3.29119">
        <ele>318</ele>
        <time>2016-08-18T17:30:53Z</time>
      </trkpt>
      <trkpt lat="47.18087" lon="3.29114">
        <ele>319</ele>
        <time>2016-08-18T17:30:54Z</time>
      </trkpt>
      <trkpt lat="47.18088" lon="3.29109">
        <ele>320</ele>
        <time>2016-08-18T17:30:55Z</time>
      </trkpt>
      <trkpt lat="47.18089" lon="3.29103">
        <ele>321</ele>
        <time>2016-08-18T17:30:56Z</time>
      </trkpt>
      <trkpt lat="47.18091" lon="3.29098">
        <ele>321</ele>
        <time>2016-08-18T17:30:57Z</time>
      </trkpt>
      <trkpt lat="47.18092" lon="3.29093">
        <ele>321</ele>
        <time>2016-08-18T17:30:58Z</time>
      </trkpt>
      <trkpt lat="47.18093" lon="3.29088">
        <ele>322</ele>
        <time>2016-08-18T17:30:59Z</time>
      </trkpt>
      <trkpt lat="47.18095" lon="3.29083">
        <ele>322</ele>
        <time>2016-08-18T17:31:00Z</time>
      </trkpt>
      <trkpt lat="47.18096" lon="3.29076">
        <ele>322</ele>
        <time>2016-08-18T17:31:01Z</time>
      </trkpt>
      <trkpt lat="47.18097" lon="3.29073">
        <ele>322</ele>
        <time>2016-08-18T17:31:02Z</time>
      </trkpt>
      <trkpt lat="47.18098" lon="3.29068">
        <ele>322</ele>
        <time>2016-08-18T17:31:03Z</time>
      </trkpt>
      <trkpt lat="47.18099" lon="3.29063">
        <ele>322</ele>
        <time>2016-08-18T17:31:04Z</time>
      </trkpt>
      <trkpt lat="47.18102" lon="3.29054">
        <ele>320</ele>
        <time>2016-08-18T17:31:06Z</time>
      </trkpt>
      <trkpt lat="47.18102" lon="3.29051">
        <ele>320</ele>
        <time>2016-08-18T17:31:06Z</time>
      </trkpt>
      <trkpt lat="47.18104" lon="3.29045">
        <ele>320</ele>
        <time>2016-08-18T17:31:07Z</time>
      </trkpt>
      <trkpt lat="47.18105" lon="3.29039">
        <ele>318</ele>
        <time>2016-08-18T17:31:08Z</time>
      </trkpt>
      <trkpt lat="47.18106" lon="3.29033">
        <ele>319</ele>
        <time>2016-08-18T17:31:09Z</time>
      </trkpt>
      <trkpt lat="47.18106" lon="3.29028">
        <ele>319</ele>
        <time>2016-08-18T17:31:10Z</time>
      </trkpt>
      <trkpt lat="47.18108" lon="3.29022">
        <ele>319</ele>
        <time>2016-08-18T17:31:11Z</time>
      </trkpt>
      <trkpt lat="47.18109" lon="3.29016">
        <ele>319</ele>
        <time>2016-08-18T17:31:12Z</time>
      </trkpt>
      <trkpt lat="47.1811" lon="3.2901">
        <ele>319</ele>
        <time>2016-08-18T17:31:13Z</time>
      </trkpt>
      <trkpt lat="47.18111" lon="3.29003">
        <ele>319</ele>
        <time>2016-08-18T17:31:14Z</time>
      </trkpt>
      <trkpt lat="47.1811" lon="3.28997">
        <ele>319</ele>
        <time>2016-08-18T17:31:15Z</time>
      </trkpt>
      <trkpt lat="47.1811" lon="3.28988">
        <ele>318</ele>
        <time>2016-08-18T17:31:17Z</time>
      </trkpt>
      <trkpt lat="47.18111" lon="3.28982">
        <ele>317</ele>
        <time>2016-08-18T17:31:17Z</time>
      </trkpt>
      <trkpt lat="47.18113" lon="3.28974">
        <ele>317</ele>
        <time>2016-08-18T17:31:18Z</time>
      </trkpt>
      <trkpt lat="47.18114" lon="3.28968">
        <ele>317</ele>
        <time>2016-08-18T17:31:19Z</time>
      </trkpt>
      <trkpt lat="47.18115" lon="3.2896">
        <ele>317</ele>
        <time>2016-08-18T17:31:20Z</time>
      </trkpt>
      <trkpt lat="47.18115" lon="3.28953">
        <ele>317</ele>
        <time>2016-08-18T17:31:22Z</time>
      </trkpt>
      <trkpt lat="47.18117" lon="3.28945">
        <ele>316</ele>
        <time>2016-08-18T17:31:23Z</time>
      </trkpt>
      <trkpt lat="47.18119" lon="3.28926">
        <ele>315</ele>
        <time>2016-08-18T17:31:24Z</time>
      </trkpt>
      <trkpt lat="47.1812" lon="3.28925">
        <ele>315</ele>
        <time>2016-08-18T17:31:25Z</time>
      </trkpt>
      <trkpt lat="47.18122" lon="3.28916">
        <ele>315</ele>
        <time>2016-08-18T17:31:26Z</time>
      </trkpt>
      <trkpt lat="47.18124" lon="3.28907">
        <ele>315</ele>
        <time>2016-08-18T17:31:27Z</time>
      </trkpt>
      <trkpt lat="47.18126" lon="3.28896">
        <ele>315</ele>
        <time>2016-08-18T17:31:28Z</time>
      </trkpt>
      <trkpt lat="47.18129" lon="3.28885">
        <ele>314</ele>
        <time>2016-08-18T17:31:29Z</time>
      </trkpt>
      <trkpt lat="47.18131" lon="3.28873">
        <ele>314</ele>
        <time>2016-08-18T17:31:30Z</time>
      </trkpt>
      <trkpt lat="47.18134" lon="3.2886">
        <ele>313</ele>
        <time>2016-08-18T17:31:31Z</time>
      </trkpt>
      <trkpt lat="47.18136" lon="3.28848">
        <ele>314</ele>
        <time>2016-08-18T17:31:32Z</time>
      </trkpt>
      <trkpt lat="47.18138" lon="3.28835">
        <ele>314</ele>
        <time>2016-08-18T17:31:33Z</time>
      </trkpt>
      <trkpt lat="47.18141" lon="3.28822">
        <ele>314</ele>
        <time>2016-08-18T17:31:34Z</time>
      </trkpt>
      <trkpt lat="47.18144" lon="3.28808">
        <ele>314</ele>
        <time>2016-08-18T17:31:35Z</time>
      </trkpt>
      <trkpt lat="47.18147" lon="3.28794">
        <ele>314</ele>
        <time>2016-08-18T17:31:36Z</time>
      </trkpt>
      <trkpt lat="47.18149" lon="3.2878">
        <ele>313</ele>
        <time>2016-08-18T17:31:37Z</time>
      </trkpt>
      <trkpt lat="47.18158" lon="3.28756">
        <ele>310</ele>
        <time>2016-08-18T17:31:39Z</time>
      </trkpt>
      <trkpt lat="47.18159" lon="3.2875">
        <ele>310</ele>
        <time>2016-08-18T17:31:39Z</time>
      </trkpt>
      <trkpt lat="47.18163" lon="3.28736">
        <ele>310</ele>
        <time>2016-08-18T17:31:40Z</time>
      </trkpt>
      <trkpt lat="47.18166" lon="3.2872">
        <ele>309</ele>
        <time>2016-08-18T17:31:41Z</time>
      </trkpt>
      <trkpt lat="47.18169" lon="3.28706">
        <ele>309</ele>
        <time>2016-08-18T17:31:42Z</time>
      </trkpt>
      <trkpt lat="47.18172" lon="3.28691">
        <ele>309</ele>
        <time>2016-08-18T17:31:43Z</time>
      </trkpt>
      <trkpt lat="47.18174" lon="3.28676">
        <ele>310</ele>
        <time>2016-08-18T17:31:44Z</time>
      </trkpt>
      <trkpt lat="47.18178" lon="3.2866">
        <ele>309</ele>
        <time>2016-08-18T17:31:45Z</time>
      </trkpt>
      <trkpt lat="47.18182" lon="3.28648">
        <ele>310</ele>
        <time>2016-08-18T17:31:46Z</time>
      </trkpt>
      <trkpt lat="47.18186" lon="3.28631">
        <ele>309</ele>
        <time>2016-08-18T17:31:47Z</time>
      </trkpt>
      <trkpt lat="47.18187" lon="3.28622">
        <ele>309</ele>
        <time>2016-08-18T17:31:48Z</time>
      </trkpt>
      <trkpt lat="47.18192" lon="3.28605">
        <ele>309</ele>
        <time>2016-08-18T17:31:49Z</time>
      </trkpt>
      <trkpt lat="47.18201" lon="3.28575">
        <ele>306</ele>
        <time>2016-08-18T17:31:50Z</time>
      </trkpt>
      <trkpt lat="47.18205" lon="3.28556">
        <ele>305</ele>
        <time>2016-08-18T17:31:51Z</time>
      </trkpt>
      <trkpt lat="47.18208" lon="3.28546">
        <ele>305</ele>
        <time>2016-08-18T17:31:52Z</time>
      </trkpt>
      <trkpt lat="47.18212" lon="3.28527">
        <ele>304</ele>
        <time>2016-08-18T17:31:53Z</time>
      </trkpt>
      <trkpt lat="47.18216" lon="3.28508">
        <ele>303</ele>
        <time>2016-08-18T17:31:54Z</time>
      </trkpt>
      <trkpt lat="47.1822" lon="3.28488">
        <ele>302</ele>
        <time>2016-08-18T17:31:55Z</time>
      </trkpt>
      <trkpt lat="47.18224" lon="3.28468">
        <ele>301</ele>
        <time>2016-08-18T17:31:56Z</time>
      </trkpt>
      <trkpt lat="47.18228" lon="3.2845">
        <ele>300</ele>
        <time>2016-08-18T17:31:57Z</time>
      </trkpt>
      <trkpt lat="47.18233" lon="3.28429">
        <ele>299</ele>
        <time>2016-08-18T17:31:58Z</time>
      </trkpt>
      <trkpt lat="47.18238" lon="3.28409">
        <ele>299</ele>
        <time>2016-08-18T17:31:59Z</time>
      </trkpt>
      <trkpt lat="47.18243" lon="3.28391">
        <ele>298</ele>
        <time>2016-08-18T17:32:00Z</time>
      </trkpt>
      <trkpt lat="47.18247" lon="3.28372">
        <ele>297</ele>
        <time>2016-08-18T17:32:01Z</time>
      </trkpt>
      <trkpt lat="47.18252" lon="3.28351">
        <ele>296</ele>
        <time>2016-08-18T17:32:02Z</time>
      </trkpt>
      <trkpt lat="47.18257" lon="3.28332">
        <ele>294</ele>
        <time>2016-08-18T17:32:03Z</time>
      </trkpt>
      <trkpt lat="47.18263" lon="3.28315">
        <ele>290</ele>
        <time>2016-08-18T17:32:04Z</time>
      </trkpt>
      <trkpt lat="47.18267" lon="3.28294">
        <ele>289</ele>
        <time>2016-08-18T17:32:05Z</time>
      </trkpt>
      <trkpt lat="47.18272" lon="3.28274">
        <ele>287</ele>
        <time>2016-08-18T17:32:06Z</time>
      </trkpt>
      <trkpt lat="47.18276" lon="3.28254">
        <ele>286</ele>
        <time>2016-08-18T17:32:07Z</time>
      </trkpt>
      <trkpt lat="47.18281" lon="3.28235">
        <ele>286</ele>
        <time>2016-08-18T17:32:08Z</time>
      </trkpt>
      <trkpt lat="47.18285" lon="3.28213">
        <ele>284</ele>
        <time>2016-08-18T17:32:09Z</time>
      </trkpt>
      <trkpt lat="47.18289" lon="3.28193">
        <ele>284</ele>
        <time>2016-08-18T17:32:10Z</time>
      </trkpt>
      <trkpt lat="47.18293" lon="3.28174">
        <ele>283</ele>
        <time>2016-08-18T17:32:11Z</time>
      </trkpt>
      <trkpt lat="47.18296" lon="3.28154">
        <ele>282</ele>
        <time>2016-08-18T17:32:12Z</time>
      </trkpt>
      <trkpt lat="47.183" lon="3.28136">
        <ele>281</ele>
        <time>2016-08-18T17:32:14Z</time>
      </trkpt>
      <trkpt lat="47.18303" lon="3.28119">
        <ele>281</ele>
        <time>2016-08-18T17:32:15Z</time>
      </trkpt>
      <trkpt lat="47.18306" lon="3.28102">
        <ele>281</ele>
        <time>2016-08-18T17:32:16Z</time>
      </trkpt>
      <trkpt lat="47.18309" lon="3.28088">
        <ele>281</ele>
        <time>2016-08-18T17:32:17Z</time>
      </trkpt>
      <trkpt lat="47.18312" lon="3.28076">
        <ele>282</ele>
        <time>2016-08-18T17:32:18Z</time>
      </trkpt>
      <trkpt lat="47.18315" lon="3.28063">
        <ele>282</ele>
        <time>2016-08-18T17:32:19Z</time>
      </trkpt>
      <trkpt lat="47.18317" lon="3.28052">
        <ele>283</ele>
        <time>2016-08-18T17:32:20Z</time>
      </trkpt>
      <trkpt lat="47.1832" lon="3.28041">
        <ele>283</ele>
        <time>2016-08-18T17:32:21Z</time>
      </trkpt>
      <trkpt lat="47.18323" lon="3.28032">
        <ele>284</ele>
        <time>2016-08-18T17:32:22Z</time>
      </trkpt>
      <trkpt lat="47.18324" lon="3.28022">
        <ele>284</ele>
        <time>2016-08-18T17:32:23Z</time>
      </trkpt>
      <trkpt lat="47.18326" lon="3.28012">
        <ele>285</ele>
        <time>2016-08-18T17:32:24Z</time>
      </trkpt>
      <trkpt lat="47.18329" lon="3.28005">
        <ele>287</ele>
        <time>2016-08-18T17:32:25Z</time>
      </trkpt>
      <trkpt lat="47.18331" lon="3.27997">
        <ele>288</ele>
        <time>2016-08-18T17:32:26Z</time>
      </trkpt>
      <trkpt lat="47.18333" lon="3.27989">
        <ele>288</ele>
        <time>2016-08-18T17:32:27Z</time>
      </trkpt>
      <trkpt lat="47.18335" lon="3.2798">
        <ele>289</ele>
        <time>2016-08-18T17:32:28Z</time>
      </trkpt>
      <trkpt lat="47.18338" lon="3.27967">
        <ele>289</ele>
        <time>2016-08-18T17:32:30Z</time>
      </trkpt>
      <trkpt lat="47.18339" lon="3.27964">
        <ele>289</ele>
        <time>2016-08-18T17:32:30Z</time>
      </trkpt>
      <trkpt lat="47.18341" lon="3.27956">
        <ele>289</ele>
        <time>2016-08-18T17:32:31Z</time>
      </trkpt>
      <trkpt lat="47.18343" lon="3.27945">
        <ele>290</ele>
        <time>2016-08-18T17:32:32Z</time>
      </trkpt>
      <trkpt lat="47.18344" lon="3.27938">
        <ele>290</ele>
        <time>2016-08-18T17:32:33Z</time>
      </trkpt>
      <trkpt lat="47.18345" lon="3.27931">
        <ele>290</ele>
        <time>2016-08-18T17:32:34Z</time>
      </trkpt>
      <trkpt lat="47.18347" lon="3.27924">
        <ele>290</ele>
        <time>2016-08-18T17:32:35Z</time>
      </trkpt>
      <trkpt lat="47.18348" lon="3.27916">
        <ele>290</ele>
        <time>2016-08-18T17:32:36Z</time>
      </trkpt>
      <trkpt lat="47.18349" lon="3.27912">
        <ele>290</ele>
        <time>2016-08-18T17:32:37Z</time>
      </trkpt>
      <trkpt lat="47.1835" lon="3.27901">
        <ele>291</ele>
        <time>2016-08-18T17:32:39Z</time>
      </trkpt>
      <trkpt lat="47.18351" lon="3.27898">
        <ele>291</ele>
        <time>2016-08-18T17:32:39Z</time>
      </trkpt>
      <trkpt lat="47.18352" lon="3.27892">
        <ele>291</ele>
        <time>2016-08-18T17:32:40Z</time>
      </trkpt>
      <trkpt lat="47.18353" lon="3.27884">
        <ele>291</ele>
        <time>2016-08-18T17:32:41Z</time>
      </trkpt>
      <trkpt lat="47.18354" lon="3.27879">
        <ele>291</ele>
        <time>2016-08-18T17:32:42Z</time>
      </trkpt>
      <trkpt lat="47.18356" lon="3.27873">
        <ele>292</ele>
        <time>2016-08-18T17:32:43Z</time>
      </trkpt>
      <trkpt lat="47.18357" lon="3.27863">
        <ele>292</ele>
        <time>2016-08-18T17:32:44Z</time>
      </trkpt>
      <trkpt lat="47.18358" lon="3.27858">
        <ele>293</ele>
        <time>2016-08-18T17:32:45Z</time>
      </trkpt>
      <trkpt lat="47.18359" lon="3.27852">
        <ele>293</ele>
        <time>2016-08-18T17:32:46Z</time>
      </trkpt>
      <trkpt lat="47.1836" lon="3.27846">
        <ele>293</ele>
        <time>2016-08-18T17:32:47Z</time>
      </trkpt>
      <trkpt lat="47.18361" lon="3.2784">
        <ele>294</ele>
        <time>2016-08-18T17:32:48Z</time>
      </trkpt>
      <trkpt lat="47.18362" lon="3.27834">
        <ele>294</ele>
        <time>2016-08-18T17:32:49Z</time>
      </trkpt>
      <trkpt lat="47.18363" lon="3.27828">
        <ele>295</ele>
        <time>2016-08-18T17:32:50Z</time>
      </trkpt>
      <trkpt lat="47.18364" lon="3.27822">
        <ele>295</ele>
        <time>2016-08-18T17:32:51Z</time>
      </trkpt>
      <trkpt lat="47.18365" lon="3.27817">
        <ele>295</ele>
        <time>2016-08-18T17:32:52Z</time>
      </trkpt>
      <trkpt lat="47.18366" lon="3.27811">
        <ele>295</ele>
        <time>2016-08-18T17:32:53Z</time>
      </trkpt>
      <trkpt lat="47.18368" lon="3.27805">
        <ele>295</ele>
        <time>2016-08-18T17:32:54Z</time>
      </trkpt>
      <trkpt lat="47.1837" lon="3.27799">
        <ele>296</ele>
        <time>2016-08-18T17:32:55Z</time>
      </trkpt>
      <trkpt lat="47.18371" lon="3.27794">
        <ele>296</ele>
        <time>2016-08-18T17:32:56Z</time>
      </trkpt>
      <trkpt lat="47.18373" lon="3.27788">
        <ele>296</ele>
        <time>2016-08-18T17:32:58Z</time>
      </trkpt>
      <trkpt lat="47.18375" lon="3.27783">
        <ele>295</ele>
        <time>2016-08-18T17:32:59Z</time>
      </trkpt>
      <trkpt lat="47.18377" lon="3.27777">
        <ele>295</ele>
        <time>2016-08-18T17:33:00Z</time>
      </trkpt>
      <trkpt lat="47.18378" lon="3.27772">
        <ele>295</ele>
        <time>2016-08-18T17:33:01Z</time>
      </trkpt>
      <trkpt lat="47.18379" lon="3.27767">
        <ele>295</ele>
        <time>2016-08-18T17:33:02Z</time>
      </trkpt>
      <trkpt lat="47.1838" lon="3.27761">
        <ele>294</ele>
        <time>2016-08-18T17:33:03Z</time>
      </trkpt>
      <trkpt lat="47.18382" lon="3.27755">
        <ele>293</ele>
        <time>2016-08-18T17:33:04Z</time>
      </trkpt>
      <trkpt lat="47.18385" lon="3.27745">
        <ele>294</ele>
        <time>2016-08-18T17:33:05Z</time>
      </trkpt>
      <trkpt lat="47.18386" lon="3.27744">
        <ele>294</ele>
        <time>2016-08-18T17:33:06Z</time>
      </trkpt>
      <trkpt lat="47.18387" lon="3.27738">
        <ele>294</ele>
        <time>2016-08-18T17:33:07Z</time>
      </trkpt>
      <trkpt lat="47.18388" lon="3.27733">
        <ele>294</ele>
        <time>2016-08-18T17:33:08Z</time>
      </trkpt>
      <trkpt lat="47.18389" lon="3.27729">
        <ele>295</ele>
        <time>2016-08-18T17:33:09Z</time>
      </trkpt>
      <trkpt lat="47.1839" lon="3.27724">
        <ele>295</ele>
        <time>2016-08-18T17:33:10Z</time>
      </trkpt>
      <trkpt lat="47.18391" lon="3.27718">
        <ele>295</ele>
        <time>2016-08-18T17:33:11Z</time>
      </trkpt>
      <trkpt lat="47.18393" lon="3.27713">
        <ele>296</ele>
        <time>2016-08-18T17:33:12Z</time>
      </trkpt>
      <trkpt lat="47.18394" lon="3.27708">
        <ele>296</ele>
        <time>2016-08-18T17:33:13Z</time>
      </trkpt>
      <trkpt lat="47.18394" lon="3.27703">
        <ele>297</ele>
        <time>2016-08-18T17:33:14Z</time>
      </trkpt>
      <trkpt lat="47.18396" lon="3.27697">
        <ele>298</ele>
        <time>2016-08-18T17:33:15Z</time>
      </trkpt>
      <trkpt lat="47.18396" lon="3.27692">
        <ele>298</ele>
        <time>2016-08-18T17:33:16Z</time>
      </trkpt>
      <trkpt lat="47.18398" lon="3.27684">
        <ele>299</ele>
        <time>2016-08-18T17:33:18Z</time>
      </trkpt>
      <trkpt lat="47.18398" lon="3.27682">
        <ele>299</ele>
        <time>2016-08-18T17:33:18Z</time>
      </trkpt>
      <trkpt lat="47.18399" lon="3.27676">
        <ele>300</ele>
        <time>2016-08-18T17:33:19Z</time>
      </trkpt>
      <trkpt lat="47.184" lon="3.27672">
        <ele>300</ele>
        <time>2016-08-18T17:33:20Z</time>
      </trkpt>
      <trkpt lat="47.18401" lon="3.27668">
        <ele>300</ele>
        <time>2016-08-18T17:33:21Z</time>
      </trkpt>
      <trkpt lat="47.18402" lon="3.27663">
        <ele>300</ele>
        <time>2016-08-18T17:33:22Z</time>
      </trkpt>
      <trkpt lat="47.18404" lon="3.27653">
        <ele>300</ele>
        <time>2016-08-18T17:33:23Z</time>
      </trkpt>
      <trkpt lat="47.18404" lon="3.2765">
        <ele>300</ele>
        <time>2016-08-18T17:33:24Z</time>
      </trkpt>
      <trkpt lat="47.18406" lon="3.27644">
        <ele>301</ele>
        <time>2016-08-18T17:33:25Z</time>
      </trkpt>
      <trkpt lat="47.18408" lon="3.27638">
        <ele>301</ele>
        <time>2016-08-18T17:33:26Z</time>
      </trkpt>
      <trkpt lat="47.18409" lon="3.27631">
        <ele>301</ele>
        <time>2016-08-18T17:33:27Z</time>
      </trkpt>
      <trkpt lat="47.18411" lon="3.27625">
        <ele>301</ele>
        <time>2016-08-18T17:33:28Z</time>
      </trkpt>
      <trkpt lat="47.18412" lon="3.2762">
        <ele>301</ele>
        <time>2016-08-18T17:33:29Z</time>
      </trkpt>
      <trkpt lat="47.18414" lon="3.27614">
        <ele>301</ele>
        <time>2016-08-18T17:33:30Z</time>
      </trkpt>
      <trkpt lat="47.18415" lon="3.27608">
        <ele>301</ele>
        <time>2016-08-18T17:33:31Z</time>
      </trkpt>
      <trkpt lat="47.18416" lon="3.27603">
        <ele>302</ele>
        <time>2016-08-18T17:33:32Z</time>
      </trkpt>
      <trkpt lat="47.18417" lon="3.27597">
        <ele>302</ele>
        <time>2016-08-18T17:33:33Z</time>
      </trkpt>
      <trkpt lat="47.18419" lon="3.27589">
        <ele>303</ele>
        <time>2016-08-18T17:33:34Z</time>
      </trkpt>
      <trkpt lat="47.1842" lon="3.27584">
        <ele>303</ele>
        <time>2016-08-18T17:33:35Z</time>
      </trkpt>
      <trkpt lat="47.18421" lon="3.27578">
        <ele>303</ele>
        <time>2016-08-18T17:33:36Z</time>
      </trkpt>
      <trkpt lat="47.18422" lon="3.27573">
        <ele>304</ele>
        <time>2016-08-18T17:33:37Z</time>
      </trkpt>
      <trkpt lat="47.18423" lon="3.27567">
        <ele>304</ele>
        <time>2016-08-18T17:33:38Z</time>
      </trkpt>
      <trkpt lat="47.18424" lon="3.2756">
        <ele>305</ele>
        <time>2016-08-18T17:33:39Z</time>
      </trkpt>
      <trkpt lat="47.18425" lon="3.27555">
        <ele>306</ele>
        <time>2016-08-18T17:33:40Z</time>
      </trkpt>
      <trkpt lat="47.18426" lon="3.27546">
        <ele>306</ele>
        <time>2016-08-18T17:33:42Z</time>
      </trkpt>
      <trkpt lat="47.18428" lon="3.27541">
        <ele>306</ele>
        <time>2016-08-18T17:33:42Z</time>
      </trkpt>
      <trkpt lat="47.18428" lon="3.27533">
        <ele>306</ele>
        <time>2016-08-18T17:33:43Z</time>
      </trkpt>
      <trkpt lat="47.1843" lon="3.27526">
        <ele>305</ele>
        <time>2016-08-18T17:33:44Z</time>
      </trkpt>
      <trkpt lat="47.18431" lon="3.2752">
        <ele>306</ele>
        <time>2016-08-18T17:33:45Z</time>
      </trkpt>
      <trkpt lat="47.18432" lon="3.27514">
        <ele>306</ele>
        <time>2016-08-18T17:33:46Z</time>
      </trkpt>
      <trkpt lat="47.18433" lon="3.27506">
        <ele>305</ele>
        <time>2016-08-18T17:33:47Z</time>
      </trkpt>
      <trkpt lat="47.18435" lon="3.27498">
        <ele>304</ele>
        <time>2016-08-18T17:33:48Z</time>
      </trkpt>
      <trkpt lat="47.18436" lon="3.27489">
        <ele>304</ele>
        <time>2016-08-18T17:33:50Z</time>
      </trkpt>
      <trkpt lat="47.18438" lon="3.27481">
        <ele>304</ele>
        <time>2016-08-18T17:33:51Z</time>
      </trkpt>
      <trkpt lat="47.1844" lon="3.27472">
        <ele>303</ele>
        <time>2016-08-18T17:33:52Z</time>
      </trkpt>
      <trkpt lat="47.18443" lon="3.27463">
        <ele>302</ele>
        <time>2016-08-18T17:33:53Z</time>
      </trkpt>
      <trkpt lat="47.18445" lon="3.27455">
        <ele>302</ele>
        <time>2016-08-18T17:33:54Z</time>
      </trkpt>
      <trkpt lat="47.18447" lon="3.27446">
        <ele>302</ele>
        <time>2016-08-18T17:33:55Z</time>
      </trkpt>
      <trkpt lat="47.18448" lon="3.27437">
        <ele>302</ele>
        <time>2016-08-18T17:33:56Z</time>
      </trkpt>
      <trkpt lat="47.18451" lon="3.27428">
        <ele>302</ele>
        <time>2016-08-18T17:33:57Z</time>
      </trkpt>
      <trkpt lat="47.18453" lon="3.27418">
        <ele>301</ele>
        <time>2016-08-18T17:33:58Z</time>
      </trkpt>
      <trkpt lat="47.18455" lon="3.27407">
        <ele>301</ele>
        <time>2016-08-18T17:33:59Z</time>
      </trkpt>
      <trkpt lat="47.18457" lon="3.27397">
        <ele>300</ele>
        <time>2016-08-18T17:34:00Z</time>
      </trkpt>
      <trkpt lat="47.18459" lon="3.27386">
        <ele>300</ele>
        <time>2016-08-18T17:34:01Z</time>
      </trkpt>
      <trkpt lat="47.18462" lon="3.27375">
        <ele>300</ele>
        <time>2016-08-18T17:34:02Z</time>
      </trkpt>
      <trkpt lat="47.18464" lon="3.27363">
        <ele>300</ele>
        <time>2016-08-18T17:34:03Z</time>
      </trkpt>
      <trkpt lat="47.18467" lon="3.27352">
        <ele>299</ele>
        <time>2016-08-18T17:34:04Z</time>
      </trkpt>
      <trkpt lat="47.18469" lon="3.27341">
        <ele>299</ele>
        <time>2016-08-18T17:34:05Z</time>
      </trkpt>
      <trkpt lat="47.18474" lon="3.27321">
        <ele>296</ele>
        <time>2016-08-18T17:34:06Z</time>
      </trkpt>
      <trkpt lat="47.18475" lon="3.27316">
        <ele>296</ele>
        <time>2016-08-18T17:34:07Z</time>
      </trkpt>
      <trkpt lat="47.18477" lon="3.27304">
        <ele>295</ele>
        <time>2016-08-18T17:34:08Z</time>
      </trkpt>
      <trkpt lat="47.1848" lon="3.27291">
        <ele>295</ele>
        <time>2016-08-18T17:34:09Z</time>
      </trkpt>
      <trkpt lat="47.18484" lon="3.27276">
        <ele>294</ele>
        <time>2016-08-18T17:34:10Z</time>
      </trkpt>
      <trkpt lat="47.18487" lon="3.27263">
        <ele>293</ele>
        <time>2016-08-18T17:34:11Z</time>
      </trkpt>
      <trkpt lat="47.18492" lon="3.27241">
        <ele>292</ele>
        <time>2016-08-18T17:34:13Z</time>
      </trkpt>
      <trkpt lat="47.18493" lon="3.27235">
        <ele>292</ele>
        <time>2016-08-18T17:34:13Z</time>
      </trkpt>
      <trkpt lat="47.18496" lon="3.27222">
        <ele>291</ele>
        <time>2016-08-18T17:34:14Z</time>
      </trkpt>
      <trkpt lat="47.18498" lon="3.27208">
        <ele>291</ele>
        <time>2016-08-18T17:34:15Z</time>
      </trkpt>
      <trkpt lat="47.18501" lon="3.27194">
        <ele>291</ele>
        <time>2016-08-18T17:34:16Z</time>
      </trkpt>
      <trkpt lat="47.18505" lon="3.27181">
        <ele>291</ele>
        <time>2016-08-18T17:34:17Z</time>
      </trkpt>
      <trkpt lat="47.1851" lon="3.2716">
        <ele>290</ele>
        <time>2016-08-18T17:34:18Z</time>
      </trkpt>
      <trkpt lat="47.18512" lon="3.27152">
        <ele>290</ele>
        <time>2016-08-18T17:34:19Z</time>
      </trkpt>
      <trkpt lat="47.18515" lon="3.27138">
        <ele>290</ele>
        <time>2016-08-18T17:34:20Z</time>
      </trkpt>
      <trkpt lat="47.18519" lon="3.2712">
        <ele>290</ele>
        <time>2016-08-18T17:34:22Z</time>
      </trkpt>
      <trkpt lat="47.18522" lon="3.27108">
        <ele>290</ele>
        <time>2016-08-18T17:34:23Z</time>
      </trkpt>
      <trkpt lat="47.18523" lon="3.27101">
        <ele>290</ele>
        <time>2016-08-18T17:34:23Z</time>
      </trkpt>
      <trkpt lat="47.18526" lon="3.27089">
        <ele>290</ele>
        <time>2016-08-18T17:34:24Z</time>
      </trkpt>
      <trkpt lat="47.18529" lon="3.27078">
        <ele>290</ele>
        <time>2016-08-18T17:34:25Z</time>
      </trkpt>
      <trkpt lat="47.18531" lon="3.27065">
        <ele>290</ele>
        <time>2016-08-18T17:34:26Z</time>
      </trkpt>
      <trkpt lat="47.18533" lon="3.27055">
        <ele>290</ele>
        <time>2016-08-18T17:34:27Z</time>
      </trkpt>
      <trkpt lat="47.18535" lon="3.27048">
        <ele>290</ele>
        <time>2016-08-18T17:34:28Z</time>
      </trkpt>
      <trkpt lat="47.18537" lon="3.27036">
        <ele>291</ele>
        <time>2016-08-18T17:34:30Z</time>
      </trkpt>
      <trkpt lat="47.18539" lon="3.27027">
        <ele>291</ele>
        <time>2016-08-18T17:34:30Z</time>
      </trkpt>
      <trkpt lat="47.18541" lon="3.27019">
        <ele>291</ele>
        <time>2016-08-18T17:34:31Z</time>
      </trkpt>
      <trkpt lat="47.18543" lon="3.2701">
        <ele>291</ele>
        <time>2016-08-18T17:34:32Z</time>
      </trkpt>
      <trkpt lat="47.18545" lon="3.27002">
        <ele>291</ele>
        <time>2016-08-18T17:34:33Z</time>
      </trkpt>
      <trkpt lat="47.18548" lon="3.26993">
        <ele>291</ele>
        <time>2016-08-18T17:34:35Z</time>
      </trkpt>
      <trkpt lat="47.18549" lon="3.26987">
        <ele>291</ele>
        <time>2016-08-18T17:34:35Z</time>
      </trkpt>
      <trkpt lat="47.1855" lon="3.26979">
        <ele>291</ele>
        <time>2016-08-18T17:34:36Z</time>
      </trkpt>
      <trkpt lat="47.18552" lon="3.26971">
        <ele>291</ele>
        <time>2016-08-18T17:34:37Z</time>
      </trkpt>
      <trkpt lat="47.18554" lon="3.26964">
        <ele>292</ele>
        <time>2016-08-18T17:34:38Z</time>
      </trkpt>
      <trkpt lat="47.18555" lon="3.26957">
        <ele>292</ele>
        <time>2016-08-18T17:34:39Z</time>
      </trkpt>
      <trkpt lat="47.18555" lon="3.26952">
        <ele>293</ele>
        <time>2016-08-18T17:34:41Z</time>
      </trkpt>
      <trkpt lat="47.18555" lon="3.26944">
        <ele>295</ele>
        <time>2016-08-18T17:34:42Z</time>
      </trkpt>
      <trkpt lat="47.18556" lon="3.26937">
        <ele>296</ele>
        <time>2016-08-18T17:34:43Z</time>
      </trkpt>
      <trkpt lat="47.18556" lon="3.2693">
        <ele>297</ele>
        <time>2016-08-18T17:34:44Z</time>
      </trkpt>
      <trkpt lat="47.18556" lon="3.26924">
        <ele>297</ele>
        <time>2016-08-18T17:34:45Z</time>
      </trkpt>
      <trkpt lat="47.18557" lon="3.26918">
        <ele>297</ele>
        <time>2016-08-18T17:34:46Z</time>
      </trkpt>
      <trkpt lat="47.1856" lon="3.26901">
        <ele>298</ele>
        <time>2016-08-18T17:34:47Z</time>
      </trkpt>
      <trkpt lat="47.1856" lon="3.26899">
        <ele>298</ele>
        <time>2016-08-18T17:34:48Z</time>
      </trkpt>
      <trkpt lat="47.18561" lon="3.26893">
        <ele>299</ele>
        <time>2016-08-18T17:34:49Z</time>
      </trkpt>
      <trkpt lat="47.18561" lon="3.26887">
        <ele>299</ele>
        <time>2016-08-18T17:34:50Z</time>
      </trkpt>
      <trkpt lat="47.18563" lon="3.2688">
        <ele>300</ele>
        <time>2016-08-18T17:34:51Z</time>
      </trkpt>
      <trkpt lat="47.18567" lon="3.2687">
        <ele>301</ele>
        <time>2016-08-18T17:34:52Z</time>
      </trkpt>
      <trkpt lat="47.1857" lon="3.26862">
        <ele>301</ele>
        <time>2016-08-18T17:34:53Z</time>
      </trkpt>
      <trkpt lat="47.18571" lon="3.26853">
        <ele>301</ele>
        <time>2016-08-18T17:34:54Z</time>
      </trkpt>
      <trkpt lat="47.18571" lon="3.26845">
        <ele>301</ele>
        <time>2016-08-18T17:34:55Z</time>
      </trkpt>
      <trkpt lat="47.18573" lon="3.26836">
        <ele>301</ele>
        <time>2016-08-18T17:34:56Z</time>
      </trkpt>
      <trkpt lat="47.18574" lon="3.26827">
        <ele>301</ele>
        <time>2016-08-18T17:34:57Z</time>
      </trkpt>
      <trkpt lat="47.18576" lon="3.26817">
        <ele>300</ele>
        <time>2016-08-18T17:34:58Z</time>
      </trkpt>
      <trkpt lat="47.18578" lon="3.26804">
        <ele>299</ele>
        <time>2016-08-18T17:34:59Z</time>
      </trkpt>
      <trkpt lat="47.18579" lon="3.26798">
        <ele>299</ele>
        <time>2016-08-18T17:35:00Z</time>
      </trkpt>
      <trkpt lat="47.1858" lon="3.26787">
        <ele>298</ele>
        <time>2016-08-18T17:35:01Z</time>
      </trkpt>
      <trkpt lat="47.18582" lon="3.26776">
        <ele>298</ele>
        <time>2016-08-18T17:35:02Z</time>
      </trkpt>
      <trkpt lat="47.18586" lon="3.26765">
        <ele>297</ele>
        <time>2016-08-18T17:35:03Z</time>
      </trkpt>
      <trkpt lat="47.18588" lon="3.26756">
        <ele>298</ele>
        <time>2016-08-18T17:35:04Z</time>
      </trkpt>
      <trkpt lat="47.18592" lon="3.26747">
        <ele>298</ele>
        <time>2016-08-18T17:35:05Z</time>
      </trkpt>
      <trkpt lat="47.18594" lon="3.26737">
        <ele>297</ele>
        <time>2016-08-18T17:35:06Z</time>
      </trkpt>
      <trkpt lat="47.18597" lon="3.26727">
        <ele>296</ele>
        <time>2016-08-18T17:35:07Z</time>
      </trkpt>
      <trkpt lat="47.18599" lon="3.26716">
        <ele>296</ele>
        <time>2016-08-18T17:35:08Z</time>
      </trkpt>
      <trkpt lat="47.18602" lon="3.26706">
        <ele>295</ele>
        <time>2016-08-18T17:35:09Z</time>
      </trkpt>
      <trkpt lat="47.18604" lon="3.26696">
        <ele>295</ele>
        <time>2016-08-18T17:35:10Z</time>
      </trkpt>
      <trkpt lat="47.18607" lon="3.26683">
        <ele>295</ele>
        <time>2016-08-18T17:35:11Z</time>
      </trkpt>
      <trkpt lat="47.18614" lon="3.26672">
        <ele>294</ele>
        <time>2016-08-18T17:35:13Z</time>
      </trkpt>
      <trkpt lat="47.18616" lon="3.26661">
        <ele>293</ele>
        <time>2016-08-18T17:35:13Z</time>
      </trkpt>
      <trkpt lat="47.18619" lon="3.26651">
        <ele>292</ele>
        <time>2016-08-18T17:35:14Z</time>
      </trkpt>
      <trkpt lat="47.18623" lon="3.26638">
        <ele>290</ele>
        <time>2016-08-18T17:35:15Z</time>
      </trkpt>
      <trkpt lat="47.18627" lon="3.26625">
        <ele>288</ele>
        <time>2016-08-18T17:35:16Z</time>
      </trkpt>
      <trkpt lat="47.1863" lon="3.26613">
        <ele>288</ele>
        <time>2016-08-18T17:35:17Z</time>
      </trkpt>
      <trkpt lat="47.18633" lon="3.26605">
        <ele>290</ele>
        <time>2016-08-18T17:35:18Z</time>
      </trkpt>
      <trkpt lat="47.18635" lon="3.26594">
        <ele>290</ele>
        <time>2016-08-18T17:35:19Z</time>
      </trkpt>
      <trkpt lat="47.18638" lon="3.26583">
        <ele>290</ele>
        <time>2016-08-18T17:35:21Z</time>
      </trkpt>
      <trkpt lat="47.18641" lon="3.26571">
        <ele>290</ele>
        <time>2016-08-18T17:35:22Z</time>
      </trkpt>
      <trkpt lat="47.18643" lon="3.26559">
        <ele>290</ele>
        <time>2016-08-18T17:35:23Z</time>
      </trkpt>
      <trkpt lat="47.18645" lon="3.26548">
        <ele>290</ele>
        <time>2016-08-18T17:35:24Z</time>
      </trkpt>
      <trkpt lat="47.18648" lon="3.26537">
        <ele>290</ele>
        <time>2016-08-18T17:35:25Z</time>
      </trkpt>
      <trkpt lat="47.18652" lon="3.26526">
        <ele>289</ele>
        <time>2016-08-18T17:35:26Z</time>
      </trkpt>
      <trkpt lat="47.18654" lon="3.26514">
        <ele>289</ele>
        <time>2016-08-18T17:35:27Z</time>
      </trkpt>
      <trkpt lat="47.18656" lon="3.26503">
        <ele>289</ele>
        <time>2016-08-18T17:35:28Z</time>
      </trkpt>
      <trkpt lat="47.1866" lon="3.26486">
        <ele>290</ele>
        <time>2016-08-18T17:35:30Z</time>
      </trkpt>
      <trkpt lat="47.1866" lon="3.26485">
        <ele>290</ele>
        <time>2016-08-18T17:35:30Z</time>
      </trkpt>
      <trkpt lat="47.18662" lon="3.26474">
        <ele>290</ele>
        <time>2016-08-18T17:35:31Z</time>
      </trkpt>
      <trkpt lat="47.18665" lon="3.26463">
        <ele>291</ele>
        <time>2016-08-18T17:35:32Z</time>
      </trkpt>
      <trkpt lat="47.18666" lon="3.26452">
        <ele>291</ele>
        <time>2016-08-18T17:35:33Z</time>
      </trkpt>
      <trkpt lat="47.18668" lon="3.26442">
        <ele>291</ele>
        <time>2016-08-18T17:35:34Z</time>
      </trkpt>
      <trkpt lat="47.18669" lon="3.26431">
        <ele>291</ele>
        <time>2016-08-18T17:35:35Z</time>
      </trkpt>
      <trkpt lat="47.18672" lon="3.2642">
        <ele>291</ele>
        <time>2016-08-18T17:35:36Z</time>
      </trkpt>
      <trkpt lat="47.18674" lon="3.26409">
        <ele>291</ele>
        <time>2016-08-18T17:35:37Z</time>
      </trkpt>
      <trkpt lat="47.18678" lon="3.26391">
        <ele>291</ele>
        <time>2016-08-18T17:35:38Z</time>
      </trkpt>
      <trkpt lat="47.1868" lon="3.2638">
        <ele>290</ele>
        <time>2016-08-18T17:35:39Z</time>
      </trkpt>
      <trkpt lat="47.18681" lon="3.26375">
        <ele>290</ele>
        <time>2016-08-18T17:35:40Z</time>
      </trkpt>
      <trkpt lat="47.18684" lon="3.26364">
        <ele>289</ele>
        <time>2016-08-18T17:35:41Z</time>
      </trkpt>
      <trkpt lat="47.18687" lon="3.26353">
        <ele>289</ele>
        <time>2016-08-18T17:35:42Z</time>
      </trkpt>
      <trkpt lat="47.18689" lon="3.26343">
        <ele>289</ele>
        <time>2016-08-18T17:35:43Z</time>
      </trkpt>
      <trkpt lat="47.18692" lon="3.26331">
        <ele>288</ele>
        <time>2016-08-18T17:35:44Z</time>
      </trkpt>
      <trkpt lat="47.18694" lon="3.26319">
        <ele>288</ele>
        <time>2016-08-18T17:35:45Z</time>
      </trkpt>
      <trkpt lat="47.18696" lon="3.26308">
        <ele>289</ele>
        <time>2016-08-18T17:35:46Z</time>
      </trkpt>
      <trkpt lat="47.18698" lon="3.26297">
        <ele>289</ele>
        <time>2016-08-18T17:35:47Z</time>
      </trkpt>
      <trkpt lat="47.18701" lon="3.26285">
        <ele>289</ele>
        <time>2016-08-18T17:35:48Z</time>
      </trkpt>
      <trkpt lat="47.18705" lon="3.26269">
        <ele>290</ele>
        <time>2016-08-18T17:35:49Z</time>
      </trkpt>
      <trkpt lat="47.18708" lon="3.26257">
        <ele>290</ele>
        <time>2016-08-18T17:35:50Z</time>
      </trkpt>
      <trkpt lat="47.1871" lon="3.26251">
        <ele>289</ele>
        <time>2016-08-18T17:35:51Z</time>
      </trkpt>
      <trkpt lat="47.18712" lon="3.2624">
        <ele>289</ele>
        <time>2016-08-18T17:35:52Z</time>
      </trkpt>
      <trkpt lat="47.18716" lon="3.26225">
        <ele>289</ele>
        <time>2016-08-18T17:35:53Z</time>
      </trkpt>
      <trkpt lat="47.18718" lon="3.26216">
        <ele>288</ele>
        <time>2016-08-18T17:35:54Z</time>
      </trkpt>
      <trkpt lat="47.1872" lon="3.26207">
        <ele>288</ele>
        <time>2016-08-18T17:35:55Z</time>
      </trkpt>
      <trkpt lat="47.18722" lon="3.26197">
        <ele>288</ele>
        <time>2016-08-18T17:35:56Z</time>
      </trkpt>
      <trkpt lat="47.18724" lon="3.26187">
        <ele>288</ele>
        <time>2016-08-18T17:35:57Z</time>
      </trkpt>
      <trkpt lat="47.18726" lon="3.26173">
        <ele>289</ele>
        <time>2016-08-18T17:35:58Z</time>
      </trkpt>
      <trkpt lat="47.18727" lon="3.26161">
        <ele>288</ele>
        <time>2016-08-18T17:35:59Z</time>
      </trkpt>
      <trkpt lat="47.18729" lon="3.26148">
        <ele>289</ele>
        <time>2016-08-18T17:36:00Z</time>
      </trkpt>
      <trkpt lat="47.18732" lon="3.26136">
        <ele>289</ele>
        <time>2016-08-18T17:36:01Z</time>
      </trkpt>
      <trkpt lat="47.18734" lon="3.26125">
        <ele>288</ele>
        <time>2016-08-18T17:36:02Z</time>
      </trkpt>
      <trkpt lat="47.18736" lon="3.26114">
        <ele>288</ele>
        <time>2016-08-18T17:36:03Z</time>
      </trkpt>
      <trkpt lat="47.18737" lon="3.261">
        <ele>287</ele>
        <time>2016-08-18T17:36:05Z</time>
      </trkpt>
      <trkpt lat="47.18738" lon="3.26088">
        <ele>286</ele>
        <time>2016-08-18T17:36:05Z</time>
      </trkpt>
      <trkpt lat="47.1874" lon="3.26076">
        <ele>285</ele>
        <time>2016-08-18T17:36:07Z</time>
      </trkpt>
      <trkpt lat="47.18742" lon="3.26065">
        <ele>285</ele>
        <time>2016-08-18T17:36:08Z</time>
      </trkpt>
      <trkpt lat="47.18744" lon="3.26054">
        <ele>285</ele>
        <time>2016-08-18T17:36:09Z</time>
      </trkpt>
      <trkpt lat="47.18747" lon="3.26042">
        <ele>285</ele>
        <time>2016-08-18T17:36:10Z</time>
      </trkpt>
      <trkpt lat="47.18749" lon="3.26031">
        <ele>285</ele>
        <time>2016-08-18T17:36:11Z</time>
      </trkpt>
      <trkpt lat="47.18753" lon="3.2602">
        <ele>286</ele>
        <time>2016-08-18T17:36:12Z</time>
      </trkpt>
      <trkpt lat="47.18758" lon="3.26001">
        <ele>287</ele>
        <time>2016-08-18T17:36:13Z</time>
      </trkpt>
      <trkpt lat="47.18758" lon="3.25999">
        <ele>287</ele>
        <time>2016-08-18T17:36:14Z</time>
      </trkpt>
      <trkpt lat="47.1876" lon="3.25988">
        <ele>286</ele>
        <time>2016-08-18T17:36:15Z</time>
      </trkpt>
      <trkpt lat="47.18763" lon="3.25976">
        <ele>286</ele>
        <time>2016-08-18T17:36:16Z</time>
      </trkpt>
      <trkpt lat="47.18765" lon="3.25965">
        <ele>286</ele>
        <time>2016-08-18T17:36:17Z</time>
      </trkpt>
      <trkpt lat="47.18768" lon="3.25953">
        <ele>286</ele>
        <time>2016-08-18T17:36:18Z</time>
      </trkpt>
      <trkpt lat="47.1877" lon="3.25942">
        <ele>286</ele>
        <time>2016-08-18T17:36:19Z</time>
      </trkpt>
      <trkpt lat="47.18773" lon="3.25932">
        <ele>287</ele>
        <time>2016-08-18T17:36:20Z</time>
      </trkpt>
      <trkpt lat="47.18776" lon="3.2592">
        <ele>287</ele>
        <time>2016-08-18T17:36:21Z</time>
      </trkpt>
      <trkpt lat="47.18778" lon="3.25909">
        <ele>287</ele>
        <time>2016-08-18T17:36:22Z</time>
      </trkpt>
      <trkpt lat="47.1878" lon="3.25898">
        <ele>286</ele>
        <time>2016-08-18T17:36:23Z</time>
      </trkpt>
      <trkpt lat="47.18785" lon="3.25884">
        <ele>285</ele>
        <time>2016-08-18T17:36:24Z</time>
      </trkpt>
      <trkpt lat="47.18786" lon="3.25881">
        <ele>285</ele>
        <time>2016-08-18T17:36:25Z</time>
      </trkpt>
      <trkpt lat="47.18788" lon="3.2587">
        <ele>285</ele>
        <time>2016-08-18T17:36:26Z</time>
      </trkpt>
      <trkpt lat="47.18793" lon="3.25853">
        <ele>283</ele>
        <time>2016-08-18T17:36:28Z</time>
      </trkpt>
      <trkpt lat="47.18794" lon="3.25849">
        <ele>283</ele>
        <time>2016-08-18T17:36:28Z</time>
      </trkpt>
      <trkpt lat="47.18796" lon="3.25838">
        <ele>283</ele>
        <time>2016-08-18T17:36:29Z</time>
      </trkpt>
      <trkpt lat="47.18799" lon="3.25826">
        <ele>283</ele>
        <time>2016-08-18T17:36:30Z</time>
      </trkpt>
      <trkpt lat="47.18802" lon="3.25815">
        <ele>283</ele>
        <time>2016-08-18T17:36:31Z</time>
      </trkpt>
      <trkpt lat="47.18805" lon="3.25799">
        <ele>283</ele>
        <time>2016-08-18T17:36:32Z</time>
      </trkpt>
      <trkpt lat="47.18807" lon="3.25788">
        <ele>281</ele>
        <time>2016-08-18T17:36:33Z</time>
      </trkpt>
      <trkpt lat="47.18808" lon="3.25783">
        <ele>281</ele>
        <time>2016-08-18T17:36:34Z</time>
      </trkpt>
      <trkpt lat="47.18811" lon="3.25764">
        <ele>280</ele>
        <time>2016-08-18T17:36:36Z</time>
      </trkpt>
      <trkpt lat="47.18812" lon="3.25758">
        <ele>280</ele>
        <time>2016-08-18T17:36:36Z</time>
      </trkpt>
      <trkpt lat="47.18815" lon="3.25746">
        <ele>280</ele>
        <time>2016-08-18T17:36:37Z</time>
      </trkpt>
      <trkpt lat="47.18817" lon="3.25735">
        <ele>280</ele>
        <time>2016-08-18T17:36:38Z</time>
      </trkpt>
      <trkpt lat="47.1882" lon="3.25723">
        <ele>280</ele>
        <time>2016-08-18T17:36:39Z</time>
      </trkpt>
      <trkpt lat="47.18825" lon="3.25706">
        <ele>279</ele>
        <time>2016-08-18T17:36:40Z</time>
      </trkpt>
      <trkpt lat="47.18828" lon="3.25694">
        <ele>279</ele>
        <time>2016-08-18T17:36:41Z</time>
      </trkpt>
      <trkpt lat="47.18831" lon="3.25681">
        <ele>279</ele>
        <time>2016-08-18T17:36:43Z</time>
      </trkpt>
      <trkpt lat="47.18833" lon="3.25671">
        <ele>279</ele>
        <time>2016-08-18T17:36:43Z</time>
      </trkpt>
      <trkpt lat="47.18837" lon="3.25654">
        <ele>277</ele>
        <time>2016-08-18T17:36:45Z</time>
      </trkpt>
      <trkpt lat="47.1884" lon="3.25642">
        <ele>277</ele>
        <time>2016-08-18T17:36:46Z</time>
      </trkpt>
      <trkpt lat="47.18843" lon="3.25628">
        <ele>277</ele>
        <time>2016-08-18T17:36:47Z</time>
      </trkpt>
      <trkpt lat="47.18847" lon="3.25615">
        <ele>275</ele>
        <time>2016-08-18T17:36:47Z</time>
      </trkpt>
      <trkpt lat="47.1885" lon="3.25601">
        <ele>275</ele>
        <time>2016-08-18T17:36:48Z</time>
      </trkpt>
      <trkpt lat="47.18854" lon="3.25587">
        <ele>274</ele>
        <time>2016-08-18T17:36:49Z</time>
      </trkpt>
      <trkpt lat="47.18858" lon="3.25572">
        <ele>273</ele>
        <time>2016-08-18T17:36:50Z</time>
      </trkpt>
      <trkpt lat="47.18861" lon="3.25558">
        <ele>273</ele>
        <time>2016-08-18T17:36:51Z</time>
      </trkpt>
      <trkpt lat="47.18864" lon="3.25543">
        <ele>273</ele>
        <time>2016-08-18T17:36:52Z</time>
      </trkpt>
      <trkpt lat="47.18867" lon="3.25527">
        <ele>273</ele>
        <time>2016-08-18T17:36:54Z</time>
      </trkpt>
      <trkpt lat="47.18869" lon="3.25508">
        <ele>274</ele>
        <time>2016-08-18T17:36:55Z</time>
      </trkpt>
      <trkpt lat="47.18872" lon="3.25492">
        <ele>274</ele>
        <time>2016-08-18T17:36:56Z</time>
      </trkpt>
      <trkpt lat="47.18876" lon="3.25475">
        <ele>273</ele>
        <time>2016-08-18T17:36:57Z</time>
      </trkpt>
      <trkpt lat="47.18878" lon="3.25458">
        <ele>274</ele>
        <time>2016-08-18T17:36:58Z</time>
      </trkpt>
      <trkpt lat="47.18881" lon="3.25441">
        <ele>274</ele>
        <time>2016-08-18T17:36:59Z</time>
      </trkpt>
      <trkpt lat="47.18885" lon="3.25422">
        <ele>273</ele>
        <time>2016-08-18T17:37:00Z</time>
      </trkpt>
      <trkpt lat="47.18887" lon="3.25403">
        <ele>273</ele>
        <time>2016-08-18T17:37:01Z</time>
      </trkpt>
      <trkpt lat="47.18891" lon="3.25384">
        <ele>273</ele>
        <time>2016-08-18T17:37:02Z</time>
      </trkpt>
      <trkpt lat="47.18895" lon="3.25364">
        <ele>273</ele>
        <time>2016-08-18T17:37:03Z</time>
      </trkpt>
      <trkpt lat="47.18899" lon="3.25344">
        <ele>272</ele>
        <time>2016-08-18T17:37:04Z</time>
      </trkpt>
      <trkpt lat="47.18902" lon="3.25325">
        <ele>272</ele>
        <time>2016-08-18T17:37:05Z</time>
      </trkpt>
      <trkpt lat="47.18906" lon="3.25304">
        <ele>272</ele>
        <time>2016-08-18T17:37:06Z</time>
      </trkpt>
      <trkpt lat="47.1891" lon="3.25284">
        <ele>271</ele>
        <time>2016-08-18T17:37:07Z</time>
      </trkpt>
      <trkpt lat="47.18914" lon="3.25264">
        <ele>271</ele>
        <time>2016-08-18T17:37:08Z</time>
      </trkpt>
      <trkpt lat="47.18922" lon="3.25232">
        <ele>269</ele>
        <time>2016-08-18T17:37:09Z</time>
      </trkpt>
      <trkpt lat="47.18924" lon="3.25224">
        <ele>269</ele>
        <time>2016-08-18T17:37:10Z</time>
      </trkpt>
      <trkpt lat="47.18932" lon="3.25194">
        <ele>268</ele>
        <time>2016-08-18T17:37:11Z</time>
      </trkpt>
      <trkpt lat="47.18936" lon="3.25176">
        <ele>267</ele>
        <time>2016-08-18T17:37:13Z</time>
      </trkpt>
      <trkpt lat="47.18937" lon="3.25169">
        <ele>267</ele>
        <time>2016-08-18T17:37:13Z</time>
      </trkpt>
      <trkpt lat="47.18941" lon="3.25153">
        <ele>266</ele>
        <time>2016-08-18T17:37:14Z</time>
      </trkpt>
      <trkpt lat="47.18944" lon="3.25138">
        <ele>265</ele>
        <time>2016-08-18T17:37:15Z</time>
      </trkpt>
      <trkpt lat="47.18947" lon="3.25123">
        <ele>264</ele>
        <time>2016-08-18T17:37:16Z</time>
      </trkpt>
      <trkpt lat="47.1895" lon="3.25109">
        <ele>264</ele>
        <time>2016-08-18T17:37:17Z</time>
      </trkpt>
      <trkpt lat="47.18954" lon="3.25096">
        <ele>264</ele>
        <time>2016-08-18T17:37:18Z</time>
      </trkpt>
      <trkpt lat="47.18959" lon="3.2508">
        <ele>264</ele>
        <time>2016-08-18T17:37:19Z</time>
      </trkpt>
      <trkpt lat="47.1896" lon="3.25072">
        <ele>264</ele>
        <time>2016-08-18T17:37:20Z</time>
      </trkpt>
      <trkpt lat="47.18964" lon="3.25056">
        <ele>264</ele>
        <time>2016-08-18T17:37:22Z</time>
      </trkpt>
      <trkpt lat="47.18967" lon="3.25046">
        <ele>264</ele>
        <time>2016-08-18T17:37:23Z</time>
      </trkpt>
      <trkpt lat="47.18968" lon="3.2504">
        <ele>264</ele>
        <time>2016-08-18T17:37:23Z</time>
      </trkpt>
      <trkpt lat="47.1897" lon="3.25029">
        <ele>264</ele>
        <time>2016-08-18T17:37:24Z</time>
      </trkpt>
      <trkpt lat="47.18972" lon="3.25019">
        <ele>263</ele>
        <time>2016-08-18T17:37:25Z</time>
      </trkpt>
      <trkpt lat="47.18975" lon="3.25006">
        <ele>263</ele>
        <time>2016-08-18T17:37:26Z</time>
      </trkpt>
      <trkpt lat="47.18977" lon="3.24996">
        <ele>264</ele>
        <time>2016-08-18T17:37:27Z</time>
      </trkpt>
      <trkpt lat="47.18979" lon="3.24988">
        <ele>264</ele>
        <time>2016-08-18T17:37:28Z</time>
      </trkpt>
      <trkpt lat="47.18981" lon="3.24979">
        <ele>264</ele>
        <time>2016-08-18T17:37:29Z</time>
      </trkpt>
      <trkpt lat="47.18983" lon="3.24968">
        <ele>264</ele>
        <time>2016-08-18T17:37:30Z</time>
      </trkpt>
      <trkpt lat="47.18985" lon="3.24959">
        <ele>264</ele>
        <time>2016-08-18T17:37:31Z</time>
      </trkpt>
      <trkpt lat="47.18986" lon="3.24949">
        <ele>265</ele>
        <time>2016-08-18T17:37:32Z</time>
      </trkpt>
      <trkpt lat="47.18988" lon="3.2494">
        <ele>264</ele>
        <time>2016-08-18T17:37:33Z</time>
      </trkpt>
      <trkpt lat="47.18991" lon="3.24931">
        <ele>264</ele>
        <time>2016-08-18T17:37:34Z</time>
      </trkpt>
      <trkpt lat="47.18993" lon="3.24921">
        <ele>264</ele>
        <time>2016-08-18T17:37:35Z</time>
      </trkpt>
      <trkpt lat="47.18995" lon="3.24912">
        <ele>264</ele>
        <time>2016-08-18T17:37:36Z</time>
      </trkpt>
      <trkpt lat="47.18999" lon="3.24902">
        <ele>263</ele>
        <time>2016-08-18T17:37:38Z</time>
      </trkpt>
      <trkpt lat="47.19002" lon="3.24893">
        <ele>262</ele>
        <time>2016-08-18T17:37:38Z</time>
      </trkpt>
      <trkpt lat="47.19008" lon="3.24883">
        <ele>258</ele>
        <time>2016-08-18T17:37:40Z</time>
      </trkpt>
      <trkpt lat="47.19011" lon="3.24874">
        <ele>258</ele>
        <time>2016-08-18T17:37:41Z</time>
      </trkpt>
      <trkpt lat="47.19017" lon="3.24854">
        <ele>257</ele>
        <time>2016-08-18T17:37:42Z</time>
      </trkpt>
      <trkpt lat="47.19018" lon="3.24852">
        <ele>257</ele>
        <time>2016-08-18T17:37:43Z</time>
      </trkpt>
      <trkpt lat="47.19022" lon="3.24832">
        <ele>257</ele>
        <time>2016-08-18T17:37:44Z</time>
      </trkpt>
      <trkpt lat="47.19023" lon="3.24829">
        <ele>257</ele>
        <time>2016-08-18T17:37:45Z</time>
      </trkpt>
      <trkpt lat="47.19025" lon="3.24819">
        <ele>256</ele>
        <time>2016-08-18T17:37:46Z</time>
      </trkpt>
      <trkpt lat="47.19027" lon="3.24807">
        <ele>256</ele>
        <time>2016-08-18T17:37:47Z</time>
      </trkpt>
      <trkpt lat="47.1903" lon="3.24796">
        <ele>255</ele>
        <time>2016-08-18T17:37:48Z</time>
      </trkpt>
      <trkpt lat="47.19034" lon="3.24776">
        <ele>255</ele>
        <time>2016-08-18T17:37:50Z</time>
      </trkpt>
      <trkpt lat="47.19035" lon="3.24774">
        <ele>255</ele>
        <time>2016-08-18T17:37:50Z</time>
      </trkpt>
      <trkpt lat="47.19039" lon="3.24753">
        <ele>254</ele>
        <time>2016-08-18T17:37:52Z</time>
      </trkpt>
      <trkpt lat="47.1904" lon="3.24744">
        <ele>255</ele>
        <time>2016-08-18T17:37:52Z</time>
      </trkpt>
      <trkpt lat="47.19041" lon="3.24739">
        <ele>255</ele>
        <time>2016-08-18T17:37:53Z</time>
      </trkpt>
      <trkpt lat="47.19044" lon="3.2472">
        <ele>255</ele>
        <time>2016-08-18T17:37:54Z</time>
      </trkpt>
      <trkpt lat="47.19046" lon="3.24715">
        <ele>255</ele>
        <time>2016-08-18T17:37:55Z</time>
      </trkpt>
      <trkpt lat="47.19049" lon="3.24695">
        <ele>255</ele>
        <time>2016-08-18T17:37:57Z</time>
      </trkpt>
      <trkpt lat="47.1905" lon="3.2469">
        <ele>255</ele>
        <time>2016-08-18T17:37:57Z</time>
      </trkpt>
      <trkpt lat="47.19052" lon="3.24678">
        <ele>255</ele>
        <time>2016-08-18T17:37:58Z</time>
      </trkpt>
      <trkpt lat="47.19055" lon="3.24666">
        <ele>255</ele>
        <time>2016-08-18T17:37:59Z</time>
      </trkpt>
      <trkpt lat="47.19057" lon="3.24655">
        <ele>254</ele>
        <time>2016-08-18T17:38:00Z</time>
      </trkpt>
      <trkpt lat="47.19061" lon="3.24636">
        <ele>255</ele>
        <time>2016-08-18T17:38:02Z</time>
      </trkpt>
      <trkpt lat="47.19062" lon="3.24631">
        <ele>255</ele>
        <time>2016-08-18T17:38:02Z</time>
      </trkpt>
      <trkpt lat="47.19065" lon="3.24619">
        <ele>255</ele>
        <time>2016-08-18T17:38:03Z</time>
      </trkpt>
      <trkpt lat="47.19067" lon="3.24607">
        <ele>255</ele>
        <time>2016-08-18T17:38:04Z</time>
      </trkpt>
      <trkpt lat="47.19069" lon="3.24596">
        <ele>256</ele>
        <time>2016-08-18T17:38:05Z</time>
      </trkpt>
      <trkpt lat="47.19071" lon="3.24585">
        <ele>256</ele>
        <time>2016-08-18T17:38:06Z</time>
      </trkpt>
      <trkpt lat="47.19074" lon="3.24573">
        <ele>256</ele>
        <time>2016-08-18T17:38:07Z</time>
      </trkpt>
      <trkpt lat="47.19076" lon="3.24561">
        <ele>256</ele>
        <time>2016-08-18T17:38:08Z</time>
      </trkpt>
      <trkpt lat="47.19079" lon="3.2455">
        <ele>256</ele>
        <time>2016-08-18T17:38:09Z</time>
      </trkpt>
      <trkpt lat="47.19082" lon="3.24534">
        <ele>255</ele>
        <time>2016-08-18T17:38:10Z</time>
      </trkpt>
      <trkpt lat="47.19083" lon="3.24528">
        <ele>256</ele>
        <time>2016-08-18T17:38:11Z</time>
      </trkpt>
      <trkpt lat="47.19085" lon="3.24517">
        <ele>255</ele>
        <time>2016-08-18T17:38:12Z</time>
      </trkpt>
      <trkpt lat="47.19088" lon="3.24507">
        <ele>255</ele>
        <time>2016-08-18T17:38:13Z</time>
      </trkpt>
      <trkpt lat="47.19091" lon="3.24496">
        <ele>255</ele>
        <time>2016-08-18T17:38:14Z</time>
      </trkpt>
      <trkpt lat="47.19093" lon="3.24486">
        <ele>255</ele>
        <time>2016-08-18T17:38:15Z</time>
      </trkpt>
      <trkpt lat="47.19095" lon="3.24476">
        <ele>255</ele>
        <time>2016-08-18T17:38:16Z</time>
      </trkpt>
      <trkpt lat="47.19097" lon="3.24466">
        <ele>255</ele>
        <time>2016-08-18T17:38:17Z</time>
      </trkpt>
      <trkpt lat="47.19099" lon="3.24452">
        <ele>254</ele>
        <time>2016-08-18T17:38:18Z</time>
      </trkpt>
      <trkpt lat="47.19102" lon="3.24442">
        <ele>254</ele>
        <time>2016-08-18T17:38:19Z</time>
      </trkpt>
      <trkpt lat="47.19103" lon="3.24435">
        <ele>254</ele>
        <time>2016-08-18T17:38:20Z</time>
      </trkpt>
      <trkpt lat="47.19106" lon="3.24425">
        <ele>254</ele>
        <time>2016-08-18T17:38:21Z</time>
      </trkpt>
      <trkpt lat="47.19108" lon="3.24412">
        <ele>255</ele>
        <time>2016-08-18T17:38:23Z</time>
      </trkpt>
      <trkpt lat="47.1911" lon="3.24402">
        <ele>255</ele>
        <time>2016-08-18T17:38:24Z</time>
      </trkpt>
      <trkpt lat="47.19111" lon="3.24394">
        <ele>256</ele>
        <time>2016-08-18T17:38:24Z</time>
      </trkpt>
      <trkpt lat="47.19114" lon="3.24383">
        <ele>255</ele>
        <time>2016-08-18T17:38:25Z</time>
      </trkpt>
      <trkpt lat="47.19116" lon="3.24371">
        <ele>255</ele>
        <time>2016-08-18T17:38:27Z</time>
      </trkpt>
      <trkpt lat="47.19118" lon="3.24363">
        <ele>255</ele>
        <time>2016-08-18T17:38:27Z</time>
      </trkpt>
      <trkpt lat="47.19121" lon="3.24353">
        <ele>254</ele>
        <time>2016-08-18T17:38:28Z</time>
      </trkpt>
      <trkpt lat="47.19123" lon="3.24343">
        <ele>254</ele>
        <time>2016-08-18T17:38:29Z</time>
      </trkpt>
      <trkpt lat="47.19126" lon="3.24333">
        <ele>254</ele>
        <time>2016-08-18T17:38:30Z</time>
      </trkpt>
      <trkpt lat="47.19128" lon="3.24323">
        <ele>254</ele>
        <time>2016-08-18T17:38:32Z</time>
      </trkpt>
      <trkpt lat="47.1913" lon="3.24312">
        <ele>253</ele>
        <time>2016-08-18T17:38:33Z</time>
      </trkpt>
      <trkpt lat="47.19134" lon="3.24292">
        <ele>253</ele>
        <time>2016-08-18T17:38:34Z</time>
      </trkpt>
      <trkpt lat="47.19136" lon="3.24281">
        <ele>253</ele>
        <time>2016-08-18T17:38:35Z</time>
      </trkpt>
      <trkpt lat="47.19137" lon="3.24279">
        <ele>253</ele>
        <time>2016-08-18T17:38:36Z</time>
      </trkpt>
      <trkpt lat="47.19139" lon="3.24268">
        <ele>252</ele>
        <time>2016-08-18T17:38:37Z</time>
      </trkpt>
      <trkpt lat="47.19141" lon="3.24256">
        <ele>252</ele>
        <time>2016-08-18T17:38:38Z</time>
      </trkpt>
      <trkpt lat="47.19143" lon="3.24245">
        <ele>252</ele>
        <time>2016-08-18T17:38:39Z</time>
      </trkpt>
      <trkpt lat="47.19145" lon="3.24233">
        <ele>252</ele>
        <time>2016-08-18T17:38:40Z</time>
      </trkpt>
      <trkpt lat="47.19148" lon="3.2422">
        <ele>251</ele>
        <time>2016-08-18T17:38:41Z</time>
      </trkpt>
      <trkpt lat="47.1915" lon="3.24209">
        <ele>251</ele>
        <time>2016-08-18T17:38:42Z</time>
      </trkpt>
      <trkpt lat="47.19153" lon="3.24198">
        <ele>251</ele>
        <time>2016-08-18T17:38:43Z</time>
      </trkpt>
      <trkpt lat="47.19155" lon="3.24187">
        <ele>251</ele>
        <time>2016-08-18T17:38:44Z</time>
      </trkpt>
      <trkpt lat="47.19158" lon="3.24175">
        <ele>250</ele>
        <time>2016-08-18T17:38:45Z</time>
      </trkpt>
      <trkpt lat="47.19161" lon="3.24158">
        <ele>251</ele>
        <time>2016-08-18T17:38:46Z</time>
      </trkpt>
      <trkpt lat="47.19162" lon="3.24154">
        <ele>250</ele>
        <time>2016-08-18T17:38:47Z</time>
      </trkpt>
      <trkpt lat="47.19164" lon="3.24143">
        <ele>250</ele>
        <time>2016-08-18T17:38:48Z</time>
      </trkpt>
      <trkpt lat="47.19167" lon="3.24133">
        <ele>250</ele>
        <time>2016-08-18T17:38:49Z</time>
      </trkpt>
      <trkpt lat="47.1917" lon="3.24122">
        <ele>249</ele>
        <time>2016-08-18T17:38:50Z</time>
      </trkpt>
      <trkpt lat="47.19172" lon="3.24111">
        <ele>249</ele>
        <time>2016-08-18T17:38:51Z</time>
      </trkpt>
      <trkpt lat="47.19176" lon="3.24094">
        <ele>248</ele>
        <time>2016-08-18T17:38:53Z</time>
      </trkpt>
      <trkpt lat="47.19178" lon="3.24086">
        <ele>248</ele>
        <time>2016-08-18T17:38:53Z</time>
      </trkpt>
      <trkpt lat="47.19179" lon="3.2408">
        <ele>248</ele>
        <time>2016-08-18T17:38:54Z</time>
      </trkpt>
      <trkpt lat="47.19181" lon="3.2407">
        <ele>248</ele>
        <time>2016-08-18T17:38:55Z</time>
      </trkpt>
      <trkpt lat="47.19184" lon="3.2406">
        <ele>247</ele>
        <time>2016-08-18T17:38:56Z</time>
      </trkpt>
      <trkpt lat="47.19186" lon="3.2405">
        <ele>248</ele>
        <time>2016-08-18T17:38:57Z</time>
      </trkpt>
      <trkpt lat="47.19188" lon="3.2404">
        <ele>248</ele>
        <time>2016-08-18T17:38:58Z</time>
      </trkpt>
      <trkpt lat="47.1919" lon="3.2403">
        <ele>248</ele>
        <time>2016-08-18T17:38:59Z</time>
      </trkpt>
      <trkpt lat="47.19193" lon="3.2402">
        <ele>248</ele>
        <time>2016-08-18T17:39:00Z</time>
      </trkpt>
      <trkpt lat="47.19195" lon="3.24011">
        <ele>248</ele>
        <time>2016-08-18T17:39:01Z</time>
      </trkpt>
      <trkpt lat="47.19197" lon="3.24001">
        <ele>249</ele>
        <time>2016-08-18T17:39:02Z</time>
      </trkpt>
      <trkpt lat="47.19199" lon="3.23992">
        <ele>249</ele>
        <time>2016-08-18T17:39:03Z</time>
      </trkpt>
      <trkpt lat="47.19201" lon="3.23982">
        <ele>249</ele>
        <time>2016-08-18T17:39:04Z</time>
      </trkpt>
      <trkpt lat="47.19203" lon="3.23972">
        <ele>249</ele>
        <time>2016-08-18T17:39:05Z</time>
      </trkpt>
      <trkpt lat="47.19205" lon="3.23962">
        <ele>249</ele>
        <time>2016-08-18T17:39:06Z</time>
      </trkpt>
      <trkpt lat="47.19208" lon="3.23953">
        <ele>250</ele>
        <time>2016-08-18T17:39:08Z</time>
      </trkpt>
      <trkpt lat="47.1921" lon="3.23945">
        <ele>249</ele>
        <time>2016-08-18T17:39:08Z</time>
      </trkpt>
      <trkpt lat="47.19212" lon="3.23936">
        <ele>250</ele>
        <time>2016-08-18T17:39:09Z</time>
      </trkpt>
      <trkpt lat="47.19214" lon="3.23927">
        <ele>250</ele>
        <time>2016-08-18T17:39:10Z</time>
      </trkpt>
      <trkpt lat="47.19216" lon="3.23918">
        <ele>250</ele>
        <time>2016-08-18T17:39:11Z</time>
      </trkpt>
      <trkpt lat="47.19218" lon="3.23909">
        <ele>250</ele>
        <time>2016-08-18T17:39:12Z</time>
      </trkpt>
      <trkpt lat="47.1922" lon="3.23899">
        <ele>250</ele>
        <time>2016-08-18T17:39:13Z</time>
      </trkpt>
      <trkpt lat="47.19222" lon="3.2389">
        <ele>250</ele>
        <time>2016-08-18T17:39:14Z</time>
      </trkpt>
      <trkpt lat="47.19224" lon="3.23881">
        <ele>250</ele>
        <time>2016-08-18T17:39:15Z</time>
      </trkpt>
      <trkpt lat="47.19226" lon="3.23871">
        <ele>250</ele>
        <time>2016-08-18T17:39:17Z</time>
      </trkpt>
      <trkpt lat="47.19227" lon="3.23862">
        <ele>250</ele>
        <time>2016-08-18T17:39:17Z</time>
      </trkpt>
      <trkpt lat="47.19229" lon="3.23853">
        <ele>250</ele>
        <time>2016-08-18T17:39:18Z</time>
      </trkpt>
      <trkpt lat="47.19231" lon="3.23844">
        <ele>250</ele>
        <time>2016-08-18T17:39:20Z</time>
      </trkpt>
      <trkpt lat="47.19233" lon="3.23835">
        <ele>250</ele>
        <time>2016-08-18T17:39:21Z</time>
      </trkpt>
      <trkpt lat="47.19234" lon="3.23827">
        <ele>250</ele>
        <time>2016-08-18T17:39:22Z</time>
      </trkpt>
      <trkpt lat="47.19236" lon="3.23818">
        <ele>250</ele>
        <time>2016-08-18T17:39:23Z</time>
      </trkpt>
      <trkpt lat="47.19238" lon="3.23809">
        <ele>250</ele>
        <time>2016-08-18T17:39:24Z</time>
      </trkpt>
      <trkpt lat="47.1924" lon="3.23799">
        <ele>250</ele>
        <time>2016-08-18T17:39:25Z</time>
      </trkpt>
      <trkpt lat="47.19241" lon="3.23789">
        <ele>251</ele>
        <time>2016-08-18T17:39:26Z</time>
      </trkpt>
      <trkpt lat="47.19243" lon="3.23781">
        <ele>251</ele>
        <time>2016-08-18T17:39:27Z</time>
      </trkpt>
      <trkpt lat="47.19246" lon="3.23771">
        <ele>251</ele>
        <time>2016-08-18T17:39:28Z</time>
      </trkpt>
      <trkpt lat="47.19247" lon="3.23762">
        <ele>250</ele>
        <time>2016-08-18T17:39:29Z</time>
      </trkpt>
      <trkpt lat="47.19249" lon="3.23752">
        <ele>250</ele>
        <time>2016-08-18T17:39:30Z</time>
      </trkpt>
      <trkpt lat="47.19251" lon="3.23743">
        <ele>250</ele>
        <time>2016-08-18T17:39:31Z</time>
      </trkpt>
      <trkpt lat="47.19254" lon="3.23734">
        <ele>250</ele>
        <time>2016-08-18T17:39:32Z</time>
      </trkpt>
      <trkpt lat="47.19256" lon="3.23724">
        <ele>250</ele>
        <time>2016-08-18T17:39:33Z</time>
      </trkpt>
      <trkpt lat="47.1926" lon="3.23708">
        <ele>249</ele>
        <time>2016-08-18T17:39:34Z</time>
      </trkpt>
      <trkpt lat="47.19261" lon="3.23699">
        <ele>249</ele>
        <time>2016-08-18T17:39:35Z</time>
      </trkpt>
      <trkpt lat="47.19261" lon="3.23694">
        <ele>249</ele>
        <time>2016-08-18T17:39:36Z</time>
      </trkpt>
      <trkpt lat="47.19262" lon="3.23684">
        <ele>249</ele>
        <time>2016-08-18T17:39:37Z</time>
      </trkpt>
      <trkpt lat="47.1926" lon="3.23667">
        <ele>248</ele>
        <time>2016-08-18T17:39:39Z</time>
      </trkpt>
      <trkpt lat="47.1926" lon="3.23663">
        <ele>248</ele>
        <time>2016-08-18T17:39:39Z</time>
      </trkpt>
      <trkpt lat="47.19258" lon="3.23653">
        <ele>247</ele>
        <time>2016-08-18T17:39:40Z</time>
      </trkpt>
      <trkpt lat="47.19255" lon="3.23637">
        <ele>246</ele>
        <time>2016-08-18T17:39:41Z</time>
      </trkpt>
      <trkpt lat="47.19253" lon="3.23631">
        <ele>246</ele>
        <time>2016-08-18T17:39:42Z</time>
      </trkpt>
      <trkpt lat="47.1925" lon="3.23616">
        <ele>245</ele>
        <time>2016-08-18T17:39:43Z</time>
      </trkpt>
      <trkpt lat="47.19249" lon="3.23609">
        <ele>245</ele>
        <time>2016-08-18T17:39:44Z</time>
      </trkpt>
      <trkpt lat="47.19245" lon="3.23594">
        <ele>244</ele>
        <time>2016-08-18T17:39:46Z</time>
      </trkpt>
      <trkpt lat="47.19243" lon="3.23587">
        <ele>243</ele>
        <time>2016-08-18T17:39:46Z</time>
      </trkpt>
      <trkpt lat="47.1924" lon="3.23575">
        <ele>242</ele>
        <time>2016-08-18T17:39:47Z</time>
      </trkpt>
      <trkpt lat="47.19237" lon="3.23562">
        <ele>242</ele>
        <time>2016-08-18T17:39:48Z</time>
      </trkpt>
      <trkpt lat="47.19235" lon="3.23551">
        <ele>241</ele>
        <time>2016-08-18T17:39:49Z</time>
      </trkpt>
      <trkpt lat="47.19233" lon="3.23542">
        <ele>239</ele>
        <time>2016-08-18T17:39:50Z</time>
      </trkpt>
      <trkpt lat="47.1923" lon="3.23531">
        <ele>240</ele>
        <time>2016-08-18T17:39:51Z</time>
      </trkpt>
      <trkpt lat="47.19227" lon="3.23517">
        <ele>240</ele>
        <time>2016-08-18T17:39:52Z</time>
      </trkpt>
      <trkpt lat="47.19225" lon="3.23506">
        <ele>240</ele>
        <time>2016-08-18T17:39:54Z</time>
      </trkpt>
      <trkpt lat="47.19222" lon="3.23495">
        <ele>240</ele>
        <time>2016-08-18T17:39:55Z</time>
      </trkpt>
      <trkpt lat="47.1922" lon="3.23487">
        <ele>239</ele>
        <time>2016-08-18T17:39:55Z</time>
      </trkpt>
      <trkpt lat="47.19217" lon="3.23472">
        <ele>239</ele>
        <time>2016-08-18T17:39:57Z</time>
      </trkpt>
      <trkpt lat="47.19215" lon="3.23462">
        <ele>239</ele>
        <time>2016-08-18T17:39:58Z</time>
      </trkpt>
      <trkpt lat="47.19213" lon="3.23451">
        <ele>238</ele>
        <time>2016-08-18T17:39:59Z</time>
      </trkpt>
      <trkpt lat="47.19211" lon="3.23441">
        <ele>238</ele>
        <time>2016-08-18T17:39:59Z</time>
      </trkpt>
      <trkpt lat="47.19208" lon="3.2343">
        <ele>238</ele>
        <time>2016-08-18T17:40:00Z</time>
      </trkpt>
      <trkpt lat="47.19206" lon="3.23419">
        <ele>238</ele>
        <time>2016-08-18T17:40:01Z</time>
      </trkpt>
      <trkpt lat="47.19202" lon="3.23408">
        <ele>238</ele>
        <time>2016-08-18T17:40:02Z</time>
      </trkpt>
      <trkpt lat="47.19199" lon="3.23397">
        <ele>237</ele>
        <time>2016-08-18T17:40:03Z</time>
      </trkpt>
      <trkpt lat="47.19197" lon="3.23386">
        <ele>237</ele>
        <time>2016-08-18T17:40:04Z</time>
      </trkpt>
      <trkpt lat="47.19194" lon="3.23376">
        <ele>237</ele>
        <time>2016-08-18T17:40:05Z</time>
      </trkpt>
      <trkpt lat="47.19192" lon="3.23364">
        <ele>236</ele>
        <time>2016-08-18T17:40:06Z</time>
      </trkpt>
      <trkpt lat="47.1919" lon="3.23354">
        <ele>236</ele>
        <time>2016-08-18T17:40:07Z</time>
      </trkpt>
      <trkpt lat="47.19187" lon="3.23343">
        <ele>236</ele>
        <time>2016-08-18T17:40:09Z</time>
      </trkpt>
      <trkpt lat="47.19185" lon="3.23332">
        <ele>236</ele>
        <time>2016-08-18T17:40:10Z</time>
      </trkpt>
      <trkpt lat="47.19182" lon="3.2332">
        <ele>235</ele>
        <time>2016-08-18T17:40:11Z</time>
      </trkpt>
      <trkpt lat="47.19177" lon="3.23301">
        <ele>235</ele>
        <time>2016-08-18T17:40:12Z</time>
      </trkpt>
      <trkpt lat="47.19177" lon="3.23299">
        <ele>235</ele>
        <time>2016-08-18T17:40:13Z</time>
      </trkpt>
      <trkpt lat="47.19174" lon="3.23288">
        <ele>234</ele>
        <time>2016-08-18T17:40:14Z</time>
      </trkpt>
      <trkpt lat="47.19172" lon="3.23277">
        <ele>235</ele>
        <time>2016-08-18T17:40:15Z</time>
      </trkpt>
      <trkpt lat="47.19167" lon="3.23258">
        <ele>235</ele>
        <time>2016-08-18T17:40:16Z</time>
      </trkpt>
      <trkpt lat="47.19167" lon="3.23256">
        <ele>235</ele>
        <time>2016-08-18T17:40:17Z</time>
      </trkpt>
      <trkpt lat="47.19165" lon="3.23246">
        <ele>235</ele>
        <time>2016-08-18T17:40:18Z</time>
      </trkpt>
      <trkpt lat="47.19162" lon="3.23236">
        <ele>235</ele>
        <time>2016-08-18T17:40:19Z</time>
      </trkpt>
      <trkpt lat="47.1916" lon="3.23225">
        <ele>234</ele>
        <time>2016-08-18T17:40:20Z</time>
      </trkpt>
      <trkpt lat="47.19158" lon="3.23215">
        <ele>235</ele>
        <time>2016-08-18T17:40:21Z</time>
      </trkpt>
      <trkpt lat="47.19156" lon="3.23205">
        <ele>234</ele>
        <time>2016-08-18T17:40:22Z</time>
      </trkpt>
      <trkpt lat="47.19154" lon="3.23195">
        <ele>234</ele>
        <time>2016-08-18T17:40:23Z</time>
      </trkpt>
      <trkpt lat="47.19151" lon="3.23185">
        <ele>235</ele>
        <time>2016-08-18T17:40:24Z</time>
      </trkpt>
      <trkpt lat="47.19149" lon="3.23175">
        <ele>235</ele>
        <time>2016-08-18T17:40:25Z</time>
      </trkpt>
      <trkpt lat="47.19146" lon="3.23166">
        <ele>235</ele>
        <time>2016-08-18T17:40:26Z</time>
      </trkpt>
      <trkpt lat="47.19142" lon="3.23152">
        <ele>236</ele>
        <time>2016-08-18T17:40:27Z</time>
      </trkpt>
      <trkpt lat="47.19142" lon="3.23147">
        <ele>236</ele>
        <time>2016-08-18T17:40:28Z</time>
      </trkpt>
      <trkpt lat="47.1914" lon="3.23137">
        <ele>236</ele>
        <time>2016-08-18T17:40:29Z</time>
      </trkpt>
      <trkpt lat="47.19137" lon="3.23128">
        <ele>236</ele>
        <time>2016-08-18T17:40:30Z</time>
      </trkpt>
      <trkpt lat="47.19135" lon="3.23118">
        <ele>236</ele>
        <time>2016-08-18T17:40:31Z</time>
      </trkpt>
      <trkpt lat="47.19133" lon="3.23108">
        <ele>236</ele>
        <time>2016-08-18T17:40:32Z</time>
      </trkpt>
      <trkpt lat="47.19131" lon="3.23098">
        <ele>236</ele>
        <time>2016-08-18T17:40:33Z</time>
      </trkpt>
      <trkpt lat="47.19128" lon="3.23088">
        <ele>237</ele>
        <time>2016-08-18T17:40:34Z</time>
      </trkpt>
      <trkpt lat="47.19126" lon="3.23079">
        <ele>238</ele>
        <time>2016-08-18T17:40:35Z</time>
      </trkpt>
      <trkpt lat="47.19123" lon="3.23069">
        <ele>238</ele>
        <time>2016-08-18T17:40:36Z</time>
      </trkpt>
      <trkpt lat="47.19121" lon="3.23061">
        <ele>238</ele>
        <time>2016-08-18T17:40:37Z</time>
      </trkpt>
      <trkpt lat="47.19119" lon="3.23049">
        <ele>238</ele>
        <time>2016-08-18T17:40:38Z</time>
      </trkpt>
      <trkpt lat="47.19117" lon="3.2304">
        <ele>238</ele>
        <time>2016-08-18T17:40:39Z</time>
      </trkpt>
      <trkpt lat="47.19115" lon="3.23032">
        <ele>238</ele>
        <time>2016-08-18T17:40:40Z</time>
      </trkpt>
      <trkpt lat="47.19114" lon="3.23024">
        <ele>238</ele>
        <time>2016-08-18T17:40:41Z</time>
      </trkpt>
      <trkpt lat="47.19111" lon="3.23015">
        <ele>238</ele>
        <time>2016-08-18T17:40:42Z</time>
      </trkpt>
      <trkpt lat="47.1911" lon="3.23007">
        <ele>239</ele>
        <time>2016-08-18T17:40:43Z</time>
      </trkpt>
      <trkpt lat="47.19107" lon="3.22995">
        <ele>239</ele>
        <time>2016-08-18T17:40:45Z</time>
      </trkpt>
      <trkpt lat="47.19106" lon="3.22989">
        <ele>239</ele>
        <time>2016-08-18T17:40:45Z</time>
      </trkpt>
      <trkpt lat="47.19104" lon="3.22979">
        <ele>239</ele>
        <time>2016-08-18T17:40:46Z</time>
      </trkpt>
      <trkpt lat="47.19102" lon="3.2297">
        <ele>239</ele>
        <time>2016-08-18T17:40:47Z</time>
      </trkpt>
      <trkpt lat="47.191" lon="3.22962">
        <ele>239</ele>
        <time>2016-08-18T17:40:48Z</time>
      </trkpt>
      <trkpt lat="47.19098" lon="3.22953">
        <ele>239</ele>
        <time>2016-08-18T17:40:49Z</time>
      </trkpt>
      <trkpt lat="47.19096" lon="3.22944">
        <ele>239</ele>
        <time>2016-08-18T17:40:50Z</time>
      </trkpt>
      <trkpt lat="47.19095" lon="3.22934">
        <ele>239</ele>
        <time>2016-08-18T17:40:51Z</time>
      </trkpt>
      <trkpt lat="47.19093" lon="3.22926">
        <ele>239</ele>
        <time>2016-08-18T17:40:53Z</time>
      </trkpt>
      <trkpt lat="47.19091" lon="3.22917">
        <ele>239</ele>
        <time>2016-08-18T17:40:54Z</time>
      </trkpt>
      <trkpt lat="47.19089" lon="3.22909">
        <ele>239</ele>
        <time>2016-08-18T17:40:55Z</time>
      </trkpt>
      <trkpt lat="47.19087" lon="3.22901">
        <ele>238</ele>
        <time>2016-08-18T17:40:56Z</time>
      </trkpt>
      <trkpt lat="47.19083" lon="3.22886">
        <ele>239</ele>
        <time>2016-08-18T17:40:57Z</time>
      </trkpt>
      <trkpt lat="47.19083" lon="3.22884">
        <ele>239</ele>
        <time>2016-08-18T17:40:58Z</time>
      </trkpt>
      <trkpt lat="47.19081" lon="3.22876">
        <ele>239</ele>
        <time>2016-08-18T17:40:59Z</time>
      </trkpt>
      <trkpt lat="47.19079" lon="3.22867">
        <ele>239</ele>
        <time>2016-08-18T17:41:00Z</time>
      </trkpt>
      <trkpt lat="47.19075" lon="3.22852">
        <ele>238</ele>
        <time>2016-08-18T17:41:02Z</time>
      </trkpt>
      <trkpt lat="47.19075" lon="3.2285">
        <ele>238</ele>
        <time>2016-08-18T17:41:02Z</time>
      </trkpt>
      <trkpt lat="47.19071" lon="3.22833">
        <ele>237</ele>
        <time>2016-08-18T17:41:04Z</time>
      </trkpt>
      <trkpt lat="47.19071" lon="3.22831">
        <ele>237</ele>
        <time>2016-08-18T17:41:04Z</time>
      </trkpt>
      <trkpt lat="47.19069" lon="3.22822">
        <ele>236</ele>
        <time>2016-08-18T17:41:05Z</time>
      </trkpt>
      <trkpt lat="47.19066" lon="3.22812">
        <ele>236</ele>
        <time>2016-08-18T17:41:06Z</time>
      </trkpt>
      <trkpt lat="47.19064" lon="3.22802">
        <ele>235</ele>
        <time>2016-08-18T17:41:07Z</time>
      </trkpt>
      <trkpt lat="47.19062" lon="3.22792">
        <ele>235</ele>
        <time>2016-08-18T17:41:08Z</time>
      </trkpt>
      <trkpt lat="47.19059" lon="3.22782">
        <ele>235</ele>
        <time>2016-08-18T17:41:09Z</time>
      </trkpt>
      <trkpt lat="47.19056" lon="3.22767">
        <ele>235</ele>
        <time>2016-08-18T17:41:11Z</time>
      </trkpt>
      <trkpt lat="47.19055" lon="3.22763">
        <ele>235</ele>
        <time>2016-08-18T17:41:11Z</time>
      </trkpt>
      <trkpt lat="47.19053" lon="3.22753">
        <ele>234</ele>
        <time>2016-08-18T17:41:12Z</time>
      </trkpt>
      <trkpt lat="47.1905" lon="3.22741">
        <ele>234</ele>
        <time>2016-08-18T17:41:13Z</time>
      </trkpt>
      <trkpt lat="47.19047" lon="3.22731">
        <ele>234</ele>
        <time>2016-08-18T17:41:14Z</time>
      </trkpt>
      <trkpt lat="47.19043" lon="3.22715">
        <ele>235</ele>
        <time>2016-08-18T17:41:15Z</time>
      </trkpt>
      <trkpt lat="47.19041" lon="3.22709">
        <ele>234</ele>
        <time>2016-08-18T17:41:16Z</time>
      </trkpt>
      <trkpt lat="47.19039" lon="3.22698">
        <ele>234</ele>
        <time>2016-08-18T17:41:17Z</time>
      </trkpt>
      <trkpt lat="47.19037" lon="3.22687">
        <ele>233</ele>
        <time>2016-08-18T17:41:18Z</time>
      </trkpt>
      <trkpt lat="47.19034" lon="3.22675">
        <ele>233</ele>
        <time>2016-08-18T17:41:19Z</time>
      </trkpt>
      <trkpt lat="47.19032" lon="3.22664">
        <ele>232</ele>
        <time>2016-08-18T17:41:20Z</time>
      </trkpt>
      <trkpt lat="47.19029" lon="3.22654">
        <ele>232</ele>
        <time>2016-08-18T17:41:21Z</time>
      </trkpt>
      <trkpt lat="47.19027" lon="3.2264">
        <ele>231</ele>
        <time>2016-08-18T17:41:22Z</time>
      </trkpt>
      <trkpt lat="47.19026" lon="3.2263">
        <ele>229</ele>
        <time>2016-08-18T17:41:23Z</time>
      </trkpt>
      <trkpt lat="47.19025" lon="3.22616">
        <ele>231</ele>
        <time>2016-08-18T17:41:25Z</time>
      </trkpt>
      <trkpt lat="47.19025" lon="3.22607">
        <ele>230</ele>
        <time>2016-08-18T17:41:25Z</time>
      </trkpt>
      <trkpt lat="47.19027" lon="3.22594">
        <ele>232</ele>
        <time>2016-08-18T17:41:27Z</time>
      </trkpt>
      <trkpt lat="47.19028" lon="3.22584">
        <ele>232</ele>
        <time>2016-08-18T17:41:28Z</time>
      </trkpt>
      <trkpt lat="47.19029" lon="3.22574">
        <ele>232</ele>
        <time>2016-08-18T17:41:29Z</time>
      </trkpt>
      <trkpt lat="47.19031" lon="3.22565">
        <ele>233</ele>
        <time>2016-08-18T17:41:30Z</time>
      </trkpt>
      <trkpt lat="47.19032" lon="3.22557">
        <ele>233</ele>
        <time>2016-08-18T17:41:30Z</time>
      </trkpt>
      <trkpt lat="47.19032" lon="3.22548">
        <ele>233</ele>
        <time>2016-08-18T17:41:31Z</time>
      </trkpt>
      <trkpt lat="47.1903" lon="3.2254">
        <ele>233</ele>
        <time>2016-08-18T17:41:32Z</time>
      </trkpt>
      <trkpt lat="47.19027" lon="3.22532">
        <ele>232</ele>
        <time>2016-08-18T17:41:33Z</time>
      </trkpt>
      <trkpt lat="47.19023" lon="3.22527">
        <ele>232</ele>
        <time>2016-08-18T17:41:34Z</time>
      </trkpt>
      <trkpt lat="47.19018" lon="3.22522">
        <ele>232</ele>
        <time>2016-08-18T17:41:36Z</time>
      </trkpt>
      <trkpt lat="47.19012" lon="3.22518">
        <ele>232</ele>
        <time>2016-08-18T17:41:37Z</time>
      </trkpt>
      <trkpt lat="47.19006" lon="3.22516">
        <ele>232</ele>
        <time>2016-08-18T17:41:38Z</time>
      </trkpt>
      <trkpt lat="47.18999" lon="3.22515">
        <ele>232</ele>
        <time>2016-08-18T17:41:39Z</time>
      </trkpt>
      <trkpt lat="47.18993" lon="3.22517">
        <ele>232</ele>
        <time>2016-08-18T17:41:40Z</time>
      </trkpt>
      <trkpt lat="47.18986" lon="3.2252">
        <ele>232</ele>
        <time>2016-08-18T17:41:41Z</time>
      </trkpt>
      <trkpt lat="47.18981" lon="3.22525">
        <ele>232</ele>
        <time>2016-08-18T17:41:42Z</time>
      </trkpt>
      <trkpt lat="47.18976" lon="3.22529">
        <ele>232</ele>
        <time>2016-08-18T17:41:43Z</time>
      </trkpt>
      <trkpt lat="47.18973" lon="3.22537">
        <ele>232</ele>
        <time>2016-08-18T17:41:44Z</time>
      </trkpt>
      <trkpt lat="47.1897" lon="3.22545">
        <ele>232</ele>
        <time>2016-08-18T17:41:45Z</time>
      </trkpt>
      <trkpt lat="47.18967" lon="3.22553">
        <ele>232</ele>
        <time>2016-08-18T17:41:46Z</time>
      </trkpt>
      <trkpt lat="47.18963" lon="3.22562">
        <ele>232</ele>
        <time>2016-08-18T17:41:47Z</time>
      </trkpt>
      <trkpt lat="47.18958" lon="3.22573">
        <ele>230</ele>
        <time>2016-08-18T17:41:48Z</time>
      </trkpt>
      <trkpt lat="47.18953" lon="3.22584">
        <ele>230</ele>
        <time>2016-08-18T17:41:49Z</time>
      </trkpt>
      <trkpt lat="47.18948" lon="3.22592">
        <ele>230</ele>
        <time>2016-08-18T17:41:50Z</time>
      </trkpt>
      <trkpt lat="47.18943" lon="3.22603">
        <ele>230</ele>
        <time>2016-08-18T17:41:51Z</time>
      </trkpt>
      <trkpt lat="47.18937" lon="3.22625">
        <ele>227</ele>
        <time>2016-08-18T17:41:52Z</time>
      </trkpt>
      <trkpt lat="47.18938" lon="3.22632">
        <ele>227</ele>
        <time>2016-08-18T17:41:53Z</time>
      </trkpt>
      <trkpt lat="47.1894" lon="3.22645">
        <ele>227</ele>
        <time>2016-08-18T17:41:54Z</time>
      </trkpt>
      <trkpt lat="47.18945" lon="3.22669">
        <ele>225</ele>
        <time>2016-08-18T17:41:56Z</time>
      </trkpt>
      <trkpt lat="47.18946" lon="3.22675">
        <ele>225</ele>
        <time>2016-08-18T17:41:56Z</time>
      </trkpt>
      <trkpt lat="47.18949" lon="3.22695">
        <ele>225</ele>
        <time>2016-08-18T17:41:57Z</time>
      </trkpt>
      <trkpt lat="47.18949" lon="3.22703">
        <ele>224</ele>
        <time>2016-08-18T17:41:58Z</time>
      </trkpt>
      <trkpt lat="47.18948" lon="3.22717">
        <ele>224</ele>
        <time>2016-08-18T17:41:59Z</time>
      </trkpt>
      <trkpt lat="47.18947" lon="3.22731">
        <ele>224</ele>
        <time>2016-08-18T17:42:00Z</time>
      </trkpt>
      <trkpt lat="47.18941" lon="3.2275">
        <ele>223</ele>
        <time>2016-08-18T17:42:02Z</time>
      </trkpt>
      <trkpt lat="47.18936" lon="3.22763">
        <ele>222</ele>
        <time>2016-08-18T17:42:03Z</time>
      </trkpt>
      <trkpt lat="47.18932" lon="3.22769">
        <ele>222</ele>
        <time>2016-08-18T17:42:03Z</time>
      </trkpt>
      <trkpt lat="47.18925" lon="3.22777">
        <ele>222</ele>
        <time>2016-08-18T17:42:04Z</time>
      </trkpt>
      <trkpt lat="47.18917" lon="3.22784">
        <ele>223</ele>
        <time>2016-08-18T17:42:05Z</time>
      </trkpt>
      <trkpt lat="47.1891" lon="3.22789">
        <ele>223</ele>
        <time>2016-08-18T17:42:06Z</time>
      </trkpt>
      <trkpt lat="47.189" lon="3.22796">
        <ele>223</ele>
        <time>2016-08-18T17:42:07Z</time>
      </trkpt>
      <trkpt lat="47.18894" lon="3.228">
        <ele>223</ele>
        <time>2016-08-18T17:42:08Z</time>
      </trkpt>
      <trkpt lat="47.18886" lon="3.22804">
        <ele>223</ele>
        <time>2016-08-18T17:42:09Z</time>
      </trkpt>
      <trkpt lat="47.18879" lon="3.22809">
        <ele>223</ele>
        <time>2016-08-18T17:42:10Z</time>
      </trkpt>
      <trkpt lat="47.18871" lon="3.22814">
        <ele>223</ele>
        <time>2016-08-18T17:42:11Z</time>
      </trkpt>
      <trkpt lat="47.18866" lon="3.22818">
        <ele>224</ele>
        <time>2016-08-18T17:42:12Z</time>
      </trkpt>
      <trkpt lat="47.18857" lon="3.22822">
        <ele>224</ele>
        <time>2016-08-18T17:42:14Z</time>
      </trkpt>
      <trkpt lat="47.1885" lon="3.22826">
        <ele>225</ele>
        <time>2016-08-18T17:42:15Z</time>
      </trkpt>
      <trkpt lat="47.18844" lon="3.22829">
        <ele>225</ele>
        <time>2016-08-18T17:42:16Z</time>
      </trkpt>
      <trkpt lat="47.18839" lon="3.22832">
        <ele>226</ele>
        <time>2016-08-18T17:42:16Z</time>
      </trkpt>
      <trkpt lat="47.18833" lon="3.22835">
        <ele>226</ele>
        <time>2016-08-18T17:42:17Z</time>
      </trkpt>
      <trkpt lat="47.18828" lon="3.22839">
        <ele>227</ele>
        <time>2016-08-18T17:42:18Z</time>
      </trkpt>
      <trkpt lat="47.18823" lon="3.22842">
        <ele>227</ele>
        <time>2016-08-18T17:42:19Z</time>
      </trkpt>
      <trkpt lat="47.18818" lon="3.22844">
        <ele>227</ele>
        <time>2016-08-18T17:42:20Z</time>
      </trkpt>
      <trkpt lat="47.18814" lon="3.22846">
        <ele>228</ele>
        <time>2016-08-18T17:42:22Z</time>
      </trkpt>
      <trkpt lat="47.18811" lon="3.22848">
        <ele>228</ele>
        <time>2016-08-18T17:42:23Z</time>
      </trkpt>
      <trkpt lat="47.18807" lon="3.2285">
        <ele>228</ele>
        <time>2016-08-18T17:42:24Z</time>
      </trkpt>
      <trkpt lat="47.18803" lon="3.22851">
        <ele>228</ele>
        <time>2016-08-18T17:42:25Z</time>
      </trkpt>
      <trkpt lat="47.188" lon="3.22853">
        <ele>228</ele>
        <time>2016-08-18T17:42:26Z</time>
      </trkpt>
      <trkpt lat="47.18796" lon="3.22855">
        <ele>228</ele>
        <time>2016-08-18T17:42:27Z</time>
      </trkpt>
      <trkpt lat="47.18793" lon="3.22857">
        <ele>229</ele>
        <time>2016-08-18T17:42:28Z</time>
      </trkpt>
      <trkpt lat="47.1879" lon="3.22858">
        <ele>229</ele>
        <time>2016-08-18T17:42:29Z</time>
      </trkpt>
      <trkpt lat="47.18786" lon="3.22859">
        <ele>229</ele>
        <time>2016-08-18T17:42:30Z</time>
      </trkpt>
      <trkpt lat="47.18783" lon="3.2286">
        <ele>229</ele>
        <time>2016-08-18T17:42:31Z</time>
      </trkpt>
      <trkpt lat="47.18777" lon="3.22862">
        <ele>229</ele>
        <time>2016-08-18T17:42:33Z</time>
      </trkpt>
      <trkpt lat="47.18776" lon="3.22862">
        <ele>230</ele>
        <time>2016-08-18T17:42:33Z</time>
      </trkpt>
      <trkpt lat="47.18773" lon="3.22861">
        <ele>230</ele>
        <time>2016-08-18T17:42:34Z</time>
      </trkpt>
      <trkpt lat="47.18767" lon="3.22861">
        <ele>230</ele>
        <time>2016-08-18T17:42:35Z</time>
      </trkpt>
      <trkpt lat="47.18763" lon="3.22861">
        <ele>230</ele>
        <time>2016-08-18T17:42:36Z</time>
      </trkpt>
      <trkpt lat="47.18762" lon="3.22861">
        <ele>231</ele>
        <time>2016-08-18T17:42:37Z</time>
      </trkpt>
      <trkpt lat="47.1876" lon="3.22859">
        <ele>231</ele>
        <time>2016-08-18T17:42:38Z</time>
      </trkpt>
      <trkpt lat="47.18757" lon="3.22858">
        <ele>231</ele>
        <time>2016-08-18T17:42:39Z</time>
      </trkpt>
      <trkpt lat="47.18751" lon="3.22855">
        <ele>231</ele>
        <time>2016-08-18T17:42:41Z</time>
      </trkpt>
      <trkpt lat="47.1875" lon="3.22854">
        <ele>232</ele>
        <time>2016-08-18T17:42:41Z</time>
      </trkpt>
      <trkpt lat="47.18748" lon="3.22854">
        <ele>232</ele>
        <time>2016-08-18T17:42:42Z</time>
      </trkpt>
      <trkpt lat="47.18748" lon="3.22854">
        <ele>232</ele>
        <time>2016-08-18T17:42:43Z</time>
      </trkpt>
      <trkpt lat="47.18748" lon="3.22855">
        <ele>232</ele>
        <time>2016-08-18T17:42:44Z</time>
      </trkpt>
      <trkpt lat="47.18748" lon="3.22854">
        <ele>232</ele>
        <time>2016-08-18T17:42:45Z</time>
      </trkpt>
      <trkpt lat="47.18734" lon="3.22849">
        <ele>231</ele>
        <time>2016-08-18T17:42:45Z</time>
      </trkpt>
      <trkpt lat="47.18734" lon="3.22848">
        <ele>231</ele>
        <time>2016-08-18T17:42:46Z</time>
      </trkpt>
      <trkpt lat="47.18734" lon="3.22848">
        <ele>231</ele>
        <time>2016-08-18T17:42:47Z</time>
      </trkpt>
      <trkpt lat="47.18734" lon="3.22848">
        <ele>231</ele>
        <time>2016-08-18T17:42:48Z</time>
      </trkpt>
      <trkpt lat="47.18734" lon="3.22848">
        <ele>231</ele>
        <time>2016-08-18T17:42:48Z</time>
      </trkpt>
      <trkpt lat="47.18734" lon="3.22848">
        <ele>231</ele>
        <time>2016-08-18T17:42:49Z</time>
      </trkpt>
      <trkpt lat="47.18734" lon="3.22848">
        <ele>231</ele>
        <time>2016-08-18T17:42:50Z</time>
      </trkpt>
      <trkpt lat="47.18734" lon="3.22848">
        <ele>231</ele>
        <time>2016-08-18T17:42:50Z</time>
      </trkpt>
      <trkpt lat="47.18734" lon="3.22848">
        <ele>231</ele>
        <time>2016-08-18T17:42:51Z</time>
      </trkpt>
      <trkpt lat="47.18734" lon="3.22848">
        <ele>231</ele>
        <time>2016-08-18T17:42:52Z</time>
      </trkpt>
      <trkpt lat="47.18734" lon="3.22848">
        <ele>231</ele>
        <time>2016-08-18T17:42:52Z</time>
      </trkpt>
      <trkpt lat="47.18734" lon="3.22848">
        <ele>231</ele>
        <time>2016-08-18T17:42:53Z</time>
      </trkpt>
      <trkpt lat="47.18734" lon="3.22848">
        <ele>231</ele>
        <time>2016-08-18T17:42:53Z</time>
      </trkpt>
      <trkpt lat="47.18734" lon="3.22848">
        <ele>231</ele>
        <time>2016-08-18T17:42:54Z</time>
      </trkpt>
      <trkpt lat="47.18705" lon="3.22844">
        <ele>233</ele>
        <time>2016-08-18T17:42:55Z</time>
      </trkpt>
      <trkpt lat="47.18706" lon="3.22844">
        <ele>234</ele>
        <time>2016-08-18T17:42:56Z</time>
      </trkpt>
      <trkpt lat="47.18706" lon="3.22844">
        <ele>234</ele>
        <time>2016-08-18T17:42:57Z</time>
      </trkpt>
      <trkpt lat="47.18693" lon="3.22846">
        <ele>233</ele>
        <time>2016-08-18T17:42:58Z</time>
      </trkpt>
      <trkpt lat="47.18691" lon="3.22845">
        <ele>233</ele>
        <time>2016-08-18T17:42:59Z</time>
      </trkpt>
      <trkpt lat="47.18688" lon="3.22849">
        <ele>232</ele>
        <time>2016-08-18T17:43:00Z</time>
      </trkpt>
      <trkpt lat="47.18686" lon="3.2285">
        <ele>233</ele>
        <time>2016-08-18T17:43:01Z</time>
      </trkpt>
      <trkpt lat="47.18682" lon="3.22851">
        <ele>233</ele>
        <time>2016-08-18T17:43:02Z</time>
      </trkpt>
      <trkpt lat="47.18682" lon="3.22852">
        <ele>233</ele>
        <time>2016-08-18T17:43:03Z</time>
      </trkpt>
      <trkpt lat="47.18682" lon="3.22852">
        <ele>233</ele>
        <time>2016-08-18T17:43:04Z</time>
      </trkpt>
      <trkpt lat="47.18682" lon="3.22851">
        <ele>233</ele>
        <time>2016-08-18T17:43:05Z</time>
      </trkpt>
      <trkpt lat="47.18682" lon="3.22851">
        <ele>233</ele>
        <time>2016-08-18T17:43:05Z</time>
      </trkpt>
      <trkpt lat="47.18682" lon="3.22851">
        <ele>233</ele>
        <time>2016-08-18T17:43:06Z</time>
      </trkpt>
      <trkpt lat="47.18682" lon="3.22851">
        <ele>233</ele>
        <time>2016-08-18T17:43:07Z</time>
      </trkpt>
      <trkpt lat="47.18682" lon="3.22851">
        <ele>233</ele>
        <time>2016-08-18T17:43:07Z</time>
      </trkpt>
      <trkpt lat="47.18682" lon="3.22851">
        <ele>233</ele>
        <time>2016-08-18T17:43:08Z</time>
      </trkpt>
      <trkpt lat="47.18682" lon="3.22851">
        <ele>233</ele>
        <time>2016-08-18T17:43:08Z</time>
      </trkpt>
      <trkpt lat="47.18682" lon="3.22852">
        <ele>233</ele>
        <time>2016-08-18T17:43:09Z</time>
      </trkpt>
      <trkpt lat="47.18682" lon="3.22852">
        <ele>233</ele>
        <time>2016-08-18T17:43:10Z</time>
      </trkpt>
      <trkpt lat="47.18682" lon="3.22852">
        <ele>233</ele>
        <time>2016-08-18T17:43:10Z</time>
      </trkpt>
      <trkpt lat="47.18657" lon="3.22878">
        <ele>236</ele>
        <time>2016-08-18T17:43:11Z</time>
      </trkpt>
      <trkpt lat="47.18658" lon="3.22877">
        <ele>236</ele>
        <time>2016-08-18T17:43:12Z</time>
      </trkpt>
      <trkpt lat="47.18658" lon="3.22877">
        <ele>236</ele>
        <time>2016-08-18T17:43:13Z</time>
      </trkpt>
      <trkpt lat="47.18658" lon="3.22877">
        <ele>236</ele>
        <time>2016-08-18T17:43:14Z</time>
      </trkpt>
      <trkpt lat="47.18658" lon="3.22877">
        <ele>236</ele>
        <time>2016-08-18T17:43:15Z</time>
      </trkpt>
      <trkpt lat="47.18658" lon="3.22877">
        <ele>236</ele>
        <time>2016-08-18T17:43:15Z</time>
      </trkpt>
      <trkpt lat="47.18658" lon="3.22877">
        <ele>236</ele>
        <time>2016-08-18T17:43:16Z</time>
      </trkpt>
      <trkpt lat="47.18658" lon="3.22877">
        <ele>236</ele>
        <time>2016-08-18T17:43:17Z</time>
      </trkpt>
      <trkpt lat="47.18658" lon="3.22877">
        <ele>236</ele>
        <time>2016-08-18T17:43:17Z</time>
      </trkpt>
      <trkpt lat="47.18658" lon="3.22877">
        <ele>236</ele>
        <time>2016-08-18T17:43:18Z</time>
      </trkpt>
      <trkpt lat="47.18658" lon="3.22877">
        <ele>236</ele>
        <time>2016-08-18T17:43:18Z</time>
      </trkpt>
      <trkpt lat="47.18658" lon="3.22877">
        <ele>236</ele>
        <time>2016-08-18T17:43:19Z</time>
      </trkpt>
      <trkpt lat="47.18658" lon="3.22877">
        <ele>236</ele>
        <time>2016-08-18T17:43:20Z</time>
      </trkpt>
      <trkpt lat="47.18658" lon="3.22877">
        <ele>236</ele>
        <time>2016-08-18T17:43:20Z</time>
      </trkpt>
      <trkpt lat="47.18658" lon="3.22877">
        <ele>236</ele>
        <time>2016-08-18T17:43:21Z</time>
      </trkpt>
      <trkpt lat="47.18658" lon="3.22877">
        <ele>236</ele>
        <time>2016-08-18T17:43:21Z</time>
      </trkpt>
      <trkpt lat="47.18658" lon="3.22877">
        <ele>236</ele>
        <time>2016-08-18T17:43:22Z</time>
      </trkpt>
      <trkpt lat="47.18658" lon="3.22877">
        <ele>236</ele>
        <time>2016-08-18T17:43:23Z</time>
      </trkpt>
      <trkpt lat="47.18648" lon="3.22887">
        <ele>236</ele>
        <time>2016-08-18T17:43:24Z</time>
      </trkpt>
      <trkpt lat="47.18637" lon="3.22899">
        <ele>236</ele>
        <time>2016-08-18T17:43:24Z</time>
      </trkpt>
      <trkpt lat="47.18573" lon="3.2297">
        <ele>234</ele>
        <time>2016-08-18T17:43:29Z</time>
      </trkpt>
      <trkpt lat="47.18544" lon="3.23">
        <ele>233</ele>
        <time>2016-08-18T17:43:34Z</time>
      </trkpt>
      <trkpt lat="47.18515" lon="3.23035">
        <ele>231</ele>
        <time>2016-08-18T17:43:39Z</time>
      </trkpt>
      <trkpt lat="47.18485" lon="3.23067">
        <ele>229</ele>
        <time>2016-08-18T17:43:44Z</time>
      </trkpt>
      <trkpt lat="47.18455" lon="3.23097">
        <ele>228</ele>
        <time>2016-08-18T17:43:49Z</time>
      </trkpt>
      <trkpt lat="47.18428" lon="3.23126">
        <ele>229</ele>
        <time>2016-08-18T17:43:54Z</time>
      </trkpt>
      <trkpt lat="47.18401" lon="3.23157">
        <ele>230</ele>
        <time>2016-08-18T17:43:59Z</time>
      </trkpt>
      <trkpt lat="47.18362" lon="3.23202">
        <ele>230</ele>
        <time>2016-08-18T17:44:06Z</time>
      </trkpt>
      <trkpt lat="47.18341" lon="3.23224">
        <ele>233</ele>
        <time>2016-08-18T17:44:10Z</time>
      </trkpt>
      <trkpt lat="47.18317" lon="3.23245">
        <ele>232</ele>
        <time>2016-08-18T17:44:14Z</time>
      </trkpt>
      <trkpt lat="47.18275" lon="3.23263">
        <ele>233</ele>
        <time>2016-08-18T17:44:20Z</time>
      </trkpt>
      <trkpt lat="47.18239" lon="3.23276">
        <ele>232</ele>
        <time>2016-08-18T17:44:24Z</time>
      </trkpt>
      <trkpt lat="47.18186" lon="3.2329">
        <ele>230</ele>
        <time>2016-08-18T17:44:29Z</time>
      </trkpt>
      <trkpt lat="47.18135" lon="3.23272">
        <ele>228</ele>
        <time>2016-08-18T17:44:34Z</time>
      </trkpt>
      <trkpt lat="47.18082" lon="3.23235">
        <ele>228</ele>
        <time>2016-08-18T17:44:41Z</time>
      </trkpt>
      <trkpt lat="47.18063" lon="3.23225">
        <ele>228</ele>
        <time>2016-08-18T17:44:44Z</time>
      </trkpt>
      <trkpt lat="47.18032" lon="3.2321">
        <ele>229</ele>
        <time>2016-08-18T17:44:49Z</time>
      </trkpt>
      <trkpt lat="47.18004" lon="3.23196">
        <ele>230</ele>
        <time>2016-08-18T17:44:55Z</time>
      </trkpt>
      <trkpt lat="47.17989" lon="3.23187">
        <ele>230</ele>
        <time>2016-08-18T17:44:59Z</time>
      </trkpt>
      <trkpt lat="47.17973" lon="3.23179">
        <ele>230</ele>
        <time>2016-08-18T17:45:04Z</time>
      </trkpt>
      <trkpt lat="47.17954" lon="3.2317">
        <ele>232</ele>
        <time>2016-08-18T17:45:09Z</time>
      </trkpt>
      <trkpt lat="47.17939" lon="3.23162">
        <ele>234</ele>
        <time>2016-08-18T17:45:14Z</time>
      </trkpt>
      <trkpt lat="47.17921" lon="3.23154">
        <ele>236</ele>
        <time>2016-08-18T17:45:19Z</time>
      </trkpt>
      <trkpt lat="47.17905" lon="3.23147">
        <ele>236</ele>
        <time>2016-08-18T17:45:24Z</time>
      </trkpt>
      <trkpt lat="47.1789" lon="3.23141">
        <ele>236</ele>
        <time>2016-08-18T17:45:29Z</time>
      </trkpt>
      <trkpt lat="47.17874" lon="3.23132">
        <ele>235</ele>
        <time>2016-08-18T17:45:34Z</time>
      </trkpt>
      <trkpt lat="47.17858" lon="3.23125">
        <ele>236</ele>
        <time>2016-08-18T17:45:39Z</time>
      </trkpt>
      <trkpt lat="47.17843" lon="3.23115">
        <ele>236</ele>
        <time>2016-08-18T17:45:44Z</time>
      </trkpt>
      <trkpt lat="47.17828" lon="3.23109">
        <ele>237</ele>
        <time>2016-08-18T17:45:49Z</time>
      </trkpt>
      <trkpt lat="47.17811" lon="3.231">
        <ele>237</ele>
        <time>2016-08-18T17:45:54Z</time>
      </trkpt>
      <trkpt lat="47.17792" lon="3.23098">
        <ele>238</ele>
        <time>2016-08-18T17:45:59Z</time>
      </trkpt>
      <trkpt lat="47.17772" lon="3.23098">
        <ele>236</ele>
        <time>2016-08-18T17:46:03Z</time>
      </trkpt>
      <trkpt lat="47.17766" lon="3.23096">
        <ele>236</ele>
        <time>2016-08-18T17:46:04Z</time>
      </trkpt>
      <trkpt lat="47.1776" lon="3.23093">
        <ele>237</ele>
        <time>2016-08-18T17:46:06Z</time>
      </trkpt>
      <trkpt lat="47.17754" lon="3.23089">
        <ele>236</ele>
        <time>2016-08-18T17:46:07Z</time>
      </trkpt>
      <trkpt lat="47.17747" lon="3.23084">
        <ele>236</ele>
        <time>2016-08-18T17:46:08Z</time>
      </trkpt>
      <trkpt lat="47.17741" lon="3.23079">
        <ele>235</ele>
        <time>2016-08-18T17:46:09Z</time>
      </trkpt>
      <trkpt lat="47.17734" lon="3.23073">
        <ele>235</ele>
        <time>2016-08-18T17:46:10Z</time>
      </trkpt>
      <trkpt lat="47.17727" lon="3.23069">
        <ele>234</ele>
        <time>2016-08-18T17:46:11Z</time>
      </trkpt>
      <trkpt lat="47.1772" lon="3.23065">
        <ele>234</ele>
        <time>2016-08-18T17:46:12Z</time>
      </trkpt>
      <trkpt lat="47.17712" lon="3.23063">
        <ele>233</ele>
        <time>2016-08-18T17:46:13Z</time>
      </trkpt>
      <trkpt lat="47.17704" lon="3.23062">
        <ele>233</ele>
        <time>2016-08-18T17:46:14Z</time>
      </trkpt>
      <trkpt lat="47.17696" lon="3.23063">
        <ele>232</ele>
        <time>2016-08-18T17:46:15Z</time>
      </trkpt>
      <trkpt lat="47.17687" lon="3.23066">
        <ele>232</ele>
        <time>2016-08-18T17:46:16Z</time>
      </trkpt>
      <trkpt lat="47.17679" lon="3.23069">
        <ele>231</ele>
        <time>2016-08-18T17:46:17Z</time>
      </trkpt>
      <trkpt lat="47.17669" lon="3.23073">
        <ele>230</ele>
        <time>2016-08-18T17:46:19Z</time>
      </trkpt>
      <trkpt lat="47.17668" lon="3.23073">
        <ele>230</ele>
        <time>2016-08-18T17:46:19Z</time>
      </trkpt>
      <trkpt lat="47.17667" lon="3.23074">
        <ele>230</ele>
        <time>2016-08-18T17:46:20Z</time>
      </trkpt>
      <trkpt lat="47.17666" lon="3.23074">
        <ele>231</ele>
        <time>2016-08-18T17:46:21Z</time>
      </trkpt>
      <trkpt lat="47.17665" lon="3.23075">
        <ele>231</ele>
        <time>2016-08-18T17:46:22Z</time>
      </trkpt>
      <trkpt lat="47.17665" lon="3.23075">
        <ele>231</ele>
        <time>2016-08-18T17:46:23Z</time>
      </trkpt>
      <trkpt lat="47.17665" lon="3.23075">
        <ele>231</ele>
        <time>2016-08-18T17:46:23Z</time>
      </trkpt>
      <trkpt lat="47.17665" lon="3.23075">
        <ele>231</ele>
        <time>2016-08-18T17:46:24Z</time>
      </trkpt>
      <trkpt lat="47.17665" lon="3.23075">
        <ele>231</ele>
        <time>2016-08-18T17:46:25Z</time>
      </trkpt>
      <trkpt lat="47.17665" lon="3.23075">
        <ele>231</ele>
        <time>2016-08-18T17:46:26Z</time>
      </trkpt>
      <trkpt lat="47.17665" lon="3.23075">
        <ele>231</ele>
        <time>2016-08-18T17:46:26Z</time>
      </trkpt>
      <trkpt lat="47.17664" lon="3.23076">
        <ele>231</ele>
        <time>2016-08-18T17:46:27Z</time>
      </trkpt>
      <trkpt lat="47.17664" lon="3.23076">
        <ele>231</ele>
        <time>2016-08-18T17:46:28Z</time>
      </trkpt>
      <trkpt lat="47.17663" lon="3.23076">
        <ele>231</ele>
        <time>2016-08-18T17:46:29Z</time>
      </trkpt>
      <trkpt lat="47.17662" lon="3.23077">
        <ele>231</ele>
        <time>2016-08-18T17:46:30Z</time>
      </trkpt>
      <trkpt lat="47.1766" lon="3.23077">
        <ele>232</ele>
        <time>2016-08-18T17:46:32Z</time>
      </trkpt>
      <trkpt lat="47.1766" lon="3.23077">
        <ele>232</ele>
        <time>2016-08-18T17:46:32Z</time>
      </trkpt>
      <trkpt lat="47.17659" lon="3.23078">
        <ele>232</ele>
        <time>2016-08-18T17:46:33Z</time>
      </trkpt>
      <trkpt lat="47.17658" lon="3.23078">
        <ele>232</ele>
        <time>2016-08-18T17:46:34Z</time>
      </trkpt>
      <trkpt lat="47.17657" lon="3.23079">
        <ele>232</ele>
        <time>2016-08-18T17:46:35Z</time>
      </trkpt>
      <trkpt lat="47.17656" lon="3.2308">
        <ele>233</ele>
        <time>2016-08-18T17:46:36Z</time>
      </trkpt>
      <trkpt lat="47.17655" lon="3.2308">
        <ele>233</ele>
        <time>2016-08-18T17:46:37Z</time>
      </trkpt>
      <trkpt lat="47.17655" lon="3.23081">
        <ele>233</ele>
        <time>2016-08-18T17:46:38Z</time>
      </trkpt>
      <trkpt lat="47.17654" lon="3.23082">
        <ele>233</ele>
        <time>2016-08-18T17:46:39Z</time>
      </trkpt>
      <trkpt lat="47.17653" lon="3.23082">
        <ele>233</ele>
        <time>2016-08-18T17:46:40Z</time>
      </trkpt>
      <trkpt lat="47.1765" lon="3.23084">
        <ele>233</ele>
        <time>2016-08-18T17:46:42Z</time>
      </trkpt>
      <trkpt lat="47.1765" lon="3.23085">
        <ele>233</ele>
        <time>2016-08-18T17:46:42Z</time>
      </trkpt>
      <trkpt lat="47.17647" lon="3.23087">
        <ele>233</ele>
        <time>2016-08-18T17:46:43Z</time>
      </trkpt>
      <trkpt lat="47.17643" lon="3.23089">
        <ele>232</ele>
        <time>2016-08-18T17:46:45Z</time>
      </trkpt>
      <trkpt lat="47.1764" lon="3.2309">
        <ele>232</ele>
        <time>2016-08-18T17:46:45Z</time>
      </trkpt>
      <trkpt lat="47.17636" lon="3.23091">
        <ele>232</ele>
        <time>2016-08-18T17:46:46Z</time>
      </trkpt>
      <trkpt lat="47.17632" lon="3.23093">
        <ele>232</ele>
        <time>2016-08-18T17:46:47Z</time>
      </trkpt>
      <trkpt lat="47.17627" lon="3.23096">
        <ele>231</ele>
        <time>2016-08-18T17:46:48Z</time>
      </trkpt>
      <trkpt lat="47.1762" lon="3.23099">
        <ele>231</ele>
        <time>2016-08-18T17:46:50Z</time>
      </trkpt>
      <trkpt lat="47.17614" lon="3.23102">
        <ele>230</ele>
        <time>2016-08-18T17:46:51Z</time>
      </trkpt>
      <trkpt lat="47.17608" lon="3.23105">
        <ele>230</ele>
        <time>2016-08-18T17:46:51Z</time>
      </trkpt>
      <trkpt lat="47.17601" lon="3.23108">
        <ele>229</ele>
        <time>2016-08-18T17:46:53Z</time>
      </trkpt>
      <trkpt lat="47.17593" lon="3.23112">
        <ele>229</ele>
        <time>2016-08-18T17:46:54Z</time>
      </trkpt>
      <trkpt lat="47.17588" lon="3.23115">
        <ele>229</ele>
        <time>2016-08-18T17:46:54Z</time>
      </trkpt>
      <trkpt lat="47.1758" lon="3.23119">
        <ele>227</ele>
        <time>2016-08-18T17:46:55Z</time>
      </trkpt>
      <trkpt lat="47.17573" lon="3.23126">
        <ele>227</ele>
        <time>2016-08-18T17:46:56Z</time>
      </trkpt>
      <trkpt lat="47.17566" lon="3.23132">
        <ele>227</ele>
        <time>2016-08-18T17:46:57Z</time>
      </trkpt>
      <trkpt lat="47.1756" lon="3.23138">
        <ele>227</ele>
        <time>2016-08-18T17:46:58Z</time>
      </trkpt>
      <trkpt lat="47.17553" lon="3.23145">
        <ele>227</ele>
        <time>2016-08-18T17:46:59Z</time>
      </trkpt>
      <trkpt lat="47.17547" lon="3.23153">
        <ele>227</ele>
        <time>2016-08-18T17:47:01Z</time>
      </trkpt>
      <trkpt lat="47.17542" lon="3.2316">
        <ele>227</ele>
        <time>2016-08-18T17:47:02Z</time>
      </trkpt>
      <trkpt lat="47.17536" lon="3.23167">
        <ele>227</ele>
        <time>2016-08-18T17:47:03Z</time>
      </trkpt>
      <trkpt lat="47.17531" lon="3.23174">
        <ele>227</ele>
        <time>2016-08-18T17:47:04Z</time>
      </trkpt>
      <trkpt lat="47.17526" lon="3.23179">
        <ele>227</ele>
        <time>2016-08-18T17:47:05Z</time>
      </trkpt>
      <trkpt lat="47.17521" lon="3.23186">
        <ele>228</ele>
        <time>2016-08-18T17:47:06Z</time>
      </trkpt>
      <trkpt lat="47.17516" lon="3.23192">
        <ele>228</ele>
        <time>2016-08-18T17:47:07Z</time>
      </trkpt>
      <trkpt lat="47.17512" lon="3.23198">
        <ele>228</ele>
        <time>2016-08-18T17:47:08Z</time>
      </trkpt>
      <trkpt lat="47.17508" lon="3.23203">
        <ele>229</ele>
        <time>2016-08-18T17:47:09Z</time>
      </trkpt>
      <trkpt lat="47.17503" lon="3.23209">
        <ele>229</ele>
        <time>2016-08-18T17:47:10Z</time>
      </trkpt>
      <trkpt lat="47.17499" lon="3.23214">
        <ele>229</ele>
        <time>2016-08-18T17:47:11Z</time>
      </trkpt>
      <trkpt lat="47.17495" lon="3.23219">
        <ele>231</ele>
        <time>2016-08-18T17:47:12Z</time>
      </trkpt>
      <trkpt lat="47.17492" lon="3.23223">
        <ele>232</ele>
        <time>2016-08-18T17:47:13Z</time>
      </trkpt>
      <trkpt lat="47.17489" lon="3.23227">
        <ele>232</ele>
        <time>2016-08-18T17:47:14Z</time>
      </trkpt>
      <trkpt lat="47.17486" lon="3.23231">
        <ele>233</ele>
        <time>2016-08-18T17:47:15Z</time>
      </trkpt>
      <trkpt lat="47.17483" lon="3.23234">
        <ele>233</ele>
        <time>2016-08-18T17:47:16Z</time>
      </trkpt>
      <trkpt lat="47.1748" lon="3.23238">
        <ele>233</ele>
        <time>2016-08-18T17:47:17Z</time>
      </trkpt>
      <trkpt lat="47.17478" lon="3.23241">
        <ele>234</ele>
        <time>2016-08-18T17:47:18Z</time>
      </trkpt>
      <trkpt lat="47.17475" lon="3.23244">
        <ele>234</ele>
        <time>2016-08-18T17:47:19Z</time>
      </trkpt>
      <trkpt lat="47.17473" lon="3.23247">
        <ele>234</ele>
        <time>2016-08-18T17:47:20Z</time>
      </trkpt>
      <trkpt lat="47.1747" lon="3.23251">
        <ele>234</ele>
        <time>2016-08-18T17:47:21Z</time>
      </trkpt>
      <trkpt lat="47.17468" lon="3.23254">
        <ele>234</ele>
        <time>2016-08-18T17:47:22Z</time>
      </trkpt>
      <trkpt lat="47.17466" lon="3.23256">
        <ele>234</ele>
        <time>2016-08-18T17:47:23Z</time>
      </trkpt>
      <trkpt lat="47.17463" lon="3.2326">
        <ele>234</ele>
        <time>2016-08-18T17:47:24Z</time>
      </trkpt>
      <trkpt lat="47.17461" lon="3.23263">
        <ele>234</ele>
        <time>2016-08-18T17:47:25Z</time>
      </trkpt>
      <trkpt lat="47.17458" lon="3.23267">
        <ele>234</ele>
        <time>2016-08-18T17:47:26Z</time>
      </trkpt>
      <trkpt lat="47.17456" lon="3.23279">
        <ele>235</ele>
        <time>2016-08-18T17:47:28Z</time>
      </trkpt>
      <trkpt lat="47.17456" lon="3.23279">
        <ele>235</ele>
        <time>2016-08-18T17:47:28Z</time>
      </trkpt>
      <trkpt lat="47.17456" lon="3.2328">
        <ele>235</ele>
        <time>2016-08-18T17:47:29Z</time>
      </trkpt>
      <trkpt lat="47.17452" lon="3.23286">
        <ele>235</ele>
        <time>2016-08-18T17:47:30Z</time>
      </trkpt>
      <trkpt lat="47.17449" lon="3.2329">
        <ele>234</ele>
        <time>2016-08-18T17:47:31Z</time>
      </trkpt>
      <trkpt lat="47.17446" lon="3.23294">
        <ele>233</ele>
        <time>2016-08-18T17:47:32Z</time>
      </trkpt>
      <trkpt lat="47.17443" lon="3.23298">
        <ele>232</ele>
        <time>2016-08-18T17:47:33Z</time>
      </trkpt>
      <trkpt lat="47.17441" lon="3.23301">
        <ele>231</ele>
        <time>2016-08-18T17:47:34Z</time>
      </trkpt>
      <trkpt lat="47.17439" lon="3.23304">
        <ele>231</ele>
        <time>2016-08-18T17:47:35Z</time>
      </trkpt>
      <trkpt lat="47.17436" lon="3.23308">
        <ele>230</ele>
        <time>2016-08-18T17:47:36Z</time>
      </trkpt>
      <trkpt lat="47.17433" lon="3.23311">
        <ele>230</ele>
        <time>2016-08-18T17:47:37Z</time>
      </trkpt>
      <trkpt lat="47.1743" lon="3.23314">
        <ele>230</ele>
        <time>2016-08-18T17:47:38Z</time>
      </trkpt>
      <trkpt lat="47.17429" lon="3.23316">
        <ele>229</ele>
        <time>2016-08-18T17:47:39Z</time>
      </trkpt>
      <trkpt lat="47.17426" lon="3.23319">
        <ele>229</ele>
        <time>2016-08-18T17:47:40Z</time>
      </trkpt>
      <trkpt lat="47.17424" lon="3.23322">
        <ele>229</ele>
        <time>2016-08-18T17:47:41Z</time>
      </trkpt>
      <trkpt lat="47.17422" lon="3.23326">
        <ele>228</ele>
        <time>2016-08-18T17:47:42Z</time>
      </trkpt>
      <trkpt lat="47.17419" lon="3.23329">
        <ele>228</ele>
        <time>2016-08-18T17:47:43Z</time>
      </trkpt>
      <trkpt lat="47.17417" lon="3.23331">
        <ele>227</ele>
        <time>2016-08-18T17:47:44Z</time>
      </trkpt>
      <trkpt lat="47.17415" lon="3.23334">
        <ele>226</ele>
        <time>2016-08-18T17:47:46Z</time>
      </trkpt>
      <trkpt lat="47.17413" lon="3.23337">
        <ele>225</ele>
        <time>2016-08-18T17:47:46Z</time>
      </trkpt>
      <trkpt lat="47.17409" lon="3.23339">
        <ele>226</ele>
        <time>2016-08-18T17:47:48Z</time>
      </trkpt>
      <trkpt lat="47.17407" lon="3.23342">
        <ele>225</ele>
        <time>2016-08-18T17:47:49Z</time>
      </trkpt>
      <trkpt lat="47.17405" lon="3.23345">
        <ele>225</ele>
        <time>2016-08-18T17:47:50Z</time>
      </trkpt>
      <trkpt lat="47.17403" lon="3.23348">
        <ele>226</ele>
        <time>2016-08-18T17:47:51Z</time>
      </trkpt>
      <trkpt lat="47.174" lon="3.23351">
        <ele>226</ele>
        <time>2016-08-18T17:47:52Z</time>
      </trkpt>
      <trkpt lat="47.17398" lon="3.23354">
        <ele>226</ele>
        <time>2016-08-18T17:47:53Z</time>
      </trkpt>
      <trkpt lat="47.17396" lon="3.23357">
        <ele>226</ele>
        <time>2016-08-18T17:47:54Z</time>
      </trkpt>
      <trkpt lat="47.17394" lon="3.2336">
        <ele>226</ele>
        <time>2016-08-18T17:47:55Z</time>
      </trkpt>
      <trkpt lat="47.17392" lon="3.23363">
        <ele>226</ele>
        <time>2016-08-18T17:47:56Z</time>
      </trkpt>
      <trkpt lat="47.1739" lon="3.23366">
        <ele>225</ele>
        <time>2016-08-18T17:47:57Z</time>
      </trkpt>
      <trkpt lat="47.17387" lon="3.23369">
        <ele>224</ele>
        <time>2016-08-18T17:47:58Z</time>
      </trkpt>
      <trkpt lat="47.17385" lon="3.23373">
        <ele>224</ele>
        <time>2016-08-18T17:47:59Z</time>
      </trkpt>
      <trkpt lat="47.17383" lon="3.23376">
        <ele>223</ele>
        <time>2016-08-18T17:48:00Z</time>
      </trkpt>
      <trkpt lat="47.1738" lon="3.23378">
        <ele>223</ele>
        <time>2016-08-18T17:48:01Z</time>
      </trkpt>
      <trkpt lat="47.17378" lon="3.23381">
        <ele>223</ele>
        <time>2016-08-18T17:48:02Z</time>
      </trkpt>
      <trkpt lat="47.17375" lon="3.23384">
        <ele>223</ele>
        <time>2016-08-18T17:48:03Z</time>
      </trkpt>
      <trkpt lat="47.17373" lon="3.23387">
        <ele>222</ele>
        <time>2016-08-18T17:48:04Z</time>
      </trkpt>
      <trkpt lat="47.17371" lon="3.23391">
        <ele>223</ele>
        <time>2016-08-18T17:48:05Z</time>
      </trkpt>
      <trkpt lat="47.17369" lon="3.23393">
        <ele>223</ele>
        <time>2016-08-18T17:48:06Z</time>
      </trkpt>
      <trkpt lat="47.17366" lon="3.23396">
        <ele>222</ele>
        <time>2016-08-18T17:48:07Z</time>
      </trkpt>
      <trkpt lat="47.17364" lon="3.23398">
        <ele>222</ele>
        <time>2016-08-18T17:48:08Z</time>
      </trkpt>
      <trkpt lat="47.1736" lon="3.23402">
        <ele>222</ele>
        <time>2016-08-18T17:48:10Z</time>
      </trkpt>
      <trkpt lat="47.17359" lon="3.23403">
        <ele>223</ele>
        <time>2016-08-18T17:48:10Z</time>
      </trkpt>
      <trkpt lat="47.17355" lon="3.23409">
        <ele>223</ele>
        <time>2016-08-18T17:48:12Z</time>
      </trkpt>
      <trkpt lat="47.17354" lon="3.2341">
        <ele>223</ele>
        <time>2016-08-18T17:48:12Z</time>
      </trkpt>
      <trkpt lat="47.1735" lon="3.23417">
        <ele>223</ele>
        <time>2016-08-18T17:48:14Z</time>
      </trkpt>
      <trkpt lat="47.17349" lon="3.23419">
        <ele>223</ele>
        <time>2016-08-18T17:48:14Z</time>
      </trkpt>
      <trkpt lat="47.17346" lon="3.23424">
        <ele>224</ele>
        <time>2016-08-18T17:48:15Z</time>
      </trkpt>
      <trkpt lat="47.17344" lon="3.23426">
        <ele>224</ele>
        <time>2016-08-18T17:48:16Z</time>
      </trkpt>
      <trkpt lat="47.17342" lon="3.23429">
        <ele>224</ele>
        <time>2016-08-18T17:48:17Z</time>
      </trkpt>
      <trkpt lat="47.1734" lon="3.23431">
        <ele>224</ele>
        <time>2016-08-18T17:48:18Z</time>
      </trkpt>
      <trkpt lat="47.17337" lon="3.23435">
        <ele>224</ele>
        <time>2016-08-18T17:48:19Z</time>
      </trkpt>
      <trkpt lat="47.17335" lon="3.23441">
        <ele>224</ele>
        <time>2016-08-18T17:48:21Z</time>
      </trkpt>
      <trkpt lat="47.17333" lon="3.23443">
        <ele>223</ele>
        <time>2016-08-18T17:48:21Z</time>
      </trkpt>
      <trkpt lat="47.1733" lon="3.23449">
        <ele>224</ele>
        <time>2016-08-18T17:48:23Z</time>
      </trkpt>
      <trkpt lat="47.17329" lon="3.2345">
        <ele>224</ele>
        <time>2016-08-18T17:48:23Z</time>
      </trkpt>
      <trkpt lat="47.17326" lon="3.23454">
        <ele>224</ele>
        <time>2016-08-18T17:48:24Z</time>
      </trkpt>
      <trkpt lat="47.17324" lon="3.23457">
        <ele>224</ele>
        <time>2016-08-18T17:48:25Z</time>
      </trkpt>
      <trkpt lat="47.17322" lon="3.2346">
        <ele>224</ele>
        <time>2016-08-18T17:48:26Z</time>
      </trkpt>
      <trkpt lat="47.17319" lon="3.23464">
        <ele>224</ele>
        <time>2016-08-18T17:48:27Z</time>
      </trkpt>
      <trkpt lat="47.17316" lon="3.23467">
        <ele>224</ele>
        <time>2016-08-18T17:48:28Z</time>
      </trkpt>
      <trkpt lat="47.17313" lon="3.2347">
        <ele>224</ele>
        <time>2016-08-18T17:48:29Z</time>
      </trkpt>
      <trkpt lat="47.1731" lon="3.23474">
        <ele>224</ele>
        <time>2016-08-18T17:48:31Z</time>
      </trkpt>
      <trkpt lat="47.17307" lon="3.23478">
        <ele>224</ele>
        <time>2016-08-18T17:48:32Z</time>
      </trkpt>
      <trkpt lat="47.17304" lon="3.23482">
        <ele>224</ele>
        <time>2016-08-18T17:48:33Z</time>
      </trkpt>
      <trkpt lat="47.17301" lon="3.23486">
        <ele>225</ele>
        <time>2016-08-18T17:48:34Z</time>
      </trkpt>
      <trkpt lat="47.17297" lon="3.23491">
        <ele>225</ele>
        <time>2016-08-18T17:48:35Z</time>
      </trkpt>
      <trkpt lat="47.17291" lon="3.23501">
        <ele>226</ele>
        <time>2016-08-18T17:48:36Z</time>
      </trkpt>
      <trkpt lat="47.17291" lon="3.23502">
        <ele>226</ele>
        <time>2016-08-18T17:48:37Z</time>
      </trkpt>
      <trkpt lat="47.17288" lon="3.23506">
        <ele>226</ele>
        <time>2016-08-18T17:48:38Z</time>
      </trkpt>
      <trkpt lat="47.17282" lon="3.23514">
        <ele>225</ele>
        <time>2016-08-18T17:48:40Z</time>
      </trkpt>
      <trkpt lat="47.17281" lon="3.23515">
        <ele>225</ele>
        <time>2016-08-18T17:48:40Z</time>
      </trkpt>
      <trkpt lat="47.17278" lon="3.23519">
        <ele>225</ele>
        <time>2016-08-18T17:48:41Z</time>
      </trkpt>
      <trkpt lat="47.17275" lon="3.23524">
        <ele>225</ele>
        <time>2016-08-18T17:48:42Z</time>
      </trkpt>
      <trkpt lat="47.1727" lon="3.23532">
        <ele>225</ele>
        <time>2016-08-18T17:48:43Z</time>
      </trkpt>
      <trkpt lat="47.17268" lon="3.23534">
        <ele>225</ele>
        <time>2016-08-18T17:48:44Z</time>
      </trkpt>
      <trkpt lat="47.17265" lon="3.23539">
        <ele>224</ele>
        <time>2016-08-18T17:48:45Z</time>
      </trkpt>
      <trkpt lat="47.17261" lon="3.23544">
        <ele>225</ele>
        <time>2016-08-18T17:48:46Z</time>
      </trkpt>
      <trkpt lat="47.17255" lon="3.2355">
        <ele>227</ele>
        <time>2016-08-18T17:48:48Z</time>
      </trkpt>
      <trkpt lat="47.17254" lon="3.23552">
        <ele>227</ele>
        <time>2016-08-18T17:48:48Z</time>
      </trkpt>
      <trkpt lat="47.17251" lon="3.23557">
        <ele>227</ele>
        <time>2016-08-18T17:48:49Z</time>
      </trkpt>
      <trkpt lat="47.17248" lon="3.23562">
        <ele>227</ele>
        <time>2016-08-18T17:48:50Z</time>
      </trkpt>
      <trkpt lat="47.17243" lon="3.23566">
        <ele>227</ele>
        <time>2016-08-18T17:48:51Z</time>
      </trkpt>
      <trkpt lat="47.17239" lon="3.2357">
        <ele>228</ele>
        <time>2016-08-18T17:48:52Z</time>
      </trkpt>
      <trkpt lat="47.17233" lon="3.23577">
        <ele>228</ele>
        <time>2016-08-18T17:48:53Z</time>
      </trkpt>
      <trkpt lat="47.17231" lon="3.2358">
        <ele>228</ele>
        <time>2016-08-18T17:48:54Z</time>
      </trkpt>
      <trkpt lat="47.17227" lon="3.23583">
        <ele>229</ele>
        <time>2016-08-18T17:48:55Z</time>
      </trkpt>
      <trkpt lat="47.17223" lon="3.23588">
        <ele>229</ele>
        <time>2016-08-18T17:48:56Z</time>
      </trkpt>
      <trkpt lat="47.17218" lon="3.23592">
        <ele>229</ele>
        <time>2016-08-18T17:48:57Z</time>
      </trkpt>
      <trkpt lat="47.17213" lon="3.23595">
        <ele>229</ele>
        <time>2016-08-18T17:48:58Z</time>
      </trkpt>
      <trkpt lat="47.17203" lon="3.23599">
        <ele>234</ele>
        <time>2016-08-18T17:49:00Z</time>
      </trkpt>
      <trkpt lat="47.17196" lon="3.23602">
        <ele>237</ele>
        <time>2016-08-18T17:49:01Z</time>
      </trkpt>
      <trkpt lat="47.17191" lon="3.23605">
        <ele>238</ele>
        <time>2016-08-18T17:49:01Z</time>
      </trkpt>
      <trkpt lat="47.17187" lon="3.23608">
        <ele>237</ele>
        <time>2016-08-18T17:49:02Z</time>
      </trkpt>
      <trkpt lat="47.1718" lon="3.23612">
        <ele>239</ele>
        <time>2016-08-18T17:49:03Z</time>
      </trkpt>
      <trkpt lat="47.17175" lon="3.23614">
        <ele>238</ele>
        <time>2016-08-18T17:49:04Z</time>
      </trkpt>
      <trkpt lat="47.17169" lon="3.23617">
        <ele>238</ele>
        <time>2016-08-18T17:49:05Z</time>
      </trkpt>
      <trkpt lat="47.17163" lon="3.2362">
        <ele>238</ele>
        <time>2016-08-18T17:49:06Z</time>
      </trkpt>
      <trkpt lat="47.17156" lon="3.23623">
        <ele>238</ele>
        <time>2016-08-18T17:49:07Z</time>
      </trkpt>
      <trkpt lat="47.17149" lon="3.23626">
        <ele>238</ele>
        <time>2016-08-18T17:49:09Z</time>
      </trkpt>
      <trkpt lat="47.17143" lon="3.23628">
        <ele>237</ele>
        <time>2016-08-18T17:49:09Z</time>
      </trkpt>
      <trkpt lat="47.17136" lon="3.2363">
        <ele>237</ele>
        <time>2016-08-18T17:49:10Z</time>
      </trkpt>
      <trkpt lat="47.17129" lon="3.23634">
        <ele>239</ele>
        <time>2016-08-18T17:49:11Z</time>
      </trkpt>
      <trkpt lat="47.17122" lon="3.23637">
        <ele>239</ele>
        <time>2016-08-18T17:49:12Z</time>
      </trkpt>
      <trkpt lat="47.17115" lon="3.23641">
        <ele>239</ele>
        <time>2016-08-18T17:49:13Z</time>
      </trkpt>
      <trkpt lat="47.17107" lon="3.23645">
        <ele>238</ele>
        <time>2016-08-18T17:49:14Z</time>
      </trkpt>
      <trkpt lat="47.17099" lon="3.23649">
        <ele>239</ele>
        <time>2016-08-18T17:49:15Z</time>
      </trkpt>
      <trkpt lat="47.17091" lon="3.23652">
        <ele>239</ele>
        <time>2016-08-18T17:49:16Z</time>
      </trkpt>
      <trkpt lat="47.17083" lon="3.23655">
        <ele>239</ele>
        <time>2016-08-18T17:49:17Z</time>
      </trkpt>
      <trkpt lat="47.17075" lon="3.23658">
        <ele>239</ele>
        <time>2016-08-18T17:49:18Z</time>
      </trkpt>
      <trkpt lat="47.17067" lon="3.23663">
        <ele>238</ele>
        <time>2016-08-18T17:49:20Z</time>
      </trkpt>
      <trkpt lat="47.17059" lon="3.23666">
        <ele>237</ele>
        <time>2016-08-18T17:49:21Z</time>
      </trkpt>
      <trkpt lat="47.17051" lon="3.2367">
        <ele>237</ele>
        <time>2016-08-18T17:49:22Z</time>
      </trkpt>
      <trkpt lat="47.17043" lon="3.23673">
        <ele>237</ele>
        <time>2016-08-18T17:49:23Z</time>
      </trkpt>
      <trkpt lat="47.17034" lon="3.23676">
        <ele>236</ele>
        <time>2016-08-18T17:49:24Z</time>
      </trkpt>
      <trkpt lat="47.17026" lon="3.23679">
        <ele>236</ele>
        <time>2016-08-18T17:49:25Z</time>
      </trkpt>
      <trkpt lat="47.17018" lon="3.23683">
        <ele>237</ele>
        <time>2016-08-18T17:49:26Z</time>
      </trkpt>
      <trkpt lat="47.1701" lon="3.23685">
        <ele>237</ele>
        <time>2016-08-18T17:49:27Z</time>
      </trkpt>
      <trkpt lat="47.17001" lon="3.23687">
        <ele>236</ele>
        <time>2016-08-18T17:49:28Z</time>
      </trkpt>
      <trkpt lat="47.16993" lon="3.2369">
        <ele>236</ele>
        <time>2016-08-18T17:49:29Z</time>
      </trkpt>
      <trkpt lat="47.16985" lon="3.23692">
        <ele>235</ele>
        <time>2016-08-18T17:49:30Z</time>
      </trkpt>
      <trkpt lat="47.16976" lon="3.23695">
        <ele>235</ele>
        <time>2016-08-18T17:49:31Z</time>
      </trkpt>
      <trkpt lat="47.16968" lon="3.23699">
        <ele>235</ele>
        <time>2016-08-18T17:49:32Z</time>
      </trkpt>
      <trkpt lat="47.16961" lon="3.23701">
        <ele>234</ele>
        <time>2016-08-18T17:49:33Z</time>
      </trkpt>
      <trkpt lat="47.16946" lon="3.23704">
        <ele>234</ele>
        <time>2016-08-18T17:49:34Z</time>
      </trkpt>
      <trkpt lat="47.16943" lon="3.23705">
        <ele>233</ele>
        <time>2016-08-18T17:49:35Z</time>
      </trkpt>
      <trkpt lat="47.16935" lon="3.23708">
        <ele>233</ele>
        <time>2016-08-18T17:49:36Z</time>
      </trkpt>
      <trkpt lat="47.16927" lon="3.23712">
        <ele>233</ele>
        <time>2016-08-18T17:49:37Z</time>
      </trkpt>
      <trkpt lat="47.16914" lon="3.23719">
        <ele>234</ele>
        <time>2016-08-18T17:49:39Z</time>
      </trkpt>
      <trkpt lat="47.16911" lon="3.2372">
        <ele>233</ele>
        <time>2016-08-18T17:49:39Z</time>
      </trkpt>
      <trkpt lat="47.16901" lon="3.23723">
        <ele>232</ele>
        <time>2016-08-18T17:49:40Z</time>
      </trkpt>
      <trkpt lat="47.1689" lon="3.23729">
        <ele>233</ele>
        <time>2016-08-18T17:49:41Z</time>
      </trkpt>
      <trkpt lat="47.16884" lon="3.23732">
        <ele>232</ele>
        <time>2016-08-18T17:49:42Z</time>
      </trkpt>
      <trkpt lat="47.16875" lon="3.23735">
        <ele>231</ele>
        <time>2016-08-18T17:49:43Z</time>
      </trkpt>
      <trkpt lat="47.16863" lon="3.23742">
        <ele>232</ele>
        <time>2016-08-18T17:49:44Z</time>
      </trkpt>
      <trkpt lat="47.16858" lon="3.23744">
        <ele>231</ele>
        <time>2016-08-18T17:49:45Z</time>
      </trkpt>
      <trkpt lat="47.16848" lon="3.23749">
        <ele>230</ele>
        <time>2016-08-18T17:49:46Z</time>
      </trkpt>
      <trkpt lat="47.16839" lon="3.23753">
        <ele>230</ele>
        <time>2016-08-18T17:49:47Z</time>
      </trkpt>
      <trkpt lat="47.16829" lon="3.23757">
        <ele>230</ele>
        <time>2016-08-18T17:49:48Z</time>
      </trkpt>
      <trkpt lat="47.16819" lon="3.23761">
        <ele>230</ele>
        <time>2016-08-18T17:49:49Z</time>
      </trkpt>
      <trkpt lat="47.16809" lon="3.23764">
        <ele>229</ele>
        <time>2016-08-18T17:49:50Z</time>
      </trkpt>
      <trkpt lat="47.16799" lon="3.23768">
        <ele>228</ele>
        <time>2016-08-18T17:49:51Z</time>
      </trkpt>
      <trkpt lat="47.16786" lon="3.23771">
        <ele>229</ele>
        <time>2016-08-18T17:49:52Z</time>
      </trkpt>
      <trkpt lat="47.16775" lon="3.23775">
        <ele>228</ele>
        <time>2016-08-18T17:49:54Z</time>
      </trkpt>
      <trkpt lat="47.16767" lon="3.23778">
        <ele>225</ele>
        <time>2016-08-18T17:49:54Z</time>
      </trkpt>
      <trkpt lat="47.16757" lon="3.23782">
        <ele>224</ele>
        <time>2016-08-18T17:49:55Z</time>
      </trkpt>
      <trkpt lat="47.16747" lon="3.23787">
        <ele>226</ele>
        <time>2016-08-18T17:49:56Z</time>
      </trkpt>
      <trkpt lat="47.16739" lon="3.2379">
        <ele>224</ele>
        <time>2016-08-18T17:49:57Z</time>
      </trkpt>
      <trkpt lat="47.16729" lon="3.23794">
        <ele>223</ele>
        <time>2016-08-18T17:49:58Z</time>
      </trkpt>
      <trkpt lat="47.1672" lon="3.23796">
        <ele>224</ele>
        <time>2016-08-18T17:49:59Z</time>
      </trkpt>
      <trkpt lat="47.1671" lon="3.23799">
        <ele>223</ele>
        <time>2016-08-18T17:50:00Z</time>
      </trkpt>
      <trkpt lat="47.167" lon="3.23804">
        <ele>223</ele>
        <time>2016-08-18T17:50:01Z</time>
      </trkpt>
      <trkpt lat="47.16691" lon="3.23807">
        <ele>222</ele>
        <time>2016-08-18T17:50:02Z</time>
      </trkpt>
      <trkpt lat="47.16682" lon="3.2381">
        <ele>222</ele>
        <time>2016-08-18T17:50:03Z</time>
      </trkpt>
      <trkpt lat="47.16672" lon="3.23816">
        <ele>223</ele>
        <time>2016-08-18T17:50:05Z</time>
      </trkpt>
      <trkpt lat="47.16662" lon="3.23821">
        <ele>223</ele>
        <time>2016-08-18T17:50:06Z</time>
      </trkpt>
      <trkpt lat="47.16653" lon="3.23825">
        <ele>222</ele>
        <time>2016-08-18T17:50:07Z</time>
      </trkpt>
      <trkpt lat="47.16644" lon="3.23828">
        <ele>222</ele>
        <time>2016-08-18T17:50:08Z</time>
      </trkpt>
      <trkpt lat="47.16634" lon="3.23832">
        <ele>222</ele>
        <time>2016-08-18T17:50:09Z</time>
      </trkpt>
      <trkpt lat="47.16625" lon="3.23834">
        <ele>221</ele>
        <time>2016-08-18T17:50:10Z</time>
      </trkpt>
      <trkpt lat="47.16609" lon="3.23841">
        <ele>221</ele>
        <time>2016-08-18T17:50:12Z</time>
      </trkpt>
      <trkpt lat="47.166" lon="3.23846">
        <ele>220</ele>
        <time>2016-08-18T17:50:13Z</time>
      </trkpt>
      <trkpt lat="47.16598" lon="3.23847">
        <ele>219</ele>
        <time>2016-08-18T17:50:13Z</time>
      </trkpt>
      <trkpt lat="47.16589" lon="3.23851">
        <ele>219</ele>
        <time>2016-08-18T17:50:14Z</time>
      </trkpt>
      <trkpt lat="47.16575" lon="3.23856">
        <ele>219</ele>
        <time>2016-08-18T17:50:15Z</time>
      </trkpt>
      <trkpt lat="47.16571" lon="3.23858">
        <ele>218</ele>
        <time>2016-08-18T17:50:16Z</time>
      </trkpt>
      <trkpt lat="47.16563" lon="3.23863">
        <ele>218</ele>
        <time>2016-08-18T17:50:17Z</time>
      </trkpt>
      <trkpt lat="47.16553" lon="3.23867">
        <ele>218</ele>
        <time>2016-08-18T17:50:18Z</time>
      </trkpt>
      <trkpt lat="47.16539" lon="3.23875">
        <ele>217</ele>
        <time>2016-08-18T17:50:20Z</time>
      </trkpt>
      <trkpt lat="47.16531" lon="3.2388">
        <ele>217</ele>
        <time>2016-08-18T17:50:20Z</time>
      </trkpt>
      <trkpt lat="47.16528" lon="3.23882">
        <ele>218</ele>
        <time>2016-08-18T17:50:21Z</time>
      </trkpt>
      <trkpt lat="47.16514" lon="3.23891">
        <ele>217</ele>
        <time>2016-08-18T17:50:23Z</time>
      </trkpt>
      <trkpt lat="47.16511" lon="3.23894">
        <ele>218</ele>
        <time>2016-08-18T17:50:23Z</time>
      </trkpt>
      <trkpt lat="47.16504" lon="3.239">
        <ele>218</ele>
        <time>2016-08-18T17:50:24Z</time>
      </trkpt>
      <trkpt lat="47.16493" lon="3.23908">
        <ele>219</ele>
        <time>2016-08-18T17:50:25Z</time>
      </trkpt>
      <trkpt lat="47.16489" lon="3.23911">
        <ele>219</ele>
        <time>2016-08-18T17:50:26Z</time>
      </trkpt>
      <trkpt lat="47.16483" lon="3.23917">
        <ele>219</ele>
        <time>2016-08-18T17:50:27Z</time>
      </trkpt>
      <trkpt lat="47.16477" lon="3.23923">
        <ele>220</ele>
        <time>2016-08-18T17:50:28Z</time>
      </trkpt>
      <trkpt lat="47.16469" lon="3.23932">
        <ele>220</ele>
        <time>2016-08-18T17:50:30Z</time>
      </trkpt>
      <trkpt lat="47.16466" lon="3.23934">
        <ele>220</ele>
        <time>2016-08-18T17:50:30Z</time>
      </trkpt>
      <trkpt lat="47.16461" lon="3.2394">
        <ele>220</ele>
        <time>2016-08-18T17:50:31Z</time>
      </trkpt>
      <trkpt lat="47.16457" lon="3.23945">
        <ele>220</ele>
        <time>2016-08-18T17:50:32Z</time>
      </trkpt>
      <trkpt lat="47.16452" lon="3.23949">
        <ele>221</ele>
        <time>2016-08-18T17:50:33Z</time>
      </trkpt>
      <trkpt lat="47.16447" lon="3.23953">
        <ele>223</ele>
        <time>2016-08-18T17:50:34Z</time>
      </trkpt>
      <trkpt lat="47.16444" lon="3.23956">
        <ele>223</ele>
        <time>2016-08-18T17:50:35Z</time>
      </trkpt>
      <trkpt lat="47.16439" lon="3.23958">
        <ele>223</ele>
        <time>2016-08-18T17:50:36Z</time>
      </trkpt>
      <trkpt lat="47.16434" lon="3.23961">
        <ele>224</ele>
        <time>2016-08-18T17:50:37Z</time>
      </trkpt>
      <trkpt lat="47.1643" lon="3.23963">
        <ele>224</ele>
        <time>2016-08-18T17:50:38Z</time>
      </trkpt>
      <trkpt lat="47.16425" lon="3.23966">
        <ele>224</ele>
        <time>2016-08-18T17:50:39Z</time>
      </trkpt>
      <trkpt lat="47.16421" lon="3.23968">
        <ele>224</ele>
        <time>2016-08-18T17:50:40Z</time>
      </trkpt>
      <trkpt lat="47.16416" lon="3.23968">
        <ele>224</ele>
        <time>2016-08-18T17:50:41Z</time>
      </trkpt>
      <trkpt lat="47.16411" lon="3.23969">
        <ele>224</ele>
        <time>2016-08-18T17:50:42Z</time>
      </trkpt>
      <trkpt lat="47.16406" lon="3.23969">
        <ele>224</ele>
        <time>2016-08-18T17:50:43Z</time>
      </trkpt>
      <trkpt lat="47.16401" lon="3.23968">
        <ele>224</ele>
        <time>2016-08-18T17:50:44Z</time>
      </trkpt>
      <trkpt lat="47.16396" lon="3.23967">
        <ele>224</ele>
        <time>2016-08-18T17:50:45Z</time>
      </trkpt>
      <trkpt lat="47.16392" lon="3.23966">
        <ele>224</ele>
        <time>2016-08-18T17:50:46Z</time>
      </trkpt>
      <trkpt lat="47.16387" lon="3.23965">
        <ele>224</ele>
        <time>2016-08-18T17:50:48Z</time>
      </trkpt>
      <trkpt lat="47.16383" lon="3.23964">
        <ele>224</ele>
        <time>2016-08-18T17:50:49Z</time>
      </trkpt>
      <trkpt lat="47.16378" lon="3.23962">
        <ele>224</ele>
        <time>2016-08-18T17:50:50Z</time>
      </trkpt>
      <trkpt lat="47.16374" lon="3.2396">
        <ele>224</ele>
        <time>2016-08-18T17:50:51Z</time>
      </trkpt>
      <trkpt lat="47.16369" lon="3.23959">
        <ele>224</ele>
        <time>2016-08-18T17:50:52Z</time>
      </trkpt>
      <trkpt lat="47.16364" lon="3.23957">
        <ele>224</ele>
        <time>2016-08-18T17:50:53Z</time>
      </trkpt>
      <trkpt lat="47.16359" lon="3.23956">
        <ele>224</ele>
        <time>2016-08-18T17:50:54Z</time>
      </trkpt>
      <trkpt lat="47.16354" lon="3.23955">
        <ele>224</ele>
        <time>2016-08-18T17:50:55Z</time>
      </trkpt>
      <trkpt lat="47.16349" lon="3.23954">
        <ele>224</ele>
        <time>2016-08-18T17:50:56Z</time>
      </trkpt>
      <trkpt lat="47.16344" lon="3.23953">
        <ele>224</ele>
        <time>2016-08-18T17:50:57Z</time>
      </trkpt>
      <trkpt lat="47.16338" lon="3.23952">
        <ele>224</ele>
        <time>2016-08-18T17:50:58Z</time>
      </trkpt>
      <trkpt lat="47.16333" lon="3.23952">
        <ele>224</ele>
        <time>2016-08-18T17:50:59Z</time>
      </trkpt>
      <trkpt lat="47.16327" lon="3.23952">
        <ele>224</ele>
        <time>2016-08-18T17:51:00Z</time>
      </trkpt>
      <trkpt lat="47.16318" lon="3.23954">
        <ele>224</ele>
        <time>2016-08-18T17:51:01Z</time>
      </trkpt>
      <trkpt lat="47.16316" lon="3.23954">
        <ele>224</ele>
        <time>2016-08-18T17:51:02Z</time>
      </trkpt>
      <trkpt lat="47.1631" lon="3.23958">
        <ele>224</ele>
        <time>2016-08-18T17:51:03Z</time>
      </trkpt>
      <trkpt lat="47.16305" lon="3.23961">
        <ele>224</ele>
        <time>2016-08-18T17:51:04Z</time>
      </trkpt>
      <trkpt lat="47.16299" lon="3.23968">
        <ele>224</ele>
        <time>2016-08-18T17:51:05Z</time>
      </trkpt>
      <trkpt lat="47.16296" lon="3.23972">
        <ele>225</ele>
        <time>2016-08-18T17:51:06Z</time>
      </trkpt>
      <trkpt lat="47.16292" lon="3.23979">
        <ele>225</ele>
        <time>2016-08-18T17:51:07Z</time>
      </trkpt>
      <trkpt lat="47.16288" lon="3.23984">
        <ele>225</ele>
        <time>2016-08-18T17:51:08Z</time>
      </trkpt>
      <trkpt lat="47.16285" lon="3.23989">
        <ele>225</ele>
        <time>2016-08-18T17:51:09Z</time>
      </trkpt>
      <trkpt lat="47.1628" lon="3.23999">
        <ele>225</ele>
        <time>2016-08-18T17:51:10Z</time>
      </trkpt>
      <trkpt lat="47.16278" lon="3.24003">
        <ele>225</ele>
        <time>2016-08-18T17:51:11Z</time>
      </trkpt>
      <trkpt lat="47.16273" lon="3.24012">
        <ele>226</ele>
        <time>2016-08-18T17:51:13Z</time>
      </trkpt>
      <trkpt lat="47.16271" lon="3.24016">
        <ele>226</ele>
        <time>2016-08-18T17:51:13Z</time>
      </trkpt>
      <trkpt lat="47.16266" lon="3.24025">
        <ele>226</ele>
        <time>2016-08-18T17:51:14Z</time>
      </trkpt>
      <trkpt lat="47.16263" lon="3.24032">
        <ele>227</ele>
        <time>2016-08-18T17:51:15Z</time>
      </trkpt>
      <trkpt lat="47.1626" lon="3.24038">
        <ele>227</ele>
        <time>2016-08-18T17:51:16Z</time>
      </trkpt>
      <trkpt lat="47.16256" lon="3.24046">
        <ele>226</ele>
        <time>2016-08-18T17:51:17Z</time>
      </trkpt>
      <trkpt lat="47.16251" lon="3.24056">
        <ele>226</ele>
        <time>2016-08-18T17:51:18Z</time>
      </trkpt>
      <trkpt lat="47.16248" lon="3.24062">
        <ele>226</ele>
        <time>2016-08-18T17:51:19Z</time>
      </trkpt>
      <trkpt lat="47.16244" lon="3.24072">
        <ele>227</ele>
        <time>2016-08-18T17:51:20Z</time>
      </trkpt>
      <trkpt lat="47.1624" lon="3.24079">
        <ele>227</ele>
        <time>2016-08-18T17:51:22Z</time>
      </trkpt>
      <trkpt lat="47.16237" lon="3.24086">
        <ele>227</ele>
        <time>2016-08-18T17:51:23Z</time>
      </trkpt>
      <trkpt lat="47.16233" lon="3.24092">
        <ele>227</ele>
        <time>2016-08-18T17:51:24Z</time>
      </trkpt>
      <trkpt lat="47.1623" lon="3.24097">
        <ele>227</ele>
        <time>2016-08-18T17:51:24Z</time>
      </trkpt>
      <trkpt lat="47.16227" lon="3.24103">
        <ele>228</ele>
        <time>2016-08-18T17:51:25Z</time>
      </trkpt>
      <trkpt lat="47.16224" lon="3.24109">
        <ele>228</ele>
        <time>2016-08-18T17:51:26Z</time>
      </trkpt>
      <trkpt lat="47.16222" lon="3.24113">
        <ele>228</ele>
        <time>2016-08-18T17:51:27Z</time>
      </trkpt>
      <trkpt lat="47.1622" lon="3.24117">
        <ele>228</ele>
        <time>2016-08-18T17:51:28Z</time>
      </trkpt>
      <trkpt lat="47.16217" lon="3.24122">
        <ele>229</ele>
        <time>2016-08-18T17:51:29Z</time>
      </trkpt>
      <trkpt lat="47.16215" lon="3.24126">
        <ele>229</ele>
        <time>2016-08-18T17:51:31Z</time>
      </trkpt>
      <trkpt lat="47.16213" lon="3.2413">
        <ele>229</ele>
        <time>2016-08-18T17:51:32Z</time>
      </trkpt>
      <trkpt lat="47.1621" lon="3.24134">
        <ele>228</ele>
        <time>2016-08-18T17:51:33Z</time>
      </trkpt>
      <trkpt lat="47.16208" lon="3.24138">
        <ele>228</ele>
        <time>2016-08-18T17:51:34Z</time>
      </trkpt>
      <trkpt lat="47.16206" lon="3.24142">
        <ele>228</ele>
        <time>2016-08-18T17:51:35Z</time>
      </trkpt>
      <trkpt lat="47.16204" lon="3.24146">
        <ele>228</ele>
        <time>2016-08-18T17:51:36Z</time>
      </trkpt>
      <trkpt lat="47.16201" lon="3.24151">
        <ele>229</ele>
        <time>2016-08-18T17:51:37Z</time>
      </trkpt>
      <trkpt lat="47.16199" lon="3.24155">
        <ele>228</ele>
        <time>2016-08-18T17:51:38Z</time>
      </trkpt>
      <trkpt lat="47.16194" lon="3.24162">
        <ele>229</ele>
        <time>2016-08-18T17:51:40Z</time>
      </trkpt>
      <trkpt lat="47.16194" lon="3.24163">
        <ele>229</ele>
        <time>2016-08-18T17:51:40Z</time>
      </trkpt>
      <trkpt lat="47.16192" lon="3.24167">
        <ele>229</ele>
        <time>2016-08-18T17:51:41Z</time>
      </trkpt>
      <trkpt lat="47.16188" lon="3.24175">
        <ele>229</ele>
        <time>2016-08-18T17:51:43Z</time>
      </trkpt>
      <trkpt lat="47.16187" lon="3.24176">
        <ele>230</ele>
        <time>2016-08-18T17:51:43Z</time>
      </trkpt>
      <trkpt lat="47.16186" lon="3.24179">
        <ele>230</ele>
        <time>2016-08-18T17:51:44Z</time>
      </trkpt>
      <trkpt lat="47.16183" lon="3.24182">
        <ele>230</ele>
        <time>2016-08-18T17:51:45Z</time>
      </trkpt>
      <trkpt lat="47.16181" lon="3.24186">
        <ele>230</ele>
        <time>2016-08-18T17:51:46Z</time>
      </trkpt>
      <trkpt lat="47.16178" lon="3.24189">
        <ele>230</ele>
        <time>2016-08-18T17:51:47Z</time>
      </trkpt>
      <trkpt lat="47.16176" lon="3.24192">
        <ele>231</ele>
        <time>2016-08-18T17:51:48Z</time>
      </trkpt>
      <trkpt lat="47.16172" lon="3.24195">
        <ele>231</ele>
        <time>2016-08-18T17:51:49Z</time>
      </trkpt>
      <trkpt lat="47.16168" lon="3.24199">
        <ele>232</ele>
        <time>2016-08-18T17:51:50Z</time>
      </trkpt>
      <trkpt lat="47.16165" lon="3.24201">
        <ele>233</ele>
        <time>2016-08-18T17:51:51Z</time>
      </trkpt>
      <trkpt lat="47.16162" lon="3.24204">
        <ele>233</ele>
        <time>2016-08-18T17:51:52Z</time>
      </trkpt>
      <trkpt lat="47.1616" lon="3.24205">
        <ele>233</ele>
        <time>2016-08-18T17:51:53Z</time>
      </trkpt>
      <trkpt lat="47.16157" lon="3.24207">
        <ele>233</ele>
        <time>2016-08-18T17:51:54Z</time>
      </trkpt>
      <trkpt lat="47.16153" lon="3.24208">
        <ele>233</ele>
        <time>2016-08-18T17:51:55Z</time>
      </trkpt>
      <trkpt lat="47.16148" lon="3.2421">
        <ele>233</ele>
        <time>2016-08-18T17:51:57Z</time>
      </trkpt>
      <trkpt lat="47.16145" lon="3.24212">
        <ele>233</ele>
        <time>2016-08-18T17:51:58Z</time>
      </trkpt>
      <trkpt lat="47.16142" lon="3.24213">
        <ele>234</ele>
        <time>2016-08-18T17:51:58Z</time>
      </trkpt>
      <trkpt lat="47.1614" lon="3.24213">
        <ele>234</ele>
        <time>2016-08-18T17:51:59Z</time>
      </trkpt>
      <trkpt lat="47.16136" lon="3.24213">
        <ele>234</ele>
        <time>2016-08-18T17:52:00Z</time>
      </trkpt>
      <trkpt lat="47.16133" lon="3.24213">
        <ele>234</ele>
        <time>2016-08-18T17:52:01Z</time>
      </trkpt>
      <trkpt lat="47.16128" lon="3.24214">
        <ele>233</ele>
        <time>2016-08-18T17:52:02Z</time>
      </trkpt>
      <trkpt lat="47.16124" lon="3.24214">
        <ele>233</ele>
        <time>2016-08-18T17:52:03Z</time>
      </trkpt>
      <trkpt lat="47.16121" lon="3.24215">
        <ele>234</ele>
        <time>2016-08-18T17:52:04Z</time>
      </trkpt>
      <trkpt lat="47.16118" lon="3.24215">
        <ele>234</ele>
        <time>2016-08-18T17:52:05Z</time>
      </trkpt>
      <trkpt lat="47.16113" lon="3.24214">
        <ele>234</ele>
        <time>2016-08-18T17:52:06Z</time>
      </trkpt>
      <trkpt lat="47.16109" lon="3.24214">
        <ele>234</ele>
        <time>2016-08-18T17:52:08Z</time>
      </trkpt>
      <trkpt lat="47.16105" lon="3.24214">
        <ele>234</ele>
        <time>2016-08-18T17:52:09Z</time>
      </trkpt>
      <trkpt lat="47.16102" lon="3.24214">
        <ele>234</ele>
        <time>2016-08-18T17:52:09Z</time>
      </trkpt>
      <trkpt lat="47.16098" lon="3.24213">
        <ele>234</ele>
        <time>2016-08-18T17:52:10Z</time>
      </trkpt>
      <trkpt lat="47.16093" lon="3.24212">
        <ele>234</ele>
        <time>2016-08-18T17:52:11Z</time>
      </trkpt>
      <trkpt lat="47.16089" lon="3.24212">
        <ele>234</ele>
        <time>2016-08-18T17:52:12Z</time>
      </trkpt>
      <trkpt lat="47.16085" lon="3.24212">
        <ele>233</ele>
        <time>2016-08-18T17:52:14Z</time>
      </trkpt>
      <trkpt lat="47.16081" lon="3.2421">
        <ele>233</ele>
        <time>2016-08-18T17:52:14Z</time>
      </trkpt>
      <trkpt lat="47.16077" lon="3.24209">
        <ele>232</ele>
        <time>2016-08-18T17:52:16Z</time>
      </trkpt>
      <trkpt lat="47.16073" lon="3.24208">
        <ele>232</ele>
        <time>2016-08-18T17:52:17Z</time>
      </trkpt>
      <trkpt lat="47.16069" lon="3.24207">
        <ele>232</ele>
        <time>2016-08-18T17:52:18Z</time>
      </trkpt>
      <trkpt lat="47.16062" lon="3.24207">
        <ele>233</ele>
        <time>2016-08-18T17:52:19Z</time>
      </trkpt>
      <trkpt lat="47.16061" lon="3.24207">
        <ele>233</ele>
        <time>2016-08-18T17:52:20Z</time>
      </trkpt>
      <trkpt lat="47.16057" lon="3.24207">
        <ele>233</ele>
        <time>2016-08-18T17:52:21Z</time>
      </trkpt>
      <trkpt lat="47.16053" lon="3.24206">
        <ele>233</ele>
        <time>2016-08-18T17:52:22Z</time>
      </trkpt>
      <trkpt lat="47.16049" lon="3.24206">
        <ele>233</ele>
        <time>2016-08-18T17:52:23Z</time>
      </trkpt>
      <trkpt lat="47.16046" lon="3.24204">
        <ele>233</ele>
        <time>2016-08-18T17:52:24Z</time>
      </trkpt>
      <trkpt lat="47.16042" lon="3.24201">
        <ele>233</ele>
        <time>2016-08-18T17:52:25Z</time>
      </trkpt>
      <trkpt lat="47.16038" lon="3.24196">
        <ele>233</ele>
        <time>2016-08-18T17:52:26Z</time>
      </trkpt>
      <trkpt lat="47.16036" lon="3.24186">
        <ele>233</ele>
        <time>2016-08-18T17:52:27Z</time>
      </trkpt>
      <trkpt lat="47.16035" lon="3.24183">
        <ele>233</ele>
        <time>2016-08-18T17:52:28Z</time>
      </trkpt>
      <trkpt lat="47.16033" lon="3.2417">
        <ele>232</ele>
        <time>2016-08-18T17:52:29Z</time>
      </trkpt>
      <trkpt lat="47.16033" lon="3.24166">
        <ele>232</ele>
        <time>2016-08-18T17:52:30Z</time>
      </trkpt>
      <trkpt lat="47.16031" lon="3.24157">
        <ele>232</ele>
        <time>2016-08-18T17:52:31Z</time>
      </trkpt>
      <trkpt lat="47.1603" lon="3.24147">
        <ele>232</ele>
        <time>2016-08-18T17:52:32Z</time>
      </trkpt>
      <trkpt lat="47.16028" lon="3.24137">
        <ele>231</ele>
        <time>2016-08-18T17:52:33Z</time>
      </trkpt>
      <trkpt lat="47.16026" lon="3.24126">
        <ele>230</ele>
        <time>2016-08-18T17:52:34Z</time>
      </trkpt>
      <trkpt lat="47.16023" lon="3.24108">
        <ele>229</ele>
        <time>2016-08-18T17:52:36Z</time>
      </trkpt>
      <trkpt lat="47.16022" lon="3.24103">
        <ele>228</ele>
        <time>2016-08-18T17:52:36Z</time>
      </trkpt>
      <trkpt lat="47.1602" lon="3.24091">
        <ele>228</ele>
        <time>2016-08-18T17:52:37Z</time>
      </trkpt>
      <trkpt lat="47.16018" lon="3.24077">
        <ele>227</ele>
        <time>2016-08-18T17:52:38Z</time>
      </trkpt>
      <trkpt lat="47.16016" lon="3.24063">
        <ele>226</ele>
        <time>2016-08-18T17:52:39Z</time>
      </trkpt>
      <trkpt lat="47.16012" lon="3.24046">
        <ele>228</ele>
        <time>2016-08-18T17:52:40Z</time>
      </trkpt>
      <trkpt lat="47.16009" lon="3.24031">
        <ele>228</ele>
        <time>2016-08-18T17:52:42Z</time>
      </trkpt>
      <trkpt lat="47.16008" lon="3.24022">
        <ele>227</ele>
        <time>2016-08-18T17:52:42Z</time>
      </trkpt>
      <trkpt lat="47.16006" lon="3.24008">
        <ele>227</ele>
        <time>2016-08-18T17:52:43Z</time>
      </trkpt>
      <trkpt lat="47.16004" lon="3.23994">
        <ele>227</ele>
        <time>2016-08-18T17:52:44Z</time>
      </trkpt>
      <trkpt lat="47.16001" lon="3.23979">
        <ele>228</ele>
        <time>2016-08-18T17:52:45Z</time>
      </trkpt>
      <trkpt lat="47.15999" lon="3.23967">
        <ele>227</ele>
        <time>2016-08-18T17:52:46Z</time>
      </trkpt>
      <trkpt lat="47.15997" lon="3.23954">
        <ele>228</ele>
        <time>2016-08-18T17:52:47Z</time>
      </trkpt>
      <trkpt lat="47.15995" lon="3.2394">
        <ele>227</ele>
        <time>2016-08-18T17:52:48Z</time>
      </trkpt>
      <trkpt lat="47.15994" lon="3.23925">
        <ele>228</ele>
        <time>2016-08-18T17:52:50Z</time>
      </trkpt>
      <trkpt lat="47.15992" lon="3.23914">
        <ele>226</ele>
        <time>2016-08-18T17:52:50Z</time>
      </trkpt>
      <trkpt lat="47.1599" lon="3.23902">
        <ele>228</ele>
        <time>2016-08-18T17:52:51Z</time>
      </trkpt>
      <trkpt lat="47.15989" lon="3.23889">
        <ele>228</ele>
        <time>2016-08-18T17:52:52Z</time>
      </trkpt>
      <trkpt lat="47.15987" lon="3.23877">
        <ele>227</ele>
        <time>2016-08-18T17:52:53Z</time>
      </trkpt>
      <trkpt lat="47.15986" lon="3.23865">
        <ele>225</ele>
        <time>2016-08-18T17:52:54Z</time>
      </trkpt>
      <trkpt lat="47.15984" lon="3.23851">
        <ele>224</ele>
        <time>2016-08-18T17:52:56Z</time>
      </trkpt>
      <trkpt lat="47.15982" lon="3.23839">
        <ele>223</ele>
        <time>2016-08-18T17:52:57Z</time>
      </trkpt>
      <trkpt lat="47.15981" lon="3.23827">
        <ele>222</ele>
        <time>2016-08-18T17:52:57Z</time>
      </trkpt>
      <trkpt lat="47.15979" lon="3.23813">
        <ele>222</ele>
        <time>2016-08-18T17:52:59Z</time>
      </trkpt>
      <trkpt lat="47.15974" lon="3.23787">
        <ele>223</ele>
        <time>2016-08-18T17:53:00Z</time>
      </trkpt>
      <trkpt lat="47.15973" lon="3.23785">
        <ele>222</ele>
        <time>2016-08-18T17:53:01Z</time>
      </trkpt>
      <trkpt lat="47.15971" lon="3.23771">
        <ele>222</ele>
        <time>2016-08-18T17:53:02Z</time>
      </trkpt>
      <trkpt lat="47.15967" lon="3.23745">
        <ele>220</ele>
        <time>2016-08-18T17:53:03Z</time>
      </trkpt>
      <trkpt lat="47.15967" lon="3.23742">
        <ele>220</ele>
        <time>2016-08-18T17:53:04Z</time>
      </trkpt>
      <trkpt lat="47.15965" lon="3.23727">
        <ele>220</ele>
        <time>2016-08-18T17:53:05Z</time>
      </trkpt>
      <trkpt lat="47.15963" lon="3.23714">
        <ele>220</ele>
        <time>2016-08-18T17:53:06Z</time>
      </trkpt>
      <trkpt lat="47.15958" lon="3.2369">
        <ele>220</ele>
        <time>2016-08-18T17:53:08Z</time>
      </trkpt>
      <trkpt lat="47.15958" lon="3.23687">
        <ele>219</ele>
        <time>2016-08-18T17:53:08Z</time>
      </trkpt>
      <trkpt lat="47.15956" lon="3.23674">
        <ele>219</ele>
        <time>2016-08-18T17:53:09Z</time>
      </trkpt>
      <trkpt lat="47.15952" lon="3.23655">
        <ele>218</ele>
        <time>2016-08-18T17:53:10Z</time>
      </trkpt>
      <trkpt lat="47.1595" lon="3.23642">
        <ele>218</ele>
        <time>2016-08-18T17:53:11Z</time>
      </trkpt>
      <trkpt lat="47.1595" lon="3.23638">
        <ele>217</ele>
        <time>2016-08-18T17:53:12Z</time>
      </trkpt>
      <trkpt lat="47.15948" lon="3.23626">
        <ele>218</ele>
        <time>2016-08-18T17:53:13Z</time>
      </trkpt>
      <trkpt lat="47.15945" lon="3.23609">
        <ele>218</ele>
        <time>2016-08-18T17:53:15Z</time>
      </trkpt>
      <trkpt lat="47.15944" lon="3.23604">
        <ele>218</ele>
        <time>2016-08-18T17:53:15Z</time>
      </trkpt>
      <trkpt lat="47.15943" lon="3.23594">
        <ele>218</ele>
        <time>2016-08-18T17:53:16Z</time>
      </trkpt>
      <trkpt lat="47.15941" lon="3.23581">
        <ele>218</ele>
        <time>2016-08-18T17:53:17Z</time>
      </trkpt>
      <trkpt lat="47.15937" lon="3.23565">
        <ele>217</ele>
        <time>2016-08-18T17:53:18Z</time>
      </trkpt>
      <trkpt lat="47.15936" lon="3.23559">
        <ele>217</ele>
        <time>2016-08-18T17:53:19Z</time>
      </trkpt>
      <trkpt lat="47.15934" lon="3.23547">
        <ele>217</ele>
        <time>2016-08-18T17:53:20Z</time>
      </trkpt>
      <trkpt lat="47.15933" lon="3.23535">
        <ele>217</ele>
        <time>2016-08-18T17:53:21Z</time>
      </trkpt>
      <trkpt lat="47.15931" lon="3.23525">
        <ele>217</ele>
        <time>2016-08-18T17:53:22Z</time>
      </trkpt>
      <trkpt lat="47.15928" lon="3.23513">
        <ele>217</ele>
        <time>2016-08-18T17:53:23Z</time>
      </trkpt>
      <trkpt lat="47.15926" lon="3.23501">
        <ele>217</ele>
        <time>2016-08-18T17:53:24Z</time>
      </trkpt>
      <trkpt lat="47.15924" lon="3.23488">
        <ele>217</ele>
        <time>2016-08-18T17:53:25Z</time>
      </trkpt>
      <trkpt lat="47.15923" lon="3.23474">
        <ele>217</ele>
        <time>2016-08-18T17:53:26Z</time>
      </trkpt>
      <trkpt lat="47.15921" lon="3.23461">
        <ele>217</ele>
        <time>2016-08-18T17:53:27Z</time>
      </trkpt>
      <trkpt lat="47.15917" lon="3.23443">
        <ele>215</ele>
        <time>2016-08-18T17:53:29Z</time>
      </trkpt>
      <trkpt lat="47.15916" lon="3.23436">
        <ele>215</ele>
        <time>2016-08-18T17:53:29Z</time>
      </trkpt>
      <trkpt lat="47.15914" lon="3.23424">
        <ele>215</ele>
        <time>2016-08-18T17:53:30Z</time>
      </trkpt>
      <trkpt lat="47.15912" lon="3.23413">
        <ele>214</ele>
        <time>2016-08-18T17:53:31Z</time>
      </trkpt>
      <trkpt lat="47.1591" lon="3.234">
        <ele>214</ele>
        <time>2016-08-18T17:53:32Z</time>
      </trkpt>
      <trkpt lat="47.15907" lon="3.23387">
        <ele>215</ele>
        <time>2016-08-18T17:53:33Z</time>
      </trkpt>
      <trkpt lat="47.15906" lon="3.23376">
        <ele>215</ele>
        <time>2016-08-18T17:53:34Z</time>
      </trkpt>
      <trkpt lat="47.15902" lon="3.23362">
        <ele>216</ele>
        <time>2016-08-18T17:53:36Z</time>
      </trkpt>
      <trkpt lat="47.159" lon="3.23352">
        <ele>216</ele>
        <time>2016-08-18T17:53:37Z</time>
      </trkpt>
      <trkpt lat="47.15898" lon="3.23341">
        <ele>216</ele>
        <time>2016-08-18T17:53:38Z</time>
      </trkpt>
      <trkpt lat="47.15895" lon="3.23332">
        <ele>217</ele>
        <time>2016-08-18T17:53:38Z</time>
      </trkpt>
      <trkpt lat="47.15893" lon="3.23319">
        <ele>217</ele>
        <time>2016-08-18T17:53:40Z</time>
      </trkpt>
      <trkpt lat="47.15892" lon="3.23311">
        <ele>217</ele>
        <time>2016-08-18T17:53:40Z</time>
      </trkpt>
      <trkpt lat="47.15889" lon="3.233">
        <ele>217</ele>
        <time>2016-08-18T17:53:41Z</time>
      </trkpt>
      <trkpt lat="47.15886" lon="3.2329">
        <ele>217</ele>
        <time>2016-08-18T17:53:42Z</time>
      </trkpt>
      <trkpt lat="47.15883" lon="3.2328">
        <ele>217</ele>
        <time>2016-08-18T17:53:43Z</time>
      </trkpt>
      <trkpt lat="47.1588" lon="3.2327">
        <ele>216</ele>
        <time>2016-08-18T17:53:44Z</time>
      </trkpt>
      <trkpt lat="47.15877" lon="3.23261">
        <ele>216</ele>
        <time>2016-08-18T17:53:45Z</time>
      </trkpt>
      <trkpt lat="47.15874" lon="3.23252">
        <ele>217</ele>
        <time>2016-08-18T17:53:47Z</time>
      </trkpt>
      <trkpt lat="47.15871" lon="3.23243">
        <ele>217</ele>
        <time>2016-08-18T17:53:48Z</time>
      </trkpt>
      <trkpt lat="47.15868" lon="3.23235">
        <ele>218</ele>
        <time>2016-08-18T17:53:49Z</time>
      </trkpt>
      <trkpt lat="47.15865" lon="3.23227">
        <ele>219</ele>
        <time>2016-08-18T17:53:50Z</time>
      </trkpt>
      <trkpt lat="47.15862" lon="3.2322">
        <ele>218</ele>
        <time>2016-08-18T17:53:51Z</time>
      </trkpt>
      <trkpt lat="47.1586" lon="3.23213">
        <ele>219</ele>
        <time>2016-08-18T17:53:52Z</time>
      </trkpt>
      <trkpt lat="47.15855" lon="3.232">
        <ele>220</ele>
        <time>2016-08-18T17:53:53Z</time>
      </trkpt>
      <trkpt lat="47.15852" lon="3.23193">
        <ele>220</ele>
        <time>2016-08-18T17:53:55Z</time>
      </trkpt>
      <trkpt lat="47.15852" lon="3.23192">
        <ele>220</ele>
        <time>2016-08-18T17:53:55Z</time>
      </trkpt>
      <trkpt lat="47.1585" lon="3.23186">
        <ele>221</ele>
        <time>2016-08-18T17:53:56Z</time>
      </trkpt>
      <trkpt lat="47.15848" lon="3.2318">
        <ele>221</ele>
        <time>2016-08-18T17:53:57Z</time>
      </trkpt>
      <trkpt lat="47.15844" lon="3.2317">
        <ele>221</ele>
        <time>2016-08-18T17:53:58Z</time>
      </trkpt>
      <trkpt lat="47.15843" lon="3.23168">
        <ele>221</ele>
        <time>2016-08-18T17:53:59Z</time>
      </trkpt>
      <trkpt lat="47.15841" lon="3.23162">
        <ele>221</ele>
        <time>2016-08-18T17:54:00Z</time>
      </trkpt>
      <trkpt lat="47.15839" lon="3.23156">
        <ele>222</ele>
        <time>2016-08-18T17:54:01Z</time>
      </trkpt>
      <trkpt lat="47.15837" lon="3.2315">
        <ele>222</ele>
        <time>2016-08-18T17:54:02Z</time>
      </trkpt>
      <trkpt lat="47.15834" lon="3.23145">
        <ele>222</ele>
        <time>2016-08-18T17:54:03Z</time>
      </trkpt>
      <trkpt lat="47.15832" lon="3.2314">
        <ele>223</ele>
        <time>2016-08-18T17:54:04Z</time>
      </trkpt>
      <trkpt lat="47.1583" lon="3.23136">
        <ele>223</ele>
        <time>2016-08-18T17:54:05Z</time>
      </trkpt>
      <trkpt lat="47.15828" lon="3.23131">
        <ele>223</ele>
        <time>2016-08-18T17:54:06Z</time>
      </trkpt>
      <trkpt lat="47.15826" lon="3.23126">
        <ele>223</ele>
        <time>2016-08-18T17:54:07Z</time>
      </trkpt>
      <trkpt lat="47.15823" lon="3.23119">
        <ele>222</ele>
        <time>2016-08-18T17:54:08Z</time>
      </trkpt>
      <trkpt lat="47.15822" lon="3.23116">
        <ele>223</ele>
        <time>2016-08-18T17:54:09Z</time>
      </trkpt>
      <trkpt lat="47.15819" lon="3.23109">
        <ele>222</ele>
        <time>2016-08-18T17:54:10Z</time>
      </trkpt>
      <trkpt lat="47.15817" lon="3.23104">
        <ele>222</ele>
        <time>2016-08-18T17:54:11Z</time>
      </trkpt>
      <trkpt lat="47.15816" lon="3.23101">
        <ele>223</ele>
        <time>2016-08-18T17:54:12Z</time>
      </trkpt>
      <trkpt lat="47.15814" lon="3.23097">
        <ele>223</ele>
        <time>2016-08-18T17:54:13Z</time>
      </trkpt>
      <trkpt lat="47.15813" lon="3.23093">
        <ele>223</ele>
        <time>2016-08-18T17:54:14Z</time>
      </trkpt>
      <trkpt lat="47.15811" lon="3.23088">
        <ele>223</ele>
        <time>2016-08-18T17:54:15Z</time>
      </trkpt>
      <trkpt lat="47.1581" lon="3.23083">
        <ele>223</ele>
        <time>2016-08-18T17:54:16Z</time>
      </trkpt>
      <trkpt lat="47.15808" lon="3.23078">
        <ele>223</ele>
        <time>2016-08-18T17:54:17Z</time>
      </trkpt>
      <trkpt lat="47.15805" lon="3.23071">
        <ele>222</ele>
        <time>2016-08-18T17:54:18Z</time>
      </trkpt>
      <trkpt lat="47.15804" lon="3.23066">
        <ele>221</ele>
        <time>2016-08-18T17:54:19Z</time>
      </trkpt>
      <trkpt lat="47.15802" lon="3.23062">
        <ele>221</ele>
        <time>2016-08-18T17:54:20Z</time>
      </trkpt>
      <trkpt lat="47.158" lon="3.23057">
        <ele>221</ele>
        <time>2016-08-18T17:54:22Z</time>
      </trkpt>
      <trkpt lat="47.15799" lon="3.23053">
        <ele>222</ele>
        <time>2016-08-18T17:54:22Z</time>
      </trkpt>
      <trkpt lat="47.15797" lon="3.23046">
        <ele>221</ele>
        <time>2016-08-18T17:54:24Z</time>
      </trkpt>
      <trkpt lat="47.15795" lon="3.23042">
        <ele>221</ele>
        <time>2016-08-18T17:54:25Z</time>
      </trkpt>
      <trkpt lat="47.15794" lon="3.23037">
        <ele>221</ele>
        <time>2016-08-18T17:54:25Z</time>
      </trkpt>
      <trkpt lat="47.15792" lon="3.23032">
        <ele>221</ele>
        <time>2016-08-18T17:54:27Z</time>
      </trkpt>
      <trkpt lat="47.15791" lon="3.23029">
        <ele>220</ele>
        <time>2016-08-18T17:54:27Z</time>
      </trkpt>
      <trkpt lat="47.15789" lon="3.23024">
        <ele>220</ele>
        <time>2016-08-18T17:54:28Z</time>
      </trkpt>
      <trkpt lat="47.15788" lon="3.2302">
        <ele>220</ele>
        <time>2016-08-18T17:54:29Z</time>
      </trkpt>
      <trkpt lat="47.15786" lon="3.23016">
        <ele>221</ele>
        <time>2016-08-18T17:54:30Z</time>
      </trkpt>
      <trkpt lat="47.15784" lon="3.23012">
        <ele>221</ele>
        <time>2016-08-18T17:54:31Z</time>
      </trkpt>
      <trkpt lat="47.15782" lon="3.23007">
        <ele>221</ele>
        <time>2016-08-18T17:54:33Z</time>
      </trkpt>
      <trkpt lat="47.1578" lon="3.23003">
        <ele>221</ele>
        <time>2016-08-18T17:54:34Z</time>
      </trkpt>
      <trkpt lat="47.15779" lon="3.22999">
        <ele>221</ele>
        <time>2016-08-18T17:54:35Z</time>
      </trkpt>
      <trkpt lat="47.15775" lon="3.2299">
        <ele>222</ele>
        <time>2016-08-18T17:54:36Z</time>
      </trkpt>
      <trkpt lat="47.15775" lon="3.22989">
        <ele>222</ele>
        <time>2016-08-18T17:54:37Z</time>
      </trkpt>
      <trkpt lat="47.15773" lon="3.22985">
        <ele>222</ele>
        <time>2016-08-18T17:54:38Z</time>
      </trkpt>
      <trkpt lat="47.15772" lon="3.2298">
        <ele>222</ele>
        <time>2016-08-18T17:54:39Z</time>
      </trkpt>
      <trkpt lat="47.15771" lon="3.22976">
        <ele>223</ele>
        <time>2016-08-18T17:54:40Z</time>
      </trkpt>
      <trkpt lat="47.15769" lon="3.22972">
        <ele>223</ele>
        <time>2016-08-18T17:54:41Z</time>
      </trkpt>
      <trkpt lat="47.15768" lon="3.22967">
        <ele>223</ele>
        <time>2016-08-18T17:54:42Z</time>
      </trkpt>
      <trkpt lat="47.15766" lon="3.22963">
        <ele>223</ele>
        <time>2016-08-18T17:54:43Z</time>
      </trkpt>
      <trkpt lat="47.15764" lon="3.22958">
        <ele>224</ele>
        <time>2016-08-18T17:54:44Z</time>
      </trkpt>
      <trkpt lat="47.15762" lon="3.22953">
        <ele>224</ele>
        <time>2016-08-18T17:54:45Z</time>
      </trkpt>
      <trkpt lat="47.1576" lon="3.22948">
        <ele>224</ele>
        <time>2016-08-18T17:54:46Z</time>
      </trkpt>
      <trkpt lat="47.15759" lon="3.22944">
        <ele>224</ele>
        <time>2016-08-18T17:54:47Z</time>
      </trkpt>
      <trkpt lat="47.15758" lon="3.22939">
        <ele>225</ele>
        <time>2016-08-18T17:54:48Z</time>
      </trkpt>
      <trkpt lat="47.15755" lon="3.22933">
        <ele>225</ele>
        <time>2016-08-18T17:54:49Z</time>
      </trkpt>
      <trkpt lat="47.15754" lon="3.2293">
        <ele>225</ele>
        <time>2016-08-18T17:54:50Z</time>
      </trkpt>
      <trkpt lat="47.15753" lon="3.22926">
        <ele>226</ele>
        <time>2016-08-18T17:54:51Z</time>
      </trkpt>
      <trkpt lat="47.15752" lon="3.22922">
        <ele>226</ele>
        <time>2016-08-18T17:54:52Z</time>
      </trkpt>
      <trkpt lat="47.1575" lon="3.22917">
        <ele>227</ele>
        <time>2016-08-18T17:54:53Z</time>
      </trkpt>
      <trkpt lat="47.15749" lon="3.22912">
        <ele>227</ele>
        <time>2016-08-18T17:54:54Z</time>
      </trkpt>
      <trkpt lat="47.15748" lon="3.22908">
        <ele>227</ele>
        <time>2016-08-18T17:54:55Z</time>
      </trkpt>
      <trkpt lat="47.15746" lon="3.22903">
        <ele>227</ele>
        <time>2016-08-18T17:54:56Z</time>
      </trkpt>
      <trkpt lat="47.15744" lon="3.22899">
        <ele>227</ele>
        <time>2016-08-18T17:54:57Z</time>
      </trkpt>
      <trkpt lat="47.15743" lon="3.22893">
        <ele>226</ele>
        <time>2016-08-18T17:54:58Z</time>
      </trkpt>
      <trkpt lat="47.15742" lon="3.22888">
        <ele>226</ele>
        <time>2016-08-18T17:54:59Z</time>
      </trkpt>
      <trkpt lat="47.15741" lon="3.22882">
        <ele>226</ele>
        <time>2016-08-18T17:55:01Z</time>
      </trkpt>
      <trkpt lat="47.15741" lon="3.22877">
        <ele>226</ele>
        <time>2016-08-18T17:55:02Z</time>
      </trkpt>
      <trkpt lat="47.1574" lon="3.22872">
        <ele>226</ele>
        <time>2016-08-18T17:55:02Z</time>
      </trkpt>
      <trkpt lat="47.1574" lon="3.22867">
        <ele>227</ele>
        <time>2016-08-18T17:55:03Z</time>
      </trkpt>
      <trkpt lat="47.1574" lon="3.22862">
        <ele>227</ele>
        <time>2016-08-18T17:55:04Z</time>
      </trkpt>
      <trkpt lat="47.1574" lon="3.22856">
        <ele>227</ele>
        <time>2016-08-18T17:55:05Z</time>
      </trkpt>
      <trkpt lat="47.1574" lon="3.2285">
        <ele>227</ele>
        <time>2016-08-18T17:55:06Z</time>
      </trkpt>
      <trkpt lat="47.1574" lon="3.22845">
        <ele>227</ele>
        <time>2016-08-18T17:55:07Z</time>
      </trkpt>
      <trkpt lat="47.1574" lon="3.22839">
        <ele>227</ele>
        <time>2016-08-18T17:55:09Z</time>
      </trkpt>
      <trkpt lat="47.1574" lon="3.22833">
        <ele>227</ele>
        <time>2016-08-18T17:55:10Z</time>
      </trkpt>
      <trkpt lat="47.15741" lon="3.22827">
        <ele>227</ele>
        <time>2016-08-18T17:55:11Z</time>
      </trkpt>
      <trkpt lat="47.15742" lon="3.2282">
        <ele>226</ele>
        <time>2016-08-18T17:55:12Z</time>
      </trkpt>
      <trkpt lat="47.15743" lon="3.22815">
        <ele>226</ele>
        <time>2016-08-18T17:55:13Z</time>
      </trkpt>
      <trkpt lat="47.15744" lon="3.2281">
        <ele>226</ele>
        <time>2016-08-18T17:55:14Z</time>
      </trkpt>
      <trkpt lat="47.15745" lon="3.22805">
        <ele>226</ele>
        <time>2016-08-18T17:55:15Z</time>
      </trkpt>
      <trkpt lat="47.15746" lon="3.228">
        <ele>226</ele>
        <time>2016-08-18T17:55:16Z</time>
      </trkpt>
      <trkpt lat="47.15748" lon="3.22791">
        <ele>227</ele>
        <time>2016-08-18T17:55:17Z</time>
      </trkpt>
      <trkpt lat="47.15748" lon="3.2279">
        <ele>227</ele>
        <time>2016-08-18T17:55:18Z</time>
      </trkpt>
      <trkpt lat="47.1575" lon="3.22784">
        <ele>227</ele>
        <time>2016-08-18T17:55:19Z</time>
      </trkpt>
      <trkpt lat="47.15752" lon="3.22775">
        <ele>227</ele>
        <time>2016-08-18T17:55:21Z</time>
      </trkpt>
      <trkpt lat="47.15753" lon="3.22774">
        <ele>227</ele>
        <time>2016-08-18T17:55:21Z</time>
      </trkpt>
      <trkpt lat="47.15754" lon="3.22769">
        <ele>227</ele>
        <time>2016-08-18T17:55:22Z</time>
      </trkpt>
      <trkpt lat="47.15756" lon="3.2276">
        <ele>227</ele>
        <time>2016-08-18T17:55:23Z</time>
      </trkpt>
      <trkpt lat="47.15757" lon="3.22758">
        <ele>227</ele>
        <time>2016-08-18T17:55:24Z</time>
      </trkpt>
      <trkpt lat="47.15759" lon="3.22753">
        <ele>228</ele>
        <time>2016-08-18T17:55:25Z</time>
      </trkpt>
      <trkpt lat="47.1576" lon="3.22748">
        <ele>228</ele>
        <time>2016-08-18T17:55:26Z</time>
      </trkpt>
      <trkpt lat="47.15762" lon="3.22743">
        <ele>229</ele>
        <time>2016-08-18T17:55:27Z</time>
      </trkpt>
      <trkpt lat="47.15763" lon="3.22737">
        <ele>229</ele>
        <time>2016-08-18T17:55:28Z</time>
      </trkpt>
      <trkpt lat="47.15764" lon="3.22732">
        <ele>229</ele>
        <time>2016-08-18T17:55:29Z</time>
      </trkpt>
      <trkpt lat="47.15766" lon="3.22726">
        <ele>229</ele>
        <time>2016-08-18T17:55:30Z</time>
      </trkpt>
      <trkpt lat="47.15768" lon="3.2272">
        <ele>229</ele>
        <time>2016-08-18T17:55:31Z</time>
      </trkpt>
      <trkpt lat="47.1577" lon="3.22715">
        <ele>229</ele>
        <time>2016-08-18T17:55:32Z</time>
      </trkpt>
      <trkpt lat="47.15772" lon="3.22706">
        <ele>228</ele>
        <time>2016-08-18T17:55:33Z</time>
      </trkpt>
      <trkpt lat="47.15773" lon="3.22701">
        <ele>228</ele>
        <time>2016-08-18T17:55:34Z</time>
      </trkpt>
      <trkpt lat="47.15775" lon="3.22694">
        <ele>228</ele>
        <time>2016-08-18T17:55:35Z</time>
      </trkpt>
      <trkpt lat="47.15776" lon="3.2269">
        <ele>228</ele>
        <time>2016-08-18T17:55:36Z</time>
      </trkpt>
      <trkpt lat="47.15777" lon="3.22684">
        <ele>228</ele>
        <time>2016-08-18T17:55:37Z</time>
      </trkpt>
      <trkpt lat="47.15778" lon="3.22678">
        <ele>228</ele>
        <time>2016-08-18T17:55:38Z</time>
      </trkpt>
      <trkpt lat="47.1578" lon="3.22671">
        <ele>228</ele>
        <time>2016-08-18T17:55:39Z</time>
      </trkpt>
      <trkpt lat="47.15782" lon="3.22664">
        <ele>228</ele>
        <time>2016-08-18T17:55:40Z</time>
      </trkpt>
      <trkpt lat="47.15784" lon="3.22658">
        <ele>228</ele>
        <time>2016-08-18T17:55:41Z</time>
      </trkpt>
      <trkpt lat="47.15786" lon="3.2265">
        <ele>228</ele>
        <time>2016-08-18T17:55:42Z</time>
      </trkpt>
      <trkpt lat="47.15789" lon="3.22644">
        <ele>227</ele>
        <time>2016-08-18T17:55:43Z</time>
      </trkpt>
      <trkpt lat="47.15791" lon="3.22635">
        <ele>227</ele>
        <time>2016-08-18T17:55:44Z</time>
      </trkpt>
      <trkpt lat="47.15794" lon="3.22628">
        <ele>227</ele>
        <time>2016-08-18T17:55:45Z</time>
      </trkpt>
      <trkpt lat="47.15795" lon="3.22621">
        <ele>226</ele>
        <time>2016-08-18T17:55:46Z</time>
      </trkpt>
      <trkpt lat="47.15798" lon="3.22612">
        <ele>226</ele>
        <time>2016-08-18T17:55:47Z</time>
      </trkpt>
      <trkpt lat="47.15801" lon="3.22603">
        <ele>226</ele>
        <time>2016-08-18T17:55:48Z</time>
      </trkpt>
      <trkpt lat="47.15804" lon="3.22593">
        <ele>226</ele>
        <time>2016-08-18T17:55:49Z</time>
      </trkpt>
      <trkpt lat="47.15807" lon="3.22582">
        <ele>225</ele>
        <time>2016-08-18T17:55:50Z</time>
      </trkpt>
      <trkpt lat="47.1581" lon="3.22571">
        <ele>224</ele>
        <time>2016-08-18T17:55:51Z</time>
      </trkpt>
      <trkpt lat="47.15813" lon="3.22559">
        <ele>224</ele>
        <time>2016-08-18T17:55:52Z</time>
      </trkpt>
      <trkpt lat="47.15816" lon="3.22547">
        <ele>224</ele>
        <time>2016-08-18T17:55:53Z</time>
      </trkpt>
      <trkpt lat="47.1582" lon="3.22535">
        <ele>223</ele>
        <time>2016-08-18T17:55:54Z</time>
      </trkpt>
      <trkpt lat="47.15823" lon="3.22522">
        <ele>222</ele>
        <time>2016-08-18T17:55:56Z</time>
      </trkpt>
      <trkpt lat="47.15827" lon="3.22508">
        <ele>222</ele>
        <time>2016-08-18T17:55:56Z</time>
      </trkpt>
      <trkpt lat="47.15831" lon="3.22495">
        <ele>221</ele>
        <time>2016-08-18T17:55:58Z</time>
      </trkpt>
      <trkpt lat="47.15835" lon="3.2248">
        <ele>220</ele>
        <time>2016-08-18T17:55:59Z</time>
      </trkpt>
      <trkpt lat="47.15839" lon="3.22464">
        <ele>219</ele>
        <time>2016-08-18T17:56:00Z</time>
      </trkpt>
      <trkpt lat="47.15843" lon="3.2245">
        <ele>219</ele>
        <time>2016-08-18T17:56:01Z</time>
      </trkpt>
      <trkpt lat="47.15847" lon="3.22435">
        <ele>219</ele>
        <time>2016-08-18T17:56:02Z</time>
      </trkpt>
      <trkpt lat="47.15854" lon="3.22409">
        <ele>219</ele>
        <time>2016-08-18T17:56:03Z</time>
      </trkpt>
      <trkpt lat="47.15855" lon="3.22406">
        <ele>219</ele>
        <time>2016-08-18T17:56:04Z</time>
      </trkpt>
      <trkpt lat="47.15859" lon="3.22391">
        <ele>219</ele>
        <time>2016-08-18T17:56:05Z</time>
      </trkpt>
      <trkpt lat="47.15862" lon="3.22377">
        <ele>219</ele>
        <time>2016-08-18T17:56:06Z</time>
      </trkpt>
      <trkpt lat="47.15866" lon="3.22364">
        <ele>219</ele>
        <time>2016-08-18T17:56:07Z</time>
      </trkpt>
      <trkpt lat="47.15869" lon="3.22349">
        <ele>219</ele>
        <time>2016-08-18T17:56:08Z</time>
      </trkpt>
      <trkpt lat="47.15875" lon="3.22327">
        <ele>218</ele>
        <time>2016-08-18T17:56:09Z</time>
      </trkpt>
      <trkpt lat="47.15877" lon="3.22322">
        <ele>218</ele>
        <time>2016-08-18T17:56:10Z</time>
      </trkpt>
      <trkpt lat="47.15883" lon="3.22302">
        <ele>218</ele>
        <time>2016-08-18T17:56:11Z</time>
      </trkpt>
      <trkpt lat="47.15884" lon="3.22296">
        <ele>218</ele>
        <time>2016-08-18T17:56:12Z</time>
      </trkpt>
      <trkpt lat="47.15888" lon="3.22283">
        <ele>218</ele>
        <time>2016-08-18T17:56:13Z</time>
      </trkpt>
      <trkpt lat="47.15891" lon="3.22269">
        <ele>218</ele>
        <time>2016-08-18T17:56:14Z</time>
      </trkpt>
      <trkpt lat="47.15897" lon="3.22248">
        <ele>217</ele>
        <time>2016-08-18T17:56:16Z</time>
      </trkpt>
      <trkpt lat="47.15898" lon="3.22243">
        <ele>217</ele>
        <time>2016-08-18T17:56:16Z</time>
      </trkpt>
      <trkpt lat="47.15906" lon="3.22223">
        <ele>217</ele>
        <time>2016-08-18T17:56:17Z</time>
      </trkpt>
      <trkpt lat="47.15907" lon="3.22218">
        <ele>217</ele>
        <time>2016-08-18T17:56:18Z</time>
      </trkpt>
      <trkpt lat="47.15911" lon="3.22204">
        <ele>217</ele>
        <time>2016-08-18T17:56:19Z</time>
      </trkpt>
      <trkpt lat="47.15914" lon="3.22192">
        <ele>217</ele>
        <time>2016-08-18T17:56:20Z</time>
      </trkpt>
      <trkpt lat="47.15919" lon="3.2218">
        <ele>217</ele>
        <time>2016-08-18T17:56:21Z</time>
      </trkpt>
      <trkpt lat="47.15922" lon="3.22166">
        <ele>217</ele>
        <time>2016-08-18T17:56:22Z</time>
      </trkpt>
      <trkpt lat="47.15928" lon="3.22149">
        <ele>216</ele>
        <time>2016-08-18T17:56:23Z</time>
      </trkpt>
      <trkpt lat="47.15931" lon="3.22136">
        <ele>216</ele>
        <time>2016-08-18T17:56:24Z</time>
      </trkpt>
      <trkpt lat="47.15933" lon="3.22129">
        <ele>216</ele>
        <time>2016-08-18T17:56:25Z</time>
      </trkpt>
      <trkpt lat="47.15936" lon="3.22116">
        <ele>215</ele>
        <time>2016-08-18T17:56:26Z</time>
      </trkpt>
      <trkpt lat="47.1594" lon="3.22103">
        <ele>215</ele>
        <time>2016-08-18T17:56:27Z</time>
      </trkpt>
      <trkpt lat="47.15943" lon="3.2209">
        <ele>216</ele>
        <time>2016-08-18T17:56:28Z</time>
      </trkpt>
      <trkpt lat="47.15947" lon="3.22078">
        <ele>215</ele>
        <time>2016-08-18T17:56:29Z</time>
      </trkpt>
      <trkpt lat="47.15951" lon="3.22066">
        <ele>215</ele>
        <time>2016-08-18T17:56:30Z</time>
      </trkpt>
      <trkpt lat="47.15954" lon="3.22054">
        <ele>214</ele>
        <time>2016-08-18T17:56:31Z</time>
      </trkpt>
      <trkpt lat="47.15958" lon="3.22041">
        <ele>214</ele>
        <time>2016-08-18T17:56:32Z</time>
      </trkpt>
      <trkpt lat="47.15961" lon="3.22028">
        <ele>213</ele>
        <time>2016-08-18T17:56:33Z</time>
      </trkpt>
      <trkpt lat="47.15965" lon="3.22016">
        <ele>213</ele>
        <time>2016-08-18T17:56:34Z</time>
      </trkpt>
      <trkpt lat="47.15968" lon="3.22004">
        <ele>213</ele>
        <time>2016-08-18T17:56:35Z</time>
      </trkpt>
      <trkpt lat="47.15971" lon="3.21993">
        <ele>213</ele>
        <time>2016-08-18T17:56:36Z</time>
      </trkpt>
      <trkpt lat="47.15976" lon="3.2198">
        <ele>214</ele>
        <time>2016-08-18T17:56:38Z</time>
      </trkpt>
      <trkpt lat="47.15979" lon="3.21969">
        <ele>213</ele>
        <time>2016-08-18T17:56:39Z</time>
      </trkpt>
      <trkpt lat="47.15982" lon="3.21959">
        <ele>213</ele>
        <time>2016-08-18T17:56:39Z</time>
      </trkpt>
      <trkpt lat="47.15985" lon="3.21948">
        <ele>213</ele>
        <time>2016-08-18T17:56:40Z</time>
      </trkpt>
      <trkpt lat="47.15988" lon="3.21936">
        <ele>213</ele>
        <time>2016-08-18T17:56:42Z</time>
      </trkpt>
      <trkpt lat="47.15991" lon="3.21925">
        <ele>213</ele>
        <time>2016-08-18T17:56:42Z</time>
      </trkpt>
      <trkpt lat="47.15994" lon="3.21913">
        <ele>213</ele>
        <time>2016-08-18T17:56:44Z</time>
      </trkpt>
      <trkpt lat="47.15997" lon="3.21902">
        <ele>213</ele>
        <time>2016-08-18T17:56:45Z</time>
      </trkpt>
      <trkpt lat="47.16002" lon="3.21882">
        <ele>213</ele>
        <time>2016-08-18T17:56:46Z</time>
      </trkpt>
      <trkpt lat="47.16002" lon="3.2188">
        <ele>213</ele>
        <time>2016-08-18T17:56:47Z</time>
      </trkpt>
      <trkpt lat="47.16005" lon="3.2187">
        <ele>213</ele>
        <time>2016-08-18T17:56:48Z</time>
      </trkpt>
      <trkpt lat="47.16008" lon="3.21859">
        <ele>213</ele>
        <time>2016-08-18T17:56:49Z</time>
      </trkpt>
      <trkpt lat="47.16011" lon="3.21849">
        <ele>213</ele>
        <time>2016-08-18T17:56:50Z</time>
      </trkpt>
      <trkpt lat="47.16013" lon="3.21838">
        <ele>213</ele>
        <time>2016-08-18T17:56:51Z</time>
      </trkpt>
      <trkpt lat="47.16016" lon="3.21828">
        <ele>212</ele>
        <time>2016-08-18T17:56:52Z</time>
      </trkpt>
      <trkpt lat="47.16019" lon="3.21818">
        <ele>212</ele>
        <time>2016-08-18T17:56:53Z</time>
      </trkpt>
      <trkpt lat="47.16022" lon="3.21809">
        <ele>212</ele>
        <time>2016-08-18T17:56:54Z</time>
      </trkpt>
      <trkpt lat="47.16023" lon="3.218">
        <ele>212</ele>
        <time>2016-08-18T17:56:55Z</time>
      </trkpt>
      <trkpt lat="47.16021" lon="3.21792">
        <ele>212</ele>
        <time>2016-08-18T17:56:56Z</time>
      </trkpt>
      <trkpt lat="47.16016" lon="3.21779">
        <ele>211</ele>
        <time>2016-08-18T17:56:57Z</time>
      </trkpt>
      <trkpt lat="47.16014" lon="3.21777">
        <ele>211</ele>
        <time>2016-08-18T17:56:58Z</time>
      </trkpt>
      <trkpt lat="47.16006" lon="3.21767">
        <ele>211</ele>
        <time>2016-08-18T17:56:59Z</time>
      </trkpt>
      <trkpt lat="47.16004" lon="3.21764">
        <ele>211</ele>
        <time>2016-08-18T17:57:00Z</time>
      </trkpt>
      <trkpt lat="47.16" lon="3.21758">
        <ele>211</ele>
        <time>2016-08-18T17:57:01Z</time>
      </trkpt>
      <trkpt lat="47.15995" lon="3.21751">
        <ele>211</ele>
        <time>2016-08-18T17:57:02Z</time>
      </trkpt>
      <trkpt lat="47.15988" lon="3.21742">
        <ele>211</ele>
        <time>2016-08-18T17:57:04Z</time>
      </trkpt>
      <trkpt lat="47.15983" lon="3.21738">
        <ele>211</ele>
        <time>2016-08-18T17:57:05Z</time>
      </trkpt>
      <trkpt lat="47.15982" lon="3.21735">
        <ele>211</ele>
        <time>2016-08-18T17:57:05Z</time>
      </trkpt>
      <trkpt lat="47.15975" lon="3.21727">
        <ele>211</ele>
        <time>2016-08-18T17:57:06Z</time>
      </trkpt>
      <trkpt lat="47.15972" lon="3.21723">
        <ele>212</ele>
        <time>2016-08-18T17:57:07Z</time>
      </trkpt>
      <trkpt lat="47.15966" lon="3.21716">
        <ele>212</ele>
        <time>2016-08-18T17:57:08Z</time>
      </trkpt>
      <trkpt lat="47.15963" lon="3.21712">
        <ele>212</ele>
        <time>2016-08-18T17:57:09Z</time>
      </trkpt>
      <trkpt lat="47.15958" lon="3.21707">
        <ele>212</ele>
        <time>2016-08-18T17:57:10Z</time>
      </trkpt>
      <trkpt lat="47.15954" lon="3.21702">
        <ele>213</ele>
        <time>2016-08-18T17:57:12Z</time>
      </trkpt>
      <trkpt lat="47.15951" lon="3.21698">
        <ele>213</ele>
        <time>2016-08-18T17:57:12Z</time>
      </trkpt>
      <trkpt lat="47.15948" lon="3.21694">
        <ele>213</ele>
        <time>2016-08-18T17:57:13Z</time>
      </trkpt>
      <trkpt lat="47.15944" lon="3.2169">
        <ele>213</ele>
        <time>2016-08-18T17:57:14Z</time>
      </trkpt>
      <trkpt lat="47.15941" lon="3.21686">
        <ele>213</ele>
        <time>2016-08-18T17:57:15Z</time>
      </trkpt>
      <trkpt lat="47.15938" lon="3.21683">
        <ele>214</ele>
        <time>2016-08-18T17:57:16Z</time>
      </trkpt>
      <trkpt lat="47.15935" lon="3.21679">
        <ele>214</ele>
        <time>2016-08-18T17:57:17Z</time>
      </trkpt>
      <trkpt lat="47.15932" lon="3.21676">
        <ele>214</ele>
        <time>2016-08-18T17:57:18Z</time>
      </trkpt>
      <trkpt lat="47.15929" lon="3.21673">
        <ele>215</ele>
        <time>2016-08-18T17:57:19Z</time>
      </trkpt>
      <trkpt lat="47.15926" lon="3.2167">
        <ele>215</ele>
        <time>2016-08-18T17:57:21Z</time>
      </trkpt>
      <trkpt lat="47.15922" lon="3.21668">
        <ele>216</ele>
        <time>2016-08-18T17:57:22Z</time>
      </trkpt>
      <trkpt lat="47.15919" lon="3.21666">
        <ele>216</ele>
        <time>2016-08-18T17:57:23Z</time>
      </trkpt>
      <trkpt lat="47.15916" lon="3.21663">
        <ele>216</ele>
        <time>2016-08-18T17:57:24Z</time>
      </trkpt>
      <trkpt lat="47.15912" lon="3.2166">
        <ele>216</ele>
        <time>2016-08-18T17:57:25Z</time>
      </trkpt>
      <trkpt lat="47.15908" lon="3.21657">
        <ele>216</ele>
        <time>2016-08-18T17:57:26Z</time>
      </trkpt>
      <trkpt lat="47.15905" lon="3.21655">
        <ele>216</ele>
        <time>2016-08-18T17:57:27Z</time>
      </trkpt>
      <trkpt lat="47.15902" lon="3.21653">
        <ele>216</ele>
        <time>2016-08-18T17:57:28Z</time>
      </trkpt>
      <trkpt lat="47.15898" lon="3.21651">
        <ele>216</ele>
        <time>2016-08-18T17:57:29Z</time>
      </trkpt>
      <trkpt lat="47.15896" lon="3.21649">
        <ele>216</ele>
        <time>2016-08-18T17:57:30Z</time>
      </trkpt>
      <trkpt lat="47.15891" lon="3.21646">
        <ele>217</ele>
        <time>2016-08-18T17:57:31Z</time>
      </trkpt>
      <trkpt lat="47.15889" lon="3.21646">
        <ele>217</ele>
        <time>2016-08-18T17:57:32Z</time>
      </trkpt>
      <trkpt lat="47.15886" lon="3.21644">
        <ele>217</ele>
        <time>2016-08-18T17:57:33Z</time>
      </trkpt>
      <trkpt lat="47.15882" lon="3.21643">
        <ele>217</ele>
        <time>2016-08-18T17:57:34Z</time>
      </trkpt>
      <trkpt lat="47.15877" lon="3.21641">
        <ele>217</ele>
        <time>2016-08-18T17:57:36Z</time>
      </trkpt>
      <trkpt lat="47.15875" lon="3.2164">
        <ele>218</ele>
        <time>2016-08-18T17:57:36Z</time>
      </trkpt>
      <trkpt lat="47.15874" lon="3.21639">
        <ele>218</ele>
        <time>2016-08-18T17:57:37Z</time>
      </trkpt>
      <trkpt lat="47.15871" lon="3.21638">
        <ele>218</ele>
        <time>2016-08-18T17:57:38Z</time>
      </trkpt>
      <trkpt lat="47.15866" lon="3.21637">
        <ele>218</ele>
        <time>2016-08-18T17:57:40Z</time>
      </trkpt>
      <trkpt lat="47.15864" lon="3.21636">
        <ele>218</ele>
        <time>2016-08-18T17:57:40Z</time>
      </trkpt>
      <trkpt lat="47.15862" lon="3.21635">
        <ele>218</ele>
        <time>2016-08-18T17:57:41Z</time>
      </trkpt>
      <trkpt lat="47.15858" lon="3.21634">
        <ele>218</ele>
        <time>2016-08-18T17:57:42Z</time>
      </trkpt>
      <trkpt lat="47.15855" lon="3.21633">
        <ele>219</ele>
        <time>2016-08-18T17:57:43Z</time>
      </trkpt>
      <trkpt lat="47.15852" lon="3.21631">
        <ele>219</ele>
        <time>2016-08-18T17:57:44Z</time>
      </trkpt>
      <trkpt lat="47.15849" lon="3.21631">
        <ele>219</ele>
        <time>2016-08-18T17:57:45Z</time>
      </trkpt>
      <trkpt lat="47.15846" lon="3.21631">
        <ele>220</ele>
        <time>2016-08-18T17:57:46Z</time>
      </trkpt>
      <trkpt lat="47.15843" lon="3.21631">
        <ele>220</ele>
        <time>2016-08-18T17:57:47Z</time>
      </trkpt>
      <trkpt lat="47.1584" lon="3.21632">
        <ele>220</ele>
        <time>2016-08-18T17:57:48Z</time>
      </trkpt>
      <trkpt lat="47.15838" lon="3.21632">
        <ele>221</ele>
        <time>2016-08-18T17:57:49Z</time>
      </trkpt>
      <trkpt lat="47.15835" lon="3.21635">
        <ele>223</ele>
        <time>2016-08-18T17:57:50Z</time>
      </trkpt>
      <trkpt lat="47.15832" lon="3.21635">
        <ele>224</ele>
        <time>2016-08-18T17:57:51Z</time>
      </trkpt>
      <trkpt lat="47.15829" lon="3.21635">
        <ele>224</ele>
        <time>2016-08-18T17:57:52Z</time>
      </trkpt>
      <trkpt lat="47.15825" lon="3.21637">
        <ele>226</ele>
        <time>2016-08-18T17:57:54Z</time>
      </trkpt>
      <trkpt lat="47.15824" lon="3.21638">
        <ele>227</ele>
        <time>2016-08-18T17:57:54Z</time>
      </trkpt>
      <trkpt lat="47.1582" lon="3.21638">
        <ele>227</ele>
        <time>2016-08-18T17:57:55Z</time>
      </trkpt>
      <trkpt lat="47.15817" lon="3.21638">
        <ele>227</ele>
        <time>2016-08-18T17:57:56Z</time>
      </trkpt>
      <trkpt lat="47.15813" lon="3.2164">
        <ele>229</ele>
        <time>2016-08-18T17:57:57Z</time>
      </trkpt>
      <trkpt lat="47.1581" lon="3.21641">
        <ele>229</ele>
        <time>2016-08-18T17:57:58Z</time>
      </trkpt>
      <trkpt lat="47.15807" lon="3.21642">
        <ele>230</ele>
        <time>2016-08-18T17:57:59Z</time>
      </trkpt>
      <trkpt lat="47.15802" lon="3.21645">
        <ele>230</ele>
        <time>2016-08-18T17:58:01Z</time>
      </trkpt>
      <trkpt lat="47.15798" lon="3.21647">
        <ele>231</ele>
        <time>2016-08-18T17:58:01Z</time>
      </trkpt>
      <trkpt lat="47.15795" lon="3.21649">
        <ele>231</ele>
        <time>2016-08-18T17:58:03Z</time>
      </trkpt>
      <trkpt lat="47.15792" lon="3.21651">
        <ele>232</ele>
        <time>2016-08-18T17:58:04Z</time>
      </trkpt>
      <trkpt lat="47.15788" lon="3.21653">
        <ele>233</ele>
        <time>2016-08-18T17:58:05Z</time>
      </trkpt>
      <trkpt lat="47.15781" lon="3.21655">
        <ele>232</ele>
        <time>2016-08-18T17:58:06Z</time>
      </trkpt>
      <trkpt lat="47.15781" lon="3.21655">
        <ele>232</ele>
        <time>2016-08-18T17:58:07Z</time>
      </trkpt>
      <trkpt lat="47.15777" lon="3.21656">
        <ele>232</ele>
        <time>2016-08-18T17:58:08Z</time>
      </trkpt>
      <trkpt lat="47.15774" lon="3.21657">
        <ele>232</ele>
        <time>2016-08-18T17:58:09Z</time>
      </trkpt>
      <trkpt lat="47.15771" lon="3.21658">
        <ele>232</ele>
        <time>2016-08-18T17:58:10Z</time>
      </trkpt>
      <trkpt lat="47.15768" lon="3.21659">
        <ele>231</ele>
        <time>2016-08-18T17:58:11Z</time>
      </trkpt>
      <trkpt lat="47.15762" lon="3.21661">
        <ele>229</ele>
        <time>2016-08-18T17:58:13Z</time>
      </trkpt>
      <trkpt lat="47.15761" lon="3.21661">
        <ele>229</ele>
        <time>2016-08-18T17:58:13Z</time>
      </trkpt>
      <trkpt lat="47.15758" lon="3.21662">
        <ele>228</ele>
        <time>2016-08-18T17:58:14Z</time>
      </trkpt>
      <trkpt lat="47.15753" lon="3.21662">
        <ele>226</ele>
        <time>2016-08-18T17:58:15Z</time>
      </trkpt>
      <trkpt lat="47.15752" lon="3.21662">
        <ele>225</ele>
        <time>2016-08-18T17:58:16Z</time>
      </trkpt>
      <trkpt lat="47.15748" lon="3.21661">
        <ele>225</ele>
        <time>2016-08-18T17:58:17Z</time>
      </trkpt>
      <trkpt lat="47.15745" lon="3.21662">
        <ele>225</ele>
        <time>2016-08-18T17:58:18Z</time>
      </trkpt>
      <trkpt lat="47.15741" lon="3.21664">
        <ele>225</ele>
        <time>2016-08-18T17:58:19Z</time>
      </trkpt>
      <trkpt lat="47.15738" lon="3.21665">
        <ele>225</ele>
        <time>2016-08-18T17:58:20Z</time>
      </trkpt>
      <trkpt lat="47.15732" lon="3.21666">
        <ele>224</ele>
        <time>2016-08-18T17:58:22Z</time>
      </trkpt>
      <trkpt lat="47.15731" lon="3.21667">
        <ele>224</ele>
        <time>2016-08-18T17:58:22Z</time>
      </trkpt>
      <trkpt lat="47.15727" lon="3.21667">
        <ele>224</ele>
        <time>2016-08-18T17:58:23Z</time>
      </trkpt>
      <trkpt lat="47.15722" lon="3.21669">
        <ele>224</ele>
        <time>2016-08-18T17:58:24Z</time>
      </trkpt>
      <trkpt lat="47.1572" lon="3.2167">
        <ele>224</ele>
        <time>2016-08-18T17:58:25Z</time>
      </trkpt>
      <trkpt lat="47.15715" lon="3.21671">
        <ele>224</ele>
        <time>2016-08-18T17:58:26Z</time>
      </trkpt>
      <trkpt lat="47.15711" lon="3.21672">
        <ele>224</ele>
        <time>2016-08-18T17:58:27Z</time>
      </trkpt>
      <trkpt lat="47.15707" lon="3.21673">
        <ele>224</ele>
        <time>2016-08-18T17:58:29Z</time>
      </trkpt>
      <trkpt lat="47.15703" lon="3.21674">
        <ele>224</ele>
        <time>2016-08-18T17:58:30Z</time>
      </trkpt>
      <trkpt lat="47.15701" lon="3.21674">
        <ele>224</ele>
        <time>2016-08-18T17:58:30Z</time>
      </trkpt>
      <trkpt lat="47.15695" lon="3.21675">
        <ele>224</ele>
        <time>2016-08-18T17:58:32Z</time>
      </trkpt>
      <trkpt lat="47.15693" lon="3.21675">
        <ele>224</ele>
        <time>2016-08-18T17:58:32Z</time>
      </trkpt>
      <trkpt lat="47.15687" lon="3.21673">
        <ele>223</ele>
        <time>2016-08-18T17:58:33Z</time>
      </trkpt>
      <trkpt lat="47.15682" lon="3.21674">
        <ele>223</ele>
        <time>2016-08-18T17:58:34Z</time>
      </trkpt>
      <trkpt lat="47.15677" lon="3.21674">
        <ele>223</ele>
        <time>2016-08-18T17:58:35Z</time>
      </trkpt>
      <trkpt lat="47.15674" lon="3.21674">
        <ele>224</ele>
        <time>2016-08-18T17:58:36Z</time>
      </trkpt>
      <trkpt lat="47.15668" lon="3.21673">
        <ele>224</ele>
        <time>2016-08-18T17:58:37Z</time>
      </trkpt>
      <trkpt lat="47.15663" lon="3.21673">
        <ele>224</ele>
        <time>2016-08-18T17:58:38Z</time>
      </trkpt>
      <trkpt lat="47.15657" lon="3.2167">
        <ele>223</ele>
        <time>2016-08-18T17:58:40Z</time>
      </trkpt>
      <trkpt lat="47.15653" lon="3.21669">
        <ele>223</ele>
        <time>2016-08-18T17:58:40Z</time>
      </trkpt>
      <trkpt lat="47.15647" lon="3.21667">
        <ele>223</ele>
        <time>2016-08-18T17:58:42Z</time>
      </trkpt>
      <trkpt lat="47.15642" lon="3.21665">
        <ele>223</ele>
        <time>2016-08-18T17:58:43Z</time>
      </trkpt>
      <trkpt lat="47.15638" lon="3.21665">
        <ele>223</ele>
        <time>2016-08-18T17:58:43Z</time>
      </trkpt>
      <trkpt lat="47.15633" lon="3.21663">
        <ele>222</ele>
        <time>2016-08-18T17:58:44Z</time>
      </trkpt>
      <trkpt lat="47.15627" lon="3.2166">
        <ele>221</ele>
        <time>2016-08-18T17:58:45Z</time>
      </trkpt>
      <trkpt lat="47.15622" lon="3.21656">
        <ele>221</ele>
        <time>2016-08-18T17:58:46Z</time>
      </trkpt>
      <trkpt lat="47.15617" lon="3.21653">
        <ele>220</ele>
        <time>2016-08-18T17:58:47Z</time>
      </trkpt>
      <trkpt lat="47.15612" lon="3.21651">
        <ele>220</ele>
        <time>2016-08-18T17:58:49Z</time>
      </trkpt>
      <trkpt lat="47.15606" lon="3.21648">
        <ele>220</ele>
        <time>2016-08-18T17:58:50Z</time>
      </trkpt>
      <trkpt lat="47.156" lon="3.21646">
        <ele>221</ele>
        <time>2016-08-18T17:58:51Z</time>
      </trkpt>
      <trkpt lat="47.15594" lon="3.21644">
        <ele>221</ele>
        <time>2016-08-18T17:58:52Z</time>
      </trkpt>
      <trkpt lat="47.15589" lon="3.21641">
        <ele>221</ele>
        <time>2016-08-18T17:58:53Z</time>
      </trkpt>
      <trkpt lat="47.15583" lon="3.21639">
        <ele>221</ele>
        <time>2016-08-18T17:58:54Z</time>
      </trkpt>
      <trkpt lat="47.15577" lon="3.21636">
        <ele>220</ele>
        <time>2016-08-18T17:58:55Z</time>
      </trkpt>
      <trkpt lat="47.15571" lon="3.21634">
        <ele>220</ele>
        <time>2016-08-18T17:58:56Z</time>
      </trkpt>
      <trkpt lat="47.15564" lon="3.21631">
        <ele>220</ele>
        <time>2016-08-18T17:58:57Z</time>
      </trkpt>
      <trkpt lat="47.15558" lon="3.21628">
        <ele>220</ele>
        <time>2016-08-18T17:58:58Z</time>
      </trkpt>
      <trkpt lat="47.15547" lon="3.21624">
        <ele>221</ele>
        <time>2016-08-18T17:58:59Z</time>
      </trkpt>
      <trkpt lat="47.15545" lon="3.21623">
        <ele>221</ele>
        <time>2016-08-18T17:59:00Z</time>
      </trkpt>
      <trkpt lat="47.15538" lon="3.2162">
        <ele>221</ele>
        <time>2016-08-18T17:59:01Z</time>
      </trkpt>
      <trkpt lat="47.15528" lon="3.21615">
        <ele>222</ele>
        <time>2016-08-18T17:59:02Z</time>
      </trkpt>
      <trkpt lat="47.15525" lon="3.21613">
        <ele>221</ele>
        <time>2016-08-18T17:59:03Z</time>
      </trkpt>
      <trkpt lat="47.15519" lon="3.21611">
        <ele>222</ele>
        <time>2016-08-18T17:59:04Z</time>
      </trkpt>
      <trkpt lat="47.15512" lon="3.21608">
        <ele>222</ele>
        <time>2016-08-18T17:59:05Z</time>
      </trkpt>
      <trkpt lat="47.15501" lon="3.21605">
        <ele>222</ele>
        <time>2016-08-18T17:59:07Z</time>
      </trkpt>
      <trkpt lat="47.15499" lon="3.21604">
        <ele>222</ele>
        <time>2016-08-18T17:59:07Z</time>
      </trkpt>
      <trkpt lat="47.15492" lon="3.21602">
        <ele>222</ele>
        <time>2016-08-18T17:59:08Z</time>
      </trkpt>
      <trkpt lat="47.15485" lon="3.21599">
        <ele>222</ele>
        <time>2016-08-18T17:59:09Z</time>
      </trkpt>
      <trkpt lat="47.15476" lon="3.21596">
        <ele>222</ele>
        <time>2016-08-18T17:59:10Z</time>
      </trkpt>
      <trkpt lat="47.15472" lon="3.21595">
        <ele>222</ele>
        <time>2016-08-18T17:59:11Z</time>
      </trkpt>
      <trkpt lat="47.15466" lon="3.21593">
        <ele>222</ele>
        <time>2016-08-18T17:59:12Z</time>
      </trkpt>
      <trkpt lat="47.15456" lon="3.21589">
        <ele>222</ele>
        <time>2016-08-18T17:59:14Z</time>
      </trkpt>
      <trkpt lat="47.15451" lon="3.21587">
        <ele>221</ele>
        <time>2016-08-18T17:59:14Z</time>
      </trkpt>
      <trkpt lat="47.15443" lon="3.21584">
        <ele>221</ele>
        <time>2016-08-18T17:59:16Z</time>
      </trkpt>
      <trkpt lat="47.15437" lon="3.21583">
        <ele>220</ele>
        <time>2016-08-18T17:59:16Z</time>
      </trkpt>
      <trkpt lat="47.15432" lon="3.21581">
        <ele>219</ele>
        <time>2016-08-18T17:59:17Z</time>
      </trkpt>
      <trkpt lat="47.15424" lon="3.21578">
        <ele>220</ele>
        <time>2016-08-18T17:59:18Z</time>
      </trkpt>
      <trkpt lat="47.15417" lon="3.21575">
        <ele>220</ele>
        <time>2016-08-18T17:59:20Z</time>
      </trkpt>
      <trkpt lat="47.15411" lon="3.21573">
        <ele>220</ele>
        <time>2016-08-18T17:59:21Z</time>
      </trkpt>
      <trkpt lat="47.15403" lon="3.21571">
        <ele>220</ele>
        <time>2016-08-18T17:59:21Z</time>
      </trkpt>
      <trkpt lat="47.15396" lon="3.21569">
        <ele>218</ele>
        <time>2016-08-18T17:59:22Z</time>
      </trkpt>
      <trkpt lat="47.1539" lon="3.21566">
        <ele>220</ele>
        <time>2016-08-18T17:59:23Z</time>
      </trkpt>
      <trkpt lat="47.15383" lon="3.21563">
        <ele>220</ele>
        <time>2016-08-18T17:59:24Z</time>
      </trkpt>
      <trkpt lat="47.15377" lon="3.2156">
        <ele>220</ele>
        <time>2016-08-18T17:59:25Z</time>
      </trkpt>
      <trkpt lat="47.1537" lon="3.21558">
        <ele>221</ele>
        <time>2016-08-18T17:59:27Z</time>
      </trkpt>
      <trkpt lat="47.15364" lon="3.21556">
        <ele>220</ele>
        <time>2016-08-18T17:59:27Z</time>
      </trkpt>
      <trkpt lat="47.15357" lon="3.21553">
        <ele>220</ele>
        <time>2016-08-18T17:59:28Z</time>
      </trkpt>
      <trkpt lat="47.1535" lon="3.21551">
        <ele>219</ele>
        <time>2016-08-18T17:59:30Z</time>
      </trkpt>
      <trkpt lat="47.15344" lon="3.21549">
        <ele>219</ele>
        <time>2016-08-18T17:59:31Z</time>
      </trkpt>
      <trkpt lat="47.15337" lon="3.21546">
        <ele>218</ele>
        <time>2016-08-18T17:59:32Z</time>
      </trkpt>
      <trkpt lat="47.1533" lon="3.21544">
        <ele>218</ele>
        <time>2016-08-18T17:59:33Z</time>
      </trkpt>
      <trkpt lat="47.15324" lon="3.21541">
        <ele>218</ele>
        <time>2016-08-18T17:59:34Z</time>
      </trkpt>
      <trkpt lat="47.15317" lon="3.21538">
        <ele>217</ele>
        <time>2016-08-18T17:59:35Z</time>
      </trkpt>
      <trkpt lat="47.15306" lon="3.21535">
        <ele>216</ele>
        <time>2016-08-18T17:59:36Z</time>
      </trkpt>
      <trkpt lat="47.15305" lon="3.21535">
        <ele>216</ele>
        <time>2016-08-18T17:59:37Z</time>
      </trkpt>
      <trkpt lat="47.15293" lon="3.21531">
        <ele>215</ele>
        <time>2016-08-18T17:59:39Z</time>
      </trkpt>
      <trkpt lat="47.15292" lon="3.2153">
        <ele>215</ele>
        <time>2016-08-18T17:59:39Z</time>
      </trkpt>
      <trkpt lat="47.15285" lon="3.21528">
        <ele>214</ele>
        <time>2016-08-18T17:59:40Z</time>
      </trkpt>
      <trkpt lat="47.15278" lon="3.21525">
        <ele>215</ele>
        <time>2016-08-18T17:59:41Z</time>
      </trkpt>
      <trkpt lat="47.15268" lon="3.21522">
        <ele>215</ele>
        <time>2016-08-18T17:59:42Z</time>
      </trkpt>
      <trkpt lat="47.15261" lon="3.2152">
        <ele>215</ele>
        <time>2016-08-18T17:59:43Z</time>
      </trkpt>
      <trkpt lat="47.15258" lon="3.21519">
        <ele>214</ele>
        <time>2016-08-18T17:59:44Z</time>
      </trkpt>
      <trkpt lat="47.15247" lon="3.21515">
        <ele>215</ele>
        <time>2016-08-18T17:59:45Z</time>
      </trkpt>
      <trkpt lat="47.15244" lon="3.21514">
        <ele>214</ele>
        <time>2016-08-18T17:59:46Z</time>
      </trkpt>
      <trkpt lat="47.15237" lon="3.21512">
        <ele>213</ele>
        <time>2016-08-18T17:59:47Z</time>
      </trkpt>
      <trkpt lat="47.15231" lon="3.2151">
        <ele>213</ele>
        <time>2016-08-18T17:59:48Z</time>
      </trkpt>
      <trkpt lat="47.15219" lon="3.21506">
        <ele>214</ele>
        <time>2016-08-18T17:59:50Z</time>
      </trkpt>
      <trkpt lat="47.15217" lon="3.21505">
        <ele>214</ele>
        <time>2016-08-18T17:59:50Z</time>
      </trkpt>
      <trkpt lat="47.15207" lon="3.21501">
        <ele>215</ele>
        <time>2016-08-18T17:59:51Z</time>
      </trkpt>
      <trkpt lat="47.15204" lon="3.215">
        <ele>215</ele>
        <time>2016-08-18T17:59:52Z</time>
      </trkpt>
      <trkpt lat="47.15198" lon="3.21498">
        <ele>215</ele>
        <time>2016-08-18T17:59:53Z</time>
      </trkpt>
      <trkpt lat="47.15191" lon="3.21495">
        <ele>216</ele>
        <time>2016-08-18T17:59:54Z</time>
      </trkpt>
      <trkpt lat="47.15182" lon="3.21491">
        <ele>218</ele>
        <time>2016-08-18T17:59:55Z</time>
      </trkpt>
      <trkpt lat="47.15178" lon="3.21489">
        <ele>218</ele>
        <time>2016-08-18T17:59:56Z</time>
      </trkpt>
      <trkpt lat="47.15169" lon="3.21487">
        <ele>219</ele>
        <time>2016-08-18T17:59:58Z</time>
      </trkpt>
      <trkpt lat="47.15166" lon="3.21485">
        <ele>219</ele>
        <time>2016-08-18T17:59:58Z</time>
      </trkpt>
      <trkpt lat="47.1516" lon="3.21482">
        <ele>219</ele>
        <time>2016-08-18T17:59:59Z</time>
      </trkpt>
      <trkpt lat="47.15152" lon="3.2148">
        <ele>219</ele>
        <time>2016-08-18T18:00:00Z</time>
      </trkpt>
      <trkpt lat="47.15147" lon="3.21478">
        <ele>219</ele>
        <time>2016-08-18T18:00:01Z</time>
      </trkpt>
      <trkpt lat="47.1514" lon="3.21476">
        <ele>219</ele>
        <time>2016-08-18T18:00:02Z</time>
      </trkpt>
      <trkpt lat="47.15134" lon="3.21473">
        <ele>219</ele>
        <time>2016-08-18T18:00:03Z</time>
      </trkpt>
      <trkpt lat="47.15129" lon="3.21471">
        <ele>220</ele>
        <time>2016-08-18T18:00:04Z</time>
      </trkpt>
      <trkpt lat="47.15121" lon="3.21468">
        <ele>220</ele>
        <time>2016-08-18T18:00:06Z</time>
      </trkpt>
      <trkpt lat="47.15115" lon="3.21464">
        <ele>220</ele>
        <time>2016-08-18T18:00:07Z</time>
      </trkpt>
      <trkpt lat="47.15109" lon="3.21463">
        <ele>220</ele>
        <time>2016-08-18T18:00:08Z</time>
      </trkpt>
      <trkpt lat="47.15104" lon="3.21462">
        <ele>220</ele>
        <time>2016-08-18T18:00:08Z</time>
      </trkpt>
      <trkpt lat="47.15098" lon="3.21459">
        <ele>220</ele>
        <time>2016-08-18T18:00:09Z</time>
      </trkpt>
      <trkpt lat="47.15093" lon="3.21457">
        <ele>220</ele>
        <time>2016-08-18T18:00:10Z</time>
      </trkpt>
      <trkpt lat="47.15088" lon="3.21454">
        <ele>220</ele>
        <time>2016-08-18T18:00:11Z</time>
      </trkpt>
      <trkpt lat="47.15082" lon="3.21452">
        <ele>220</ele>
        <time>2016-08-18T18:00:12Z</time>
      </trkpt>
      <trkpt lat="47.15077" lon="3.2145">
        <ele>220</ele>
        <time>2016-08-18T18:00:14Z</time>
      </trkpt>
      <trkpt lat="47.15071" lon="3.21449">
        <ele>220</ele>
        <time>2016-08-18T18:00:15Z</time>
      </trkpt>
      <trkpt lat="47.15065" lon="3.21447">
        <ele>220</ele>
        <time>2016-08-18T18:00:16Z</time>
      </trkpt>
      <trkpt lat="47.15059" lon="3.21445">
        <ele>219</ele>
        <time>2016-08-18T18:00:17Z</time>
      </trkpt>
      <trkpt lat="47.15054" lon="3.21444">
        <ele>219</ele>
        <time>2016-08-18T18:00:18Z</time>
      </trkpt>
      <trkpt lat="47.15049" lon="3.21441">
        <ele>219</ele>
        <time>2016-08-18T18:00:19Z</time>
      </trkpt>
      <trkpt lat="47.15044" lon="3.21439">
        <ele>219</ele>
        <time>2016-08-18T18:00:20Z</time>
      </trkpt>
      <trkpt lat="47.15038" lon="3.21437">
        <ele>219</ele>
        <time>2016-08-18T18:00:21Z</time>
      </trkpt>
      <trkpt lat="47.15033" lon="3.21435">
        <ele>219</ele>
        <time>2016-08-18T18:00:22Z</time>
      </trkpt>
      <trkpt lat="47.15028" lon="3.21433">
        <ele>219</ele>
        <time>2016-08-18T18:00:23Z</time>
      </trkpt>
      <trkpt lat="47.15022" lon="3.21432">
        <ele>219</ele>
        <time>2016-08-18T18:00:24Z</time>
      </trkpt>
      <trkpt lat="47.15017" lon="3.2143">
        <ele>218</ele>
        <time>2016-08-18T18:00:25Z</time>
      </trkpt>
      <trkpt lat="47.15008" lon="3.21425">
        <ele>217</ele>
        <time>2016-08-18T18:00:27Z</time>
      </trkpt>
      <trkpt lat="47.15007" lon="3.21425">
        <ele>217</ele>
        <time>2016-08-18T18:00:27Z</time>
      </trkpt>
      <trkpt lat="47.14998" lon="3.21422">
        <ele>217</ele>
        <time>2016-08-18T18:00:28Z</time>
      </trkpt>
      <trkpt lat="47.14996" lon="3.21421">
        <ele>217</ele>
        <time>2016-08-18T18:00:29Z</time>
      </trkpt>
      <trkpt lat="47.14988" lon="3.21417">
        <ele>217</ele>
        <time>2016-08-18T18:00:31Z</time>
      </trkpt>
      <trkpt lat="47.14986" lon="3.21416">
        <ele>218</ele>
        <time>2016-08-18T18:00:31Z</time>
      </trkpt>
      <trkpt lat="47.14978" lon="3.21412">
        <ele>218</ele>
        <time>2016-08-18T18:00:33Z</time>
      </trkpt>
      <trkpt lat="47.14973" lon="3.21411">
        <ele>218</ele>
        <time>2016-08-18T18:00:33Z</time>
      </trkpt>
      <trkpt lat="47.1497" lon="3.21409">
        <ele>218</ele>
        <time>2016-08-18T18:00:34Z</time>
      </trkpt>
      <trkpt lat="47.14965" lon="3.21407">
        <ele>218</ele>
        <time>2016-08-18T18:00:35Z</time>
      </trkpt>
      <trkpt lat="47.14957" lon="3.21404">
        <ele>218</ele>
        <time>2016-08-18T18:00:36Z</time>
      </trkpt>
      <trkpt lat="47.14954" lon="3.21403">
        <ele>218</ele>
        <time>2016-08-18T18:00:37Z</time>
      </trkpt>
      <trkpt lat="47.14947" lon="3.214">
        <ele>219</ele>
        <time>2016-08-18T18:00:39Z</time>
      </trkpt>
      <trkpt lat="47.14944" lon="3.21399">
        <ele>219</ele>
        <time>2016-08-18T18:00:39Z</time>
      </trkpt>
      <trkpt lat="47.14939" lon="3.21397">
        <ele>219</ele>
        <time>2016-08-18T18:00:40Z</time>
      </trkpt>
      <trkpt lat="47.14933" lon="3.21395">
        <ele>219</ele>
        <time>2016-08-18T18:00:41Z</time>
      </trkpt>
      <trkpt lat="47.14927" lon="3.21392">
        <ele>220</ele>
        <time>2016-08-18T18:00:42Z</time>
      </trkpt>
      <trkpt lat="47.14922" lon="3.2139">
        <ele>220</ele>
        <time>2016-08-18T18:00:43Z</time>
      </trkpt>
      <trkpt lat="47.14918" lon="3.21388">
        <ele>220</ele>
        <time>2016-08-18T18:00:44Z</time>
      </trkpt>
      <trkpt lat="47.14912" lon="3.21386">
        <ele>220</ele>
        <time>2016-08-18T18:00:45Z</time>
      </trkpt>
      <trkpt lat="47.14907" lon="3.21384">
        <ele>220</ele>
        <time>2016-08-18T18:00:46Z</time>
      </trkpt>
      <trkpt lat="47.14902" lon="3.21381">
        <ele>220</ele>
        <time>2016-08-18T18:00:47Z</time>
      </trkpt>
      <trkpt lat="47.14896" lon="3.2138">
        <ele>220</ele>
        <time>2016-08-18T18:00:48Z</time>
      </trkpt>
      <trkpt lat="47.14889" lon="3.21377">
        <ele>219</ele>
        <time>2016-08-18T18:00:50Z</time>
      </trkpt>
      <trkpt lat="47.14884" lon="3.21375">
        <ele>219</ele>
        <time>2016-08-18T18:00:50Z</time>
      </trkpt>
      <trkpt lat="47.14878" lon="3.21373">
        <ele>220</ele>
        <time>2016-08-18T18:00:51Z</time>
      </trkpt>
      <trkpt lat="47.14871" lon="3.2137">
        <ele>219</ele>
        <time>2016-08-18T18:00:52Z</time>
      </trkpt>
      <trkpt lat="47.14865" lon="3.21368">
        <ele>219</ele>
        <time>2016-08-18T18:00:53Z</time>
      </trkpt>
      <trkpt lat="47.14858" lon="3.21365">
        <ele>219</ele>
        <time>2016-08-18T18:00:54Z</time>
      </trkpt>
      <trkpt lat="47.14851" lon="3.21362">
        <ele>218</ele>
        <time>2016-08-18T18:00:56Z</time>
      </trkpt>
      <trkpt lat="47.14844" lon="3.2136">
        <ele>218</ele>
        <time>2016-08-18T18:00:57Z</time>
      </trkpt>
      <trkpt lat="47.14837" lon="3.21357">
        <ele>218</ele>
        <time>2016-08-18T18:00:58Z</time>
      </trkpt>
      <trkpt lat="47.14829" lon="3.21354">
        <ele>217</ele>
        <time>2016-08-18T18:00:59Z</time>
      </trkpt>
      <trkpt lat="47.14822" lon="3.21351">
        <ele>217</ele>
        <time>2016-08-18T18:01:00Z</time>
      </trkpt>
      <trkpt lat="47.14808" lon="3.21347">
        <ele>216</ele>
        <time>2016-08-18T18:01:01Z</time>
      </trkpt>
      <trkpt lat="47.14807" lon="3.21346">
        <ele>216</ele>
        <time>2016-08-18T18:01:02Z</time>
      </trkpt>
      <trkpt lat="47.148" lon="3.21344">
        <ele>215</ele>
        <time>2016-08-18T18:01:03Z</time>
      </trkpt>
      <trkpt lat="47.14793" lon="3.21341">
        <ele>215</ele>
        <time>2016-08-18T18:01:04Z</time>
      </trkpt>
      <trkpt lat="47.14785" lon="3.21338">
        <ele>215</ele>
        <time>2016-08-18T18:01:05Z</time>
      </trkpt>
      <trkpt lat="47.14778" lon="3.21335">
        <ele>214</ele>
        <time>2016-08-18T18:01:06Z</time>
      </trkpt>
      <trkpt lat="47.14771" lon="3.21332">
        <ele>214</ele>
        <time>2016-08-18T18:01:07Z</time>
      </trkpt>
      <trkpt lat="47.14763" lon="3.21328">
        <ele>213</ele>
        <time>2016-08-18T18:01:08Z</time>
      </trkpt>
      <trkpt lat="47.14751" lon="3.21323">
        <ele>213</ele>
        <time>2016-08-18T18:01:09Z</time>
      </trkpt>
      <trkpt lat="47.14744" lon="3.21318">
        <ele>213</ele>
        <time>2016-08-18T18:01:10Z</time>
      </trkpt>
      <trkpt lat="47.14737" lon="3.21313">
        <ele>212</ele>
        <time>2016-08-18T18:01:12Z</time>
      </trkpt>
      <trkpt lat="47.14729" lon="3.21307">
        <ele>211</ele>
        <time>2016-08-18T18:01:13Z</time>
      </trkpt>
      <trkpt lat="47.14727" lon="3.21305">
        <ele>211</ele>
        <time>2016-08-18T18:01:13Z</time>
      </trkpt>
      <trkpt lat="47.1472" lon="3.21299">
        <ele>211</ele>
        <time>2016-08-18T18:01:14Z</time>
      </trkpt>
      <trkpt lat="47.14713" lon="3.21292">
        <ele>211</ele>
        <time>2016-08-18T18:01:15Z</time>
      </trkpt>
      <trkpt lat="47.14704" lon="3.21282">
        <ele>212</ele>
        <time>2016-08-18T18:01:16Z</time>
      </trkpt>
      <trkpt lat="47.14701" lon="3.21278">
        <ele>212</ele>
        <time>2016-08-18T18:01:17Z</time>
      </trkpt>
      <trkpt lat="47.14693" lon="3.21266">
        <ele>211</ele>
        <time>2016-08-18T18:01:18Z</time>
      </trkpt>
      <trkpt lat="47.14687" lon="3.21257">
        <ele>211</ele>
        <time>2016-08-18T18:01:19Z</time>
      </trkpt>
      <trkpt lat="47.14685" lon="3.21252">
        <ele>211</ele>
        <time>2016-08-18T18:01:20Z</time>
      </trkpt>
      <trkpt lat="47.14679" lon="3.21243">
        <ele>211</ele>
        <time>2016-08-18T18:01:21Z</time>
      </trkpt>
      <trkpt lat="47.14674" lon="3.21235">
        <ele>210</ele>
        <time>2016-08-18T18:01:22Z</time>
      </trkpt>
      <trkpt lat="47.1467" lon="3.21226">
        <ele>210</ele>
        <time>2016-08-18T18:01:23Z</time>
      </trkpt>
      <trkpt lat="47.14666" lon="3.21216">
        <ele>209</ele>
        <time>2016-08-18T18:01:24Z</time>
      </trkpt>
      <trkpt lat="47.14662" lon="3.21207">
        <ele>209</ele>
        <time>2016-08-18T18:01:25Z</time>
      </trkpt>
      <trkpt lat="47.14659" lon="3.21197">
        <ele>209</ele>
        <time>2016-08-18T18:01:26Z</time>
      </trkpt>
      <trkpt lat="47.14656" lon="3.21185">
        <ele>209</ele>
        <time>2016-08-18T18:01:27Z</time>
      </trkpt>
      <trkpt lat="47.14653" lon="3.21176">
        <ele>209</ele>
        <time>2016-08-18T18:01:29Z</time>
      </trkpt>
      <trkpt lat="47.14651" lon="3.21167">
        <ele>209</ele>
        <time>2016-08-18T18:01:29Z</time>
      </trkpt>
      <trkpt lat="47.14648" lon="3.21157">
        <ele>209</ele>
        <time>2016-08-18T18:01:30Z</time>
      </trkpt>
      <trkpt lat="47.14645" lon="3.21145">
        <ele>209</ele>
        <time>2016-08-18T18:01:31Z</time>
      </trkpt>
      <trkpt lat="47.14643" lon="3.21135">
        <ele>208</ele>
        <time>2016-08-18T18:01:32Z</time>
      </trkpt>
      <trkpt lat="47.1464" lon="3.21124">
        <ele>207</ele>
        <time>2016-08-18T18:01:33Z</time>
      </trkpt>
      <trkpt lat="47.14638" lon="3.21113">
        <ele>208</ele>
        <time>2016-08-18T18:01:34Z</time>
      </trkpt>
      <trkpt lat="47.14635" lon="3.21101">
        <ele>207</ele>
        <time>2016-08-18T18:01:35Z</time>
      </trkpt>
      <trkpt lat="47.14632" lon="3.2109">
        <ele>207</ele>
        <time>2016-08-18T18:01:36Z</time>
      </trkpt>
      <trkpt lat="47.14629" lon="3.21079">
        <ele>207</ele>
        <time>2016-08-18T18:01:38Z</time>
      </trkpt>
      <trkpt lat="47.14626" lon="3.21067">
        <ele>206</ele>
        <time>2016-08-18T18:01:39Z</time>
      </trkpt>
      <trkpt lat="47.14623" lon="3.21055">
        <ele>206</ele>
        <time>2016-08-18T18:01:40Z</time>
      </trkpt>
      <trkpt lat="47.1462" lon="3.21044">
        <ele>206</ele>
        <time>2016-08-18T18:01:41Z</time>
      </trkpt>
      <trkpt lat="47.14614" lon="3.21023">
        <ele>206</ele>
        <time>2016-08-18T18:01:42Z</time>
      </trkpt>
      <trkpt lat="47.1461" lon="3.21011">
        <ele>206</ele>
        <time>2016-08-18T18:01:43Z</time>
      </trkpt>
      <trkpt lat="47.1461" lon="3.21009">
        <ele>206</ele>
        <time>2016-08-18T18:01:44Z</time>
      </trkpt>
      <trkpt lat="47.14606" lon="3.20988">
        <ele>205</ele>
        <time>2016-08-18T18:01:45Z</time>
      </trkpt>
      <trkpt lat="47.14605" lon="3.20985">
        <ele>205</ele>
        <time>2016-08-18T18:01:46Z</time>
      </trkpt>
      <trkpt lat="47.14602" lon="3.20974">
        <ele>205</ele>
        <time>2016-08-18T18:01:47Z</time>
      </trkpt>
      <trkpt lat="47.14599" lon="3.20963">
        <ele>205</ele>
        <time>2016-08-18T18:01:48Z</time>
      </trkpt>
      <trkpt lat="47.14596" lon="3.20952">
        <ele>204</ele>
        <time>2016-08-18T18:01:49Z</time>
      </trkpt>
      <trkpt lat="47.14593" lon="3.20941">
        <ele>204</ele>
        <time>2016-08-18T18:01:50Z</time>
      </trkpt>
      <trkpt lat="47.1459" lon="3.20931">
        <ele>204</ele>
        <time>2016-08-18T18:01:51Z</time>
      </trkpt>
      <trkpt lat="47.14588" lon="3.20919">
        <ele>204</ele>
        <time>2016-08-18T18:01:52Z</time>
      </trkpt>
      <trkpt lat="47.14585" lon="3.20907">
        <ele>204</ele>
        <time>2016-08-18T18:01:53Z</time>
      </trkpt>
      <trkpt lat="47.14582" lon="3.20896">
        <ele>204</ele>
        <time>2016-08-18T18:01:54Z</time>
      </trkpt>
      <trkpt lat="47.14577" lon="3.20878">
        <ele>205</ele>
        <time>2016-08-18T18:01:55Z</time>
      </trkpt>
      <trkpt lat="47.14576" lon="3.20874">
        <ele>205</ele>
        <time>2016-08-18T18:01:56Z</time>
      </trkpt>
      <trkpt lat="47.14573" lon="3.20863">
        <ele>205</ele>
        <time>2016-08-18T18:01:57Z</time>
      </trkpt>
      <trkpt lat="47.1457" lon="3.20846">
        <ele>205</ele>
        <time>2016-08-18T18:01:58Z</time>
      </trkpt>
      <trkpt lat="47.14569" lon="3.20842">
        <ele>205</ele>
        <time>2016-08-18T18:01:59Z</time>
      </trkpt>
      <trkpt lat="47.14566" lon="3.20832">
        <ele>206</ele>
        <time>2016-08-18T18:02:00Z</time>
      </trkpt>
      <trkpt lat="47.14563" lon="3.20822">
        <ele>206</ele>
        <time>2016-08-18T18:02:01Z</time>
      </trkpt>
      <trkpt lat="47.14561" lon="3.20812">
        <ele>206</ele>
        <time>2016-08-18T18:02:02Z</time>
      </trkpt>
      <trkpt lat="47.14558" lon="3.20803">
        <ele>206</ele>
        <time>2016-08-18T18:02:03Z</time>
      </trkpt>
      <trkpt lat="47.14555" lon="3.20793">
        <ele>206</ele>
        <time>2016-08-18T18:02:04Z</time>
      </trkpt>
      <trkpt lat="47.14552" lon="3.20784">
        <ele>207</ele>
        <time>2016-08-18T18:02:05Z</time>
      </trkpt>
      <trkpt lat="47.14549" lon="3.20774">
        <ele>207</ele>
        <time>2016-08-18T18:02:06Z</time>
      </trkpt>
      <trkpt lat="47.14547" lon="3.20764">
        <ele>206</ele>
        <time>2016-08-18T18:02:07Z</time>
      </trkpt>
      <trkpt lat="47.14544" lon="3.20754">
        <ele>206</ele>
        <time>2016-08-18T18:02:08Z</time>
      </trkpt>
      <trkpt lat="47.14542" lon="3.20744">
        <ele>206</ele>
        <time>2016-08-18T18:02:09Z</time>
      </trkpt>
      <trkpt lat="47.14539" lon="3.20734">
        <ele>206</ele>
        <time>2016-08-18T18:02:10Z</time>
      </trkpt>
      <trkpt lat="47.14537" lon="3.20723">
        <ele>206</ele>
        <time>2016-08-18T18:02:11Z</time>
      </trkpt>
      <trkpt lat="47.14534" lon="3.20714">
        <ele>206</ele>
        <time>2016-08-18T18:02:12Z</time>
      </trkpt>
      <trkpt lat="47.14532" lon="3.20704">
        <ele>206</ele>
        <time>2016-08-18T18:02:13Z</time>
      </trkpt>
      <trkpt lat="47.1453" lon="3.20694">
        <ele>206</ele>
        <time>2016-08-18T18:02:14Z</time>
      </trkpt>
      <trkpt lat="47.14527" lon="3.20684">
        <ele>208</ele>
        <time>2016-08-18T18:02:16Z</time>
      </trkpt>
      <trkpt lat="47.14525" lon="3.20675">
        <ele>208</ele>
        <time>2016-08-18T18:02:17Z</time>
      </trkpt>
      <trkpt lat="47.14523" lon="3.20666">
        <ele>208</ele>
        <time>2016-08-18T18:02:18Z</time>
      </trkpt>
      <trkpt lat="47.14521" lon="3.20659">
        <ele>208</ele>
        <time>2016-08-18T18:02:18Z</time>
      </trkpt>
      <trkpt lat="47.14519" lon="3.2065">
        <ele>208</ele>
        <time>2016-08-18T18:02:19Z</time>
      </trkpt>
      <trkpt lat="47.14516" lon="3.20641">
        <ele>208</ele>
        <time>2016-08-18T18:02:20Z</time>
      </trkpt>
      <trkpt lat="47.14514" lon="3.20632">
        <ele>208</ele>
        <time>2016-08-18T18:02:21Z</time>
      </trkpt>
      <trkpt lat="47.14512" lon="3.20623">
        <ele>208</ele>
        <time>2016-08-18T18:02:22Z</time>
      </trkpt>
      <trkpt lat="47.14509" lon="3.20614">
        <ele>209</ele>
        <time>2016-08-18T18:02:23Z</time>
      </trkpt>
      <trkpt lat="47.14507" lon="3.20605">
        <ele>209</ele>
        <time>2016-08-18T18:02:24Z</time>
      </trkpt>
      <trkpt lat="47.14504" lon="3.20596">
        <ele>209</ele>
        <time>2016-08-18T18:02:26Z</time>
      </trkpt>
      <trkpt lat="47.14502" lon="3.20586">
        <ele>209</ele>
        <time>2016-08-18T18:02:27Z</time>
      </trkpt>
      <trkpt lat="47.14499" lon="3.20577">
        <ele>209</ele>
        <time>2016-08-18T18:02:28Z</time>
      </trkpt>
      <trkpt lat="47.14497" lon="3.20568">
        <ele>209</ele>
        <time>2016-08-18T18:02:29Z</time>
      </trkpt>
      <trkpt lat="47.14494" lon="3.20559">
        <ele>209</ele>
        <time>2016-08-18T18:02:30Z</time>
      </trkpt>
      <trkpt lat="47.1449" lon="3.20543">
        <ele>208</ele>
        <time>2016-08-18T18:02:31Z</time>
      </trkpt>
      <trkpt lat="47.14489" lon="3.20541">
        <ele>208</ele>
        <time>2016-08-18T18:02:32Z</time>
      </trkpt>
      <trkpt lat="47.14487" lon="3.20532">
        <ele>208</ele>
        <time>2016-08-18T18:02:33Z</time>
      </trkpt>
      <trkpt lat="47.14484" lon="3.20523">
        <ele>208</ele>
        <time>2016-08-18T18:02:34Z</time>
      </trkpt>
      <trkpt lat="47.14482" lon="3.20515">
        <ele>208</ele>
        <time>2016-08-18T18:02:35Z</time>
      </trkpt>
      <trkpt lat="47.14479" lon="3.20499">
        <ele>208</ele>
        <time>2016-08-18T18:02:37Z</time>
      </trkpt>
      <trkpt lat="47.14478" lon="3.20497">
        <ele>208</ele>
        <time>2016-08-18T18:02:37Z</time>
      </trkpt>
      <trkpt lat="47.14476" lon="3.20489">
        <ele>207</ele>
        <time>2016-08-18T18:02:38Z</time>
      </trkpt>
      <trkpt lat="47.14474" lon="3.20479">
        <ele>207</ele>
        <time>2016-08-18T18:02:39Z</time>
      </trkpt>
      <trkpt lat="47.14471" lon="3.20464">
        <ele>206</ele>
        <time>2016-08-18T18:02:40Z</time>
      </trkpt>
      <trkpt lat="47.1447" lon="3.20461">
        <ele>206</ele>
        <time>2016-08-18T18:02:41Z</time>
      </trkpt>
      <trkpt lat="47.14467" lon="3.20451">
        <ele>206</ele>
        <time>2016-08-18T18:02:42Z</time>
      </trkpt>
      <trkpt lat="47.14464" lon="3.20443">
        <ele>206</ele>
        <time>2016-08-18T18:02:43Z</time>
      </trkpt>
      <trkpt lat="47.14462" lon="3.20434">
        <ele>206</ele>
        <time>2016-08-18T18:02:44Z</time>
      </trkpt>
      <trkpt lat="47.14457" lon="3.20421">
        <ele>206</ele>
        <time>2016-08-18T18:02:45Z</time>
      </trkpt>
      <trkpt lat="47.14456" lon="3.20418">
        <ele>206</ele>
        <time>2016-08-18T18:02:46Z</time>
      </trkpt>
      <trkpt lat="47.14453" lon="3.2041">
        <ele>206</ele>
        <time>2016-08-18T18:02:47Z</time>
      </trkpt>
      <trkpt lat="47.14449" lon="3.20402">
        <ele>206</ele>
        <time>2016-08-18T18:02:48Z</time>
      </trkpt>
      <trkpt lat="47.14446" lon="3.20395">
        <ele>206</ele>
        <time>2016-08-18T18:02:49Z</time>
      </trkpt>
      <trkpt lat="47.1444" lon="3.20384">
        <ele>206</ele>
        <time>2016-08-18T18:02:51Z</time>
      </trkpt>
      <trkpt lat="47.14438" lon="3.2038">
        <ele>206</ele>
        <time>2016-08-18T18:02:51Z</time>
      </trkpt>
      <trkpt lat="47.14435" lon="3.20374">
        <ele>206</ele>
        <time>2016-08-18T18:02:52Z</time>
      </trkpt>
      <trkpt lat="47.14432" lon="3.20367">
        <ele>206</ele>
        <time>2016-08-18T18:02:53Z</time>
      </trkpt>
      <trkpt lat="47.14428" lon="3.20361">
        <ele>206</ele>
        <time>2016-08-18T18:02:54Z</time>
      </trkpt>
      <trkpt lat="47.14424" lon="3.20354">
        <ele>206</ele>
        <time>2016-08-18T18:02:56Z</time>
      </trkpt>
      <trkpt lat="47.14421" lon="3.2035">
        <ele>206</ele>
        <time>2016-08-18T18:02:56Z</time>
      </trkpt>
      <trkpt lat="47.14418" lon="3.20345">
        <ele>206</ele>
        <time>2016-08-18T18:02:57Z</time>
      </trkpt>
      <trkpt lat="47.14415" lon="3.2034">
        <ele>206</ele>
        <time>2016-08-18T18:02:58Z</time>
      </trkpt>
      <trkpt lat="47.14413" lon="3.20337">
        <ele>206</ele>
        <time>2016-08-18T18:02:59Z</time>
      </trkpt>
      <trkpt lat="47.1441" lon="3.20331">
        <ele>207</ele>
        <time>2016-08-18T18:03:00Z</time>
      </trkpt>
      <trkpt lat="47.14407" lon="3.20326">
        <ele>207</ele>
        <time>2016-08-18T18:03:02Z</time>
      </trkpt>
      <trkpt lat="47.14403" lon="3.20322">
        <ele>207</ele>
        <time>2016-08-18T18:03:03Z</time>
      </trkpt>
      <trkpt lat="47.144" lon="3.20318">
        <ele>208</ele>
        <time>2016-08-18T18:03:04Z</time>
      </trkpt>
      <trkpt lat="47.14398" lon="3.20315">
        <ele>209</ele>
        <time>2016-08-18T18:03:04Z</time>
      </trkpt>
      <trkpt lat="47.14394" lon="3.20311">
        <ele>208</ele>
        <time>2016-08-18T18:03:06Z</time>
      </trkpt>
      <trkpt lat="47.14392" lon="3.2031">
        <ele>207</ele>
        <time>2016-08-18T18:03:06Z</time>
      </trkpt>
      <trkpt lat="47.14389" lon="3.20308">
        <ele>207</ele>
        <time>2016-08-18T18:03:07Z</time>
      </trkpt>
      <trkpt lat="47.14386" lon="3.20306">
        <ele>207</ele>
        <time>2016-08-18T18:03:08Z</time>
      </trkpt>
      <trkpt lat="47.14384" lon="3.20303">
        <ele>207</ele>
        <time>2016-08-18T18:03:09Z</time>
      </trkpt>
      <trkpt lat="47.1438" lon="3.20301">
        <ele>207</ele>
        <time>2016-08-18T18:03:11Z</time>
      </trkpt>
      <trkpt lat="47.14377" lon="3.20299">
        <ele>207</ele>
        <time>2016-08-18T18:03:12Z</time>
      </trkpt>
      <trkpt lat="47.14371" lon="3.20295">
        <ele>207</ele>
        <time>2016-08-18T18:03:13Z</time>
      </trkpt>
      <trkpt lat="47.1437" lon="3.20295">
        <ele>207</ele>
        <time>2016-08-18T18:03:14Z</time>
      </trkpt>
      <trkpt lat="47.14364" lon="3.20292">
        <ele>206</ele>
        <time>2016-08-18T18:03:15Z</time>
      </trkpt>
      <trkpt lat="47.14364" lon="3.20291">
        <ele>206</ele>
        <time>2016-08-18T18:03:16Z</time>
      </trkpt>
      <trkpt lat="47.1436" lon="3.20289">
        <ele>206</ele>
        <time>2016-08-18T18:03:17Z</time>
      </trkpt>
      <trkpt lat="47.14357" lon="3.20287">
        <ele>206</ele>
        <time>2016-08-18T18:03:18Z</time>
      </trkpt>
      <trkpt lat="47.14354" lon="3.20285">
        <ele>206</ele>
        <time>2016-08-18T18:03:19Z</time>
      </trkpt>
      <trkpt lat="47.14351" lon="3.20284">
        <ele>206</ele>
        <time>2016-08-18T18:03:20Z</time>
      </trkpt>
      <trkpt lat="47.14346" lon="3.2028">
        <ele>207</ele>
        <time>2016-08-18T18:03:21Z</time>
      </trkpt>
      <trkpt lat="47.14345" lon="3.2028">
        <ele>207</ele>
        <time>2016-08-18T18:03:22Z</time>
      </trkpt>
      <trkpt lat="47.14339" lon="3.20278">
        <ele>208</ele>
        <time>2016-08-18T18:03:23Z</time>
      </trkpt>
      <trkpt lat="47.14336" lon="3.20277">
        <ele>207</ele>
        <time>2016-08-18T18:03:24Z</time>
      </trkpt>
      <trkpt lat="47.14333" lon="3.20276">
        <ele>207</ele>
        <time>2016-08-18T18:03:26Z</time>
      </trkpt>
      <trkpt lat="47.14332" lon="3.20276">
        <ele>208</ele>
        <time>2016-08-18T18:03:26Z</time>
      </trkpt>
      <trkpt lat="47.14329" lon="3.20275">
        <ele>208</ele>
        <time>2016-08-18T18:03:27Z</time>
      </trkpt>
      <trkpt lat="47.14325" lon="3.20274">
        <ele>207</ele>
        <time>2016-08-18T18:03:28Z</time>
      </trkpt>
      <trkpt lat="47.14322" lon="3.20272">
        <ele>208</ele>
        <time>2016-08-18T18:03:29Z</time>
      </trkpt>
      <trkpt lat="47.14318" lon="3.20271">
        <ele>208</ele>
        <time>2016-08-18T18:03:30Z</time>
      </trkpt>
      <trkpt lat="47.14315" lon="3.2027">
        <ele>208</ele>
        <time>2016-08-18T18:03:31Z</time>
      </trkpt>
      <trkpt lat="47.14311" lon="3.20269">
        <ele>208</ele>
        <time>2016-08-18T18:03:32Z</time>
      </trkpt>
      <trkpt lat="47.14308" lon="3.20268">
        <ele>209</ele>
        <time>2016-08-18T18:03:33Z</time>
      </trkpt>
      <trkpt lat="47.14305" lon="3.20267">
        <ele>209</ele>
        <time>2016-08-18T18:03:34Z</time>
      </trkpt>
      <trkpt lat="47.14302" lon="3.20266">
        <ele>209</ele>
        <time>2016-08-18T18:03:35Z</time>
      </trkpt>
      <trkpt lat="47.14298" lon="3.20265">
        <ele>209</ele>
        <time>2016-08-18T18:03:36Z</time>
      </trkpt>
      <trkpt lat="47.14294" lon="3.20264">
        <ele>210</ele>
        <time>2016-08-18T18:03:37Z</time>
      </trkpt>
      <trkpt lat="47.14291" lon="3.20263">
        <ele>210</ele>
        <time>2016-08-18T18:03:38Z</time>
      </trkpt>
      <trkpt lat="47.14288" lon="3.20263">
        <ele>210</ele>
        <time>2016-08-18T18:03:39Z</time>
      </trkpt>
      <trkpt lat="47.14285" lon="3.20262">
        <ele>210</ele>
        <time>2016-08-18T18:03:40Z</time>
      </trkpt>
      <trkpt lat="47.14281" lon="3.20261">
        <ele>211</ele>
        <time>2016-08-18T18:03:41Z</time>
      </trkpt>
      <trkpt lat="47.14278" lon="3.2026">
        <ele>211</ele>
        <time>2016-08-18T18:03:42Z</time>
      </trkpt>
      <trkpt lat="47.14275" lon="3.20258">
        <ele>212</ele>
        <time>2016-08-18T18:03:43Z</time>
      </trkpt>
      <trkpt lat="47.14272" lon="3.20257">
        <ele>212</ele>
        <time>2016-08-18T18:03:44Z</time>
      </trkpt>
      <trkpt lat="47.14269" lon="3.20256">
        <ele>213</ele>
        <time>2016-08-18T18:03:45Z</time>
      </trkpt>
      <trkpt lat="47.14266" lon="3.20255">
        <ele>213</ele>
        <time>2016-08-18T18:03:46Z</time>
      </trkpt>
      <trkpt lat="47.14262" lon="3.20255">
        <ele>213</ele>
        <time>2016-08-18T18:03:47Z</time>
      </trkpt>
      <trkpt lat="47.14259" lon="3.20254">
        <ele>214</ele>
        <time>2016-08-18T18:03:48Z</time>
      </trkpt>
      <trkpt lat="47.14256" lon="3.20253">
        <ele>214</ele>
        <time>2016-08-18T18:03:49Z</time>
      </trkpt>
      <trkpt lat="47.14253" lon="3.20252">
        <ele>214</ele>
        <time>2016-08-18T18:03:51Z</time>
      </trkpt>
      <trkpt lat="47.1425" lon="3.20251">
        <ele>215</ele>
        <time>2016-08-18T18:03:51Z</time>
      </trkpt>
      <trkpt lat="47.14247" lon="3.2025">
        <ele>215</ele>
        <time>2016-08-18T18:03:52Z</time>
      </trkpt>
      <trkpt lat="47.14245" lon="3.20249">
        <ele>215</ele>
        <time>2016-08-18T18:03:54Z</time>
      </trkpt>
      <trkpt lat="47.14242" lon="3.20248">
        <ele>215</ele>
        <time>2016-08-18T18:03:55Z</time>
      </trkpt>
      <trkpt lat="47.14238" lon="3.20247">
        <ele>215</ele>
        <time>2016-08-18T18:03:56Z</time>
      </trkpt>
      <trkpt lat="47.14235" lon="3.20247">
        <ele>215</ele>
        <time>2016-08-18T18:03:57Z</time>
      </trkpt>
      <trkpt lat="47.14232" lon="3.20246">
        <ele>216</ele>
        <time>2016-08-18T18:03:58Z</time>
      </trkpt>
      <trkpt lat="47.14228" lon="3.20244">
        <ele>216</ele>
        <time>2016-08-18T18:03:59Z</time>
      </trkpt>
      <trkpt lat="47.14226" lon="3.20243">
        <ele>216</ele>
        <time>2016-08-18T18:04:00Z</time>
      </trkpt>
      <trkpt lat="47.14223" lon="3.20242">
        <ele>216</ele>
        <time>2016-08-18T18:04:01Z</time>
      </trkpt>
      <trkpt lat="47.1422" lon="3.2024">
        <ele>216</ele>
        <time>2016-08-18T18:04:02Z</time>
      </trkpt>
      <trkpt lat="47.14217" lon="3.20238">
        <ele>215</ele>
        <time>2016-08-18T18:04:03Z</time>
      </trkpt>
      <trkpt lat="47.14212" lon="3.20234">
        <ele>215</ele>
        <time>2016-08-18T18:04:04Z</time>
      </trkpt>
      <trkpt lat="47.14209" lon="3.20234">
        <ele>215</ele>
        <time>2016-08-18T18:04:05Z</time>
      </trkpt>
      <trkpt lat="47.14207" lon="3.20234">
        <ele>215</ele>
        <time>2016-08-18T18:04:06Z</time>
      </trkpt>
      <trkpt lat="47.14204" lon="3.20233">
        <ele>215</ele>
        <time>2016-08-18T18:04:07Z</time>
      </trkpt>
      <trkpt lat="47.14201" lon="3.20232">
        <ele>216</ele>
        <time>2016-08-18T18:04:08Z</time>
      </trkpt>
      <trkpt lat="47.14198" lon="3.2023">
        <ele>216</ele>
        <time>2016-08-18T18:04:09Z</time>
      </trkpt>
      <trkpt lat="47.14195" lon="3.20228">
        <ele>216</ele>
        <time>2016-08-18T18:04:10Z</time>
      </trkpt>
      <trkpt lat="47.14192" lon="3.20227">
        <ele>216</ele>
        <time>2016-08-18T18:04:11Z</time>
      </trkpt>
      <trkpt lat="47.14189" lon="3.20226">
        <ele>216</ele>
        <time>2016-08-18T18:04:12Z</time>
      </trkpt>
      <trkpt lat="47.14185" lon="3.20225">
        <ele>216</ele>
        <time>2016-08-18T18:04:13Z</time>
      </trkpt>
      <trkpt lat="47.14181" lon="3.20225">
        <ele>216</ele>
        <time>2016-08-18T18:04:14Z</time>
      </trkpt>
      <trkpt lat="47.1418" lon="3.20224">
        <ele>217</ele>
        <time>2016-08-18T18:04:15Z</time>
      </trkpt>
      <trkpt lat="47.14177" lon="3.20224">
        <ele>217</ele>
        <time>2016-08-18T18:04:16Z</time>
      </trkpt>
      <trkpt lat="47.14173" lon="3.20223">
        <ele>217</ele>
        <time>2016-08-18T18:04:17Z</time>
      </trkpt>
      <trkpt lat="47.14171" lon="3.20222">
        <ele>217</ele>
        <time>2016-08-18T18:04:18Z</time>
      </trkpt>
      <trkpt lat="47.14167" lon="3.20222">
        <ele>218</ele>
        <time>2016-08-18T18:04:19Z</time>
      </trkpt>
      <trkpt lat="47.14163" lon="3.20222">
        <ele>218</ele>
        <time>2016-08-18T18:04:20Z</time>
      </trkpt>
      <trkpt lat="47.14161" lon="3.20221">
        <ele>218</ele>
        <time>2016-08-18T18:04:21Z</time>
      </trkpt>
      <trkpt lat="47.14157" lon="3.2022">
        <ele>218</ele>
        <time>2016-08-18T18:04:22Z</time>
      </trkpt>
      <trkpt lat="47.14155" lon="3.20219">
        <ele>219</ele>
        <time>2016-08-18T18:04:23Z</time>
      </trkpt>
      <trkpt lat="47.14152" lon="3.20218">
        <ele>219</ele>
        <time>2016-08-18T18:04:24Z</time>
      </trkpt>
      <trkpt lat="47.14149" lon="3.20217">
        <ele>220</ele>
        <time>2016-08-18T18:04:25Z</time>
      </trkpt>
      <trkpt lat="47.14147" lon="3.20216">
        <ele>221</ele>
        <time>2016-08-18T18:04:26Z</time>
      </trkpt>
      <trkpt lat="47.14144" lon="3.20215">
        <ele>221</ele>
        <time>2016-08-18T18:04:27Z</time>
      </trkpt>
      <trkpt lat="47.1414" lon="3.20214">
        <ele>221</ele>
        <time>2016-08-18T18:04:28Z</time>
      </trkpt>
      <trkpt lat="47.14138" lon="3.20213">
        <ele>221</ele>
        <time>2016-08-18T18:04:29Z</time>
      </trkpt>
      <trkpt lat="47.14135" lon="3.20211">
        <ele>221</ele>
        <time>2016-08-18T18:04:30Z</time>
      </trkpt>
      <trkpt lat="47.14131" lon="3.2021">
        <ele>221</ele>
        <time>2016-08-18T18:04:31Z</time>
      </trkpt>
      <trkpt lat="47.14129" lon="3.20208">
        <ele>221</ele>
        <time>2016-08-18T18:04:32Z</time>
      </trkpt>
      <trkpt lat="47.14126" lon="3.20205">
        <ele>221</ele>
        <time>2016-08-18T18:04:33Z</time>
      </trkpt>
      <trkpt lat="47.14124" lon="3.20203">
        <ele>221</ele>
        <time>2016-08-18T18:04:34Z</time>
      </trkpt>
      <trkpt lat="47.14122" lon="3.202">
        <ele>221</ele>
        <time>2016-08-18T18:04:36Z</time>
      </trkpt>
      <trkpt lat="47.1412" lon="3.20197">
        <ele>221</ele>
        <time>2016-08-18T18:04:37Z</time>
      </trkpt>
      <trkpt lat="47.14118" lon="3.20194">
        <ele>222</ele>
        <time>2016-08-18T18:04:37Z</time>
      </trkpt>
      <trkpt lat="47.14115" lon="3.20191">
        <ele>222</ele>
        <time>2016-08-18T18:04:39Z</time>
      </trkpt>
      <trkpt lat="47.14113" lon="3.20187">
        <ele>222</ele>
        <time>2016-08-18T18:04:40Z</time>
      </trkpt>
      <trkpt lat="47.14111" lon="3.20183">
        <ele>222</ele>
        <time>2016-08-18T18:04:41Z</time>
      </trkpt>
      <trkpt lat="47.14108" lon="3.2018">
        <ele>222</ele>
        <time>2016-08-18T18:04:42Z</time>
      </trkpt>
      <trkpt lat="47.14104" lon="3.20176">
        <ele>223</ele>
        <time>2016-08-18T18:04:43Z</time>
      </trkpt>
      <trkpt lat="47.14101" lon="3.20174">
        <ele>223</ele>
        <time>2016-08-18T18:04:44Z</time>
      </trkpt>
      <trkpt lat="47.14095" lon="3.20168">
        <ele>224</ele>
        <time>2016-08-18T18:04:45Z</time>
      </trkpt>
      <trkpt lat="47.14095" lon="3.20167">
        <ele>224</ele>
        <time>2016-08-18T18:04:46Z</time>
      </trkpt>
      <trkpt lat="47.14092" lon="3.20163">
        <ele>224</ele>
        <time>2016-08-18T18:04:47Z</time>
      </trkpt>
      <trkpt lat="47.14088" lon="3.2016">
        <ele>224</ele>
        <time>2016-08-18T18:04:48Z</time>
      </trkpt>
      <trkpt lat="47.14081" lon="3.20154">
        <ele>224</ele>
        <time>2016-08-18T18:04:50Z</time>
      </trkpt>
      <trkpt lat="47.14081" lon="3.20154">
        <ele>224</ele>
        <time>2016-08-18T18:04:50Z</time>
      </trkpt>
      <trkpt lat="47.14076" lon="3.2015">
        <ele>224</ele>
        <time>2016-08-18T18:04:51Z</time>
      </trkpt>
      <trkpt lat="47.14072" lon="3.20147">
        <ele>224</ele>
        <time>2016-08-18T18:04:52Z</time>
      </trkpt>
      <trkpt lat="47.14067" lon="3.20144">
        <ele>224</ele>
        <time>2016-08-18T18:04:53Z</time>
      </trkpt>
      <trkpt lat="47.14063" lon="3.20141">
        <ele>224</ele>
        <time>2016-08-18T18:04:54Z</time>
      </trkpt>
      <trkpt lat="47.14058" lon="3.20139">
        <ele>224</ele>
        <time>2016-08-18T18:04:55Z</time>
      </trkpt>
      <trkpt lat="47.1405" lon="3.20136">
        <ele>224</ele>
        <time>2016-08-18T18:04:57Z</time>
      </trkpt>
      <trkpt lat="47.14047" lon="3.20135">
        <ele>224</ele>
        <time>2016-08-18T18:04:57Z</time>
      </trkpt>
      <trkpt lat="47.14042" lon="3.20134">
        <ele>224</ele>
        <time>2016-08-18T18:04:58Z</time>
      </trkpt>
      <trkpt lat="47.14037" lon="3.20132">
        <ele>224</ele>
        <time>2016-08-18T18:04:59Z</time>
      </trkpt>
      <trkpt lat="47.1403" lon="3.20131">
        <ele>224</ele>
        <time>2016-08-18T18:05:00Z</time>
      </trkpt>
      <trkpt lat="47.14024" lon="3.2013">
        <ele>224</ele>
        <time>2016-08-18T18:05:01Z</time>
      </trkpt>
      <trkpt lat="47.14018" lon="3.20129">
        <ele>224</ele>
        <time>2016-08-18T18:05:02Z</time>
      </trkpt>
      <trkpt lat="47.14012" lon="3.20129">
        <ele>223</ele>
        <time>2016-08-18T18:05:03Z</time>
      </trkpt>
      <trkpt lat="47.14005" lon="3.20129">
        <ele>224</ele>
        <time>2016-08-18T18:05:04Z</time>
      </trkpt>
      <trkpt lat="47.13998" lon="3.20129">
        <ele>224</ele>
        <time>2016-08-18T18:05:05Z</time>
      </trkpt>
      <trkpt lat="47.13992" lon="3.20129">
        <ele>224</ele>
        <time>2016-08-18T18:05:06Z</time>
      </trkpt>
      <trkpt lat="47.13985" lon="3.20128">
        <ele>224</ele>
        <time>2016-08-18T18:05:07Z</time>
      </trkpt>
      <trkpt lat="47.13979" lon="3.20126">
        <ele>224</ele>
        <time>2016-08-18T18:05:08Z</time>
      </trkpt>
      <trkpt lat="47.1397" lon="3.20122">
        <ele>223</ele>
        <time>2016-08-18T18:05:10Z</time>
      </trkpt>
      <trkpt lat="47.13966" lon="3.2012">
        <ele>223</ele>
        <time>2016-08-18T18:05:10Z</time>
      </trkpt>
      <trkpt lat="47.13959" lon="3.20114">
        <ele>223</ele>
        <time>2016-08-18T18:05:11Z</time>
      </trkpt>
      <trkpt lat="47.13952" lon="3.20105">
        <ele>221</ele>
        <time>2016-08-18T18:05:12Z</time>
      </trkpt>
      <trkpt lat="47.13945" lon="3.20098">
        <ele>221</ele>
        <time>2016-08-18T18:05:13Z</time>
      </trkpt>
      <trkpt lat="47.13939" lon="3.20091">
        <ele>220</ele>
        <time>2016-08-18T18:05:14Z</time>
      </trkpt>
      <trkpt lat="47.13934" lon="3.20084">
        <ele>219</ele>
        <time>2016-08-18T18:05:15Z</time>
      </trkpt>
      <trkpt lat="47.13928" lon="3.20075">
        <ele>219</ele>
        <time>2016-08-18T18:05:16Z</time>
      </trkpt>
      <trkpt lat="47.13921" lon="3.20065">
        <ele>219</ele>
        <time>2016-08-18T18:05:18Z</time>
      </trkpt>
      <trkpt lat="47.13915" lon="3.20058">
        <ele>218</ele>
        <time>2016-08-18T18:05:18Z</time>
      </trkpt>
      <trkpt lat="47.13908" lon="3.20048">
        <ele>218</ele>
        <time>2016-08-18T18:05:19Z</time>
      </trkpt>
      <trkpt lat="47.13901" lon="3.20038">
        <ele>216</ele>
        <time>2016-08-18T18:05:20Z</time>
      </trkpt>
      <trkpt lat="47.13895" lon="3.20029">
        <ele>216</ele>
        <time>2016-08-18T18:05:21Z</time>
      </trkpt>
      <trkpt lat="47.13888" lon="3.20019">
        <ele>216</ele>
        <time>2016-08-18T18:05:22Z</time>
      </trkpt>
      <trkpt lat="47.13881" lon="3.2001">
        <ele>216</ele>
        <time>2016-08-18T18:05:24Z</time>
      </trkpt>
      <trkpt lat="47.13874" lon="3.2">
        <ele>216</ele>
        <time>2016-08-18T18:05:25Z</time>
      </trkpt>
      <trkpt lat="47.13867" lon="3.1999">
        <ele>217</ele>
        <time>2016-08-18T18:05:26Z</time>
      </trkpt>
      <trkpt lat="47.13862" lon="3.19982">
        <ele>217</ele>
        <time>2016-08-18T18:05:27Z</time>
      </trkpt>
      <trkpt lat="47.13856" lon="3.19974">
        <ele>217</ele>
        <time>2016-08-18T18:05:28Z</time>
      </trkpt>
      <trkpt lat="47.13851" lon="3.19965">
        <ele>217</ele>
        <time>2016-08-18T18:05:29Z</time>
      </trkpt>
      <trkpt lat="47.13846" lon="3.19958">
        <ele>217</ele>
        <time>2016-08-18T18:05:30Z</time>
      </trkpt>
      <trkpt lat="47.13841" lon="3.19951">
        <ele>218</ele>
        <time>2016-08-18T18:05:31Z</time>
      </trkpt>
      <trkpt lat="47.13836" lon="3.19944">
        <ele>217</ele>
        <time>2016-08-18T18:05:32Z</time>
      </trkpt>
      <trkpt lat="47.13828" lon="3.19933">
        <ele>218</ele>
        <time>2016-08-18T18:05:33Z</time>
      </trkpt>
      <trkpt lat="47.13828" lon="3.19932">
        <ele>218</ele>
        <time>2016-08-18T18:05:34Z</time>
      </trkpt>
      <trkpt lat="47.13824" lon="3.19926">
        <ele>219</ele>
        <time>2016-08-18T18:05:35Z</time>
      </trkpt>
      <trkpt lat="47.1382" lon="3.19921">
        <ele>219</ele>
        <time>2016-08-18T18:05:36Z</time>
      </trkpt>
      <trkpt lat="47.13816" lon="3.19915">
        <ele>219</ele>
        <time>2016-08-18T18:05:37Z</time>
      </trkpt>
      <trkpt lat="47.13813" lon="3.1991">
        <ele>219</ele>
        <time>2016-08-18T18:05:38Z</time>
      </trkpt>
      <trkpt lat="47.13809" lon="3.19904">
        <ele>219</ele>
        <time>2016-08-18T18:05:39Z</time>
      </trkpt>
      <trkpt lat="47.13805" lon="3.19899">
        <ele>219</ele>
        <time>2016-08-18T18:05:40Z</time>
      </trkpt>
      <trkpt lat="47.13802" lon="3.19893">
        <ele>219</ele>
        <time>2016-08-18T18:05:41Z</time>
      </trkpt>
      <trkpt lat="47.13797" lon="3.19884">
        <ele>218</ele>
        <time>2016-08-18T18:05:42Z</time>
      </trkpt>
      <trkpt lat="47.13795" lon="3.19882">
        <ele>218</ele>
        <time>2016-08-18T18:05:43Z</time>
      </trkpt>
      <trkpt lat="47.13791" lon="3.19876">
        <ele>218</ele>
        <time>2016-08-18T18:05:44Z</time>
      </trkpt>
      <trkpt lat="47.13787" lon="3.1987">
        <ele>218</ele>
        <time>2016-08-18T18:05:45Z</time>
      </trkpt>
      <trkpt lat="47.13782" lon="3.19864">
        <ele>218</ele>
        <time>2016-08-18T18:05:46Z</time>
      </trkpt>
      <trkpt lat="47.13777" lon="3.19856">
        <ele>218</ele>
        <time>2016-08-18T18:05:47Z</time>
      </trkpt>
      <trkpt lat="47.1377" lon="3.19844">
        <ele>218</ele>
        <time>2016-08-18T18:05:49Z</time>
      </trkpt>
      <trkpt lat="47.13767" lon="3.19842">
        <ele>218</ele>
        <time>2016-08-18T18:05:49Z</time>
      </trkpt>
      <trkpt lat="47.1376" lon="3.19831">
        <ele>218</ele>
        <time>2016-08-18T18:05:50Z</time>
      </trkpt>
      <trkpt lat="47.13754" lon="3.19823">
        <ele>218</ele>
        <time>2016-08-18T18:05:51Z</time>
      </trkpt>
      <trkpt lat="47.1375" lon="3.19819">
        <ele>216</ele>
        <time>2016-08-18T18:05:52Z</time>
      </trkpt>
      <trkpt lat="47.13743" lon="3.1981">
        <ele>216</ele>
        <time>2016-08-18T18:05:53Z</time>
      </trkpt>
      <trkpt lat="47.13735" lon="3.19799">
        <ele>216</ele>
        <time>2016-08-18T18:05:54Z</time>
      </trkpt>
      <trkpt lat="47.1373" lon="3.19794">
        <ele>214</ele>
        <time>2016-08-18T18:05:55Z</time>
      </trkpt>
      <trkpt lat="47.13723" lon="3.19788">
        <ele>214</ele>
        <time>2016-08-18T18:05:56Z</time>
      </trkpt>
      <trkpt lat="47.13716" lon="3.19782">
        <ele>213</ele>
        <time>2016-08-18T18:05:57Z</time>
      </trkpt>
      <trkpt lat="47.13706" lon="3.19774">
        <ele>213</ele>
        <time>2016-08-18T18:05:58Z</time>
      </trkpt>
      <trkpt lat="47.137" lon="3.19769">
        <ele>212</ele>
        <time>2016-08-18T18:05:59Z</time>
      </trkpt>
      <trkpt lat="47.13692" lon="3.19762">
        <ele>211</ele>
        <time>2016-08-18T18:06:00Z</time>
      </trkpt>
      <trkpt lat="47.13683" lon="3.19755">
        <ele>211</ele>
        <time>2016-08-18T18:06:01Z</time>
      </trkpt>
      <trkpt lat="47.13675" lon="3.19749">
        <ele>210</ele>
        <time>2016-08-18T18:06:02Z</time>
      </trkpt>
      <trkpt lat="47.13667" lon="3.19742">
        <ele>210</ele>
        <time>2016-08-18T18:06:03Z</time>
      </trkpt>
      <trkpt lat="47.13658" lon="3.19734">
        <ele>211</ele>
        <time>2016-08-18T18:06:05Z</time>
      </trkpt>
      <trkpt lat="47.1365" lon="3.19729">
        <ele>209</ele>
        <time>2016-08-18T18:06:05Z</time>
      </trkpt>
      <trkpt lat="47.13642" lon="3.19722">
        <ele>211</ele>
        <time>2016-08-18T18:06:07Z</time>
      </trkpt>
      <trkpt lat="47.13634" lon="3.19715">
        <ele>210</ele>
        <time>2016-08-18T18:06:08Z</time>
      </trkpt>
      <trkpt lat="47.13628" lon="3.1971">
        <ele>210</ele>
        <time>2016-08-18T18:06:08Z</time>
      </trkpt>
      <trkpt lat="47.13621" lon="3.19704">
        <ele>211</ele>
        <time>2016-08-18T18:06:09Z</time>
      </trkpt>
      <trkpt lat="47.13615" lon="3.19697">
        <ele>210</ele>
        <time>2016-08-18T18:06:10Z</time>
      </trkpt>
      <trkpt lat="47.13609" lon="3.19691">
        <ele>210</ele>
        <time>2016-08-18T18:06:11Z</time>
      </trkpt>
      <trkpt lat="47.13603" lon="3.19683">
        <ele>210</ele>
        <time>2016-08-18T18:06:13Z</time>
      </trkpt>
      <trkpt lat="47.13597" lon="3.19676">
        <ele>210</ele>
        <time>2016-08-18T18:06:13Z</time>
      </trkpt>
      <trkpt lat="47.13592" lon="3.19668">
        <ele>209</ele>
        <time>2016-08-18T18:06:15Z</time>
      </trkpt>
      <trkpt lat="47.13587" lon="3.19661">
        <ele>209</ele>
        <time>2016-08-18T18:06:16Z</time>
      </trkpt>
      <trkpt lat="47.13579" lon="3.19649">
        <ele>210</ele>
        <time>2016-08-18T18:06:17Z</time>
      </trkpt>
      <trkpt lat="47.13578" lon="3.19647">
        <ele>210</ele>
        <time>2016-08-18T18:06:18Z</time>
      </trkpt>
      <trkpt lat="47.13573" lon="3.1964">
        <ele>210</ele>
        <time>2016-08-18T18:06:19Z</time>
      </trkpt>
      <trkpt lat="47.13568" lon="3.19633">
        <ele>210</ele>
        <time>2016-08-18T18:06:20Z</time>
      </trkpt>
      <trkpt lat="47.13564" lon="3.19626">
        <ele>210</ele>
        <time>2016-08-18T18:06:21Z</time>
      </trkpt>
      <trkpt lat="47.13557" lon="3.19613">
        <ele>211</ele>
        <time>2016-08-18T18:06:22Z</time>
      </trkpt>
      <trkpt lat="47.13556" lon="3.19612">
        <ele>211</ele>
        <time>2016-08-18T18:06:23Z</time>
      </trkpt>
      <trkpt lat="47.13549" lon="3.19598">
        <ele>212</ele>
        <time>2016-08-18T18:06:25Z</time>
      </trkpt>
      <trkpt lat="47.13548" lon="3.19597">
        <ele>212</ele>
        <time>2016-08-18T18:06:25Z</time>
      </trkpt>
      <trkpt lat="47.13544" lon="3.19589">
        <ele>212</ele>
        <time>2016-08-18T18:06:26Z</time>
      </trkpt>
      <trkpt lat="47.1354" lon="3.19582">
        <ele>212</ele>
        <time>2016-08-18T18:06:27Z</time>
      </trkpt>
      <trkpt lat="47.13536" lon="3.19575">
        <ele>212</ele>
        <time>2016-08-18T18:06:28Z</time>
      </trkpt>
      <trkpt lat="47.13532" lon="3.19568">
        <ele>212</ele>
        <time>2016-08-18T18:06:29Z</time>
      </trkpt>
      <trkpt lat="47.13527" lon="3.19558">
        <ele>214</ele>
        <time>2016-08-18T18:06:30Z</time>
      </trkpt>
      <trkpt lat="47.13526" lon="3.19555">
        <ele>214</ele>
        <time>2016-08-18T18:06:31Z</time>
      </trkpt>
      <trkpt lat="47.13523" lon="3.19548">
        <ele>214</ele>
        <time>2016-08-18T18:06:32Z</time>
      </trkpt>
      <trkpt lat="47.1352" lon="3.19542">
        <ele>214</ele>
        <time>2016-08-18T18:06:33Z</time>
      </trkpt>
      <trkpt lat="47.13516" lon="3.19536">
        <ele>214</ele>
        <time>2016-08-18T18:06:34Z</time>
      </trkpt>
      <trkpt lat="47.13512" lon="3.19526">
        <ele>216</ele>
        <time>2016-08-18T18:06:35Z</time>
      </trkpt>
      <trkpt lat="47.13509" lon="3.1952">
        <ele>215</ele>
        <time>2016-08-18T18:06:36Z</time>
      </trkpt>
      <trkpt lat="47.13507" lon="3.19517">
        <ele>215</ele>
        <time>2016-08-18T18:06:37Z</time>
      </trkpt>
      <trkpt lat="47.13503" lon="3.19508">
        <ele>215</ele>
        <time>2016-08-18T18:06:38Z</time>
      </trkpt>
      <trkpt lat="47.135" lon="3.19502">
        <ele>215</ele>
        <time>2016-08-18T18:06:39Z</time>
      </trkpt>
      <trkpt lat="47.13496" lon="3.19496">
        <ele>215</ele>
        <time>2016-08-18T18:06:41Z</time>
      </trkpt>
      <trkpt lat="47.13494" lon="3.19493">
        <ele>215</ele>
        <time>2016-08-18T18:06:41Z</time>
      </trkpt>
      <trkpt lat="47.13491" lon="3.19486">
        <ele>215</ele>
        <time>2016-08-18T18:06:42Z</time>
      </trkpt>
      <trkpt lat="47.13486" lon="3.19476">
        <ele>214</ele>
        <time>2016-08-18T18:06:44Z</time>
      </trkpt>
      <trkpt lat="47.13484" lon="3.19471">
        <ele>214</ele>
        <time>2016-08-18T18:06:44Z</time>
      </trkpt>
      <trkpt lat="47.13479" lon="3.19461">
        <ele>214</ele>
        <time>2016-08-18T18:06:45Z</time>
      </trkpt>
      <trkpt lat="47.13475" lon="3.19455">
        <ele>214</ele>
        <time>2016-08-18T18:06:46Z</time>
      </trkpt>
      <trkpt lat="47.1347" lon="3.19444">
        <ele>213</ele>
        <time>2016-08-18T18:06:47Z</time>
      </trkpt>
      <trkpt lat="47.13467" lon="3.19438">
        <ele>214</ele>
        <time>2016-08-18T18:06:48Z</time>
      </trkpt>
      <trkpt lat="47.13462" lon="3.19431">
        <ele>213</ele>
        <time>2016-08-18T18:06:49Z</time>
      </trkpt>
      <trkpt lat="47.13458" lon="3.19423">
        <ele>214</ele>
        <time>2016-08-18T18:06:50Z</time>
      </trkpt>
      <trkpt lat="47.13452" lon="3.19415">
        <ele>214</ele>
        <time>2016-08-18T18:06:51Z</time>
      </trkpt>
      <trkpt lat="47.13447" lon="3.19408">
        <ele>214</ele>
        <time>2016-08-18T18:06:52Z</time>
      </trkpt>
      <trkpt lat="47.13441" lon="3.194">
        <ele>214</ele>
        <time>2016-08-18T18:06:53Z</time>
      </trkpt>
      <trkpt lat="47.13435" lon="3.19393">
        <ele>213</ele>
        <time>2016-08-18T18:06:54Z</time>
      </trkpt>
      <trkpt lat="47.13429" lon="3.19386">
        <ele>214</ele>
        <time>2016-08-18T18:06:55Z</time>
      </trkpt>
      <trkpt lat="47.13425" lon="3.1938">
        <ele>214</ele>
        <time>2016-08-18T18:06:56Z</time>
      </trkpt>
      <trkpt lat="47.1342" lon="3.19373">
        <ele>214</ele>
        <time>2016-08-18T18:06:57Z</time>
      </trkpt>
      <trkpt lat="47.13415" lon="3.19367">
        <ele>214</ele>
        <time>2016-08-18T18:06:58Z</time>
      </trkpt>
      <trkpt lat="47.13411" lon="3.19362">
        <ele>214</ele>
        <time>2016-08-18T18:06:59Z</time>
      </trkpt>
      <trkpt lat="47.13406" lon="3.19356">
        <ele>214</ele>
        <time>2016-08-18T18:07:01Z</time>
      </trkpt>
      <trkpt lat="47.13402" lon="3.19351">
        <ele>214</ele>
        <time>2016-08-18T18:07:01Z</time>
      </trkpt>
      <trkpt lat="47.13398" lon="3.19346">
        <ele>214</ele>
        <time>2016-08-18T18:07:03Z</time>
      </trkpt>
      <trkpt lat="47.13394" lon="3.19341">
        <ele>214</ele>
        <time>2016-08-18T18:07:04Z</time>
      </trkpt>
      <trkpt lat="47.13391" lon="3.19336">
        <ele>215</ele>
        <time>2016-08-18T18:07:05Z</time>
      </trkpt>
      <trkpt lat="47.13388" lon="3.19331">
        <ele>215</ele>
        <time>2016-08-18T18:07:06Z</time>
      </trkpt>
      <trkpt lat="47.13385" lon="3.19326">
        <ele>216</ele>
        <time>2016-08-18T18:07:07Z</time>
      </trkpt>
      <trkpt lat="47.13379" lon="3.19315">
        <ele>215</ele>
        <time>2016-08-18T18:07:08Z</time>
      </trkpt>
      <trkpt lat="47.13378" lon="3.19314">
        <ele>215</ele>
        <time>2016-08-18T18:07:09Z</time>
      </trkpt>
      <trkpt lat="47.13372" lon="3.19305">
        <ele>216</ele>
        <time>2016-08-18T18:07:11Z</time>
      </trkpt>
      <trkpt lat="47.13371" lon="3.19304">
        <ele>216</ele>
        <time>2016-08-18T18:07:11Z</time>
      </trkpt>
      <trkpt lat="47.13368" lon="3.193">
        <ele>217</ele>
        <time>2016-08-18T18:07:12Z</time>
      </trkpt>
      <trkpt lat="47.13365" lon="3.19297">
        <ele>217</ele>
        <time>2016-08-18T18:07:13Z</time>
      </trkpt>
      <trkpt lat="47.1336" lon="3.1929">
        <ele>217</ele>
        <time>2016-08-18T18:07:14Z</time>
      </trkpt>
      <trkpt lat="47.13359" lon="3.19289">
        <ele>217</ele>
        <time>2016-08-18T18:07:15Z</time>
      </trkpt>
      <trkpt lat="47.13356" lon="3.19285">
        <ele>217</ele>
        <time>2016-08-18T18:07:16Z</time>
      </trkpt>
      <trkpt lat="47.13352" lon="3.19281">
        <ele>218</ele>
        <time>2016-08-18T18:07:17Z</time>
      </trkpt>
      <trkpt lat="47.1335" lon="3.19278">
        <ele>218</ele>
        <time>2016-08-18T18:07:18Z</time>
      </trkpt>
      <trkpt lat="47.13347" lon="3.19273">
        <ele>218</ele>
        <time>2016-08-18T18:07:19Z</time>
      </trkpt>
      <trkpt lat="47.13343" lon="3.19269">
        <ele>218</ele>
        <time>2016-08-18T18:07:20Z</time>
      </trkpt>
      <trkpt lat="47.1334" lon="3.19266">
        <ele>219</ele>
        <time>2016-08-18T18:07:21Z</time>
      </trkpt>
      <trkpt lat="47.13337" lon="3.19262">
        <ele>219</ele>
        <time>2016-08-18T18:07:22Z</time>
      </trkpt>
      <trkpt lat="47.13334" lon="3.19259">
        <ele>219</ele>
        <time>2016-08-18T18:07:23Z</time>
      </trkpt>
      <trkpt lat="47.13331" lon="3.19255">
        <ele>220</ele>
        <time>2016-08-18T18:07:24Z</time>
      </trkpt>
      <trkpt lat="47.13328" lon="3.19251">
        <ele>220</ele>
        <time>2016-08-18T18:07:25Z</time>
      </trkpt>
      <trkpt lat="47.13325" lon="3.19247">
        <ele>220</ele>
        <time>2016-08-18T18:07:26Z</time>
      </trkpt>
      <trkpt lat="47.13321" lon="3.19243">
        <ele>221</ele>
        <time>2016-08-18T18:07:27Z</time>
      </trkpt>
      <trkpt lat="47.13318" lon="3.19239">
        <ele>221</ele>
        <time>2016-08-18T18:07:28Z</time>
      </trkpt>
      <trkpt lat="47.13313" lon="3.19233">
        <ele>222</ele>
        <time>2016-08-18T18:07:30Z</time>
      </trkpt>
      <trkpt lat="47.13311" lon="3.1923">
        <ele>222</ele>
        <time>2016-08-18T18:07:30Z</time>
      </trkpt>
      <trkpt lat="47.13308" lon="3.19226">
        <ele>222</ele>
        <time>2016-08-18T18:07:31Z</time>
      </trkpt>
      <trkpt lat="47.13305" lon="3.19222">
        <ele>222</ele>
        <time>2016-08-18T18:07:32Z</time>
      </trkpt>
      <trkpt lat="47.13301" lon="3.19217">
        <ele>222</ele>
        <time>2016-08-18T18:07:33Z</time>
      </trkpt>
      <trkpt lat="47.13298" lon="3.19213">
        <ele>222</ele>
        <time>2016-08-18T18:07:34Z</time>
      </trkpt>
      <trkpt lat="47.13295" lon="3.19208">
        <ele>222</ele>
        <time>2016-08-18T18:07:35Z</time>
      </trkpt>
      <trkpt lat="47.13291" lon="3.19203">
        <ele>222</ele>
        <time>2016-08-18T18:07:36Z</time>
      </trkpt>
      <trkpt lat="47.13287" lon="3.19198">
        <ele>222</ele>
        <time>2016-08-18T18:07:37Z</time>
      </trkpt>
      <trkpt lat="47.13283" lon="3.19193">
        <ele>222</ele>
        <time>2016-08-18T18:07:38Z</time>
      </trkpt>
      <trkpt lat="47.1328" lon="3.19189">
        <ele>221</ele>
        <time>2016-08-18T18:07:39Z</time>
      </trkpt>
      <trkpt lat="47.13275" lon="3.19181">
        <ele>220</ele>
        <time>2016-08-18T18:07:41Z</time>
      </trkpt>
      <trkpt lat="47.13271" lon="3.19175">
        <ele>220</ele>
        <time>2016-08-18T18:07:42Z</time>
      </trkpt>
      <trkpt lat="47.13266" lon="3.19169">
        <ele>220</ele>
        <time>2016-08-18T18:07:43Z</time>
      </trkpt>
      <trkpt lat="47.13263" lon="3.19165">
        <ele>220</ele>
        <time>2016-08-18T18:07:43Z</time>
      </trkpt>
      <trkpt lat="47.13258" lon="3.1916">
        <ele>220</ele>
        <time>2016-08-18T18:07:44Z</time>
      </trkpt>
      <trkpt lat="47.13254" lon="3.19154">
        <ele>221</ele>
        <time>2016-08-18T18:07:45Z</time>
      </trkpt>
      <trkpt lat="47.13249" lon="3.19148">
        <ele>220</ele>
        <time>2016-08-18T18:07:47Z</time>
      </trkpt>
      <trkpt lat="47.13244" lon="3.19141">
        <ele>220</ele>
        <time>2016-08-18T18:07:48Z</time>
      </trkpt>
      <trkpt lat="47.1324" lon="3.19135">
        <ele>220</ele>
        <time>2016-08-18T18:07:49Z</time>
      </trkpt>
      <trkpt lat="47.13236" lon="3.1913">
        <ele>220</ele>
        <time>2016-08-18T18:07:50Z</time>
      </trkpt>
      <trkpt lat="47.13231" lon="3.19124">
        <ele>220</ele>
        <time>2016-08-18T18:07:51Z</time>
      </trkpt>
      <trkpt lat="47.13227" lon="3.19117">
        <ele>219</ele>
        <time>2016-08-18T18:07:52Z</time>
      </trkpt>
      <trkpt lat="47.13222" lon="3.19111">
        <ele>220</ele>
        <time>2016-08-18T18:07:53Z</time>
      </trkpt>
      <trkpt lat="47.13216" lon="3.19105">
        <ele>220</ele>
        <time>2016-08-18T18:07:54Z</time>
      </trkpt>
      <trkpt lat="47.13211" lon="3.19099">
        <ele>219</ele>
        <time>2016-08-18T18:07:55Z</time>
      </trkpt>
      <trkpt lat="47.13207" lon="3.19093">
        <ele>220</ele>
        <time>2016-08-18T18:07:56Z</time>
      </trkpt>
      <trkpt lat="47.13201" lon="3.19088">
        <ele>220</ele>
        <time>2016-08-18T18:07:57Z</time>
      </trkpt>
      <trkpt lat="47.13196" lon="3.19082">
        <ele>220</ele>
        <time>2016-08-18T18:07:58Z</time>
      </trkpt>
      <trkpt lat="47.13186" lon="3.19073">
        <ele>219</ele>
        <time>2016-08-18T18:07:59Z</time>
      </trkpt>
      <trkpt lat="47.13183" lon="3.19071">
        <ele>219</ele>
        <time>2016-08-18T18:08:00Z</time>
      </trkpt>
      <trkpt lat="47.13174" lon="3.19064">
        <ele>220</ele>
        <time>2016-08-18T18:08:01Z</time>
      </trkpt>
      <trkpt lat="47.13172" lon="3.19062">
        <ele>220</ele>
        <time>2016-08-18T18:08:02Z</time>
      </trkpt>
      <trkpt lat="47.13162" lon="3.19055">
        <ele>220</ele>
        <time>2016-08-18T18:08:04Z</time>
      </trkpt>
      <trkpt lat="47.1316" lon="3.19053">
        <ele>220</ele>
        <time>2016-08-18T18:08:04Z</time>
      </trkpt>
      <trkpt lat="47.13154" lon="3.19049">
        <ele>220</ele>
        <time>2016-08-18T18:08:05Z</time>
      </trkpt>
      <trkpt lat="47.13145" lon="3.19043">
        <ele>221</ele>
        <time>2016-08-18T18:08:07Z</time>
      </trkpt>
      <trkpt lat="47.13143" lon="3.19042">
        <ele>220</ele>
        <time>2016-08-18T18:08:07Z</time>
      </trkpt>
      <trkpt lat="47.13137" lon="3.19037">
        <ele>220</ele>
        <time>2016-08-18T18:08:08Z</time>
      </trkpt>
      <trkpt lat="47.13132" lon="3.19033">
        <ele>221</ele>
        <time>2016-08-18T18:08:09Z</time>
      </trkpt>
      <trkpt lat="47.13128" lon="3.19029">
        <ele>221</ele>
        <time>2016-08-18T18:08:10Z</time>
      </trkpt>
      <trkpt lat="47.13122" lon="3.19025">
        <ele>221</ele>
        <time>2016-08-18T18:08:11Z</time>
      </trkpt>
      <trkpt lat="47.13113" lon="3.1902">
        <ele>222</ele>
        <time>2016-08-18T18:08:13Z</time>
      </trkpt>
      <trkpt lat="47.1311" lon="3.19018">
        <ele>223</ele>
        <time>2016-08-18T18:08:13Z</time>
      </trkpt>
      <trkpt lat="47.13105" lon="3.19015">
        <ele>223</ele>
        <time>2016-08-18T18:08:14Z</time>
      </trkpt>
      <trkpt lat="47.13099" lon="3.19012">
        <ele>223</ele>
        <time>2016-08-18T18:08:15Z</time>
      </trkpt>
      <trkpt lat="47.13092" lon="3.19009">
        <ele>224</ele>
        <time>2016-08-18T18:08:16Z</time>
      </trkpt>
      <trkpt lat="47.13087" lon="3.19007">
        <ele>224</ele>
        <time>2016-08-18T18:08:17Z</time>
      </trkpt>
      <trkpt lat="47.1308" lon="3.19003">
        <ele>224</ele>
        <time>2016-08-18T18:08:18Z</time>
      </trkpt>
      <trkpt lat="47.13074" lon="3.19">
        <ele>225</ele>
        <time>2016-08-18T18:08:19Z</time>
      </trkpt>
      <trkpt lat="47.13068" lon="3.18996">
        <ele>225</ele>
        <time>2016-08-18T18:08:20Z</time>
      </trkpt>
      <trkpt lat="47.13063" lon="3.18993">
        <ele>226</ele>
        <time>2016-08-18T18:08:21Z</time>
      </trkpt>
      <trkpt lat="47.13058" lon="3.1899">
        <ele>226</ele>
        <time>2016-08-18T18:08:22Z</time>
      </trkpt>
      <trkpt lat="47.13051" lon="3.18986">
        <ele>225</ele>
        <time>2016-08-18T18:08:24Z</time>
      </trkpt>
      <trkpt lat="47.13047" lon="3.18983">
        <ele>225</ele>
        <time>2016-08-18T18:08:24Z</time>
      </trkpt>
      <trkpt lat="47.13042" lon="3.18979">
        <ele>224</ele>
        <time>2016-08-18T18:08:25Z</time>
      </trkpt>
      <trkpt lat="47.13037" lon="3.18975">
        <ele>224</ele>
        <time>2016-08-18T18:08:26Z</time>
      </trkpt>
      <trkpt lat="47.13032" lon="3.18971">
        <ele>224</ele>
        <time>2016-08-18T18:08:27Z</time>
      </trkpt>
      <trkpt lat="47.13026" lon="3.18966">
        <ele>224</ele>
        <time>2016-08-18T18:08:28Z</time>
      </trkpt>
      <trkpt lat="47.13021" lon="3.18961">
        <ele>224</ele>
        <time>2016-08-18T18:08:30Z</time>
      </trkpt>
      <trkpt lat="47.13016" lon="3.18956">
        <ele>223</ele>
        <time>2016-08-18T18:08:30Z</time>
      </trkpt>
      <trkpt lat="47.13013" lon="3.1895">
        <ele>221</ele>
        <time>2016-08-18T18:08:32Z</time>
      </trkpt>
      <trkpt lat="47.13008" lon="3.18944">
        <ele>220</ele>
        <time>2016-08-18T18:08:33Z</time>
      </trkpt>
      <trkpt lat="47.13003" lon="3.18938">
        <ele>220</ele>
        <time>2016-08-18T18:08:34Z</time>
      </trkpt>
      <trkpt lat="47.13" lon="3.18933">
        <ele>220</ele>
        <time>2016-08-18T18:08:34Z</time>
      </trkpt>
      <trkpt lat="47.12995" lon="3.18927">
        <ele>220</ele>
        <time>2016-08-18T18:08:35Z</time>
      </trkpt>
      <trkpt lat="47.1299" lon="3.1892">
        <ele>220</ele>
        <time>2016-08-18T18:08:36Z</time>
      </trkpt>
      <trkpt lat="47.12986" lon="3.18914">
        <ele>220</ele>
        <time>2016-08-18T18:08:38Z</time>
      </trkpt>
      <trkpt lat="47.12981" lon="3.18907">
        <ele>220</ele>
        <time>2016-08-18T18:08:39Z</time>
      </trkpt>
      <trkpt lat="47.12977" lon="3.189">
        <ele>220</ele>
        <time>2016-08-18T18:08:40Z</time>
      </trkpt>
      <trkpt lat="47.12973" lon="3.18894">
        <ele>220</ele>
        <time>2016-08-18T18:08:41Z</time>
      </trkpt>
      <trkpt lat="47.12969" lon="3.18887">
        <ele>220</ele>
        <time>2016-08-18T18:08:42Z</time>
      </trkpt>
      <trkpt lat="47.12963" lon="3.18876">
        <ele>220</ele>
        <time>2016-08-18T18:08:43Z</time>
      </trkpt>
      <trkpt lat="47.12959" lon="3.18869">
        <ele>221</ele>
        <time>2016-08-18T18:08:44Z</time>
      </trkpt>
      <trkpt lat="47.12958" lon="3.18868">
        <ele>221</ele>
        <time>2016-08-18T18:08:45Z</time>
      </trkpt>
      <trkpt lat="47.12951" lon="3.18856">
        <ele>221</ele>
        <time>2016-08-18T18:08:47Z</time>
      </trkpt>
      <trkpt lat="47.1295" lon="3.18855">
        <ele>221</ele>
        <time>2016-08-18T18:08:47Z</time>
      </trkpt>
      <trkpt lat="47.12946" lon="3.18848">
        <ele>221</ele>
        <time>2016-08-18T18:08:48Z</time>
      </trkpt>
      <trkpt lat="47.12942" lon="3.18841">
        <ele>221</ele>
        <time>2016-08-18T18:08:49Z</time>
      </trkpt>
      <trkpt lat="47.12938" lon="3.18835">
        <ele>221</ele>
        <time>2016-08-18T18:08:50Z</time>
      </trkpt>
      <trkpt lat="47.12932" lon="3.18826">
        <ele>221</ele>
        <time>2016-08-18T18:08:51Z</time>
      </trkpt>
      <trkpt lat="47.12931" lon="3.18823">
        <ele>221</ele>
        <time>2016-08-18T18:08:52Z</time>
      </trkpt>
      <trkpt lat="47.12927" lon="3.18817">
        <ele>221</ele>
        <time>2016-08-18T18:08:53Z</time>
      </trkpt>
      <trkpt lat="47.12923" lon="3.1881">
        <ele>221</ele>
        <time>2016-08-18T18:08:54Z</time>
      </trkpt>
      <trkpt lat="47.12916" lon="3.18801">
        <ele>221</ele>
        <time>2016-08-18T18:08:55Z</time>
      </trkpt>
      <trkpt lat="47.12911" lon="3.18795">
        <ele>221</ele>
        <time>2016-08-18T18:08:57Z</time>
      </trkpt>
      <trkpt lat="47.12906" lon="3.18789">
        <ele>221</ele>
        <time>2016-08-18T18:08:58Z</time>
      </trkpt>
      <trkpt lat="47.12905" lon="3.18787">
        <ele>221</ele>
        <time>2016-08-18T18:08:58Z</time>
      </trkpt>
      <trkpt lat="47.129" lon="3.18781">
        <ele>221</ele>
        <time>2016-08-18T18:08:59Z</time>
      </trkpt>
      <trkpt lat="47.12895" lon="3.18775">
        <ele>221</ele>
        <time>2016-08-18T18:09:00Z</time>
      </trkpt>
      <trkpt lat="47.12888" lon="3.18768">
        <ele>221</ele>
        <time>2016-08-18T18:09:01Z</time>
      </trkpt>
      <trkpt lat="47.12885" lon="3.18765">
        <ele>221</ele>
        <time>2016-08-18T18:09:02Z</time>
      </trkpt>
      <trkpt lat="47.1288" lon="3.1876">
        <ele>221</ele>
        <time>2016-08-18T18:09:03Z</time>
      </trkpt>
      <trkpt lat="47.12873" lon="3.18755">
        <ele>221</ele>
        <time>2016-08-18T18:09:04Z</time>
      </trkpt>
      <trkpt lat="47.12869" lon="3.18752">
        <ele>221</ele>
        <time>2016-08-18T18:09:05Z</time>
      </trkpt>
      <trkpt lat="47.12864" lon="3.18749">
        <ele>221</ele>
        <time>2016-08-18T18:09:06Z</time>
      </trkpt>
      <trkpt lat="47.12858" lon="3.18745">
        <ele>221</ele>
        <time>2016-08-18T18:09:07Z</time>
      </trkpt>
      <trkpt lat="47.1285" lon="3.1874">
        <ele>221</ele>
        <time>2016-08-18T18:09:09Z</time>
      </trkpt>
      <trkpt lat="47.12846" lon="3.18738">
        <ele>220</ele>
        <time>2016-08-18T18:09:09Z</time>
      </trkpt>
      <trkpt lat="47.12842" lon="3.18735">
        <ele>220</ele>
        <time>2016-08-18T18:09:10Z</time>
      </trkpt>
      <trkpt lat="47.12836" lon="3.18732">
        <ele>220</ele>
        <time>2016-08-18T18:09:11Z</time>
      </trkpt>
      <trkpt lat="47.1283" lon="3.1873">
        <ele>220</ele>
        <time>2016-08-18T18:09:12Z</time>
      </trkpt>
      <trkpt lat="47.12823" lon="3.18727">
        <ele>219</ele>
        <time>2016-08-18T18:09:13Z</time>
      </trkpt>
      <trkpt lat="47.12817" lon="3.18725">
        <ele>219</ele>
        <time>2016-08-18T18:09:15Z</time>
      </trkpt>
      <trkpt lat="47.12812" lon="3.18723">
        <ele>219</ele>
        <time>2016-08-18T18:09:16Z</time>
      </trkpt>
      <trkpt lat="47.12807" lon="3.18722">
        <ele>219</ele>
        <time>2016-08-18T18:09:16Z</time>
      </trkpt>
      <trkpt lat="47.128" lon="3.18721">
        <ele>219</ele>
        <time>2016-08-18T18:09:17Z</time>
      </trkpt>
      <trkpt lat="47.12794" lon="3.1872">
        <ele>220</ele>
        <time>2016-08-18T18:09:19Z</time>
      </trkpt>
      <trkpt lat="47.12787" lon="3.18719">
        <ele>220</ele>
        <time>2016-08-18T18:09:20Z</time>
      </trkpt>
      <trkpt lat="47.12782" lon="3.18718">
        <ele>219</ele>
        <time>2016-08-18T18:09:20Z</time>
      </trkpt>
      <trkpt lat="47.12777" lon="3.18718">
        <ele>219</ele>
        <time>2016-08-18T18:09:21Z</time>
      </trkpt>
      <trkpt lat="47.1277" lon="3.18717">
        <ele>219</ele>
        <time>2016-08-18T18:09:22Z</time>
      </trkpt>
      <trkpt lat="47.12764" lon="3.18716">
        <ele>219</ele>
        <time>2016-08-18T18:09:24Z</time>
      </trkpt>
      <trkpt lat="47.12758" lon="3.18715">
        <ele>220</ele>
        <time>2016-08-18T18:09:25Z</time>
      </trkpt>
      <trkpt lat="47.12751" lon="3.18714">
        <ele>220</ele>
        <time>2016-08-18T18:09:26Z</time>
      </trkpt>
      <trkpt lat="47.12745" lon="3.18713">
        <ele>220</ele>
        <time>2016-08-18T18:09:27Z</time>
      </trkpt>
      <trkpt lat="47.12739" lon="3.18712">
        <ele>219</ele>
        <time>2016-08-18T18:09:28Z</time>
      </trkpt>
      <trkpt lat="47.12733" lon="3.18712">
        <ele>219</ele>
        <time>2016-08-18T18:09:29Z</time>
      </trkpt>
      <trkpt lat="47.12726" lon="3.18711">
        <ele>219</ele>
        <time>2016-08-18T18:09:30Z</time>
      </trkpt>
      <trkpt lat="47.12715" lon="3.1871">
        <ele>218</ele>
        <time>2016-08-18T18:09:31Z</time>
      </trkpt>
      <trkpt lat="47.12708" lon="3.18709">
        <ele>218</ele>
        <time>2016-08-18T18:09:32Z</time>
      </trkpt>
      <trkpt lat="47.12707" lon="3.18709">
        <ele>218</ele>
        <time>2016-08-18T18:09:33Z</time>
      </trkpt>
      <trkpt lat="47.127" lon="3.18709">
        <ele>218</ele>
        <time>2016-08-18T18:09:34Z</time>
      </trkpt>
      <trkpt lat="47.12694" lon="3.18708">
        <ele>217</ele>
        <time>2016-08-18T18:09:35Z</time>
      </trkpt>
      <trkpt lat="47.12687" lon="3.18708">
        <ele>217</ele>
        <time>2016-08-18T18:09:36Z</time>
      </trkpt>
      <trkpt lat="47.12675" lon="3.18708">
        <ele>217</ele>
        <time>2016-08-18T18:09:38Z</time>
      </trkpt>
      <trkpt lat="47.12669" lon="3.18707">
        <ele>217</ele>
        <time>2016-08-18T18:09:38Z</time>
      </trkpt>
      <trkpt lat="47.12666" lon="3.18707">
        <ele>217</ele>
        <time>2016-08-18T18:09:39Z</time>
      </trkpt>
      <trkpt lat="47.12656" lon="3.18706">
        <ele>217</ele>
        <time>2016-08-18T18:09:40Z</time>
      </trkpt>
      <trkpt lat="47.12653" lon="3.18706">
        <ele>217</ele>
        <time>2016-08-18T18:09:41Z</time>
      </trkpt>
      <trkpt lat="47.12643" lon="3.18705">
        <ele>216</ele>
        <time>2016-08-18T18:09:43Z</time>
      </trkpt>
      <trkpt lat="47.1264" lon="3.18704">
        <ele>216</ele>
        <time>2016-08-18T18:09:43Z</time>
      </trkpt>
      <trkpt lat="47.1263" lon="3.18704">
        <ele>216</ele>
        <time>2016-08-18T18:09:45Z</time>
      </trkpt>
      <trkpt lat="47.12627" lon="3.18704">
        <ele>216</ele>
        <time>2016-08-18T18:09:45Z</time>
      </trkpt>
      <trkpt lat="47.12621" lon="3.18703">
        <ele>216</ele>
        <time>2016-08-18T18:09:46Z</time>
      </trkpt>
      <trkpt lat="47.12614" lon="3.18702">
        <ele>216</ele>
        <time>2016-08-18T18:09:47Z</time>
      </trkpt>
      <trkpt lat="47.12607" lon="3.18701">
        <ele>216</ele>
        <time>2016-08-18T18:09:48Z</time>
      </trkpt>
      <trkpt lat="47.12601" lon="3.18701">
        <ele>217</ele>
        <time>2016-08-18T18:09:49Z</time>
      </trkpt>
      <trkpt lat="47.12594" lon="3.187">
        <ele>217</ele>
        <time>2016-08-18T18:09:50Z</time>
      </trkpt>
      <trkpt lat="47.12587" lon="3.187">
        <ele>217</ele>
        <time>2016-08-18T18:09:51Z</time>
      </trkpt>
      <trkpt lat="47.12581" lon="3.18699">
        <ele>217</ele>
        <time>2016-08-18T18:09:52Z</time>
      </trkpt>
      <trkpt lat="47.12572" lon="3.18699">
        <ele>217</ele>
        <time>2016-08-18T18:09:53Z</time>
      </trkpt>
      <trkpt lat="47.12568" lon="3.18699">
        <ele>217</ele>
        <time>2016-08-18T18:09:54Z</time>
      </trkpt>
      <trkpt lat="47.12561" lon="3.18699">
        <ele>217</ele>
        <time>2016-08-18T18:09:55Z</time>
      </trkpt>
      <trkpt lat="47.12555" lon="3.18698">
        <ele>217</ele>
        <time>2016-08-18T18:09:56Z</time>
      </trkpt>
      <trkpt lat="47.12549" lon="3.18697">
        <ele>218</ele>
        <time>2016-08-18T18:09:57Z</time>
      </trkpt>
      <trkpt lat="47.12543" lon="3.18697">
        <ele>218</ele>
        <time>2016-08-18T18:09:58Z</time>
      </trkpt>
      <trkpt lat="47.12537" lon="3.18696">
        <ele>218</ele>
        <time>2016-08-18T18:09:59Z</time>
      </trkpt>
      <trkpt lat="47.1253" lon="3.18696">
        <ele>218</ele>
        <time>2016-08-18T18:10:00Z</time>
      </trkpt>
      <trkpt lat="47.12523" lon="3.18697">
        <ele>219</ele>
        <time>2016-08-18T18:10:01Z</time>
      </trkpt>
      <trkpt lat="47.12518" lon="3.18697">
        <ele>219</ele>
        <time>2016-08-18T18:10:02Z</time>
      </trkpt>
      <trkpt lat="47.12512" lon="3.18696">
        <ele>219</ele>
        <time>2016-08-18T18:10:03Z</time>
      </trkpt>
      <trkpt lat="47.12505" lon="3.18696">
        <ele>219</ele>
        <time>2016-08-18T18:10:05Z</time>
      </trkpt>
      <trkpt lat="47.125" lon="3.18696">
        <ele>219</ele>
        <time>2016-08-18T18:10:05Z</time>
      </trkpt>
      <trkpt lat="47.12494" lon="3.18695">
        <ele>219</ele>
        <time>2016-08-18T18:10:06Z</time>
      </trkpt>
      <trkpt lat="47.12488" lon="3.18694">
        <ele>219</ele>
        <time>2016-08-18T18:10:07Z</time>
      </trkpt>
      <trkpt lat="47.12481" lon="3.18693">
        <ele>219</ele>
        <time>2016-08-18T18:10:08Z</time>
      </trkpt>
      <trkpt lat="47.12474" lon="3.18692">
        <ele>218</ele>
        <time>2016-08-18T18:10:10Z</time>
      </trkpt>
      <trkpt lat="47.12468" lon="3.18691">
        <ele>218</ele>
        <time>2016-08-18T18:10:11Z</time>
      </trkpt>
      <trkpt lat="47.12462" lon="3.1869">
        <ele>218</ele>
        <time>2016-08-18T18:10:12Z</time>
      </trkpt>
      <trkpt lat="47.12455" lon="3.18689">
        <ele>218</ele>
        <time>2016-08-18T18:10:13Z</time>
      </trkpt>
      <trkpt lat="47.12449" lon="3.18688">
        <ele>218</ele>
        <time>2016-08-18T18:10:14Z</time>
      </trkpt>
      <trkpt lat="47.12438" lon="3.18686">
        <ele>218</ele>
        <time>2016-08-18T18:10:15Z</time>
      </trkpt>
      <trkpt lat="47.12432" lon="3.18685">
        <ele>218</ele>
        <time>2016-08-18T18:10:16Z</time>
      </trkpt>
      <trkpt lat="47.12431" lon="3.18685">
        <ele>218</ele>
        <time>2016-08-18T18:10:17Z</time>
      </trkpt>
      <trkpt lat="47.12425" lon="3.18684">
        <ele>218</ele>
        <time>2016-08-18T18:10:18Z</time>
      </trkpt>
      <trkpt lat="47.12419" lon="3.18683">
        <ele>218</ele>
        <time>2016-08-18T18:10:19Z</time>
      </trkpt>
      <trkpt lat="47.12413" lon="3.18682">
        <ele>219</ele>
        <time>2016-08-18T18:10:20Z</time>
      </trkpt>
      <trkpt lat="47.12407" lon="3.18682">
        <ele>218</ele>
        <time>2016-08-18T18:10:21Z</time>
      </trkpt>
      <trkpt lat="47.12401" lon="3.18681">
        <ele>218</ele>
        <time>2016-08-18T18:10:22Z</time>
      </trkpt>
      <trkpt lat="47.12395" lon="3.18681">
        <ele>218</ele>
        <time>2016-08-18T18:10:23Z</time>
      </trkpt>
      <trkpt lat="47.12389" lon="3.1868">
        <ele>218</ele>
        <time>2016-08-18T18:10:24Z</time>
      </trkpt>
      <trkpt lat="47.12382" lon="3.1868">
        <ele>218</ele>
        <time>2016-08-18T18:10:25Z</time>
      </trkpt>
      <trkpt lat="47.12376" lon="3.1868">
        <ele>218</ele>
        <time>2016-08-18T18:10:26Z</time>
      </trkpt>
      <trkpt lat="47.1237" lon="3.1868">
        <ele>218</ele>
        <time>2016-08-18T18:10:27Z</time>
      </trkpt>
      <trkpt lat="47.12364" lon="3.18679">
        <ele>218</ele>
        <time>2016-08-18T18:10:28Z</time>
      </trkpt>
      <trkpt lat="47.12358" lon="3.18679">
        <ele>218</ele>
        <time>2016-08-18T18:10:29Z</time>
      </trkpt>
      <trkpt lat="47.12352" lon="3.18678">
        <ele>218</ele>
        <time>2016-08-18T18:10:30Z</time>
      </trkpt>
      <trkpt lat="47.12346" lon="3.18678">
        <ele>218</ele>
        <time>2016-08-18T18:10:31Z</time>
      </trkpt>
      <trkpt lat="47.1234" lon="3.18677">
        <ele>218</ele>
        <time>2016-08-18T18:10:32Z</time>
      </trkpt>
      <trkpt lat="47.12334" lon="3.18677">
        <ele>218</ele>
        <time>2016-08-18T18:10:33Z</time>
      </trkpt>
      <trkpt lat="47.12328" lon="3.18676">
        <ele>217</ele>
        <time>2016-08-18T18:10:34Z</time>
      </trkpt>
      <trkpt lat="47.12323" lon="3.18676">
        <ele>217</ele>
        <time>2016-08-18T18:10:35Z</time>
      </trkpt>
      <trkpt lat="47.12315" lon="3.18676">
        <ele>216</ele>
        <time>2016-08-18T18:10:36Z</time>
      </trkpt>
      <trkpt lat="47.12309" lon="3.18675">
        <ele>216</ele>
        <time>2016-08-18T18:10:38Z</time>
      </trkpt>
      <trkpt lat="47.12306" lon="3.18675">
        <ele>216</ele>
        <time>2016-08-18T18:10:38Z</time>
      </trkpt>
      <trkpt lat="47.12299" lon="3.18674">
        <ele>216</ele>
        <time>2016-08-18T18:10:39Z</time>
      </trkpt>
      <trkpt lat="47.12293" lon="3.18673">
        <ele>217</ele>
        <time>2016-08-18T18:10:40Z</time>
      </trkpt>
      <trkpt lat="47.12286" lon="3.18672">
        <ele>217</ele>
        <time>2016-08-18T18:10:41Z</time>
      </trkpt>
      <trkpt lat="47.12281" lon="3.18673">
        <ele>217</ele>
        <time>2016-08-18T18:10:42Z</time>
      </trkpt>
      <trkpt lat="47.12276" lon="3.18673">
        <ele>217</ele>
        <time>2016-08-18T18:10:43Z</time>
      </trkpt>
      <trkpt lat="47.12269" lon="3.18672">
        <ele>217</ele>
        <time>2016-08-18T18:10:44Z</time>
      </trkpt>
      <trkpt lat="47.12264" lon="3.18671">
        <ele>217</ele>
        <time>2016-08-18T18:10:45Z</time>
      </trkpt>
      <trkpt lat="47.12258" lon="3.18671">
        <ele>217</ele>
        <time>2016-08-18T18:10:46Z</time>
      </trkpt>
      <trkpt lat="47.12253" lon="3.18671">
        <ele>217</ele>
        <time>2016-08-18T18:10:47Z</time>
      </trkpt>
      <trkpt lat="47.12247" lon="3.18669">
        <ele>217</ele>
        <time>2016-08-18T18:10:48Z</time>
      </trkpt>
      <trkpt lat="47.12241" lon="3.18668">
        <ele>217</ele>
        <time>2016-08-18T18:10:49Z</time>
      </trkpt>
      <trkpt lat="47.12235" lon="3.18667">
        <ele>217</ele>
        <time>2016-08-18T18:10:50Z</time>
      </trkpt>
      <trkpt lat="47.12229" lon="3.18666">
        <ele>216</ele>
        <time>2016-08-18T18:10:51Z</time>
      </trkpt>
      <trkpt lat="47.12223" lon="3.18666">
        <ele>216</ele>
        <time>2016-08-18T18:10:52Z</time>
      </trkpt>
      <trkpt lat="47.12217" lon="3.18665">
        <ele>216</ele>
        <time>2016-08-18T18:10:54Z</time>
      </trkpt>
      <trkpt lat="47.1221" lon="3.18664">
        <ele>216</ele>
        <time>2016-08-18T18:10:55Z</time>
      </trkpt>
      <trkpt lat="47.12203" lon="3.18664">
        <ele>215</ele>
        <time>2016-08-18T18:10:56Z</time>
      </trkpt>
      <trkpt lat="47.12197" lon="3.18663">
        <ele>215</ele>
        <time>2016-08-18T18:10:57Z</time>
      </trkpt>
      <trkpt lat="47.12191" lon="3.18662">
        <ele>215</ele>
        <time>2016-08-18T18:10:58Z</time>
      </trkpt>
      <trkpt lat="47.12185" lon="3.18661">
        <ele>215</ele>
        <time>2016-08-18T18:10:59Z</time>
      </trkpt>
      <trkpt lat="47.12179" lon="3.18661">
        <ele>215</ele>
        <time>2016-08-18T18:11:00Z</time>
      </trkpt>
      <trkpt lat="47.12173" lon="3.1866">
        <ele>214</ele>
        <time>2016-08-18T18:11:01Z</time>
      </trkpt>
      <trkpt lat="47.12168" lon="3.1866">
        <ele>214</ele>
        <time>2016-08-18T18:11:02Z</time>
      </trkpt>
      <trkpt lat="47.12162" lon="3.18661">
        <ele>215</ele>
        <time>2016-08-18T18:11:03Z</time>
      </trkpt>
      <trkpt lat="47.12156" lon="3.1866">
        <ele>215</ele>
        <time>2016-08-18T18:11:04Z</time>
      </trkpt>
      <trkpt lat="47.12151" lon="3.1866">
        <ele>215</ele>
        <time>2016-08-18T18:11:05Z</time>
      </trkpt>
      <trkpt lat="47.12145" lon="3.18659">
        <ele>215</ele>
        <time>2016-08-18T18:11:06Z</time>
      </trkpt>
      <trkpt lat="47.12138" lon="3.18658">
        <ele>215</ele>
        <time>2016-08-18T18:11:07Z</time>
      </trkpt>
      <trkpt lat="47.12132" lon="3.18658">
        <ele>215</ele>
        <time>2016-08-18T18:11:08Z</time>
      </trkpt>
      <trkpt lat="47.12122" lon="3.18658">
        <ele>215</ele>
        <time>2016-08-18T18:11:09Z</time>
      </trkpt>
      <trkpt lat="47.1212" lon="3.18658">
        <ele>216</ele>
        <time>2016-08-18T18:11:10Z</time>
      </trkpt>
      <trkpt lat="47.12114" lon="3.18657">
        <ele>215</ele>
        <time>2016-08-18T18:11:11Z</time>
      </trkpt>
      <trkpt lat="47.12108" lon="3.18657">
        <ele>216</ele>
        <time>2016-08-18T18:11:12Z</time>
      </trkpt>
      <trkpt lat="47.12102" lon="3.18656">
        <ele>215</ele>
        <time>2016-08-18T18:11:13Z</time>
      </trkpt>
      <trkpt lat="47.12091" lon="3.18658">
        <ele>217</ele>
        <time>2016-08-18T18:11:14Z</time>
      </trkpt>
      <trkpt lat="47.12084" lon="3.18659">
        <ele>218</ele>
        <time>2016-08-18T18:11:15Z</time>
      </trkpt>
      <trkpt lat="47.12077" lon="3.1866">
        <ele>218</ele>
        <time>2016-08-18T18:11:16Z</time>
      </trkpt>
      <trkpt lat="47.12073" lon="3.1866">
        <ele>218</ele>
        <time>2016-08-18T18:11:17Z</time>
      </trkpt>
      <trkpt lat="47.12067" lon="3.1866">
        <ele>218</ele>
        <time>2016-08-18T18:11:18Z</time>
      </trkpt>
      <trkpt lat="47.12061" lon="3.18661">
        <ele>218</ele>
        <time>2016-08-18T18:11:19Z</time>
      </trkpt>
      <trkpt lat="47.12054" lon="3.18661">
        <ele>218</ele>
        <time>2016-08-18T18:11:20Z</time>
      </trkpt>
      <trkpt lat="47.12046" lon="3.18661">
        <ele>217</ele>
        <time>2016-08-18T18:11:22Z</time>
      </trkpt>
      <trkpt lat="47.12042" lon="3.18662">
        <ele>217</ele>
        <time>2016-08-18T18:11:22Z</time>
      </trkpt>
      <trkpt lat="47.12035" lon="3.18662">
        <ele>217</ele>
        <time>2016-08-18T18:11:23Z</time>
      </trkpt>
      <trkpt lat="47.12029" lon="3.18663">
        <ele>217</ele>
        <time>2016-08-18T18:11:24Z</time>
      </trkpt>
      <trkpt lat="47.12022" lon="3.18664">
        <ele>217</ele>
        <time>2016-08-18T18:11:25Z</time>
      </trkpt>
      <trkpt lat="47.12016" lon="3.18665">
        <ele>217</ele>
        <time>2016-08-18T18:11:26Z</time>
      </trkpt>
      <trkpt lat="47.1201" lon="3.18667">
        <ele>217</ele>
        <time>2016-08-18T18:11:27Z</time>
      </trkpt>
      <trkpt lat="47.12004" lon="3.18667">
        <ele>216</ele>
        <time>2016-08-18T18:11:28Z</time>
      </trkpt>
      <trkpt lat="47.11998" lon="3.18668">
        <ele>216</ele>
        <time>2016-08-18T18:11:29Z</time>
      </trkpt>
      <trkpt lat="47.11991" lon="3.18669">
        <ele>215</ele>
        <time>2016-08-18T18:11:31Z</time>
      </trkpt>
      <trkpt lat="47.11984" lon="3.18669">
        <ele>215</ele>
        <time>2016-08-18T18:11:32Z</time>
      </trkpt>
      <trkpt lat="47.11978" lon="3.1867">
        <ele>215</ele>
        <time>2016-08-18T18:11:33Z</time>
      </trkpt>
      <trkpt lat="47.11972" lon="3.18671">
        <ele>215</ele>
        <time>2016-08-18T18:11:34Z</time>
      </trkpt>
      <trkpt lat="47.11967" lon="3.18671">
        <ele>215</ele>
        <time>2016-08-18T18:11:34Z</time>
      </trkpt>
      <trkpt lat="47.11961" lon="3.18672">
        <ele>214</ele>
        <time>2016-08-18T18:11:35Z</time>
      </trkpt>
      <trkpt lat="47.11954" lon="3.18674">
        <ele>214</ele>
        <time>2016-08-18T18:11:36Z</time>
      </trkpt>
      <trkpt lat="47.11947" lon="3.18675">
        <ele>214</ele>
        <time>2016-08-18T18:11:37Z</time>
      </trkpt>
      <trkpt lat="47.1194" lon="3.18676">
        <ele>214</ele>
        <time>2016-08-18T18:11:38Z</time>
      </trkpt>
      <trkpt lat="47.11933" lon="3.18678">
        <ele>214</ele>
        <time>2016-08-18T18:11:40Z</time>
      </trkpt>
      <trkpt lat="47.11926" lon="3.18679">
        <ele>214</ele>
        <time>2016-08-18T18:11:40Z</time>
      </trkpt>
      <trkpt lat="47.11919" lon="3.18681">
        <ele>214</ele>
        <time>2016-08-18T18:11:41Z</time>
      </trkpt>
      <trkpt lat="47.11911" lon="3.18683">
        <ele>214</ele>
        <time>2016-08-18T18:11:43Z</time>
      </trkpt>
      <trkpt lat="47.11903" lon="3.18684">
        <ele>213</ele>
        <time>2016-08-18T18:11:44Z</time>
      </trkpt>
      <trkpt lat="47.11889" lon="3.18688">
        <ele>213</ele>
        <time>2016-08-18T18:11:45Z</time>
      </trkpt>
      <trkpt lat="47.11881" lon="3.18689">
        <ele>212</ele>
        <time>2016-08-18T18:11:46Z</time>
      </trkpt>
      <trkpt lat="47.11879" lon="3.18689">
        <ele>212</ele>
        <time>2016-08-18T18:11:47Z</time>
      </trkpt>
      <trkpt lat="47.11872" lon="3.18691">
        <ele>212</ele>
        <time>2016-08-18T18:11:48Z</time>
      </trkpt>
      <trkpt lat="47.11864" lon="3.18692">
        <ele>212</ele>
        <time>2016-08-18T18:11:49Z</time>
      </trkpt>
      <trkpt lat="47.11849" lon="3.18696">
        <ele>212</ele>
        <time>2016-08-18T18:11:50Z</time>
      </trkpt>
      <trkpt lat="47.11848" lon="3.18696">
        <ele>212</ele>
        <time>2016-08-18T18:11:51Z</time>
      </trkpt>
      <trkpt lat="47.1184" lon="3.18698">
        <ele>212</ele>
        <time>2016-08-18T18:11:52Z</time>
      </trkpt>
      <trkpt lat="47.11832" lon="3.187">
        <ele>212</ele>
        <time>2016-08-18T18:11:53Z</time>
      </trkpt>
      <trkpt lat="47.11824" lon="3.18701">
        <ele>212</ele>
        <time>2016-08-18T18:11:54Z</time>
      </trkpt>
      <trkpt lat="47.11816" lon="3.18702">
        <ele>212</ele>
        <time>2016-08-18T18:11:55Z</time>
      </trkpt>
      <trkpt lat="47.11808" lon="3.18703">
        <ele>212</ele>
        <time>2016-08-18T18:11:56Z</time>
      </trkpt>
      <trkpt lat="47.11796" lon="3.18706">
        <ele>211</ele>
        <time>2016-08-18T18:11:57Z</time>
      </trkpt>
      <trkpt lat="47.11791" lon="3.18708">
        <ele>210</ele>
        <time>2016-08-18T18:11:58Z</time>
      </trkpt>
      <trkpt lat="47.11784" lon="3.18709">
        <ele>210</ele>
        <time>2016-08-18T18:11:59Z</time>
      </trkpt>
      <trkpt lat="47.11771" lon="3.18712">
        <ele>210</ele>
        <time>2016-08-18T18:12:00Z</time>
      </trkpt>
      <trkpt lat="47.11767" lon="3.18712">
        <ele>210</ele>
        <time>2016-08-18T18:12:01Z</time>
      </trkpt>
      <trkpt lat="47.11754" lon="3.18715">
        <ele>210</ele>
        <time>2016-08-18T18:12:03Z</time>
      </trkpt>
      <trkpt lat="47.11751" lon="3.18716">
        <ele>210</ele>
        <time>2016-08-18T18:12:03Z</time>
      </trkpt>
      <trkpt lat="47.11742" lon="3.18717">
        <ele>209</ele>
        <time>2016-08-18T18:12:04Z</time>
      </trkpt>
      <trkpt lat="47.1173" lon="3.18721">
        <ele>208</ele>
        <time>2016-08-18T18:12:05Z</time>
      </trkpt>
      <trkpt lat="47.11725" lon="3.18723">
        <ele>208</ele>
        <time>2016-08-18T18:12:06Z</time>
      </trkpt>
      <trkpt lat="47.11716" lon="3.18725">
        <ele>208</ele>
        <time>2016-08-18T18:12:07Z</time>
      </trkpt>
      <trkpt lat="47.11706" lon="3.18726">
        <ele>207</ele>
        <time>2016-08-18T18:12:08Z</time>
      </trkpt>
      <trkpt lat="47.11694" lon="3.18728">
        <ele>207</ele>
        <time>2016-08-18T18:12:10Z</time>
      </trkpt>
      <trkpt lat="47.11688" lon="3.18729">
        <ele>206</ele>
        <time>2016-08-18T18:12:10Z</time>
      </trkpt>
      <trkpt lat="47.1168" lon="3.18729">
        <ele>206</ele>
        <time>2016-08-18T18:12:11Z</time>
      </trkpt>
      <trkpt lat="47.11669" lon="3.18731">
        <ele>206</ele>
        <time>2016-08-18T18:12:12Z</time>
      </trkpt>
      <trkpt lat="47.1166" lon="3.18731">
        <ele>207</ele>
        <time>2016-08-18T18:12:13Z</time>
      </trkpt>
      <trkpt lat="47.11652" lon="3.18732">
        <ele>207</ele>
        <time>2016-08-18T18:12:14Z</time>
      </trkpt>
      <trkpt lat="47.11644" lon="3.18733">
        <ele>207</ele>
        <time>2016-08-18T18:12:15Z</time>
      </trkpt>
      <trkpt lat="47.11634" lon="3.18734">
        <ele>206</ele>
        <time>2016-08-18T18:12:16Z</time>
      </trkpt>
      <trkpt lat="47.11627" lon="3.18736">
        <ele>206</ele>
        <time>2016-08-18T18:12:17Z</time>
      </trkpt>
      <trkpt lat="47.1162" lon="3.18736">
        <ele>206</ele>
        <time>2016-08-18T18:12:18Z</time>
      </trkpt>
      <trkpt lat="47.11612" lon="3.18737">
        <ele>206</ele>
        <time>2016-08-18T18:12:19Z</time>
      </trkpt>
      <trkpt lat="47.11604" lon="3.18738">
        <ele>205</ele>
        <time>2016-08-18T18:12:20Z</time>
      </trkpt>
      <trkpt lat="47.11596" lon="3.1874">
        <ele>205</ele>
        <time>2016-08-18T18:12:21Z</time>
      </trkpt>
      <trkpt lat="47.11587" lon="3.18741">
        <ele>205</ele>
        <time>2016-08-18T18:12:23Z</time>
      </trkpt>
      <trkpt lat="47.11579" lon="3.18742">
        <ele>205</ele>
        <time>2016-08-18T18:12:24Z</time>
      </trkpt>
      <trkpt lat="47.11572" lon="3.18743">
        <ele>205</ele>
        <time>2016-08-18T18:12:24Z</time>
      </trkpt>
      <trkpt lat="47.11565" lon="3.18744">
        <ele>205</ele>
        <time>2016-08-18T18:12:25Z</time>
      </trkpt>
      <trkpt lat="47.11557" lon="3.18746">
        <ele>205</ele>
        <time>2016-08-18T18:12:26Z</time>
      </trkpt>
      <trkpt lat="47.1155" lon="3.18748">
        <ele>205</ele>
        <time>2016-08-18T18:12:27Z</time>
      </trkpt>
      <trkpt lat="47.11542" lon="3.18749">
        <ele>205</ele>
        <time>2016-08-18T18:12:29Z</time>
      </trkpt>
      <trkpt lat="47.11534" lon="3.18752">
        <ele>204</ele>
        <time>2016-08-18T18:12:29Z</time>
      </trkpt>
      <trkpt lat="47.11526" lon="3.18753">
        <ele>204</ele>
        <time>2016-08-18T18:12:30Z</time>
      </trkpt>
      <trkpt lat="47.11518" lon="3.18755">
        <ele>203</ele>
        <time>2016-08-18T18:12:32Z</time>
      </trkpt>
      <trkpt lat="47.1151" lon="3.18755">
        <ele>203</ele>
        <time>2016-08-18T18:12:33Z</time>
      </trkpt>
      <trkpt lat="47.11502" lon="3.18755">
        <ele>203</ele>
        <time>2016-08-18T18:12:34Z</time>
      </trkpt>
      <trkpt lat="47.11494" lon="3.18756">
        <ele>203</ele>
        <time>2016-08-18T18:12:35Z</time>
      </trkpt>
      <trkpt lat="47.11485" lon="3.18758">
        <ele>203</ele>
        <time>2016-08-18T18:12:36Z</time>
      </trkpt>
      <trkpt lat="47.11477" lon="3.18759">
        <ele>204</ele>
        <time>2016-08-18T18:12:37Z</time>
      </trkpt>
      <trkpt lat="47.11468" lon="3.18759">
        <ele>203</ele>
        <time>2016-08-18T18:12:38Z</time>
      </trkpt>
      <trkpt lat="47.1146" lon="3.18759">
        <ele>203</ele>
        <time>2016-08-18T18:12:39Z</time>
      </trkpt>
      <trkpt lat="47.11452" lon="3.18759">
        <ele>203</ele>
        <time>2016-08-18T18:12:40Z</time>
      </trkpt>
      <trkpt lat="47.11443" lon="3.1876">
        <ele>203</ele>
        <time>2016-08-18T18:12:41Z</time>
      </trkpt>
      <trkpt lat="47.1143" lon="3.18758">
        <ele>203</ele>
        <time>2016-08-18T18:12:42Z</time>
      </trkpt>
      <trkpt lat="47.11421" lon="3.18757">
        <ele>203</ele>
        <time>2016-08-18T18:12:43Z</time>
      </trkpt>
      <trkpt lat="47.11412" lon="3.18756">
        <ele>203</ele>
        <time>2016-08-18T18:12:45Z</time>
      </trkpt>
      <trkpt lat="47.11409" lon="3.18755">
        <ele>203</ele>
        <time>2016-08-18T18:12:45Z</time>
      </trkpt>
      <trkpt lat="47.11401" lon="3.18753">
        <ele>203</ele>
        <time>2016-08-18T18:12:46Z</time>
      </trkpt>
      <trkpt lat="47.11393" lon="3.18751">
        <ele>203</ele>
        <time>2016-08-18T18:12:47Z</time>
      </trkpt>
      <trkpt lat="47.11385" lon="3.18747">
        <ele>203</ele>
        <time>2016-08-18T18:12:48Z</time>
      </trkpt>
      <trkpt lat="47.11377" lon="3.18745">
        <ele>203</ele>
        <time>2016-08-18T18:12:49Z</time>
      </trkpt>
      <trkpt lat="47.11368" lon="3.18742">
        <ele>202</ele>
        <time>2016-08-18T18:12:50Z</time>
      </trkpt>
      <trkpt lat="47.1136" lon="3.18739">
        <ele>202</ele>
        <time>2016-08-18T18:12:51Z</time>
      </trkpt>
      <trkpt lat="47.11351" lon="3.18736">
        <ele>202</ele>
        <time>2016-08-18T18:12:52Z</time>
      </trkpt>
      <trkpt lat="47.1134" lon="3.18732">
        <ele>203</ele>
        <time>2016-08-18T18:12:53Z</time>
      </trkpt>
      <trkpt lat="47.11331" lon="3.18729">
        <ele>203</ele>
        <time>2016-08-18T18:12:55Z</time>
      </trkpt>
      <trkpt lat="47.11326" lon="3.18728">
        <ele>203</ele>
        <time>2016-08-18T18:12:55Z</time>
      </trkpt>
      <trkpt lat="47.11317" lon="3.18725">
        <ele>203</ele>
        <time>2016-08-18T18:12:56Z</time>
      </trkpt>
      <trkpt lat="47.11309" lon="3.18723">
        <ele>202</ele>
        <time>2016-08-18T18:12:57Z</time>
      </trkpt>
      <trkpt lat="47.11301" lon="3.1872">
        <ele>202</ele>
        <time>2016-08-18T18:12:58Z</time>
      </trkpt>
      <trkpt lat="47.11291" lon="3.18717">
        <ele>203</ele>
        <time>2016-08-18T18:12:59Z</time>
      </trkpt>
      <trkpt lat="47.11285" lon="3.18716">
        <ele>203</ele>
        <time>2016-08-18T18:13:00Z</time>
      </trkpt>
      <trkpt lat="47.11276" lon="3.18713">
        <ele>203</ele>
        <time>2016-08-18T18:13:01Z</time>
      </trkpt>
      <trkpt lat="47.11268" lon="3.1871">
        <ele>203</ele>
        <time>2016-08-18T18:13:02Z</time>
      </trkpt>
      <trkpt lat="47.11262" lon="3.18708">
        <ele>203</ele>
        <time>2016-08-18T18:13:03Z</time>
      </trkpt>
      <trkpt lat="47.11255" lon="3.18706">
        <ele>203</ele>
        <time>2016-08-18T18:13:04Z</time>
      </trkpt>
      <trkpt lat="47.11248" lon="3.18704">
        <ele>204</ele>
        <time>2016-08-18T18:13:05Z</time>
      </trkpt>
      <trkpt lat="47.11241" lon="3.18702">
        <ele>203</ele>
        <time>2016-08-18T18:13:06Z</time>
      </trkpt>
      <trkpt lat="47.11232" lon="3.187">
        <ele>204</ele>
        <time>2016-08-18T18:13:08Z</time>
      </trkpt>
      <trkpt lat="47.11227" lon="3.18698">
        <ele>204</ele>
        <time>2016-08-18T18:13:08Z</time>
      </trkpt>
      <trkpt lat="47.1122" lon="3.18696">
        <ele>204</ele>
        <time>2016-08-18T18:13:09Z</time>
      </trkpt>
      <trkpt lat="47.11213" lon="3.18694">
        <ele>205</ele>
        <time>2016-08-18T18:13:10Z</time>
      </trkpt>
      <trkpt lat="47.11207" lon="3.18692">
        <ele>205</ele>
        <time>2016-08-18T18:13:11Z</time>
      </trkpt>
      <trkpt lat="47.112" lon="3.1869">
        <ele>206</ele>
        <time>2016-08-18T18:13:12Z</time>
      </trkpt>
      <trkpt lat="47.11194" lon="3.18688">
        <ele>206</ele>
        <time>2016-08-18T18:13:13Z</time>
      </trkpt>
      <trkpt lat="47.11188" lon="3.18686">
        <ele>206</ele>
        <time>2016-08-18T18:13:15Z</time>
      </trkpt>
      <trkpt lat="47.11181" lon="3.18685">
        <ele>205</ele>
        <time>2016-08-18T18:13:16Z</time>
      </trkpt>
      <trkpt lat="47.1117" lon="3.18683">
        <ele>205</ele>
        <time>2016-08-18T18:13:17Z</time>
      </trkpt>
      <trkpt lat="47.11169" lon="3.18683">
        <ele>205</ele>
        <time>2016-08-18T18:13:18Z</time>
      </trkpt>
      <trkpt lat="47.11163" lon="3.18683">
        <ele>205</ele>
        <time>2016-08-18T18:13:19Z</time>
      </trkpt>
      <trkpt lat="47.11157" lon="3.18684">
        <ele>205</ele>
        <time>2016-08-18T18:13:20Z</time>
      </trkpt>
      <trkpt lat="47.1115" lon="3.18685">
        <ele>205</ele>
        <time>2016-08-18T18:13:21Z</time>
      </trkpt>
      <trkpt lat="47.11144" lon="3.18686">
        <ele>205</ele>
        <time>2016-08-18T18:13:22Z</time>
      </trkpt>
      <trkpt lat="47.11138" lon="3.18688">
        <ele>205</ele>
        <time>2016-08-18T18:13:23Z</time>
      </trkpt>
      <trkpt lat="47.11132" lon="3.1869">
        <ele>205</ele>
        <time>2016-08-18T18:13:24Z</time>
      </trkpt>
      <trkpt lat="47.11126" lon="3.18692">
        <ele>205</ele>
        <time>2016-08-18T18:13:25Z</time>
      </trkpt>
      <trkpt lat="47.1112" lon="3.18694">
        <ele>205</ele>
        <time>2016-08-18T18:13:26Z</time>
      </trkpt>
      <trkpt lat="47.11115" lon="3.18696">
        <ele>204</ele>
        <time>2016-08-18T18:13:27Z</time>
      </trkpt>
      <trkpt lat="47.11108" lon="3.18699">
        <ele>204</ele>
        <time>2016-08-18T18:13:28Z</time>
      </trkpt>
      <trkpt lat="47.11102" lon="3.18702">
        <ele>204</ele>
        <time>2016-08-18T18:13:29Z</time>
      </trkpt>
      <trkpt lat="47.11097" lon="3.18704">
        <ele>204</ele>
        <time>2016-08-18T18:13:30Z</time>
      </trkpt>
      <trkpt lat="47.11091" lon="3.18706">
        <ele>204</ele>
        <time>2016-08-18T18:13:31Z</time>
      </trkpt>
      <trkpt lat="47.11086" lon="3.18708">
        <ele>204</ele>
        <time>2016-08-18T18:13:32Z</time>
      </trkpt>
      <trkpt lat="47.1108" lon="3.18711">
        <ele>204</ele>
        <time>2016-08-18T18:13:33Z</time>
      </trkpt>
      <trkpt lat="47.11075" lon="3.18713">
        <ele>204</ele>
        <time>2016-08-18T18:13:34Z</time>
      </trkpt>
      <trkpt lat="47.1107" lon="3.18716">
        <ele>204</ele>
        <time>2016-08-18T18:13:35Z</time>
      </trkpt>
      <trkpt lat="47.11065" lon="3.1872">
        <ele>204</ele>
        <time>2016-08-18T18:13:36Z</time>
      </trkpt>
      <trkpt lat="47.1106" lon="3.18723">
        <ele>204</ele>
        <time>2016-08-18T18:13:37Z</time>
      </trkpt>
      <trkpt lat="47.11054" lon="3.18725">
        <ele>204</ele>
        <time>2016-08-18T18:13:38Z</time>
      </trkpt>
      <trkpt lat="47.11046" lon="3.18728">
        <ele>204</ele>
        <time>2016-08-18T18:13:40Z</time>
      </trkpt>
      <trkpt lat="47.11042" lon="3.1873">
        <ele>203</ele>
        <time>2016-08-18T18:13:40Z</time>
      </trkpt>
      <trkpt lat="47.11036" lon="3.18733">
        <ele>203</ele>
        <time>2016-08-18T18:13:41Z</time>
      </trkpt>
      <trkpt lat="47.11031" lon="3.18736">
        <ele>204</ele>
        <time>2016-08-18T18:13:42Z</time>
      </trkpt>
      <trkpt lat="47.11025" lon="3.18739">
        <ele>204</ele>
        <time>2016-08-18T18:13:43Z</time>
      </trkpt>
      <trkpt lat="47.11019" lon="3.18741">
        <ele>204</ele>
        <time>2016-08-18T18:13:44Z</time>
      </trkpt>
      <trkpt lat="47.11012" lon="3.18744">
        <ele>206</ele>
        <time>2016-08-18T18:13:45Z</time>
      </trkpt>
      <trkpt lat="47.11006" lon="3.18748">
        <ele>206</ele>
        <time>2016-08-18T18:13:46Z</time>
      </trkpt>
      <trkpt lat="47.11001" lon="3.18751">
        <ele>205</ele>
        <time>2016-08-18T18:13:47Z</time>
      </trkpt>
      <trkpt lat="47.10995" lon="3.18755">
        <ele>205</ele>
        <time>2016-08-18T18:13:48Z</time>
      </trkpt>
      <trkpt lat="47.10987" lon="3.18759">
        <ele>207</ele>
        <time>2016-08-18T18:13:50Z</time>
      </trkpt>
      <trkpt lat="47.10982" lon="3.18762">
        <ele>207</ele>
        <time>2016-08-18T18:13:51Z</time>
      </trkpt>
      <trkpt lat="47.10977" lon="3.18764">
        <ele>206</ele>
        <time>2016-08-18T18:13:51Z</time>
      </trkpt>
      <trkpt lat="47.10971" lon="3.18767">
        <ele>207</ele>
        <time>2016-08-18T18:13:52Z</time>
      </trkpt>
      <trkpt lat="47.10965" lon="3.1877">
        <ele>208</ele>
        <time>2016-08-18T18:13:53Z</time>
      </trkpt>
      <trkpt lat="47.10959" lon="3.18774">
        <ele>208</ele>
        <time>2016-08-18T18:13:54Z</time>
      </trkpt>
      <trkpt lat="47.10953" lon="3.18779">
        <ele>208</ele>
        <time>2016-08-18T18:13:55Z</time>
      </trkpt>
      <trkpt lat="47.10947" lon="3.18783">
        <ele>208</ele>
        <time>2016-08-18T18:13:56Z</time>
      </trkpt>
      <trkpt lat="47.10942" lon="3.18786">
        <ele>208</ele>
        <time>2016-08-18T18:13:57Z</time>
      </trkpt>
      <trkpt lat="47.10936" lon="3.18789">
        <ele>208</ele>
        <time>2016-08-18T18:13:59Z</time>
      </trkpt>
      <trkpt lat="47.1093" lon="3.18792">
        <ele>208</ele>
        <time>2016-08-18T18:14:00Z</time>
      </trkpt>
      <trkpt lat="47.10924" lon="3.18796">
        <ele>208</ele>
        <time>2016-08-18T18:14:01Z</time>
      </trkpt>
      <trkpt lat="47.10919" lon="3.18798">
        <ele>208</ele>
        <time>2016-08-18T18:14:02Z</time>
      </trkpt>
      <trkpt lat="47.10913" lon="3.188">
        <ele>208</ele>
        <time>2016-08-18T18:14:03Z</time>
      </trkpt>
      <trkpt lat="47.10907" lon="3.18803">
        <ele>208</ele>
        <time>2016-08-18T18:14:04Z</time>
      </trkpt>
      <trkpt lat="47.10901" lon="3.18806">
        <ele>208</ele>
        <time>2016-08-18T18:14:05Z</time>
      </trkpt>
      <trkpt lat="47.10895" lon="3.1881">
        <ele>208</ele>
        <time>2016-08-18T18:14:06Z</time>
      </trkpt>
      <trkpt lat="47.1089" lon="3.18813">
        <ele>208</ele>
        <time>2016-08-18T18:14:07Z</time>
      </trkpt>
      <trkpt lat="47.10884" lon="3.18816">
        <ele>208</ele>
        <time>2016-08-18T18:14:08Z</time>
      </trkpt>
      <trkpt lat="47.10879" lon="3.18818">
        <ele>207</ele>
        <time>2016-08-18T18:14:09Z</time>
      </trkpt>
      <trkpt lat="47.10873" lon="3.18821">
        <ele>207</ele>
        <time>2016-08-18T18:14:10Z</time>
      </trkpt>
      <trkpt lat="47.10868" lon="3.18824">
        <ele>206</ele>
        <time>2016-08-18T18:14:11Z</time>
      </trkpt>
      <trkpt lat="47.10862" lon="3.18827">
        <ele>206</ele>
        <time>2016-08-18T18:14:12Z</time>
      </trkpt>
      <trkpt lat="47.10856" lon="3.18831">
        <ele>205</ele>
        <time>2016-08-18T18:14:13Z</time>
      </trkpt>
      <trkpt lat="47.10851" lon="3.18834">
        <ele>205</ele>
        <time>2016-08-18T18:14:14Z</time>
      </trkpt>
      <trkpt lat="47.10842" lon="3.18838">
        <ele>203</ele>
        <time>2016-08-18T18:14:15Z</time>
      </trkpt>
      <trkpt lat="47.1084" lon="3.18839">
        <ele>202</ele>
        <time>2016-08-18T18:14:16Z</time>
      </trkpt>
      <trkpt lat="47.10835" lon="3.18843">
        <ele>202</ele>
        <time>2016-08-18T18:14:17Z</time>
      </trkpt>
      <trkpt lat="47.10826" lon="3.1885">
        <ele>202</ele>
        <time>2016-08-18T18:14:19Z</time>
      </trkpt>
      <trkpt lat="47.10823" lon="3.18852">
        <ele>201</ele>
        <time>2016-08-18T18:14:19Z</time>
      </trkpt>
      <trkpt lat="47.10817" lon="3.18855">
        <ele>201</ele>
        <time>2016-08-18T18:14:20Z</time>
      </trkpt>
      <trkpt lat="47.1081" lon="3.1886">
        <ele>201</ele>
        <time>2016-08-18T18:14:21Z</time>
      </trkpt>
      <trkpt lat="47.10805" lon="3.18864">
        <ele>200</ele>
        <time>2016-08-18T18:14:22Z</time>
      </trkpt>
      <trkpt lat="47.10801" lon="3.18866">
        <ele>199</ele>
        <time>2016-08-18T18:14:23Z</time>
      </trkpt>
      <trkpt lat="47.10796" lon="3.1887">
        <ele>199</ele>
        <time>2016-08-18T18:14:24Z</time>
      </trkpt>
      <trkpt lat="47.10789" lon="3.18874">
        <ele>199</ele>
        <time>2016-08-18T18:14:25Z</time>
      </trkpt>
      <trkpt lat="47.10783" lon="3.18878">
        <ele>198</ele>
        <time>2016-08-18T18:14:26Z</time>
      </trkpt>
      <trkpt lat="47.10776" lon="3.18882">
        <ele>198</ele>
        <time>2016-08-18T18:14:28Z</time>
      </trkpt>
      <trkpt lat="47.10774" lon="3.18883">
        <ele>197</ele>
        <time>2016-08-18T18:14:28Z</time>
      </trkpt>
      <trkpt lat="47.10767" lon="3.18889">
        <ele>198</ele>
        <time>2016-08-18T18:14:29Z</time>
      </trkpt>
      <trkpt lat="47.10761" lon="3.18892">
        <ele>197</ele>
        <time>2016-08-18T18:14:30Z</time>
      </trkpt>
      <trkpt lat="47.10758" lon="3.18895">
        <ele>196</ele>
        <time>2016-08-18T18:14:31Z</time>
      </trkpt>
      <trkpt lat="47.10752" lon="3.18896">
        <ele>195</ele>
        <time>2016-08-18T18:14:32Z</time>
      </trkpt>
      <trkpt lat="47.10746" lon="3.18899">
        <ele>195</ele>
        <time>2016-08-18T18:14:33Z</time>
      </trkpt>
      <trkpt lat="47.10741" lon="3.18903">
        <ele>195</ele>
        <time>2016-08-18T18:14:34Z</time>
      </trkpt>
      <trkpt lat="47.10734" lon="3.18907">
        <ele>195</ele>
        <time>2016-08-18T18:14:35Z</time>
      </trkpt>
      <trkpt lat="47.10728" lon="3.1891">
        <ele>195</ele>
        <time>2016-08-18T18:14:36Z</time>
      </trkpt>
      <trkpt lat="47.10723" lon="3.18914">
        <ele>196</ele>
        <time>2016-08-18T18:14:37Z</time>
      </trkpt>
      <trkpt lat="47.10717" lon="3.18919">
        <ele>197</ele>
        <time>2016-08-18T18:14:38Z</time>
      </trkpt>
      <trkpt lat="47.1071" lon="3.18922">
        <ele>198</ele>
        <time>2016-08-18T18:14:39Z</time>
      </trkpt>
      <trkpt lat="47.10703" lon="3.18926">
        <ele>198</ele>
        <time>2016-08-18T18:14:40Z</time>
      </trkpt>
      <trkpt lat="47.10697" lon="3.18929">
        <ele>198</ele>
        <time>2016-08-18T18:14:41Z</time>
      </trkpt>
      <trkpt lat="47.1069" lon="3.18932">
        <ele>198</ele>
        <time>2016-08-18T18:14:42Z</time>
      </trkpt>
      <trkpt lat="47.10684" lon="3.18933">
        <ele>198</ele>
        <time>2016-08-18T18:14:43Z</time>
      </trkpt>
      <trkpt lat="47.10678" lon="3.18934">
        <ele>198</ele>
        <time>2016-08-18T18:14:45Z</time>
      </trkpt>
      <trkpt lat="47.10672" lon="3.18935">
        <ele>198</ele>
        <time>2016-08-18T18:14:46Z</time>
      </trkpt>
      <trkpt lat="47.10666" lon="3.18936">
        <ele>198</ele>
        <time>2016-08-18T18:14:47Z</time>
      </trkpt>
      <trkpt lat="47.10653" lon="3.18936">
        <ele>199</ele>
        <time>2016-08-18T18:14:48Z</time>
      </trkpt>
      <trkpt lat="47.10651" lon="3.18936">
        <ele>199</ele>
        <time>2016-08-18T18:14:49Z</time>
      </trkpt>
      <trkpt lat="47.1064" lon="3.18934">
        <ele>199</ele>
        <time>2016-08-18T18:14:50Z</time>
      </trkpt>
      <trkpt lat="47.10638" lon="3.18933">
        <ele>199</ele>
        <time>2016-08-18T18:14:51Z</time>
      </trkpt>
      <trkpt lat="47.10628" lon="3.18928">
        <ele>199</ele>
        <time>2016-08-18T18:14:53Z</time>
      </trkpt>
      <trkpt lat="47.10627" lon="3.18927">
        <ele>199</ele>
        <time>2016-08-18T18:14:53Z</time>
      </trkpt>
      <trkpt lat="47.10621" lon="3.18924">
        <ele>199</ele>
        <time>2016-08-18T18:14:54Z</time>
      </trkpt>
      <trkpt lat="47.10616" lon="3.18918">
        <ele>199</ele>
        <time>2016-08-18T18:14:55Z</time>
      </trkpt>
      <trkpt lat="47.10611" lon="3.18914">
        <ele>199</ele>
        <time>2016-08-18T18:14:56Z</time>
      </trkpt>
      <trkpt lat="47.10605" lon="3.18907">
        <ele>198</ele>
        <time>2016-08-18T18:14:57Z</time>
      </trkpt>
      <trkpt lat="47.106" lon="3.189">
        <ele>198</ele>
        <time>2016-08-18T18:14:58Z</time>
      </trkpt>
      <trkpt lat="47.10596" lon="3.18894">
        <ele>197</ele>
        <time>2016-08-18T18:14:59Z</time>
      </trkpt>
      <trkpt lat="47.10591" lon="3.18887">
        <ele>197</ele>
        <time>2016-08-18T18:15:00Z</time>
      </trkpt>
      <trkpt lat="47.10587" lon="3.18881">
        <ele>196</ele>
        <time>2016-08-18T18:15:01Z</time>
      </trkpt>
      <trkpt lat="47.10583" lon="3.18873">
        <ele>196</ele>
        <time>2016-08-18T18:15:02Z</time>
      </trkpt>
      <trkpt lat="47.10579" lon="3.18867">
        <ele>196</ele>
        <time>2016-08-18T18:15:03Z</time>
      </trkpt>
      <trkpt lat="47.10575" lon="3.18859">
        <ele>196</ele>
        <time>2016-08-18T18:15:04Z</time>
      </trkpt>
      <trkpt lat="47.10572" lon="3.18852">
        <ele>196</ele>
        <time>2016-08-18T18:15:05Z</time>
      </trkpt>
      <trkpt lat="47.10568" lon="3.18844">
        <ele>196</ele>
        <time>2016-08-18T18:15:06Z</time>
      </trkpt>
      <trkpt lat="47.10565" lon="3.18837">
        <ele>196</ele>
        <time>2016-08-18T18:15:07Z</time>
      </trkpt>
      <trkpt lat="47.10562" lon="3.1883">
        <ele>196</ele>
        <time>2016-08-18T18:15:08Z</time>
      </trkpt>
      <trkpt lat="47.10557" lon="3.1882">
        <ele>197</ele>
        <time>2016-08-18T18:15:09Z</time>
      </trkpt>
      <trkpt lat="47.10554" lon="3.18812">
        <ele>196</ele>
        <time>2016-08-18T18:15:10Z</time>
      </trkpt>
      <trkpt lat="47.10552" lon="3.18807">
        <ele>195</ele>
        <time>2016-08-18T18:15:11Z</time>
      </trkpt>
      <trkpt lat="47.10547" lon="3.18799">
        <ele>194</ele>
        <time>2016-08-18T18:15:12Z</time>
      </trkpt>
      <trkpt lat="47.10544" lon="3.18791">
        <ele>194</ele>
        <time>2016-08-18T18:15:13Z</time>
      </trkpt>
      <trkpt lat="47.1054" lon="3.18783">
        <ele>194</ele>
        <time>2016-08-18T18:15:14Z</time>
      </trkpt>
      <trkpt lat="47.10537" lon="3.18776">
        <ele>194</ele>
        <time>2016-08-18T18:15:15Z</time>
      </trkpt>
      <trkpt lat="47.10533" lon="3.18768">
        <ele>194</ele>
        <time>2016-08-18T18:15:16Z</time>
      </trkpt>
      <trkpt lat="47.1053" lon="3.18759">
        <ele>195</ele>
        <time>2016-08-18T18:15:17Z</time>
      </trkpt>
      <trkpt lat="47.10527" lon="3.18753">
        <ele>195</ele>
        <time>2016-08-18T18:15:18Z</time>
      </trkpt>
      <trkpt lat="47.10523" lon="3.18746">
        <ele>195</ele>
        <time>2016-08-18T18:15:19Z</time>
      </trkpt>
      <trkpt lat="47.10519" lon="3.18739">
        <ele>195</ele>
        <time>2016-08-18T18:15:20Z</time>
      </trkpt>
      <trkpt lat="47.10515" lon="3.18731">
        <ele>195</ele>
        <time>2016-08-18T18:15:21Z</time>
      </trkpt>
      <trkpt lat="47.10512" lon="3.18725">
        <ele>195</ele>
        <time>2016-08-18T18:15:22Z</time>
      </trkpt>
      <trkpt lat="47.10507" lon="3.18716">
        <ele>195</ele>
        <time>2016-08-18T18:15:23Z</time>
      </trkpt>
      <trkpt lat="47.10502" lon="3.18705">
        <ele>195</ele>
        <time>2016-08-18T18:15:25Z</time>
      </trkpt>
      <trkpt lat="47.10499" lon="3.187">
        <ele>195</ele>
        <time>2016-08-18T18:15:25Z</time>
      </trkpt>
      <trkpt lat="47.10495" lon="3.1869">
        <ele>195</ele>
        <time>2016-08-18T18:15:26Z</time>
      </trkpt>
      <trkpt lat="47.10491" lon="3.18682">
        <ele>195</ele>
        <time>2016-08-18T18:15:27Z</time>
      </trkpt>
      <trkpt lat="47.10487" lon="3.18675">
        <ele>195</ele>
        <time>2016-08-18T18:15:28Z</time>
      </trkpt>
      <trkpt lat="47.10482" lon="3.18668">
        <ele>194</ele>
        <time>2016-08-18T18:15:29Z</time>
      </trkpt>
      <trkpt lat="47.10477" lon="3.18661">
        <ele>194</ele>
        <time>2016-08-18T18:15:31Z</time>
      </trkpt>
      <trkpt lat="47.10472" lon="3.18654">
        <ele>194</ele>
        <time>2016-08-18T18:15:32Z</time>
      </trkpt>
      <trkpt lat="47.10467" lon="3.18648">
        <ele>194</ele>
        <time>2016-08-18T18:15:33Z</time>
      </trkpt>
      <trkpt lat="47.10461" lon="3.18641">
        <ele>196</ele>
        <time>2016-08-18T18:15:34Z</time>
      </trkpt>
      <trkpt lat="47.10456" lon="3.18636">
        <ele>196</ele>
        <time>2016-08-18T18:15:35Z</time>
      </trkpt>
      <trkpt lat="47.10446" lon="3.18625">
        <ele>197</ele>
        <time>2016-08-18T18:15:36Z</time>
      </trkpt>
      <trkpt lat="47.10445" lon="3.18624">
        <ele>197</ele>
        <time>2016-08-18T18:15:37Z</time>
      </trkpt>
      <trkpt lat="47.10439" lon="3.18619">
        <ele>197</ele>
        <time>2016-08-18T18:15:38Z</time>
      </trkpt>
      <trkpt lat="47.10433" lon="3.18614">
        <ele>197</ele>
        <time>2016-08-18T18:15:39Z</time>
      </trkpt>
      <trkpt lat="47.10427" lon="3.1861">
        <ele>197</ele>
        <time>2016-08-18T18:15:40Z</time>
      </trkpt>
      <trkpt lat="47.10421" lon="3.18605">
        <ele>197</ele>
        <time>2016-08-18T18:15:41Z</time>
      </trkpt>
      <trkpt lat="47.1041" lon="3.18597">
        <ele>197</ele>
        <time>2016-08-18T18:15:43Z</time>
      </trkpt>
      <trkpt lat="47.10409" lon="3.18595">
        <ele>197</ele>
        <time>2016-08-18T18:15:43Z</time>
      </trkpt>
      <trkpt lat="47.10403" lon="3.18591">
        <ele>197</ele>
        <time>2016-08-18T18:15:44Z</time>
      </trkpt>
      <trkpt lat="47.10398" lon="3.18586">
        <ele>197</ele>
        <time>2016-08-18T18:15:45Z</time>
      </trkpt>
      <trkpt lat="47.10388" lon="3.18578">
        <ele>197</ele>
        <time>2016-08-18T18:15:46Z</time>
      </trkpt>
      <trkpt lat="47.10386" lon="3.18576">
        <ele>197</ele>
        <time>2016-08-18T18:15:47Z</time>
      </trkpt>
      <trkpt lat="47.10381" lon="3.18571">
        <ele>197</ele>
        <time>2016-08-18T18:15:48Z</time>
      </trkpt>
      <trkpt lat="47.10375" lon="3.18567">
        <ele>197</ele>
        <time>2016-08-18T18:15:49Z</time>
      </trkpt>
      <trkpt lat="47.10369" lon="3.18562">
        <ele>197</ele>
        <time>2016-08-18T18:15:50Z</time>
      </trkpt>
      <trkpt lat="47.1036" lon="3.18554">
        <ele>197</ele>
        <time>2016-08-18T18:15:52Z</time>
      </trkpt>
      <trkpt lat="47.10358" lon="3.18552">
        <ele>197</ele>
        <time>2016-08-18T18:15:52Z</time>
      </trkpt>
      <trkpt lat="47.10349" lon="3.18545">
        <ele>197</ele>
        <time>2016-08-18T18:15:53Z</time>
      </trkpt>
      <trkpt lat="47.10343" lon="3.18541">
        <ele>197</ele>
        <time>2016-08-18T18:15:54Z</time>
      </trkpt>
      <trkpt lat="47.1034" lon="3.18538">
        <ele>197</ele>
        <time>2016-08-18T18:15:55Z</time>
      </trkpt>
      <trkpt lat="47.10334" lon="3.18533">
        <ele>197</ele>
        <time>2016-08-18T18:15:56Z</time>
      </trkpt>
      <trkpt lat="47.10325" lon="3.18526">
        <ele>195</ele>
        <time>2016-08-18T18:15:57Z</time>
      </trkpt>
      <trkpt lat="47.10322" lon="3.18523">
        <ele>195</ele>
        <time>2016-08-18T18:15:58Z</time>
      </trkpt>
      <trkpt lat="47.10316" lon="3.18518">
        <ele>195</ele>
        <time>2016-08-18T18:15:59Z</time>
      </trkpt>
      <trkpt lat="47.10307" lon="3.18511">
        <ele>194</ele>
        <time>2016-08-18T18:16:01Z</time>
      </trkpt>
      <trkpt lat="47.10304" lon="3.18508">
        <ele>194</ele>
        <time>2016-08-18T18:16:01Z</time>
      </trkpt>
      <trkpt lat="47.10297" lon="3.18503">
        <ele>194</ele>
        <time>2016-08-18T18:16:02Z</time>
      </trkpt>
      <trkpt lat="47.10291" lon="3.18498">
        <ele>195</ele>
        <time>2016-08-18T18:16:03Z</time>
      </trkpt>
      <trkpt lat="47.10286" lon="3.18495">
        <ele>195</ele>
        <time>2016-08-18T18:16:04Z</time>
      </trkpt>
      <trkpt lat="47.10278" lon="3.1849">
        <ele>194</ele>
        <time>2016-08-18T18:16:06Z</time>
      </trkpt>
      <trkpt lat="47.10272" lon="3.18486">
        <ele>194</ele>
        <time>2016-08-18T18:16:06Z</time>
      </trkpt>
      <trkpt lat="47.10268" lon="3.18484">
        <ele>194</ele>
        <time>2016-08-18T18:16:07Z</time>
      </trkpt>
      <trkpt lat="47.1026" lon="3.18478">
        <ele>193</ele>
        <time>2016-08-18T18:16:09Z</time>
      </trkpt>
      <trkpt lat="47.10255" lon="3.18476">
        <ele>193</ele>
        <time>2016-08-18T18:16:09Z</time>
      </trkpt>
      <trkpt lat="47.10249" lon="3.18474">
        <ele>194</ele>
        <time>2016-08-18T18:16:10Z</time>
      </trkpt>
      <trkpt lat="47.10243" lon="3.18471">
        <ele>194</ele>
        <time>2016-08-18T18:16:11Z</time>
      </trkpt>
      <trkpt lat="47.10237" lon="3.18469">
        <ele>194</ele>
        <time>2016-08-18T18:16:12Z</time>
      </trkpt>
      <trkpt lat="47.1023" lon="3.18466">
        <ele>194</ele>
        <time>2016-08-18T18:16:13Z</time>
      </trkpt>
      <trkpt lat="47.10224" lon="3.18464">
        <ele>194</ele>
        <time>2016-08-18T18:16:14Z</time>
      </trkpt>
      <trkpt lat="47.10218" lon="3.18463">
        <ele>194</ele>
        <time>2016-08-18T18:16:16Z</time>
      </trkpt>
      <trkpt lat="47.10212" lon="3.18462">
        <ele>194</ele>
        <time>2016-08-18T18:16:16Z</time>
      </trkpt>
      <trkpt lat="47.10206" lon="3.18461">
        <ele>195</ele>
        <time>2016-08-18T18:16:17Z</time>
      </trkpt>
      <trkpt lat="47.102" lon="3.18459">
        <ele>195</ele>
        <time>2016-08-18T18:16:19Z</time>
      </trkpt>
      <trkpt lat="47.10194" lon="3.18458">
        <ele>195</ele>
        <time>2016-08-18T18:16:20Z</time>
      </trkpt>
      <trkpt lat="47.10188" lon="3.18457">
        <ele>195</ele>
        <time>2016-08-18T18:16:21Z</time>
      </trkpt>
      <trkpt lat="47.10181" lon="3.18456">
        <ele>196</ele>
        <time>2016-08-18T18:16:22Z</time>
      </trkpt>
      <trkpt lat="47.10174" lon="3.18455">
        <ele>196</ele>
        <time>2016-08-18T18:16:23Z</time>
      </trkpt>
      <trkpt lat="47.10168" lon="3.18455">
        <ele>196</ele>
        <time>2016-08-18T18:16:24Z</time>
      </trkpt>
      <trkpt lat="47.10162" lon="3.18454">
        <ele>196</ele>
        <time>2016-08-18T18:16:25Z</time>
      </trkpt>
      <trkpt lat="47.10156" lon="3.18453">
        <ele>197</ele>
        <time>2016-08-18T18:16:26Z</time>
      </trkpt>
      <trkpt lat="47.1015" lon="3.18452">
        <ele>197</ele>
        <time>2016-08-18T18:16:27Z</time>
      </trkpt>
      <trkpt lat="47.10143" lon="3.18451">
        <ele>197</ele>
        <time>2016-08-18T18:16:28Z</time>
      </trkpt>
      <trkpt lat="47.10137" lon="3.1845">
        <ele>197</ele>
        <time>2016-08-18T18:16:29Z</time>
      </trkpt>
      <trkpt lat="47.10131" lon="3.18449">
        <ele>197</ele>
        <time>2016-08-18T18:16:30Z</time>
      </trkpt>
      <trkpt lat="47.10124" lon="3.1845">
        <ele>197</ele>
        <time>2016-08-18T18:16:31Z</time>
      </trkpt>
      <trkpt lat="47.10117" lon="3.1845">
        <ele>197</ele>
        <time>2016-08-18T18:16:32Z</time>
      </trkpt>
      <trkpt lat="47.10111" lon="3.1845">
        <ele>197</ele>
        <time>2016-08-18T18:16:33Z</time>
      </trkpt>
      <trkpt lat="47.10104" lon="3.18451">
        <ele>197</ele>
        <time>2016-08-18T18:16:34Z</time>
      </trkpt>
      <trkpt lat="47.10097" lon="3.18452">
        <ele>197</ele>
        <time>2016-08-18T18:16:35Z</time>
      </trkpt>
      <trkpt lat="47.10091" lon="3.18452">
        <ele>197</ele>
        <time>2016-08-18T18:16:36Z</time>
      </trkpt>
      <trkpt lat="47.10085" lon="3.18453">
        <ele>197</ele>
        <time>2016-08-18T18:16:37Z</time>
      </trkpt>
      <trkpt lat="47.10076" lon="3.18454">
        <ele>197</ele>
        <time>2016-08-18T18:16:38Z</time>
      </trkpt>
      <trkpt lat="47.10072" lon="3.18455">
        <ele>197</ele>
        <time>2016-08-18T18:16:39Z</time>
      </trkpt>
      <trkpt lat="47.10065" lon="3.18457">
        <ele>197</ele>
        <time>2016-08-18T18:16:40Z</time>
      </trkpt>
      <trkpt lat="47.1006" lon="3.18457">
        <ele>196</ele>
        <time>2016-08-18T18:16:41Z</time>
      </trkpt>
      <trkpt lat="47.10051" lon="3.18459">
        <ele>196</ele>
        <time>2016-08-18T18:16:43Z</time>
      </trkpt>
      <trkpt lat="47.10045" lon="3.18461">
        <ele>196</ele>
        <time>2016-08-18T18:16:43Z</time>
      </trkpt>
      <trkpt lat="47.1004" lon="3.18462">
        <ele>196</ele>
        <time>2016-08-18T18:16:44Z</time>
      </trkpt>
      <trkpt lat="47.10034" lon="3.18465">
        <ele>196</ele>
        <time>2016-08-18T18:16:45Z</time>
      </trkpt>
      <trkpt lat="47.10027" lon="3.18467">
        <ele>197</ele>
        <time>2016-08-18T18:16:46Z</time>
      </trkpt>
      <trkpt lat="47.10021" lon="3.18469">
        <ele>197</ele>
        <time>2016-08-18T18:16:47Z</time>
      </trkpt>
      <trkpt lat="47.10013" lon="3.18472">
        <ele>198</ele>
        <time>2016-08-18T18:16:49Z</time>
      </trkpt>
      <trkpt lat="47.10009" lon="3.18474">
        <ele>198</ele>
        <time>2016-08-18T18:16:49Z</time>
      </trkpt>
      <trkpt lat="47.10003" lon="3.18476">
        <ele>198</ele>
        <time>2016-08-18T18:16:50Z</time>
      </trkpt>
      <trkpt lat="47.09997" lon="3.18479">
        <ele>198</ele>
        <time>2016-08-18T18:16:51Z</time>
      </trkpt>
      <trkpt lat="47.09991" lon="3.18481">
        <ele>198</ele>
        <time>2016-08-18T18:16:52Z</time>
      </trkpt>
      <trkpt lat="47.09984" lon="3.18484">
        <ele>198</ele>
        <time>2016-08-18T18:16:53Z</time>
      </trkpt>
      <trkpt lat="47.09978" lon="3.18485">
        <ele>196</ele>
        <time>2016-08-18T18:16:54Z</time>
      </trkpt>
      <trkpt lat="47.09973" lon="3.18486">
        <ele>196</ele>
        <time>2016-08-18T18:16:55Z</time>
      </trkpt>
      <trkpt lat="47.09966" lon="3.18488">
        <ele>196</ele>
        <time>2016-08-18T18:16:56Z</time>
      </trkpt>
      <trkpt lat="47.0996" lon="3.18489">
        <ele>196</ele>
        <time>2016-08-18T18:16:57Z</time>
      </trkpt>
      <trkpt lat="47.09954" lon="3.1849">
        <ele>195</ele>
        <time>2016-08-18T18:16:59Z</time>
      </trkpt>
      <trkpt lat="47.09948" lon="3.18492">
        <ele>195</ele>
        <time>2016-08-18T18:16:59Z</time>
      </trkpt>
      <trkpt lat="47.09942" lon="3.18493">
        <ele>194</ele>
        <time>2016-08-18T18:17:00Z</time>
      </trkpt>
      <trkpt lat="47.09936" lon="3.18494">
        <ele>194</ele>
        <time>2016-08-18T18:17:02Z</time>
      </trkpt>
      <trkpt lat="47.0993" lon="3.18497">
        <ele>193</ele>
        <time>2016-08-18T18:17:02Z</time>
      </trkpt>
      <trkpt lat="47.09924" lon="3.18499">
        <ele>193</ele>
        <time>2016-08-18T18:17:04Z</time>
      </trkpt>
      <trkpt lat="47.09918" lon="3.18501">
        <ele>193</ele>
        <time>2016-08-18T18:17:05Z</time>
      </trkpt>
      <trkpt lat="47.09913" lon="3.18505">
        <ele>193</ele>
        <time>2016-08-18T18:17:06Z</time>
      </trkpt>
      <trkpt lat="47.09907" lon="3.18508">
        <ele>193</ele>
        <time>2016-08-18T18:17:07Z</time>
      </trkpt>
      <trkpt lat="47.09901" lon="3.18512">
        <ele>193</ele>
        <time>2016-08-18T18:17:08Z</time>
      </trkpt>
      <trkpt lat="47.09896" lon="3.18516">
        <ele>193</ele>
        <time>2016-08-18T18:17:09Z</time>
      </trkpt>
      <trkpt lat="47.0989" lon="3.18521">
        <ele>193</ele>
        <time>2016-08-18T18:17:10Z</time>
      </trkpt>
      <trkpt lat="47.09885" lon="3.18525">
        <ele>193</ele>
        <time>2016-08-18T18:17:11Z</time>
      </trkpt>
      <trkpt lat="47.0988" lon="3.1853">
        <ele>194</ele>
        <time>2016-08-18T18:17:12Z</time>
      </trkpt>
      <trkpt lat="47.09874" lon="3.18535">
        <ele>194</ele>
        <time>2016-08-18T18:17:13Z</time>
      </trkpt>
      <trkpt lat="47.09868" lon="3.18539">
        <ele>194</ele>
        <time>2016-08-18T18:17:14Z</time>
      </trkpt>
      <trkpt lat="47.09863" lon="3.18544">
        <ele>194</ele>
        <time>2016-08-18T18:17:15Z</time>
      </trkpt>
      <trkpt lat="47.09857" lon="3.18549">
        <ele>193</ele>
        <time>2016-08-18T18:17:16Z</time>
      </trkpt>
      <trkpt lat="47.09852" lon="3.18553">
        <ele>194</ele>
        <time>2016-08-18T18:17:17Z</time>
      </trkpt>
      <trkpt lat="47.09847" lon="3.18559">
        <ele>194</ele>
        <time>2016-08-18T18:17:18Z</time>
      </trkpt>
      <trkpt lat="47.09841" lon="3.18564">
        <ele>194</ele>
        <time>2016-08-18T18:17:19Z</time>
      </trkpt>
      <trkpt lat="47.09833" lon="3.18571">
        <ele>195</ele>
        <time>2016-08-18T18:17:21Z</time>
      </trkpt>
      <trkpt lat="47.0983" lon="3.18573">
        <ele>196</ele>
        <time>2016-08-18T18:17:21Z</time>
      </trkpt>
      <trkpt lat="47.09825" lon="3.18578">
        <ele>196</ele>
        <time>2016-08-18T18:17:22Z</time>
      </trkpt>
      <trkpt lat="47.09819" lon="3.18582">
        <ele>196</ele>
        <time>2016-08-18T18:17:23Z</time>
      </trkpt>
      <trkpt lat="47.09814" lon="3.18587">
        <ele>196</ele>
        <time>2016-08-18T18:17:24Z</time>
      </trkpt>
      <trkpt lat="47.09807" lon="3.18595">
        <ele>196</ele>
        <time>2016-08-18T18:17:25Z</time>
      </trkpt>
      <trkpt lat="47.09804" lon="3.18598">
        <ele>196</ele>
        <time>2016-08-18T18:17:26Z</time>
      </trkpt>
      <trkpt lat="47.09798" lon="3.18603">
        <ele>196</ele>
        <time>2016-08-18T18:17:27Z</time>
      </trkpt>
      <trkpt lat="47.09793" lon="3.18608">
        <ele>196</ele>
        <time>2016-08-18T18:17:28Z</time>
      </trkpt>
      <trkpt lat="47.09786" lon="3.18614">
        <ele>195</ele>
        <time>2016-08-18T18:17:30Z</time>
      </trkpt>
      <trkpt lat="47.09783" lon="3.18617">
        <ele>195</ele>
        <time>2016-08-18T18:17:30Z</time>
      </trkpt>
      <trkpt lat="47.09778" lon="3.18621">
        <ele>195</ele>
        <time>2016-08-18T18:17:31Z</time>
      </trkpt>
      <trkpt lat="47.09771" lon="3.18627">
        <ele>194</ele>
        <time>2016-08-18T18:17:32Z</time>
      </trkpt>
      <trkpt lat="47.09768" lon="3.18629">
        <ele>194</ele>
        <time>2016-08-18T18:17:33Z</time>
      </trkpt>
      <trkpt lat="47.09763" lon="3.18633">
        <ele>194</ele>
        <time>2016-08-18T18:17:34Z</time>
      </trkpt>
      <trkpt lat="47.09757" lon="3.18639">
        <ele>194</ele>
        <time>2016-08-18T18:17:35Z</time>
      </trkpt>
      <trkpt lat="47.09753" lon="3.18645">
        <ele>194</ele>
        <time>2016-08-18T18:17:36Z</time>
      </trkpt>
      <trkpt lat="47.09749" lon="3.18649">
        <ele>194</ele>
        <time>2016-08-18T18:17:37Z</time>
      </trkpt>
      <trkpt lat="47.09743" lon="3.18656">
        <ele>194</ele>
        <time>2016-08-18T18:17:39Z</time>
      </trkpt>
      <trkpt lat="47.09738" lon="3.18661">
        <ele>194</ele>
        <time>2016-08-18T18:17:40Z</time>
      </trkpt>
      <trkpt lat="47.09734" lon="3.18664">
        <ele>195</ele>
        <time>2016-08-18T18:17:40Z</time>
      </trkpt>
      <trkpt lat="47.09727" lon="3.18671">
        <ele>195</ele>
        <time>2016-08-18T18:17:42Z</time>
      </trkpt>
      <trkpt lat="47.09722" lon="3.18674">
        <ele>195</ele>
        <time>2016-08-18T18:17:42Z</time>
      </trkpt>
      <trkpt lat="47.09717" lon="3.18678">
        <ele>196</ele>
        <time>2016-08-18T18:17:43Z</time>
      </trkpt>
      <trkpt lat="47.0971" lon="3.18683">
        <ele>198</ele>
        <time>2016-08-18T18:17:44Z</time>
      </trkpt>
      <trkpt lat="47.09705" lon="3.18685">
        <ele>198</ele>
        <time>2016-08-18T18:17:45Z</time>
      </trkpt>
      <trkpt lat="47.09699" lon="3.18686">
        <ele>198</ele>
        <time>2016-08-18T18:17:46Z</time>
      </trkpt>
      <trkpt lat="47.09693" lon="3.18686">
        <ele>198</ele>
        <time>2016-08-18T18:17:47Z</time>
      </trkpt>
      <trkpt lat="47.09687" lon="3.18686">
        <ele>198</ele>
        <time>2016-08-18T18:17:48Z</time>
      </trkpt>
      <trkpt lat="47.09681" lon="3.18684">
        <ele>198</ele>
        <time>2016-08-18T18:17:50Z</time>
      </trkpt>
      <trkpt lat="47.09676" lon="3.18683">
        <ele>199</ele>
        <time>2016-08-18T18:17:51Z</time>
      </trkpt>
      <trkpt lat="47.0967" lon="3.18681">
        <ele>199</ele>
        <time>2016-08-18T18:17:52Z</time>
      </trkpt>
      <trkpt lat="47.09665" lon="3.1868">
        <ele>199</ele>
        <time>2016-08-18T18:17:53Z</time>
      </trkpt>
      <trkpt lat="47.09655" lon="3.18678">
        <ele>198</ele>
        <time>2016-08-18T18:17:54Z</time>
      </trkpt>
      <trkpt lat="47.09653" lon="3.18678">
        <ele>198</ele>
        <time>2016-08-18T18:17:55Z</time>
      </trkpt>
      <trkpt lat="47.09648" lon="3.18676">
        <ele>198</ele>
        <time>2016-08-18T18:17:56Z</time>
      </trkpt>
      <trkpt lat="47.09642" lon="3.18675">
        <ele>197</ele>
        <time>2016-08-18T18:17:57Z</time>
      </trkpt>
      <trkpt lat="47.09635" lon="3.18672">
        <ele>197</ele>
        <time>2016-08-18T18:17:58Z</time>
      </trkpt>
      <trkpt lat="47.09629" lon="3.18669">
        <ele>197</ele>
        <time>2016-08-18T18:17:59Z</time>
      </trkpt>
      <trkpt lat="47.09619" lon="3.18663">
        <ele>195</ele>
        <time>2016-08-18T18:18:00Z</time>
      </trkpt>
      <trkpt lat="47.09616" lon="3.18662">
        <ele>195</ele>
        <time>2016-08-18T18:18:01Z</time>
      </trkpt>
      <trkpt lat="47.0961" lon="3.18659">
        <ele>194</ele>
        <time>2016-08-18T18:18:02Z</time>
      </trkpt>
      <trkpt lat="47.09604" lon="3.18656">
        <ele>194</ele>
        <time>2016-08-18T18:18:03Z</time>
      </trkpt>
      <trkpt lat="47.09594" lon="3.18651">
        <ele>194</ele>
        <time>2016-08-18T18:18:05Z</time>
      </trkpt>
      <trkpt lat="47.09588" lon="3.18648">
        <ele>194</ele>
        <time>2016-08-18T18:18:06Z</time>
      </trkpt>
      <trkpt lat="47.09585" lon="3.18647">
        <ele>194</ele>
        <time>2016-08-18T18:18:06Z</time>
      </trkpt>
      <trkpt lat="47.09579" lon="3.18645">
        <ele>194</ele>
        <time>2016-08-18T18:18:07Z</time>
      </trkpt>
      <trkpt lat="47.0957" lon="3.18641">
        <ele>194</ele>
        <time>2016-08-18T18:18:08Z</time>
      </trkpt>
      <trkpt lat="47.09566" lon="3.18639">
        <ele>194</ele>
        <time>2016-08-18T18:18:09Z</time>
      </trkpt>
      <trkpt lat="47.09558" lon="3.18635">
        <ele>193</ele>
        <time>2016-08-18T18:18:10Z</time>
      </trkpt>
      <trkpt lat="47.09554" lon="3.18634">
        <ele>193</ele>
        <time>2016-08-18T18:18:11Z</time>
      </trkpt>
      <trkpt lat="47.09549" lon="3.1863">
        <ele>193</ele>
        <time>2016-08-18T18:18:12Z</time>
      </trkpt>
      <trkpt lat="47.09542" lon="3.18626">
        <ele>193</ele>
        <time>2016-08-18T18:18:13Z</time>
      </trkpt>
      <trkpt lat="47.09536" lon="3.18623">
        <ele>193</ele>
        <time>2016-08-18T18:18:14Z</time>
      </trkpt>
      <trkpt lat="47.0953" lon="3.18619">
        <ele>193</ele>
        <time>2016-08-18T18:18:15Z</time>
      </trkpt>
      <trkpt lat="47.09524" lon="3.18614">
        <ele>193</ele>
        <time>2016-08-18T18:18:16Z</time>
      </trkpt>
      <trkpt lat="47.09518" lon="3.18613">
        <ele>194</ele>
        <time>2016-08-18T18:18:17Z</time>
      </trkpt>
      <trkpt lat="47.09512" lon="3.18615">
        <ele>194</ele>
        <time>2016-08-18T18:18:18Z</time>
      </trkpt>
      <trkpt lat="47.09506" lon="3.18621">
        <ele>195</ele>
        <time>2016-08-18T18:18:19Z</time>
      </trkpt>
      <trkpt lat="47.09502" lon="3.18629">
        <ele>195</ele>
        <time>2016-08-18T18:18:20Z</time>
      </trkpt>
      <trkpt lat="47.09497" lon="3.18636">
        <ele>194</ele>
        <time>2016-08-18T18:18:21Z</time>
      </trkpt>
      <trkpt lat="47.09492" lon="3.18643">
        <ele>194</ele>
        <time>2016-08-18T18:18:22Z</time>
      </trkpt>
      <trkpt lat="47.09487" lon="3.18651">
        <ele>194</ele>
        <time>2016-08-18T18:18:23Z</time>
      </trkpt>
      <trkpt lat="47.09482" lon="3.18657">
        <ele>195</ele>
        <time>2016-08-18T18:18:24Z</time>
      </trkpt>
      <trkpt lat="47.09475" lon="3.18664">
        <ele>195</ele>
        <time>2016-08-18T18:18:26Z</time>
      </trkpt>
      <trkpt lat="47.09469" lon="3.1867">
        <ele>195</ele>
        <time>2016-08-18T18:18:26Z</time>
      </trkpt>
      <trkpt lat="47.09463" lon="3.18676">
        <ele>195</ele>
        <time>2016-08-18T18:18:28Z</time>
      </trkpt>
      <trkpt lat="47.09457" lon="3.18681">
        <ele>195</ele>
        <time>2016-08-18T18:18:29Z</time>
      </trkpt>
      <trkpt lat="47.0945" lon="3.18686">
        <ele>195</ele>
        <time>2016-08-18T18:18:30Z</time>
      </trkpt>
      <trkpt lat="47.09444" lon="3.18692">
        <ele>195</ele>
        <time>2016-08-18T18:18:31Z</time>
      </trkpt>
      <trkpt lat="47.09438" lon="3.18697">
        <ele>195</ele>
        <time>2016-08-18T18:18:32Z</time>
      </trkpt>
      <trkpt lat="47.09431" lon="3.18703">
        <ele>194</ele>
        <time>2016-08-18T18:18:33Z</time>
      </trkpt>
      <trkpt lat="47.09425" lon="3.18707">
        <ele>194</ele>
        <time>2016-08-18T18:18:34Z</time>
      </trkpt>
      <trkpt lat="47.09419" lon="3.18712">
        <ele>194</ele>
        <time>2016-08-18T18:18:35Z</time>
      </trkpt>
      <trkpt lat="47.09412" lon="3.18716">
        <ele>194</ele>
        <time>2016-08-18T18:18:36Z</time>
      </trkpt>
      <trkpt lat="47.09406" lon="3.18722">
        <ele>194</ele>
        <time>2016-08-18T18:18:37Z</time>
      </trkpt>
      <trkpt lat="47.094" lon="3.18727">
        <ele>194</ele>
        <time>2016-08-18T18:18:38Z</time>
      </trkpt>
      <trkpt lat="47.09395" lon="3.18732">
        <ele>194</ele>
        <time>2016-08-18T18:18:39Z</time>
      </trkpt>
      <trkpt lat="47.09389" lon="3.18736">
        <ele>194</ele>
        <time>2016-08-18T18:18:40Z</time>
      </trkpt>
      <trkpt lat="47.09384" lon="3.18739">
        <ele>194</ele>
        <time>2016-08-18T18:18:41Z</time>
      </trkpt>
      <trkpt lat="47.0938" lon="3.18743">
        <ele>194</ele>
        <time>2016-08-18T18:18:42Z</time>
      </trkpt>
      <trkpt lat="47.09375" lon="3.18747">
        <ele>195</ele>
        <time>2016-08-18T18:18:43Z</time>
      </trkpt>
      <trkpt lat="47.09369" lon="3.18752">
        <ele>195</ele>
        <time>2016-08-18T18:18:44Z</time>
      </trkpt>
      <trkpt lat="47.09363" lon="3.18757">
        <ele>195</ele>
        <time>2016-08-18T18:18:45Z</time>
      </trkpt>
      <trkpt lat="47.09358" lon="3.18761">
        <ele>195</ele>
        <time>2016-08-18T18:18:46Z</time>
      </trkpt>
      <trkpt lat="47.09352" lon="3.18766">
        <ele>196</ele>
        <time>2016-08-18T18:18:47Z</time>
      </trkpt>
      <trkpt lat="47.09347" lon="3.1877">
        <ele>196</ele>
        <time>2016-08-18T18:18:48Z</time>
      </trkpt>
      <trkpt lat="47.09343" lon="3.18775">
        <ele>197</ele>
        <time>2016-08-18T18:18:49Z</time>
      </trkpt>
      <trkpt lat="47.09337" lon="3.1878">
        <ele>198</ele>
        <time>2016-08-18T18:18:50Z</time>
      </trkpt>
      <trkpt lat="47.09333" lon="3.18785">
        <ele>198</ele>
        <time>2016-08-18T18:18:51Z</time>
      </trkpt>
      <trkpt lat="47.09328" lon="3.18791">
        <ele>198</ele>
        <time>2016-08-18T18:18:52Z</time>
      </trkpt>
      <trkpt lat="47.09322" lon="3.188">
        <ele>198</ele>
        <time>2016-08-18T18:18:54Z</time>
      </trkpt>
      <trkpt lat="47.0932" lon="3.18803">
        <ele>198</ele>
        <time>2016-08-18T18:18:54Z</time>
      </trkpt>
      <trkpt lat="47.09318" lon="3.18811">
        <ele>198</ele>
        <time>2016-08-18T18:18:55Z</time>
      </trkpt>
      <trkpt lat="47.09316" lon="3.18819">
        <ele>198</ele>
        <time>2016-08-18T18:18:56Z</time>
      </trkpt>
      <trkpt lat="47.09314" lon="3.18828">
        <ele>197</ele>
        <time>2016-08-18T18:18:57Z</time>
      </trkpt>
      <trkpt lat="47.09312" lon="3.18835">
        <ele>198</ele>
        <time>2016-08-18T18:18:58Z</time>
      </trkpt>
      <trkpt lat="47.0931" lon="3.18844">
        <ele>198</ele>
        <time>2016-08-18T18:18:59Z</time>
      </trkpt>
      <trkpt lat="47.09308" lon="3.18853">
        <ele>197</ele>
        <time>2016-08-18T18:19:00Z</time>
      </trkpt>
      <trkpt lat="47.09306" lon="3.18862">
        <ele>197</ele>
        <time>2016-08-18T18:19:01Z</time>
      </trkpt>
      <trkpt lat="47.09304" lon="3.1887">
        <ele>197</ele>
        <time>2016-08-18T18:19:02Z</time>
      </trkpt>
      <trkpt lat="47.09302" lon="3.1888">
        <ele>196</ele>
        <time>2016-08-18T18:19:03Z</time>
      </trkpt>
      <trkpt lat="47.09301" lon="3.18888">
        <ele>196</ele>
        <time>2016-08-18T18:19:04Z</time>
      </trkpt>
      <trkpt lat="47.093" lon="3.18898">
        <ele>195</ele>
        <time>2016-08-18T18:19:05Z</time>
      </trkpt>
      <trkpt lat="47.09298" lon="3.18908">
        <ele>194</ele>
        <time>2016-08-18T18:19:06Z</time>
      </trkpt>
      <trkpt lat="47.09296" lon="3.18917">
        <ele>193</ele>
        <time>2016-08-18T18:19:07Z</time>
      </trkpt>
      <trkpt lat="47.09294" lon="3.18926">
        <ele>193</ele>
        <time>2016-08-18T18:19:08Z</time>
      </trkpt>
      <trkpt lat="47.09292" lon="3.18935">
        <ele>192</ele>
        <time>2016-08-18T18:19:10Z</time>
      </trkpt>
      <trkpt lat="47.0929" lon="3.18944">
        <ele>192</ele>
        <time>2016-08-18T18:19:11Z</time>
      </trkpt>
      <trkpt lat="47.09289" lon="3.18952">
        <ele>193</ele>
        <time>2016-08-18T18:19:12Z</time>
      </trkpt>
      <trkpt lat="47.09286" lon="3.18969">
        <ele>193</ele>
        <time>2016-08-18T18:19:13Z</time>
      </trkpt>
      <trkpt lat="47.09285" lon="3.1897">
        <ele>194</ele>
        <time>2016-08-18T18:19:14Z</time>
      </trkpt>
      <trkpt lat="47.09284" lon="3.18979">
        <ele>194</ele>
        <time>2016-08-18T18:19:15Z</time>
      </trkpt>
      <trkpt lat="47.09282" lon="3.18988">
        <ele>194</ele>
        <time>2016-08-18T18:19:16Z</time>
      </trkpt>
      <trkpt lat="47.09281" lon="3.18997">
        <ele>193</ele>
        <time>2016-08-18T18:19:17Z</time>
      </trkpt>
      <trkpt lat="47.09279" lon="3.19007">
        <ele>193</ele>
        <time>2016-08-18T18:19:18Z</time>
      </trkpt>
      <trkpt lat="47.09277" lon="3.19016">
        <ele>193</ele>
        <time>2016-08-18T18:19:19Z</time>
      </trkpt>
      <trkpt lat="47.09275" lon="3.19024">
        <ele>193</ele>
        <time>2016-08-18T18:19:20Z</time>
      </trkpt>
      <trkpt lat="47.09274" lon="3.19032">
        <ele>193</ele>
        <time>2016-08-18T18:19:21Z</time>
      </trkpt>
      <trkpt lat="47.09272" lon="3.19041">
        <ele>194</ele>
        <time>2016-08-18T18:19:22Z</time>
      </trkpt>
      <trkpt lat="47.09271" lon="3.1905">
        <ele>193</ele>
        <time>2016-08-18T18:19:23Z</time>
      </trkpt>
      <trkpt lat="47.09269" lon="3.19059">
        <ele>193</ele>
        <time>2016-08-18T18:19:24Z</time>
      </trkpt>
      <trkpt lat="47.09268" lon="3.19068">
        <ele>192</ele>
        <time>2016-08-18T18:19:25Z</time>
      </trkpt>
      <trkpt lat="47.09266" lon="3.19076">
        <ele>192</ele>
        <time>2016-08-18T18:19:26Z</time>
      </trkpt>
      <trkpt lat="47.09265" lon="3.19085">
        <ele>192</ele>
        <time>2016-08-18T18:19:27Z</time>
      </trkpt>
      <trkpt lat="47.09263" lon="3.19094">
        <ele>191</ele>
        <time>2016-08-18T18:19:28Z</time>
      </trkpt>
      <trkpt lat="47.09262" lon="3.19104">
        <ele>191</ele>
        <time>2016-08-18T18:19:29Z</time>
      </trkpt>
      <trkpt lat="47.0926" lon="3.19113">
        <ele>191</ele>
        <time>2016-08-18T18:19:30Z</time>
      </trkpt>
      <trkpt lat="47.09259" lon="3.19122">
        <ele>191</ele>
        <time>2016-08-18T18:19:31Z</time>
      </trkpt>
      <trkpt lat="47.09257" lon="3.19131">
        <ele>190</ele>
        <time>2016-08-18T18:19:32Z</time>
      </trkpt>
      <trkpt lat="47.09256" lon="3.19141">
        <ele>190</ele>
        <time>2016-08-18T18:19:33Z</time>
      </trkpt>
      <trkpt lat="47.09254" lon="3.1915">
        <ele>190</ele>
        <time>2016-08-18T18:19:34Z</time>
      </trkpt>
      <trkpt lat="47.09252" lon="3.1916">
        <ele>190</ele>
        <time>2016-08-18T18:19:35Z</time>
      </trkpt>
      <trkpt lat="47.0925" lon="3.19169">
        <ele>190</ele>
        <time>2016-08-18T18:19:36Z</time>
      </trkpt>
      <trkpt lat="47.09249" lon="3.19178">
        <ele>190</ele>
        <time>2016-08-18T18:19:37Z</time>
      </trkpt>
      <trkpt lat="47.09247" lon="3.19188">
        <ele>190</ele>
        <time>2016-08-18T18:19:38Z</time>
      </trkpt>
      <trkpt lat="47.09246" lon="3.19197">
        <ele>191</ele>
        <time>2016-08-18T18:19:39Z</time>
      </trkpt>
      <trkpt lat="47.09244" lon="3.19205">
        <ele>191</ele>
        <time>2016-08-18T18:19:40Z</time>
      </trkpt>
      <trkpt lat="47.09243" lon="3.19215">
        <ele>192</ele>
        <time>2016-08-18T18:19:41Z</time>
      </trkpt>
      <trkpt lat="47.09241" lon="3.19224">
        <ele>193</ele>
        <time>2016-08-18T18:19:42Z</time>
      </trkpt>
      <trkpt lat="47.09239" lon="3.19233">
        <ele>193</ele>
        <time>2016-08-18T18:19:43Z</time>
      </trkpt>
      <trkpt lat="47.09238" lon="3.19241">
        <ele>194</ele>
        <time>2016-08-18T18:19:44Z</time>
      </trkpt>
      <trkpt lat="47.09236" lon="3.1925">
        <ele>194</ele>
        <time>2016-08-18T18:19:45Z</time>
      </trkpt>
      <trkpt lat="47.09234" lon="3.19259">
        <ele>194</ele>
        <time>2016-08-18T18:19:46Z</time>
      </trkpt>
      <trkpt lat="47.09233" lon="3.19268">
        <ele>194</ele>
        <time>2016-08-18T18:19:47Z</time>
      </trkpt>
      <trkpt lat="47.09231" lon="3.19277">
        <ele>194</ele>
        <time>2016-08-18T18:19:48Z</time>
      </trkpt>
      <trkpt lat="47.0923" lon="3.19286">
        <ele>195</ele>
        <time>2016-08-18T18:19:50Z</time>
      </trkpt>
      <trkpt lat="47.09228" lon="3.19296">
        <ele>195</ele>
        <time>2016-08-18T18:19:51Z</time>
      </trkpt>
      <trkpt lat="47.09227" lon="3.19305">
        <ele>195</ele>
        <time>2016-08-18T18:19:52Z</time>
      </trkpt>
      <trkpt lat="47.09225" lon="3.19312">
        <ele>195</ele>
        <time>2016-08-18T18:19:52Z</time>
      </trkpt>
      <trkpt lat="47.09224" lon="3.19321">
        <ele>195</ele>
        <time>2016-08-18T18:19:53Z</time>
      </trkpt>
      <trkpt lat="47.09222" lon="3.1933">
        <ele>194</ele>
        <time>2016-08-18T18:19:54Z</time>
      </trkpt>
      <trkpt lat="47.09221" lon="3.19339">
        <ele>194</ele>
        <time>2016-08-18T18:19:55Z</time>
      </trkpt>
      <trkpt lat="47.09219" lon="3.19348">
        <ele>194</ele>
        <time>2016-08-18T18:19:56Z</time>
      </trkpt>
      <trkpt lat="47.09217" lon="3.19357">
        <ele>194</ele>
        <time>2016-08-18T18:19:57Z</time>
      </trkpt>
      <trkpt lat="47.09215" lon="3.19366">
        <ele>194</ele>
        <time>2016-08-18T18:19:58Z</time>
      </trkpt>
      <trkpt lat="47.09214" lon="3.19375">
        <ele>194</ele>
        <time>2016-08-18T18:20:00Z</time>
      </trkpt>
      <trkpt lat="47.09212" lon="3.19385">
        <ele>194</ele>
        <time>2016-08-18T18:20:01Z</time>
      </trkpt>
      <trkpt lat="47.0921" lon="3.19394">
        <ele>194</ele>
        <time>2016-08-18T18:20:01Z</time>
      </trkpt>
      <trkpt lat="47.09208" lon="3.19403">
        <ele>194</ele>
        <time>2016-08-18T18:20:03Z</time>
      </trkpt>
      <trkpt lat="47.09207" lon="3.19412">
        <ele>194</ele>
        <time>2016-08-18T18:20:04Z</time>
      </trkpt>
      <trkpt lat="47.09206" lon="3.19422">
        <ele>194</ele>
        <time>2016-08-18T18:20:05Z</time>
      </trkpt>
      <trkpt lat="47.09204" lon="3.19431">
        <ele>193</ele>
        <time>2016-08-18T18:20:06Z</time>
      </trkpt>
      <trkpt lat="47.09202" lon="3.1944">
        <ele>193</ele>
        <time>2016-08-18T18:20:07Z</time>
      </trkpt>
      <trkpt lat="47.09201" lon="3.19449">
        <ele>193</ele>
        <time>2016-08-18T18:20:08Z</time>
      </trkpt>
      <trkpt lat="47.09198" lon="3.19465">
        <ele>193</ele>
        <time>2016-08-18T18:20:09Z</time>
      </trkpt>
      <trkpt lat="47.09198" lon="3.19466">
        <ele>193</ele>
        <time>2016-08-18T18:20:10Z</time>
      </trkpt>
      <trkpt lat="47.09195" lon="3.19476">
        <ele>193</ele>
        <time>2016-08-18T18:20:11Z</time>
      </trkpt>
      <trkpt lat="47.09192" lon="3.19482">
        <ele>192</ele>
        <time>2016-08-18T18:20:12Z</time>
      </trkpt>
      <trkpt lat="47.09188" lon="3.19484">
        <ele>192</ele>
        <time>2016-08-18T18:20:13Z</time>
      </trkpt>
      <trkpt lat="47.09184" lon="3.19482">
        <ele>192</ele>
        <time>2016-08-18T18:20:14Z</time>
      </trkpt>
      <trkpt lat="47.09176" lon="3.19474">
        <ele>193</ele>
        <time>2016-08-18T18:20:16Z</time>
      </trkpt>
      <trkpt lat="47.09172" lon="3.19469">
        <ele>194</ele>
        <time>2016-08-18T18:20:16Z</time>
      </trkpt>
      <trkpt lat="47.0917" lon="3.19467">
        <ele>194</ele>
        <time>2016-08-18T18:20:17Z</time>
      </trkpt>
      <trkpt lat="47.09165" lon="3.19463">
        <ele>194</ele>
        <time>2016-08-18T18:20:18Z</time>
      </trkpt>
      <trkpt lat="47.0916" lon="3.19458">
        <ele>194</ele>
        <time>2016-08-18T18:20:19Z</time>
      </trkpt>
      <trkpt lat="47.09155" lon="3.19453">
        <ele>194</ele>
        <time>2016-08-18T18:20:20Z</time>
      </trkpt>
      <trkpt lat="47.0915" lon="3.19448">
        <ele>194</ele>
        <time>2016-08-18T18:20:21Z</time>
      </trkpt>
      <trkpt lat="47.09145" lon="3.19443">
        <ele>194</ele>
        <time>2016-08-18T18:20:22Z</time>
      </trkpt>
      <trkpt lat="47.0914" lon="3.19437">
        <ele>193</ele>
        <time>2016-08-18T18:20:23Z</time>
      </trkpt>
      <trkpt lat="47.09135" lon="3.19432">
        <ele>194</ele>
        <time>2016-08-18T18:20:24Z</time>
      </trkpt>
      <trkpt lat="47.0913" lon="3.19427">
        <ele>194</ele>
        <time>2016-08-18T18:20:25Z</time>
      </trkpt>
      <trkpt lat="47.09125" lon="3.19421">
        <ele>194</ele>
        <time>2016-08-18T18:20:26Z</time>
      </trkpt>
      <trkpt lat="47.09119" lon="3.19416">
        <ele>193</ele>
        <time>2016-08-18T18:20:27Z</time>
      </trkpt>
      <trkpt lat="47.09114" lon="3.1941">
        <ele>194</ele>
        <time>2016-08-18T18:20:28Z</time>
      </trkpt>
      <trkpt lat="47.09107" lon="3.19404">
        <ele>193</ele>
        <time>2016-08-18T18:20:29Z</time>
      </trkpt>
      <trkpt lat="47.09102" lon="3.19399">
        <ele>193</ele>
        <time>2016-08-18T18:20:30Z</time>
      </trkpt>
      <trkpt lat="47.09096" lon="3.19393">
        <ele>193</ele>
        <time>2016-08-18T18:20:31Z</time>
      </trkpt>
      <trkpt lat="47.09091" lon="3.19388">
        <ele>193</ele>
        <time>2016-08-18T18:20:32Z</time>
      </trkpt>
      <trkpt lat="47.09085" lon="3.19381">
        <ele>194</ele>
        <time>2016-08-18T18:20:33Z</time>
      </trkpt>
      <trkpt lat="47.09079" lon="3.19375">
        <ele>194</ele>
        <time>2016-08-18T18:20:34Z</time>
      </trkpt>
      <trkpt lat="47.09074" lon="3.1937">
        <ele>194</ele>
        <time>2016-08-18T18:20:35Z</time>
      </trkpt>
      <trkpt lat="47.09068" lon="3.19366">
        <ele>194</ele>
        <time>2016-08-18T18:20:36Z</time>
      </trkpt>
      <trkpt lat="47.09062" lon="3.19361">
        <ele>195</ele>
        <time>2016-08-18T18:20:37Z</time>
      </trkpt>
      <trkpt lat="47.09057" lon="3.19357">
        <ele>195</ele>
        <time>2016-08-18T18:20:38Z</time>
      </trkpt>
      <trkpt lat="47.09051" lon="3.19353">
        <ele>195</ele>
        <time>2016-08-18T18:20:39Z</time>
      </trkpt>
      <trkpt lat="47.09044" lon="3.19351">
        <ele>195</ele>
        <time>2016-08-18T18:20:40Z</time>
      </trkpt>
      <trkpt lat="47.09038" lon="3.19348">
        <ele>195</ele>
        <time>2016-08-18T18:20:41Z</time>
      </trkpt>
      <trkpt lat="47.09032" lon="3.19346">
        <ele>195</ele>
        <time>2016-08-18T18:20:42Z</time>
      </trkpt>
      <trkpt lat="47.09025" lon="3.19346">
        <ele>195</ele>
        <time>2016-08-18T18:20:43Z</time>
      </trkpt>
      <trkpt lat="47.09019" lon="3.19346">
        <ele>196</ele>
        <time>2016-08-18T18:20:44Z</time>
      </trkpt>
      <trkpt lat="47.09012" lon="3.19347">
        <ele>196</ele>
        <time>2016-08-18T18:20:45Z</time>
      </trkpt>
      <trkpt lat="47.09006" lon="3.19348">
        <ele>196</ele>
        <time>2016-08-18T18:20:46Z</time>
      </trkpt>
      <trkpt lat="47.08999" lon="3.1935">
        <ele>196</ele>
        <time>2016-08-18T18:20:47Z</time>
      </trkpt>
      <trkpt lat="47.08993" lon="3.19353">
        <ele>197</ele>
        <time>2016-08-18T18:20:48Z</time>
      </trkpt>
      <trkpt lat="47.08987" lon="3.19357">
        <ele>197</ele>
        <time>2016-08-18T18:20:49Z</time>
      </trkpt>
      <trkpt lat="47.08982" lon="3.19361">
        <ele>197</ele>
        <time>2016-08-18T18:20:50Z</time>
      </trkpt>
      <trkpt lat="47.08976" lon="3.19365">
        <ele>197</ele>
        <time>2016-08-18T18:20:52Z</time>
      </trkpt>
      <trkpt lat="47.0897" lon="3.19369">
        <ele>197</ele>
        <time>2016-08-18T18:20:53Z</time>
      </trkpt>
      <trkpt lat="47.08964" lon="3.19375">
        <ele>197</ele>
        <time>2016-08-18T18:20:54Z</time>
      </trkpt>
      <trkpt lat="47.08959" lon="3.1938">
        <ele>197</ele>
        <time>2016-08-18T18:20:55Z</time>
      </trkpt>
      <trkpt lat="47.08954" lon="3.19386">
        <ele>197</ele>
        <time>2016-08-18T18:20:56Z</time>
      </trkpt>
      <trkpt lat="47.0895" lon="3.19392">
        <ele>197</ele>
        <time>2016-08-18T18:20:57Z</time>
      </trkpt>
      <trkpt lat="47.08944" lon="3.19398">
        <ele>197</ele>
        <time>2016-08-18T18:20:58Z</time>
      </trkpt>
      <trkpt lat="47.08939" lon="3.19404">
        <ele>197</ele>
        <time>2016-08-18T18:20:59Z</time>
      </trkpt>
      <trkpt lat="47.08934" lon="3.19409">
        <ele>196</ele>
        <time>2016-08-18T18:21:00Z</time>
      </trkpt>
      <trkpt lat="47.08929" lon="3.19415">
        <ele>196</ele>
        <time>2016-08-18T18:21:01Z</time>
      </trkpt>
      <trkpt lat="47.08923" lon="3.1942">
        <ele>197</ele>
        <time>2016-08-18T18:21:02Z</time>
      </trkpt>
      <trkpt lat="47.08918" lon="3.19423">
        <ele>197</ele>
        <time>2016-08-18T18:21:03Z</time>
      </trkpt>
      <trkpt lat="47.08912" lon="3.19426">
        <ele>197</ele>
        <time>2016-08-18T18:21:04Z</time>
      </trkpt>
      <trkpt lat="47.08907" lon="3.19428">
        <ele>197</ele>
        <time>2016-08-18T18:21:05Z</time>
      </trkpt>
      <trkpt lat="47.08902" lon="3.1943">
        <ele>197</ele>
        <time>2016-08-18T18:21:06Z</time>
      </trkpt>
      <trkpt lat="47.08896" lon="3.19432">
        <ele>197</ele>
        <time>2016-08-18T18:21:07Z</time>
      </trkpt>
      <trkpt lat="47.08891" lon="3.19434">
        <ele>197</ele>
        <time>2016-08-18T18:21:08Z</time>
      </trkpt>
      <trkpt lat="47.08883" lon="3.19435">
        <ele>197</ele>
        <time>2016-08-18T18:21:10Z</time>
      </trkpt>
      <trkpt lat="47.08881" lon="3.19435">
        <ele>197</ele>
        <time>2016-08-18T18:21:10Z</time>
      </trkpt>
      <trkpt lat="47.08874" lon="3.19435">
        <ele>198</ele>
        <time>2016-08-18T18:21:12Z</time>
      </trkpt>
      <trkpt lat="47.08869" lon="3.19435">
        <ele>199</ele>
        <time>2016-08-18T18:21:13Z</time>
      </trkpt>
      <trkpt lat="47.08864" lon="3.19434">
        <ele>199</ele>
        <time>2016-08-18T18:21:14Z</time>
      </trkpt>
      <trkpt lat="47.08862" lon="3.19433">
        <ele>199</ele>
        <time>2016-08-18T18:21:14Z</time>
      </trkpt>
      <trkpt lat="47.08858" lon="3.19431">
        <ele>199</ele>
        <time>2016-08-18T18:21:15Z</time>
      </trkpt>
      <trkpt lat="47.08853" lon="3.19429">
        <ele>199</ele>
        <time>2016-08-18T18:21:16Z</time>
      </trkpt>
      <trkpt lat="47.08847" lon="3.19427">
        <ele>199</ele>
        <time>2016-08-18T18:21:18Z</time>
      </trkpt>
      <trkpt lat="47.08842" lon="3.19425">
        <ele>199</ele>
        <time>2016-08-18T18:21:19Z</time>
      </trkpt>
      <trkpt lat="47.08838" lon="3.19423">
        <ele>200</ele>
        <time>2016-08-18T18:21:20Z</time>
      </trkpt>
      <trkpt lat="47.08834" lon="3.19421">
        <ele>199</ele>
        <time>2016-08-18T18:21:20Z</time>
      </trkpt>
      <trkpt lat="47.0883" lon="3.19419">
        <ele>199</ele>
        <time>2016-08-18T18:21:21Z</time>
      </trkpt>
      <trkpt lat="47.08825" lon="3.19417">
        <ele>199</ele>
        <time>2016-08-18T18:21:22Z</time>
      </trkpt>
      <trkpt lat="47.08822" lon="3.19416">
        <ele>199</ele>
        <time>2016-08-18T18:21:23Z</time>
      </trkpt>
      <trkpt lat="47.08817" lon="3.19413">
        <ele>200</ele>
        <time>2016-08-18T18:21:24Z</time>
      </trkpt>
      <trkpt lat="47.08813" lon="3.19411">
        <ele>200</ele>
        <time>2016-08-18T18:21:25Z</time>
      </trkpt>
      <trkpt lat="47.0881" lon="3.19409">
        <ele>201</ele>
        <time>2016-08-18T18:21:26Z</time>
      </trkpt>
      <trkpt lat="47.08806" lon="3.19408">
        <ele>201</ele>
        <time>2016-08-18T18:21:27Z</time>
      </trkpt>
      <trkpt lat="47.08802" lon="3.19406">
        <ele>202</ele>
        <time>2016-08-18T18:21:29Z</time>
      </trkpt>
      <trkpt lat="47.08799" lon="3.19405">
        <ele>202</ele>
        <time>2016-08-18T18:21:29Z</time>
      </trkpt>
      <trkpt lat="47.08796" lon="3.19403">
        <ele>202</ele>
        <time>2016-08-18T18:21:30Z</time>
      </trkpt>
      <trkpt lat="47.08792" lon="3.19401">
        <ele>202</ele>
        <time>2016-08-18T18:21:31Z</time>
      </trkpt>
      <trkpt lat="47.08789" lon="3.194">
        <ele>202</ele>
        <time>2016-08-18T18:21:32Z</time>
      </trkpt>
      <trkpt lat="47.08786" lon="3.19398">
        <ele>203</ele>
        <time>2016-08-18T18:21:33Z</time>
      </trkpt>
      <trkpt lat="47.08783" lon="3.19397">
        <ele>203</ele>
        <time>2016-08-18T18:21:35Z</time>
      </trkpt>
      <trkpt lat="47.0878" lon="3.19395">
        <ele>203</ele>
        <time>2016-08-18T18:21:36Z</time>
      </trkpt>
      <trkpt lat="47.08777" lon="3.19394">
        <ele>203</ele>
        <time>2016-08-18T18:21:37Z</time>
      </trkpt>
      <trkpt lat="47.08774" lon="3.19393">
        <ele>203</ele>
        <time>2016-08-18T18:21:38Z</time>
      </trkpt>
      <trkpt lat="47.08771" lon="3.19391">
        <ele>203</ele>
        <time>2016-08-18T18:21:39Z</time>
      </trkpt>
      <trkpt lat="47.08768" lon="3.1939">
        <ele>203</ele>
        <time>2016-08-18T18:21:40Z</time>
      </trkpt>
      <trkpt lat="47.08765" lon="3.19388">
        <ele>203</ele>
        <time>2016-08-18T18:21:41Z</time>
      </trkpt>
      <trkpt lat="47.08762" lon="3.19387">
        <ele>204</ele>
        <time>2016-08-18T18:21:42Z</time>
      </trkpt>
      <trkpt lat="47.08758" lon="3.19385">
        <ele>204</ele>
        <time>2016-08-18T18:21:43Z</time>
      </trkpt>
      <trkpt lat="47.08755" lon="3.19382">
        <ele>204</ele>
        <time>2016-08-18T18:21:44Z</time>
      </trkpt>
      <trkpt lat="47.08752" lon="3.1938">
        <ele>204</ele>
        <time>2016-08-18T18:21:45Z</time>
      </trkpt>
      <trkpt lat="47.08749" lon="3.19378">
        <ele>205</ele>
        <time>2016-08-18T18:21:46Z</time>
      </trkpt>
      <trkpt lat="47.08745" lon="3.19376">
        <ele>205</ele>
        <time>2016-08-18T18:21:47Z</time>
      </trkpt>
      <trkpt lat="47.08742" lon="3.19373">
        <ele>205</ele>
        <time>2016-08-18T18:21:48Z</time>
      </trkpt>
      <trkpt lat="47.08739" lon="3.19371">
        <ele>205</ele>
        <time>2016-08-18T18:21:49Z</time>
      </trkpt>
      <trkpt lat="47.08736" lon="3.19369">
        <ele>205</ele>
        <time>2016-08-18T18:21:50Z</time>
      </trkpt>
      <trkpt lat="47.08733" lon="3.19368">
        <ele>205</ele>
        <time>2016-08-18T18:21:51Z</time>
      </trkpt>
      <trkpt lat="47.0873" lon="3.19366">
        <ele>206</ele>
        <time>2016-08-18T18:21:52Z</time>
      </trkpt>
      <trkpt lat="47.08725" lon="3.19365">
        <ele>206</ele>
        <time>2016-08-18T18:21:54Z</time>
      </trkpt>
      <trkpt lat="47.08722" lon="3.19364">
        <ele>206</ele>
        <time>2016-08-18T18:21:55Z</time>
      </trkpt>
      <trkpt lat="47.08719" lon="3.19364">
        <ele>206</ele>
        <time>2016-08-18T18:21:55Z</time>
      </trkpt>
      <trkpt lat="47.08716" lon="3.19362">
        <ele>205</ele>
        <time>2016-08-18T18:21:56Z</time>
      </trkpt>
      <trkpt lat="47.08713" lon="3.19361">
        <ele>205</ele>
        <time>2016-08-18T18:21:58Z</time>
      </trkpt>
      <trkpt lat="47.08711" lon="3.19359">
        <ele>205</ele>
        <time>2016-08-18T18:21:58Z</time>
      </trkpt>
      <trkpt lat="47.08706" lon="3.19357">
        <ele>205</ele>
        <time>2016-08-18T18:22:00Z</time>
      </trkpt>
      <trkpt lat="47.08704" lon="3.19355">
        <ele>206</ele>
        <time>2016-08-18T18:22:00Z</time>
      </trkpt>
      <trkpt lat="47.087" lon="3.19354">
        <ele>206</ele>
        <time>2016-08-18T18:22:01Z</time>
      </trkpt>
      <trkpt lat="47.08697" lon="3.19352">
        <ele>206</ele>
        <time>2016-08-18T18:22:02Z</time>
      </trkpt>
      <trkpt lat="47.08694" lon="3.19351">
        <ele>206</ele>
        <time>2016-08-18T18:22:03Z</time>
      </trkpt>
      <trkpt lat="47.08691" lon="3.1935">
        <ele>207</ele>
        <time>2016-08-18T18:22:04Z</time>
      </trkpt>
      <trkpt lat="47.08687" lon="3.19348">
        <ele>207</ele>
        <time>2016-08-18T18:22:05Z</time>
      </trkpt>
      <trkpt lat="47.08684" lon="3.19347">
        <ele>207</ele>
        <time>2016-08-18T18:22:06Z</time>
      </trkpt>
      <trkpt lat="47.08681" lon="3.19345">
        <ele>207</ele>
        <time>2016-08-18T18:22:07Z</time>
      </trkpt>
      <trkpt lat="47.08678" lon="3.19344">
        <ele>207</ele>
        <time>2016-08-18T18:22:08Z</time>
      </trkpt>
      <trkpt lat="47.08674" lon="3.19342">
        <ele>208</ele>
        <time>2016-08-18T18:22:10Z</time>
      </trkpt>
      <trkpt lat="47.0867" lon="3.1934">
        <ele>209</ele>
        <time>2016-08-18T18:22:11Z</time>
      </trkpt>
      <trkpt lat="47.08667" lon="3.19339">
        <ele>209</ele>
        <time>2016-08-18T18:22:11Z</time>
      </trkpt>
      <trkpt lat="47.08664" lon="3.19337">
        <ele>209</ele>
        <time>2016-08-18T18:22:12Z</time>
      </trkpt>
      <trkpt lat="47.0866" lon="3.19335">
        <ele>210</ele>
        <time>2016-08-18T18:22:13Z</time>
      </trkpt>
      <trkpt lat="47.08657" lon="3.19334">
        <ele>210</ele>
        <time>2016-08-18T18:22:14Z</time>
      </trkpt>
      <trkpt lat="47.08653" lon="3.19332">
        <ele>210</ele>
        <time>2016-08-18T18:22:15Z</time>
      </trkpt>
      <trkpt lat="47.0865" lon="3.1933">
        <ele>210</ele>
        <time>2016-08-18T18:22:17Z</time>
      </trkpt>
      <trkpt lat="47.08646" lon="3.19327">
        <ele>210</ele>
        <time>2016-08-18T18:22:18Z</time>
      </trkpt>
      <trkpt lat="47.08643" lon="3.19325">
        <ele>210</ele>
        <time>2016-08-18T18:22:19Z</time>
      </trkpt>
      <trkpt lat="47.08635" lon="3.19321">
        <ele>210</ele>
        <time>2016-08-18T18:22:20Z</time>
      </trkpt>
      <trkpt lat="47.08634" lon="3.19321">
        <ele>210</ele>
        <time>2016-08-18T18:22:21Z</time>
      </trkpt>
      <trkpt lat="47.0863" lon="3.19319">
        <ele>210</ele>
        <time>2016-08-18T18:22:22Z</time>
      </trkpt>
      <trkpt lat="47.08623" lon="3.19316">
        <ele>209</ele>
        <time>2016-08-18T18:22:23Z</time>
      </trkpt>
      <trkpt lat="47.08623" lon="3.19315">
        <ele>209</ele>
        <time>2016-08-18T18:22:24Z</time>
      </trkpt>
      <trkpt lat="47.08618" lon="3.19313">
        <ele>209</ele>
        <time>2016-08-18T18:22:25Z</time>
      </trkpt>
      <trkpt lat="47.08614" lon="3.19311">
        <ele>209</ele>
        <time>2016-08-18T18:22:26Z</time>
      </trkpt>
      <trkpt lat="47.0861" lon="3.19309">
        <ele>210</ele>
        <time>2016-08-18T18:22:27Z</time>
      </trkpt>
      <trkpt lat="47.08605" lon="3.19306">
        <ele>210</ele>
        <time>2016-08-18T18:22:28Z</time>
      </trkpt>
      <trkpt lat="47.08601" lon="3.19305">
        <ele>210</ele>
        <time>2016-08-18T18:22:29Z</time>
      </trkpt>
      <trkpt lat="47.08596" lon="3.19303">
        <ele>210</ele>
        <time>2016-08-18T18:22:30Z</time>
      </trkpt>
      <trkpt lat="47.08591" lon="3.19301">
        <ele>210</ele>
        <time>2016-08-18T18:22:31Z</time>
      </trkpt>
      <trkpt lat="47.08583" lon="3.19297">
        <ele>210</ele>
        <time>2016-08-18T18:22:32Z</time>
      </trkpt>
      <trkpt lat="47.08581" lon="3.19297">
        <ele>210</ele>
        <time>2016-08-18T18:22:33Z</time>
      </trkpt>
      <trkpt lat="47.08576" lon="3.19294">
        <ele>211</ele>
        <time>2016-08-18T18:22:34Z</time>
      </trkpt>
      <trkpt lat="47.08572" lon="3.19292">
        <ele>211</ele>
        <time>2016-08-18T18:22:35Z</time>
      </trkpt>
      <trkpt lat="47.08567" lon="3.1929">
        <ele>211</ele>
        <time>2016-08-18T18:22:36Z</time>
      </trkpt>
      <trkpt lat="47.08562" lon="3.19287">
        <ele>211</ele>
        <time>2016-08-18T18:22:37Z</time>
      </trkpt>
      <trkpt lat="47.08555" lon="3.19285">
        <ele>211</ele>
        <time>2016-08-18T18:22:38Z</time>
      </trkpt>
      <trkpt lat="47.08552" lon="3.19284">
        <ele>210</ele>
        <time>2016-08-18T18:22:39Z</time>
      </trkpt>
      <trkpt lat="47.08546" lon="3.19281">
        <ele>209</ele>
        <time>2016-08-18T18:22:40Z</time>
      </trkpt>
      <trkpt lat="47.08541" lon="3.19279">
        <ele>210</ele>
        <time>2016-08-18T18:22:41Z</time>
      </trkpt>
      <trkpt lat="47.08537" lon="3.19278">
        <ele>209</ele>
        <time>2016-08-18T18:22:42Z</time>
      </trkpt>
      <trkpt lat="47.08532" lon="3.19277">
        <ele>209</ele>
        <time>2016-08-18T18:22:43Z</time>
      </trkpt>
      <trkpt lat="47.08524" lon="3.19276">
        <ele>209</ele>
        <time>2016-08-18T18:22:45Z</time>
      </trkpt>
      <trkpt lat="47.08519" lon="3.19275">
        <ele>209</ele>
        <time>2016-08-18T18:22:45Z</time>
      </trkpt>
      <trkpt lat="47.08513" lon="3.19274">
        <ele>209</ele>
        <time>2016-08-18T18:22:46Z</time>
      </trkpt>
      <trkpt lat="47.08507" lon="3.19273">
        <ele>209</ele>
        <time>2016-08-18T18:22:47Z</time>
      </trkpt>
      <trkpt lat="47.08503" lon="3.19273">
        <ele>209</ele>
        <time>2016-08-18T18:22:48Z</time>
      </trkpt>
      <trkpt lat="47.08495" lon="3.19271">
        <ele>209</ele>
        <time>2016-08-18T18:22:49Z</time>
      </trkpt>
      <trkpt lat="47.0849" lon="3.1927">
        <ele>209</ele>
        <time>2016-08-18T18:22:50Z</time>
      </trkpt>
      <trkpt lat="47.08485" lon="3.1927">
        <ele>209</ele>
        <time>2016-08-18T18:22:51Z</time>
      </trkpt>
      <trkpt lat="47.08477" lon="3.19268">
        <ele>209</ele>
        <time>2016-08-18T18:22:52Z</time>
      </trkpt>
      <trkpt lat="47.08472" lon="3.19267">
        <ele>209</ele>
        <time>2016-08-18T18:22:53Z</time>
      </trkpt>
      <trkpt lat="47.08467" lon="3.19267">
        <ele>209</ele>
        <time>2016-08-18T18:22:54Z</time>
      </trkpt>
      <trkpt lat="47.08461" lon="3.19266">
        <ele>209</ele>
        <time>2016-08-18T18:22:55Z</time>
      </trkpt>
      <trkpt lat="47.08455" lon="3.19265">
        <ele>209</ele>
        <time>2016-08-18T18:22:56Z</time>
      </trkpt>
      <trkpt lat="47.0845" lon="3.19265">
        <ele>209</ele>
        <time>2016-08-18T18:22:57Z</time>
      </trkpt>
      <trkpt lat="47.08444" lon="3.19263">
        <ele>209</ele>
        <time>2016-08-18T18:22:58Z</time>
      </trkpt>
      <trkpt lat="47.08439" lon="3.19262">
        <ele>209</ele>
        <time>2016-08-18T18:22:59Z</time>
      </trkpt>
      <trkpt lat="47.08433" lon="3.19262">
        <ele>210</ele>
        <time>2016-08-18T18:23:00Z</time>
      </trkpt>
      <trkpt lat="47.08428" lon="3.19262">
        <ele>210</ele>
        <time>2016-08-18T18:23:01Z</time>
      </trkpt>
      <trkpt lat="47.08422" lon="3.19262">
        <ele>209</ele>
        <time>2016-08-18T18:23:03Z</time>
      </trkpt>
      <trkpt lat="47.08417" lon="3.19262">
        <ele>209</ele>
        <time>2016-08-18T18:23:04Z</time>
      </trkpt>
      <trkpt lat="47.08411" lon="3.19262">
        <ele>209</ele>
        <time>2016-08-18T18:23:05Z</time>
      </trkpt>
      <trkpt lat="47.08406" lon="3.19261">
        <ele>209</ele>
        <time>2016-08-18T18:23:06Z</time>
      </trkpt>
      <trkpt lat="47.084" lon="3.1926">
        <ele>209</ele>
        <time>2016-08-18T18:23:07Z</time>
      </trkpt>
      <trkpt lat="47.08395" lon="3.1926">
        <ele>209</ele>
        <time>2016-08-18T18:23:08Z</time>
      </trkpt>
      <trkpt lat="47.08389" lon="3.19259">
        <ele>209</ele>
        <time>2016-08-18T18:23:09Z</time>
      </trkpt>
      <trkpt lat="47.08384" lon="3.19258">
        <ele>208</ele>
        <time>2016-08-18T18:23:10Z</time>
      </trkpt>
      <trkpt lat="47.08374" lon="3.19257">
        <ele>207</ele>
        <time>2016-08-18T18:23:12Z</time>
      </trkpt>
      <trkpt lat="47.08373" lon="3.19257">
        <ele>207</ele>
        <time>2016-08-18T18:23:12Z</time>
      </trkpt>
      <trkpt lat="47.08368" lon="3.19256">
        <ele>207</ele>
        <time>2016-08-18T18:23:13Z</time>
      </trkpt>
      <trkpt lat="47.08359" lon="3.19256">
        <ele>207</ele>
        <time>2016-08-18T18:23:14Z</time>
      </trkpt>
      <trkpt lat="47.08357" lon="3.19255">
        <ele>207</ele>
        <time>2016-08-18T18:23:15Z</time>
      </trkpt>
      <trkpt lat="47.08351" lon="3.19255">
        <ele>207</ele>
        <time>2016-08-18T18:23:16Z</time>
      </trkpt>
      <trkpt lat="47.08346" lon="3.19254">
        <ele>207</ele>
        <time>2016-08-18T18:23:17Z</time>
      </trkpt>
      <trkpt lat="47.0834" lon="3.19254">
        <ele>208</ele>
        <time>2016-08-18T18:23:18Z</time>
      </trkpt>
      <trkpt lat="47.08331" lon="3.19253">
        <ele>208</ele>
        <time>2016-08-18T18:23:20Z</time>
      </trkpt>
      <trkpt lat="47.08326" lon="3.19253">
        <ele>208</ele>
        <time>2016-08-18T18:23:21Z</time>
      </trkpt>
      <trkpt lat="47.08323" lon="3.19253">
        <ele>208</ele>
        <time>2016-08-18T18:23:21Z</time>
      </trkpt>
      <trkpt lat="47.08318" lon="3.19253">
        <ele>208</ele>
        <time>2016-08-18T18:23:22Z</time>
      </trkpt>
      <trkpt lat="47.08309" lon="3.19252">
        <ele>208</ele>
        <time>2016-08-18T18:23:23Z</time>
      </trkpt>
      <trkpt lat="47.08306" lon="3.19252">
        <ele>208</ele>
        <time>2016-08-18T18:23:24Z</time>
      </trkpt>
      <trkpt lat="47.083" lon="3.19251">
        <ele>208</ele>
        <time>2016-08-18T18:23:25Z</time>
      </trkpt>
      <trkpt lat="47.08294" lon="3.1925">
        <ele>208</ele>
        <time>2016-08-18T18:23:26Z</time>
      </trkpt>
      <trkpt lat="47.08284" lon="3.1925">
        <ele>208</ele>
        <time>2016-08-18T18:23:28Z</time>
      </trkpt>
      <trkpt lat="47.08281" lon="3.19249">
        <ele>209</ele>
        <time>2016-08-18T18:23:28Z</time>
      </trkpt>
      <trkpt lat="47.08274" lon="3.19248">
        <ele>208</ele>
        <time>2016-08-18T18:23:29Z</time>
      </trkpt>
      <trkpt lat="47.08268" lon="3.19247">
        <ele>208</ele>
        <time>2016-08-18T18:23:30Z</time>
      </trkpt>
      <trkpt lat="47.08261" lon="3.19246">
        <ele>208</ele>
        <time>2016-08-18T18:23:31Z</time>
      </trkpt>
      <trkpt lat="47.08254" lon="3.19246">
        <ele>208</ele>
        <time>2016-08-18T18:23:32Z</time>
      </trkpt>
      <trkpt lat="47.08247" lon="3.19245">
        <ele>207</ele>
        <time>2016-08-18T18:23:33Z</time>
      </trkpt>
      <trkpt lat="47.08239" lon="3.19245">
        <ele>208</ele>
        <time>2016-08-18T18:23:34Z</time>
      </trkpt>
      <trkpt lat="47.08231" lon="3.19243">
        <ele>207</ele>
        <time>2016-08-18T18:23:35Z</time>
      </trkpt>
      <trkpt lat="47.08224" lon="3.19243">
        <ele>207</ele>
        <time>2016-08-18T18:23:36Z</time>
      </trkpt>
      <trkpt lat="47.08216" lon="3.19243">
        <ele>207</ele>
        <time>2016-08-18T18:23:38Z</time>
      </trkpt>
      <trkpt lat="47.08208" lon="3.19242">
        <ele>207</ele>
        <time>2016-08-18T18:23:39Z</time>
      </trkpt>
      <trkpt lat="47.08202" lon="3.19241">
        <ele>207</ele>
        <time>2016-08-18T18:23:39Z</time>
      </trkpt>
      <trkpt lat="47.08193" lon="3.1924">
        <ele>206</ele>
        <time>2016-08-18T18:23:41Z</time>
      </trkpt>
      <trkpt lat="47.08187" lon="3.1924">
        <ele>206</ele>
        <time>2016-08-18T18:23:41Z</time>
      </trkpt>
      <trkpt lat="47.08179" lon="3.1924">
        <ele>205</ele>
        <time>2016-08-18T18:23:42Z</time>
      </trkpt>
      <trkpt lat="47.08172" lon="3.19242">
        <ele>205</ele>
        <time>2016-08-18T18:23:43Z</time>
      </trkpt>
      <trkpt lat="47.08164" lon="3.19244">
        <ele>205</ele>
        <time>2016-08-18T18:23:44Z</time>
      </trkpt>
      <trkpt lat="47.08157" lon="3.19247">
        <ele>205</ele>
        <time>2016-08-18T18:23:45Z</time>
      </trkpt>
      <trkpt lat="47.08149" lon="3.19251">
        <ele>205</ele>
        <time>2016-08-18T18:23:47Z</time>
      </trkpt>
      <trkpt lat="47.08136" lon="3.19261">
        <ele>206</ele>
        <time>2016-08-18T18:23:48Z</time>
      </trkpt>
      <trkpt lat="47.08134" lon="3.19262">
        <ele>206</ele>
        <time>2016-08-18T18:23:49Z</time>
      </trkpt>
      <trkpt lat="47.08128" lon="3.19267">
        <ele>206</ele>
        <time>2016-08-18T18:23:50Z</time>
      </trkpt>
      <trkpt lat="47.08121" lon="3.19273">
        <ele>206</ele>
        <time>2016-08-18T18:23:51Z</time>
      </trkpt>
      <trkpt lat="47.08114" lon="3.19278">
        <ele>206</ele>
        <time>2016-08-18T18:23:52Z</time>
      </trkpt>
      <trkpt lat="47.08107" lon="3.19283">
        <ele>206</ele>
        <time>2016-08-18T18:23:53Z</time>
      </trkpt>
      <trkpt lat="47.08094" lon="3.19293">
        <ele>206</ele>
        <time>2016-08-18T18:23:54Z</time>
      </trkpt>
      <trkpt lat="47.08093" lon="3.19294">
        <ele>206</ele>
        <time>2016-08-18T18:23:55Z</time>
      </trkpt>
      <trkpt lat="47.08086" lon="3.19299">
        <ele>206</ele>
        <time>2016-08-18T18:23:56Z</time>
      </trkpt>
      <trkpt lat="47.08079" lon="3.19304">
        <ele>206</ele>
        <time>2016-08-18T18:23:57Z</time>
      </trkpt>
      <trkpt lat="47.08072" lon="3.19309">
        <ele>206</ele>
        <time>2016-08-18T18:23:58Z</time>
      </trkpt>
      <trkpt lat="47.08066" lon="3.19315">
        <ele>206</ele>
        <time>2016-08-18T18:23:59Z</time>
      </trkpt>
      <trkpt lat="47.08055" lon="3.19323">
        <ele>207</ele>
        <time>2016-08-18T18:24:01Z</time>
      </trkpt>
      <trkpt lat="47.08054" lon="3.19324">
        <ele>207</ele>
        <time>2016-08-18T18:24:01Z</time>
      </trkpt>
      <trkpt lat="47.08047" lon="3.19329">
        <ele>207</ele>
        <time>2016-08-18T18:24:02Z</time>
      </trkpt>
      <trkpt lat="47.08041" lon="3.19333">
        <ele>208</ele>
        <time>2016-08-18T18:24:03Z</time>
      </trkpt>
      <trkpt lat="47.08035" lon="3.19338">
        <ele>208</ele>
        <time>2016-08-18T18:24:04Z</time>
      </trkpt>
      <trkpt lat="47.08029" lon="3.19342">
        <ele>208</ele>
        <time>2016-08-18T18:24:05Z</time>
      </trkpt>
      <trkpt lat="47.08023" lon="3.19347">
        <ele>208</ele>
        <time>2016-08-18T18:24:06Z</time>
      </trkpt>
      <trkpt lat="47.08017" lon="3.19351">
        <ele>207</ele>
        <time>2016-08-18T18:24:07Z</time>
      </trkpt>
      <trkpt lat="47.08012" lon="3.19356">
        <ele>207</ele>
        <time>2016-08-18T18:24:08Z</time>
      </trkpt>
      <trkpt lat="47.08005" lon="3.19361">
        <ele>208</ele>
        <time>2016-08-18T18:24:09Z</time>
      </trkpt>
      <trkpt lat="47.08" lon="3.19363">
        <ele>206</ele>
        <time>2016-08-18T18:24:10Z</time>
      </trkpt>
      <trkpt lat="47.07994" lon="3.19367">
        <ele>207</ele>
        <time>2016-08-18T18:24:11Z</time>
      </trkpt>
      <trkpt lat="47.07989" lon="3.19372">
        <ele>207</ele>
        <time>2016-08-18T18:24:12Z</time>
      </trkpt>
      <trkpt lat="47.07983" lon="3.19376">
        <ele>207</ele>
        <time>2016-08-18T18:24:13Z</time>
      </trkpt>
      <trkpt lat="47.07976" lon="3.1938">
        <ele>207</ele>
        <time>2016-08-18T18:24:14Z</time>
      </trkpt>
      <trkpt lat="47.07971" lon="3.19384">
        <ele>207</ele>
        <time>2016-08-18T18:24:15Z</time>
      </trkpt>
      <trkpt lat="47.07966" lon="3.19388">
        <ele>207</ele>
        <time>2016-08-18T18:24:16Z</time>
      </trkpt>
      <trkpt lat="47.0796" lon="3.19392">
        <ele>207</ele>
        <time>2016-08-18T18:24:17Z</time>
      </trkpt>
      <trkpt lat="47.07955" lon="3.19397">
        <ele>207</ele>
        <time>2016-08-18T18:24:18Z</time>
      </trkpt>
      <trkpt lat="47.07949" lon="3.194">
        <ele>207</ele>
        <time>2016-08-18T18:24:19Z</time>
      </trkpt>
      <trkpt lat="47.07944" lon="3.19405">
        <ele>207</ele>
        <time>2016-08-18T18:24:20Z</time>
      </trkpt>
      <trkpt lat="47.07938" lon="3.1941">
        <ele>207</ele>
        <time>2016-08-18T18:24:21Z</time>
      </trkpt>
      <trkpt lat="47.07933" lon="3.19414">
        <ele>207</ele>
        <time>2016-08-18T18:24:22Z</time>
      </trkpt>
      <trkpt lat="47.07928" lon="3.19419">
        <ele>207</ele>
        <time>2016-08-18T18:24:23Z</time>
      </trkpt>
      <trkpt lat="47.07923" lon="3.19423">
        <ele>207</ele>
        <time>2016-08-18T18:24:24Z</time>
      </trkpt>
      <trkpt lat="47.07918" lon="3.19427">
        <ele>207</ele>
        <time>2016-08-18T18:24:25Z</time>
      </trkpt>
      <trkpt lat="47.07913" lon="3.19432">
        <ele>207</ele>
        <time>2016-08-18T18:24:26Z</time>
      </trkpt>
      <trkpt lat="47.07907" lon="3.19437">
        <ele>207</ele>
        <time>2016-08-18T18:24:27Z</time>
      </trkpt>
      <trkpt lat="47.07902" lon="3.19441">
        <ele>207</ele>
        <time>2016-08-18T18:24:29Z</time>
      </trkpt>
      <trkpt lat="47.07897" lon="3.19445">
        <ele>207</ele>
        <time>2016-08-18T18:24:30Z</time>
      </trkpt>
      <trkpt lat="47.07892" lon="3.19449">
        <ele>207</ele>
        <time>2016-08-18T18:24:31Z</time>
      </trkpt>
      <trkpt lat="47.07883" lon="3.19455">
        <ele>207</ele>
        <time>2016-08-18T18:24:32Z</time>
      </trkpt>
      <trkpt lat="47.07882" lon="3.19455">
        <ele>207</ele>
        <time>2016-08-18T18:24:33Z</time>
      </trkpt>
      <trkpt lat="47.07877" lon="3.1946">
        <ele>207</ele>
        <time>2016-08-18T18:24:34Z</time>
      </trkpt>
      <trkpt lat="47.07872" lon="3.19464">
        <ele>207</ele>
        <time>2016-08-18T18:24:35Z</time>
      </trkpt>
      <trkpt lat="47.07866" lon="3.19467">
        <ele>207</ele>
        <time>2016-08-18T18:24:36Z</time>
      </trkpt>
      <trkpt lat="47.07861" lon="3.19471">
        <ele>207</ele>
        <time>2016-08-18T18:24:37Z</time>
      </trkpt>
      <trkpt lat="47.07856" lon="3.19475">
        <ele>206</ele>
        <time>2016-08-18T18:24:38Z</time>
      </trkpt>
      <trkpt lat="47.07851" lon="3.19479">
        <ele>206</ele>
        <time>2016-08-18T18:24:39Z</time>
      </trkpt>
      <trkpt lat="47.07847" lon="3.19483">
        <ele>206</ele>
        <time>2016-08-18T18:24:40Z</time>
      </trkpt>
    </trkseg>
  </trk>
</gpx>